<?xml version="1.0" encoding="UTF-8"?>
<gpx version="1.1" creator="https://www.youtrack.es" xsi:schemaLocation="http://www.topografix.com/GPX/1/1 http://www.topografix.com/GPX/1/1/gpx.xsd http://www.garmin.com/xmlschemas/GpxExtensions/v3 http://www.garmin.com/xmlschemas/GpxExtensionsv3.xsd http://www.garmin.com/xmlschemas/TrackPointExtension/v1 http://www.garmin.com/xmlschemas/TrackPointExtensionv1.xsd" xmlns:gpxtpx="http://www.garmin.com/xmlschemas/TrackPointExtension/v1" xmlns:gpxx="http://www.garmin.com/xmlschemas/GpxExtensions/v3" xmlns:xsi="http://www.w3.org/2001/XMLSchema-instance">
  <metadata>
    <link href="https://www.youtrack.es">
      <text>YouTrack.es</text>
    </link>
    <time>2026-05-08T04:27:16Z</time>
  </metadata>
  <trk>
    <src>https://www.youtrack.es</src>
    <link href="https://www.youtrack.es/ruta/529-lobos">
      <text>YouTrack.es</text>
    </link>
    <trkseg>
      <trkpt lat="39.828015714883804" lon="-6.1426277831196785">
        <ele>412.79998779296875</ele>
        <time>2015-05-03T07:33:20.000Z</time>
      </trkpt>
      <trkpt lat="39.8279987834394" lon="-6.14265619777143">
        <ele>411.79998779296875</ele>
        <time>2015-05-03T07:35:28.000Z</time>
      </trkpt>
      <trkpt lat="39.827961986884475" lon="-6.14270162768662">
        <ele>411.79998779296875</ele>
        <time>2015-05-03T07:35:29.000Z</time>
      </trkpt>
      <trkpt lat="39.82775520533323" lon="-6.142920143902302">
        <ele>411.0</ele>
        <time>2015-05-03T07:35:33.000Z</time>
      </trkpt>
      <trkpt lat="39.82771094888449" lon="-6.1429552640765905">
        <ele>410.79998779296875</ele>
        <time>2015-05-03T07:35:34.000Z</time>
      </trkpt>
      <trkpt lat="39.82765101827681" lon="-6.142970100045204">
        <ele>411.20001220703125</ele>
        <time>2015-05-03T07:35:36.000Z</time>
      </trkpt>
      <trkpt lat="39.82763207517564" lon="-6.1429547611624">
        <ele>411.3999938964844</ele>
        <time>2015-05-03T07:35:37.000Z</time>
      </trkpt>
      <trkpt lat="39.827618915587664" lon="-6.14292299374938">
        <ele>411.3999938964844</ele>
        <time>2015-05-03T07:35:38.000Z</time>
      </trkpt>
      <trkpt lat="39.82760567218065" lon="-6.142872702330351">
        <ele>411.0</ele>
        <time>2015-05-03T07:35:39.000Z</time>
      </trkpt>
      <trkpt lat="39.8275878187269" lon="-6.142804808914661">
        <ele>411.0</ele>
        <time>2015-05-03T07:35:40.000Z</time>
      </trkpt>
      <trkpt lat="39.827574491500854" lon="-6.142726186662912">
        <ele>410.6000061035156</ele>
        <time>2015-05-03T07:35:41.000Z</time>
      </trkpt>
      <trkpt lat="39.82756384648383" lon="-6.142640188336372">
        <ele>410.79998779296875</ele>
        <time>2015-05-03T07:35:42.000Z</time>
      </trkpt>
      <trkpt lat="39.82755571603775" lon="-6.142555363476276">
        <ele>410.6000061035156</ele>
        <time>2015-05-03T07:35:43.000Z</time>
      </trkpt>
      <trkpt lat="39.827547669410706" lon="-6.142395939677954">
        <ele>410.20001220703125</ele>
        <time>2015-05-03T07:35:45.000Z</time>
      </trkpt>
      <trkpt lat="39.827542724087834" lon="-6.142245065420866">
        <ele>409.3999938964844</ele>
        <time>2015-05-03T07:35:47.000Z</time>
      </trkpt>
      <trkpt lat="39.82753040269017" lon="-6.142091425135732">
        <ele>409.20001220703125</ele>
        <time>2015-05-03T07:35:49.000Z</time>
      </trkpt>
      <trkpt lat="39.827471897006035" lon="-6.141856145113707">
        <ele>408.20001220703125</ele>
        <time>2015-05-03T07:35:52.000Z</time>
      </trkpt>
      <trkpt lat="39.82734080404043" lon="-6.141482060775161">
        <ele>407.79998779296875</ele>
        <time>2015-05-03T07:35:57.000Z</time>
      </trkpt>
      <trkpt lat="39.82724969275296" lon="-6.141135971993208">
        <ele>407.0</ele>
        <time>2015-05-03T07:36:02.000Z</time>
      </trkpt>
      <trkpt lat="39.82721457257867" lon="-6.141020301729441">
        <ele>406.6000061035156</ele>
        <time>2015-05-03T07:36:04.000Z</time>
      </trkpt>
      <trkpt lat="39.827193869277835" lon="-6.140971099957824">
        <ele>406.6000061035156</ele>
        <time>2015-05-03T07:36:05.000Z</time>
      </trkpt>
      <trkpt lat="39.82713460922241" lon="-6.140871774405241">
        <ele>406.0</ele>
        <time>2015-05-03T07:36:07.000Z</time>
      </trkpt>
      <trkpt lat="39.82710669748485" lon="-6.140807652845979">
        <ele>405.6000061035156</ele>
        <time>2015-05-03T07:36:08.000Z</time>
      </trkpt>
      <trkpt lat="39.82702497392893" lon="-6.140483859926462">
        <ele>405.0</ele>
        <time>2015-05-03T07:36:12.000Z</time>
      </trkpt>
      <trkpt lat="39.8270058631897" lon="-6.140397107228637">
        <ele>404.6000061035156</ele>
        <time>2015-05-03T07:36:13.000Z</time>
      </trkpt>
      <trkpt lat="39.82692455872893" lon="-6.139962840825319">
        <ele>404.0</ele>
        <time>2015-05-03T07:36:18.000Z</time>
      </trkpt>
      <trkpt lat="39.826889522373676" lon="-6.139801740646362">
        <ele>403.6000061035156</ele>
        <time>2015-05-03T07:36:20.000Z</time>
      </trkpt>
      <trkpt lat="39.82685809023678" lon="-6.139651453122497">
        <ele>403.20001220703125</ele>
        <time>2015-05-03T07:36:22.000Z</time>
      </trkpt>
      <trkpt lat="39.826830765232444" lon="-6.139515247195959">
        <ele>403.20001220703125</ele>
        <time>2015-05-03T07:36:24.000Z</time>
      </trkpt>
      <trkpt lat="39.826789274811745" lon="-6.139295808970928">
        <ele>403.3999938964844</ele>
        <time>2015-05-03T07:36:27.000Z</time>
      </trkpt>
      <trkpt lat="39.82675683684647" lon="-6.139130601659417">
        <ele>402.79998779296875</ele>
        <time>2015-05-03T07:36:29.000Z</time>
      </trkpt>
      <trkpt lat="39.82672146521509" lon="-6.138963298872113">
        <ele>402.79998779296875</ele>
        <time>2015-05-03T07:36:31.000Z</time>
      </trkpt>
      <trkpt lat="39.82668148353696" lon="-6.138801863417029">
        <ele>402.3999938964844</ele>
        <time>2015-05-03T07:36:33.000Z</time>
      </trkpt>
      <trkpt lat="39.82665373943746" lon="-6.138728270307183">
        <ele>402.20001220703125</ele>
        <time>2015-05-03T07:36:34.000Z</time>
      </trkpt>
      <trkpt lat="39.826530944556" lon="-6.138525847345591">
        <ele>402.20001220703125</ele>
        <time>2015-05-03T07:36:37.000Z</time>
      </trkpt>
      <trkpt lat="39.826428685337305" lon="-6.138440351933241">
        <ele>402.20001220703125</ele>
        <time>2015-05-03T07:36:39.000Z</time>
      </trkpt>
      <trkpt lat="39.82637772336602" lon="-6.138412356376648">
        <ele>402.20001220703125</ele>
        <time>2015-05-03T07:36:40.000Z</time>
      </trkpt>
      <trkpt lat="39.82628518715501" lon="-6.138339098542929">
        <ele>402.0</ele>
        <time>2015-05-03T07:36:42.000Z</time>
      </trkpt>
      <trkpt lat="39.82626029290259" lon="-6.138266930356622">
        <ele>401.79998779296875</ele>
        <time>2015-05-03T07:36:43.000Z</time>
      </trkpt>
      <trkpt lat="39.82625895179808" lon="-6.138181099668145">
        <ele>401.6000061035156</ele>
        <time>2015-05-03T07:36:44.000Z</time>
      </trkpt>
      <trkpt lat="39.82627487741411" lon="-6.138008181005716">
        <ele>401.20001220703125</ele>
        <time>2015-05-03T07:36:46.000Z</time>
      </trkpt>
      <trkpt lat="39.82625543139875" lon="-6.137828389182687">
        <ele>401.6000061035156</ele>
        <time>2015-05-03T07:36:48.000Z</time>
      </trkpt>
      <trkpt lat="39.826214695349336" lon="-6.137746497988701">
        <ele>401.6000061035156</ele>
        <time>2015-05-03T07:36:49.000Z</time>
      </trkpt>
      <trkpt lat="39.82608452439308" lon="-6.137647926807404">
        <ele>401.3999938964844</ele>
        <time>2015-05-03T07:36:51.000Z</time>
      </trkpt>
      <trkpt lat="39.82600565068424" lon="-6.13761649467051">
        <ele>401.20001220703125</ele>
        <time>2015-05-03T07:36:52.000Z</time>
      </trkpt>
      <trkpt lat="39.82584597542882" lon="-6.137540135532618">
        <ele>401.0</ele>
        <time>2015-05-03T07:36:54.000Z</time>
      </trkpt>
      <trkpt lat="39.82570339925587" lon="-6.137395044788718">
        <ele>400.6000061035156</ele>
        <time>2015-05-03T07:36:56.000Z</time>
      </trkpt>
      <trkpt lat="39.82557775452733" lon="-6.137224808335304">
        <ele>400.6000061035156</ele>
        <time>2015-05-03T07:36:58.000Z</time>
      </trkpt>
      <trkpt lat="39.825456300750375" lon="-6.137054152786732">
        <ele>401.20001220703125</ele>
        <time>2015-05-03T07:37:00.000Z</time>
      </trkpt>
      <trkpt lat="39.82528011314571" lon="-6.136802192777395">
        <ele>401.20001220703125</ele>
        <time>2015-05-03T07:37:03.000Z</time>
      </trkpt>
      <trkpt lat="39.82499630190432" lon="-6.1363898031413555">
        <ele>401.6000061035156</ele>
        <time>2015-05-03T07:37:08.000Z</time>
      </trkpt>
      <trkpt lat="39.82493318617344" lon="-6.1363244242966175">
        <ele>401.6000061035156</ele>
        <time>2015-05-03T07:37:09.000Z</time>
      </trkpt>
      <trkpt lat="39.824526915326715" lon="-6.135998787358403">
        <ele>402.20001220703125</ele>
        <time>2015-05-03T07:37:15.000Z</time>
      </trkpt>
      <trkpt lat="39.824265483766794" lon="-6.135798962786794">
        <ele>402.6000061035156</ele>
        <time>2015-05-03T07:37:19.000Z</time>
      </trkpt>
      <trkpt lat="39.82401905581355" lon="-6.135600730776787">
        <ele>404.0</ele>
        <time>2015-05-03T07:37:23.000Z</time>
      </trkpt>
      <trkpt lat="39.823525194078684" lon="-6.135180881246924">
        <ele>405.0</ele>
        <time>2015-05-03T07:37:31.000Z</time>
      </trkpt>
      <trkpt lat="39.82321196235716" lon="-6.134898662567139">
        <ele>405.20001220703125</ele>
        <time>2015-05-03T07:37:36.000Z</time>
      </trkpt>
      <trkpt lat="39.82314834371209" lon="-6.134840324521065">
        <ele>405.3999938964844</ele>
        <time>2015-05-03T07:37:37.000Z</time>
      </trkpt>
      <trkpt lat="39.822788676247" lon="-6.134474873542786">
        <ele>406.3999938964844</ele>
        <time>2015-05-03T07:37:43.000Z</time>
      </trkpt>
      <trkpt lat="39.82273620553315" lon="-6.1343998555094">
        <ele>406.6000061035156</ele>
        <time>2015-05-03T07:37:44.000Z</time>
      </trkpt>
      <trkpt lat="39.82252883724868" lon="-6.133973300457001">
        <ele>406.79998779296875</ele>
        <time>2015-05-03T07:37:49.000Z</time>
      </trkpt>
      <trkpt lat="39.822280230000615" lon="-6.133316578343511">
        <ele>406.79998779296875</ele>
        <time>2015-05-03T07:37:56.000Z</time>
      </trkpt>
      <trkpt lat="39.82205928303301" lon="-6.13265541382134">
        <ele>405.6000061035156</ele>
        <time>2015-05-03T07:38:02.000Z</time>
      </trkpt>
      <trkpt lat="39.82202818617225" lon="-6.132532535120845">
        <ele>405.3999938964844</ele>
        <time>2015-05-03T07:38:03.000Z</time>
      </trkpt>
      <trkpt lat="39.822012512013316" lon="-6.132405214011669">
        <ele>405.3999938964844</ele>
        <time>2015-05-03T07:38:04.000Z</time>
      </trkpt>
      <trkpt lat="39.82201041653752" lon="-6.132276300340891">
        <ele>405.20001220703125</ele>
        <time>2015-05-03T07:38:05.000Z</time>
      </trkpt>
      <trkpt lat="39.822023157030344" lon="-6.131761232391">
        <ele>407.0</ele>
        <time>2015-05-03T07:38:09.000Z</time>
      </trkpt>
      <trkpt lat="39.82202055864036" lon="-6.131630893796682">
        <ele>406.79998779296875</ele>
        <time>2015-05-03T07:38:10.000Z</time>
      </trkpt>
      <trkpt lat="39.82197697274387" lon="-6.130877695977688">
        <ele>407.20001220703125</ele>
        <time>2015-05-03T07:38:16.000Z</time>
      </trkpt>
      <trkpt lat="39.82192039489746" lon="-6.130137741565704">
        <ele>407.0</ele>
        <time>2015-05-03T07:38:22.000Z</time>
      </trkpt>
      <trkpt lat="39.82190161943436" lon="-6.130014024674892">
        <ele>407.0</ele>
        <time>2015-05-03T07:38:23.000Z</time>
      </trkpt>
      <trkpt lat="39.821778908371925" lon="-6.129316985607147">
        <ele>407.79998779296875</ele>
        <time>2015-05-03T07:38:29.000Z</time>
      </trkpt>
      <trkpt lat="39.82171495445073" lon="-6.128962263464928">
        <ele>408.0</ele>
        <time>2015-05-03T07:38:32.000Z</time>
      </trkpt>
      <trkpt lat="39.82162275351584" lon="-6.128594549372792">
        <ele>408.0</ele>
        <time>2015-05-03T07:38:35.000Z</time>
      </trkpt>
      <trkpt lat="39.821512112393975" lon="-6.1279642302542925">
        <ele>407.79998779296875</ele>
        <time>2015-05-03T07:38:40.000Z</time>
      </trkpt>
      <trkpt lat="39.82144740410149" lon="-6.127554355189204">
        <ele>406.3999938964844</ele>
        <time>2015-05-03T07:38:43.000Z</time>
      </trkpt>
      <trkpt lat="39.821402644738555" lon="-6.127267694100738">
        <ele>405.3999938964844</ele>
        <time>2015-05-03T07:38:45.000Z</time>
      </trkpt>
      <trkpt lat="39.82137615792453" lon="-6.127124112099409">
        <ele>405.20001220703125</ele>
        <time>2015-05-03T07:38:46.000Z</time>
      </trkpt>
      <trkpt lat="39.82125730253756" lon="-6.126429755240679">
        <ele>404.79998779296875</ele>
        <time>2015-05-03T07:38:51.000Z</time>
      </trkpt>
      <trkpt lat="39.82122452929616" lon="-6.126154661178589">
        <ele>404.3999938964844</ele>
        <time>2015-05-03T07:38:53.000Z</time>
      </trkpt>
      <trkpt lat="39.821214471012354" lon="-6.126014851033688">
        <ele>404.20001220703125</ele>
        <time>2015-05-03T07:38:54.000Z</time>
      </trkpt>
      <trkpt lat="39.82119276188314" lon="-6.125576477497816">
        <ele>403.0</ele>
        <time>2015-05-03T07:38:57.000Z</time>
      </trkpt>
      <trkpt lat="39.821182787418365" lon="-6.125272801145911">
        <ele>402.20001220703125</ele>
        <time>2015-05-03T07:38:59.000Z</time>
      </trkpt>
      <trkpt lat="39.821179853752255" lon="-6.125118155032396">
        <ele>401.6000061035156</ele>
        <time>2015-05-03T07:39:00.000Z</time>
      </trkpt>
      <trkpt lat="39.821189660578966" lon="-6.124807773157954">
        <ele>400.3999938964844</ele>
        <time>2015-05-03T07:39:02.000Z</time>
      </trkpt>
      <trkpt lat="39.82120650820434" lon="-6.124500660225749">
        <ele>399.3999938964844</ele>
        <time>2015-05-03T07:39:04.000Z</time>
      </trkpt>
      <trkpt lat="39.82123073190451" lon="-6.123962374404073">
        <ele>399.0</ele>
        <time>2015-05-03T07:39:08.000Z</time>
      </trkpt>
      <trkpt lat="39.8212740663439" lon="-6.123359967023134">
        <ele>400.20001220703125</ele>
        <time>2015-05-03T07:39:13.000Z</time>
      </trkpt>
      <trkpt lat="39.82127599418163" lon="-6.123235076665878">
        <ele>400.3999938964844</ele>
        <time>2015-05-03T07:39:14.000Z</time>
      </trkpt>
      <trkpt lat="39.82129015959799" lon="-6.122764432802796">
        <ele>401.20001220703125</ele>
        <time>2015-05-03T07:39:18.000Z</time>
      </trkpt>
      <trkpt lat="39.82129870913923" lon="-6.122651444748044">
        <ele>401.3999938964844</ele>
        <time>2015-05-03T07:39:19.000Z</time>
      </trkpt>
      <trkpt lat="39.821313293650746" lon="-6.122542396187782">
        <ele>401.6000061035156</ele>
        <time>2015-05-03T07:39:20.000Z</time>
      </trkpt>
      <trkpt lat="39.82137984596193" lon="-6.122235702350736">
        <ele>402.6000061035156</ele>
        <time>2015-05-03T07:39:23.000Z</time>
      </trkpt>
      <trkpt lat="39.82146634720266" lon="-6.121942671015859">
        <ele>402.79998779296875</ele>
        <time>2015-05-03T07:39:26.000Z</time>
      </trkpt>
      <trkpt lat="39.82152862474322" lon="-6.121751479804516">
        <ele>403.0</ele>
        <time>2015-05-03T07:39:28.000Z</time>
      </trkpt>
      <trkpt lat="39.821687042713165" lon="-6.121263736858964">
        <ele>402.0</ele>
        <time>2015-05-03T07:39:33.000Z</time>
      </trkpt>
      <trkpt lat="39.82172383926809" lon="-6.121050333604217">
        <ele>401.3999938964844</ele>
        <time>2015-05-03T07:39:35.000Z</time>
      </trkpt>
      <trkpt lat="39.821736915037036" lon="-6.120820585638285">
        <ele>400.20001220703125</ele>
        <time>2015-05-03T07:39:37.000Z</time>
      </trkpt>
      <trkpt lat="39.82175225391984" lon="-6.120699718594551">
        <ele>399.6000061035156</ele>
        <time>2015-05-03T07:39:38.000Z</time>
      </trkpt>
      <trkpt lat="39.821782261133194" lon="-6.120576672255993">
        <ele>398.79998779296875</ele>
        <time>2015-05-03T07:39:39.000Z</time>
      </trkpt>
      <trkpt lat="39.82190673239529" lon="-6.120370477437973">
        <ele>397.3999938964844</ele>
        <time>2015-05-03T07:39:41.000Z</time>
      </trkpt>
      <trkpt lat="39.82205945067108" lon="-6.120202587917447">
        <ele>396.0</ele>
        <time>2015-05-03T07:39:43.000Z</time>
      </trkpt>
      <trkpt lat="39.82221459969878" lon="-6.12003218382597">
        <ele>394.0</ele>
        <time>2015-05-03T07:39:45.000Z</time>
      </trkpt>
      <trkpt lat="39.82228735461831" lon="-6.119936881586909">
        <ele>392.79998779296875</ele>
        <time>2015-05-03T07:39:46.000Z</time>
      </trkpt>
      <trkpt lat="39.82235038653016" lon="-6.119831521064043">
        <ele>391.6000061035156</ele>
        <time>2015-05-03T07:39:47.000Z</time>
      </trkpt>
      <trkpt lat="39.82245306484401" lon="-6.119596743956208">
        <ele>389.79998779296875</ele>
        <time>2015-05-03T07:39:49.000Z</time>
      </trkpt>
      <trkpt lat="39.82249606400728" lon="-6.1194688361138105">
        <ele>388.0</ele>
        <time>2015-05-03T07:39:50.000Z</time>
      </trkpt>
      <trkpt lat="39.82253638096154" lon="-6.11933246254921">
        <ele>386.6000061035156</ele>
        <time>2015-05-03T07:39:51.000Z</time>
      </trkpt>
      <trkpt lat="39.82260829769075" lon="-6.119053093716502">
        <ele>384.79998779296875</ele>
        <time>2015-05-03T07:39:53.000Z</time>
      </trkpt>
      <trkpt lat="39.822653476148844" lon="-6.118915714323521">
        <ele>384.20001220703125</ele>
        <time>2015-05-03T07:39:54.000Z</time>
      </trkpt>
      <trkpt lat="39.82271399348974" lon="-6.118787135928869">
        <ele>383.20001220703125</ele>
        <time>2015-05-03T07:39:55.000Z</time>
      </trkpt>
      <trkpt lat="39.822788424789906" lon="-6.118669202551246">
        <ele>382.3999938964844</ele>
        <time>2015-05-03T07:39:56.000Z</time>
      </trkpt>
      <trkpt lat="39.822874339297414" lon="-6.118565099313855">
        <ele>381.79998779296875</ele>
        <time>2015-05-03T07:39:57.000Z</time>
      </trkpt>
      <trkpt lat="39.82296511530876" lon="-6.118462337180972">
        <ele>380.79998779296875</ele>
        <time>2015-05-03T07:39:58.000Z</time>
      </trkpt>
      <trkpt lat="39.823057651519775" lon="-6.118364855647087">
        <ele>380.20001220703125</ele>
        <time>2015-05-03T07:39:59.000Z</time>
      </trkpt>
      <trkpt lat="39.82324012555182" lon="-6.1181344371289015">
        <ele>379.20001220703125</ele>
        <time>2015-05-03T07:40:02.000Z</time>
      </trkpt>
      <trkpt lat="39.82322386465967" lon="-6.1179393902421">
        <ele>378.79998779296875</ele>
        <time>2015-05-03T07:40:04.000Z</time>
      </trkpt>
      <trkpt lat="39.82317449524999" lon="-6.117711402475834">
        <ele>378.20001220703125</ele>
        <time>2015-05-03T07:40:06.000Z</time>
      </trkpt>
      <trkpt lat="39.823141722008586" lon="-6.117590200155973">
        <ele>377.79998779296875</ele>
        <time>2015-05-03T07:40:07.000Z</time>
      </trkpt>
      <trkpt lat="39.823101069778204" lon="-6.117464387789369">
        <ele>376.79998779296875</ele>
        <time>2015-05-03T07:40:08.000Z</time>
      </trkpt>
      <trkpt lat="39.82300895266235" lon="-6.117206644266844">
        <ele>375.79998779296875</ele>
        <time>2015-05-03T07:40:10.000Z</time>
      </trkpt>
      <trkpt lat="39.822910130023956" lon="-6.11694261431694">
        <ele>375.20001220703125</ele>
        <time>2015-05-03T07:40:12.000Z</time>
      </trkpt>
      <trkpt lat="39.822829999029636" lon="-6.116673471406102">
        <ele>374.0</ele>
        <time>2015-05-03T07:40:14.000Z</time>
      </trkpt>
      <trkpt lat="39.82284039258957" lon="-6.116435341536999">
        <ele>372.20001220703125</ele>
        <time>2015-05-03T07:40:16.000Z</time>
      </trkpt>
      <trkpt lat="39.82288490049541" lon="-6.116058072075248">
        <ele>371.3999938964844</ele>
        <time>2015-05-03T07:40:19.000Z</time>
      </trkpt>
      <trkpt lat="39.82286771759391" lon="-6.1159268114715815">
        <ele>370.79998779296875</ele>
        <time>2015-05-03T07:40:20.000Z</time>
      </trkpt>
      <trkpt lat="39.82284525409341" lon="-6.115793455392122">
        <ele>370.6000061035156</ele>
        <time>2015-05-03T07:40:21.000Z</time>
      </trkpt>
      <trkpt lat="39.82283066958189" lon="-6.115659596398473">
        <ele>370.3999938964844</ele>
        <time>2015-05-03T07:40:22.000Z</time>
      </trkpt>
      <trkpt lat="39.82280334457755" lon="-6.115394057705998">
        <ele>370.0</ele>
        <time>2015-05-03T07:40:24.000Z</time>
      </trkpt>
      <trkpt lat="39.82279311865568" lon="-6.11525977961719">
        <ele>369.79998779296875</ele>
        <time>2015-05-03T07:40:25.000Z</time>
      </trkpt>
      <trkpt lat="39.82278381474316" lon="-6.114694168791175">
        <ele>368.79998779296875</ele>
        <time>2015-05-03T07:40:29.000Z</time>
      </trkpt>
      <trkpt lat="39.82282279059291" lon="-6.114268200471997">
        <ele>368.6000061035156</ele>
        <time>2015-05-03T07:40:32.000Z</time>
      </trkpt>
      <trkpt lat="39.822863694280386" lon="-6.113985478878021">
        <ele>368.0</ele>
        <time>2015-05-03T07:40:34.000Z</time>
      </trkpt>
      <trkpt lat="39.82291339896619" lon="-6.11370200291276">
        <ele>367.79998779296875</ele>
        <time>2015-05-03T07:40:36.000Z</time>
      </trkpt>
      <trkpt lat="39.82299495488405" lon="-6.1134322732687">
        <ele>368.0</ele>
        <time>2015-05-03T07:40:38.000Z</time>
      </trkpt>
      <trkpt lat="39.8231356870383" lon="-6.11304234713316">
        <ele>367.6000061035156</ele>
        <time>2015-05-03T07:40:41.000Z</time>
      </trkpt>
      <trkpt lat="39.823238449171185" lon="-6.112788626924157">
        <ele>366.3999938964844</ele>
        <time>2015-05-03T07:40:43.000Z</time>
      </trkpt>
      <trkpt lat="39.82332478277385" lon="-6.112529374659061">
        <ele>366.0</ele>
        <time>2015-05-03T07:40:45.000Z</time>
      </trkpt>
      <trkpt lat="39.82336342334747" lon="-6.112245479598641">
        <ele>365.20001220703125</ele>
        <time>2015-05-03T07:40:47.000Z</time>
      </trkpt>
      <trkpt lat="39.82339938171208" lon="-6.111958986148238">
        <ele>364.3999938964844</ele>
        <time>2015-05-03T07:40:49.000Z</time>
      </trkpt>
      <trkpt lat="39.82343416661024" lon="-6.111681628972292">
        <ele>364.20001220703125</ele>
        <time>2015-05-03T07:40:51.000Z</time>
      </trkpt>
      <trkpt lat="39.823447074741125" lon="-6.111543830484152">
        <ele>364.20001220703125</ele>
        <time>2015-05-03T07:40:52.000Z</time>
      </trkpt>
      <trkpt lat="39.82349116355181" lon="-6.111280471086502">
        <ele>364.0</ele>
        <time>2015-05-03T07:40:54.000Z</time>
      </trkpt>
      <trkpt lat="39.823536425828934" lon="-6.11116161569953">
        <ele>364.20001220703125</ele>
        <time>2015-05-03T07:40:55.000Z</time>
      </trkpt>
      <trkpt lat="39.82373901642859" lon="-6.110862800851464">
        <ele>364.0</ele>
        <time>2015-05-03T07:40:58.000Z</time>
      </trkpt>
      <trkpt lat="39.82381956651807" lon="-6.1107780598104">
        <ele>364.20001220703125</ele>
        <time>2015-05-03T07:40:59.000Z</time>
      </trkpt>
      <trkpt lat="39.82395736500621" lon="-6.110581420361996">
        <ele>363.3999938964844</ele>
        <time>2015-05-03T07:41:01.000Z</time>
      </trkpt>
      <trkpt lat="39.82401746325195" lon="-6.110472874715924">
        <ele>363.0</ele>
        <time>2015-05-03T07:41:02.000Z</time>
      </trkpt>
      <trkpt lat="39.824087116867304" lon="-6.110375141724944">
        <ele>363.0</ele>
        <time>2015-05-03T07:41:03.000Z</time>
      </trkpt>
      <trkpt lat="39.82419876381755" lon="-6.110154697671533">
        <ele>362.79998779296875</ele>
        <time>2015-05-03T07:41:05.000Z</time>
      </trkpt>
      <trkpt lat="39.82449045404792" lon="-6.109522031620145">
        <ele>363.79998779296875</ele>
        <time>2015-05-03T07:41:11.000Z</time>
      </trkpt>
      <trkpt lat="39.82451635412872" lon="-6.109189605340362">
        <ele>364.0</ele>
        <time>2015-05-03T07:41:14.000Z</time>
      </trkpt>
      <trkpt lat="39.82451559975743" lon="-6.109086088836193">
        <ele>364.79998779296875</ele>
        <time>2015-05-03T07:41:15.000Z</time>
      </trkpt>
      <trkpt lat="39.82454585842788" lon="-6.108882073312998">
        <ele>365.79998779296875</ele>
        <time>2015-05-03T07:41:17.000Z</time>
      </trkpt>
      <trkpt lat="39.82456790283322" lon="-6.108778892084956">
        <ele>366.0</ele>
        <time>2015-05-03T07:41:18.000Z</time>
      </trkpt>
      <trkpt lat="39.824651554226875" lon="-6.108499942347407">
        <ele>366.3999938964844</ele>
        <time>2015-05-03T07:41:21.000Z</time>
      </trkpt>
      <trkpt lat="39.82468684203923" lon="-6.108415452763438">
        <ele>367.0</ele>
        <time>2015-05-03T07:41:22.000Z</time>
      </trkpt>
      <trkpt lat="39.82473344542086" lon="-6.108340602368116">
        <ele>367.6000061035156</ele>
        <time>2015-05-03T07:41:23.000Z</time>
      </trkpt>
      <trkpt lat="39.82482858002186" lon="-6.108180256560445">
        <ele>367.79998779296875</ele>
        <time>2015-05-03T07:41:25.000Z</time>
      </trkpt>
      <trkpt lat="39.82509545981884" lon="-6.107766609638929">
        <ele>366.6000061035156</ele>
        <time>2015-05-03T07:41:30.000Z</time>
      </trkpt>
      <trkpt lat="39.82524499297142" lon="-6.107505261898041">
        <ele>367.0</ele>
        <time>2015-05-03T07:41:33.000Z</time>
      </trkpt>
      <trkpt lat="39.82535680755973" lon="-6.107347849756479">
        <ele>366.6000061035156</ele>
        <time>2015-05-03T07:41:35.000Z</time>
      </trkpt>
      <trkpt lat="39.82547256164253" lon="-6.107184151187539">
        <ele>366.79998779296875</ele>
        <time>2015-05-03T07:41:37.000Z</time>
      </trkpt>
      <trkpt lat="39.82559099793434" lon="-6.10701902769506">
        <ele>366.6000061035156</ele>
        <time>2015-05-03T07:41:39.000Z</time>
      </trkpt>
      <trkpt lat="39.825656712055206" lon="-6.10694183036685">
        <ele>366.20001220703125</ele>
        <time>2015-05-03T07:41:40.000Z</time>
      </trkpt>
      <trkpt lat="39.82572443783283" lon="-6.106864381581545">
        <ele>365.79998779296875</ele>
        <time>2015-05-03T07:41:41.000Z</time>
      </trkpt>
      <trkpt lat="39.82585812918842" lon="-6.1067072208970785">
        <ele>365.79998779296875</ele>
        <time>2015-05-03T07:41:43.000Z</time>
      </trkpt>
      <trkpt lat="39.8259973526001" lon="-6.106544528156519">
        <ele>365.3999938964844</ele>
        <time>2015-05-03T07:41:45.000Z</time>
      </trkpt>
      <trkpt lat="39.826139844954014" lon="-6.10637404024601">
        <ele>364.6000061035156</ele>
        <time>2015-05-03T07:41:47.000Z</time>
      </trkpt>
      <trkpt lat="39.82634788379073" lon="-6.106083355844021">
        <ele>363.6000061035156</ele>
        <time>2015-05-03T07:41:50.000Z</time>
      </trkpt>
      <trkpt lat="39.826420890167356" lon="-6.105986209586263">
        <ele>363.0</ele>
        <time>2015-05-03T07:41:51.000Z</time>
      </trkpt>
      <trkpt lat="39.8264876101166" lon="-6.1058826092630625">
        <ele>362.3999938964844</ele>
        <time>2015-05-03T07:41:52.000Z</time>
      </trkpt>
      <trkpt lat="39.826670084148645" lon="-6.105557139962912">
        <ele>362.0</ele>
        <time>2015-05-03T07:41:55.000Z</time>
      </trkpt>
      <trkpt lat="39.82687694951892" lon="-6.105126226320863">
        <ele>362.3999938964844</ele>
        <time>2015-05-03T07:41:59.000Z</time>
      </trkpt>
      <trkpt lat="39.82696462422609" lon="-6.104921204969287">
        <ele>363.20001220703125</ele>
        <time>2015-05-03T07:42:01.000Z</time>
      </trkpt>
      <trkpt lat="39.8271041829139" lon="-6.1046309396624565">
        <ele>364.0</ele>
        <time>2015-05-03T07:42:04.000Z</time>
      </trkpt>
      <trkpt lat="39.8272527102381" lon="-6.104262555018067">
        <ele>364.6000061035156</ele>
        <time>2015-05-03T07:42:08.000Z</time>
      </trkpt>
      <trkpt lat="39.82728288508952" lon="-6.104181334376335">
        <ele>365.20001220703125</ele>
        <time>2015-05-03T07:42:09.000Z</time>
      </trkpt>
      <trkpt lat="39.82731708325446" lon="-6.104103969410062">
        <ele>365.79998779296875</ele>
        <time>2015-05-03T07:42:10.000Z</time>
      </trkpt>
      <trkpt lat="39.82746871188283" lon="-6.103905653581023">
        <ele>366.6000061035156</ele>
        <time>2015-05-03T07:42:13.000Z</time>
      </trkpt>
      <trkpt lat="39.82760466635227" lon="-6.10380532220006">
        <ele>365.79998779296875</ele>
        <time>2015-05-03T07:42:15.000Z</time>
      </trkpt>
      <trkpt lat="39.82774741016328" lon="-6.1036909930408">
        <ele>365.20001220703125</ele>
        <time>2015-05-03T07:42:17.000Z</time>
      </trkpt>
      <trkpt lat="39.82790448702872" lon="-6.103426963090897">
        <ele>364.6000061035156</ele>
        <time>2015-05-03T07:42:20.000Z</time>
      </trkpt>
      <trkpt lat="39.827957628294826" lon="-6.103202747181058">
        <ele>363.6000061035156</ele>
        <time>2015-05-03T07:42:22.000Z</time>
      </trkpt>
      <trkpt lat="39.827978080138564" lon="-6.1030850652605295">
        <ele>363.3999938964844</ele>
        <time>2015-05-03T07:42:23.000Z</time>
      </trkpt>
      <trkpt lat="39.82804982922971" lon="-6.10269907861948">
        <ele>361.6000061035156</ele>
        <time>2015-05-03T07:42:26.000Z</time>
      </trkpt>
      <trkpt lat="39.82806768268347" lon="-6.10255884937942">
        <ele>360.6000061035156</ele>
        <time>2015-05-03T07:42:27.000Z</time>
      </trkpt>
      <trkpt lat="39.82807321473956" lon="-6.10241568647325">
        <ele>359.6000061035156</ele>
        <time>2015-05-03T07:42:28.000Z</time>
      </trkpt>
      <trkpt lat="39.82803113758564" lon="-6.102138413116336">
        <ele>358.6000061035156</ele>
        <time>2015-05-03T07:42:30.000Z</time>
      </trkpt>
      <trkpt lat="39.82797967270017" lon="-6.10201695933938">
        <ele>358.3999938964844</ele>
        <time>2015-05-03T07:42:31.000Z</time>
      </trkpt>
      <trkpt lat="39.82791890390217" lon="-6.101911012083292">
        <ele>358.0</ele>
        <time>2015-05-03T07:42:32.000Z</time>
      </trkpt>
      <trkpt lat="39.827873976901174" lon="-6.101701380684972">
        <ele>357.3999938964844</ele>
        <time>2015-05-03T07:42:34.000Z</time>
      </trkpt>
      <trkpt lat="39.827951677143574" lon="-6.101531060412526">
        <ele>356.3999938964844</ele>
        <time>2015-05-03T07:42:36.000Z</time>
      </trkpt>
      <trkpt lat="39.82810045592487" lon="-6.101501304656267">
        <ele>355.6000061035156</ele>
        <time>2015-05-03T07:42:38.000Z</time>
      </trkpt>
      <trkpt lat="39.828282510861754" lon="-6.101662069559097">
        <ele>355.79998779296875</ele>
        <time>2015-05-03T07:42:41.000Z</time>
      </trkpt>
      <trkpt lat="39.8283735383302" lon="-6.101829204708338">
        <ele>355.20001220703125</ele>
        <time>2015-05-03T07:42:43.000Z</time>
      </trkpt>
      <trkpt lat="39.828455932438374" lon="-6.102019641548395">
        <ele>353.79998779296875</ele>
        <time>2015-05-03T07:42:45.000Z</time>
      </trkpt>
      <trkpt lat="39.82858241535723" lon="-6.10218308866024">
        <ele>352.0</ele>
        <time>2015-05-03T07:42:47.000Z</time>
      </trkpt>
      <trkpt lat="39.828660786151886" lon="-6.102232206612825">
        <ele>351.0</ele>
        <time>2015-05-03T07:42:48.000Z</time>
      </trkpt>
      <trkpt lat="39.8287480417639" lon="-6.102252658456564">
        <ele>350.3999938964844</ele>
        <time>2015-05-03T07:42:49.000Z</time>
      </trkpt>
      <trkpt lat="39.82893160544336" lon="-6.102211587131023">
        <ele>349.0</ele>
        <time>2015-05-03T07:42:51.000Z</time>
      </trkpt>
      <trkpt lat="39.82901617884636" lon="-6.102159284055233">
        <ele>347.79998779296875</ele>
        <time>2015-05-03T07:42:52.000Z</time>
      </trkpt>
      <trkpt lat="39.82916328124702" lon="-6.10212885774672">
        <ele>346.6000061035156</ele>
        <time>2015-05-03T07:42:54.000Z</time>
      </trkpt>
      <trkpt lat="39.8292834777385" lon="-6.102224662899971">
        <ele>345.6000061035156</ele>
        <time>2015-05-03T07:42:56.000Z</time>
      </trkpt>
      <trkpt lat="39.82932438142598" lon="-6.102305464446545">
        <ele>345.0</ele>
        <time>2015-05-03T07:42:57.000Z</time>
      </trkpt>
      <trkpt lat="39.829388335347176" lon="-6.102484250441194">
        <ele>345.20001220703125</ele>
        <time>2015-05-03T07:42:59.000Z</time>
      </trkpt>
      <trkpt lat="39.82941901311278" lon="-6.102578127756715">
        <ele>345.6000061035156</ele>
        <time>2015-05-03T07:43:00.000Z</time>
      </trkpt>
      <trkpt lat="39.82945991680026" lon="-6.102664712816477">
        <ele>345.79998779296875</ele>
        <time>2015-05-03T07:43:01.000Z</time>
      </trkpt>
      <trkpt lat="39.8295062687248" lon="-6.102752219885588">
        <ele>346.0</ele>
        <time>2015-05-03T07:43:02.000Z</time>
      </trkpt>
      <trkpt lat="39.82954650186002" lon="-6.102841068059206">
        <ele>346.0</ele>
        <time>2015-05-03T07:43:03.000Z</time>
      </trkpt>
      <trkpt lat="39.8296148981899" lon="-6.103027565404773">
        <ele>345.6000061035156</ele>
        <time>2015-05-03T07:43:05.000Z</time>
      </trkpt>
      <trkpt lat="39.829684887081385" lon="-6.1032226122915745">
        <ele>345.0</ele>
        <time>2015-05-03T07:43:07.000Z</time>
      </trkpt>
      <trkpt lat="39.82973727397621" lon="-6.103309448808432">
        <ele>344.0</ele>
        <time>2015-05-03T07:43:08.000Z</time>
      </trkpt>
      <trkpt lat="39.82979812659323" lon="-6.103363428264856">
        <ele>342.79998779296875</ele>
        <time>2015-05-03T07:43:09.000Z</time>
      </trkpt>
      <trkpt lat="39.829859817400575" lon="-6.1033763363957405">
        <ele>342.20001220703125</ele>
        <time>2015-05-03T07:43:10.000Z</time>
      </trkpt>
      <trkpt lat="39.829916981980205" lon="-6.1033407133072615">
        <ele>341.6000061035156</ele>
        <time>2015-05-03T07:43:11.000Z</time>
      </trkpt>
      <trkpt lat="39.829967273399234" lon="-6.103274244815111">
        <ele>341.3999938964844</ele>
        <time>2015-05-03T07:43:12.000Z</time>
      </trkpt>
      <trkpt lat="39.83008688315749" lon="-6.1031807865947485">
        <ele>339.79998779296875</ele>
        <time>2015-05-03T07:43:14.000Z</time>
      </trkpt>
      <trkpt lat="39.83015662059188" lon="-6.103176008909941">
        <ele>339.0</ele>
        <time>2015-05-03T07:43:15.000Z</time>
      </trkpt>
      <trkpt lat="39.83022795058787" lon="-6.103201657533646">
        <ele>338.20001220703125</ele>
        <time>2015-05-03T07:43:16.000Z</time>
      </trkpt>
      <trkpt lat="39.83036206103861" lon="-6.103310706093907">
        <ele>336.79998779296875</ele>
        <time>2015-05-03T07:43:18.000Z</time>
      </trkpt>
      <trkpt lat="39.830426098778844" lon="-6.103379521518946">
        <ele>336.3999938964844</ele>
        <time>2015-05-03T07:43:19.000Z</time>
      </trkpt>
      <trkpt lat="39.83049340546131" lon="-6.10345009714365">
        <ele>335.3999938964844</ele>
        <time>2015-05-03T07:43:20.000Z</time>
      </trkpt>
      <trkpt lat="39.83055677264929" lon="-6.1035253666341305">
        <ele>334.3999938964844</ele>
        <time>2015-05-03T07:43:21.000Z</time>
      </trkpt>
      <trkpt lat="39.830606393516064" lon="-6.103614214807749">
        <ele>333.6000061035156</ele>
        <time>2015-05-03T07:43:22.000Z</time>
      </trkpt>
      <trkpt lat="39.83063707128167" lon="-6.10371052287519">
        <ele>332.79998779296875</ele>
        <time>2015-05-03T07:43:23.000Z</time>
      </trkpt>
      <trkpt lat="39.8306477162987" lon="-6.1039261892437935">
        <ele>330.6000061035156</ele>
        <time>2015-05-03T07:43:25.000Z</time>
      </trkpt>
      <trkpt lat="39.830636316910386" lon="-6.104044709354639">
        <ele>329.20001220703125</ele>
        <time>2015-05-03T07:43:26.000Z</time>
      </trkpt>
      <trkpt lat="39.83062231913209" lon="-6.1041688453406096">
        <ele>328.0</ele>
        <time>2015-05-03T07:43:27.000Z</time>
      </trkpt>
      <trkpt lat="39.83057990670204" lon="-6.104553323239088">
        <ele>326.6000061035156</ele>
        <time>2015-05-03T07:43:30.000Z</time>
      </trkpt>
      <trkpt lat="39.83056071214378" lon="-6.10468341037631">
        <ele>325.6000061035156</ele>
        <time>2015-05-03T07:43:31.000Z</time>
      </trkpt>
      <trkpt lat="39.83052743598819" lon="-6.104799583554268">
        <ele>325.0</ele>
        <time>2015-05-03T07:43:32.000Z</time>
      </trkpt>
      <trkpt lat="39.83048276044428" lon="-6.104902345687151">
        <ele>324.3999938964844</ele>
        <time>2015-05-03T07:43:33.000Z</time>
      </trkpt>
      <trkpt lat="39.83042341656983" lon="-6.1049887631088495">
        <ele>324.0</ele>
        <time>2015-05-03T07:43:34.000Z</time>
      </trkpt>
      <trkpt lat="39.830356780439615" lon="-6.105066798627377">
        <ele>323.0</ele>
        <time>2015-05-03T07:43:35.000Z</time>
      </trkpt>
      <trkpt lat="39.830289389938116" lon="-6.105138547718525">
        <ele>322.3999938964844</ele>
        <time>2015-05-03T07:43:36.000Z</time>
      </trkpt>
      <trkpt lat="39.830225855112076" lon="-6.105195293202996">
        <ele>321.20001220703125</ele>
        <time>2015-05-03T07:43:37.000Z</time>
      </trkpt>
      <trkpt lat="39.83016164973378" lon="-6.105240471661091">
        <ele>321.0</ele>
        <time>2015-05-03T07:43:38.000Z</time>
      </trkpt>
      <trkpt lat="39.8301228415221" lon="-6.105292271822691">
        <ele>319.6000061035156</ele>
        <time>2015-05-03T07:43:39.000Z</time>
      </trkpt>
      <trkpt lat="39.83011764474213" lon="-6.105348262935877">
        <ele>318.3999938964844</ele>
        <time>2015-05-03T07:43:40.000Z</time>
      </trkpt>
      <trkpt lat="39.830197524279356" lon="-6.105419425293803">
        <ele>317.0</ele>
        <time>2015-05-03T07:43:42.000Z</time>
      </trkpt>
      <trkpt lat="39.830327946692705" lon="-6.105373241007328">
        <ele>315.20001220703125</ele>
        <time>2015-05-03T07:43:44.000Z</time>
      </trkpt>
      <trkpt lat="39.83047873713076" lon="-6.105272741988301">
        <ele>314.0</ele>
        <time>2015-05-03T07:43:46.000Z</time>
      </trkpt>
      <trkpt lat="39.830566914752126" lon="-6.105222115293145">
        <ele>313.0</ele>
        <time>2015-05-03T07:43:47.000Z</time>
      </trkpt>
      <trkpt lat="39.830660205334425" lon="-6.105170818045735">
        <ele>312.0</ele>
        <time>2015-05-03T07:43:48.000Z</time>
      </trkpt>
      <trkpt lat="39.830758944153786" lon="-6.105120023712516">
        <ele>311.0</ele>
        <time>2015-05-03T07:43:49.000Z</time>
      </trkpt>
      <trkpt lat="39.83096773736179" lon="-6.105013405904174">
        <ele>309.79998779296875</ele>
        <time>2015-05-03T07:43:51.000Z</time>
      </trkpt>
      <trkpt lat="39.83106907457113" lon="-6.104953978210688">
        <ele>308.79998779296875</ele>
        <time>2015-05-03T07:43:52.000Z</time>
      </trkpt>
      <trkpt lat="39.83115498907864" lon="-6.104884408414364">
        <ele>307.3999938964844</ele>
        <time>2015-05-03T07:43:53.000Z</time>
      </trkpt>
      <trkpt lat="39.831229504197836" lon="-6.104801930487156">
        <ele>306.20001220703125</ele>
        <time>2015-05-03T07:43:54.000Z</time>
      </trkpt>
      <trkpt lat="39.83128784224391" lon="-6.104711573570967">
        <ele>305.3999938964844</ele>
        <time>2015-05-03T07:43:55.000Z</time>
      </trkpt>
      <trkpt lat="39.831324219703674" lon="-6.104609062895179">
        <ele>304.0</ele>
        <time>2015-05-03T07:43:56.000Z</time>
      </trkpt>
      <trkpt lat="39.831343330442905" lon="-6.1044892854988575">
        <ele>302.6000061035156</ele>
        <time>2015-05-03T07:43:57.000Z</time>
      </trkpt>
      <trkpt lat="39.83136218972504" lon="-6.104359030723572">
        <ele>301.0</ele>
        <time>2015-05-03T07:43:58.000Z</time>
      </trkpt>
      <trkpt lat="39.83139739371836" lon="-6.104222573339939">
        <ele>299.79998779296875</ele>
        <time>2015-05-03T07:43:59.000Z</time>
      </trkpt>
      <trkpt lat="39.83144550584257" lon="-6.10408435575664">
        <ele>297.79998779296875</ele>
        <time>2015-05-03T07:44:00.000Z</time>
      </trkpt>
      <trkpt lat="39.83149646781385" lon="-6.103938091546297">
        <ele>296.0</ele>
        <time>2015-05-03T07:44:01.000Z</time>
      </trkpt>
      <trkpt lat="39.83154910616577" lon="-6.1038012988865376">
        <ele>294.20001220703125</ele>
        <time>2015-05-03T07:44:02.000Z</time>
      </trkpt>
      <trkpt lat="39.83160006813705" lon="-6.103678420186043">
        <ele>292.6000061035156</ele>
        <time>2015-05-03T07:44:03.000Z</time>
      </trkpt>
      <trkpt lat="39.83164055272937" lon="-6.103569455444813">
        <ele>289.20001220703125</ele>
        <time>2015-05-03T07:44:04.000Z</time>
      </trkpt>
      <trkpt lat="39.83166620135307" lon="-6.103470465168357">
        <ele>287.79998779296875</ele>
        <time>2015-05-03T07:44:05.000Z</time>
      </trkpt>
      <trkpt lat="39.831635942682624" lon="-6.1032834649086">
        <ele>286.20001220703125</ele>
        <time>2015-05-03T07:44:07.000Z</time>
      </trkpt>
      <trkpt lat="39.831526055932045" lon="-6.103124041110277">
        <ele>285.0</ele>
        <time>2015-05-03T07:44:09.000Z</time>
      </trkpt>
      <trkpt lat="39.831472327932715" lon="-6.103037120774388">
        <ele>285.20001220703125</ele>
        <time>2015-05-03T07:44:10.000Z</time>
      </trkpt>
      <trkpt lat="39.83141491189599" lon="-6.102963192388415">
        <ele>285.0</ele>
        <time>2015-05-03T07:44:11.000Z</time>
      </trkpt>
      <trkpt lat="39.83135640621185" lon="-6.102819945663214">
        <ele>284.3999938964844</ele>
        <time>2015-05-03T07:44:13.000Z</time>
      </trkpt>
      <trkpt lat="39.83140284195542" lon="-6.10260184854269">
        <ele>284.3999938964844</ele>
        <time>2015-05-03T07:44:16.000Z</time>
      </trkpt>
      <trkpt lat="39.83155799098313" lon="-6.102390456944704">
        <ele>285.3999938964844</ele>
        <time>2015-05-03T07:44:20.000Z</time>
      </trkpt>
      <trkpt lat="39.831608617678285" lon="-6.102351397275925">
        <ele>286.0</ele>
        <time>2015-05-03T07:44:21.000Z</time>
      </trkpt>
      <trkpt lat="39.831713223829865" lon="-6.102292723953724">
        <ele>287.0</ele>
        <time>2015-05-03T07:44:23.000Z</time>
      </trkpt>
      <trkpt lat="39.8317632637918" lon="-6.102274786680937">
        <ele>287.20001220703125</ele>
        <time>2015-05-03T07:44:24.000Z</time>
      </trkpt>
      <trkpt lat="39.83180827461183" lon="-6.102257519960403">
        <ele>287.6000061035156</ele>
        <time>2015-05-03T07:44:25.000Z</time>
      </trkpt>
      <trkpt lat="39.83189729042351" lon="-6.102229440584779">
        <ele>288.6000061035156</ele>
        <time>2015-05-03T07:44:27.000Z</time>
      </trkpt>
      <trkpt lat="39.831985384225845" lon="-6.102211335673928">
        <ele>290.0</ele>
        <time>2015-05-03T07:44:29.000Z</time>
      </trkpt>
      <trkpt lat="39.832077249884605" lon="-6.10220211558044">
        <ele>291.0</ele>
        <time>2015-05-03T07:44:31.000Z</time>
      </trkpt>
      <trkpt lat="39.83212636783719" lon="-6.102197505533695">
        <ele>291.20001220703125</ele>
        <time>2015-05-03T07:44:32.000Z</time>
      </trkpt>
      <trkpt lat="39.83222275972366" lon="-6.102188704535365">
        <ele>291.6000061035156</ele>
        <time>2015-05-03T07:44:34.000Z</time>
      </trkpt>
      <trkpt lat="39.83231688849628" lon="-6.102168755605817">
        <ele>292.0</ele>
        <time>2015-05-03T07:44:36.000Z</time>
      </trkpt>
      <trkpt lat="39.83240967616439" lon="-6.1021411791443825">
        <ele>292.6000061035156</ele>
        <time>2015-05-03T07:44:38.000Z</time>
      </trkpt>
      <trkpt lat="39.832544792443514" lon="-6.10209901817143">
        <ele>293.3999938964844</ele>
        <time>2015-05-03T07:44:41.000Z</time>
      </trkpt>
      <trkpt lat="39.83268275856972" lon="-6.102061383426189">
        <ele>293.79998779296875</ele>
        <time>2015-05-03T07:44:44.000Z</time>
      </trkpt>
      <trkpt lat="39.832781329751015" lon="-6.102035483345389">
        <ele>293.6000061035156</ele>
        <time>2015-05-03T07:44:46.000Z</time>
      </trkpt>
      <trkpt lat="39.832833129912615" lon="-6.101931128650904">
        <ele>293.79998779296875</ele>
        <time>2015-05-03T07:44:48.000Z</time>
      </trkpt>
      <trkpt lat="39.83277722261846" lon="-6.101763574406505">
        <ele>293.79998779296875</ele>
        <time>2015-05-03T07:44:51.000Z</time>
      </trkpt>
      <trkpt lat="39.83271595090628" lon="-6.101696100085974">
        <ele>294.6000061035156</ele>
        <time>2015-05-03T07:44:53.000Z</time>
      </trkpt>
      <trkpt lat="39.83265887014568" lon="-6.1016257759183645">
        <ele>295.3999938964844</ele>
        <time>2015-05-03T07:44:55.000Z</time>
      </trkpt>
      <trkpt lat="39.832629449665546" lon="-6.1015924997627735">
        <ele>295.79998779296875</ele>
        <time>2015-05-03T07:44:56.000Z</time>
      </trkpt>
      <trkpt lat="39.83259500004351" lon="-6.101564839482307">
        <ele>296.20001220703125</ele>
        <time>2015-05-03T07:44:57.000Z</time>
      </trkpt>
      <trkpt lat="39.83248008415103" lon="-6.101511111482978">
        <ele>296.6000061035156</ele>
        <time>2015-05-03T07:45:00.000Z</time>
      </trkpt>
      <trkpt lat="39.83244437724352" lon="-6.101493090391159">
        <ele>297.0</ele>
        <time>2015-05-03T07:45:01.000Z</time>
      </trkpt>
      <trkpt lat="39.83233993873" lon="-6.101454785093665">
        <ele>297.79998779296875</ele>
        <time>2015-05-03T07:45:04.000Z</time>
      </trkpt>
      <trkpt lat="39.83230959624052" lon="-6.101436009630561">
        <ele>298.20001220703125</ele>
        <time>2015-05-03T07:45:05.000Z</time>
      </trkpt>
      <trkpt lat="39.832194512709975" lon="-6.101378258317709">
        <ele>299.20001220703125</ele>
        <time>2015-05-03T07:45:09.000Z</time>
      </trkpt>
      <trkpt lat="39.832116309553385" lon="-6.101339114829898">
        <ele>300.79998779296875</ele>
        <time>2015-05-03T07:45:12.000Z</time>
      </trkpt>
      <trkpt lat="39.83203316107392" lon="-6.101306676864624">
        <ele>301.6000061035156</ele>
        <time>2015-05-03T07:45:15.000Z</time>
      </trkpt>
      <trkpt lat="39.832009859383106" lon="-6.101296367123723">
        <ele>302.0</ele>
        <time>2015-05-03T07:45:16.000Z</time>
      </trkpt>
      <trkpt lat="39.83190634287894" lon="-6.1012305691838264">
        <ele>303.3999938964844</ele>
        <time>2015-05-03T07:45:20.000Z</time>
      </trkpt>
      <trkpt lat="39.83187859877944" lon="-6.101211039349437">
        <ele>303.79998779296875</ele>
        <time>2015-05-03T07:45:21.000Z</time>
      </trkpt>
      <trkpt lat="39.83176376670599" lon="-6.101136524230242">
        <ele>304.3999938964844</ele>
        <time>2015-05-03T07:45:25.000Z</time>
      </trkpt>
      <trkpt lat="39.83168254606426" lon="-6.101083634421229">
        <ele>305.3999938964844</ele>
        <time>2015-05-03T07:45:28.000Z</time>
      </trkpt>
      <trkpt lat="39.831604678183794" lon="-6.10102504491806">
        <ele>306.6000061035156</ele>
        <time>2015-05-03T07:45:31.000Z</time>
      </trkpt>
      <trkpt lat="39.8315267264843" lon="-6.100968718528748">
        <ele>307.6000061035156</ele>
        <time>2015-05-03T07:45:34.000Z</time>
      </trkpt>
      <trkpt lat="39.83150049112737" lon="-6.100949440151453">
        <ele>307.79998779296875</ele>
        <time>2015-05-03T07:45:35.000Z</time>
      </trkpt>
      <trkpt lat="39.8313903529197" lon="-6.100879032164812">
        <ele>308.6000061035156</ele>
        <time>2015-05-03T07:45:39.000Z</time>
      </trkpt>
      <trkpt lat="39.83131667599082" lon="-6.100825974717736">
        <ele>309.79998779296875</ele>
        <time>2015-05-03T07:45:42.000Z</time>
      </trkpt>
      <trkpt lat="39.831252889707685" lon="-6.100763780996203">
        <ele>311.20001220703125</ele>
        <time>2015-05-03T07:45:45.000Z</time>
      </trkpt>
      <trkpt lat="39.83118675649166" lon="-6.100667808204889">
        <ele>312.79998779296875</ele>
        <time>2015-05-03T07:45:49.000Z</time>
      </trkpt>
      <trkpt lat="39.831194216385484" lon="-6.100518526509404">
        <ele>314.0</ele>
        <time>2015-05-03T07:45:54.000Z</time>
      </trkpt>
      <trkpt lat="39.831284740939736" lon="-6.100436048582196">
        <ele>314.6000061035156</ele>
        <time>2015-05-03T07:45:58.000Z</time>
      </trkpt>
      <trkpt lat="39.83138549141586" lon="-6.1004056222736835">
        <ele>315.0</ele>
        <time>2015-05-03T07:46:01.000Z</time>
      </trkpt>
      <trkpt lat="39.83151256106794" lon="-6.100402269512415">
        <ele>316.0</ele>
        <time>2015-05-03T07:46:05.000Z</time>
      </trkpt>
      <trkpt lat="39.83165186829865" lon="-6.100429259240627">
        <ele>317.6000061035156</ele>
        <time>2015-05-03T07:46:10.000Z</time>
      </trkpt>
      <trkpt lat="39.83167969621718" lon="-6.10043328255415">
        <ele>317.6000061035156</ele>
        <time>2015-05-03T07:46:11.000Z</time>
      </trkpt>
      <trkpt lat="39.83179201371968" lon="-6.10045381821692">
        <ele>318.79998779296875</ele>
        <time>2015-05-03T07:46:15.000Z</time>
      </trkpt>
      <trkpt lat="39.83187851496041" lon="-6.100463876500726">
        <ele>319.79998779296875</ele>
        <time>2015-05-03T07:46:18.000Z</time>
      </trkpt>
      <trkpt lat="39.83190709725022" lon="-6.100467313081026">
        <ele>320.0</ele>
        <time>2015-05-03T07:46:19.000Z</time>
      </trkpt>
      <trkpt lat="39.83204673975706" lon="-6.100472006946802">
        <ele>321.3999938964844</ele>
        <time>2015-05-03T07:46:24.000Z</time>
      </trkpt>
      <trkpt lat="39.83210692182183" lon="-6.100484328344464">
        <ele>322.0</ele>
        <time>2015-05-03T07:46:26.000Z</time>
      </trkpt>
      <trkpt lat="39.83213516883552" lon="-6.100487262010574">
        <ele>322.3999938964844</ele>
        <time>2015-05-03T07:46:27.000Z</time>
      </trkpt>
      <trkpt lat="39.832273218780756" lon="-6.10049438662827">
        <ele>323.0</ele>
        <time>2015-05-03T07:46:32.000Z</time>
      </trkpt>
      <trkpt lat="39.83229995705187" lon="-6.100493967533112">
        <ele>323.6000061035156</ele>
        <time>2015-05-03T07:46:33.000Z</time>
      </trkpt>
      <trkpt lat="39.832415878772736" lon="-6.100501511245966">
        <ele>324.6000061035156</ele>
        <time>2015-05-03T07:46:37.000Z</time>
      </trkpt>
      <trkpt lat="39.832447562366724" lon="-6.1005063727498055">
        <ele>325.0</ele>
        <time>2015-05-03T07:46:38.000Z</time>
      </trkpt>
      <trkpt lat="39.83272433280945" lon="-6.100530093535781">
        <ele>326.0</ele>
        <time>2015-05-03T07:46:46.000Z</time>
      </trkpt>
      <trkpt lat="39.83294393867254" lon="-6.1005673091858625">
        <ele>327.0</ele>
        <time>2015-05-03T07:46:52.000Z</time>
      </trkpt>
      <trkpt lat="39.83298098668456" lon="-6.100569907575846">
        <ele>327.20001220703125</ele>
        <time>2015-05-03T07:46:53.000Z</time>
      </trkpt>
      <trkpt lat="39.83309774659574" lon="-6.100583402439952">
        <ele>328.20001220703125</ele>
        <time>2015-05-03T07:46:56.000Z</time>
      </trkpt>
      <trkpt lat="39.83324778266251" lon="-6.1006073746830225">
        <ele>329.20001220703125</ele>
        <time>2015-05-03T07:47:00.000Z</time>
      </trkpt>
      <trkpt lat="39.83328524976969" lon="-6.100618606433272">
        <ele>329.6000061035156</ele>
        <time>2015-05-03T07:47:01.000Z</time>
      </trkpt>
      <trkpt lat="39.83344324864447" lon="-6.100652469322085">
        <ele>330.0</ele>
        <time>2015-05-03T07:47:05.000Z</time>
      </trkpt>
      <trkpt lat="39.83348750509322" lon="-6.1006612703204155">
        <ele>330.20001220703125</ele>
        <time>2015-05-03T07:47:06.000Z</time>
      </trkpt>
      <trkpt lat="39.833680456504226" lon="-6.100686751306057">
        <ele>330.6000061035156</ele>
        <time>2015-05-03T07:47:10.000Z</time>
      </trkpt>
      <trkpt lat="39.83378481119871" lon="-6.100685829296708">
        <ele>330.3999938964844</ele>
        <time>2015-05-03T07:47:12.000Z</time>
      </trkpt>
      <trkpt lat="39.83383946120739" lon="-6.100691445171833">
        <ele>330.20001220703125</ele>
        <time>2015-05-03T07:47:13.000Z</time>
      </trkpt>
      <trkpt lat="39.834014140069485" lon="-6.100681805983186">
        <ele>330.3999938964844</ele>
        <time>2015-05-03T07:47:16.000Z</time>
      </trkpt>
      <trkpt lat="39.83407122083008" lon="-6.100676190108061">
        <ele>330.6000061035156</ele>
        <time>2015-05-03T07:47:17.000Z</time>
      </trkpt>
      <trkpt lat="39.834410939365625" lon="-6.100652636960149">
        <ele>331.20001220703125</ele>
        <time>2015-05-03T07:47:23.000Z</time>
      </trkpt>
      <trkpt lat="39.834575559943914" lon="-6.100642746314406">
        <ele>331.79998779296875</ele>
        <time>2015-05-03T07:47:26.000Z</time>
      </trkpt>
      <trkpt lat="39.83473406173289" lon="-6.1005953047424555">
        <ele>332.20001220703125</ele>
        <time>2015-05-03T07:47:29.000Z</time>
      </trkpt>
      <trkpt lat="39.83490480110049" lon="-6.100552137941122">
        <ele>331.79998779296875</ele>
        <time>2015-05-03T07:47:32.000Z</time>
      </trkpt>
      <trkpt lat="39.835045197978616" lon="-6.100555742159486">
        <ele>330.3999938964844</ele>
        <time>2015-05-03T07:47:34.000Z</time>
      </trkpt>
      <trkpt lat="39.8351635504514" lon="-6.100565465167165">
        <ele>328.79998779296875</ele>
        <time>2015-05-03T07:47:36.000Z</time>
      </trkpt>
      <trkpt lat="39.83527787961066" lon="-6.1005855817347765">
        <ele>327.20001220703125</ele>
        <time>2015-05-03T07:47:38.000Z</time>
      </trkpt>
      <trkpt lat="39.83535231091082" lon="-6.100678872317076">
        <ele>325.20001220703125</ele>
        <time>2015-05-03T07:47:40.000Z</time>
      </trkpt>
      <trkpt lat="39.8353464435786" lon="-6.100739389657974">
        <ele>324.3999938964844</ele>
        <time>2015-05-03T07:47:41.000Z</time>
      </trkpt>
      <trkpt lat="39.835318783298135" lon="-6.10079588368535">
        <ele>323.79998779296875</ele>
        <time>2015-05-03T07:47:42.000Z</time>
      </trkpt>
      <trkpt lat="39.83524569310248" lon="-6.100911134853959">
        <ele>323.79998779296875</ele>
        <time>2015-05-03T07:47:44.000Z</time>
      </trkpt>
      <trkpt lat="39.83521493151784" lon="-6.100972490385175">
        <ele>323.79998779296875</ele>
        <time>2015-05-03T07:47:45.000Z</time>
      </trkpt>
      <trkpt lat="39.83514058403671" lon="-6.101134764030576">
        <ele>325.3999938964844</ele>
        <time>2015-05-03T07:47:48.000Z</time>
      </trkpt>
      <trkpt lat="39.83512323349714" lon="-6.101185726001859">
        <ele>326.0</ele>
        <time>2015-05-03T07:47:49.000Z</time>
      </trkpt>
      <trkpt lat="39.83510420657694" lon="-6.1012346763163805">
        <ele>326.6000061035156</ele>
        <time>2015-05-03T07:47:50.000Z</time>
      </trkpt>
      <trkpt lat="39.83508316799998" lon="-6.1012817826122046">
        <ele>327.79998779296875</ele>
        <time>2015-05-03T07:47:51.000Z</time>
      </trkpt>
      <trkpt lat="39.8350166156888" lon="-6.101437518373132">
        <ele>328.0</ele>
        <time>2015-05-03T07:47:54.000Z</time>
      </trkpt>
      <trkpt lat="39.8349994327873" lon="-6.101485630497336">
        <ele>328.3999938964844</ele>
        <time>2015-05-03T07:47:55.000Z</time>
      </trkpt>
      <trkpt lat="39.83498426154256" lon="-6.10153173096478">
        <ele>329.0</ele>
        <time>2015-05-03T07:47:56.000Z</time>
      </trkpt>
      <trkpt lat="39.83494612388313" lon="-6.101611275225878">
        <ele>330.20001220703125</ele>
        <time>2015-05-03T07:47:58.000Z</time>
      </trkpt>
      <trkpt lat="39.83487445861101" lon="-6.1017185635864735">
        <ele>331.20001220703125</ele>
        <time>2015-05-03T07:48:01.000Z</time>
      </trkpt>
      <trkpt lat="39.834629287943244" lon="-6.101954597979784">
        <ele>332.0</ele>
        <time>2015-05-03T07:48:08.000Z</time>
      </trkpt>
      <trkpt lat="39.83459668233991" lon="-6.101981084793806">
        <ele>332.3999938964844</ele>
        <time>2015-05-03T07:48:09.000Z</time>
      </trkpt>
      <trkpt lat="39.83451034873724" lon="-6.102054845541716">
        <ele>333.6000061035156</ele>
        <time>2015-05-03T07:48:12.000Z</time>
      </trkpt>
      <trkpt lat="39.83444790355861" lon="-6.1020970903337">
        <ele>334.20001220703125</ele>
        <time>2015-05-03T07:48:14.000Z</time>
      </trkpt>
      <trkpt lat="39.834341956302524" lon="-6.102148639038205">
        <ele>335.0</ele>
        <time>2015-05-03T07:48:17.000Z</time>
      </trkpt>
      <trkpt lat="39.83421572484076" lon="-6.102250646799803">
        <ele>336.0</ele>
        <time>2015-05-03T07:48:21.000Z</time>
      </trkpt>
      <trkpt lat="39.83417088165879" lon="-6.102321222424507">
        <ele>336.3999938964844</ele>
        <time>2015-05-03T07:48:23.000Z</time>
      </trkpt>
      <trkpt lat="39.83412587083876" lon="-6.102383751422167">
        <ele>337.79998779296875</ele>
        <time>2015-05-03T07:48:25.000Z</time>
      </trkpt>
      <trkpt lat="39.83404381200671" lon="-6.102472767233849">
        <ele>337.79998779296875</ele>
        <time>2015-05-03T07:48:28.000Z</time>
      </trkpt>
      <trkpt lat="39.833831414580345" lon="-6.102728080004454">
        <ele>338.20001220703125</ele>
        <time>2015-05-03T07:48:35.000Z</time>
      </trkpt>
      <trkpt lat="39.83377106487751" lon="-6.102794716134667">
        <ele>338.79998779296875</ele>
        <time>2015-05-03T07:48:37.000Z</time>
      </trkpt>
      <trkpt lat="39.833708284422755" lon="-6.102864537388086">
        <ele>339.79998779296875</ele>
        <time>2015-05-03T07:48:39.000Z</time>
      </trkpt>
      <trkpt lat="39.83359227888286" lon="-6.103014321997762">
        <ele>340.79998779296875</ele>
        <time>2015-05-03T07:48:43.000Z</time>
      </trkpt>
      <trkpt lat="39.83356629498303" lon="-6.103055225685239">
        <ele>341.0</ele>
        <time>2015-05-03T07:48:44.000Z</time>
      </trkpt>
      <trkpt lat="39.833515333011746" lon="-6.1031457502394915">
        <ele>341.3999938964844</ele>
        <time>2015-05-03T07:48:46.000Z</time>
      </trkpt>
      <trkpt lat="39.833460096269846" lon="-6.103310789912939">
        <ele>341.3999938964844</ele>
        <time>2015-05-03T07:48:49.000Z</time>
      </trkpt>
      <trkpt lat="39.83344500884414" lon="-6.103369044139981">
        <ele>341.6000061035156</ele>
        <time>2015-05-03T07:48:50.000Z</time>
      </trkpt>
      <trkpt lat="39.83341097831726" lon="-6.103487145155668">
        <ele>342.0</ele>
        <time>2015-05-03T07:48:52.000Z</time>
      </trkpt>
      <trkpt lat="39.83337820507586" lon="-6.1037038173526525">
        <ele>341.3999938964844</ele>
        <time>2015-05-03T07:48:55.000Z</time>
      </trkpt>
      <trkpt lat="39.833278292790055" lon="-6.104240091517568">
        <ele>341.6000061035156</ele>
        <time>2015-05-03T07:49:02.000Z</time>
      </trkpt>
      <trkpt lat="39.83317947015166" lon="-6.10453044064343">
        <ele>341.79998779296875</ele>
        <time>2015-05-03T07:49:06.000Z</time>
      </trkpt>
      <trkpt lat="39.83315885066986" lon="-6.104601435363293">
        <ele>342.20001220703125</ele>
        <time>2015-05-03T07:49:07.000Z</time>
      </trkpt>
      <trkpt lat="39.83313890174031" lon="-6.104675615206361">
        <ele>342.20001220703125</ele>
        <time>2015-05-03T07:49:08.000Z</time>
      </trkpt>
      <trkpt lat="39.833034882321954" lon="-6.104988511651754">
        <ele>341.0</ele>
        <time>2015-05-03T07:49:12.000Z</time>
      </trkpt>
      <trkpt lat="39.83299154788256" lon="-6.105062272399664">
        <ele>340.6000061035156</ele>
        <time>2015-05-03T07:49:13.000Z</time>
      </trkpt>
      <trkpt lat="39.8329012747854" lon="-6.105225468054414">
        <ele>340.20001220703125</ele>
        <time>2015-05-03T07:49:15.000Z</time>
      </trkpt>
      <trkpt lat="39.832863220945" lon="-6.105315489694476">
        <ele>340.0</ele>
        <time>2015-05-03T07:49:16.000Z</time>
      </trkpt>
      <trkpt lat="39.83282617293298" lon="-6.105402912944555">
        <ele>339.6000061035156</ele>
        <time>2015-05-03T07:49:17.000Z</time>
      </trkpt>
      <trkpt lat="39.832779904827476" lon="-6.105489665642381">
        <ele>339.0</ele>
        <time>2015-05-03T07:49:18.000Z</time>
      </trkpt>
      <trkpt lat="39.83272039331496" lon="-6.105578765273094">
        <ele>338.20001220703125</ele>
        <time>2015-05-03T07:49:19.000Z</time>
      </trkpt>
      <trkpt lat="39.832664988934994" lon="-6.1056785099208355">
        <ele>337.0</ele>
        <time>2015-05-03T07:49:20.000Z</time>
      </trkpt>
      <trkpt lat="39.832639088854194" lon="-6.105900127440691">
        <ele>335.3999938964844</ele>
        <time>2015-05-03T07:49:22.000Z</time>
      </trkpt>
      <trkpt lat="39.8326475545764" lon="-6.106331795454025">
        <ele>335.20001220703125</ele>
        <time>2015-05-03T07:49:26.000Z</time>
      </trkpt>
      <trkpt lat="39.83265174552798" lon="-6.106437407433987">
        <ele>334.79998779296875</ele>
        <time>2015-05-03T07:49:27.000Z</time>
      </trkpt>
      <trkpt lat="39.83267940580845" lon="-6.106863291934133">
        <ele>334.79998779296875</ele>
        <time>2015-05-03T07:49:31.000Z</time>
      </trkpt>
      <trkpt lat="39.832709496840835" lon="-6.107161687687039">
        <ele>335.6000061035156</ele>
        <time>2015-05-03T07:49:34.000Z</time>
      </trkpt>
      <trkpt lat="39.83273799531162" lon="-6.10732932575047">
        <ele>337.0</ele>
        <time>2015-05-03T07:49:36.000Z</time>
      </trkpt>
      <trkpt lat="39.83276020735502" lon="-6.107476679608226">
        <ele>338.3999938964844</ele>
        <time>2015-05-03T07:49:38.000Z</time>
      </trkpt>
      <trkpt lat="39.83278258703649" lon="-6.1076063476502895">
        <ele>339.79998779296875</ele>
        <time>2015-05-03T07:49:40.000Z</time>
      </trkpt>
      <trkpt lat="39.83280312269926" lon="-6.10771824605763">
        <ele>341.0</ele>
        <time>2015-05-03T07:49:42.000Z</time>
      </trkpt>
      <trkpt lat="39.83281628228724" lon="-6.107819667086005">
        <ele>341.79998779296875</ele>
        <time>2015-05-03T07:49:44.000Z</time>
      </trkpt>
      <trkpt lat="39.832817539572716" lon="-6.1078717187047005">
        <ele>342.0</ele>
        <time>2015-05-03T07:49:45.000Z</time>
      </trkpt>
      <trkpt lat="39.83281192369759" lon="-6.107983533293009">
        <ele>342.79998779296875</ele>
        <time>2015-05-03T07:49:47.000Z</time>
      </trkpt>
      <trkpt lat="39.83281125314534" lon="-6.108043044805527">
        <ele>343.0</ele>
        <time>2015-05-03T07:49:48.000Z</time>
      </trkpt>
      <trkpt lat="39.83281661756337" lon="-6.108180591836572">
        <ele>342.79998779296875</ele>
        <time>2015-05-03T07:49:50.000Z</time>
      </trkpt>
      <trkpt lat="39.832844864577055" lon="-6.108407657593489">
        <ele>342.6000061035156</ele>
        <time>2015-05-03T07:49:53.000Z</time>
      </trkpt>
      <trkpt lat="39.8329390771687" lon="-6.108944769948721">
        <ele>342.79998779296875</ele>
        <time>2015-05-03T07:50:00.000Z</time>
      </trkpt>
      <trkpt lat="39.83295550569892" lon="-6.109010316431522">
        <ele>343.3999938964844</ele>
        <time>2015-05-03T07:50:01.000Z</time>
      </trkpt>
      <trkpt lat="39.832977214828134" lon="-6.109135961160064">
        <ele>344.3999938964844</ele>
        <time>2015-05-03T07:50:03.000Z</time>
      </trkpt>
      <trkpt lat="39.832981154322624" lon="-6.109193880110979">
        <ele>344.79998779296875</ele>
        <time>2015-05-03T07:50:04.000Z</time>
      </trkpt>
      <trkpt lat="39.83298224397004" lon="-6.109253140166402">
        <ele>344.6000061035156</ele>
        <time>2015-05-03T07:50:05.000Z</time>
      </trkpt>
      <trkpt lat="39.833004204556346" lon="-6.109455730766058">
        <ele>345.0</ele>
        <time>2015-05-03T07:50:08.000Z</time>
      </trkpt>
      <trkpt lat="39.83304150402546" lon="-6.109582716599107">
        <ele>345.3999938964844</ele>
        <time>2015-05-03T07:50:10.000Z</time>
      </trkpt>
      <trkpt lat="39.833061872050166" lon="-6.109643736854196">
        <ele>345.3999938964844</ele>
        <time>2015-05-03T07:50:11.000Z</time>
      </trkpt>
      <trkpt lat="39.833075953647494" lon="-6.10970794223249">
        <ele>345.6000061035156</ele>
        <time>2015-05-03T07:50:12.000Z</time>
      </trkpt>
      <trkpt lat="39.83309724368155" lon="-6.109920758754015">
        <ele>345.3999938964844</ele>
        <time>2015-05-03T07:50:15.000Z</time>
      </trkpt>
      <trkpt lat="39.83311400748789" lon="-6.110214125365019">
        <ele>345.3999938964844</ele>
        <time>2015-05-03T07:50:19.000Z</time>
      </trkpt>
      <trkpt lat="39.833086179569364" lon="-6.110358461737633">
        <ele>345.79998779296875</ele>
        <time>2015-05-03T07:50:21.000Z</time>
      </trkpt>
      <trkpt lat="39.833054998889565" lon="-6.110484190285206">
        <ele>346.6000061035156</ele>
        <time>2015-05-03T07:50:23.000Z</time>
      </trkpt>
      <trkpt lat="39.83305659145117" lon="-6.110598435625434">
        <ele>347.6000061035156</ele>
        <time>2015-05-03T07:50:25.000Z</time>
      </trkpt>
      <trkpt lat="39.83310076408088" lon="-6.110747717320919">
        <ele>348.79998779296875</ele>
        <time>2015-05-03T07:50:28.000Z</time>
      </trkpt>
      <trkpt lat="39.833116522058845" lon="-6.110786274075508">
        <ele>349.20001220703125</ele>
        <time>2015-05-03T07:50:29.000Z</time>
      </trkpt>
      <trkpt lat="39.83313127420843" lon="-6.110823238268495">
        <ele>349.79998779296875</ele>
        <time>2015-05-03T07:50:30.000Z</time>
      </trkpt>
      <trkpt lat="39.833165891468525" lon="-6.110887611284852">
        <ele>351.20001220703125</ele>
        <time>2015-05-03T07:50:32.000Z</time>
      </trkpt>
      <trkpt lat="39.833211405202746" lon="-6.110972184687853">
        <ele>352.3999938964844</ele>
        <time>2015-05-03T07:50:35.000Z</time>
      </trkpt>
      <trkpt lat="39.83324962668121" lon="-6.111072516068816">
        <ele>353.3999938964844</ele>
        <time>2015-05-03T07:50:38.000Z</time>
      </trkpt>
      <trkpt lat="39.83327125199139" lon="-6.111170165240765">
        <ele>354.3999938964844</ele>
        <time>2015-05-03T07:50:41.000Z</time>
      </trkpt>
      <trkpt lat="39.833268066868186" lon="-6.11120754852891">
        <ele>354.79998779296875</ele>
        <time>2015-05-03T07:50:42.000Z</time>
      </trkpt>
      <trkpt lat="39.83322875574231" lon="-6.111340066418052">
        <ele>355.0</ele>
        <time>2015-05-03T07:50:45.000Z</time>
      </trkpt>
      <trkpt lat="39.8332104831934" lon="-6.111387759447098">
        <ele>355.0</ele>
        <time>2015-05-03T07:50:46.000Z</time>
      </trkpt>
      <trkpt lat="39.83317544683814" lon="-6.111567048355937">
        <ele>354.20001220703125</ele>
        <time>2015-05-03T07:50:49.000Z</time>
      </trkpt>
      <trkpt lat="39.83315591700375" lon="-6.1116378754377365">
        <ele>353.79998779296875</ele>
        <time>2015-05-03T07:50:50.000Z</time>
      </trkpt>
      <trkpt lat="39.833123898133636" lon="-6.111780200153589">
        <ele>353.6000061035156</ele>
        <time>2015-05-03T07:50:52.000Z</time>
      </trkpt>
      <trkpt lat="39.83311400748789" lon="-6.11185546964407">
        <ele>353.79998779296875</ele>
        <time>2015-05-03T07:50:53.000Z</time>
      </trkpt>
      <trkpt lat="39.83304116874933" lon="-6.1122198309749365">
        <ele>353.6000061035156</ele>
        <time>2015-05-03T07:50:58.000Z</time>
      </trkpt>
      <trkpt lat="39.83294368721545" lon="-6.112461816519499">
        <ele>354.6000061035156</ele>
        <time>2015-05-03T07:51:02.000Z</time>
      </trkpt>
      <trkpt lat="39.832905884832144" lon="-6.112508503720164">
        <ele>354.79998779296875</ele>
        <time>2015-05-03T07:51:03.000Z</time>
      </trkpt>
      <trkpt lat="39.83278593979776" lon="-6.112668681889772">
        <ele>355.0</ele>
        <time>2015-05-03T07:51:06.000Z</time>
      </trkpt>
      <trkpt lat="39.832728439942" lon="-6.112810168415308">
        <ele>354.79998779296875</ele>
        <time>2015-05-03T07:51:08.000Z</time>
      </trkpt>
      <trkpt lat="39.83273137360811" lon="-6.113035138696432">
        <ele>354.6000061035156</ele>
        <time>2015-05-03T07:51:11.000Z</time>
      </trkpt>
      <trkpt lat="39.83275853097439" lon="-6.113164555281401">
        <ele>355.6000061035156</ele>
        <time>2015-05-03T07:51:13.000Z</time>
      </trkpt>
      <trkpt lat="39.83278057537973" lon="-6.113220546394587">
        <ele>355.79998779296875</ele>
        <time>2015-05-03T07:51:14.000Z</time>
      </trkpt>
      <trkpt lat="39.832811085507274" lon="-6.113269831985235">
        <ele>356.0</ele>
        <time>2015-05-03T07:51:15.000Z</time>
      </trkpt>
      <trkpt lat="39.832918709143996" lon="-6.113403858616948">
        <ele>356.20001220703125</ele>
        <time>2015-05-03T07:51:18.000Z</time>
      </trkpt>
      <trkpt lat="39.83294980600476" lon="-6.11345280893147">
        <ele>356.3999938964844</ele>
        <time>2015-05-03T07:51:19.000Z</time>
      </trkpt>
      <trkpt lat="39.83297511935234" lon="-6.113502597436309">
        <ele>356.79998779296875</ele>
        <time>2015-05-03T07:51:20.000Z</time>
      </trkpt>
      <trkpt lat="39.83300185762346" lon="-6.11355003900826">
        <ele>357.0</ele>
        <time>2015-05-03T07:51:21.000Z</time>
      </trkpt>
      <trkpt lat="39.83305214904249" lon="-6.113643245771527">
        <ele>358.0</ele>
        <time>2015-05-03T07:51:23.000Z</time>
      </trkpt>
      <trkpt lat="39.83307394199073" lon="-6.113691357895732">
        <ele>358.3999938964844</ele>
        <time>2015-05-03T07:51:24.000Z</time>
      </trkpt>
      <trkpt lat="39.83313043601811" lon="-6.113837454468012">
        <ele>359.20001220703125</ele>
        <time>2015-05-03T07:51:27.000Z</time>
      </trkpt>
      <trkpt lat="39.83316823840141" lon="-6.113983131945133">
        <ele>360.3999938964844</ele>
        <time>2015-05-03T07:51:30.000Z</time>
      </trkpt>
      <trkpt lat="39.833168322220445" lon="-6.114162839949131">
        <ele>361.3999938964844</ele>
        <time>2015-05-03T07:51:34.000Z</time>
      </trkpt>
      <trkpt lat="39.83317502774298" lon="-6.114252442494035">
        <ele>362.0</ele>
        <time>2015-05-03T07:51:36.000Z</time>
      </trkpt>
      <trkpt lat="39.83318558894098" lon="-6.114293681457639">
        <ele>362.6000061035156</ele>
        <time>2015-05-03T07:51:37.000Z</time>
      </trkpt>
      <trkpt lat="39.83323554508388" lon="-6.114382864907384">
        <ele>363.6000061035156</ele>
        <time>2015-05-03T07:51:40.000Z</time>
      </trkpt>
      <trkpt lat="39.83325767330825" lon="-6.114408848807216">
        <ele>363.79998779296875</ele>
        <time>2015-05-03T07:51:41.000Z</time>
      </trkpt>
      <trkpt lat="39.833324644714594" lon="-6.114483363926411">
        <ele>364.6000061035156</ele>
        <time>2015-05-03T07:51:44.000Z</time>
      </trkpt>
      <trkpt lat="39.83337719924748" lon="-6.114573385566473">
        <ele>365.6000061035156</ele>
        <time>2015-05-03T07:51:47.000Z</time>
      </trkpt>
      <trkpt lat="39.83343729749322" lon="-6.114737754687667">
        <ele>366.20001220703125</ele>
        <time>2015-05-03T07:51:51.000Z</time>
      </trkpt>
      <trkpt lat="39.83344743959606" lon="-6.1147914826869965">
        <ele>366.3999938964844</ele>
        <time>2015-05-03T07:51:52.000Z</time>
      </trkpt>
      <trkpt lat="39.83340846374631" lon="-6.115038245916367">
        <ele>365.3999938964844</ele>
        <time>2015-05-03T07:51:56.000Z</time>
      </trkpt>
      <trkpt lat="39.833284663036466" lon="-6.115164142102003">
        <ele>365.6000061035156</ele>
        <time>2015-05-03T07:51:59.000Z</time>
      </trkpt>
      <trkpt lat="39.83319891616702" lon="-6.115188533440232">
        <ele>366.20001220703125</ele>
        <time>2015-05-03T07:52:01.000Z</time>
      </trkpt>
      <trkpt lat="39.83315977267921" lon="-6.115212421864271">
        <ele>366.79998779296875</ele>
        <time>2015-05-03T07:52:02.000Z</time>
      </trkpt>
      <trkpt lat="39.83310646377504" lon="-6.115393219515681">
        <ele>366.20001220703125</ele>
        <time>2015-05-03T07:52:05.000Z</time>
      </trkpt>
      <trkpt lat="39.8331481218338" lon="-6.115668648853898">
        <ele>366.3999938964844</ele>
        <time>2015-05-03T07:52:09.000Z</time>
      </trkpt>
      <trkpt lat="39.83329212293029" lon="-6.115887835621834">
        <ele>366.3999938964844</ele>
        <time>2015-05-03T07:52:13.000Z</time>
      </trkpt>
      <trkpt lat="39.83331676572561" lon="-6.115945251658559">
        <ele>366.79998779296875</ele>
        <time>2015-05-03T07:52:14.000Z</time>
      </trkpt>
      <trkpt lat="39.83333369717002" lon="-6.116077350452542">
        <ele>367.20001220703125</ele>
        <time>2015-05-03T07:52:16.000Z</time>
      </trkpt>
      <trkpt lat="39.83329497277737" lon="-6.116251442581415">
        <ele>368.0</ele>
        <time>2015-05-03T07:52:19.000Z</time>
      </trkpt>
      <trkpt lat="39.8332794662565" lon="-6.116314139217138">
        <ele>368.0</ele>
        <time>2015-05-03T07:52:20.000Z</time>
      </trkpt>
      <trkpt lat="39.833224480971694" lon="-6.116645056754351">
        <ele>368.6000061035156</ele>
        <time>2015-05-03T07:52:25.000Z</time>
      </trkpt>
      <trkpt lat="39.83321744017303" lon="-6.116709178313613">
        <ele>369.3999938964844</ele>
        <time>2015-05-03T07:52:26.000Z</time>
      </trkpt>
      <trkpt lat="39.83321702107787" lon="-6.11683314666152">
        <ele>370.0</ele>
        <time>2015-05-03T07:52:28.000Z</time>
      </trkpt>
      <trkpt lat="39.83322825282812" lon="-6.116947392001748">
        <ele>370.3999938964844</ele>
        <time>2015-05-03T07:52:30.000Z</time>
      </trkpt>
      <trkpt lat="39.83323244377971" lon="-6.117008412256837">
        <ele>370.6000061035156</ele>
        <time>2015-05-03T07:52:31.000Z</time>
      </trkpt>
      <trkpt lat="39.83317527920008" lon="-6.117303287610412">
        <ele>371.20001220703125</ele>
        <time>2015-05-03T07:52:36.000Z</time>
      </trkpt>
      <trkpt lat="39.83300688676536" lon="-6.11738920211792">
        <ele>370.79998779296875</ele>
        <time>2015-05-03T07:52:39.000Z</time>
      </trkpt>
      <trkpt lat="39.83288995921612" lon="-6.117578046396375">
        <ele>369.3999938964844</ele>
        <time>2015-05-03T07:52:42.000Z</time>
      </trkpt>
      <trkpt lat="39.8328719381243" lon="-6.117720203474164">
        <ele>370.20001220703125</ele>
        <time>2015-05-03T07:52:44.000Z</time>
      </trkpt>
      <trkpt lat="39.83285525813699" lon="-6.117859343066812">
        <ele>371.3999938964844</ele>
        <time>2015-05-03T07:52:46.000Z</time>
      </trkpt>
      <trkpt lat="39.832852743566036" lon="-6.117926482111216">
        <ele>371.6000061035156</ele>
        <time>2015-05-03T07:52:47.000Z</time>
      </trkpt>
      <trkpt lat="39.83285928145051" lon="-6.118196966126561">
        <ele>372.20001220703125</ele>
        <time>2015-05-03T07:52:51.000Z</time>
      </trkpt>
      <trkpt lat="39.832836566492915" lon="-6.118431324139237">
        <ele>371.79998779296875</ele>
        <time>2015-05-03T07:52:54.000Z</time>
      </trkpt>
      <trkpt lat="39.83283237554133" lon="-6.118685966357589">
        <ele>371.79998779296875</ele>
        <time>2015-05-03T07:52:57.000Z</time>
      </trkpt>
      <trkpt lat="39.83286791481078" lon="-6.1188530176877975">
        <ele>371.6000061035156</ele>
        <time>2015-05-03T07:52:59.000Z</time>
      </trkpt>
      <trkpt lat="39.832911835983396" lon="-6.119037587195635">
        <ele>370.20001220703125</ele>
        <time>2015-05-03T07:53:01.000Z</time>
      </trkpt>
      <trkpt lat="39.83296246267855" lon="-6.119227772578597">
        <ele>369.79998779296875</ele>
        <time>2015-05-03T07:53:03.000Z</time>
      </trkpt>
      <trkpt lat="39.83299154788256" lon="-6.119319638237357">
        <ele>370.20001220703125</ele>
        <time>2015-05-03T07:53:04.000Z</time>
      </trkpt>
      <trkpt lat="39.83303043991327" lon="-6.119499346241355">
        <ele>370.20001220703125</ele>
        <time>2015-05-03T07:53:06.000Z</time>
      </trkpt>
      <trkpt lat="39.833025662228465" lon="-6.119666565209627">
        <ele>370.0</ele>
        <time>2015-05-03T07:53:08.000Z</time>
      </trkpt>
      <trkpt lat="39.83300294727087" lon="-6.119806710630655">
        <ele>370.6000061035156</ele>
        <time>2015-05-03T07:53:10.000Z</time>
      </trkpt>
      <trkpt lat="39.8329945653677" lon="-6.119861947372556">
        <ele>371.3999938964844</ele>
        <time>2015-05-03T07:53:11.000Z</time>
      </trkpt>
      <trkpt lat="39.83298500999808" lon="-6.119914501905441">
        <ele>372.20001220703125</ele>
        <time>2015-05-03T07:53:12.000Z</time>
      </trkpt>
      <trkpt lat="39.83297863975167" lon="-6.1199653800576925">
        <ele>372.79998779296875</ele>
        <time>2015-05-03T07:53:13.000Z</time>
      </trkpt>
      <trkpt lat="39.83294100500643" lon="-6.120161013677716">
        <ele>374.0</ele>
        <time>2015-05-03T07:53:17.000Z</time>
      </trkpt>
      <trkpt lat="39.83292021788657" lon="-6.120205940678716">
        <ele>374.3999938964844</ele>
        <time>2015-05-03T07:53:18.000Z</time>
      </trkpt>
      <trkpt lat="39.83285576105118" lon="-6.120312726125121">
        <ele>375.6000061035156</ele>
        <time>2015-05-03T07:53:21.000Z</time>
      </trkpt>
      <trkpt lat="39.83284268528223" lon="-6.1203511990606785">
        <ele>376.20001220703125</ele>
        <time>2015-05-03T07:53:22.000Z</time>
      </trkpt>
      <trkpt lat="39.83283665031195" lon="-6.120388498529792">
        <ele>376.79998779296875</ele>
        <time>2015-05-03T07:53:23.000Z</time>
      </trkpt>
      <trkpt lat="39.832825250923634" lon="-6.120493859052658">
        <ele>378.20001220703125</ele>
        <time>2015-05-03T07:53:26.000Z</time>
      </trkpt>
      <trkpt lat="39.83282256871462" lon="-6.120527721941471">
        <ele>379.0</ele>
        <time>2015-05-03T07:53:27.000Z</time>
      </trkpt>
      <trkpt lat="39.832825250923634" lon="-6.120562171563506">
        <ele>379.6000061035156</ele>
        <time>2015-05-03T07:53:28.000Z</time>
      </trkpt>
      <trkpt lat="39.83283103443682" lon="-6.120623107999563">
        <ele>380.6000061035156</ele>
        <time>2015-05-03T07:53:30.000Z</time>
      </trkpt>
      <trkpt lat="39.83282365836203" lon="-6.1206842958927155">
        <ele>382.20001220703125</ele>
        <time>2015-05-03T07:53:32.000Z</time>
      </trkpt>
      <trkpt lat="39.83281183987856" lon="-6.1207440588623285">
        <ele>383.20001220703125</ele>
        <time>2015-05-03T07:53:34.000Z</time>
      </trkpt>
      <trkpt lat="39.83280714601278" lon="-6.120811617001891">
        <ele>384.20001220703125</ele>
        <time>2015-05-03T07:53:36.000Z</time>
      </trkpt>
      <trkpt lat="39.83280496671796" lon="-6.1208792589604855">
        <ele>385.3999938964844</ele>
        <time>2015-05-03T07:53:38.000Z</time>
      </trkpt>
      <trkpt lat="39.83280245214701" lon="-6.1209814343601465">
        <ele>386.3999938964844</ele>
        <time>2015-05-03T07:53:41.000Z</time>
      </trkpt>
      <trkpt lat="39.832801865413785" lon="-6.121093919500709">
        <ele>388.0</ele>
        <time>2015-05-03T07:53:44.000Z</time>
      </trkpt>
      <trkpt lat="39.83280932530761" lon="-6.121135661378503">
        <ele>388.3999938964844</ele>
        <time>2015-05-03T07:53:45.000Z</time>
      </trkpt>
      <trkpt lat="39.83284997753799" lon="-6.121320901438594">
        <ele>389.20001220703125</ele>
        <time>2015-05-03T07:53:49.000Z</time>
      </trkpt>
      <trkpt lat="39.832896664738655" lon="-6.121436823159456">
        <ele>390.0</ele>
        <time>2015-05-03T07:53:52.000Z</time>
      </trkpt>
      <trkpt lat="39.832963133230805" lon="-6.121573783457279">
        <ele>389.79998779296875</ele>
        <time>2015-05-03T07:53:55.000Z</time>
      </trkpt>
      <trkpt lat="39.833003198727965" lon="-6.121701607480645">
        <ele>389.0</ele>
        <time>2015-05-03T07:53:57.000Z</time>
      </trkpt>
      <trkpt lat="39.83304167166352" lon="-6.121924063190818">
        <ele>388.3999938964844</ele>
        <time>2015-05-03T07:54:00.000Z</time>
      </trkpt>
      <trkpt lat="39.83302826061845" lon="-6.122012240812182">
        <ele>388.20001220703125</ele>
        <time>2015-05-03T07:54:01.000Z</time>
      </trkpt>
      <trkpt lat="39.83294335193932" lon="-6.122256321832538">
        <ele>386.79998779296875</ele>
        <time>2015-05-03T07:54:04.000Z</time>
      </trkpt>
      <trkpt lat="39.832913428545" lon="-6.122333267703652">
        <ele>386.79998779296875</ele>
        <time>2015-05-03T07:54:05.000Z</time>
      </trkpt>
      <trkpt lat="39.832821898162365" lon="-6.122675500810146">
        <ele>386.3999938964844</ele>
        <time>2015-05-03T07:54:09.000Z</time>
      </trkpt>
      <trkpt lat="39.832810666412115" lon="-6.1227646842598915">
        <ele>386.3999938964844</ele>
        <time>2015-05-03T07:54:10.000Z</time>
      </trkpt>
      <trkpt lat="39.832762721925974" lon="-6.123108007013798">
        <ele>386.20001220703125</ele>
        <time>2015-05-03T07:54:14.000Z</time>
      </trkpt>
      <trkpt lat="39.832768673077226" lon="-6.123193837702274">
        <ele>385.79998779296875</ele>
        <time>2015-05-03T07:54:15.000Z</time>
      </trkpt>
      <trkpt lat="39.83277621679008" lon="-6.123280003666878">
        <ele>386.0</ele>
        <time>2015-05-03T07:54:16.000Z</time>
      </trkpt>
      <trkpt lat="39.83278686180711" lon="-6.123541686683893">
        <ele>385.3999938964844</ele>
        <time>2015-05-03T07:54:19.000Z</time>
      </trkpt>
      <trkpt lat="39.83278149738908" lon="-6.123715443536639">
        <ele>385.20001220703125</ele>
        <time>2015-05-03T07:54:21.000Z</time>
      </trkpt>
      <trkpt lat="39.83276934362948" lon="-6.123800100758672">
        <ele>385.3999938964844</ele>
        <time>2015-05-03T07:54:22.000Z</time>
      </trkpt>
      <trkpt lat="39.832682171836495" lon="-6.124025406315923">
        <ele>384.79998779296875</ele>
        <time>2015-05-03T07:54:25.000Z</time>
      </trkpt>
      <trkpt lat="39.83264981769025" lon="-6.124101933091879">
        <ele>384.79998779296875</ele>
        <time>2015-05-03T07:54:26.000Z</time>
      </trkpt>
      <trkpt lat="39.83261360786855" lon="-6.124177956953645">
        <ele>384.6000061035156</ele>
        <time>2015-05-03T07:54:27.000Z</time>
      </trkpt>
      <trkpt lat="39.8325283639133" lon="-6.124339057132602">
        <ele>383.3999938964844</ele>
        <time>2015-05-03T07:54:29.000Z</time>
      </trkpt>
      <trkpt lat="39.832485700026155" lon="-6.124434694647789">
        <ele>382.6000061035156</ele>
        <time>2015-05-03T07:54:30.000Z</time>
      </trkpt>
      <trkpt lat="39.832454016432166" lon="-6.124543407931924">
        <ele>381.79998779296875</ele>
        <time>2015-05-03T07:54:31.000Z</time>
      </trkpt>
      <trkpt lat="39.8324194829911" lon="-6.124652540311217">
        <ele>380.6000061035156</ele>
        <time>2015-05-03T07:54:32.000Z</time>
      </trkpt>
      <trkpt lat="39.832400707527995" lon="-6.124761588871479">
        <ele>379.79998779296875</ele>
        <time>2015-05-03T07:54:33.000Z</time>
      </trkpt>
      <trkpt lat="39.83237883076072" lon="-6.124868541955948">
        <ele>379.3999938964844</ele>
        <time>2015-05-03T07:54:34.000Z</time>
      </trkpt>
      <trkpt lat="39.83233256265521" lon="-6.125074988231063">
        <ele>379.20001220703125</ele>
        <time>2015-05-03T07:54:36.000Z</time>
      </trkpt>
      <trkpt lat="39.832321582362056" lon="-6.12517649307847">
        <ele>379.20001220703125</ele>
        <time>2015-05-03T07:54:37.000Z</time>
      </trkpt>
      <trkpt lat="39.832320995628834" lon="-6.1252800934016705">
        <ele>379.0</ele>
        <time>2015-05-03T07:54:38.000Z</time>
      </trkpt>
      <trkpt lat="39.83223767951131" lon="-6.12546575255692">
        <ele>378.20001220703125</ele>
        <time>2015-05-03T07:54:40.000Z</time>
      </trkpt>
      <trkpt lat="39.832173055037856" lon="-6.125549487769604">
        <ele>377.20001220703125</ele>
        <time>2015-05-03T07:54:41.000Z</time>
      </trkpt>
      <trkpt lat="39.832125864923" lon="-6.125650322064757">
        <ele>376.0</ele>
        <time>2015-05-03T07:54:42.000Z</time>
      </trkpt>
      <trkpt lat="39.83210004866123" lon="-6.125760627910495">
        <ele>375.20001220703125</ele>
        <time>2015-05-03T07:54:43.000Z</time>
      </trkpt>
      <trkpt lat="39.83202276751399" lon="-6.12594117410481">
        <ele>374.79998779296875</ele>
        <time>2015-05-03T07:54:45.000Z</time>
      </trkpt>
      <trkpt lat="39.83195386826992" lon="-6.125980569049716">
        <ele>374.3999938964844</ele>
        <time>2015-05-03T07:54:46.000Z</time>
      </trkpt>
      <trkpt lat="39.83174624852836" lon="-6.126051312312484">
        <ele>374.79998779296875</ele>
        <time>2015-05-03T07:54:49.000Z</time>
      </trkpt>
      <trkpt lat="39.831628650426865" lon="-6.126215010881424">
        <ele>376.3999938964844</ele>
        <time>2015-05-03T07:54:52.000Z</time>
      </trkpt>
      <trkpt lat="39.83162881806493" lon="-6.126470072194934">
        <ele>375.6000061035156</ele>
        <time>2015-05-03T07:54:55.000Z</time>
      </trkpt>
      <trkpt lat="39.83165589161217" lon="-6.126564452424645">
        <ele>375.0</ele>
        <time>2015-05-03T07:54:56.000Z</time>
      </trkpt>
      <trkpt lat="39.83169847168028" lon="-6.12675815820694">
        <ele>374.6000061035156</ele>
        <time>2015-05-03T07:54:58.000Z</time>
      </trkpt>
      <trkpt lat="39.83173644170165" lon="-6.126946499571204">
        <ele>375.0</ele>
        <time>2015-05-03T07:55:00.000Z</time>
      </trkpt>
      <trkpt lat="39.831792348995805" lon="-6.127204578369856">
        <ele>376.20001220703125</ele>
        <time>2015-05-03T07:55:03.000Z</time>
      </trkpt>
      <trkpt lat="39.83179503120482" lon="-6.1273604817688465">
        <ele>376.6000061035156</ele>
        <time>2015-05-03T07:55:05.000Z</time>
      </trkpt>
      <trkpt lat="39.83167818747461" lon="-6.127559300512075">
        <ele>377.20001220703125</ele>
        <time>2015-05-03T07:55:08.000Z</time>
      </trkpt>
      <trkpt lat="39.83157517388463" lon="-6.127660050988197">
        <ele>377.20001220703125</ele>
        <time>2015-05-03T07:55:10.000Z</time>
      </trkpt>
      <trkpt lat="39.83145304955542" lon="-6.127704055979848">
        <ele>377.6000061035156</ele>
        <time>2015-05-03T07:55:12.000Z</time>
      </trkpt>
      <trkpt lat="39.831317849457264" lon="-6.127881417050958">
        <ele>377.3999938964844</ele>
        <time>2015-05-03T07:55:15.000Z</time>
      </trkpt>
      <trkpt lat="39.83114451169968" lon="-6.128102280199528">
        <ele>377.0</ele>
        <time>2015-05-03T07:55:19.000Z</time>
      </trkpt>
      <trkpt lat="39.83103068545461" lon="-6.128122648224235">
        <ele>377.6000061035156</ele>
        <time>2015-05-03T07:55:21.000Z</time>
      </trkpt>
      <trkpt lat="39.83093454502523" lon="-6.128171598538756">
        <ele>378.3999938964844</ele>
        <time>2015-05-03T07:55:23.000Z</time>
      </trkpt>
      <trkpt lat="39.830825915560126" lon="-6.128274025395513">
        <ele>380.6000061035156</ele>
        <time>2015-05-03T07:55:26.000Z</time>
      </trkpt>
      <trkpt lat="39.83080605044961" lon="-6.128316102549434">
        <ele>381.3999938964844</ele>
        <time>2015-05-03T07:55:27.000Z</time>
      </trkpt>
      <trkpt lat="39.83078308403492" lon="-6.128355581313372">
        <ele>381.79998779296875</ele>
        <time>2015-05-03T07:55:28.000Z</time>
      </trkpt>
      <trkpt lat="39.830762883648276" lon="-6.128394976258278">
        <ele>382.6000061035156</ele>
        <time>2015-05-03T07:55:29.000Z</time>
      </trkpt>
      <trkpt lat="39.83073824085295" lon="-6.128431688994169">
        <ele>383.20001220703125</ele>
        <time>2015-05-03T07:55:30.000Z</time>
      </trkpt>
      <trkpt lat="39.830688117071986" lon="-6.1284991633147">
        <ele>384.20001220703125</ele>
        <time>2015-05-03T07:55:32.000Z</time>
      </trkpt>
      <trkpt lat="39.83066179789603" lon="-6.128529338166118">
        <ele>384.6000061035156</ele>
        <time>2015-05-03T07:55:33.000Z</time>
      </trkpt>
      <trkpt lat="39.83063841238618" lon="-6.12855976447463">
        <ele>385.20001220703125</ele>
        <time>2015-05-03T07:55:34.000Z</time>
      </trkpt>
      <trkpt lat="39.83060237020254" lon="-6.128634111955762">
        <ele>386.20001220703125</ele>
        <time>2015-05-03T07:55:36.000Z</time>
      </trkpt>
      <trkpt lat="39.83058141544461" lon="-6.128676440566778">
        <ele>386.3999938964844</ele>
        <time>2015-05-03T07:55:37.000Z</time>
      </trkpt>
      <trkpt lat="39.83056188561022" lon="-6.128720697015524">
        <ele>386.79998779296875</ele>
        <time>2015-05-03T07:55:38.000Z</time>
      </trkpt>
      <trkpt lat="39.83052014373243" lon="-6.128806779161096">
        <ele>387.6000061035156</ele>
        <time>2015-05-03T07:55:40.000Z</time>
      </trkpt>
      <trkpt lat="39.83046499080956" lon="-6.12893988378346">
        <ele>388.6000061035156</ele>
        <time>2015-05-03T07:55:43.000Z</time>
      </trkpt>
      <trkpt lat="39.83045065775514" lon="-6.128984559327364">
        <ele>388.79998779296875</ele>
        <time>2015-05-03T07:55:44.000Z</time>
      </trkpt>
      <trkpt lat="39.830418806523085" lon="-6.129073994234204">
        <ele>389.3999938964844</ele>
        <time>2015-05-03T07:55:46.000Z</time>
      </trkpt>
      <trkpt lat="39.83038544654846" lon="-6.129156304523349">
        <ele>390.0</ele>
        <time>2015-05-03T07:55:48.000Z</time>
      </trkpt>
      <trkpt lat="39.8303316347301" lon="-6.129277925938368">
        <ele>391.20001220703125</ele>
        <time>2015-05-03T07:55:51.000Z</time>
      </trkpt>
      <trkpt lat="39.83029735274613" lon="-6.129354368895292">
        <ele>391.3999938964844</ele>
        <time>2015-05-03T07:55:53.000Z</time>
      </trkpt>
      <trkpt lat="39.830262986943126" lon="-6.129429638385773">
        <ele>392.3999938964844</ele>
        <time>2015-05-03T07:55:55.000Z</time>
      </trkpt>
      <trkpt lat="39.83018788509071" lon="-6.129605323076248">
        <ele>393.3999938964844</ele>
        <time>2015-05-03T07:55:59.000Z</time>
      </trkpt>
      <trkpt lat="39.83014706522226" lon="-6.129699535667896">
        <ele>393.6000061035156</ele>
        <time>2015-05-03T07:56:01.000Z</time>
      </trkpt>
      <trkpt lat="39.830041117966175" lon="-6.130023915320635">
        <ele>394.20001220703125</ele>
        <time>2015-05-03T07:56:06.000Z</time>
      </trkpt>
      <trkpt lat="39.82993056066334" lon="-6.1304872669279575">
        <ele>394.0</ele>
        <time>2015-05-03T07:56:12.000Z</time>
      </trkpt>
      <trkpt lat="39.82979133725166" lon="-6.131169134750962">
        <ele>393.3999938964844</ele>
        <time>2015-05-03T07:56:20.000Z</time>
      </trkpt>
      <trkpt lat="39.82966225594282" lon="-6.131837256252766">
        <ele>393.79998779296875</ele>
        <time>2015-05-03T07:56:28.000Z</time>
      </trkpt>
      <trkpt lat="39.82964222319424" lon="-6.132068932056427">
        <ele>394.3999938964844</ele>
        <time>2015-05-03T07:56:31.000Z</time>
      </trkpt>
      <trkpt lat="39.82962839305401" lon="-6.132299015298486">
        <ele>395.0</ele>
        <time>2015-05-03T07:56:34.000Z</time>
      </trkpt>
      <trkpt lat="39.82962797395885" lon="-6.132376296445727">
        <ele>395.0</ele>
        <time>2015-05-03T07:56:35.000Z</time>
      </trkpt>
      <trkpt lat="39.82964054681361" lon="-6.132873259484768">
        <ele>394.79998779296875</ele>
        <time>2015-05-03T07:56:41.000Z</time>
      </trkpt>
      <trkpt lat="39.82960316352546" lon="-6.133127314969897">
        <ele>394.20001220703125</ele>
        <time>2015-05-03T07:56:44.000Z</time>
      </trkpt>
      <trkpt lat="39.82959922403097" lon="-6.133217001333833">
        <ele>394.3999938964844</ele>
        <time>2015-05-03T07:56:45.000Z</time>
      </trkpt>
      <trkpt lat="39.82957416214049" lon="-6.133587900549173">
        <ele>394.0</ele>
        <time>2015-05-03T07:56:49.000Z</time>
      </trkpt>
      <trkpt lat="39.8295580688864" lon="-6.13377096131444">
        <ele>393.6000061035156</ele>
        <time>2015-05-03T07:56:51.000Z</time>
      </trkpt>
      <trkpt lat="39.82955706305802" lon="-6.1338611505925655">
        <ele>393.79998779296875</ele>
        <time>2015-05-03T07:56:52.000Z</time>
      </trkpt>
      <trkpt lat="39.829611629247665" lon="-6.1341173853725195">
        <ele>393.6000061035156</ele>
        <time>2015-05-03T07:56:55.000Z</time>
      </trkpt>
      <trkpt lat="39.82963442802429" lon="-6.1342022102326155">
        <ele>393.79998779296875</ele>
        <time>2015-05-03T07:56:56.000Z</time>
      </trkpt>
      <trkpt lat="39.82968555763364" lon="-6.1345497239381075">
        <ele>394.3999938964844</ele>
        <time>2015-05-03T07:57:00.000Z</time>
      </trkpt>
      <trkpt lat="39.82974884100258" lon="-6.134783579036593">
        <ele>395.20001220703125</ele>
        <time>2015-05-03T07:57:03.000Z</time>
      </trkpt>
      <trkpt lat="39.829781614243984" lon="-6.13485180772841">
        <ele>395.6000061035156</ele>
        <time>2015-05-03T07:57:04.000Z</time>
      </trkpt>
      <trkpt lat="39.82993827201426" lon="-6.134938225150108">
        <ele>396.3999938964844</ele>
        <time>2015-05-03T07:57:07.000Z</time>
      </trkpt>
      <trkpt lat="39.82999769970775" lon="-6.134936381131411">
        <ele>396.3999938964844</ele>
        <time>2015-05-03T07:57:08.000Z</time>
      </trkpt>
      <trkpt lat="39.83005117624998" lon="-6.134973093867302">
        <ele>396.79998779296875</ele>
        <time>2015-05-03T07:57:09.000Z</time>
      </trkpt>
      <trkpt lat="39.830093840137124" lon="-6.1350274085998535">
        <ele>397.20001220703125</ele>
        <time>2015-05-03T07:57:10.000Z</time>
      </trkpt>
      <trkpt lat="39.83014639467001" lon="-6.1352429911494255">
        <ele>397.6000061035156</ele>
        <time>2015-05-03T07:57:13.000Z</time>
      </trkpt>
      <trkpt lat="39.830162823200226" lon="-6.13539420068264">
        <ele>398.0</ele>
        <time>2015-05-03T07:57:15.000Z</time>
      </trkpt>
      <trkpt lat="39.8301778268069" lon="-6.135467877611518">
        <ele>398.3999938964844</ele>
        <time>2015-05-03T07:57:16.000Z</time>
      </trkpt>
      <trkpt lat="39.83022602275014" lon="-6.135686561465263">
        <ele>399.20001220703125</ele>
        <time>2015-05-03T07:57:19.000Z</time>
      </trkpt>
      <trkpt lat="39.83031897805631" lon="-6.135949082672596">
        <ele>399.79998779296875</ele>
        <time>2015-05-03T07:57:23.000Z</time>
      </trkpt>
      <trkpt lat="39.83039751648903" lon="-6.1360496655106544">
        <ele>400.6000061035156</ele>
        <time>2015-05-03T07:57:25.000Z</time>
      </trkpt>
      <trkpt lat="39.83056565746665" lon="-6.13626541569829">
        <ele>401.0</ele>
        <time>2015-05-03T07:57:29.000Z</time>
      </trkpt>
      <trkpt lat="39.8306823335588" lon="-6.136427689343691">
        <ele>401.3999938964844</ele>
        <time>2015-05-03T07:57:32.000Z</time>
      </trkpt>
      <trkpt lat="39.83072189614177" lon="-6.136479992419481">
        <ele>401.79998779296875</ele>
        <time>2015-05-03T07:57:33.000Z</time>
      </trkpt>
      <trkpt lat="39.83081032522023" lon="-6.136567248031497">
        <ele>402.3999938964844</ele>
        <time>2015-05-03T07:57:35.000Z</time>
      </trkpt>
      <trkpt lat="39.83084904961288" lon="-6.136616952717304">
        <ele>402.79998779296875</ele>
        <time>2015-05-03T07:57:36.000Z</time>
      </trkpt>
      <trkpt lat="39.83087629079819" lon="-6.136670093983412">
        <ele>403.3999938964844</ele>
        <time>2015-05-03T07:57:37.000Z</time>
      </trkpt>
      <trkpt lat="39.830925995483994" lon="-6.136777717620134">
        <ele>404.3999938964844</ele>
        <time>2015-05-03T07:57:39.000Z</time>
      </trkpt>
      <trkpt lat="39.8309981636703" lon="-6.136937225237489">
        <ele>405.3999938964844</ele>
        <time>2015-05-03T07:57:42.000Z</time>
      </trkpt>
      <trkpt lat="39.83104267157614" lon="-6.137041160836816">
        <ele>406.20001220703125</ele>
        <time>2015-05-03T07:57:44.000Z</time>
      </trkpt>
      <trkpt lat="39.831064799800515" lon="-6.137090530246496">
        <ele>406.6000061035156</ele>
        <time>2015-05-03T07:57:45.000Z</time>
      </trkpt>
      <trkpt lat="39.83115607872605" lon="-6.1372768599539995">
        <ele>407.6000061035156</ele>
        <time>2015-05-03T07:57:49.000Z</time>
      </trkpt>
      <trkpt lat="39.8311932105571" lon="-6.1373743414878845">
        <ele>408.3999938964844</ele>
        <time>2015-05-03T07:57:51.000Z</time>
      </trkpt>
      <trkpt lat="39.831211315467954" lon="-6.137422369793057">
        <ele>408.6000061035156</ele>
        <time>2015-05-03T07:57:52.000Z</time>
      </trkpt>
      <trkpt lat="39.83123344369233" lon="-6.1374683026224375">
        <ele>409.0</ele>
        <time>2015-05-03T07:57:53.000Z</time>
      </trkpt>
      <trkpt lat="39.831316424533725" lon="-6.137658823281527">
        <ele>409.79998779296875</ele>
        <time>2015-05-03T07:57:57.000Z</time>
      </trkpt>
      <trkpt lat="39.83134601265192" lon="-6.137763177976012">
        <ele>410.79998779296875</ele>
        <time>2015-05-03T07:57:59.000Z</time>
      </trkpt>
      <trkpt lat="39.8313348647207" lon="-6.138041540980339">
        <ele>411.79998779296875</ele>
        <time>2015-05-03T07:58:04.000Z</time>
      </trkpt>
      <trkpt lat="39.83129748143256" lon="-6.138162910938263">
        <ele>411.6000061035156</ele>
        <time>2015-05-03T07:58:06.000Z</time>
      </trkpt>
      <trkpt lat="39.83124668709934" lon="-6.138350917026401">
        <ele>412.0</ele>
        <time>2015-05-03T07:58:09.000Z</time>
      </trkpt>
      <trkpt lat="39.83120176009834" lon="-6.138735394924879">
        <ele>413.0</ele>
        <time>2015-05-03T07:58:15.000Z</time>
      </trkpt>
      <trkpt lat="39.83120326884091" lon="-6.138800019398332">
        <ele>413.20001220703125</ele>
        <time>2015-05-03T07:58:16.000Z</time>
      </trkpt>
      <trkpt lat="39.83119731768966" lon="-6.138863135129213">
        <ele>413.3999938964844</ele>
        <time>2015-05-03T07:58:17.000Z</time>
      </trkpt>
      <trkpt lat="39.831172758713365" lon="-6.13904720172286">
        <ele>413.6000061035156</ele>
        <time>2015-05-03T07:58:20.000Z</time>
      </trkpt>
      <trkpt lat="39.83117611147463" lon="-6.139106964692473">
        <ele>414.0</ele>
        <time>2015-05-03T07:58:21.000Z</time>
      </trkpt>
      <trkpt lat="39.83118323609233" lon="-6.1392309330403805">
        <ele>414.79998779296875</ele>
        <time>2015-05-03T07:58:23.000Z</time>
      </trkpt>
      <trkpt lat="39.831206537783146" lon="-6.139282649382949">
        <ele>414.6000061035156</ele>
        <time>2015-05-03T07:58:24.000Z</time>
      </trkpt>
      <trkpt lat="39.83124769292772" lon="-6.139492532238364">
        <ele>416.0</ele>
        <time>2015-05-03T07:58:28.000Z</time>
      </trkpt>
      <trkpt lat="39.83118868432939" lon="-6.139684226363897">
        <ele>417.20001220703125</ele>
        <time>2015-05-03T07:58:32.000Z</time>
      </trkpt>
      <trkpt lat="39.83116680756211" lon="-6.139729907736182">
        <ele>417.3999938964844</ele>
        <time>2015-05-03T07:58:33.000Z</time>
      </trkpt>
      <trkpt lat="39.8311001714319" lon="-6.1397952027618885">
        <ele>418.0</ele>
        <time>2015-05-03T07:58:35.000Z</time>
      </trkpt>
      <trkpt lat="39.83105918392539" lon="-6.139818672090769">
        <ele>418.0</ele>
        <time>2015-05-03T07:58:36.000Z</time>
      </trkpt>
      <trkpt lat="39.830914763733745" lon="-6.139865862205625">
        <ele>418.20001220703125</ele>
        <time>2015-05-03T07:58:39.000Z</time>
      </trkpt>
      <trkpt lat="39.83086413703859" lon="-6.139873070642352">
        <ele>418.20001220703125</ele>
        <time>2015-05-03T07:58:40.000Z</time>
      </trkpt>
      <trkpt lat="39.830819461494684" lon="-6.139906598255038">
        <ele>418.0</ele>
        <time>2015-05-03T07:58:41.000Z</time>
      </trkpt>
      <trkpt lat="39.83076305128634" lon="-6.140028638765216">
        <ele>417.0</ele>
        <time>2015-05-03T07:58:43.000Z</time>
      </trkpt>
      <trkpt lat="39.83076196163893" lon="-6.1401076801121235">
        <ele>416.79998779296875</ele>
        <time>2015-05-03T07:58:44.000Z</time>
      </trkpt>
      <trkpt lat="39.83083496801555" lon="-6.14033617079258">
        <ele>416.0</ele>
        <time>2015-05-03T07:58:47.000Z</time>
      </trkpt>
      <trkpt lat="39.830869333818555" lon="-6.140408841893077">
        <ele>416.20001220703125</ele>
        <time>2015-05-03T07:58:48.000Z</time>
      </trkpt>
      <trkpt lat="39.830922055989504" lon="-6.140561727806926">
        <ele>416.3999938964844</ele>
        <time>2015-05-03T07:58:50.000Z</time>
      </trkpt>
      <trkpt lat="39.83097352087498" lon="-6.140710171312094">
        <ele>416.6000061035156</ele>
        <time>2015-05-03T07:58:52.000Z</time>
      </trkpt>
      <trkpt lat="39.83105465769768" lon="-6.14092105999589">
        <ele>418.20001220703125</ele>
        <time>2015-05-03T07:58:55.000Z</time>
      </trkpt>
      <trkpt lat="39.83115943148732" lon="-6.141175534576178">
        <ele>419.0</ele>
        <time>2015-05-03T07:58:59.000Z</time>
      </trkpt>
      <trkpt lat="39.83118072152138" lon="-6.141237979754806">
        <ele>419.3999938964844</ele>
        <time>2015-05-03T07:59:00.000Z</time>
      </trkpt>
      <trkpt lat="39.83126487582922" lon="-6.141480803489685">
        <ele>420.20001220703125</ele>
        <time>2015-05-03T07:59:04.000Z</time>
      </trkpt>
      <trkpt lat="39.83128574676812" lon="-6.141543835401535">
        <ele>420.6000061035156</ele>
        <time>2015-05-03T07:59:05.000Z</time>
      </trkpt>
      <trkpt lat="39.83130980283022" lon="-6.141603514552116">
        <ele>421.0</ele>
        <time>2015-05-03T07:59:06.000Z</time>
      </trkpt>
      <trkpt lat="39.83141147531569" lon="-6.141877267509699">
        <ele>422.0</ele>
        <time>2015-05-03T07:59:11.000Z</time>
      </trkpt>
      <trkpt lat="39.831436118111014" lon="-6.14192814566195">
        <ele>422.20001220703125</ele>
        <time>2015-05-03T07:59:12.000Z</time>
      </trkpt>
      <trkpt lat="39.831553380936384" lon="-6.142184380441904">
        <ele>423.0</ele>
        <time>2015-05-03T07:59:17.000Z</time>
      </trkpt>
      <trkpt lat="39.83158925548196" lon="-6.142225116491318">
        <ele>423.0</ele>
        <time>2015-05-03T07:59:18.000Z</time>
      </trkpt>
      <trkpt lat="39.83164943754673" lon="-6.142307259142399">
        <ele>423.6000061035156</ele>
        <time>2015-05-03T07:59:20.000Z</time>
      </trkpt>
      <trkpt lat="39.83165287412703" lon="-6.142419325187802">
        <ele>424.0</ele>
        <time>2015-05-03T07:59:22.000Z</time>
      </trkpt>
      <trkpt lat="39.831654131412506" lon="-6.14247246645391">
        <ele>424.0</ele>
        <time>2015-05-03T07:59:23.000Z</time>
      </trkpt>
      <trkpt lat="39.83166544698179" lon="-6.142524601891637">
        <ele>424.6000061035156</ele>
        <time>2015-05-03T07:59:24.000Z</time>
      </trkpt>
      <trkpt lat="39.83169285580516" lon="-6.142623675987124">
        <ele>425.3999938964844</ele>
        <time>2015-05-03T07:59:26.000Z</time>
      </trkpt>
      <trkpt lat="39.83170081861317" lon="-6.142675643786788">
        <ele>425.6000061035156</ele>
        <time>2015-05-03T07:59:27.000Z</time>
      </trkpt>
      <trkpt lat="39.831793271005154" lon="-6.142873875796795">
        <ele>426.20001220703125</ele>
        <time>2015-05-03T07:59:32.000Z</time>
      </trkpt>
      <trkpt lat="39.83181799761951" lon="-6.142904050648212">
        <ele>426.6000061035156</ele>
        <time>2015-05-03T07:59:33.000Z</time>
      </trkpt>
      <trkpt lat="39.83194406144321" lon="-6.143044447526336">
        <ele>427.6000061035156</ele>
        <time>2015-05-03T07:59:38.000Z</time>
      </trkpt>
      <trkpt lat="39.83199259266257" lon="-6.143096834421158">
        <ele>428.20001220703125</ele>
        <time>2015-05-03T07:59:40.000Z</time>
      </trkpt>
      <trkpt lat="39.832017067819834" lon="-6.143125416710973">
        <ele>429.0</ele>
        <time>2015-05-03T07:59:41.000Z</time>
      </trkpt>
      <trkpt lat="39.832112956792116" lon="-6.143230106681585">
        <ele>430.0</ele>
        <time>2015-05-03T07:59:45.000Z</time>
      </trkpt>
      <trkpt lat="39.832185711711645" lon="-6.143298922106624">
        <ele>431.20001220703125</ele>
        <time>2015-05-03T07:59:48.000Z</time>
      </trkpt>
      <trkpt lat="39.83230624347925" lon="-6.143425153568387">
        <ele>432.3999938964844</ele>
        <time>2015-05-03T07:59:53.000Z</time>
      </trkpt>
      <trkpt lat="39.83234873972833" lon="-6.1434786301106215">
        <ele>433.3999938964844</ele>
        <time>2015-05-03T07:59:55.000Z</time>
      </trkpt>
      <trkpt lat="39.832395846024156" lon="-6.143528334796429">
        <ele>434.3999938964844</ele>
        <time>2015-05-03T07:59:57.000Z</time>
      </trkpt>
      <trkpt lat="39.832481257617474" lon="-6.143646351993084">
        <ele>435.6000061035156</ele>
        <time>2015-05-03T08:00:01.000Z</time>
      </trkpt>
      <trkpt lat="39.83252501115203" lon="-6.1437068693339825">
        <ele>436.20001220703125</ele>
        <time>2015-05-03T08:00:03.000Z</time>
      </trkpt>
      <trkpt lat="39.83257052488625" lon="-6.143762776628137">
        <ele>436.79998779296875</ele>
        <time>2015-05-03T08:00:05.000Z</time>
      </trkpt>
      <trkpt lat="39.83263590373099" lon="-6.1438473500311375">
        <ele>438.20001220703125</ele>
        <time>2015-05-03T08:00:08.000Z</time>
      </trkpt>
      <trkpt lat="39.83267546631396" lon="-6.143907364457846">
        <ele>438.6000061035156</ele>
        <time>2015-05-03T08:00:10.000Z</time>
      </trkpt>
      <trkpt lat="39.83271460980177" lon="-6.1439683847129345">
        <ele>439.20001220703125</ele>
        <time>2015-05-03T08:00:12.000Z</time>
      </trkpt>
      <trkpt lat="39.83279901556671" lon="-6.144098890945315">
        <ele>440.20001220703125</ele>
        <time>2015-05-03T08:00:16.000Z</time>
      </trkpt>
      <trkpt lat="39.8328822478652" lon="-6.144220009446144">
        <ele>440.79998779296875</ele>
        <time>2015-05-03T08:00:20.000Z</time>
      </trkpt>
      <trkpt lat="39.83290479518473" lon="-6.144249765202403">
        <ele>441.3999938964844</ele>
        <time>2015-05-03T08:00:21.000Z</time>
      </trkpt>
      <trkpt lat="39.83303966000676" lon="-6.144425198435783">
        <ele>442.3999938964844</ele>
        <time>2015-05-03T08:00:27.000Z</time>
      </trkpt>
      <trkpt lat="39.8331084754318" lon="-6.144507089629769">
        <ele>443.6000061035156</ele>
        <time>2015-05-03T08:00:30.000Z</time>
      </trkpt>
      <trkpt lat="39.83317486010492" lon="-6.1445836164057255">
        <ele>444.6000061035156</ele>
        <time>2015-05-03T08:00:33.000Z</time>
      </trkpt>
      <trkpt lat="39.83322490006685" lon="-6.144627369940281">
        <ele>445.0</ele>
        <time>2015-05-03T08:00:35.000Z</time>
      </trkpt>
      <trkpt lat="39.833297403529286" lon="-6.144692664965987">
        <ele>445.79998779296875</ele>
        <time>2015-05-03T08:00:38.000Z</time>
      </trkpt>
      <trkpt lat="39.83340100385249" lon="-6.14477195776999">
        <ele>447.20001220703125</ele>
        <time>2015-05-03T08:00:42.000Z</time>
      </trkpt>
      <trkpt lat="39.83345406129956" lon="-6.144805988296866">
        <ele>447.79998779296875</ele>
        <time>2015-05-03T08:00:44.000Z</time>
      </trkpt>
      <trkpt lat="39.83350561000407" lon="-6.1448336485773325">
        <ele>448.6000061035156</ele>
        <time>2015-05-03T08:00:46.000Z</time>
      </trkpt>
      <trkpt lat="39.83361231163144" lon="-6.144881593063474">
        <ele>449.6000061035156</ele>
        <time>2015-05-03T08:00:50.000Z</time>
      </trkpt>
      <trkpt lat="39.83366763219237" lon="-6.144900871440768">
        <ele>450.0</ele>
        <time>2015-05-03T08:00:52.000Z</time>
      </trkpt>
      <trkpt lat="39.83374943956733" lon="-6.144934231415391">
        <ele>451.0</ele>
        <time>2015-05-03T08:00:55.000Z</time>
      </trkpt>
      <trkpt lat="39.83382923528552" lon="-6.144965915009379">
        <ele>452.0</ele>
        <time>2015-05-03T08:00:58.000Z</time>
      </trkpt>
      <trkpt lat="39.83391070738435" lon="-6.145005980506539">
        <ele>452.79998779296875</ele>
        <time>2015-05-03T08:01:01.000Z</time>
      </trkpt>
      <trkpt lat="39.8339650221169" lon="-6.145028527826071">
        <ele>453.3999938964844</ele>
        <time>2015-05-03T08:01:03.000Z</time>
      </trkpt>
      <trkpt lat="39.83404557220638" lon="-6.14506658166647">
        <ele>454.6000061035156</ele>
        <time>2015-05-03T08:01:06.000Z</time>
      </trkpt>
      <trkpt lat="39.83413157053292" lon="-6.14507932215929">
        <ele>455.79998779296875</ele>
        <time>2015-05-03T08:01:09.000Z</time>
      </trkpt>
      <trkpt lat="39.8342121206224" lon="-6.14509005099535">
        <ele>457.20001220703125</ele>
        <time>2015-05-03T08:01:12.000Z</time>
      </trkpt>
      <trkpt lat="39.83425905928016" lon="-6.145056020468473">
        <ele>458.0</ele>
        <time>2015-05-03T08:01:14.000Z</time>
      </trkpt>
      <trkpt lat="39.83428009785712" lon="-6.14502995274961">
        <ele>458.20001220703125</ele>
        <time>2015-05-03T08:01:15.000Z</time>
      </trkpt>
      <trkpt lat="39.83436416834593" lon="-6.144882766529918">
        <ele>458.79998779296875</ele>
        <time>2015-05-03T08:01:19.000Z</time>
      </trkpt>
      <trkpt lat="39.83443424105644" lon="-6.144768185913563">
        <ele>460.0</ele>
        <time>2015-05-03T08:01:22.000Z</time>
      </trkpt>
      <trkpt lat="39.834538511931896" lon="-6.144584454596043">
        <ele>461.0</ele>
        <time>2015-05-03T08:01:27.000Z</time>
      </trkpt>
      <trkpt lat="39.834558963775635" lon="-6.144547322764993">
        <ele>461.0</ele>
        <time>2015-05-03T08:01:28.000Z</time>
      </trkpt>
      <trkpt lat="39.83467262238264" lon="-6.144317407160997">
        <ele>462.20001220703125</ele>
        <time>2015-05-03T08:01:34.000Z</time>
      </trkpt>
      <trkpt lat="39.834687458351254" lon="-6.144272983074188">
        <ele>462.6000061035156</ele>
        <time>2015-05-03T08:01:35.000Z</time>
      </trkpt>
      <trkpt lat="39.834754932671785" lon="-6.144079780206084">
        <ele>463.3999938964844</ele>
        <time>2015-05-03T08:01:40.000Z</time>
      </trkpt>
      <trkpt lat="39.83475526794791" lon="-6.144030578434467">
        <ele>463.6000061035156</ele>
        <time>2015-05-03T08:01:41.000Z</time>
      </trkpt>
      <trkpt lat="39.83474789187312" lon="-6.143883811309934">
        <ele>464.3999938964844</ele>
        <time>2015-05-03T08:01:44.000Z</time>
      </trkpt>
      <trkpt lat="39.83470614999533" lon="-6.143702007830143">
        <ele>465.20001220703125</ele>
        <time>2015-05-03T08:01:48.000Z</time>
      </trkpt>
      <trkpt lat="39.83469123020768" lon="-6.143661104142666">
        <ele>465.3999938964844</ele>
        <time>2015-05-03T08:01:49.000Z</time>
      </trkpt>
      <trkpt lat="39.834628785029054" lon="-6.143461028113961">
        <ele>466.6000061035156</ele>
        <time>2015-05-03T08:01:54.000Z</time>
      </trkpt>
      <trkpt lat="39.83461654745042" lon="-6.14342188462615">
        <ele>466.79998779296875</ele>
        <time>2015-05-03T08:01:55.000Z</time>
      </trkpt>
      <trkpt lat="39.83455192297697" lon="-6.1432188749313354">
        <ele>467.6000061035156</ele>
        <time>2015-05-03T08:02:00.000Z</time>
      </trkpt>
      <trkpt lat="39.83454211615026" lon="-6.14317461848259">
        <ele>467.79998779296875</ele>
        <time>2015-05-03T08:02:01.000Z</time>
      </trkpt>
      <trkpt lat="39.834490986540914" lon="-6.142949899658561">
        <ele>468.79998779296875</ele>
        <time>2015-05-03T08:02:06.000Z</time>
      </trkpt>
      <trkpt lat="39.83447221107781" lon="-6.14286289550364">
        <ele>469.0</ele>
        <time>2015-05-03T08:02:08.000Z</time>
      </trkpt>
      <trkpt lat="39.83445762656629" lon="-6.142631722614169">
        <ele>469.79998779296875</ele>
        <time>2015-05-03T08:02:13.000Z</time>
      </trkpt>
      <trkpt lat="39.83445921912789" lon="-6.142586292698979">
        <ele>470.20001220703125</ele>
        <time>2015-05-03T08:02:14.000Z</time>
      </trkpt>
      <trkpt lat="39.83445326797664" lon="-6.142440447583795">
        <ele>471.0</ele>
        <time>2015-05-03T08:02:17.000Z</time>
      </trkpt>
      <trkpt lat="39.83443901874125" lon="-6.142294518649578">
        <ele>470.79998779296875</ele>
        <time>2015-05-03T08:02:20.000Z</time>
      </trkpt>
      <trkpt lat="39.83442669734359" lon="-6.141960667446256">
        <ele>472.20001220703125</ele>
        <time>2015-05-03T08:02:27.000Z</time>
      </trkpt>
      <trkpt lat="39.83442518860102" lon="-6.141864443197846">
        <ele>472.6000061035156</ele>
        <time>2015-05-03T08:02:29.000Z</time>
      </trkpt>
      <trkpt lat="39.83442049473524" lon="-6.141678784042597">
        <ele>473.20001220703125</ele>
        <time>2015-05-03T08:02:33.000Z</time>
      </trkpt>
      <trkpt lat="39.83443348668516" lon="-6.141443755477667">
        <ele>474.0</ele>
        <time>2015-05-03T08:02:38.000Z</time>
      </trkpt>
      <trkpt lat="39.834435833618045" lon="-6.141397655010223">
        <ele>474.3999938964844</ele>
        <time>2015-05-03T08:02:39.000Z</time>
      </trkpt>
      <trkpt lat="39.83446835540235" lon="-6.141132786870003">
        <ele>475.20001220703125</ele>
        <time>2015-05-03T08:02:45.000Z</time>
      </trkpt>
      <trkpt lat="39.834475480020046" lon="-6.141087440773845">
        <ele>475.3999938964844</ele>
        <time>2015-05-03T08:02:46.000Z</time>
      </trkpt>
      <trkpt lat="39.834526777267456" lon="-6.140818884596229">
        <ele>476.6000061035156</ele>
        <time>2015-05-03T08:02:52.000Z</time>
      </trkpt>
      <trkpt lat="39.83453859575093" lon="-6.140772281214595">
        <ele>476.79998779296875</ele>
        <time>2015-05-03T08:02:53.000Z</time>
      </trkpt>
      <trkpt lat="39.83462551608682" lon="-6.140466593205929">
        <ele>477.79998779296875</ele>
        <time>2015-05-03T08:03:00.000Z</time>
      </trkpt>
      <trkpt lat="39.83465351164341" lon="-6.140386797487736">
        <ele>478.3999938964844</ele>
        <time>2015-05-03T08:03:02.000Z</time>
      </trkpt>
      <trkpt lat="39.83469508588314" lon="-6.140271546319127">
        <ele>479.20001220703125</ele>
        <time>2015-05-03T08:03:05.000Z</time>
      </trkpt>
      <trkpt lat="39.83477412723005" lon="-6.140084210783243">
        <ele>480.20001220703125</ele>
        <time>2015-05-03T08:03:10.000Z</time>
      </trkpt>
      <trkpt lat="39.83485442586243" lon="-6.1398582346737385">
        <ele>481.3999938964844</ele>
        <time>2015-05-03T08:03:16.000Z</time>
      </trkpt>
      <trkpt lat="39.83487085439265" lon="-6.139819426462054">
        <ele>481.3999938964844</ele>
        <time>2015-05-03T08:03:17.000Z</time>
      </trkpt>
      <trkpt lat="39.834929779171944" lon="-6.139663187786937">
        <ele>482.3999938964844</ele>
        <time>2015-05-03T08:03:21.000Z</time>
      </trkpt>
      <trkpt lat="39.83500580303371" lon="-6.139471074566245">
        <ele>483.6000061035156</ele>
        <time>2015-05-03T08:03:26.000Z</time>
      </trkpt>
      <trkpt lat="39.835081323981285" lon="-6.139280637726188">
        <ele>484.6000061035156</ele>
        <time>2015-05-03T08:03:31.000Z</time>
      </trkpt>
      <trkpt lat="39.83511133119464" lon="-6.139209978282452">
        <ele>485.0</ele>
        <time>2015-05-03T08:03:33.000Z</time>
      </trkpt>
      <trkpt lat="39.835142930969596" lon="-6.1391375586390495">
        <ele>485.79998779296875</ele>
        <time>2015-05-03T08:03:35.000Z</time>
      </trkpt>
      <trkpt lat="39.835212752223015" lon="-6.138966232538223">
        <ele>486.6000061035156</ele>
        <time>2015-05-03T08:03:40.000Z</time>
      </trkpt>
      <trkpt lat="39.83522708527744" lon="-6.138933124020696">
        <ele>486.79998779296875</ele>
        <time>2015-05-03T08:03:41.000Z</time>
      </trkpt>
      <trkpt lat="39.83527955599129" lon="-6.138793649151921">
        <ele>487.79998779296875</ele>
        <time>2015-05-03T08:03:45.000Z</time>
      </trkpt>
      <trkpt lat="39.835289362818" lon="-6.138766324147582">
        <ele>488.0</ele>
        <time>2015-05-03T08:03:46.000Z</time>
      </trkpt>
      <trkpt lat="39.83536999672651" lon="-6.13855367526412">
        <ele>488.79998779296875</ele>
        <time>2015-05-03T08:03:52.000Z</time>
      </trkpt>
      <trkpt lat="39.83538315631449" lon="-6.138516208156943">
        <ele>489.0</ele>
        <time>2015-05-03T08:03:53.000Z</time>
      </trkpt>
      <trkpt lat="39.8354278318584" lon="-6.1383565329015255">
        <ele>490.20001220703125</ele>
        <time>2015-05-03T08:03:57.000Z</time>
      </trkpt>
      <trkpt lat="39.83544694259763" lon="-6.138273887336254">
        <ele>490.79998779296875</ele>
        <time>2015-05-03T08:03:59.000Z</time>
      </trkpt>
      <trkpt lat="39.83550083823502" lon="-6.137984963133931">
        <ele>491.6000061035156</ele>
        <time>2015-05-03T08:04:06.000Z</time>
      </trkpt>
      <trkpt lat="39.83551634475589" lon="-6.137899802997708">
        <ele>492.20001220703125</ele>
        <time>2015-05-03T08:04:08.000Z</time>
      </trkpt>
      <trkpt lat="39.83553553931415" lon="-6.137773152440786">
        <ele>492.6000061035156</ele>
        <time>2015-05-03T08:04:11.000Z</time>
      </trkpt>
      <trkpt lat="39.83556102029979" lon="-6.137603921815753">
        <ele>493.6000061035156</ele>
        <time>2015-05-03T08:04:15.000Z</time>
      </trkpt>
      <trkpt lat="39.83556856401265" lon="-6.137558910995722">
        <ele>493.6000061035156</ele>
        <time>2015-05-03T08:04:16.000Z</time>
      </trkpt>
      <trkpt lat="39.835628075525165" lon="-6.137244505807757">
        <ele>494.20001220703125</ele>
        <time>2015-05-03T08:04:23.000Z</time>
      </trkpt>
      <trkpt lat="39.835663279518485" lon="-6.137048453092575">
        <ele>494.79998779296875</ele>
        <time>2015-05-03T08:04:27.000Z</time>
      </trkpt>
      <trkpt lat="39.8356900177896" lon="-6.136896908283234">
        <ele>495.3999938964844</ele>
        <time>2015-05-03T08:04:30.000Z</time>
      </trkpt>
      <trkpt lat="39.83572505414486" lon="-6.136688031256199">
        <ele>496.0</ele>
        <time>2015-05-03T08:04:34.000Z</time>
      </trkpt>
      <trkpt lat="39.83577442355454" lon="-6.136426515877247">
        <ele>496.6000061035156</ele>
        <time>2015-05-03T08:04:39.000Z</time>
      </trkpt>
      <trkpt lat="39.835796719416976" lon="-6.13632308319211">
        <ele>497.20001220703125</ele>
        <time>2015-05-03T08:04:41.000Z</time>
      </trkpt>
      <trkpt lat="39.835854806005955" lon="-6.136021502315998">
        <ele>497.6000061035156</ele>
        <time>2015-05-03T08:04:47.000Z</time>
      </trkpt>
      <trkpt lat="39.835863104090095" lon="-6.135970875620842">
        <ele>498.20001220703125</ele>
        <time>2015-05-03T08:04:48.000Z</time>
      </trkpt>
      <trkpt lat="39.83592898584902" lon="-6.135621098801494">
        <ele>499.3999938964844</ele>
        <time>2015-05-03T08:04:55.000Z</time>
      </trkpt>
      <trkpt lat="39.83594348654151" lon="-6.135571813210845">
        <ele>499.3999938964844</ele>
        <time>2015-05-03T08:04:56.000Z</time>
      </trkpt>
      <trkpt lat="39.83599931001663" lon="-6.135334186255932">
        <ele>500.3999938964844</ele>
        <time>2015-05-03T08:05:01.000Z</time>
      </trkpt>
      <trkpt lat="39.83604700304568" lon="-6.1351982317864895">
        <ele>501.0</ele>
        <time>2015-05-03T08:05:04.000Z</time>
      </trkpt>
      <trkpt lat="39.836118165403605" lon="-6.1350262351334095">
        <ele>501.6000061035156</ele>
        <time>2015-05-03T08:05:08.000Z</time>
      </trkpt>
      <trkpt lat="39.83620106242597" lon="-6.1348530650138855">
        <ele>502.3999938964844</ele>
        <time>2015-05-03T08:05:12.000Z</time>
      </trkpt>
      <trkpt lat="39.836221765726805" lon="-6.134810149669647">
        <ele>502.79998779296875</ele>
        <time>2015-05-03T08:05:13.000Z</time>
      </trkpt>
      <trkpt lat="39.83634330332279" lon="-6.13447948358953">
        <ele>504.0</ele>
        <time>2015-05-03T08:05:20.000Z</time>
      </trkpt>
      <trkpt lat="39.836352188140154" lon="-6.134432461112738">
        <ele>504.0</ele>
        <time>2015-05-03T08:05:21.000Z</time>
      </trkpt>
      <trkpt lat="39.83636727556586" lon="-6.1341374181210995">
        <ele>505.20001220703125</ele>
        <time>2015-05-03T08:05:27.000Z</time>
      </trkpt>
      <trkpt lat="39.8363618273288" lon="-6.134087294340134">
        <ele>505.20001220703125</ele>
        <time>2015-05-03T08:05:28.000Z</time>
      </trkpt>
      <trkpt lat="39.836312709376216" lon="-6.133836507797241">
        <ele>506.20001220703125</ele>
        <time>2015-05-03T08:05:33.000Z</time>
      </trkpt>
      <trkpt lat="39.8362825345248" lon="-6.1337401997298">
        <ele>506.6000061035156</ele>
        <time>2015-05-03T08:05:35.000Z</time>
      </trkpt>
      <trkpt lat="39.836245235055685" lon="-6.13359410315752">
        <ele>507.3999938964844</ele>
        <time>2015-05-03T08:05:38.000Z</time>
      </trkpt>
      <trkpt lat="39.83622335828841" lon="-6.133387824520469">
        <ele>507.6000061035156</ele>
        <time>2015-05-03T08:05:42.000Z</time>
      </trkpt>
      <trkpt lat="39.83623903244734" lon="-6.133120274171233">
        <ele>508.6000061035156</ele>
        <time>2015-05-03T08:05:47.000Z</time>
      </trkpt>
      <trkpt lat="39.83625001274049" lon="-6.133016003295779">
        <ele>508.79998779296875</ele>
        <time>2015-05-03T08:05:49.000Z</time>
      </trkpt>
      <trkpt lat="39.836290245875716" lon="-6.132749542593956">
        <ele>509.6000061035156</ele>
        <time>2015-05-03T08:05:54.000Z</time>
      </trkpt>
      <trkpt lat="39.836293179541826" lon="-6.132697490975261">
        <ele>509.79998779296875</ele>
        <time>2015-05-03T08:05:55.000Z</time>
      </trkpt>
      <trkpt lat="39.836313212290406" lon="-6.132597913965583">
        <ele>510.20001220703125</ele>
        <time>2015-05-03T08:05:57.000Z</time>
      </trkpt>
      <trkpt lat="39.83633299358189" lon="-6.132448883727193">
        <ele>510.6000061035156</ele>
        <time>2015-05-03T08:06:00.000Z</time>
      </trkpt>
      <trkpt lat="39.83637121506035" lon="-6.132201198488474">
        <ele>511.79998779296875</ele>
        <time>2015-05-03T08:06:05.000Z</time>
      </trkpt>
      <trkpt lat="39.83641027472913" lon="-6.13195619545877">
        <ele>513.0</ele>
        <time>2015-05-03T08:06:10.000Z</time>
      </trkpt>
      <trkpt lat="39.83643257059157" lon="-6.131865084171295">
        <ele>513.0</ele>
        <time>2015-05-03T08:06:12.000Z</time>
      </trkpt>
      <trkpt lat="39.836476827040315" lon="-6.13158437423408">
        <ele>514.2000122070312</ele>
        <time>2015-05-03T08:06:18.000Z</time>
      </trkpt>
      <trkpt lat="39.836541283875704" lon="-6.131294695660472">
        <ele>515.0</ele>
        <time>2015-05-03T08:06:24.000Z</time>
      </trkpt>
      <trkpt lat="39.83655192889273" lon="-6.1312376987189054">
        <ele>515.4000244140625</ele>
        <time>2015-05-03T08:06:25.000Z</time>
      </trkpt>
      <trkpt lat="39.83658947981894" lon="-6.131009040400386">
        <ele>516.5999755859375</ele>
        <time>2015-05-03T08:06:29.000Z</time>
      </trkpt>
      <trkpt lat="39.83661009930074" lon="-6.130899405106902">
        <ele>517.0</ele>
        <time>2015-05-03T08:06:31.000Z</time>
      </trkpt>
      <trkpt lat="39.83662552200258" lon="-6.1307847406715155">
        <ele>517.7999877929688</ele>
        <time>2015-05-03T08:06:33.000Z</time>
      </trkpt>
      <trkpt lat="39.83668335713446" lon="-6.130516016855836">
        <ele>518.5999755859375</ele>
        <time>2015-05-03T08:06:38.000Z</time>
      </trkpt>
      <trkpt lat="39.83669123612344" lon="-6.130458684638143">
        <ele>519.0</ele>
        <time>2015-05-03T08:06:39.000Z</time>
      </trkpt>
      <trkpt lat="39.83673272654414" lon="-6.130168419331312">
        <ele>520.0</ele>
        <time>2015-05-03T08:06:44.000Z</time>
      </trkpt>
      <trkpt lat="39.83677027747035" lon="-6.12995769828558">
        <ele>521.2000122070312</ele>
        <time>2015-05-03T08:06:48.000Z</time>
      </trkpt>
      <trkpt lat="39.83679844066501" lon="-6.129847643896937">
        <ele>521.4000244140625</ele>
        <time>2015-05-03T08:06:50.000Z</time>
      </trkpt>
      <trkpt lat="39.83686013147235" lon="-6.1296317260712385">
        <ele>522.4000244140625</ele>
        <time>2015-05-03T08:06:54.000Z</time>
      </trkpt>
      <trkpt lat="39.8368972633034" lon="-6.129475487396121">
        <ele>522.7999877929688</ele>
        <time>2015-05-03T08:06:57.000Z</time>
      </trkpt>
      <trkpt lat="39.836932802572846" lon="-6.1293127946555614">
        <ele>523.5999755859375</ele>
        <time>2015-05-03T08:07:00.000Z</time>
      </trkpt>
      <trkpt lat="39.83696473762393" lon="-6.129152616485953">
        <ele>524.5999755859375</ele>
        <time>2015-05-03T08:07:03.000Z</time>
      </trkpt>
      <trkpt lat="39.83698912896216" lon="-6.129051195457578">
        <ele>524.5999755859375</ele>
        <time>2015-05-03T08:07:05.000Z</time>
      </trkpt>
      <trkpt lat="39.837017795071006" lon="-6.128901829943061">
        <ele>525.5999755859375</ele>
        <time>2015-05-03T08:07:08.000Z</time>
      </trkpt>
      <trkpt lat="39.83704444952309" lon="-6.128700664266944">
        <ele>526.5999755859375</ele>
        <time>2015-05-03T08:07:12.000Z</time>
      </trkpt>
      <trkpt lat="39.83704428188503" lon="-6.128643499687314">
        <ele>526.7999877929688</ele>
        <time>2015-05-03T08:07:13.000Z</time>
      </trkpt>
      <trkpt lat="39.83703221194446" lon="-6.128419116139412">
        <ele>527.7999877929688</ele>
        <time>2015-05-03T08:07:17.000Z</time>
      </trkpt>
      <trkpt lat="39.83702684752643" lon="-6.128366393968463">
        <ele>528.0</ele>
        <time>2015-05-03T08:07:18.000Z</time>
      </trkpt>
      <trkpt lat="39.836992900818586" lon="-6.12808333709836">
        <ele>529.0</ele>
        <time>2015-05-03T08:07:23.000Z</time>
      </trkpt>
      <trkpt lat="39.83694428578019" lon="-6.127586793154478">
        <ele>530.2000122070312</ele>
        <time>2015-05-03T08:07:31.000Z</time>
      </trkpt>
      <trkpt lat="39.836941100656986" lon="-6.127528036013246">
        <ele>530.2000122070312</ele>
        <time>2015-05-03T08:07:32.000Z</time>
      </trkpt>
      <trkpt lat="39.83693012036383" lon="-6.127244811505079">
        <ele>531.4000244140625</ele>
        <time>2015-05-03T08:07:37.000Z</time>
      </trkpt>
      <trkpt lat="39.83694897964597" lon="-6.127143474295735">
        <ele>531.5999755859375</ele>
        <time>2015-05-03T08:07:39.000Z</time>
      </trkpt>
      <trkpt lat="39.837003126740456" lon="-6.126889167353511">
        <ele>533.2000122070312</ele>
        <time>2015-05-03T08:07:44.000Z</time>
      </trkpt>
      <trkpt lat="39.83703112229705" lon="-6.1267446633428335">
        <ele>533.5999755859375</ele>
        <time>2015-05-03T08:07:47.000Z</time>
      </trkpt>
      <trkpt lat="39.83704721555114" lon="-6.126651540398598">
        <ele>534.4000244140625</ele>
        <time>2015-05-03T08:07:49.000Z</time>
      </trkpt>
      <trkpt lat="39.83707990497351" lon="-6.126426737755537">
        <ele>535.5999755859375</ele>
        <time>2015-05-03T08:07:54.000Z</time>
      </trkpt>
      <trkpt lat="39.837111085653305" lon="-6.126245269551873">
        <ele>536.7999877929688</ele>
        <time>2015-05-03T08:07:58.000Z</time>
      </trkpt>
      <trkpt lat="39.83712684363127" lon="-6.126155499368906">
        <ele>537.0</ele>
        <time>2015-05-03T08:08:00.000Z</time>
      </trkpt>
      <trkpt lat="39.83714310452342" lon="-6.126066399738193">
        <ele>537.7999877929688</ele>
        <time>2015-05-03T08:08:02.000Z</time>
      </trkpt>
      <trkpt lat="39.83718694187701" lon="-6.125830197706819">
        <ele>539.0</ele>
        <time>2015-05-03T08:08:07.000Z</time>
      </trkpt>
      <trkpt lat="39.83719423413277" lon="-6.125782672315836">
        <ele>539.2000122070312</ele>
        <time>2015-05-03T08:08:08.000Z</time>
      </trkpt>
      <trkpt lat="39.837213177233934" lon="-6.125642778351903">
        <ele>540.2000122070312</ele>
        <time>2015-05-03T08:08:11.000Z</time>
      </trkpt>
      <trkpt lat="39.837227342650294" lon="-6.125403055921197">
        <ele>541.4000244140625</ele>
        <time>2015-05-03T08:08:16.000Z</time>
      </trkpt>
      <trkpt lat="39.83723698183894" lon="-6.125303898006678">
        <ele>541.5999755859375</ele>
        <time>2015-05-03T08:08:18.000Z</time>
      </trkpt>
      <trkpt lat="39.83723186887801" lon="-6.125101558864117">
        <ele>542.5999755859375</ele>
        <time>2015-05-03T08:08:22.000Z</time>
      </trkpt>
      <trkpt lat="39.83723203651607" lon="-6.124999802559614">
        <ele>542.7999877929688</ele>
        <time>2015-05-03T08:08:24.000Z</time>
      </trkpt>
      <trkpt lat="39.837229857221246" lon="-6.124893268570304">
        <ele>543.7999877929688</ele>
        <time>2015-05-03T08:08:26.000Z</time>
      </trkpt>
      <trkpt lat="39.83723782002926" lon="-6.124630076810718">
        <ele>544.5999755859375</ele>
        <time>2015-05-03T08:08:31.000Z</time>
      </trkpt>
      <trkpt lat="39.837240083143115" lon="-6.124580204486847">
        <ele>545.0</ele>
        <time>2015-05-03T08:08:32.000Z</time>
      </trkpt>
      <trkpt lat="39.83724377118051" lon="-6.124426731839776">
        <ele>546.0</ele>
        <time>2015-05-03T08:08:35.000Z</time>
      </trkpt>
      <trkpt lat="39.83726556412876" lon="-6.12421634607017">
        <ele>546.7999877929688</ele>
        <time>2015-05-03T08:08:39.000Z</time>
      </trkpt>
      <trkpt lat="39.83727847225964" lon="-6.1241114884614944">
        <ele>547.2000122070312</ele>
        <time>2015-05-03T08:08:41.000Z</time>
      </trkpt>
      <trkpt lat="39.83729121275246" lon="-6.124060861766338">
        <ele>547.4000244140625</ele>
        <time>2015-05-03T08:08:42.000Z</time>
      </trkpt>
      <trkpt lat="39.83732348307967" lon="-6.123856930062175">
        <ele>548.5999755859375</ele>
        <time>2015-05-03T08:08:46.000Z</time>
      </trkpt>
      <trkpt lat="39.83737067319453" lon="-6.123654926195741">
        <ele>549.5999755859375</ele>
        <time>2015-05-03T08:08:50.000Z</time>
      </trkpt>
      <trkpt lat="39.83740244060755" lon="-6.123501285910606">
        <ele>550.4000244140625</ele>
        <time>2015-05-03T08:08:53.000Z</time>
      </trkpt>
      <trkpt lat="39.83742079697549" lon="-6.123396176844835">
        <ele>550.7999877929688</ele>
        <time>2015-05-03T08:08:55.000Z</time>
      </trkpt>
      <trkpt lat="39.83742322772741" lon="-6.12334362231195">
        <ele>550.7999877929688</ele>
        <time>2015-05-03T08:08:56.000Z</time>
      </trkpt>
      <trkpt lat="39.837450720369816" lon="-6.123182270675898">
        <ele>551.2000122070312</ele>
        <time>2015-05-03T08:08:59.000Z</time>
      </trkpt>
      <trkpt lat="39.83745910227299" lon="-6.123127955943346">
        <ele>552.0</ele>
        <time>2015-05-03T08:09:00.000Z</time>
      </trkpt>
      <trkpt lat="39.83750226907432" lon="-6.122974650934339">
        <ele>552.7999877929688</ele>
        <time>2015-05-03T08:09:03.000Z</time>
      </trkpt>
      <trkpt lat="39.837517607957125" lon="-6.122923186048865">
        <ele>553.0</ele>
        <time>2015-05-03T08:09:04.000Z</time>
      </trkpt>
      <trkpt lat="39.83754334039986" lon="-6.12281933426857">
        <ele>554.0</ele>
        <time>2015-05-03T08:09:06.000Z</time>
      </trkpt>
      <trkpt lat="39.8375553265214" lon="-6.122767282649875">
        <ele>554.4000244140625</ele>
        <time>2015-05-03T08:09:07.000Z</time>
      </trkpt>
      <trkpt lat="39.837605534121394" lon="-6.122626969590783">
        <ele>555.4000244140625</ele>
        <time>2015-05-03T08:09:10.000Z</time>
      </trkpt>
      <trkpt lat="39.83768197707832" lon="-6.122496630996466">
        <ele>556.5999755859375</ele>
        <time>2015-05-03T08:09:13.000Z</time>
      </trkpt>
      <trkpt lat="39.837743919342756" lon="-6.1224195174872875">
        <ele>557.5999755859375</ele>
        <time>2015-05-03T08:09:15.000Z</time>
      </trkpt>
      <trkpt lat="39.83777769841254" lon="-6.122387079522014">
        <ele>557.7999877929688</ele>
        <time>2015-05-03T08:09:16.000Z</time>
      </trkpt>
      <trkpt lat="39.837898733094335" lon="-6.122315246611834">
        <ele>558.2000122070312</ele>
        <time>2015-05-03T08:09:19.000Z</time>
      </trkpt>
      <trkpt lat="39.83794449828565" lon="-6.122298398986459">
        <ele>558.4000244140625</ele>
        <time>2015-05-03T08:09:20.000Z</time>
      </trkpt>
      <trkpt lat="39.83814097009599" lon="-6.122254226356745">
        <ele>558.4000244140625</ele>
        <time>2015-05-03T08:09:24.000Z</time>
      </trkpt>
      <trkpt lat="39.83819176442921" lon="-6.122245844453573">
        <ele>558.7999877929688</ele>
        <time>2015-05-03T08:09:25.000Z</time>
      </trkpt>
      <trkpt lat="39.83824339695275" lon="-6.122223883867264">
        <ele>558.0</ele>
        <time>2015-05-03T08:09:26.000Z</time>
      </trkpt>
      <trkpt lat="39.838303830474615" lon="-6.12218800932169">
        <ele>557.5999755859375</ele>
        <time>2015-05-03T08:09:27.000Z</time>
      </trkpt>
      <trkpt lat="39.83833618462086" lon="-6.122149201110005">
        <ele>557.2000122070312</ele>
        <time>2015-05-03T08:09:28.000Z</time>
      </trkpt>
      <trkpt lat="39.838380105793476" lon="-6.122121457010508">
        <ele>556.5999755859375</ele>
        <time>2015-05-03T08:09:29.000Z</time>
      </trkpt>
      <trkpt lat="39.83842411078513" lon="-6.122070495039225">
        <ele>555.2000122070312</ele>
        <time>2015-05-03T08:09:30.000Z</time>
      </trkpt>
      <trkpt lat="39.83846643939614" lon="-6.122003607451916">
        <ele>554.0</ele>
        <time>2015-05-03T08:09:31.000Z</time>
      </trkpt>
      <trkpt lat="39.838500805199146" lon="-6.121933618560433">
        <ele>553.0</ele>
        <time>2015-05-03T08:09:32.000Z</time>
      </trkpt>
      <trkpt lat="39.83856417238712" lon="-6.1217565927654505">
        <ele>552.0</ele>
        <time>2015-05-03T08:09:34.000Z</time>
      </trkpt>
      <trkpt lat="39.83863231725991" lon="-6.121546290814877">
        <ele>550.7999877929688</ele>
        <time>2015-05-03T08:09:36.000Z</time>
      </trkpt>
      <trkpt lat="39.83870222233236" lon="-6.121332552284002">
        <ele>549.0</ele>
        <time>2015-05-03T08:09:38.000Z</time>
      </trkpt>
      <trkpt lat="39.83873742632568" lon="-6.121221072971821">
        <ele>547.7999877929688</ele>
        <time>2015-05-03T08:09:39.000Z</time>
      </trkpt>
      <trkpt lat="39.83880490064621" lon="-6.1209991201758385">
        <ele>546.4000244140625</ele>
        <time>2015-05-03T08:09:41.000Z</time>
      </trkpt>
      <trkpt lat="39.83885435387492" lon="-6.120771886780858">
        <ele>545.4000244140625</ele>
        <time>2015-05-03T08:09:43.000Z</time>
      </trkpt>
      <trkpt lat="39.83888058923185" lon="-6.120654623955488">
        <ele>545.0</ele>
        <time>2015-05-03T08:09:44.000Z</time>
      </trkpt>
      <trkpt lat="39.83894010074437" lon="-6.120435604825616">
        <ele>543.4000244140625</ele>
        <time>2015-05-03T08:09:46.000Z</time>
      </trkpt>
      <trkpt lat="39.839023584499955" lon="-6.120222453027964">
        <ele>541.7999877929688</ele>
        <time>2015-05-03T08:09:48.000Z</time>
      </trkpt>
      <trkpt lat="39.83909751288593" lon="-6.12000142224133">
        <ele>540.2000122070312</ele>
        <time>2015-05-03T08:09:50.000Z</time>
      </trkpt>
      <trkpt lat="39.83916951343417" lon="-6.119779301807284">
        <ele>538.7999877929688</ele>
        <time>2015-05-03T08:09:52.000Z</time>
      </trkpt>
      <trkpt lat="39.8392145242542" lon="-6.1196808982640505">
        <ele>537.5999755859375</ele>
        <time>2015-05-03T08:09:53.000Z</time>
      </trkpt>
      <trkpt lat="39.83925702050328" lon="-6.119578387588263">
        <ele>536.5999755859375</ele>
        <time>2015-05-03T08:09:54.000Z</time>
      </trkpt>
      <trkpt lat="39.83929700218141" lon="-6.119473529979587">
        <ele>535.5999755859375</ele>
        <time>2015-05-03T08:09:55.000Z</time>
      </trkpt>
      <trkpt lat="39.839356848970056" lon="-6.119246045127511">
        <ele>534.2000122070312</ele>
        <time>2015-05-03T08:09:57.000Z</time>
      </trkpt>
      <trkpt lat="39.83940261416137" lon="-6.119014453142881">
        <ele>532.5999755859375</ele>
        <time>2015-05-03T08:09:59.000Z</time>
      </trkpt>
      <trkpt lat="39.83941317535937" lon="-6.118893753737211">
        <ele>531.7999877929688</ele>
        <time>2015-05-03T08:10:00.000Z</time>
      </trkpt>
      <trkpt lat="39.83942901715636" lon="-6.118774563074112">
        <ele>531.5999755859375</ele>
        <time>2015-05-03T08:10:01.000Z</time>
      </trkpt>
      <trkpt lat="39.83946204185486" lon="-6.118545234203339">
        <ele>530.7999877929688</ele>
        <time>2015-05-03T08:10:03.000Z</time>
      </trkpt>
      <trkpt lat="39.83947939239442" lon="-6.118435263633728">
        <ele>530.2000122070312</ele>
        <time>2015-05-03T08:10:04.000Z</time>
      </trkpt>
      <trkpt lat="39.839528761804104" lon="-6.117983730509877">
        <ele>528.7999877929688</ele>
        <time>2015-05-03T08:10:08.000Z</time>
      </trkpt>
      <trkpt lat="39.839550303295255" lon="-6.117741661146283">
        <ele>528.2000122070312</ele>
        <time>2015-05-03T08:10:10.000Z</time>
      </trkpt>
      <trkpt lat="39.8395617865026" lon="-6.117617106065154">
        <ele>527.5999755859375</ele>
        <time>2015-05-03T08:10:11.000Z</time>
      </trkpt>
      <trkpt lat="39.839593386277556" lon="-6.117250565439463">
        <ele>526.7999877929688</ele>
        <time>2015-05-03T08:10:14.000Z</time>
      </trkpt>
      <trkpt lat="39.83960076235235" lon="-6.117128441110253">
        <ele>526.0</ele>
        <time>2015-05-03T08:10:15.000Z</time>
      </trkpt>
      <trkpt lat="39.83961467631161" lon="-6.116864662617445">
        <ele>524.7999877929688</ele>
        <time>2015-05-03T08:10:17.000Z</time>
      </trkpt>
      <trkpt lat="39.839608473703265" lon="-6.116608176380396">
        <ele>523.5999755859375</ele>
        <time>2015-05-03T08:10:19.000Z</time>
      </trkpt>
      <trkpt lat="39.83959699049592" lon="-6.116346241906285">
        <ele>522.2000122070312</ele>
        <time>2015-05-03T08:10:21.000Z</time>
      </trkpt>
      <trkpt lat="39.83958684839308" lon="-6.116216238588095">
        <ele>521.0</ele>
        <time>2015-05-03T08:10:22.000Z</time>
      </trkpt>
      <trkpt lat="39.83957846648991" lon="-6.116079026833177">
        <ele>519.7999877929688</ele>
        <time>2015-05-03T08:10:23.000Z</time>
      </trkpt>
      <trkpt lat="39.8395739402622" lon="-6.115805022418499">
        <ele>517.7999877929688</ele>
        <time>2015-05-03T08:10:25.000Z</time>
      </trkpt>
      <trkpt lat="39.83957586809993" lon="-6.115664625540376">
        <ele>516.7999877929688</ele>
        <time>2015-05-03T08:10:26.000Z</time>
      </trkpt>
      <trkpt lat="39.83958173543215" lon="-6.115522049367428">
        <ele>515.7999877929688</ele>
        <time>2015-05-03T08:10:27.000Z</time>
      </trkpt>
      <trkpt lat="39.839593386277556" lon="-6.1153793055564165">
        <ele>514.7999877929688</ele>
        <time>2015-05-03T08:10:28.000Z</time>
      </trkpt>
      <trkpt lat="39.8396482039243" lon="-6.115117873996496">
        <ele>513.7999877929688</ele>
        <time>2015-05-03T08:10:30.000Z</time>
      </trkpt>
      <trkpt lat="39.83968508429825" lon="-6.114991558715701">
        <ele>513.2000122070312</ele>
        <time>2015-05-03T08:10:31.000Z</time>
      </trkpt>
      <trkpt lat="39.839747697114944" lon="-6.114736329764128">
        <ele>512.4000244140625</ele>
        <time>2015-05-03T08:10:33.000Z</time>
      </trkpt>
      <trkpt lat="39.83980670571327" lon="-6.114473221823573">
        <ele>511.3999938964844</ele>
        <time>2015-05-03T08:10:35.000Z</time>
      </trkpt>
      <trkpt lat="39.839856242761016" lon="-6.114198211580515">
        <ele>510.3999938964844</ele>
        <time>2015-05-03T08:10:37.000Z</time>
      </trkpt>
      <trkpt lat="39.83987493440509" lon="-6.11406116746366">
        <ele>510.0</ele>
        <time>2015-05-03T08:10:38.000Z</time>
      </trkpt>
      <trkpt lat="39.83990871347487" lon="-6.1137880850583315">
        <ele>509.79998779296875</ele>
        <time>2015-05-03T08:10:40.000Z</time>
      </trkpt>
      <trkpt lat="39.83992329798639" lon="-6.11364777199924">
        <ele>509.6000061035156</ele>
        <time>2015-05-03T08:10:41.000Z</time>
      </trkpt>
      <trkpt lat="39.83994618058205" lon="-6.113504441455007">
        <ele>508.6000061035156</ele>
        <time>2015-05-03T08:10:42.000Z</time>
      </trkpt>
      <trkpt lat="39.83998892828822" lon="-6.113070342689753">
        <ele>507.0</ele>
        <time>2015-05-03T08:10:45.000Z</time>
      </trkpt>
      <trkpt lat="39.8399986512959" lon="-6.112921312451363">
        <ele>506.3999938964844</ele>
        <time>2015-05-03T08:10:46.000Z</time>
      </trkpt>
      <trkpt lat="39.84000929631293" lon="-6.112765744328499">
        <ele>505.3999938964844</ele>
        <time>2015-05-03T08:10:47.000Z</time>
      </trkpt>
      <trkpt lat="39.840010553598404" lon="-6.112447818741202">
        <ele>503.6000061035156</ele>
        <time>2015-05-03T08:10:49.000Z</time>
      </trkpt>
      <trkpt lat="39.84002597630024" lon="-6.1121441423892975">
        <ele>502.0</ele>
        <time>2015-05-03T08:10:51.000Z</time>
      </trkpt>
      <trkpt lat="39.840048691257834" lon="-6.112000308930874">
        <ele>501.0</ele>
        <time>2015-05-03T08:10:52.000Z</time>
      </trkpt>
      <trkpt lat="39.84009529463947" lon="-6.1117147374898195">
        <ele>499.3999938964844</ele>
        <time>2015-05-03T08:10:54.000Z</time>
      </trkpt>
      <trkpt lat="39.84011541120708" lon="-6.1115695629268885">
        <ele>499.0</ele>
        <time>2015-05-03T08:10:55.000Z</time>
      </trkpt>
      <trkpt lat="39.84012362547219" lon="-6.111411228775978">
        <ele>498.20001220703125</ele>
        <time>2015-05-03T08:10:56.000Z</time>
      </trkpt>
      <trkpt lat="39.84013024717569" lon="-6.111099421977997">
        <ele>497.0</ele>
        <time>2015-05-03T08:10:58.000Z</time>
      </trkpt>
      <trkpt lat="39.840128319337964" lon="-6.110948547720909">
        <ele>496.0</ele>
        <time>2015-05-03T08:10:59.000Z</time>
      </trkpt>
      <trkpt lat="39.84012429602444" lon="-6.110797673463821">
        <ele>495.6000061035156</ele>
        <time>2015-05-03T08:11:00.000Z</time>
      </trkpt>
      <trkpt lat="39.840107783675194" lon="-6.1101143807172775">
        <ele>496.20001220703125</ele>
        <time>2015-05-03T08:11:05.000Z</time>
      </trkpt>
      <trkpt lat="39.84011348336935" lon="-6.1097312439233065">
        <ele>496.79998779296875</ele>
        <time>2015-05-03T08:11:08.000Z</time>
      </trkpt>
      <trkpt lat="39.840111806988716" lon="-6.109609371051192">
        <ele>496.3999938964844</ele>
        <time>2015-05-03T08:11:09.000Z</time>
      </trkpt>
      <trkpt lat="39.84010987915099" lon="-6.109118862077594">
        <ele>495.6000061035156</ele>
        <time>2015-05-03T08:11:13.000Z</time>
      </trkpt>
      <trkpt lat="39.84009873121977" lon="-6.108995312824845">
        <ele>495.6000061035156</ele>
        <time>2015-05-03T08:11:14.000Z</time>
      </trkpt>
      <trkpt lat="39.840091187506914" lon="-6.108876038342714">
        <ele>495.3999938964844</ele>
        <time>2015-05-03T08:11:15.000Z</time>
      </trkpt>
      <trkpt lat="39.84001273289323" lon="-6.108292657881975">
        <ele>496.0</ele>
        <time>2015-05-03T08:11:20.000Z</time>
      </trkpt>
      <trkpt lat="39.839956322684884" lon="-6.107493359595537">
        <ele>494.20001220703125</ele>
        <time>2015-05-03T08:11:27.000Z</time>
      </trkpt>
      <trkpt lat="39.83992883004248" lon="-6.107221618294716">
        <ele>492.20001220703125</ele>
        <time>2015-05-03T08:11:29.000Z</time>
      </trkpt>
      <trkpt lat="39.839907037094235" lon="-6.107084322720766">
        <ele>491.20001220703125</ele>
        <time>2015-05-03T08:11:30.000Z</time>
      </trkpt>
      <trkpt lat="39.83988423831761" lon="-6.106949290260673">
        <ele>490.6000061035156</ele>
        <time>2015-05-03T08:11:31.000Z</time>
      </trkpt>
      <trkpt lat="39.839858086779714" lon="-6.106820711866021">
        <ele>489.79998779296875</ele>
        <time>2015-05-03T08:11:32.000Z</time>
      </trkpt>
      <trkpt lat="39.839845011010766" lon="-6.106689618900418">
        <ele>488.0</ele>
        <time>2015-05-03T08:11:33.000Z</time>
      </trkpt>
      <trkpt lat="39.839837634935975" lon="-6.106554251164198">
        <ele>486.6000061035156</ele>
        <time>2015-05-03T08:11:34.000Z</time>
      </trkpt>
      <trkpt lat="39.83983000740409" lon="-6.1064136028289795">
        <ele>485.3999938964844</ele>
        <time>2015-05-03T08:11:35.000Z</time>
      </trkpt>
      <trkpt lat="39.83980762772262" lon="-6.106166923418641">
        <ele>483.6000061035156</ele>
        <time>2015-05-03T08:11:37.000Z</time>
      </trkpt>
      <trkpt lat="39.839752055704594" lon="-6.105928625911474">
        <ele>482.0</ele>
        <time>2015-05-03T08:11:39.000Z</time>
      </trkpt>
      <trkpt lat="39.83962381258607" lon="-6.105651184916496">
        <ele>481.3999938964844</ele>
        <time>2015-05-03T08:11:42.000Z</time>
      </trkpt>
      <trkpt lat="39.83942943625152" lon="-6.105197221040726">
        <ele>480.79998779296875</ele>
        <time>2015-05-03T08:11:47.000Z</time>
      </trkpt>
      <trkpt lat="39.8393855150789" lon="-6.105110049247742">
        <ele>480.6000061035156</ele>
        <time>2015-05-03T08:11:48.000Z</time>
      </trkpt>
      <trkpt lat="39.83927780762315" lon="-6.104946183040738">
        <ele>479.6000061035156</ele>
        <time>2015-05-03T08:11:50.000Z</time>
      </trkpt>
      <trkpt lat="39.83920706436038" lon="-6.1048097256571054">
        <ele>479.79998779296875</ele>
        <time>2015-05-03T08:11:52.000Z</time>
      </trkpt>
      <trkpt lat="39.83919474296272" lon="-6.104671759530902">
        <ele>478.6000061035156</ele>
        <time>2015-05-03T08:11:54.000Z</time>
      </trkpt>
      <trkpt lat="39.83916264027357" lon="-6.104566650465131">
        <ele>477.20001220703125</ele>
        <time>2015-05-03T08:11:55.000Z</time>
      </trkpt>
      <trkpt lat="39.839131124317646" lon="-6.104465313255787">
        <ele>475.6000061035156</ele>
        <time>2015-05-03T08:11:56.000Z</time>
      </trkpt>
      <trkpt lat="39.83908695168793" lon="-6.104358024895191">
        <ele>474.20001220703125</ele>
        <time>2015-05-03T08:11:57.000Z</time>
      </trkpt>
      <trkpt lat="39.83904001303017" lon="-6.104252245277166">
        <ele>472.20001220703125</ele>
        <time>2015-05-03T08:11:58.000Z</time>
      </trkpt>
      <trkpt lat="39.83895493671298" lon="-6.104042362421751">
        <ele>469.79998779296875</ele>
        <time>2015-05-03T08:12:00.000Z</time>
      </trkpt>
      <trkpt lat="39.838918559253216" lon="-6.103939516469836">
        <ele>468.6000061035156</ele>
        <time>2015-05-03T08:12:01.000Z</time>
      </trkpt>
      <trkpt lat="39.83888855203986" lon="-6.1038546077907085">
        <ele>467.3999938964844</ele>
        <time>2015-05-03T08:12:02.000Z</time>
      </trkpt>
      <trkpt lat="39.8388553597033" lon="-6.103789648041129">
        <ele>466.3999938964844</ele>
        <time>2015-05-03T08:12:03.000Z</time>
      </trkpt>
      <trkpt lat="39.83883566223085" lon="-6.103714294731617">
        <ele>465.79998779296875</ele>
        <time>2015-05-03T08:12:04.000Z</time>
      </trkpt>
      <trkpt lat="39.83877941966057" lon="-6.1035845428705215">
        <ele>464.0</ele>
        <time>2015-05-03T08:12:06.000Z</time>
      </trkpt>
      <trkpt lat="39.83874916099012" lon="-6.103513548150659">
        <ele>462.79998779296875</ele>
        <time>2015-05-03T08:12:07.000Z</time>
      </trkpt>
      <trkpt lat="39.83872326090932" lon="-6.103452108800411">
        <ele>462.0</ele>
        <time>2015-05-03T08:12:08.000Z</time>
      </trkpt>
      <trkpt lat="39.83870674856007" lon="-6.103379102423787">
        <ele>461.0</ele>
        <time>2015-05-03T08:12:09.000Z</time>
      </trkpt>
      <trkpt lat="39.838655199855566" lon="-6.1032741609960794">
        <ele>459.6000061035156</ele>
        <time>2015-05-03T08:12:11.000Z</time>
      </trkpt>
      <trkpt lat="39.83863474801183" lon="-6.1032175831496716">
        <ele>459.0</ele>
        <time>2015-05-03T08:12:12.000Z</time>
      </trkpt>
      <trkpt lat="39.8386016394943" lon="-6.103152707219124">
        <ele>458.3999938964844</ele>
        <time>2015-05-03T08:12:13.000Z</time>
      </trkpt>
      <trkpt lat="39.83854841440916" lon="-6.102995295077562">
        <ele>456.3999938964844</ele>
        <time>2015-05-03T08:12:15.000Z</time>
      </trkpt>
      <trkpt lat="39.83851564116776" lon="-6.102909632027149">
        <ele>455.79998779296875</ele>
        <time>2015-05-03T08:12:16.000Z</time>
      </trkpt>
      <trkpt lat="39.838482197374105" lon="-6.102825058624148">
        <ele>455.20001220703125</ele>
        <time>2015-05-03T08:12:17.000Z</time>
      </trkpt>
      <trkpt lat="39.83841338194907" lon="-6.102627329528332">
        <ele>453.79998779296875</ele>
        <time>2015-05-03T08:12:19.000Z</time>
      </trkpt>
      <trkpt lat="39.83836753293872" lon="-6.102530770003796">
        <ele>452.3999938964844</ele>
        <time>2015-05-03T08:12:20.000Z</time>
      </trkpt>
      <trkpt lat="39.83831388875842" lon="-6.102454578503966">
        <ele>451.6000061035156</ele>
        <time>2015-05-03T08:12:21.000Z</time>
      </trkpt>
      <trkpt lat="39.83827876858413" lon="-6.1023894511163235">
        <ele>451.20001220703125</ele>
        <time>2015-05-03T08:12:22.000Z</time>
      </trkpt>
      <trkpt lat="39.838278852403164" lon="-6.102337818592787">
        <ele>451.79998779296875</ele>
        <time>2015-05-03T08:12:23.000Z</time>
      </trkpt>
      <trkpt lat="39.83830349519849" lon="-6.102291131392121">
        <ele>451.3999938964844</ele>
        <time>2015-05-03T08:12:24.000Z</time>
      </trkpt>
      <trkpt lat="39.83835211023688" lon="-6.102349637076259">
        <ele>449.79998779296875</ele>
        <time>2015-05-03T08:12:26.000Z</time>
      </trkpt>
      <trkpt lat="39.83842863701284" lon="-6.1024863459169865">
        <ele>449.0</ele>
        <time>2015-05-03T08:12:28.000Z</time>
      </trkpt>
      <trkpt lat="39.838480269536376" lon="-6.102566057816148">
        <ele>448.3999938964844</ele>
        <time>2015-05-03T08:12:29.000Z</time>
      </trkpt>
      <trkpt lat="39.838594598695636" lon="-6.102735120803118">
        <ele>447.79998779296875</ele>
        <time>2015-05-03T08:12:31.000Z</time>
      </trkpt>
      <trkpt lat="39.83872041106224" lon="-6.102911476045847">
        <ele>447.0</ele>
        <time>2015-05-03T08:12:33.000Z</time>
      </trkpt>
      <trkpt lat="39.83878335915506" lon="-6.103000994771719">
        <ele>446.79998779296875</ele>
        <time>2015-05-03T08:12:34.000Z</time>
      </trkpt>
      <trkpt lat="39.83892015181482" lon="-6.1031728237867355">
        <ele>446.3999938964844</ele>
        <time>2015-05-03T08:12:36.000Z</time>
      </trkpt>
      <trkpt lat="39.83905216678977" lon="-6.1033568903803825">
        <ele>445.79998779296875</ele>
        <time>2015-05-03T08:12:38.000Z</time>
      </trkpt>
      <trkpt lat="39.83912047930062" lon="-6.103442804887891">
        <ele>445.79998779296875</ele>
        <time>2015-05-03T08:12:39.000Z</time>
      </trkpt>
      <trkpt lat="39.83926238492131" lon="-6.103600719943643">
        <ele>444.79998779296875</ele>
        <time>2015-05-03T08:12:41.000Z</time>
      </trkpt>
      <trkpt lat="39.839503951370716" lon="-6.103809010237455">
        <ele>443.6000061035156</ele>
        <time>2015-05-03T08:12:44.000Z</time>
      </trkpt>
      <trkpt lat="39.839732525870204" lon="-6.104038003832102">
        <ele>442.3999938964844</ele>
        <time>2015-05-03T08:12:47.000Z</time>
      </trkpt>
      <trkpt lat="39.83988616615534" lon="-6.104189213365316">
        <ele>441.0</ele>
        <time>2015-05-03T08:12:49.000Z</time>
      </trkpt>
      <trkpt lat="39.84003880061209" lon="-6.10432961024344">
        <ele>439.79998779296875</ele>
        <time>2015-05-03T08:12:51.000Z</time>
      </trkpt>
      <trkpt lat="39.840106358751655" lon="-6.1044130101799965">
        <ele>439.20001220703125</ele>
        <time>2015-05-03T08:12:52.000Z</time>
      </trkpt>
      <trkpt lat="39.840167881920934" lon="-6.10450454056263">
        <ele>438.6000061035156</ele>
        <time>2015-05-03T08:12:53.000Z</time>
      </trkpt>
      <trkpt lat="39.84023619443178" lon="-6.104586096480489">
        <ele>438.20001220703125</ele>
        <time>2015-05-03T08:12:54.000Z</time>
      </trkpt>
      <trkpt lat="39.84030450694263" lon="-6.104676034301519">
        <ele>437.3999938964844</ele>
        <time>2015-05-03T08:12:55.000Z</time>
      </trkpt>
      <trkpt lat="39.84036477282643" lon="-6.104778880253434">
        <ele>436.6000061035156</ele>
        <time>2015-05-03T08:12:56.000Z</time>
      </trkpt>
      <trkpt lat="39.84041070565581" lon="-6.104901842772961">
        <ele>435.79998779296875</ele>
        <time>2015-05-03T08:12:57.000Z</time>
      </trkpt>
      <trkpt lat="39.84044331125915" lon="-6.105007790029049">
        <ele>435.6000061035156</ele>
        <time>2015-05-03T08:12:58.000Z</time>
      </trkpt>
      <trkpt lat="39.840573566034436" lon="-6.105266371741891">
        <ele>436.3999938964844</ele>
        <time>2015-05-03T08:13:01.000Z</time>
      </trkpt>
      <trkpt lat="39.840624779462814" lon="-6.10535035841167">
        <ele>436.0</ele>
        <time>2015-05-03T08:13:02.000Z</time>
      </trkpt>
      <trkpt lat="39.840682530775666" lon="-6.105412971228361">
        <ele>435.20001220703125</ele>
        <time>2015-05-03T08:13:03.000Z</time>
      </trkpt>
      <trkpt lat="39.84074765816331" lon="-6.105489246547222">
        <ele>434.0</ele>
        <time>2015-05-03T08:13:04.000Z</time>
      </trkpt>
      <trkpt lat="39.84080574475229" lon="-6.105576418340206">
        <ele>433.0</ele>
        <time>2015-05-03T08:13:05.000Z</time>
      </trkpt>
      <trkpt lat="39.84083860181272" lon="-6.105680940672755">
        <ele>431.79998779296875</ele>
        <time>2015-05-03T08:13:06.000Z</time>
      </trkpt>
      <trkpt lat="39.84084539115429" lon="-6.105784038081765">
        <ele>430.79998779296875</ele>
        <time>2015-05-03T08:13:07.000Z</time>
      </trkpt>
      <trkpt lat="39.840859388932586" lon="-6.105948155745864">
        <ele>431.0</ele>
        <time>2015-05-03T08:13:09.000Z</time>
      </trkpt>
      <trkpt lat="39.84086299315095" lon="-6.106014708057046">
        <ele>432.20001220703125</ele>
        <time>2015-05-03T08:13:10.000Z</time>
      </trkpt>
      <trkpt lat="39.84086508862674" lon="-6.1060799192637205">
        <ele>433.0</ele>
        <time>2015-05-03T08:13:11.000Z</time>
      </trkpt>
      <trkpt lat="39.84086508862674" lon="-6.106145633384585">
        <ele>433.6000061035156</ele>
        <time>2015-05-03T08:13:12.000Z</time>
      </trkpt>
      <trkpt lat="39.840887719765306" lon="-6.106209084391594">
        <ele>434.0</ele>
        <time>2015-05-03T08:13:13.000Z</time>
      </trkpt>
      <trkpt lat="39.84093767590821" lon="-6.1063511576503515">
        <ele>432.6000061035156</ele>
        <time>2015-05-03T08:13:15.000Z</time>
      </trkpt>
      <trkpt lat="39.84096525236964" lon="-6.106428522616625">
        <ele>432.6000061035156</ele>
        <time>2015-05-03T08:13:16.000Z</time>
      </trkpt>
      <trkpt lat="39.84108092263341" lon="-6.106664389371872">
        <ele>432.0</ele>
        <time>2015-05-03T08:13:19.000Z</time>
      </trkpt>
      <trkpt lat="39.841138841584325" lon="-6.106728678569198">
        <ele>431.79998779296875</ele>
        <time>2015-05-03T08:13:20.000Z</time>
      </trkpt>
      <trkpt lat="39.84119474887848" lon="-6.10679866746068">
        <ele>431.6000061035156</ele>
        <time>2015-05-03T08:13:21.000Z</time>
      </trkpt>
      <trkpt lat="39.84137563034892" lon="-6.106990277767181">
        <ele>430.6000061035156</ele>
        <time>2015-05-03T08:13:24.000Z</time>
      </trkpt>
      <trkpt lat="39.84144603833556" lon="-6.107042916119099">
        <ele>430.3999938964844</ele>
        <time>2015-05-03T08:13:25.000Z</time>
      </trkpt>
      <trkpt lat="39.8415875248611" lon="-6.107261348515749">
        <ele>430.3999938964844</ele>
        <time>2015-05-03T08:13:28.000Z</time>
      </trkpt>
      <trkpt lat="39.84162105247378" lon="-6.107410378754139">
        <ele>430.79998779296875</ele>
        <time>2015-05-03T08:13:30.000Z</time>
      </trkpt>
      <trkpt lat="39.8416649736464" lon="-6.10755848698318">
        <ele>430.20001220703125</ele>
        <time>2015-05-03T08:13:32.000Z</time>
      </trkpt>
      <trkpt lat="39.841687688604" lon="-6.107640881091356">
        <ele>429.20001220703125</ele>
        <time>2015-05-03T08:13:33.000Z</time>
      </trkpt>
      <trkpt lat="39.84170445241034" lon="-6.1077954433858395">
        <ele>427.6000061035156</ele>
        <time>2015-05-03T08:13:35.000Z</time>
      </trkpt>
      <trkpt lat="39.841714007779956" lon="-6.10787607729435">
        <ele>427.6000061035156</ele>
        <time>2015-05-03T08:13:36.000Z</time>
      </trkpt>
      <trkpt lat="39.84174259006977" lon="-6.108131809160113">
        <ele>426.79998779296875</ele>
        <time>2015-05-03T08:13:39.000Z</time>
      </trkpt>
      <trkpt lat="39.84174845740199" lon="-6.108214370906353">
        <ele>426.20001220703125</ele>
        <time>2015-05-03T08:13:40.000Z</time>
      </trkpt>
      <trkpt lat="39.84175960533321" lon="-6.108291735872626">
        <ele>425.79998779296875</ele>
        <time>2015-05-03T08:13:41.000Z</time>
      </trkpt>
      <trkpt lat="39.84177536331117" lon="-6.108359545469284">
        <ele>425.3999938964844</ele>
        <time>2015-05-03T08:13:42.000Z</time>
      </trkpt>
      <trkpt lat="39.84180084429681" lon="-6.108409333974123">
        <ele>425.0</ele>
        <time>2015-05-03T08:13:43.000Z</time>
      </trkpt>
      <trkpt lat="39.84183428809047" lon="-6.108466414734721">
        <ele>424.20001220703125</ele>
        <time>2015-05-03T08:13:44.000Z</time>
      </trkpt>
      <trkpt lat="39.84188181348145" lon="-6.108534727245569">
        <ele>423.20001220703125</ele>
        <time>2015-05-03T08:13:45.000Z</time>
      </trkpt>
      <trkpt lat="39.841925567016006" lon="-6.108627011999488">
        <ele>421.79998779296875</ele>
        <time>2015-05-03T08:13:46.000Z</time>
      </trkpt>
      <trkpt lat="39.84196487814188" lon="-6.108725666999817">
        <ele>420.20001220703125</ele>
        <time>2015-05-03T08:13:47.000Z</time>
      </trkpt>
      <trkpt lat="39.84199362806976" lon="-6.1088241543620825">
        <ele>419.20001220703125</ele>
        <time>2015-05-03T08:13:48.000Z</time>
      </trkpt>
      <trkpt lat="39.84201994724572" lon="-6.109012747183442">
        <ele>419.0</ele>
        <time>2015-05-03T08:13:50.000Z</time>
      </trkpt>
      <trkpt lat="39.842066802084446" lon="-6.109174266457558">
        <ele>418.6000061035156</ele>
        <time>2015-05-03T08:13:52.000Z</time>
      </trkpt>
      <trkpt lat="39.84209395945072" lon="-6.1092364601790905">
        <ele>417.79998779296875</ele>
        <time>2015-05-03T08:13:53.000Z</time>
      </trkpt>
      <trkpt lat="39.84211038798094" lon="-6.1092877574265">
        <ele>416.79998779296875</ele>
        <time>2015-05-03T08:13:54.000Z</time>
      </trkpt>
      <trkpt lat="39.84211105853319" lon="-6.109338719397783">
        <ele>415.79998779296875</ele>
        <time>2015-05-03T08:13:55.000Z</time>
      </trkpt>
      <trkpt lat="39.84209764748812" lon="-6.1093975603580475">
        <ele>415.3999938964844</ele>
        <time>2015-05-03T08:13:56.000Z</time>
      </trkpt>
      <trkpt lat="39.84209739603102" lon="-6.109438296407461">
        <ele>415.3999938964844</ele>
        <time>2015-05-03T08:13:57.000Z</time>
      </trkpt>
      <trkpt lat="39.84208499081433" lon="-6.109532089903951">
        <ele>415.79998779296875</ele>
        <time>2015-05-03T08:13:59.000Z</time>
      </trkpt>
      <trkpt lat="39.84207174740732" lon="-6.109647927805781">
        <ele>416.6000061035156</ele>
        <time>2015-05-03T08:14:02.000Z</time>
      </trkpt>
      <trkpt lat="39.842073172330856" lon="-6.10982570797205">
        <ele>417.3999938964844</ele>
        <time>2015-05-03T08:14:06.000Z</time>
      </trkpt>
      <trkpt lat="39.84207635745406" lon="-6.109878346323967">
        <ele>417.3999938964844</ele>
        <time>2015-05-03T08:14:07.000Z</time>
      </trkpt>
      <trkpt lat="39.842064790427685" lon="-6.110023185610771">
        <ele>417.6000061035156</ele>
        <time>2015-05-03T08:14:10.000Z</time>
      </trkpt>
      <trkpt lat="39.84204651787877" lon="-6.110062999650836">
        <ele>417.79998779296875</ele>
        <time>2015-05-03T08:14:11.000Z</time>
      </trkpt>
      <trkpt lat="39.84203428030014" lon="-6.110082026571035">
        <ele>418.3999938964844</ele>
        <time>2015-05-03T08:14:12.000Z</time>
      </trkpt>
      <trkpt lat="39.84201860614121" lon="-6.110207922756672">
        <ele>419.0</ele>
        <time>2015-05-03T08:14:15.000Z</time>
      </trkpt>
      <trkpt lat="39.8420138284564" lon="-6.1102536879479885">
        <ele>419.0</ele>
        <time>2015-05-03T08:14:16.000Z</time>
      </trkpt>
      <trkpt lat="39.841995891183615" lon="-6.110368436202407">
        <ele>419.79998779296875</ele>
        <time>2015-05-03T08:14:19.000Z</time>
      </trkpt>
      <trkpt lat="39.841996897011995" lon="-6.110411938279867">
        <ele>420.3999938964844</ele>
        <time>2015-05-03T08:14:20.000Z</time>
      </trkpt>
      <trkpt lat="39.84199220314622" lon="-6.110448148101568">
        <ele>420.6000061035156</ele>
        <time>2015-05-03T08:14:21.000Z</time>
      </trkpt>
      <trkpt lat="39.84198499470949" lon="-6.1105000320822">
        <ele>421.0</ele>
        <time>2015-05-03T08:14:23.000Z</time>
      </trkpt>
      <trkpt lat="39.84199874103069" lon="-6.110577899962664">
        <ele>421.20001220703125</ele>
        <time>2015-05-03T08:14:25.000Z</time>
      </trkpt>
      <trkpt lat="39.84200636856258" lon="-6.110799768939614">
        <ele>420.79998779296875</ele>
        <time>2015-05-03T08:14:30.000Z</time>
      </trkpt>
      <trkpt lat="39.842005195096135" lon="-6.110840002074838">
        <ele>421.6000061035156</ele>
        <time>2015-05-03T08:14:31.000Z</time>
      </trkpt>
      <trkpt lat="39.841995472088456" lon="-6.111031277105212">
        <ele>422.3999938964844</ele>
        <time>2015-05-03T08:14:36.000Z</time>
      </trkpt>
      <trkpt lat="39.84198499470949" lon="-6.11106832511723">
        <ele>422.79998779296875</ele>
        <time>2015-05-03T08:14:37.000Z</time>
      </trkpt>
      <trkpt lat="39.84197569079697" lon="-6.111209057271481">
        <ele>424.0</ele>
        <time>2015-05-03T08:14:41.000Z</time>
      </trkpt>
      <trkpt lat="39.84195373021066" lon="-6.111293379217386">
        <ele>425.20001220703125</ele>
        <time>2015-05-03T08:14:44.000Z</time>
      </trkpt>
      <trkpt lat="39.841937720775604" lon="-6.111382562667131">
        <ele>426.20001220703125</ele>
        <time>2015-05-03T08:14:47.000Z</time>
      </trkpt>
      <trkpt lat="39.84191559255123" lon="-6.11145825125277">
        <ele>427.3999938964844</ele>
        <time>2015-05-03T08:14:50.000Z</time>
      </trkpt>
      <trkpt lat="39.84189614653587" lon="-6.111503848806024">
        <ele>428.20001220703125</ele>
        <time>2015-05-03T08:14:52.000Z</time>
      </trkpt>
      <trkpt lat="39.84188818372786" lon="-6.1115180142223835">
        <ele>428.6000061035156</ele>
        <time>2015-05-03T08:14:53.000Z</time>
      </trkpt>
      <trkpt lat="39.84183898195624" lon="-6.111593283712864">
        <ele>430.0</ele>
        <time>2015-05-03T08:14:57.000Z</time>
      </trkpt>
      <trkpt lat="39.84183236025274" lon="-6.1116131488233805">
        <ele>430.3999938964844</ele>
        <time>2015-05-03T08:14:58.000Z</time>
      </trkpt>
      <trkpt lat="39.841810232028365" lon="-6.111652459949255">
        <ele>431.0</ele>
        <time>2015-05-03T08:15:00.000Z</time>
      </trkpt>
      <trkpt lat="39.84177486039698" lon="-6.1117518693208694">
        <ele>431.79998779296875</ele>
        <time>2015-05-03T08:15:04.000Z</time>
      </trkpt>
      <trkpt lat="39.841761365532875" lon="-6.111862426623702">
        <ele>432.20001220703125</ele>
        <time>2015-05-03T08:15:08.000Z</time>
      </trkpt>
      <trkpt lat="39.84176253899932" lon="-6.111883884295821">
        <ele>432.3999938964844</ele>
        <time>2015-05-03T08:15:09.000Z</time>
      </trkpt>
      <trkpt lat="39.84178164973855" lon="-6.112034088000655">
        <ele>433.20001220703125</ele>
        <time>2015-05-03T08:15:14.000Z</time>
      </trkpt>
      <trkpt lat="39.84176153317094" lon="-6.112187057733536">
        <ele>433.6000061035156</ele>
        <time>2015-05-03T08:15:18.000Z</time>
      </trkpt>
      <trkpt lat="39.84175834804773" lon="-6.112223016098142">
        <ele>434.0</ele>
        <time>2015-05-03T08:15:19.000Z</time>
      </trkpt>
      <trkpt lat="39.84175273217261" lon="-6.112327286973596">
        <ele>434.6000061035156</ele>
        <time>2015-05-03T08:15:22.000Z</time>
      </trkpt>
      <trkpt lat="39.84173244796693" lon="-6.112420074641705">
        <ele>435.20001220703125</ele>
        <time>2015-05-03T08:15:25.000Z</time>
      </trkpt>
      <trkpt lat="39.84173144213855" lon="-6.112476568669081">
        <ele>435.79998779296875</ele>
        <time>2015-05-03T08:15:27.000Z</time>
      </trkpt>
      <trkpt lat="39.841716857627034" lon="-6.1125463899225">
        <ele>436.79998779296875</ele>
        <time>2015-05-03T08:15:30.000Z</time>
      </trkpt>
      <trkpt lat="39.84171459451318" lon="-6.112572960555553">
        <ele>437.0</ele>
        <time>2015-05-03T08:15:31.000Z</time>
      </trkpt>
      <trkpt lat="39.841703278943896" lon="-6.112650576978922">
        <ele>438.20001220703125</ele>
        <time>2015-05-03T08:15:34.000Z</time>
      </trkpt>
      <trkpt lat="39.84169070608914" lon="-6.112754177302122">
        <ele>439.20001220703125</ele>
        <time>2015-05-03T08:15:38.000Z</time>
      </trkpt>
      <trkpt lat="39.84168961644173" lon="-6.112776305526495">
        <ele>439.20001220703125</ele>
        <time>2015-05-03T08:15:39.000Z</time>
      </trkpt>
      <trkpt lat="39.84169414266944" lon="-6.112826261669397">
        <ele>439.6000061035156</ele>
        <time>2015-05-03T08:15:41.000Z</time>
      </trkpt>
      <trkpt lat="39.84171132557094" lon="-6.112861800938845">
        <ele>440.3999938964844</ele>
        <time>2015-05-03T08:15:43.000Z</time>
      </trkpt>
      <trkpt lat="39.84172138385475" lon="-6.112968921661377">
        <ele>441.6000061035156</ele>
        <time>2015-05-03T08:15:47.000Z</time>
      </trkpt>
      <trkpt lat="39.841733537614346" lon="-6.112990044057369">
        <ele>442.0</ele>
        <time>2015-05-03T08:15:48.000Z</time>
      </trkpt>
      <trkpt lat="39.84175868332386" lon="-6.113153155893087">
        <ele>442.6000061035156</ele>
        <time>2015-05-03T08:15:53.000Z</time>
      </trkpt>
      <trkpt lat="39.84175910241902" lon="-6.1132921278476715">
        <ele>444.0</ele>
        <time>2015-05-03T08:15:57.000Z</time>
      </trkpt>
      <trkpt lat="39.84176840633154" lon="-6.113329594954848">
        <ele>444.20001220703125</ele>
        <time>2015-05-03T08:15:58.000Z</time>
      </trkpt>
      <trkpt lat="39.84181207604706" lon="-6.113498406484723">
        <ele>444.20001220703125</ele>
        <time>2015-05-03T08:16:02.000Z</time>
      </trkpt>
      <trkpt lat="39.84182230196893" lon="-6.113693369552493">
        <ele>445.3999938964844</ele>
        <time>2015-05-03T08:16:08.000Z</time>
      </trkpt>
      <trkpt lat="39.84181551262736" lon="-6.113771824166179">
        <ele>446.6000061035156</ele>
        <time>2015-05-03T08:16:11.000Z</time>
      </trkpt>
      <trkpt lat="39.84182263724506" lon="-6.113828988745809">
        <ele>447.3999938964844</ele>
        <time>2015-05-03T08:16:13.000Z</time>
      </trkpt>
      <trkpt lat="39.8419086355716" lon="-6.114048259332776">
        <ele>446.0</ele>
        <time>2015-05-03T08:16:18.000Z</time>
      </trkpt>
      <trkpt lat="39.84191953204572" lon="-6.11411196179688">
        <ele>445.3999938964844</ele>
        <time>2015-05-03T08:16:19.000Z</time>
      </trkpt>
      <trkpt lat="39.84199555590749" lon="-6.114319749176502">
        <ele>445.6000061035156</ele>
        <time>2015-05-03T08:16:23.000Z</time>
      </trkpt>
      <trkpt lat="39.841990107670426" lon="-6.114442963153124">
        <ele>446.0</ele>
        <time>2015-05-03T08:16:26.000Z</time>
      </trkpt>
      <trkpt lat="39.84199714846909" lon="-6.114518567919731">
        <ele>446.79998779296875</ele>
        <time>2015-05-03T08:16:28.000Z</time>
      </trkpt>
      <trkpt lat="39.84198164194822" lon="-6.114591406658292">
        <ele>447.0</ele>
        <time>2015-05-03T08:16:30.000Z</time>
      </trkpt>
      <trkpt lat="39.841916682198644" lon="-6.114648235961795">
        <ele>447.3999938964844</ele>
        <time>2015-05-03T08:16:33.000Z</time>
      </trkpt>
      <trkpt lat="39.841894805431366" lon="-6.114659886807203">
        <ele>447.79998779296875</ele>
        <time>2015-05-03T08:16:34.000Z</time>
      </trkpt>
      <trkpt lat="39.84180956147611" lon="-6.1147337313741446">
        <ele>448.79998779296875</ele>
        <time>2015-05-03T08:16:38.000Z</time>
      </trkpt>
      <trkpt lat="39.8417878523469" lon="-6.1147629003971815">
        <ele>449.20001220703125</ele>
        <time>2015-05-03T08:16:39.000Z</time>
      </trkpt>
      <trkpt lat="39.841723730787635" lon="-6.114867590367794">
        <ele>450.20001220703125</ele>
        <time>2015-05-03T08:16:43.000Z</time>
      </trkpt>
      <trkpt lat="39.84170654788613" lon="-6.114911092445254">
        <ele>450.79998779296875</ele>
        <time>2015-05-03T08:16:45.000Z</time>
      </trkpt>
      <trkpt lat="39.84162130393088" lon="-6.1151057202368975">
        <ele>449.79998779296875</ele>
        <time>2015-05-03T08:16:50.000Z</time>
      </trkpt>
      <trkpt lat="39.84161987900734" lon="-6.115180654451251">
        <ele>449.20001220703125</ele>
        <time>2015-05-03T08:16:51.000Z</time>
      </trkpt>
      <trkpt lat="39.84164695255458" lon="-6.115243854001164">
        <ele>448.79998779296875</ele>
        <time>2015-05-03T08:16:52.000Z</time>
      </trkpt>
      <trkpt lat="39.84168441966176" lon="-6.115275453776121">
        <ele>448.6000061035156</ele>
        <time>2015-05-03T08:16:53.000Z</time>
      </trkpt>
      <trkpt lat="39.84180511906743" lon="-6.115345610305667">
        <ele>449.3999938964844</ele>
        <time>2015-05-03T08:16:56.000Z</time>
      </trkpt>
      <trkpt lat="39.84192288480699" lon="-6.115407552570105">
        <ele>449.79998779296875</ele>
        <time>2015-05-03T08:16:59.000Z</time>
      </trkpt>
      <trkpt lat="39.84198876656592" lon="-6.115447618067265">
        <ele>450.6000061035156</ele>
        <time>2015-05-03T08:17:01.000Z</time>
      </trkpt>
      <trkpt lat="39.84201366081834" lon="-6.115474021062255">
        <ele>450.79998779296875</ele>
        <time>2015-05-03T08:17:02.000Z</time>
      </trkpt>
      <trkpt lat="39.842050205916166" lon="-6.115525402128696">
        <ele>452.0</ele>
        <time>2015-05-03T08:17:04.000Z</time>
      </trkpt>
      <trkpt lat="39.84206227585673" lon="-6.115586590021849">
        <ele>452.6000061035156</ele>
        <time>2015-05-03T08:17:06.000Z</time>
      </trkpt>
      <trkpt lat="39.84206495806575" lon="-6.115620704367757">
        <ele>453.0</ele>
        <time>2015-05-03T08:17:07.000Z</time>
      </trkpt>
      <trkpt lat="39.842076189816" lon="-6.115782139822841">
        <ele>454.0</ele>
        <time>2015-05-03T08:17:12.000Z</time>
      </trkpt>
      <trkpt lat="39.84206613153219" lon="-6.115816002711654">
        <ele>454.20001220703125</ele>
        <time>2015-05-03T08:17:13.000Z</time>
      </trkpt>
      <trkpt lat="39.84203461557627" lon="-6.115917591378093">
        <ele>454.3999938964844</ele>
        <time>2015-05-03T08:17:16.000Z</time>
      </trkpt>
      <trkpt lat="39.841950964182615" lon="-6.116096880286932">
        <ele>454.79998779296875</ele>
        <time>2015-05-03T08:17:22.000Z</time>
      </trkpt>
      <trkpt lat="39.841928919777274" lon="-6.116144908592105">
        <ele>455.3999938964844</ele>
        <time>2015-05-03T08:17:24.000Z</time>
      </trkpt>
      <trkpt lat="39.84189287759364" lon="-6.116226129233837">
        <ele>456.0</ele>
        <time>2015-05-03T08:17:27.000Z</time>
      </trkpt>
      <trkpt lat="39.841884998604655" lon="-6.116258651018143">
        <ele>456.6000061035156</ele>
        <time>2015-05-03T08:17:28.000Z</time>
      </trkpt>
      <trkpt lat="39.8418689891696" lon="-6.116372812539339">
        <ele>457.6000061035156</ele>
        <time>2015-05-03T08:17:32.000Z</time>
      </trkpt>
      <trkpt lat="39.84186630696058" lon="-6.116402316838503">
        <ele>458.0</ele>
        <time>2015-05-03T08:17:33.000Z</time>
      </trkpt>
      <trkpt lat="39.84184325672686" lon="-6.116577917709947">
        <ele>459.20001220703125</ele>
        <time>2015-05-03T08:17:39.000Z</time>
      </trkpt>
      <trkpt lat="39.84179564751685" lon="-6.116700209677219">
        <ele>460.20001220703125</ele>
        <time>2015-05-03T08:17:44.000Z</time>
      </trkpt>
      <trkpt lat="39.84178408049047" lon="-6.1167152132838964">
        <ele>460.3999938964844</ele>
        <time>2015-05-03T08:17:45.000Z</time>
      </trkpt>
      <trkpt lat="39.841753570362926" lon="-6.1167835257947445">
        <ele>461.3999938964844</ele>
        <time>2015-05-03T08:17:48.000Z</time>
      </trkpt>
      <trkpt lat="39.841735884547234" lon="-6.116829290986061">
        <ele>461.3999938964844</ele>
        <time>2015-05-03T08:17:50.000Z</time>
      </trkpt>
      <trkpt lat="39.84172448515892" lon="-6.116847982630134">
        <ele>461.3999938964844</ele>
        <time>2015-05-03T08:17:51.000Z</time>
      </trkpt>
      <trkpt lat="39.841698752716184" lon="-6.116905817762017">
        <ele>462.6000061035156</ele>
        <time>2015-05-03T08:17:54.000Z</time>
      </trkpt>
      <trkpt lat="39.841659693047404" lon="-6.116964826360345">
        <ele>463.3999938964844</ele>
        <time>2015-05-03T08:17:57.000Z</time>
      </trkpt>
      <trkpt lat="39.84164879657328" lon="-6.1169779021292925">
        <ele>463.6000061035156</ele>
        <time>2015-05-03T08:17:58.000Z</time>
      </trkpt>
      <trkpt lat="39.84163010492921" lon="-6.117000365629792">
        <ele>464.20001220703125</ele>
        <time>2015-05-03T08:18:00.000Z</time>
      </trkpt>
      <trkpt lat="39.84161979518831" lon="-6.116996426135302">
        <ele>464.6000061035156</ele>
        <time>2015-05-03T08:18:01.000Z</time>
      </trkpt>
      <trkpt lat="39.841602612286806" lon="-6.1169716995209455">
        <ele>464.79998779296875</ele>
        <time>2015-05-03T08:18:02.000Z</time>
      </trkpt>
      <trkpt lat="39.84158123843372" lon="-6.116912858560681">
        <ele>465.6000061035156</ele>
        <time>2015-05-03T08:18:05.000Z</time>
      </trkpt>
      <trkpt lat="39.841579059138894" lon="-6.116890059784055">
        <ele>466.0</ele>
        <time>2015-05-03T08:18:06.000Z</time>
      </trkpt>
      <trkpt lat="39.841572269797325" lon="-6.116873798891902">
        <ele>466.20001220703125</ele>
        <time>2015-05-03T08:18:07.000Z</time>
      </trkpt>
      <trkpt lat="39.84153530560434" lon="-6.116795092821121">
        <ele>467.0</ele>
        <time>2015-05-03T08:18:12.000Z</time>
      </trkpt>
      <trkpt lat="39.84149574302137" lon="-6.116688223555684">
        <ele>468.0</ele>
        <time>2015-05-03T08:18:18.000Z</time>
      </trkpt>
      <trkpt lat="39.841484762728214" lon="-6.116677410900593">
        <ele>468.6000061035156</ele>
        <time>2015-05-03T08:18:19.000Z</time>
      </trkpt>
      <trkpt lat="39.841484259814024" lon="-6.116655617952347">
        <ele>469.0</ele>
        <time>2015-05-03T08:18:20.000Z</time>
      </trkpt>
      <trkpt lat="39.841456431895494" lon="-6.1166018061339855">
        <ele>469.3999938964844</ele>
        <time>2015-05-03T08:18:23.000Z</time>
      </trkpt>
      <trkpt lat="39.84144804999232" lon="-6.116585293784738">
        <ele>469.3999938964844</ele>
        <time>2015-05-03T08:18:24.000Z</time>
      </trkpt>
      <trkpt lat="39.84142298810184" lon="-6.116564506664872">
        <ele>470.0</ele>
        <time>2015-05-03T08:18:26.000Z</time>
      </trkpt>
      <trkpt lat="39.841370014473796" lon="-6.1165008880198">
        <ele>470.79998779296875</ele>
        <time>2015-05-03T08:18:30.000Z</time>
      </trkpt>
      <trkpt lat="39.841349981725216" lon="-6.116480939090252">
        <ele>471.0</ele>
        <time>2015-05-03T08:18:31.000Z</time>
      </trkpt>
      <trkpt lat="39.841294242069125" lon="-6.116410531103611">
        <ele>472.0</ele>
        <time>2015-05-03T08:18:35.000Z</time>
      </trkpt>
      <trkpt lat="39.84127630479634" lon="-6.116399131715298">
        <ele>472.0</ele>
        <time>2015-05-03T08:18:36.000Z</time>
      </trkpt>
      <trkpt lat="39.841219475492835" lon="-6.116354623809457">
        <ele>473.20001220703125</ele>
        <time>2015-05-03T08:18:40.000Z</time>
      </trkpt>
      <trkpt lat="39.84121402725577" lon="-6.116335345432162">
        <ele>473.20001220703125</ele>
        <time>2015-05-03T08:18:41.000Z</time>
      </trkpt>
      <trkpt lat="39.84119734726846" lon="-6.116316989064217">
        <ele>473.3999938964844</ele>
        <time>2015-05-03T08:18:43.000Z</time>
      </trkpt>
      <trkpt lat="39.84116541221738" lon="-6.1163064278662205">
        <ele>474.20001220703125</ele>
        <time>2015-05-03T08:18:45.000Z</time>
      </trkpt>
      <trkpt lat="39.84111939556897" lon="-6.116260997951031">
        <ele>474.6000061035156</ele>
        <time>2015-05-03T08:18:48.000Z</time>
      </trkpt>
      <trkpt lat="39.84106684103608" lon="-6.1162336729466915">
        <ele>475.3999938964844</ele>
        <time>2015-05-03T08:18:51.000Z</time>
      </trkpt>
      <trkpt lat="39.84101495705545" lon="-6.11621405929327">
        <ele>475.79998779296875</ele>
        <time>2015-05-03T08:18:54.000Z</time>
      </trkpt>
      <trkpt lat="39.84099978581071" lon="-6.116222022101283">
        <ele>476.3999938964844</ele>
        <time>2015-05-03T08:18:55.000Z</time>
      </trkpt>
      <trkpt lat="39.84096650965512" lon="-6.116260914131999">
        <ele>477.6000061035156</ele>
        <time>2015-05-03T08:18:58.000Z</time>
      </trkpt>
      <trkpt lat="39.840964917093515" lon="-6.116272816434503">
        <ele>478.0</ele>
        <time>2015-05-03T08:18:59.000Z</time>
      </trkpt>
      <trkpt lat="39.84096399508417" lon="-6.11633425578475">
        <ele>478.6000061035156</ele>
        <time>2015-05-03T08:19:03.000Z</time>
      </trkpt>
      <trkpt lat="39.84096416272223" lon="-6.116354204714298">
        <ele>479.0</ele>
        <time>2015-05-03T08:19:04.000Z</time>
      </trkpt>
      <trkpt lat="39.84096273779869" lon="-6.1163718067109585">
        <ele>479.3999938964844</ele>
        <time>2015-05-03T08:19:05.000Z</time>
      </trkpt>
      <trkpt lat="39.840960474684834" lon="-6.1163971200585365">
        <ele>479.6000061035156</ele>
        <time>2015-05-03T08:19:06.000Z</time>
      </trkpt>
      <trkpt lat="39.84094656072557" lon="-6.116489823907614">
        <ele>481.0</ele>
        <time>2015-05-03T08:19:10.000Z</time>
      </trkpt>
      <trkpt lat="39.840941447764635" lon="-6.116529805585742">
        <ele>481.20001220703125</ele>
        <time>2015-05-03T08:19:12.000Z</time>
      </trkpt>
      <trkpt lat="39.84091789461672" lon="-6.116613205522299">
        <ele>482.3999938964844</ele>
        <time>2015-05-03T08:19:16.000Z</time>
      </trkpt>
      <trkpt lat="39.84090599231422" lon="-6.116659473627806">
        <ele>483.0</ele>
        <time>2015-05-03T08:19:18.000Z</time>
      </trkpt>
      <trkpt lat="39.84088445082307" lon="-6.116719152778387">
        <ele>483.6000061035156</ele>
        <time>2015-05-03T08:19:21.000Z</time>
      </trkpt>
      <trkpt lat="39.8408636637032" lon="-6.116780256852508">
        <ele>484.3999938964844</ele>
        <time>2015-05-03T08:19:24.000Z</time>
      </trkpt>
      <trkpt lat="39.84085846692324" lon="-6.11682677641511">
        <ele>484.79998779296875</ele>
        <time>2015-05-03T08:19:26.000Z</time>
      </trkpt>
      <trkpt lat="39.84083508141339" lon="-6.116928532719612">
        <ele>485.79998779296875</ele>
        <time>2015-05-03T08:19:30.000Z</time>
      </trkpt>
      <trkpt lat="39.84078420326114" lon="-6.117089632898569">
        <ele>486.0</ele>
        <time>2015-05-03T08:19:35.000Z</time>
      </trkpt>
      <trkpt lat="39.84069828875363" lon="-6.11737847328186">
        <ele>486.79998779296875</ele>
        <time>2015-05-03T08:19:42.000Z</time>
      </trkpt>
      <trkpt lat="39.84068462625146" lon="-6.117418454959989">
        <ele>486.79998779296875</ele>
        <time>2015-05-03T08:19:43.000Z</time>
      </trkpt>
      <trkpt lat="39.840621929615736" lon="-6.117597660049796">
        <ele>487.3999938964844</ele>
        <time>2015-05-03T08:19:48.000Z</time>
      </trkpt>
      <trkpt lat="39.84059670008719" lon="-6.11769363284111">
        <ele>488.0</ele>
        <time>2015-05-03T08:19:51.000Z</time>
      </trkpt>
      <trkpt lat="39.84054749831557" lon="-6.117852386087179">
        <ele>489.20001220703125</ele>
        <time>2015-05-03T08:19:56.000Z</time>
      </trkpt>
      <trkpt lat="39.840507097542286" lon="-6.117981215938926">
        <ele>490.3999938964844</ele>
        <time>2015-05-03T08:20:00.000Z</time>
      </trkpt>
      <trkpt lat="39.84047608450055" lon="-6.118109375238419">
        <ele>491.20001220703125</ele>
        <time>2015-05-03T08:20:05.000Z</time>
      </trkpt>
      <trkpt lat="39.840471390634775" lon="-6.1181385442614555">
        <ele>491.6000061035156</ele>
        <time>2015-05-03T08:20:06.000Z</time>
      </trkpt>
      <trkpt lat="39.84045588411391" lon="-6.118263686075807">
        <ele>492.79998779296875</ele>
        <time>2015-05-03T08:20:11.000Z</time>
      </trkpt>
      <trkpt lat="39.840456722304225" lon="-6.118314312770963">
        <ele>493.3999938964844</ele>
        <time>2015-05-03T08:20:13.000Z</time>
      </trkpt>
      <trkpt lat="39.840447921305895" lon="-6.118419757112861">
        <ele>494.0</ele>
        <time>2015-05-03T08:20:17.000Z</time>
      </trkpt>
      <trkpt lat="39.84044146724045" lon="-6.118463594466448">
        <ele>494.79998779296875</ele>
        <time>2015-05-03T08:20:19.000Z</time>
      </trkpt>
      <trkpt lat="39.840433336794376" lon="-6.118510281667113">
        <ele>495.20001220703125</ele>
        <time>2015-05-03T08:20:21.000Z</time>
      </trkpt>
      <trkpt lat="39.840412717312574" lon="-6.118586640805006">
        <ele>496.79998779296875</ele>
        <time>2015-05-03T08:20:25.000Z</time>
      </trkpt>
      <trkpt lat="39.840408358722925" lon="-6.118605835363269">
        <ele>497.20001220703125</ele>
        <time>2015-05-03T08:20:26.000Z</time>
      </trkpt>
      <trkpt lat="39.84039285220206" lon="-6.118653444573283">
        <ele>498.0</ele>
        <time>2015-05-03T08:20:29.000Z</time>
      </trkpt>
      <trkpt lat="39.84036234207451" lon="-6.118729719892144">
        <ele>499.0</ele>
        <time>2015-05-03T08:20:33.000Z</time>
      </trkpt>
      <trkpt lat="39.84035337343812" lon="-6.118751093745232">
        <ele>499.3999938964844</ele>
        <time>2015-05-03T08:20:34.000Z</time>
      </trkpt>
      <trkpt lat="39.84033434651792" lon="-6.118787219747901">
        <ele>500.0</ele>
        <time>2015-05-03T08:20:36.000Z</time>
      </trkpt>
      <trkpt lat="39.84029604122043" lon="-6.118887215852737">
        <ele>501.20001220703125</ele>
        <time>2015-05-03T08:20:41.000Z</time>
      </trkpt>
      <trkpt lat="39.84026351943612" lon="-6.118965586647391">
        <ele>502.20001220703125</ele>
        <time>2015-05-03T08:20:45.000Z</time>
      </trkpt>
      <trkpt lat="39.840234853327274" lon="-6.11905007623136">
        <ele>503.6000061035156</ele>
        <time>2015-05-03T08:20:49.000Z</time>
      </trkpt>
      <trkpt lat="39.840228566899896" lon="-6.119067594408989">
        <ele>504.0</ele>
        <time>2015-05-03T08:20:50.000Z</time>
      </trkpt>
      <trkpt lat="39.840196296572685" lon="-6.119140600785613">
        <ele>505.0</ele>
        <time>2015-05-03T08:20:54.000Z</time>
      </trkpt>
      <trkpt lat="39.840167965739965" lon="-6.119194328784943">
        <ele>505.3999938964844</ele>
        <time>2015-05-03T08:20:57.000Z</time>
      </trkpt>
      <trkpt lat="39.84015606343746" lon="-6.119213942438364">
        <ele>506.0</ele>
        <time>2015-05-03T08:20:59.000Z</time>
      </trkpt>
      <trkpt lat="39.84015069901943" lon="-6.119239255785942">
        <ele>506.0</ele>
        <time>2015-05-03T08:21:00.000Z</time>
      </trkpt>
      <trkpt lat="39.840133767575026" lon="-6.119274208322167">
        <ele>506.6000061035156</ele>
        <time>2015-05-03T08:21:03.000Z</time>
      </trkpt>
      <trkpt lat="39.84012454748154" lon="-6.119301030412316">
        <ele>507.20001220703125</ele>
        <time>2015-05-03T08:21:05.000Z</time>
      </trkpt>
      <trkpt lat="39.840084901079535" lon="-6.1193987634032965">
        <ele>508.3999938964844</ele>
        <time>2015-05-03T08:21:10.000Z</time>
      </trkpt>
      <trkpt lat="39.84006159938872" lon="-6.119452826678753">
        <ele>509.3999938964844</ele>
        <time>2015-05-03T08:21:13.000Z</time>
      </trkpt>
      <trkpt lat="39.84002840705216" lon="-6.11949909478426">
        <ele>510.3999938964844</ele>
        <time>2015-05-03T08:21:16.000Z</time>
      </trkpt>
      <trkpt lat="39.840020863339305" lon="-6.119516026228666">
        <ele>510.6000061035156</ele>
        <time>2015-05-03T08:21:17.000Z</time>
      </trkpt>
      <trkpt lat="39.8400160856545" lon="-6.119527257978916">
        <ele>510.79998779296875</ele>
        <time>2015-05-03T08:21:18.000Z</time>
      </trkpt>
      <trkpt lat="39.839982725679874" lon="-6.119580483064055">
        <ele>511.6000061035156</ele>
        <time>2015-05-03T08:21:21.000Z</time>
      </trkpt>
      <trkpt lat="39.839947018772364" lon="-6.119629852473736">
        <ele>512.2000122070312</ele>
        <time>2015-05-03T08:21:24.000Z</time>
      </trkpt>
      <trkpt lat="39.83991307206452" lon="-6.1197038646787405">
        <ele>512.7999877929688</ele>
        <time>2015-05-03T08:21:28.000Z</time>
      </trkpt>
      <trkpt lat="39.839861523360014" lon="-6.1197651363909245">
        <ele>514.0</ele>
        <time>2015-05-03T08:21:32.000Z</time>
      </trkpt>
      <trkpt lat="39.83979840762913" lon="-6.119849374517798">
        <ele>515.2000122070312</ele>
        <time>2015-05-03T08:21:37.000Z</time>
      </trkpt>
      <trkpt lat="39.839746188372374" lon="-6.119912741705775">
        <ele>516.2000122070312</ele>
        <time>2015-05-03T08:21:41.000Z</time>
      </trkpt>
      <trkpt lat="39.83973864465952" lon="-6.119929421693087">
        <ele>516.4000244140625</ele>
        <time>2015-05-03T08:21:42.000Z</time>
      </trkpt>
      <trkpt lat="39.83966572210193" lon="-6.120036039501429">
        <ele>517.7999877929688</ele>
        <time>2015-05-03T08:21:49.000Z</time>
      </trkpt>
      <trkpt lat="39.839655831456184" lon="-6.120049869641662">
        <ele>518.7999877929688</ele>
        <time>2015-05-03T08:21:50.000Z</time>
      </trkpt>
      <trkpt lat="39.83963177539408" lon="-6.120077110826969">
        <ele>518.7999877929688</ele>
        <time>2015-05-03T08:21:52.000Z</time>
      </trkpt>
      <trkpt lat="39.83961618505418" lon="-6.120105776935816">
        <ele>519.2000122070312</ele>
        <time>2015-05-03T08:21:54.000Z</time>
      </trkpt>
      <trkpt lat="39.83959011733532" lon="-6.120153469964862">
        <ele>519.7999877929688</ele>
        <time>2015-05-03T08:21:57.000Z</time>
      </trkpt>
      <trkpt lat="39.839577712118626" lon="-6.120167970657349">
        <ele>520.0</ele>
        <time>2015-05-03T08:21:58.000Z</time>
      </trkpt>
      <trkpt lat="39.839561032131314" lon="-6.120195547118783">
        <ele>520.5999755859375</ele>
        <time>2015-05-03T08:22:00.000Z</time>
      </trkpt>
      <trkpt lat="39.839550387114286" lon="-6.120221363380551">
        <ele>521.4000244140625</ele>
        <time>2015-05-03T08:22:01.000Z</time>
      </trkpt>
      <trkpt lat="39.839521553367376" lon="-6.120265536010265">
        <ele>522.0</ele>
        <time>2015-05-03T08:22:04.000Z</time>
      </trkpt>
      <trkpt lat="39.839503448456526" lon="-6.12029604613781">
        <ele>522.7999877929688</ele>
        <time>2015-05-03T08:22:06.000Z</time>
      </trkpt>
      <trkpt lat="39.83946489170194" lon="-6.120361927896738">
        <ele>524.0</ele>
        <time>2015-05-03T08:22:10.000Z</time>
      </trkpt>
      <trkpt lat="39.839457934722304" lon="-6.120375506579876">
        <ele>524.0</ele>
        <time>2015-05-03T08:22:11.000Z</time>
      </trkpt>
      <trkpt lat="39.83943245373666" lon="-6.120432754978538">
        <ele>525.0</ele>
        <time>2015-05-03T08:22:14.000Z</time>
      </trkpt>
      <trkpt lat="39.839391550049186" lon="-6.120492350310087">
        <ele>526.0</ele>
        <time>2015-05-03T08:22:18.000Z</time>
      </trkpt>
      <trkpt lat="39.839371433481574" lon="-6.120518585667014">
        <ele>526.4000244140625</ele>
        <time>2015-05-03T08:22:20.000Z</time>
      </trkpt>
      <trkpt lat="39.83935366384685" lon="-6.120548592880368">
        <ele>527.0</ele>
        <time>2015-05-03T08:22:22.000Z</time>
      </trkpt>
      <trkpt lat="39.839346120133996" lon="-6.120565189048648">
        <ele>527.4000244140625</ele>
        <time>2015-05-03T08:22:23.000Z</time>
      </trkpt>
      <trkpt lat="39.83931787312031" lon="-6.1206138879060745">
        <ele>528.2000122070312</ele>
        <time>2015-05-03T08:22:26.000Z</time>
      </trkpt>
      <trkpt lat="39.839291386306286" lon="-6.120687564834952">
        <ele>529.2000122070312</ele>
        <time>2015-05-03T08:22:30.000Z</time>
      </trkpt>
      <trkpt lat="39.839269341900945" lon="-6.120765348896384">
        <ele>530.4000244140625</ele>
        <time>2015-05-03T08:22:34.000Z</time>
      </trkpt>
      <trkpt lat="39.839253751561046" lon="-6.120802061632276">
        <ele>530.7999877929688</ele>
        <time>2015-05-03T08:22:36.000Z</time>
      </trkpt>
      <trkpt lat="39.83922961167991" lon="-6.120846653357148">
        <ele>531.5999755859375</ele>
        <time>2015-05-03T08:22:39.000Z</time>
      </trkpt>
      <trkpt lat="39.839197592809796" lon="-6.120920246466994">
        <ele>533.0</ele>
        <time>2015-05-03T08:22:44.000Z</time>
      </trkpt>
      <trkpt lat="39.83917051926255" lon="-6.120966095477343">
        <ele>533.5999755859375</ele>
        <time>2015-05-03T08:22:47.000Z</time>
      </trkpt>
      <trkpt lat="39.83915576711297" lon="-6.12100507132709">
        <ele>534.2000122070312</ele>
        <time>2015-05-03T08:22:49.000Z</time>
      </trkpt>
      <trkpt lat="39.839147133752704" lon="-6.121024014428258">
        <ele>534.4000244140625</ele>
        <time>2015-05-03T08:22:50.000Z</time>
      </trkpt>
      <trkpt lat="39.839114444330335" lon="-6.121079167351127">
        <ele>535.2000122070312</ele>
        <time>2015-05-03T08:22:53.000Z</time>
      </trkpt>
      <trkpt lat="39.83906725421548" lon="-6.121145971119404">
        <ele>536.4000244140625</ele>
        <time>2015-05-03T08:22:57.000Z</time>
      </trkpt>
      <trkpt lat="39.83902039937675" lon="-6.121253594756126">
        <ele>537.5999755859375</ele>
        <time>2015-05-03T08:23:02.000Z</time>
      </trkpt>
      <trkpt lat="39.83900673687458" lon="-6.121276980265975">
        <ele>538.0</ele>
        <time>2015-05-03T08:23:04.000Z</time>
      </trkpt>
      <trkpt lat="39.838964408263564" lon="-6.121346550062299">
        <ele>538.7999877929688</ele>
        <time>2015-05-03T08:23:08.000Z</time>
      </trkpt>
      <trkpt lat="39.83891964890063" lon="-6.121407905593514">
        <ele>539.7999877929688</ele>
        <time>2015-05-03T08:23:12.000Z</time>
      </trkpt>
      <trkpt lat="39.838872039690614" lon="-6.121466411277652">
        <ele>541.0</ele>
        <time>2015-05-03T08:23:16.000Z</time>
      </trkpt>
      <trkpt lat="39.838829543441534" lon="-6.121533215045929">
        <ele>541.7999877929688</ele>
        <time>2015-05-03T08:23:20.000Z</time>
      </trkpt>
      <trkpt lat="39.838817808777094" lon="-6.121550397947431">
        <ele>542.5999755859375</ele>
        <time>2015-05-03T08:23:21.000Z</time>
      </trkpt>
      <trkpt lat="39.838764164596796" lon="-6.1216190457344055">
        <ele>543.7999877929688</ele>
        <time>2015-05-03T08:23:25.000Z</time>
      </trkpt>
      <trkpt lat="39.838725943118334" lon="-6.121666906401515">
        <ele>544.7999877929688</ele>
        <time>2015-05-03T08:23:28.000Z</time>
      </trkpt>
      <trkpt lat="39.83871546573937" lon="-6.121683921664953">
        <ele>545.2000122070312</ele>
        <time>2015-05-03T08:23:29.000Z</time>
      </trkpt>
      <trkpt lat="39.83866232447326" lon="-6.121759107336402">
        <ele>546.2000122070312</ele>
        <time>2015-05-03T08:23:33.000Z</time>
      </trkpt>
      <trkpt lat="39.838649332523346" lon="-6.121778134256601">
        <ele>546.5999755859375</ele>
        <time>2015-05-03T08:23:34.000Z</time>
      </trkpt>
      <trkpt lat="39.838625360280275" lon="-6.1218202114105225">
        <ele>547.4000244140625</ele>
        <time>2015-05-03T08:23:36.000Z</time>
      </trkpt>
      <trkpt lat="39.83857858926058" lon="-6.12189338542521">
        <ele>548.4000244140625</ele>
        <time>2015-05-03T08:23:40.000Z</time>
      </trkpt>
      <trkpt lat="39.83856735751033" lon="-6.121914172545075">
        <ele>549.0</ele>
        <time>2015-05-03T08:23:41.000Z</time>
      </trkpt>
      <trkpt lat="39.838540283963084" lon="-6.121947197243571">
        <ele>549.5999755859375</ele>
        <time>2015-05-03T08:23:43.000Z</time>
      </trkpt>
      <trkpt lat="39.838497787714005" lon="-6.121992375701666">
        <ele>550.5999755859375</ele>
        <time>2015-05-03T08:23:46.000Z</time>
      </trkpt>
      <trkpt lat="39.83845001086593" lon="-6.12206881865859">
        <ele>552.0</ele>
        <time>2015-05-03T08:23:50.000Z</time>
      </trkpt>
      <trkpt lat="39.83841195702553" lon="-6.122122881934047">
        <ele>552.7999877929688</ele>
        <time>2015-05-03T08:23:53.000Z</time>
      </trkpt>
      <trkpt lat="39.83839804306626" lon="-6.122138723731041">
        <ele>553.2000122070312</ele>
        <time>2015-05-03T08:23:54.000Z</time>
      </trkpt>
      <trkpt lat="39.83836133033037" lon="-6.122192535549402">
        <ele>554.4000244140625</ele>
        <time>2015-05-03T08:23:57.000Z</time>
      </trkpt>
      <trkpt lat="39.83836015686393" lon="-6.122212149202824">
        <ele>555.0</ele>
        <time>2015-05-03T08:23:58.000Z</time>
      </trkpt>
      <trkpt lat="39.83841388486326" lon="-6.1222967226058245">
        <ele>554.5999755859375</ele>
        <time>2015-05-03T08:24:01.000Z</time>
      </trkpt>
      <trkpt lat="39.838445987552404" lon="-6.12234684638679">
        <ele>554.2000122070312</ele>
        <time>2015-05-03T08:24:02.000Z</time>
      </trkpt>
      <trkpt lat="39.838518323376775" lon="-6.12248120829463">
        <ele>553.0</ele>
        <time>2015-05-03T08:24:04.000Z</time>
      </trkpt>
      <trkpt lat="39.83860063366592" lon="-6.122626718133688">
        <ele>552.0</ele>
        <time>2015-05-03T08:24:06.000Z</time>
      </trkpt>
      <trkpt lat="39.83869702555239" lon="-6.122790249064565">
        <ele>550.7999877929688</ele>
        <time>2015-05-03T08:24:08.000Z</time>
      </trkpt>
      <trkpt lat="39.8387520108372" lon="-6.122875828295946">
        <ele>550.0</ele>
        <time>2015-05-03T08:24:09.000Z</time>
      </trkpt>
      <trkpt lat="39.83880775049329" lon="-6.122969705611467">
        <ele>548.7999877929688</ele>
        <time>2015-05-03T08:24:10.000Z</time>
      </trkpt>
      <trkpt lat="39.838931718841195" lon="-6.123166512697935">
        <ele>546.0</ele>
        <time>2015-05-03T08:24:12.000Z</time>
      </trkpt>
      <trkpt lat="39.83900346793234" lon="-6.123257791623473">
        <ele>544.7999877929688</ele>
        <time>2015-05-03T08:24:13.000Z</time>
      </trkpt>
      <trkpt lat="39.83908695168793" lon="-6.123353596776724">
        <ele>543.4000244140625</ele>
        <time>2015-05-03T08:24:14.000Z</time>
      </trkpt>
      <trkpt lat="39.83917085453868" lon="-6.123449485749006">
        <ele>542.0</ele>
        <time>2015-05-03T08:24:15.000Z</time>
      </trkpt>
      <trkpt lat="39.83925576321781" lon="-6.123549984768033">
        <ele>541.0</ele>
        <time>2015-05-03T08:24:16.000Z</time>
      </trkpt>
      <trkpt lat="39.83942650258541" lon="-6.123767159879208">
        <ele>538.4000244140625</ele>
        <time>2015-05-03T08:24:18.000Z</time>
      </trkpt>
      <trkpt lat="39.839509315788746" lon="-6.123878471553326">
        <ele>537.2000122070312</ele>
        <time>2015-05-03T08:24:19.000Z</time>
      </trkpt>
      <trkpt lat="39.83959900215268" lon="-6.1239986680448055">
        <ele>536.0</ele>
        <time>2015-05-03T08:24:20.000Z</time>
      </trkpt>
      <trkpt lat="39.83968391083181" lon="-6.1241167690604925">
        <ele>534.5999755859375</ele>
        <time>2015-05-03T08:24:21.000Z</time>
      </trkpt>
      <trkpt lat="39.83976856805384" lon="-6.124238139018416">
        <ele>533.2000122070312</ele>
        <time>2015-05-03T08:24:22.000Z</time>
      </trkpt>
      <trkpt lat="39.839858170598745" lon="-6.124366549775004">
        <ele>531.7999877929688</ele>
        <time>2015-05-03T08:24:23.000Z</time>
      </trkpt>
      <trkpt lat="39.839945174753666" lon="-6.124491188675165">
        <ele>530.7999877929688</ele>
        <time>2015-05-03T08:24:24.000Z</time>
      </trkpt>
      <trkpt lat="39.840030083432794" lon="-6.124628148972988">
        <ele>529.7999877929688</ele>
        <time>2015-05-03T08:24:25.000Z</time>
      </trkpt>
      <trkpt lat="39.84011063352227" lon="-6.124771060422063">
        <ele>528.2000122070312</ele>
        <time>2015-05-03T08:24:26.000Z</time>
      </trkpt>
      <trkpt lat="39.84018875285983" lon="-6.124922940507531">
        <ele>526.4000244140625</ele>
        <time>2015-05-03T08:24:27.000Z</time>
      </trkpt>
      <trkpt lat="39.84025714918971" lon="-6.125073730945587">
        <ele>525.0</ele>
        <time>2015-05-03T08:24:28.000Z</time>
      </trkpt>
      <trkpt lat="39.84039578586817" lon="-6.125385453924537">
        <ele>523.5999755859375</ele>
        <time>2015-05-03T08:24:30.000Z</time>
      </trkpt>
      <trkpt lat="39.84046476893127" lon="-6.125538004562259">
        <ele>522.4000244140625</ele>
        <time>2015-05-03T08:24:31.000Z</time>
      </trkpt>
      <trkpt lat="39.840524112805724" lon="-6.125682173296809">
        <ele>521.0</ele>
        <time>2015-05-03T08:24:32.000Z</time>
      </trkpt>
      <trkpt lat="39.84057289548218" lon="-6.125819133594632">
        <ele>519.4000244140625</ele>
        <time>2015-05-03T08:24:33.000Z</time>
      </trkpt>
      <trkpt lat="39.840607177466154" lon="-6.125931032001972">
        <ele>518.0</ele>
        <time>2015-05-03T08:24:34.000Z</time>
      </trkpt>
      <trkpt lat="39.84063391573727" lon="-6.126010911539197">
        <ele>517.0</ele>
        <time>2015-05-03T08:24:35.000Z</time>
      </trkpt>
      <trkpt lat="39.8406635876745" lon="-6.1260513961315155">
        <ele>516.4000244140625</ele>
        <time>2015-05-03T08:24:36.000Z</time>
      </trkpt>
      <trkpt lat="39.840686386451125" lon="-6.12605064176023">
        <ele>515.5999755859375</ele>
        <time>2015-05-03T08:24:37.000Z</time>
      </trkpt>
      <trkpt lat="39.840721590444446" lon="-6.125934384763241">
        <ele>514.4000244140625</ele>
        <time>2015-05-03T08:24:40.000Z</time>
      </trkpt>
      <trkpt lat="39.84074036590755" lon="-6.125857857987285">
        <ele>513.2000122070312</ele>
        <time>2015-05-03T08:24:41.000Z</time>
      </trkpt>
      <trkpt lat="39.840765092521906" lon="-6.125774290412664">
        <ele>512.0</ele>
        <time>2015-05-03T08:24:42.000Z</time>
      </trkpt>
      <trkpt lat="39.84078688547015" lon="-6.125684939324856">
        <ele>510.6000061035156</ele>
        <time>2015-05-03T08:24:43.000Z</time>
      </trkpt>
      <trkpt lat="39.840809935703874" lon="-6.12559475004673">
        <ele>509.6000061035156</ele>
        <time>2015-05-03T08:24:44.000Z</time>
      </trkpt>
      <trkpt lat="39.840839356184006" lon="-6.125528197735548">
        <ele>508.3999938964844</ele>
        <time>2015-05-03T08:24:45.000Z</time>
      </trkpt>
      <trkpt lat="39.84087313525379" lon="-6.125485450029373">
        <ele>507.3999938964844</ele>
        <time>2015-05-03T08:24:46.000Z</time>
      </trkpt>
      <trkpt lat="39.84095335006714" lon="-6.12551755271852">
        <ele>505.3999938964844</ele>
        <time>2015-05-03T08:24:48.000Z</time>
      </trkpt>
      <trkpt lat="39.84100699424744" lon="-6.125565497204661">
        <ele>504.20001220703125</ele>
        <time>2015-05-03T08:24:49.000Z</time>
      </trkpt>
      <trkpt lat="39.841069020330906" lon="-6.1256293673068285">
        <ele>502.79998779296875</ele>
        <time>2015-05-03T08:24:50.000Z</time>
      </trkpt>
      <trkpt lat="39.841133980080485" lon="-6.12570027820766">
        <ele>501.3999938964844</ele>
        <time>2015-05-03T08:24:51.000Z</time>
      </trkpt>
      <trkpt lat="39.84120296314359" lon="-6.125775296241045">
        <ele>500.0</ele>
        <time>2015-05-03T08:24:52.000Z</time>
      </trkpt>
      <trkpt lat="39.84127731062472" lon="-6.125852074474096">
        <ele>498.3999938964844</ele>
        <time>2015-05-03T08:24:53.000Z</time>
      </trkpt>
      <trkpt lat="39.841344533488154" lon="-6.125926002860069">
        <ele>497.0</ele>
        <time>2015-05-03T08:24:54.000Z</time>
      </trkpt>
      <trkpt lat="39.841407649219036" lon="-6.125990711152554">
        <ele>495.6000061035156</ele>
        <time>2015-05-03T08:24:55.000Z</time>
      </trkpt>
      <trkpt lat="39.84147126786411" lon="-6.12604427151382">
        <ele>494.0</ele>
        <time>2015-05-03T08:24:56.000Z</time>
      </trkpt>
      <trkpt lat="39.84152759425342" lon="-6.126083666458726">
        <ele>492.3999938964844</ele>
        <time>2015-05-03T08:24:57.000Z</time>
      </trkpt>
      <trkpt lat="39.84157553873956" lon="-6.1261082254350185">
        <ele>491.20001220703125</ele>
        <time>2015-05-03T08:24:58.000Z</time>
      </trkpt>
      <trkpt lat="39.84161778353155" lon="-6.126106800511479">
        <ele>489.6000061035156</ele>
        <time>2015-05-03T08:24:59.000Z</time>
      </trkpt>
      <trkpt lat="39.8416652251035" lon="-6.126094479113817">
        <ele>488.3999938964844</ele>
        <time>2015-05-03T08:25:00.000Z</time>
      </trkpt>
      <trkpt lat="39.84176890924573" lon="-6.126099089160562">
        <ele>485.6000061035156</ele>
        <time>2015-05-03T08:25:02.000Z</time>
      </trkpt>
      <trkpt lat="39.841823894530535" lon="-6.126125156879425">
        <ele>484.20001220703125</ele>
        <time>2015-05-03T08:25:03.000Z</time>
      </trkpt>
      <trkpt lat="39.841883992776275" lon="-6.126161450520158">
        <ele>483.0</ele>
        <time>2015-05-03T08:25:04.000Z</time>
      </trkpt>
      <trkpt lat="39.841948952525854" lon="-6.126211071386933">
        <ele>481.3999938964844</ele>
        <time>2015-05-03T08:25:05.000Z</time>
      </trkpt>
      <trkpt lat="39.84201952815056" lon="-6.126260943710804">
        <ele>479.79998779296875</ele>
        <time>2015-05-03T08:25:06.000Z</time>
      </trkpt>
      <trkpt lat="39.8420952167362" lon="-6.126306122168899">
        <ele>478.20001220703125</ele>
        <time>2015-05-03T08:25:07.000Z</time>
      </trkpt>
      <trkpt lat="39.84216118231416" lon="-6.126348450779915">
        <ele>477.0</ele>
        <time>2015-05-03T08:25:08.000Z</time>
      </trkpt>
      <trkpt lat="39.84222010709345" lon="-6.126395724713802">
        <ele>476.0</ele>
        <time>2015-05-03T08:25:09.000Z</time>
      </trkpt>
      <trkpt lat="39.84228297136724" lon="-6.12645230256021">
        <ele>474.6000061035156</ele>
        <time>2015-05-03T08:25:10.000Z</time>
      </trkpt>
      <trkpt lat="39.84234927222133" lon="-6.126520531252027">
        <ele>473.3999938964844</ele>
        <time>2015-05-03T08:25:11.000Z</time>
      </trkpt>
      <trkpt lat="39.84241305850446" lon="-6.126594040542841">
        <ele>472.0</ele>
        <time>2015-05-03T08:25:12.000Z</time>
      </trkpt>
      <trkpt lat="39.8424697201699" lon="-6.1266745906323195">
        <ele>471.0</ele>
        <time>2015-05-03T08:25:13.000Z</time>
      </trkpt>
      <trkpt lat="39.84255647286773" lon="-6.1268271412700415">
        <ele>469.3999938964844</ele>
        <time>2015-05-03T08:25:15.000Z</time>
      </trkpt>
      <trkpt lat="39.842593939974904" lon="-6.126914815977216">
        <ele>468.6000061035156</ele>
        <time>2015-05-03T08:25:16.000Z</time>
      </trkpt>
      <trkpt lat="39.84261581674218" lon="-6.12700249068439">
        <ele>468.0</ele>
        <time>2015-05-03T08:25:17.000Z</time>
      </trkpt>
      <trkpt lat="39.84263777732849" lon="-6.127084633335471">
        <ele>467.0</ele>
        <time>2015-05-03T08:25:18.000Z</time>
      </trkpt>
      <trkpt lat="39.84269443899393" lon="-6.127199633046985">
        <ele>465.6000061035156</ele>
        <time>2015-05-03T08:25:20.000Z</time>
      </trkpt>
      <trkpt lat="39.84274322167039" lon="-6.127252858132124">
        <ele>464.3999938964844</ele>
        <time>2015-05-03T08:25:22.000Z</time>
      </trkpt>
      <trkpt lat="39.84278462827206" lon="-6.127236429601908">
        <ele>463.6000061035156</ele>
        <time>2015-05-03T08:25:23.000Z</time>
      </trkpt>
      <trkpt lat="39.84282838180661" lon="-6.127202315256">
        <ele>462.6000061035156</ele>
        <time>2015-05-03T08:25:24.000Z</time>
      </trkpt>
      <trkpt lat="39.842876410111785" lon="-6.1271581426262856">
        <ele>461.6000061035156</ele>
        <time>2015-05-03T08:25:25.000Z</time>
      </trkpt>
      <trkpt lat="39.84291974455118" lon="-6.127104582265019">
        <ele>460.79998779296875</ele>
        <time>2015-05-03T08:25:26.000Z</time>
      </trkpt>
      <trkpt lat="39.842960480600595" lon="-6.127045154571533">
        <ele>459.3999938964844</ele>
        <time>2015-05-03T08:25:27.000Z</time>
      </trkpt>
      <trkpt lat="39.843033319339156" lon="-6.1269311606884">
        <ele>458.0</ele>
        <time>2015-05-03T08:25:29.000Z</time>
      </trkpt>
      <trkpt lat="39.84308000653982" lon="-6.126837199553847">
        <ele>456.3999938964844</ele>
        <time>2015-05-03T08:25:31.000Z</time>
      </trkpt>
      <trkpt lat="39.843101212754846" lon="-6.12681926228106">
        <ele>455.79998779296875</ele>
        <time>2015-05-03T08:25:32.000Z</time>
      </trkpt>
      <trkpt lat="39.84312107786536" lon="-6.126834182068706">
        <ele>455.20001220703125</ele>
        <time>2015-05-03T08:25:33.000Z</time>
      </trkpt>
      <trkpt lat="39.84316541813314" lon="-6.126969298347831">
        <ele>454.0</ele>
        <time>2015-05-03T08:25:36.000Z</time>
      </trkpt>
      <trkpt lat="39.84318201430142" lon="-6.127029228955507">
        <ele>453.3999938964844</ele>
        <time>2015-05-03T08:25:37.000Z</time>
      </trkpt>
      <trkpt lat="39.843198861926794" lon="-6.127089159563184">
        <ele>452.79998779296875</ele>
        <time>2015-05-03T08:25:38.000Z</time>
      </trkpt>
      <trkpt lat="39.84322895295918" lon="-6.127192676067352">
        <ele>451.3999938964844</ele>
        <time>2015-05-03T08:25:41.000Z</time>
      </trkpt>
      <trkpt lat="39.843254098668694" lon="-6.127199549227953">
        <ele>451.0</ele>
        <time>2015-05-03T08:25:43.000Z</time>
      </trkpt>
      <trkpt lat="39.84329441562295" lon="-6.127158813178539">
        <ele>450.6000061035156</ele>
        <time>2015-05-03T08:25:45.000Z</time>
      </trkpt>
      <trkpt lat="39.84331293962896" lon="-6.127123441547155">
        <ele>450.20001220703125</ele>
        <time>2015-05-03T08:25:46.000Z</time>
      </trkpt>
      <trkpt lat="39.84335878863931" lon="-6.127029480412602">
        <ele>449.0</ele>
        <time>2015-05-03T08:25:48.000Z</time>
      </trkpt>
      <trkpt lat="39.84337848611176" lon="-6.126967202872038">
        <ele>448.6000061035156</ele>
        <time>2015-05-03T08:25:49.000Z</time>
      </trkpt>
      <trkpt lat="39.84339516609907" lon="-6.12688765861094">
        <ele>448.0</ele>
        <time>2015-05-03T08:25:50.000Z</time>
      </trkpt>
      <trkpt lat="39.84340891242027" lon="-6.126811970025301">
        <ele>447.3999938964844</ele>
        <time>2015-05-03T08:25:51.000Z</time>
      </trkpt>
      <trkpt lat="39.843424167484045" lon="-6.12676402553916">
        <ele>446.6000061035156</ele>
        <time>2015-05-03T08:25:52.000Z</time>
      </trkpt>
      <trkpt lat="39.843440260738134" lon="-6.126758744940162">
        <ele>445.20001220703125</ele>
        <time>2015-05-03T08:25:53.000Z</time>
      </trkpt>
      <trkpt lat="39.84345568343997" lon="-6.12678799778223">
        <ele>444.6000061035156</ele>
        <time>2015-05-03T08:25:54.000Z</time>
      </trkpt>
      <trkpt lat="39.8434713575989" lon="-6.126843402162194">
        <ele>444.0</ele>
        <time>2015-05-03T08:25:55.000Z</time>
      </trkpt>
      <trkpt lat="39.843506813049316" lon="-6.126971477642655">
        <ele>442.79998779296875</ele>
        <time>2015-05-03T08:25:57.000Z</time>
      </trkpt>
      <trkpt lat="39.84351594932377" lon="-6.127029731869698">
        <ele>442.0</ele>
        <time>2015-05-03T08:25:58.000Z</time>
      </trkpt>
      <trkpt lat="39.843530198559165" lon="-6.127056470140815">
        <ele>441.3999938964844</ele>
        <time>2015-05-03T08:25:59.000Z</time>
      </trkpt>
      <trkpt lat="39.84355048276484" lon="-6.127051440998912">
        <ele>441.0</ele>
        <time>2015-05-03T08:26:00.000Z</time>
      </trkpt>
      <trkpt lat="39.843595242127776" lon="-6.1269917618483305">
        <ele>440.0</ele>
        <time>2015-05-03T08:26:02.000Z</time>
      </trkpt>
      <trkpt lat="39.84361586160958" lon="-6.126940883696079">
        <ele>439.3999938964844</ele>
        <time>2015-05-03T08:26:03.000Z</time>
      </trkpt>
      <trkpt lat="39.84362952411175" lon="-6.12687349319458">
        <ele>438.20001220703125</ele>
        <time>2015-05-03T08:26:04.000Z</time>
      </trkpt>
      <trkpt lat="39.84366422519088" lon="-6.126681212335825">
        <ele>436.3999938964844</ele>
        <time>2015-05-03T08:26:06.000Z</time>
      </trkpt>
      <trkpt lat="39.84366397373378" lon="-6.126626646146178">
        <ele>435.20001220703125</ele>
        <time>2015-05-03T08:26:07.000Z</time>
      </trkpt>
      <trkpt lat="39.843654250726104" lon="-6.126541569828987">
        <ele>434.20001220703125</ele>
        <time>2015-05-03T08:26:08.000Z</time>
      </trkpt>
      <trkpt lat="39.84364486299455" lon="-6.126459930092096">
        <ele>433.20001220703125</ele>
        <time>2015-05-03T08:26:09.000Z</time>
      </trkpt>
      <trkpt lat="39.8436508141458" lon="-6.126386504620314">
        <ele>432.6000061035156</ele>
        <time>2015-05-03T08:26:10.000Z</time>
      </trkpt>
      <trkpt lat="39.84366145916283" lon="-6.126316264271736">
        <ele>432.0</ele>
        <time>2015-05-03T08:26:11.000Z</time>
      </trkpt>
      <trkpt lat="39.84364662319422" lon="-6.126153990626335">
        <ele>430.79998779296875</ele>
        <time>2015-05-03T08:26:13.000Z</time>
      </trkpt>
      <trkpt lat="39.84363698400557" lon="-6.126068746671081">
        <ele>430.20001220703125</ele>
        <time>2015-05-03T08:26:14.000Z</time>
      </trkpt>
      <trkpt lat="39.843634217977524" lon="-6.125905886292458">
        <ele>430.0</ele>
        <time>2015-05-03T08:26:16.000Z</time>
      </trkpt>
      <trkpt lat="39.843635810539126" lon="-6.125816870480776">
        <ele>430.0</ele>
        <time>2015-05-03T08:26:17.000Z</time>
      </trkpt>
      <trkpt lat="39.843638660386205" lon="-6.1257177125662565">
        <ele>428.20001220703125</ele>
        <time>2015-05-03T08:26:18.000Z</time>
      </trkpt>
      <trkpt lat="39.843637654557824" lon="-6.125535238534212">
        <ele>427.20001220703125</ele>
        <time>2015-05-03T08:26:20.000Z</time>
      </trkpt>
      <trkpt lat="39.843615693971515" lon="-6.1254052352160215">
        <ele>426.3999938964844</ele>
        <time>2015-05-03T08:26:22.000Z</time>
      </trkpt>
      <trkpt lat="39.84359918162227" lon="-6.12534211948514">
        <ele>426.0</ele>
        <time>2015-05-03T08:26:23.000Z</time>
      </trkpt>
      <trkpt lat="39.84360286965966" lon="-6.1252515111118555">
        <ele>425.3999938964844</ele>
        <time>2015-05-03T08:26:25.000Z</time>
      </trkpt>
      <trkpt lat="39.843672355636954" lon="-6.125187389552593">
        <ele>424.79998779296875</ele>
        <time>2015-05-03T08:26:28.000Z</time>
      </trkpt>
      <trkpt lat="39.8437287658453" lon="-6.125124776735902">
        <ele>424.3999938964844</ele>
        <time>2015-05-03T08:26:30.000Z</time>
      </trkpt>
      <trkpt lat="39.84376237727702" lon="-6.125045903027058">
        <ele>424.3999938964844</ele>
        <time>2015-05-03T08:26:32.000Z</time>
      </trkpt>
      <trkpt lat="39.843721808865666" lon="-6.1248294822871685">
        <ele>425.20001220703125</ele>
        <time>2015-05-03T08:26:36.000Z</time>
      </trkpt>
      <trkpt lat="39.84372256323695" lon="-6.124768042936921">
        <ele>425.3999938964844</ele>
        <time>2015-05-03T08:26:37.000Z</time>
      </trkpt>
      <trkpt lat="39.843750055879354" lon="-6.124661257490516">
        <ele>425.79998779296875</ele>
        <time>2015-05-03T08:26:39.000Z</time>
      </trkpt>
      <trkpt lat="39.84375575557351" lon="-6.124616917222738">
        <ele>426.20001220703125</ele>
        <time>2015-05-03T08:26:40.000Z</time>
      </trkpt>
      <trkpt lat="39.843747625127435" lon="-6.1245461739599705">
        <ele>427.3999938964844</ele>
        <time>2015-05-03T08:26:42.000Z</time>
      </trkpt>
      <trkpt lat="39.84373463317752" lon="-6.124457158148289">
        <ele>428.0</ele>
        <time>2015-05-03T08:26:44.000Z</time>
      </trkpt>
      <trkpt lat="39.843744188547134" lon="-6.1243603471666574">
        <ele>428.6000061035156</ele>
        <time>2015-05-03T08:26:46.000Z</time>
      </trkpt>
      <trkpt lat="39.84375081025064" lon="-6.124220788478851">
        <ele>429.0</ele>
        <time>2015-05-03T08:26:49.000Z</time>
      </trkpt>
      <trkpt lat="39.84375868923962" lon="-6.124074272811413">
        <ele>429.79998779296875</ele>
        <time>2015-05-03T08:26:53.000Z</time>
      </trkpt>
      <trkpt lat="39.84378634952009" lon="-6.124101346358657">
        <ele>430.79998779296875</ele>
        <time>2015-05-03T08:26:56.000Z</time>
      </trkpt>
      <trkpt lat="39.84379909001291" lon="-6.124140070751309">
        <ele>431.3999938964844</ele>
        <time>2015-05-03T08:26:58.000Z</time>
      </trkpt>
      <trkpt lat="39.84382071532309" lon="-6.124182231724262">
        <ele>431.79998779296875</ele>
        <time>2015-05-03T08:27:00.000Z</time>
      </trkpt>
      <trkpt lat="39.84382901340723" lon="-6.124207377433777">
        <ele>432.0</ele>
        <time>2015-05-03T08:27:01.000Z</time>
      </trkpt>
      <trkpt lat="39.843860445544124" lon="-6.1242973152548075">
        <ele>433.20001220703125</ele>
        <time>2015-05-03T08:27:05.000Z</time>
      </trkpt>
      <trkpt lat="39.84386865980923" lon="-6.124345427379012">
        <ele>433.6000061035156</ele>
        <time>2015-05-03T08:27:07.000Z</time>
      </trkpt>
      <trkpt lat="39.84388609416783" lon="-6.124428827315569">
        <ele>434.3999938964844</ele>
        <time>2015-05-03T08:27:10.000Z</time>
      </trkpt>
      <trkpt lat="39.843905456364155" lon="-6.124538462609053">
        <ele>434.79998779296875</ele>
        <time>2015-05-03T08:27:14.000Z</time>
      </trkpt>
      <trkpt lat="39.8439306858927" lon="-6.124603925272822">
        <ele>435.6000061035156</ele>
        <time>2015-05-03T08:27:17.000Z</time>
      </trkpt>
      <trkpt lat="39.84395960345864" lon="-6.124685816466808">
        <ele>436.6000061035156</ele>
        <time>2015-05-03T08:27:21.000Z</time>
      </trkpt>
      <trkpt lat="39.84396672807634" lon="-6.124704591929913">
        <ele>436.79998779296875</ele>
        <time>2015-05-03T08:27:22.000Z</time>
      </trkpt>
      <trkpt lat="39.844016348943114" lon="-6.1247985530644655">
        <ele>438.20001220703125</ele>
        <time>2015-05-03T08:27:27.000Z</time>
      </trkpt>
      <trkpt lat="39.84404023736715" lon="-6.124827889725566">
        <ele>438.79998779296875</ele>
        <time>2015-05-03T08:27:29.000Z</time>
      </trkpt>
      <trkpt lat="39.84405976720154" lon="-6.124806180596352">
        <ele>439.20001220703125</ele>
        <time>2015-05-03T08:27:31.000Z</time>
      </trkpt>
      <trkpt lat="39.84406630508602" lon="-6.124786902219057">
        <ele>439.20001220703125</ele>
        <time>2015-05-03T08:27:32.000Z</time>
      </trkpt>
      <trkpt lat="39.84406881965697" lon="-6.124721355736256">
        <ele>440.20001220703125</ele>
        <time>2015-05-03T08:27:35.000Z</time>
      </trkpt>
      <trkpt lat="39.84407334588468" lon="-6.124680284410715">
        <ele>440.6000061035156</ele>
        <time>2015-05-03T08:27:37.000Z</time>
      </trkpt>
      <trkpt lat="39.844081392511725" lon="-6.1246460024267435">
        <ele>441.20001220703125</ele>
        <time>2015-05-03T08:27:39.000Z</time>
      </trkpt>
      <trkpt lat="39.84408323653042" lon="-6.12461406737566">
        <ele>441.79998779296875</ele>
        <time>2015-05-03T08:27:41.000Z</time>
      </trkpt>
      <trkpt lat="39.8440860863775" lon="-6.12459353171289">
        <ele>441.79998779296875</ele>
        <time>2015-05-03T08:27:42.000Z</time>
      </trkpt>
      <trkpt lat="39.844095557928085" lon="-6.1244704853743315">
        <ele>443.0</ele>
        <time>2015-05-03T08:27:48.000Z</time>
      </trkpt>
      <trkpt lat="39.8440963961184" lon="-6.124450117349625">
        <ele>443.0</ele>
        <time>2015-05-03T08:27:49.000Z</time>
      </trkpt>
      <trkpt lat="39.84411190263927" lon="-6.124406447634101">
        <ele>444.0</ele>
        <time>2015-05-03T08:27:53.000Z</time>
      </trkpt>
      <trkpt lat="39.844122380018234" lon="-6.124420529231429">
        <ele>444.20001220703125</ele>
        <time>2015-05-03T08:27:54.000Z</time>
      </trkpt>
      <trkpt lat="39.84414677135646" lon="-6.124507198110223">
        <ele>445.3999938964844</ele>
        <time>2015-05-03T08:27:59.000Z</time>
      </trkpt>
      <trkpt lat="39.84415624290705" lon="-6.124519603326917">
        <ele>445.79998779296875</ele>
        <time>2015-05-03T08:28:00.000Z</time>
      </trkpt>
      <trkpt lat="39.84419731423259" lon="-6.1246271431446075">
        <ele>446.6000061035156</ele>
        <time>2015-05-03T08:28:05.000Z</time>
      </trkpt>
      <trkpt lat="39.844233775511384" lon="-6.124682631343603">
        <ele>446.79998779296875</ele>
        <time>2015-05-03T08:28:08.000Z</time>
      </trkpt>
      <trkpt lat="39.84426436945796" lon="-6.124675506725907">
        <ele>447.0</ele>
        <time>2015-05-03T08:28:10.000Z</time>
      </trkpt>
      <trkpt lat="39.844292951747775" lon="-6.124660167843103">
        <ele>447.79998779296875</ele>
        <time>2015-05-03T08:28:12.000Z</time>
      </trkpt>
      <trkpt lat="39.844313906505704" lon="-6.124638291075826">
        <ele>448.0</ele>
        <time>2015-05-03T08:28:14.000Z</time>
      </trkpt>
      <trkpt lat="39.84431549906731" lon="-6.124621191993356">
        <ele>448.20001220703125</ele>
        <time>2015-05-03T08:28:15.000Z</time>
      </trkpt>
      <trkpt lat="39.844306698068976" lon="-6.124565871432424">
        <ele>448.79998779296875</ele>
        <time>2015-05-03T08:28:18.000Z</time>
      </trkpt>
      <trkpt lat="39.84430778771639" lon="-6.1244952119886875">
        <ele>449.6000061035156</ele>
        <time>2015-05-03T08:28:21.000Z</time>
      </trkpt>
      <trkpt lat="39.84430795535445" lon="-6.1244740057736635">
        <ele>449.79998779296875</ele>
        <time>2015-05-03T08:28:22.000Z</time>
      </trkpt>
      <trkpt lat="39.84430686570704" lon="-6.124451877549291">
        <ele>450.0</ele>
        <time>2015-05-03T08:28:23.000Z</time>
      </trkpt>
      <trkpt lat="39.84430996701121" lon="-6.124405022710562">
        <ele>450.6000061035156</ele>
        <time>2015-05-03T08:28:25.000Z</time>
      </trkpt>
      <trkpt lat="39.84432689845562" lon="-6.124374596402049">
        <ele>450.79998779296875</ele>
        <time>2015-05-03T08:28:27.000Z</time>
      </trkpt>
      <trkpt lat="39.84433963894844" lon="-6.12436973489821">
        <ele>451.20001220703125</ele>
        <time>2015-05-03T08:28:28.000Z</time>
      </trkpt>
      <trkpt lat="39.84437685459852" lon="-6.124355485662818">
        <ele>451.79998779296875</ele>
        <time>2015-05-03T08:28:31.000Z</time>
      </trkpt>
      <trkpt lat="39.84440837055445" lon="-6.1243609338998795">
        <ele>452.3999938964844</ele>
        <time>2015-05-03T08:28:33.000Z</time>
      </trkpt>
      <trkpt lat="39.84442312270403" lon="-6.124368645250797">
        <ele>452.79998779296875</ele>
        <time>2015-05-03T08:28:34.000Z</time>
      </trkpt>
      <trkpt lat="39.84444768168032" lon="-6.124385828152299">
        <ele>453.0</ele>
        <time>2015-05-03T08:28:36.000Z</time>
      </trkpt>
      <trkpt lat="39.844476683065295" lon="-6.124379122629762">
        <ele>453.79998779296875</ele>
        <time>2015-05-03T08:28:38.000Z</time>
      </trkpt>
      <trkpt lat="39.844502080231905" lon="-6.124337799847126">
        <ele>454.20001220703125</ele>
        <time>2015-05-03T08:28:41.000Z</time>
      </trkpt>
      <trkpt lat="39.844494201242924" lon="-6.124302260577679">
        <ele>454.79998779296875</ele>
        <time>2015-05-03T08:28:43.000Z</time>
      </trkpt>
      <trkpt lat="39.8444851487875" lon="-6.124260518699884">
        <ele>455.20001220703125</ele>
        <time>2015-05-03T08:28:45.000Z</time>
      </trkpt>
      <trkpt lat="39.84453083015978" lon="-6.1241906974464655">
        <ele>456.20001220703125</ele>
        <time>2015-05-03T08:28:50.000Z</time>
      </trkpt>
      <trkpt lat="39.84456578269601" lon="-6.124183153733611">
        <ele>456.79998779296875</ele>
        <time>2015-05-03T08:28:52.000Z</time>
      </trkpt>
      <trkpt lat="39.8446180857718" lon="-6.124172089621425">
        <ele>457.20001220703125</ele>
        <time>2015-05-03T08:28:55.000Z</time>
      </trkpt>
      <trkpt lat="39.844635017216206" lon="-6.1241677310317755">
        <ele>457.6000061035156</ele>
        <time>2015-05-03T08:28:56.000Z</time>
      </trkpt>
      <trkpt lat="39.84469871968031" lon="-6.124136885628104">
        <ele>458.6000061035156</ele>
        <time>2015-05-03T08:29:00.000Z</time>
      </trkpt>
      <trkpt lat="39.84471590258181" lon="-6.124132862314582">
        <ele>458.79998779296875</ele>
        <time>2015-05-03T08:29:01.000Z</time>
      </trkpt>
      <trkpt lat="39.84473233111203" lon="-6.124129761010408">
        <ele>459.20001220703125</ele>
        <time>2015-05-03T08:29:02.000Z</time>
      </trkpt>
      <trkpt lat="39.84476870857179" lon="-6.124120121821761">
        <ele>459.79998779296875</ele>
        <time>2015-05-03T08:29:04.000Z</time>
      </trkpt>
      <trkpt lat="39.844835344702005" lon="-6.124106207862496">
        <ele>460.6000061035156</ele>
        <time>2015-05-03T08:29:08.000Z</time>
      </trkpt>
      <trkpt lat="39.84486971050501" lon="-6.124091288074851">
        <ele>461.0</ele>
        <time>2015-05-03T08:29:10.000Z</time>
      </trkpt>
      <trkpt lat="39.84496492892504" lon="-6.124063124880195">
        <ele>461.6000061035156</ele>
        <time>2015-05-03T08:29:14.000Z</time>
      </trkpt>
      <trkpt lat="39.84503868967295" lon="-6.124043930321932">
        <ele>462.0</ele>
        <time>2015-05-03T08:29:17.000Z</time>
      </trkpt>
      <trkpt lat="39.84513457864523" lon="-6.124011659994721">
        <ele>462.79998779296875</ele>
        <time>2015-05-03T08:29:21.000Z</time>
      </trkpt>
      <trkpt lat="39.845204232260585" lon="-6.124004786834121">
        <ele>463.20001220703125</ele>
        <time>2015-05-03T08:29:24.000Z</time>
      </trkpt>
      <trkpt lat="39.845265839248896" lon="-6.12399447709322">
        <ele>464.0</ele>
        <time>2015-05-03T08:29:27.000Z</time>
      </trkpt>
      <trkpt lat="39.84528595581651" lon="-6.123990369960666">
        <ele>464.3999938964844</ele>
        <time>2015-05-03T08:29:28.000Z</time>
      </trkpt>
      <trkpt lat="39.845360554754734" lon="-6.123978300020099">
        <ele>465.6000061035156</ele>
        <time>2015-05-03T08:29:32.000Z</time>
      </trkpt>
      <trkpt lat="39.845395255833864" lon="-6.123971091583371">
        <ele>466.6000061035156</ele>
        <time>2015-05-03T08:29:34.000Z</time>
      </trkpt>
      <trkpt lat="39.84541344456375" lon="-6.12396857701242">
        <ele>466.79998779296875</ele>
        <time>2015-05-03T08:29:35.000Z</time>
      </trkpt>
      <trkpt lat="39.845495503395796" lon="-6.123972684144974">
        <ele>468.3999938964844</ele>
        <time>2015-05-03T08:29:40.000Z</time>
      </trkpt>
      <trkpt lat="39.845528695732355" lon="-6.12397444434464">
        <ele>469.3999938964844</ele>
        <time>2015-05-03T08:29:42.000Z</time>
      </trkpt>
      <trkpt lat="39.8455452080816" lon="-6.123973773792386">
        <ele>469.6000061035156</ele>
        <time>2015-05-03T08:29:43.000Z</time>
      </trkpt>
      <trkpt lat="39.84559533186257" lon="-6.123973773792386">
        <ele>470.79998779296875</ele>
        <time>2015-05-03T08:29:46.000Z</time>
      </trkpt>
      <trkpt lat="39.84564612619579" lon="-6.123979054391384">
        <ele>472.0</ele>
        <time>2015-05-03T08:29:49.000Z</time>
      </trkpt>
      <trkpt lat="39.84571008011699" lon="-6.123979892581701">
        <ele>473.20001220703125</ele>
        <time>2015-05-03T08:29:53.000Z</time>
      </trkpt>
      <trkpt lat="39.84575752168894" lon="-6.123981820419431">
        <ele>474.20001220703125</ele>
        <time>2015-05-03T08:29:56.000Z</time>
      </trkpt>
      <trkpt lat="39.845773447304964" lon="-6.123982993885875">
        <ele>474.3999938964844</ele>
        <time>2015-05-03T08:29:57.000Z</time>
      </trkpt>
      <trkpt lat="39.84584603458643" lon="-6.123986933380365">
        <ele>475.6000061035156</ele>
        <time>2015-05-03T08:30:02.000Z</time>
      </trkpt>
      <trkpt lat="39.84586212784052" lon="-6.123982155695558">
        <ele>476.0</ele>
        <time>2015-05-03T08:30:03.000Z</time>
      </trkpt>
      <trkpt lat="39.845877550542355" lon="-6.123982239514589">
        <ele>476.20001220703125</ele>
        <time>2015-05-03T08:30:04.000Z</time>
      </trkpt>
      <trkpt lat="39.84589213505387" lon="-6.123984670266509">
        <ele>477.0</ele>
        <time>2015-05-03T08:30:05.000Z</time>
      </trkpt>
      <trkpt lat="39.8459424264729" lon="-6.123985843732953">
        <ele>477.6000061035156</ele>
        <time>2015-05-03T08:30:08.000Z</time>
      </trkpt>
      <trkpt lat="39.84597595408559" lon="-6.123983999714255">
        <ele>478.20001220703125</ele>
        <time>2015-05-03T08:30:09.000Z</time>
      </trkpt>
      <trkpt lat="39.84604359604418" lon="-6.123988609761">
        <ele>479.6000061035156</ele>
        <time>2015-05-03T08:30:14.000Z</time>
      </trkpt>
      <trkpt lat="39.8460772074759" lon="-6.123993052169681">
        <ele>480.0</ele>
        <time>2015-05-03T08:30:16.000Z</time>
      </trkpt>
      <trkpt lat="39.84612691216171" lon="-6.123991375789046">
        <ele>481.0</ele>
        <time>2015-05-03T08:30:19.000Z</time>
      </trkpt>
      <trkpt lat="39.846171671524644" lon="-6.124000009149313">
        <ele>481.79998779296875</ele>
        <time>2015-05-03T08:30:22.000Z</time>
      </trkpt>
      <trkpt lat="39.84618617221713" lon="-6.123999338597059">
        <ele>482.20001220703125</ele>
        <time>2015-05-03T08:30:23.000Z</time>
      </trkpt>
      <trkpt lat="39.846251383423805" lon="-6.123996237292886">
        <ele>483.3999938964844</ele>
        <time>2015-05-03T08:30:27.000Z</time>
      </trkpt>
      <trkpt lat="39.84628667123616" lon="-6.124005960300565">
        <ele>484.20001220703125</ele>
        <time>2015-05-03T08:30:29.000Z</time>
      </trkpt>
      <trkpt lat="39.84630435705185" lon="-6.124012330546975">
        <ele>484.3999938964844</ele>
        <time>2015-05-03T08:30:30.000Z</time>
      </trkpt>
      <trkpt lat="39.846375519409776" lon="-6.1240478698164225">
        <ele>485.3999938964844</ele>
        <time>2015-05-03T08:30:34.000Z</time>
      </trkpt>
      <trkpt lat="39.84639102593064" lon="-6.124064717441797">
        <ele>485.79998779296875</ele>
        <time>2015-05-03T08:30:35.000Z</time>
      </trkpt>
      <trkpt lat="39.846467385068536" lon="-6.124128336086869">
        <ele>487.0</ele>
        <time>2015-05-03T08:30:39.000Z</time>
      </trkpt>
      <trkpt lat="39.84649194404483" lon="-6.12414107657969">
        <ele>487.0</ele>
        <time>2015-05-03T08:30:40.000Z</time>
      </trkpt>
      <trkpt lat="39.84657215885818" lon="-6.124172005802393">
        <ele>488.20001220703125</ele>
        <time>2015-05-03T08:30:43.000Z</time>
      </trkpt>
      <trkpt lat="39.84662286937237" lon="-6.124170161783695">
        <ele>488.79998779296875</ele>
        <time>2015-05-03T08:30:45.000Z</time>
      </trkpt>
      <trkpt lat="39.846667628735304" lon="-6.124134957790375">
        <ele>489.20001220703125</ele>
        <time>2015-05-03T08:30:47.000Z</time>
      </trkpt>
      <trkpt lat="39.84668456017971" lon="-6.124100005254149">
        <ele>489.3999938964844</ele>
        <time>2015-05-03T08:30:48.000Z</time>
      </trkpt>
      <trkpt lat="39.84669788740575" lon="-6.124058263376355">
        <ele>489.6000061035156</ele>
        <time>2015-05-03T08:30:49.000Z</time>
      </trkpt>
      <trkpt lat="39.84672060236335" lon="-6.123966230079532">
        <ele>489.6000061035156</ele>
        <time>2015-05-03T08:30:51.000Z</time>
      </trkpt>
      <trkpt lat="39.846782041713595" lon="-6.123775793239474">
        <ele>490.0</ele>
        <time>2015-05-03T08:30:55.000Z</time>
      </trkpt>
      <trkpt lat="39.8468026611954" lon="-6.123728770762682">
        <ele>490.6000061035156</ele>
        <time>2015-05-03T08:30:56.000Z</time>
      </trkpt>
      <trkpt lat="39.846837278455496" lon="-6.123623829334974">
        <ele>490.6000061035156</ele>
        <time>2015-05-03T08:30:58.000Z</time>
      </trkpt>
      <trkpt lat="39.84687902033329" lon="-6.123436912894249">
        <ele>490.0</ele>
        <time>2015-05-03T08:31:01.000Z</time>
      </trkpt>
      <trkpt lat="39.84696753323078" lon="-6.123091410845518">
        <ele>489.6000061035156</ele>
        <time>2015-05-03T08:31:06.000Z</time>
      </trkpt>
      <trkpt lat="39.84698832035065" lon="-6.123017901554704">
        <ele>489.79998779296875</ele>
        <time>2015-05-03T08:31:07.000Z</time>
      </trkpt>
      <trkpt lat="39.84708865173161" lon="-6.1227084416896105">
        <ele>488.6000061035156</ele>
        <time>2015-05-03T08:31:10.000Z</time>
      </trkpt>
      <trkpt lat="39.84715034253895" lon="-6.122531248256564">
        <ele>487.3999938964844</ele>
        <time>2015-05-03T08:31:13.000Z</time>
      </trkpt>
      <trkpt lat="39.84721236862242" lon="-6.122342823073268">
        <ele>486.3999938964844</ele>
        <time>2015-05-03T08:31:15.000Z</time>
      </trkpt>
      <trkpt lat="39.84728327952325" lon="-6.122037973254919">
        <ele>485.0</ele>
        <time>2015-05-03T08:31:18.000Z</time>
      </trkpt>
      <trkpt lat="39.84733331948519" lon="-6.121535981073976">
        <ele>485.20001220703125</ele>
        <time>2015-05-03T08:31:23.000Z</time>
      </trkpt>
      <trkpt lat="39.84740632586181" lon="-6.121051507070661">
        <ele>484.3999938964844</ele>
        <time>2015-05-03T08:31:28.000Z</time>
      </trkpt>
      <trkpt lat="39.84743247739971" lon="-6.120845647528768">
        <ele>483.79998779296875</ele>
        <time>2015-05-03T08:31:30.000Z</time>
      </trkpt>
      <trkpt lat="39.847462736070156" lon="-6.120536690577865">
        <ele>483.20001220703125</ele>
        <time>2015-05-03T08:31:33.000Z</time>
      </trkpt>
      <trkpt lat="39.84748084098101" lon="-6.12043434754014">
        <ele>483.20001220703125</ele>
        <time>2015-05-03T08:31:34.000Z</time>
      </trkpt>
      <trkpt lat="39.847508165985346" lon="-6.120330160483718">
        <ele>482.79998779296875</ele>
        <time>2015-05-03T08:31:35.000Z</time>
      </trkpt>
      <trkpt lat="39.84758100472391" lon="-6.120111308991909">
        <ele>481.3999938964844</ele>
        <time>2015-05-03T08:31:37.000Z</time>
      </trkpt>
      <trkpt lat="39.84765602275729" lon="-6.119887595996261">
        <ele>480.0</ele>
        <time>2015-05-03T08:31:39.000Z</time>
      </trkpt>
      <trkpt lat="39.84773606993258" lon="-6.11965156160295">
        <ele>478.3999938964844</ele>
        <time>2015-05-03T08:31:41.000Z</time>
      </trkpt>
      <trkpt lat="39.847772531211376" lon="-6.119526084512472">
        <ele>477.3999938964844</ele>
        <time>2015-05-03T08:31:42.000Z</time>
      </trkpt>
      <trkpt lat="39.847806142643094" lon="-6.119395326822996">
        <ele>476.6000061035156</ele>
        <time>2015-05-03T08:31:43.000Z</time>
      </trkpt>
      <trkpt lat="39.8478558473289" lon="-6.119126016274095">
        <ele>475.0</ele>
        <time>2015-05-03T08:31:45.000Z</time>
      </trkpt>
      <trkpt lat="39.84789767302573" lon="-6.118862489238381">
        <ele>473.0</ele>
        <time>2015-05-03T08:31:47.000Z</time>
      </trkpt>
      <trkpt lat="39.847978139296174" lon="-6.118621341884136">
        <ele>472.3999938964844</ele>
        <time>2015-05-03T08:31:49.000Z</time>
      </trkpt>
      <trkpt lat="39.84802641905844" lon="-6.118498714640737">
        <ele>471.79998779296875</ele>
        <time>2015-05-03T08:31:50.000Z</time>
      </trkpt>
      <trkpt lat="39.84811996109784" lon="-6.118237869814038">
        <ele>469.79998779296875</ele>
        <time>2015-05-03T08:31:52.000Z</time>
      </trkpt>
      <trkpt lat="39.84816228970885" lon="-6.11810258589685">
        <ele>468.79998779296875</ele>
        <time>2015-05-03T08:31:53.000Z</time>
      </trkpt>
      <trkpt lat="39.848202439025044" lon="-6.11796629615128">
        <ele>467.6000061035156</ele>
        <time>2015-05-03T08:31:54.000Z</time>
      </trkpt>
      <trkpt lat="39.848246024921536" lon="-6.117830257862806">
        <ele>466.3999938964844</ele>
        <time>2015-05-03T08:31:55.000Z</time>
      </trkpt>
      <trkpt lat="39.84834585338831" lon="-6.1175536550581455">
        <ele>464.3999938964844</ele>
        <time>2015-05-03T08:31:57.000Z</time>
      </trkpt>
      <trkpt lat="39.84843151643872" lon="-6.117263808846474">
        <ele>462.3999938964844</ele>
        <time>2015-05-03T08:31:59.000Z</time>
      </trkpt>
      <trkpt lat="39.84852145425975" lon="-6.116980165243149">
        <ele>461.20001220703125</ele>
        <time>2015-05-03T08:32:01.000Z</time>
      </trkpt>
      <trkpt lat="39.848619773983955" lon="-6.116692330688238">
        <ele>459.0</ele>
        <time>2015-05-03T08:32:03.000Z</time>
      </trkpt>
      <trkpt lat="39.848668556660414" lon="-6.11654095351696">
        <ele>457.79998779296875</ele>
        <time>2015-05-03T08:32:04.000Z</time>
      </trkpt>
      <trkpt lat="39.84876897186041" lon="-6.1162354331463575">
        <ele>455.6000061035156</ele>
        <time>2015-05-03T08:32:06.000Z</time>
      </trkpt>
      <trkpt lat="39.848825968801975" lon="-6.116085397079587">
        <ele>454.3999938964844</ele>
        <time>2015-05-03T08:32:07.000Z</time>
      </trkpt>
      <trkpt lat="39.84889017418027" lon="-6.115936199203134">
        <ele>452.6000061035156</ele>
        <time>2015-05-03T08:32:08.000Z</time>
      </trkpt>
      <trkpt lat="39.848956977948546" lon="-6.115789767354727">
        <ele>451.79998779296875</ele>
        <time>2015-05-03T08:32:09.000Z</time>
      </trkpt>
      <trkpt lat="39.849024871364236" lon="-6.115645095705986">
        <ele>450.79998779296875</ele>
        <time>2015-05-03T08:32:10.000Z</time>
      </trkpt>
      <trkpt lat="39.84915361739695" lon="-6.115357344970107">
        <ele>448.6000061035156</ele>
        <time>2015-05-03T08:32:12.000Z</time>
      </trkpt>
      <trkpt lat="39.84920885413885" lon="-6.115211416035891">
        <ele>447.3999938964844</ele>
        <time>2015-05-03T08:32:13.000Z</time>
      </trkpt>
      <trkpt lat="39.84925428405404" lon="-6.115059033036232">
        <ele>446.6000061035156</ele>
        <time>2015-05-03T08:32:14.000Z</time>
      </trkpt>
      <trkpt lat="39.84929267317057" lon="-6.1149027943611145">
        <ele>445.0</ele>
        <time>2015-05-03T08:32:15.000Z</time>
      </trkpt>
      <trkpt lat="39.84933332540095" lon="-6.114745382219553">
        <ele>443.79998779296875</ele>
        <time>2015-05-03T08:32:16.000Z</time>
      </trkpt>
      <trkpt lat="39.84937598928809" lon="-6.114587215706706">
        <ele>442.79998779296875</ele>
        <time>2015-05-03T08:32:17.000Z</time>
      </trkpt>
      <trkpt lat="39.849425023421645" lon="-6.11443106085062">
        <ele>441.3999938964844</ele>
        <time>2015-05-03T08:32:18.000Z</time>
      </trkpt>
      <trkpt lat="39.849475901573896" lon="-6.114280940964818">
        <ele>440.0</ele>
        <time>2015-05-03T08:32:19.000Z</time>
      </trkpt>
      <trkpt lat="39.84953373670578" lon="-6.114136436954141">
        <ele>438.20001220703125</ele>
        <time>2015-05-03T08:32:20.000Z</time>
      </trkpt>
      <trkpt lat="39.849647814407945" lon="-6.113856565207243">
        <ele>436.3999938964844</ele>
        <time>2015-05-03T08:32:22.000Z</time>
      </trkpt>
      <trkpt lat="39.84969559125602" lon="-6.11372304148972">
        <ele>435.3999938964844</ele>
        <time>2015-05-03T08:32:23.000Z</time>
      </trkpt>
      <trkpt lat="39.849746972322464" lon="-6.113592199981213">
        <ele>433.79998779296875</ele>
        <time>2015-05-03T08:32:24.000Z</time>
      </trkpt>
      <trkpt lat="39.84980975277722" lon="-6.113468483090401">
        <ele>432.6000061035156</ele>
        <time>2015-05-03T08:32:25.000Z</time>
      </trkpt>
      <trkpt lat="39.84988166950643" lon="-6.1133471969515085">
        <ele>431.20001220703125</ele>
        <time>2015-05-03T08:32:26.000Z</time>
      </trkpt>
      <trkpt lat="39.84995475970209" lon="-6.113222474232316">
        <ele>429.79998779296875</ele>
        <time>2015-05-03T08:32:27.000Z</time>
      </trkpt>
      <trkpt lat="39.8500248324126" lon="-6.11310051754117">
        <ele>427.79998779296875</ele>
        <time>2015-05-03T08:32:28.000Z</time>
      </trkpt>
      <trkpt lat="39.85008585266769" lon="-6.112972525879741">
        <ele>426.3999938964844</ele>
        <time>2015-05-03T08:32:29.000Z</time>
      </trkpt>
      <trkpt lat="39.85014150850475" lon="-6.112848222255707">
        <ele>425.20001220703125</ele>
        <time>2015-05-03T08:32:30.000Z</time>
      </trkpt>
      <trkpt lat="39.850240498781204" lon="-6.112600285559893">
        <ele>422.6000061035156</ele>
        <time>2015-05-03T08:32:32.000Z</time>
      </trkpt>
      <trkpt lat="39.85028366558254" lon="-6.11248143017292">
        <ele>421.3999938964844</ele>
        <time>2015-05-03T08:32:33.000Z</time>
      </trkpt>
      <trkpt lat="39.85031761229038" lon="-6.112367184832692">
        <ele>419.79998779296875</ele>
        <time>2015-05-03T08:32:34.000Z</time>
      </trkpt>
      <trkpt lat="39.85034342855215" lon="-6.112263081595302">
        <ele>418.6000061035156</ele>
        <time>2015-05-03T08:32:35.000Z</time>
      </trkpt>
      <trkpt lat="39.8503702506423" lon="-6.112177837640047">
        <ele>417.20001220703125</ele>
        <time>2015-05-03T08:32:36.000Z</time>
      </trkpt>
      <trkpt lat="39.850401347503066" lon="-6.112116649746895">
        <ele>415.3999938964844</ele>
        <time>2015-05-03T08:32:37.000Z</time>
      </trkpt>
      <trkpt lat="39.85048499889672" lon="-6.1120939347893">
        <ele>413.79998779296875</ele>
        <time>2015-05-03T08:32:39.000Z</time>
      </trkpt>
      <trkpt lat="39.85055431723595" lon="-6.112175490707159">
        <ele>412.6000061035156</ele>
        <time>2015-05-03T08:32:41.000Z</time>
      </trkpt>
      <trkpt lat="39.85057300888002" lon="-6.112247658893466">
        <ele>412.20001220703125</ele>
        <time>2015-05-03T08:32:42.000Z</time>
      </trkpt>
      <trkpt lat="39.85059698112309" lon="-6.1123270355165005">
        <ele>411.3999938964844</ele>
        <time>2015-05-03T08:32:43.000Z</time>
      </trkpt>
      <trkpt lat="39.85066981986165" lon="-6.1124922428280115">
        <ele>410.0</ele>
        <time>2015-05-03T08:32:45.000Z</time>
      </trkpt>
      <trkpt lat="39.850708711892366" lon="-6.112581426277757">
        <ele>409.20001220703125</ele>
        <time>2015-05-03T08:32:46.000Z</time>
      </trkpt>
      <trkpt lat="39.85074265860021" lon="-6.112677315250039">
        <ele>408.6000061035156</ele>
        <time>2015-05-03T08:32:47.000Z</time>
      </trkpt>
      <trkpt lat="39.85080652870238" lon="-6.112869093194604">
        <ele>408.0</ele>
        <time>2015-05-03T08:32:49.000Z</time>
      </trkpt>
      <trkpt lat="39.85087274573743" lon="-6.113043772056699">
        <ele>408.3999938964844</ele>
        <time>2015-05-03T08:32:51.000Z</time>
      </trkpt>
      <trkpt lat="39.85091515816748" lon="-6.113117365166545">
        <ele>409.0</ele>
        <time>2015-05-03T08:32:52.000Z</time>
      </trkpt>
      <trkpt lat="39.85104935243726" lon="-6.113191545009613">
        <ele>409.20001220703125</ele>
        <time>2015-05-03T08:32:54.000Z</time>
      </trkpt>
      <trkpt lat="39.851224198937416" lon="-6.113194227218628">
        <ele>407.3999938964844</ele>
        <time>2015-05-03T08:32:56.000Z</time>
      </trkpt>
      <trkpt lat="39.851321429014206" lon="-6.113200765103102">
        <ele>406.0</ele>
        <time>2015-05-03T08:32:57.000Z</time>
      </trkpt>
      <trkpt lat="39.851423520594835" lon="-6.1132060457021">
        <ele>404.79998779296875</ele>
        <time>2015-05-03T08:32:58.000Z</time>
      </trkpt>
      <trkpt lat="39.851525109261274" lon="-6.113208057358861">
        <ele>403.3999938964844</ele>
        <time>2015-05-03T08:32:59.000Z</time>
      </trkpt>
      <trkpt lat="39.851621333509684" lon="-6.113191964104772">
        <ele>401.6000061035156</ele>
        <time>2015-05-03T08:33:00.000Z</time>
      </trkpt>
      <trkpt lat="39.851705906912684" lon="-6.113157598301768">
        <ele>400.79998779296875</ele>
        <time>2015-05-03T08:33:01.000Z</time>
      </trkpt>
      <trkpt lat="39.851782098412514" lon="-6.113105965778232">
        <ele>400.20001220703125</ele>
        <time>2015-05-03T08:33:02.000Z</time>
      </trkpt>
      <trkpt lat="39.85184990800917" lon="-6.113038491457701">
        <ele>398.0</ele>
        <time>2015-05-03T08:33:03.000Z</time>
      </trkpt>
      <trkpt lat="39.85190858133137" lon="-6.112950900569558">
        <ele>396.79998779296875</ele>
        <time>2015-05-03T08:33:04.000Z</time>
      </trkpt>
      <trkpt lat="39.85196373425424" lon="-6.112850401550531">
        <ele>395.6000061035156</ele>
        <time>2015-05-03T08:33:05.000Z</time>
      </trkpt>
      <trkpt lat="39.8520209826529" lon="-6.112745543941855">
        <ele>394.6000061035156</ele>
        <time>2015-05-03T08:33:06.000Z</time>
      </trkpt>
      <trkpt lat="39.85208619385958" lon="-6.112643536180258">
        <ele>393.3999938964844</ele>
        <time>2015-05-03T08:33:07.000Z</time>
      </trkpt>
      <trkpt lat="39.85216749832034" lon="-6.112553849816322">
        <ele>392.0</ele>
        <time>2015-05-03T08:33:08.000Z</time>
      </trkpt>
      <trkpt lat="39.85234008170664" lon="-6.112393252551556">
        <ele>390.3999938964844</ele>
        <time>2015-05-03T08:33:10.000Z</time>
      </trkpt>
      <trkpt lat="39.852418787777424" lon="-6.112303650006652">
        <ele>389.6000061035156</ele>
        <time>2015-05-03T08:33:11.000Z</time>
      </trkpt>
      <trkpt lat="39.852490620687604" lon="-6.1122083477675915">
        <ele>388.79998779296875</ele>
        <time>2015-05-03T08:33:12.000Z</time>
      </trkpt>
      <trkpt lat="39.852697402238846" lon="-6.111922776326537">
        <ele>387.6000061035156</ele>
        <time>2015-05-03T08:33:15.000Z</time>
      </trkpt>
      <trkpt lat="39.85282262787223" lon="-6.111734686419368">
        <ele>387.20001220703125</ele>
        <time>2015-05-03T08:33:17.000Z</time>
      </trkpt>
      <trkpt lat="39.852885911241174" lon="-6.111645754426718">
        <ele>386.6000061035156</ele>
        <time>2015-05-03T08:33:18.000Z</time>
      </trkpt>
      <trkpt lat="39.8529589176178" lon="-6.111568054184318">
        <ele>386.20001220703125</ele>
        <time>2015-05-03T08:33:19.000Z</time>
      </trkpt>
      <trkpt lat="39.85303862951696" lon="-6.1115059442818165">
        <ele>385.6000061035156</ele>
        <time>2015-05-03T08:33:20.000Z</time>
      </trkpt>
      <trkpt lat="39.85312957316637" lon="-6.1114664655178785">
        <ele>384.79998779296875</ele>
        <time>2015-05-03T08:33:21.000Z</time>
      </trkpt>
      <trkpt lat="39.853221187368035" lon="-6.111440733075142">
        <ele>384.0</ele>
        <time>2015-05-03T08:33:22.000Z</time>
      </trkpt>
      <trkpt lat="39.85345202498138" lon="-6.11141961067915">
        <ele>384.3999938964844</ele>
        <time>2015-05-03T08:33:25.000Z</time>
      </trkpt>
      <trkpt lat="39.853518325835466" lon="-6.111429249867797">
        <ele>385.3999938964844</ele>
        <time>2015-05-03T08:33:26.000Z</time>
      </trkpt>
      <trkpt lat="39.853637013584375" lon="-6.111426902934909">
        <ele>387.79998779296875</ele>
        <time>2015-05-03T08:33:28.000Z</time>
      </trkpt>
      <trkpt lat="39.85369090922177" lon="-6.1114022601395845">
        <ele>388.6000061035156</ele>
        <time>2015-05-03T08:33:29.000Z</time>
      </trkpt>
      <trkpt lat="39.853741116821766" lon="-6.111360937356949">
        <ele>388.79998779296875</ele>
        <time>2015-05-03T08:33:30.000Z</time>
      </trkpt>
      <trkpt lat="39.85379132442176" lon="-6.111314250156283">
        <ele>389.20001220703125</ele>
        <time>2015-05-03T08:33:31.000Z</time>
      </trkpt>
      <trkpt lat="39.853839520365" lon="-6.111261611804366">
        <ele>389.0</ele>
        <time>2015-05-03T08:33:32.000Z</time>
      </trkpt>
      <trkpt lat="39.85388746485114" lon="-6.111209644004703">
        <ele>389.3999938964844</ele>
        <time>2015-05-03T08:33:33.000Z</time>
      </trkpt>
      <trkpt lat="39.85398226417601" lon="-6.111098416149616">
        <ele>389.3999938964844</ele>
        <time>2015-05-03T08:33:35.000Z</time>
      </trkpt>
      <trkpt lat="39.85402920283377" lon="-6.111042508855462">
        <ele>389.20001220703125</ele>
        <time>2015-05-03T08:33:36.000Z</time>
      </trkpt>
      <trkpt lat="39.85412685200572" lon="-6.110936729237437">
        <ele>389.20001220703125</ele>
        <time>2015-05-03T08:33:38.000Z</time>
      </trkpt>
      <trkpt lat="39.854176891967654" lon="-6.110882246866822">
        <ele>389.0</ele>
        <time>2015-05-03T08:33:39.000Z</time>
      </trkpt>
      <trkpt lat="39.85427915118635" lon="-6.110760206356645">
        <ele>388.3999938964844</ele>
        <time>2015-05-03T08:33:41.000Z</time>
      </trkpt>
      <trkpt lat="39.85432810150087" lon="-6.110688792541623">
        <ele>387.79998779296875</ele>
        <time>2015-05-03T08:33:42.000Z</time>
      </trkpt>
      <trkpt lat="39.854372441768646" lon="-6.1106062307953835">
        <ele>387.3999938964844</ele>
        <time>2015-05-03T08:33:43.000Z</time>
      </trkpt>
      <trkpt lat="39.85441996715963" lon="-6.110514365136623">
        <ele>386.6000061035156</ele>
        <time>2015-05-03T08:33:44.000Z</time>
      </trkpt>
      <trkpt lat="39.85451971180737" lon="-6.110304985195398">
        <ele>384.79998779296875</ele>
        <time>2015-05-03T08:33:46.000Z</time>
      </trkpt>
      <trkpt lat="39.85457729548216" lon="-6.110191661864519">
        <ele>383.3999938964844</ele>
        <time>2015-05-03T08:33:47.000Z</time>
      </trkpt>
      <trkpt lat="39.854644099250436" lon="-6.11007884144783">
        <ele>382.0</ele>
        <time>2015-05-03T08:33:48.000Z</time>
      </trkpt>
      <trkpt lat="39.85471375286579" lon="-6.109972475096583">
        <ele>380.6000061035156</ele>
        <time>2015-05-03T08:33:49.000Z</time>
      </trkpt>
      <trkpt lat="39.854790698736906" lon="-6.109886225312948">
        <ele>380.0</ele>
        <time>2015-05-03T08:33:50.000Z</time>
      </trkpt>
      <trkpt lat="39.85487108118832" lon="-6.1098190024495125">
        <ele>380.0</ele>
        <time>2015-05-03T08:33:51.000Z</time>
      </trkpt>
      <trkpt lat="39.855091692879796" lon="-6.10970794223249">
        <ele>381.6000061035156</ele>
        <time>2015-05-03T08:33:54.000Z</time>
      </trkpt>
      <trkpt lat="39.8551535513252" lon="-6.109679276123643">
        <ele>382.3999938964844</ele>
        <time>2015-05-03T08:33:55.000Z</time>
      </trkpt>
      <trkpt lat="39.855265617370605" lon="-6.109599061310291">
        <ele>383.3999938964844</ele>
        <time>2015-05-03T08:33:57.000Z</time>
      </trkpt>
      <trkpt lat="39.85533703118563" lon="-6.109522869810462">
        <ele>383.79998779296875</ele>
        <time>2015-05-03T08:33:58.000Z</time>
      </trkpt>
      <trkpt lat="39.855362847447395" lon="-6.109498478472233">
        <ele>383.79998779296875</ele>
        <time>2015-05-03T08:33:59.000Z</time>
      </trkpt>
      <trkpt lat="39.855419006198645" lon="-6.109451791271567">
        <ele>383.6000061035156</ele>
        <time>2015-05-03T08:34:00.000Z</time>
      </trkpt>
      <trkpt lat="39.8555195890367" lon="-6.1093333549797535">
        <ele>383.0</ele>
        <time>2015-05-03T08:34:02.000Z</time>
      </trkpt>
      <trkpt lat="39.85559460707009" lon="-6.109181139618158">
        <ele>382.3999938964844</ele>
        <time>2015-05-03T08:34:04.000Z</time>
      </trkpt>
      <trkpt lat="39.85562553629279" lon="-6.109099667519331">
        <ele>382.20001220703125</ele>
        <time>2015-05-03T08:34:05.000Z</time>
      </trkpt>
      <trkpt lat="39.85565730370581" lon="-6.109015177935362">
        <ele>382.20001220703125</ele>
        <time>2015-05-03T08:34:06.000Z</time>
      </trkpt>
      <trkpt lat="39.85590892843902" lon="-6.108444621786475">
        <ele>381.0</ele>
        <time>2015-05-03T08:34:13.000Z</time>
      </trkpt>
      <trkpt lat="39.856056701391935" lon="-6.108214790001512">
        <ele>380.20001220703125</ele>
        <time>2015-05-03T08:34:16.000Z</time>
      </trkpt>
      <trkpt lat="39.85612819902599" lon="-6.108155529946089">
        <ele>379.3999938964844</ele>
        <time>2015-05-03T08:34:17.000Z</time>
      </trkpt>
      <trkpt lat="39.85621335916221" lon="-6.1081096809357405">
        <ele>377.20001220703125</ele>
        <time>2015-05-03T08:34:18.000Z</time>
      </trkpt>
      <trkpt lat="39.85630908049643" lon="-6.1080672685056925">
        <ele>375.79998779296875</ele>
        <time>2015-05-03T08:34:19.000Z</time>
      </trkpt>
      <trkpt lat="39.85640773549676" lon="-6.108023347333074">
        <ele>374.6000061035156</ele>
        <time>2015-05-03T08:34:20.000Z</time>
      </trkpt>
      <trkpt lat="39.85650697723031" lon="-6.107968362048268">
        <ele>373.0</ele>
        <time>2015-05-03T08:34:21.000Z</time>
      </trkpt>
      <trkpt lat="39.85660135746002" lon="-6.107901558279991">
        <ele>371.0</ele>
        <time>2015-05-03T08:34:22.000Z</time>
      </trkpt>
      <trkpt lat="39.85668433830142" lon="-6.107832659035921">
        <ele>369.20001220703125</ele>
        <time>2015-05-03T08:34:23.000Z</time>
      </trkpt>
      <trkpt lat="39.85676019452512" lon="-6.1077512707561255">
        <ele>367.20001220703125</ele>
        <time>2015-05-03T08:34:24.000Z</time>
      </trkpt>
      <trkpt lat="39.85683127306402" lon="-6.107658315449953">
        <ele>365.6000061035156</ele>
        <time>2015-05-03T08:34:25.000Z</time>
      </trkpt>
      <trkpt lat="39.85688994638622" lon="-6.107561839744449">
        <ele>363.79998779296875</ele>
        <time>2015-05-03T08:34:26.000Z</time>
      </trkpt>
      <trkpt lat="39.85693495720625" lon="-6.1074720695614815">
        <ele>362.3999938964844</ele>
        <time>2015-05-03T08:34:27.000Z</time>
      </trkpt>
      <trkpt lat="39.85696429386735" lon="-6.107378862798214">
        <ele>360.6000061035156</ele>
        <time>2015-05-03T08:34:28.000Z</time>
      </trkpt>
      <trkpt lat="39.85697275958955" lon="-6.107274675741792">
        <ele>358.6000061035156</ele>
        <time>2015-05-03T08:34:29.000Z</time>
      </trkpt>
      <trkpt lat="39.85697108320892" lon="-6.107170823961496">
        <ele>356.79998779296875</ele>
        <time>2015-05-03T08:34:30.000Z</time>
      </trkpt>
      <trkpt lat="39.8569668084383" lon="-6.107068564742804">
        <ele>354.79998779296875</ele>
        <time>2015-05-03T08:34:31.000Z</time>
      </trkpt>
      <trkpt lat="39.85696144402027" lon="-6.106967059895396">
        <ele>352.3999938964844</ele>
        <time>2015-05-03T08:34:32.000Z</time>
      </trkpt>
      <trkpt lat="39.856962533667684" lon="-6.106866979971528">
        <ele>350.20001220703125</ele>
        <time>2015-05-03T08:34:33.000Z</time>
      </trkpt>
      <trkpt lat="39.85697686672211" lon="-6.106772851198912">
        <ele>347.79998779296875</ele>
        <time>2015-05-03T08:34:34.000Z</time>
      </trkpt>
      <trkpt lat="39.85700435936451" lon="-6.10668333247304">
        <ele>346.0</ele>
        <time>2015-05-03T08:34:35.000Z</time>
      </trkpt>
      <trkpt lat="39.85703528858721" lon="-6.106595825403929">
        <ele>343.6000061035156</ele>
        <time>2015-05-03T08:34:36.000Z</time>
      </trkpt>
      <trkpt lat="39.857055908069015" lon="-6.106513598933816">
        <ele>341.6000061035156</ele>
        <time>2015-05-03T08:34:37.000Z</time>
      </trkpt>
      <trkpt lat="39.85705523751676" lon="-6.106437658891082">
        <ele>339.6000061035156</ele>
        <time>2015-05-03T08:34:38.000Z</time>
      </trkpt>
      <trkpt lat="39.85702841542661" lon="-6.106378147378564">
        <ele>338.20001220703125</ele>
        <time>2015-05-03T08:34:39.000Z</time>
      </trkpt>
      <trkpt lat="39.85698591917753" lon="-6.106325928121805">
        <ele>337.0</ele>
        <time>2015-05-03T08:34:40.000Z</time>
      </trkpt>
      <trkpt lat="39.856867818161845" lon="-6.106243534013629">
        <ele>335.20001220703125</ele>
        <time>2015-05-03T08:34:42.000Z</time>
      </trkpt>
      <trkpt lat="39.85680361278355" lon="-6.106214029714465">
        <ele>334.3999938964844</ele>
        <time>2015-05-03T08:34:43.000Z</time>
      </trkpt>
      <trkpt lat="39.856738736853" lon="-6.1061853636056185">
        <ele>333.20001220703125</ele>
        <time>2015-05-03T08:34:44.000Z</time>
      </trkpt>
      <trkpt lat="39.85661141574383" lon="-6.106130126863718">
        <ele>333.0</ele>
        <time>2015-05-03T08:34:46.000Z</time>
      </trkpt>
      <trkpt lat="39.85655777156353" lon="-6.106079835444689">
        <ele>332.79998779296875</ele>
        <time>2015-05-03T08:34:47.000Z</time>
      </trkpt>
      <trkpt lat="39.856459284201264" lon="-6.105896942317486">
        <ele>332.20001220703125</ele>
        <time>2015-05-03T08:34:50.000Z</time>
      </trkpt>
      <trkpt lat="39.85646054148674" lon="-6.105847992002964">
        <ele>332.20001220703125</ele>
        <time>2015-05-03T08:34:51.000Z</time>
      </trkpt>
      <trkpt lat="39.856479736045" lon="-6.105819996446371">
        <ele>332.20001220703125</ele>
        <time>2015-05-03T08:34:52.000Z</time>
      </trkpt>
      <trkpt lat="39.856573697179556" lon="-6.105838855728507">
        <ele>332.6000061035156</ele>
        <time>2015-05-03T08:34:55.000Z</time>
      </trkpt>
      <trkpt lat="39.8566750343889" lon="-6.10583801753819">
        <ele>333.0</ele>
        <time>2015-05-03T08:34:58.000Z</time>
      </trkpt>
      <trkpt lat="39.85671132802963" lon="-6.10583315603435">
        <ele>333.20001220703125</ele>
        <time>2015-05-03T08:34:59.000Z</time>
      </trkpt>
      <trkpt lat="39.85674041323364" lon="-6.105830557644367">
        <ele>333.3999938964844</ele>
        <time>2015-05-03T08:35:00.000Z</time>
      </trkpt>
      <trkpt lat="39.85682548955083" lon="-6.105787977576256">
        <ele>334.20001220703125</ele>
        <time>2015-05-03T08:35:04.000Z</time>
      </trkpt>
      <trkpt lat="39.85684401355684" lon="-6.105775907635689">
        <ele>334.6000061035156</ele>
        <time>2015-05-03T08:35:05.000Z</time>
      </trkpt>
      <trkpt lat="39.856878546997905" lon="-6.105759479105473">
        <ele>335.6000061035156</ele>
        <time>2015-05-03T08:35:07.000Z</time>
      </trkpt>
      <trkpt lat="39.85689396969974" lon="-6.105754366144538">
        <ele>336.79998779296875</ele>
        <time>2015-05-03T08:35:08.000Z</time>
      </trkpt>
      <trkpt lat="39.85692171379924" lon="-6.105740536004305">
        <ele>337.79998779296875</ele>
        <time>2015-05-03T08:35:10.000Z</time>
      </trkpt>
      <trkpt lat="39.85695105046034" lon="-6.105722431093454">
        <ele>338.3999938964844</ele>
        <time>2015-05-03T08:35:12.000Z</time>
      </trkpt>
      <trkpt lat="39.856975860893726" lon="-6.1057032365351915">
        <ele>339.3999938964844</ele>
        <time>2015-05-03T08:35:14.000Z</time>
      </trkpt>
      <trkpt lat="39.85699656419456" lon="-6.1056894063949585">
        <ele>340.3999938964844</ele>
        <time>2015-05-03T08:35:16.000Z</time>
      </trkpt>
      <trkpt lat="39.8570048622787" lon="-6.105683036148548">
        <ele>340.6000061035156</ele>
        <time>2015-05-03T08:35:17.000Z</time>
      </trkpt>
      <trkpt lat="39.85702455975115" lon="-6.105665015056729">
        <ele>341.3999938964844</ele>
        <time>2015-05-03T08:35:19.000Z</time>
      </trkpt>
      <trkpt lat="39.85704576596618" lon="-6.1056458204984665">
        <ele>342.20001220703125</ele>
        <time>2015-05-03T08:35:21.000Z</time>
      </trkpt>
      <trkpt lat="39.857057416811585" lon="-6.105643138289452">
        <ele>342.3999938964844</ele>
        <time>2015-05-03T08:35:22.000Z</time>
      </trkpt>
      <trkpt lat="39.85706873238087" lon="-6.1056360974907875">
        <ele>342.6000061035156</ele>
        <time>2015-05-03T08:35:23.000Z</time>
      </trkpt>
      <trkpt lat="39.857102343812585" lon="-6.1056069284677505">
        <ele>343.79998779296875</ele>
        <time>2015-05-03T08:35:26.000Z</time>
      </trkpt>
      <trkpt lat="39.85712413676083" lon="-6.1055839620530605">
        <ele>344.6000061035156</ele>
        <time>2015-05-03T08:35:28.000Z</time>
      </trkpt>
      <trkpt lat="39.857146851718426" lon="-6.1055633425712585">
        <ele>345.20001220703125</ele>
        <time>2015-05-03T08:35:30.000Z</time>
      </trkpt>
      <trkpt lat="39.85717778094113" lon="-6.105527551844716">
        <ele>346.20001220703125</ele>
        <time>2015-05-03T08:35:33.000Z</time>
      </trkpt>
      <trkpt lat="39.857209380716085" lon="-6.105491844937205">
        <ele>347.0</ele>
        <time>2015-05-03T08:35:36.000Z</time>
      </trkpt>
      <trkpt lat="39.857230838388205" lon="-6.105464771389961">
        <ele>347.3999938964844</ele>
        <time>2015-05-03T08:35:38.000Z</time>
      </trkpt>
      <trkpt lat="39.857239723205566" lon="-6.105451863259077">
        <ele>347.3999938964844</ele>
        <time>2015-05-03T08:35:39.000Z</time>
      </trkpt>
      <trkpt lat="39.8572744242847" lon="-6.10542269423604">
        <ele>348.6000061035156</ele>
        <time>2015-05-03T08:35:42.000Z</time>
      </trkpt>
      <trkpt lat="39.8573225364089" lon="-6.105370726436377">
        <ele>349.6000061035156</ele>
        <time>2015-05-03T08:35:46.000Z</time>
      </trkpt>
      <trkpt lat="39.85735380090773" lon="-6.105329571291804">
        <ele>349.79998779296875</ele>
        <time>2015-05-03T08:35:49.000Z</time>
      </trkpt>
      <trkpt lat="39.85736385919154" lon="-6.105316830798984">
        <ele>350.20001220703125</ele>
        <time>2015-05-03T08:35:50.000Z</time>
      </trkpt>
      <trkpt lat="39.857384227216244" lon="-6.105295205488801">
        <ele>350.6000061035156</ele>
        <time>2015-05-03T08:35:52.000Z</time>
      </trkpt>
      <trkpt lat="39.857401829212904" lon="-6.1052667908370495">
        <ele>351.20001220703125</ele>
        <time>2015-05-03T08:35:54.000Z</time>
      </trkpt>
      <trkpt lat="39.8574298247695" lon="-6.1052226182073355">
        <ele>352.0</ele>
        <time>2015-05-03T08:35:57.000Z</time>
      </trkpt>
      <trkpt lat="39.85744281671941" lon="-6.105207782238722">
        <ele>352.3999938964844</ele>
        <time>2015-05-03T08:35:58.000Z</time>
      </trkpt>
      <trkpt lat="39.85747139900923" lon="-6.10516176559031">
        <ele>353.20001220703125</ele>
        <time>2015-05-03T08:36:01.000Z</time>
      </trkpt>
      <trkpt lat="39.85750341787934" lon="-6.105093201622367">
        <ele>354.20001220703125</ele>
        <time>2015-05-03T08:36:05.000Z</time>
      </trkpt>
      <trkpt lat="39.85750869847834" lon="-6.1050730012357235">
        <ele>354.3999938964844</ele>
        <time>2015-05-03T08:36:06.000Z</time>
      </trkpt>
      <trkpt lat="39.857531916350126" lon="-6.1049566604197025">
        <ele>355.20001220703125</ele>
        <time>2015-05-03T08:36:11.000Z</time>
      </trkpt>
      <trkpt lat="39.85753359273076" lon="-6.1049319338053465">
        <ele>355.6000061035156</ele>
        <time>2015-05-03T08:36:12.000Z</time>
      </trkpt>
      <trkpt lat="39.857539711520076" lon="-6.104743089526892">
        <ele>356.0</ele>
        <time>2015-05-03T08:36:19.000Z</time>
      </trkpt>
      <trkpt lat="39.8575400467962" lon="-6.104652062058449">
        <ele>356.6000061035156</ele>
        <time>2015-05-03T08:36:22.000Z</time>
      </trkpt>
      <trkpt lat="39.85753560438752" lon="-6.104570087045431">
        <ele>356.79998779296875</ele>
        <time>2015-05-03T08:36:24.000Z</time>
      </trkpt>
      <trkpt lat="39.85754323191941" lon="-6.104340087622404">
        <ele>357.3999938964844</ele>
        <time>2015-05-03T08:36:30.000Z</time>
      </trkpt>
      <trkpt lat="39.85755421221256" lon="-6.104234727099538">
        <ele>358.0</ele>
        <time>2015-05-03T08:36:33.000Z</time>
      </trkpt>
      <trkpt lat="39.85755857080221" lon="-6.10413464717567">
        <ele>358.20001220703125</ele>
        <time>2015-05-03T08:36:36.000Z</time>
      </trkpt>
      <trkpt lat="39.857541639357805" lon="-6.103939516469836">
        <ele>359.0</ele>
        <time>2015-05-03T08:36:41.000Z</time>
      </trkpt>
      <trkpt lat="39.857538202777505" lon="-6.10386248677969">
        <ele>359.20001220703125</ele>
        <time>2015-05-03T08:36:43.000Z</time>
      </trkpt>
      <trkpt lat="39.8575453273952" lon="-6.103754946961999">
        <ele>360.20001220703125</ele>
        <time>2015-05-03T08:36:46.000Z</time>
      </trkpt>
      <trkpt lat="39.857560247182846" lon="-6.1036572977900505">
        <ele>361.20001220703125</ele>
        <time>2015-05-03T08:36:49.000Z</time>
      </trkpt>
      <trkpt lat="39.857573825865984" lon="-6.103589069098234">
        <ele>361.3999938964844</ele>
        <time>2015-05-03T08:36:51.000Z</time>
      </trkpt>
      <trkpt lat="39.85757156275213" lon="-6.103401817381382">
        <ele>362.0</ele>
        <time>2015-05-03T08:36:56.000Z</time>
      </trkpt>
      <trkpt lat="39.85756544396281" lon="-6.103368876501918">
        <ele>362.3999938964844</ele>
        <time>2015-05-03T08:36:57.000Z</time>
      </trkpt>
      <trkpt lat="39.85754951834679" lon="-6.10324147157371">
        <ele>363.20001220703125</ele>
        <time>2015-05-03T08:37:01.000Z</time>
      </trkpt>
      <trkpt lat="39.857547925785184" lon="-6.103204842656851">
        <ele>363.3999938964844</ele>
        <time>2015-05-03T08:37:02.000Z</time>
      </trkpt>
      <trkpt lat="39.85757357440889" lon="-6.103010131046176">
        <ele>364.3999938964844</ele>
        <time>2015-05-03T08:37:08.000Z</time>
      </trkpt>
      <trkpt lat="39.857598301023245" lon="-6.10283981077373">
        <ele>365.6000061035156</ele>
        <time>2015-05-03T08:37:13.000Z</time>
      </trkpt>
      <trkpt lat="39.85757960937917" lon="-6.10275867395103">
        <ele>365.6000061035156</ele>
        <time>2015-05-03T08:37:15.000Z</time>
      </trkpt>
      <trkpt lat="39.857576508075" lon="-6.102616600692272">
        <ele>366.79998779296875</ele>
        <time>2015-05-03T08:37:19.000Z</time>
      </trkpt>
      <trkpt lat="39.85760550945997" lon="-6.102513084188104">
        <ele>368.0</ele>
        <time>2015-05-03T08:37:23.000Z</time>
      </trkpt>
      <trkpt lat="39.8576283082366" lon="-6.1024480406194925">
        <ele>369.20001220703125</ele>
        <time>2015-05-03T08:37:26.000Z</time>
      </trkpt>
      <trkpt lat="39.857634510844946" lon="-6.102425828576088">
        <ele>369.6000061035156</ele>
        <time>2015-05-03T08:37:27.000Z</time>
      </trkpt>
      <trkpt lat="39.85764775425196" lon="-6.102380650117993">
        <ele>370.3999938964844</ele>
        <time>2015-05-03T08:37:29.000Z</time>
      </trkpt>
      <trkpt lat="39.8576626740396" lon="-6.1023131757974625">
        <ele>371.3999938964844</ele>
        <time>2015-05-03T08:37:32.000Z</time>
      </trkpt>
      <trkpt lat="39.85766828991473" lon="-6.102243270725012">
        <ele>372.3999938964844</ele>
        <time>2015-05-03T08:37:35.000Z</time>
      </trkpt>
      <trkpt lat="39.857668709009886" lon="-6.102221477776766">
        <ele>372.79998779296875</ele>
        <time>2015-05-03T08:37:36.000Z</time>
      </trkpt>
      <trkpt lat="39.85764884389937" lon="-6.1020884569734335">
        <ele>373.6000061035156</ele>
        <time>2015-05-03T08:37:41.000Z</time>
      </trkpt>
      <trkpt lat="39.857642808929086" lon="-6.1020581144839525">
        <ele>373.79998779296875</ele>
        <time>2015-05-03T08:37:42.000Z</time>
      </trkpt>
      <trkpt lat="39.857610873878" lon="-6.1019055638462305">
        <ele>374.6000061035156</ele>
        <time>2015-05-03T08:37:47.000Z</time>
      </trkpt>
      <trkpt lat="39.85760475508869" lon="-6.101808333769441">
        <ele>375.20001220703125</ele>
        <time>2015-05-03T08:37:50.000Z</time>
      </trkpt>
      <trkpt lat="39.85761187970638" lon="-6.101684952154756">
        <ele>376.20001220703125</ele>
        <time>2015-05-03T08:37:54.000Z</time>
      </trkpt>
      <trkpt lat="39.85762705095112" lon="-6.101567437872291">
        <ele>377.6000061035156</ele>
        <time>2015-05-03T08:37:58.000Z</time>
      </trkpt>
      <trkpt lat="39.8576333373785" lon="-6.101511865854263">
        <ele>378.0</ele>
        <time>2015-05-03T08:38:00.000Z</time>
      </trkpt>
      <trkpt lat="39.857637444511056" lon="-6.10145159997046">
        <ele>378.6000061035156</ele>
        <time>2015-05-03T08:38:02.000Z</time>
      </trkpt>
      <trkpt lat="39.857642808929086" lon="-6.101328721269965">
        <ele>379.6000061035156</ele>
        <time>2015-05-03T08:38:06.000Z</time>
      </trkpt>
      <trkpt lat="39.85764557495713" lon="-6.101262671872973">
        <ele>380.6000061035156</ele>
        <time>2015-05-03T08:38:08.000Z</time>
      </trkpt>
      <trkpt lat="39.85765035264194" lon="-6.101232999935746">
        <ele>380.79998779296875</ele>
        <time>2015-05-03T08:38:09.000Z</time>
      </trkpt>
      <trkpt lat="39.857695447281" lon="-6.101104756817222">
        <ele>381.20001220703125</ele>
        <time>2015-05-03T08:38:13.000Z</time>
      </trkpt>
      <trkpt lat="39.857802484184504" lon="-6.100949104875326">
        <ele>381.79998779296875</ele>
        <time>2015-05-03T08:38:18.000Z</time>
      </trkpt>
      <trkpt lat="39.85779091715813" lon="-6.1007667146623135">
        <ele>382.6000061035156</ele>
        <time>2015-05-03T08:38:21.000Z</time>
      </trkpt>
      <trkpt lat="39.85777742229402" lon="-6.100675603374839">
        <ele>381.6000061035156</ele>
        <time>2015-05-03T08:38:22.000Z</time>
      </trkpt>
      <trkpt lat="39.85776334069669" lon="-6.100574936717749">
        <ele>380.6000061035156</ele>
        <time>2015-05-03T08:38:23.000Z</time>
      </trkpt>
      <trkpt lat="39.85775588080287" lon="-6.100464211776853">
        <ele>379.20001220703125</ele>
        <time>2015-05-03T08:38:24.000Z</time>
      </trkpt>
      <trkpt lat="39.857757641002536" lon="-6.100350050255656">
        <ele>378.0</ele>
        <time>2015-05-03T08:38:25.000Z</time>
      </trkpt>
      <trkpt lat="39.85777189023793" lon="-6.100237732753158">
        <ele>377.0</ele>
        <time>2015-05-03T08:38:26.000Z</time>
      </trkpt>
      <trkpt lat="39.85780382528901" lon="-6.100124577060342">
        <ele>375.79998779296875</ele>
        <time>2015-05-03T08:38:27.000Z</time>
      </trkpt>
      <trkpt lat="39.857819667086005" lon="-6.10001209191978">
        <ele>373.79998779296875</ele>
        <time>2015-05-03T08:38:28.000Z</time>
      </trkpt>
      <trkpt lat="39.85781271010637" lon="-6.09992659650743">
        <ele>373.20001220703125</ele>
        <time>2015-05-03T08:38:29.000Z</time>
      </trkpt>
      <trkpt lat="39.857763508334756" lon="-6.099780919030309">
        <ele>374.20001220703125</ele>
        <time>2015-05-03T08:38:32.000Z</time>
      </trkpt>
      <trkpt lat="39.857746409252286" lon="-6.099733058363199">
        <ele>374.3999938964844</ele>
        <time>2015-05-03T08:38:33.000Z</time>
      </trkpt>
      <trkpt lat="39.857730735093355" lon="-6.099683521315455">
        <ele>375.0</ele>
        <time>2015-05-03T08:38:34.000Z</time>
      </trkpt>
      <trkpt lat="39.857720425352454" lon="-6.099631302058697">
        <ele>375.6000061035156</ele>
        <time>2015-05-03T08:38:35.000Z</time>
      </trkpt>
      <trkpt lat="39.85771187581122" lon="-6.099575562402606">
        <ele>376.0</ele>
        <time>2015-05-03T08:38:36.000Z</time>
      </trkpt>
      <trkpt lat="39.857699973508716" lon="-6.099520409479737">
        <ele>376.3999938964844</ele>
        <time>2015-05-03T08:38:37.000Z</time>
      </trkpt>
      <trkpt lat="39.85768689773977" lon="-6.099461484700441">
        <ele>376.6000061035156</ele>
        <time>2015-05-03T08:38:38.000Z</time>
      </trkpt>
      <trkpt lat="39.85767717473209" lon="-6.099402895197272">
        <ele>377.0</ele>
        <time>2015-05-03T08:38:39.000Z</time>
      </trkpt>
      <trkpt lat="39.857664266601205" lon="-6.099342629313469">
        <ele>377.20001220703125</ele>
        <time>2015-05-03T08:38:40.000Z</time>
      </trkpt>
      <trkpt lat="39.85761808231473" lon="-6.099152863025665">
        <ele>377.3999938964844</ele>
        <time>2015-05-03T08:38:43.000Z</time>
      </trkpt>
      <trkpt lat="39.85760550945997" lon="-6.099085723981261">
        <ele>377.79998779296875</ele>
        <time>2015-05-03T08:38:44.000Z</time>
      </trkpt>
      <trkpt lat="39.85758539289236" lon="-6.098942896351218">
        <ele>377.6000061035156</ele>
        <time>2015-05-03T08:38:46.000Z</time>
      </trkpt>
      <trkpt lat="39.85757508315146" lon="-6.098795291036367">
        <ele>377.3999938964844</ele>
        <time>2015-05-03T08:38:48.000Z</time>
      </trkpt>
      <trkpt lat="39.85756971873343" lon="-6.098507456481457">
        <ele>378.20001220703125</ele>
        <time>2015-05-03T08:38:52.000Z</time>
      </trkpt>
      <trkpt lat="39.85756083391607" lon="-6.098376363515854">
        <ele>379.6000061035156</ele>
        <time>2015-05-03T08:38:54.000Z</time>
      </trkpt>
      <trkpt lat="39.85755739733577" lon="-6.098312828689814">
        <ele>379.79998779296875</ele>
        <time>2015-05-03T08:38:55.000Z</time>
      </trkpt>
      <trkpt lat="39.857547003775835" lon="-6.098250383511186">
        <ele>380.0</ele>
        <time>2015-05-03T08:38:56.000Z</time>
      </trkpt>
      <trkpt lat="39.85752093605697" lon="-6.098041171208024">
        <ele>379.79998779296875</ele>
        <time>2015-05-03T08:38:59.000Z</time>
      </trkpt>
      <trkpt lat="39.85744424164295" lon="-6.09748151153326">
        <ele>380.6000061035156</ele>
        <time>2015-05-03T08:39:07.000Z</time>
      </trkpt>
      <trkpt lat="39.85741616226733" lon="-6.097218319773674">
        <ele>380.79998779296875</ele>
        <time>2015-05-03T08:39:11.000Z</time>
      </trkpt>
      <trkpt lat="39.85740912146866" lon="-6.097081862390041">
        <ele>381.6000061035156</ele>
        <time>2015-05-03T08:39:13.000Z</time>
      </trkpt>
      <trkpt lat="39.857422448694706" lon="-6.0965007450431585">
        <ele>380.6000061035156</ele>
        <time>2015-05-03T08:39:21.000Z</time>
      </trkpt>
      <trkpt lat="39.857419515028596" lon="-6.096217855811119">
        <ele>381.0</ele>
        <time>2015-05-03T08:39:25.000Z</time>
      </trkpt>
      <trkpt lat="39.85740400850773" lon="-6.096019623801112">
        <ele>381.3999938964844</ele>
        <time>2015-05-03T08:39:28.000Z</time>
      </trkpt>
      <trkpt lat="39.85740685835481" lon="-6.095891632139683">
        <ele>382.0</ele>
        <time>2015-05-03T08:39:30.000Z</time>
      </trkpt>
      <trkpt lat="39.85742152668536" lon="-6.095630032941699">
        <ele>383.20001220703125</ele>
        <time>2015-05-03T08:39:34.000Z</time>
      </trkpt>
      <trkpt lat="39.85745446756482" lon="-6.095243711024523">
        <ele>383.79998779296875</ele>
        <time>2015-05-03T08:39:40.000Z</time>
      </trkpt>
      <trkpt lat="39.857491264119744" lon="-6.095082778483629">
        <ele>382.20001220703125</ele>
        <time>2015-05-03T08:39:42.000Z</time>
      </trkpt>
      <trkpt lat="39.857540130615234" lon="-6.094893598929048">
        <ele>380.20001220703125</ele>
        <time>2015-05-03T08:39:44.000Z</time>
      </trkpt>
      <trkpt lat="39.857514733448625" lon="-6.094702407717705">
        <ele>379.20001220703125</ele>
        <time>2015-05-03T08:39:46.000Z</time>
      </trkpt>
      <trkpt lat="39.85744616948068" lon="-6.094556394964457">
        <ele>379.79998779296875</ele>
        <time>2015-05-03T08:39:48.000Z</time>
      </trkpt>
      <trkpt lat="39.85742303542793" lon="-6.094490680843592">
        <ele>380.3999938964844</ele>
        <time>2015-05-03T08:39:49.000Z</time>
      </trkpt>
      <trkpt lat="39.85740442760289" lon="-6.094432594254613">
        <ele>381.20001220703125</ele>
        <time>2015-05-03T08:39:50.000Z</time>
      </trkpt>
      <trkpt lat="39.85739202238619" lon="-6.094377189874649">
        <ele>382.0</ele>
        <time>2015-05-03T08:39:51.000Z</time>
      </trkpt>
      <trkpt lat="39.85737081617117" lon="-6.094270488247275">
        <ele>383.0</ele>
        <time>2015-05-03T08:39:53.000Z</time>
      </trkpt>
      <trkpt lat="39.85735807567835" lon="-6.094168815761805">
        <ele>383.6000061035156</ele>
        <time>2015-05-03T08:39:55.000Z</time>
      </trkpt>
      <trkpt lat="39.85735044814646" lon="-6.094072088599205">
        <ele>384.3999938964844</ele>
        <time>2015-05-03T08:39:57.000Z</time>
      </trkpt>
      <trkpt lat="39.85733770765364" lon="-6.093932613730431">
        <ele>385.6000061035156</ele>
        <time>2015-05-03T08:40:00.000Z</time>
      </trkpt>
      <trkpt lat="39.857338378205895" lon="-6.093764891847968">
        <ele>387.0</ele>
        <time>2015-05-03T08:40:03.000Z</time>
      </trkpt>
      <trkpt lat="39.85733510926366" lon="-6.093655675649643">
        <ele>388.0</ele>
        <time>2015-05-03T08:40:06.000Z</time>
      </trkpt>
      <trkpt lat="39.85733175650239" lon="-6.09361108392477">
        <ele>388.20001220703125</ele>
        <time>2015-05-03T08:40:07.000Z</time>
      </trkpt>
      <trkpt lat="39.8573278170079" lon="-6.0934743750840425">
        <ele>389.20001220703125</ele>
        <time>2015-05-03T08:40:10.000Z</time>
      </trkpt>
      <trkpt lat="39.85732429660857" lon="-6.0933309607207775">
        <ele>389.79998779296875</ele>
        <time>2015-05-03T08:40:13.000Z</time>
      </trkpt>
      <trkpt lat="39.857322284951806" lon="-6.093233814463019">
        <ele>390.6000061035156</ele>
        <time>2015-05-03T08:40:15.000Z</time>
      </trkpt>
      <trkpt lat="39.85731516033411" lon="-6.092959055677056">
        <ele>391.3999938964844</ele>
        <time>2015-05-03T08:40:21.000Z</time>
      </trkpt>
      <trkpt lat="39.857343742623925" lon="-6.092539206147194">
        <ele>391.3999938964844</ele>
        <time>2015-05-03T08:40:29.000Z</time>
      </trkpt>
      <trkpt lat="39.85737366601825" lon="-6.092426469549537">
        <ele>391.6000061035156</ele>
        <time>2015-05-03T08:40:31.000Z</time>
      </trkpt>
      <trkpt lat="39.857451785355806" lon="-6.092209964990616">
        <ele>392.79998779296875</ele>
        <time>2015-05-03T08:40:35.000Z</time>
      </trkpt>
      <trkpt lat="39.85747676342726" lon="-6.092158081009984">
        <ele>393.0</ele>
        <time>2015-05-03T08:40:36.000Z</time>
      </trkpt>
      <trkpt lat="39.85753702931106" lon="-6.092059593647718">
        <ele>392.79998779296875</ele>
        <time>2015-05-03T08:40:38.000Z</time>
      </trkpt>
      <trkpt lat="39.857609029859304" lon="-6.091958424076438">
        <ele>392.20001220703125</ele>
        <time>2015-05-03T08:40:40.000Z</time>
      </trkpt>
      <trkpt lat="39.85765387304127" lon="-6.09190477989614">
        <ele>392.20001220703125</ele>
        <time>2015-05-03T08:40:41.000Z</time>
      </trkpt>
      <trkpt lat="39.857700895518064" lon="-6.091850297525525">
        <ele>391.79998779296875</ele>
        <time>2015-05-03T08:40:42.000Z</time>
      </trkpt>
      <trkpt lat="39.85774498432875" lon="-6.091789864003658">
        <ele>391.6000061035156</ele>
        <time>2015-05-03T08:40:43.000Z</time>
      </trkpt>
      <trkpt lat="39.857863085344434" lon="-6.09160428866744">
        <ele>391.79998779296875</ele>
        <time>2015-05-03T08:40:46.000Z</time>
      </trkpt>
      <trkpt lat="39.85802954994142" lon="-6.091238670051098">
        <ele>392.79998779296875</ele>
        <time>2015-05-03T08:40:52.000Z</time>
      </trkpt>
      <trkpt lat="39.85806081444025" lon="-6.0911813378334045">
        <ele>393.20001220703125</ele>
        <time>2015-05-03T08:40:53.000Z</time>
      </trkpt>
      <trkpt lat="39.85812778584659" lon="-6.091081006452441">
        <ele>393.6000061035156</ele>
        <time>2015-05-03T08:40:55.000Z</time>
      </trkpt>
      <trkpt lat="39.8582068271935" lon="-6.091007329523563">
        <ele>394.0</ele>
        <time>2015-05-03T08:40:57.000Z</time>
      </trkpt>
      <trkpt lat="39.85835501924157" lon="-6.090971622616053">
        <ele>394.20001220703125</ele>
        <time>2015-05-03T08:41:00.000Z</time>
      </trkpt>
      <trkpt lat="39.85850589349866" lon="-6.091002803295851">
        <ele>394.79998779296875</ele>
        <time>2015-05-03T08:41:03.000Z</time>
      </trkpt>
      <trkpt lat="39.858555514365435" lon="-6.091015795245767">
        <ele>394.79998779296875</ele>
        <time>2015-05-03T08:41:04.000Z</time>
      </trkpt>
      <trkpt lat="39.85865643247962" lon="-6.091037588194013">
        <ele>395.20001220703125</ele>
        <time>2015-05-03T08:41:06.000Z</time>
      </trkpt>
      <trkpt lat="39.8587576020509" lon="-6.091048652306199">
        <ele>395.6000061035156</ele>
        <time>2015-05-03T08:41:08.000Z</time>
      </trkpt>
      <trkpt lat="39.85880152322352" lon="-6.0910190641880035">
        <ele>395.79998779296875</ele>
        <time>2015-05-03T08:41:09.000Z</time>
      </trkpt>
      <trkpt lat="39.85884862951934" lon="-6.090904148295522">
        <ele>396.3999938964844</ele>
        <time>2015-05-03T08:41:11.000Z</time>
      </trkpt>
      <trkpt lat="39.858859023079276" lon="-6.090837344527245">
        <ele>397.0</ele>
        <time>2015-05-03T08:41:12.000Z</time>
      </trkpt>
      <trkpt lat="39.85886589623988" lon="-6.090769451111555">
        <ele>397.20001220703125</ele>
        <time>2015-05-03T08:41:13.000Z</time>
      </trkpt>
      <trkpt lat="39.85892180353403" lon="-6.090404251590371">
        <ele>397.3999938964844</ele>
        <time>2015-05-03T08:41:18.000Z</time>
      </trkpt>
      <trkpt lat="39.85897318460047" lon="-6.090074339881539">
        <ele>396.3999938964844</ele>
        <time>2015-05-03T08:41:22.000Z</time>
      </trkpt>
      <trkpt lat="39.85898919403553" lon="-6.089981636032462">
        <ele>395.6000061035156</ele>
        <time>2015-05-03T08:41:23.000Z</time>
      </trkpt>
      <trkpt lat="39.85900143161416" lon="-6.089884154498577">
        <ele>395.3999938964844</ele>
        <time>2015-05-03T08:41:24.000Z</time>
      </trkpt>
      <trkpt lat="39.85902498476207" lon="-6.089493138715625">
        <ele>394.6000061035156</ele>
        <time>2015-05-03T08:41:28.000Z</time>
      </trkpt>
      <trkpt lat="39.85902473330498" lon="-6.088933646678925">
        <ele>394.6000061035156</ele>
        <time>2015-05-03T08:41:34.000Z</time>
      </trkpt>
      <trkpt lat="39.85898760147393" lon="-6.088746143504977">
        <ele>394.0</ele>
        <time>2015-05-03T08:41:36.000Z</time>
      </trkpt>
      <trkpt lat="39.85892222262919" lon="-6.088554784655571">
        <ele>393.6000061035156</ele>
        <time>2015-05-03T08:41:38.000Z</time>
      </trkpt>
      <trkpt lat="39.85883764922619" lon="-6.088364431634545">
        <ele>392.79998779296875</ele>
        <time>2015-05-03T08:41:40.000Z</time>
      </trkpt>
      <trkpt lat="39.85869792290032" lon="-6.088084559887648">
        <ele>391.6000061035156</ele>
        <time>2015-05-03T08:41:43.000Z</time>
      </trkpt>
      <trkpt lat="39.85854210332036" lon="-6.0876714158803225">
        <ele>390.0</ele>
        <time>2015-05-03T08:41:47.000Z</time>
      </trkpt>
      <trkpt lat="39.858515029773116" lon="-6.087561110034585">
        <ele>389.6000061035156</ele>
        <time>2015-05-03T08:41:48.000Z</time>
      </trkpt>
      <trkpt lat="39.85848451964557" lon="-6.08745482750237">
        <ele>388.79998779296875</ele>
        <time>2015-05-03T08:41:49.000Z</time>
      </trkpt>
      <trkpt lat="39.85834118910134" lon="-6.087057441473007">
        <ele>387.6000061035156</ele>
        <time>2015-05-03T08:41:53.000Z</time>
      </trkpt>
      <trkpt lat="39.85827103257179" lon="-6.086843451485038">
        <ele>386.3999938964844</ele>
        <time>2015-05-03T08:41:55.000Z</time>
      </trkpt>
      <trkpt lat="39.85820833593607" lon="-6.0866147093474865">
        <ele>385.79998779296875</ele>
        <time>2015-05-03T08:41:57.000Z</time>
      </trkpt>
      <trkpt lat="39.85818084329367" lon="-6.086498787626624">
        <ele>385.3999938964844</ele>
        <time>2015-05-03T08:41:58.000Z</time>
      </trkpt>
      <trkpt lat="39.858161648735404" lon="-6.086377752944827">
        <ele>385.6000061035156</ele>
        <time>2015-05-03T08:41:59.000Z</time>
      </trkpt>
      <trkpt lat="39.8581444658339" lon="-6.086254874244332">
        <ele>385.3999938964844</ele>
        <time>2015-05-03T08:42:00.000Z</time>
      </trkpt>
      <trkpt lat="39.85811068676412" lon="-6.086012637242675">
        <ele>384.20001220703125</ele>
        <time>2015-05-03T08:42:02.000Z</time>
      </trkpt>
      <trkpt lat="39.858087971806526" lon="-6.085908114910126">
        <ele>383.79998779296875</ele>
        <time>2015-05-03T08:42:03.000Z</time>
      </trkpt>
      <trkpt lat="39.858045391738415" lon="-6.085824714973569">
        <ele>383.20001220703125</ele>
        <time>2015-05-03T08:42:04.000Z</time>
      </trkpt>
      <trkpt lat="39.85797858797014" lon="-6.0857695620507">
        <ele>382.6000061035156</ele>
        <time>2015-05-03T08:42:05.000Z</time>
      </trkpt>
      <trkpt lat="39.85789560712874" lon="-6.0857459250837564">
        <ele>382.0</ele>
        <time>2015-05-03T08:42:06.000Z</time>
      </trkpt>
      <trkpt lat="39.85781061463058" lon="-6.085724802687764">
        <ele>381.6000061035156</ele>
        <time>2015-05-03T08:42:07.000Z</time>
      </trkpt>
      <trkpt lat="39.85772570595145" lon="-6.085692783817649">
        <ele>381.0</ele>
        <time>2015-05-03T08:42:08.000Z</time>
      </trkpt>
      <trkpt lat="39.857640881091356" lon="-6.085649533197284">
        <ele>380.0</ele>
        <time>2015-05-03T08:42:09.000Z</time>
      </trkpt>
      <trkpt lat="39.85748942010105" lon="-6.085509387776256">
        <ele>378.6000061035156</ele>
        <time>2015-05-03T08:42:11.000Z</time>
      </trkpt>
      <trkpt lat="39.8573521245271" lon="-6.085336804389954">
        <ele>377.3999938964844</ele>
        <time>2015-05-03T08:42:13.000Z</time>
      </trkpt>
      <trkpt lat="39.85728498548269" lon="-6.085241502150893">
        <ele>376.0</ele>
        <time>2015-05-03T08:42:14.000Z</time>
      </trkpt>
      <trkpt lat="39.85721851699054" lon="-6.085139913484454">
        <ele>374.79998779296875</ele>
        <time>2015-05-03T08:42:15.000Z</time>
      </trkpt>
      <trkpt lat="39.857157580554485" lon="-6.085022399201989">
        <ele>373.0</ele>
        <time>2015-05-03T08:42:16.000Z</time>
      </trkpt>
      <trkpt lat="39.85709513537586" lon="-6.0848962515592575">
        <ele>371.6000061035156</ele>
        <time>2015-05-03T08:42:17.000Z</time>
      </trkpt>
      <trkpt lat="39.857031935825944" lon="-6.084761135280132">
        <ele>370.0</ele>
        <time>2015-05-03T08:42:18.000Z</time>
      </trkpt>
      <trkpt lat="39.85696664080024" lon="-6.084617218002677">
        <ele>368.6000061035156</ele>
        <time>2015-05-03T08:42:19.000Z</time>
      </trkpt>
      <trkpt lat="39.856900088489056" lon="-6.08447028324008">
        <ele>367.3999938964844</ele>
        <time>2015-05-03T08:42:20.000Z</time>
      </trkpt>
      <trkpt lat="39.85684853978455" lon="-6.084329048171639">
        <ele>365.6000061035156</ele>
        <time>2015-05-03T08:42:21.000Z</time>
      </trkpt>
      <trkpt lat="39.85682909376919" lon="-6.0840533673763275">
        <ele>363.6000061035156</ele>
        <time>2015-05-03T08:42:23.000Z</time>
      </trkpt>
      <trkpt lat="39.85690386034548" lon="-6.08371926471591">
        <ele>364.6000061035156</ele>
        <time>2015-05-03T08:42:26.000Z</time>
      </trkpt>
      <trkpt lat="39.85692288726568" lon="-6.083616083487868">
        <ele>364.79998779296875</ele>
        <time>2015-05-03T08:42:27.000Z</time>
      </trkpt>
      <trkpt lat="39.85698273405433" lon="-6.083304025232792">
        <ele>364.20001220703125</ele>
        <time>2015-05-03T08:42:30.000Z</time>
      </trkpt>
      <trkpt lat="39.857007544487715" lon="-6.083192629739642">
        <ele>363.79998779296875</ele>
        <time>2015-05-03T08:42:31.000Z</time>
      </trkpt>
      <trkpt lat="39.8570688161999" lon="-6.082991296425462">
        <ele>362.0</ele>
        <time>2015-05-03T08:42:33.000Z</time>
      </trkpt>
      <trkpt lat="39.857111647725105" lon="-6.082915272563696">
        <ele>360.79998779296875</ele>
        <time>2015-05-03T08:42:34.000Z</time>
      </trkpt>
      <trkpt lat="39.85716562718153" lon="-6.082864310592413">
        <ele>360.0</ele>
        <time>2015-05-03T08:42:35.000Z</time>
      </trkpt>
      <trkpt lat="39.85721927136183" lon="-6.082843691110611">
        <ele>359.6000061035156</ele>
        <time>2015-05-03T08:42:36.000Z</time>
      </trkpt>
      <trkpt lat="39.85727266408503" lon="-6.0828550066798925">
        <ele>359.3999938964844</ele>
        <time>2015-05-03T08:42:37.000Z</time>
      </trkpt>
      <trkpt lat="39.85732538625598" lon="-6.082887444645166">
        <ele>358.6000061035156</ele>
        <time>2015-05-03T08:42:38.000Z</time>
      </trkpt>
      <trkpt lat="39.85738045535982" lon="-6.082930276170373">
        <ele>356.6000061035156</ele>
        <time>2015-05-03T08:42:39.000Z</time>
      </trkpt>
      <trkpt lat="39.85743250697851" lon="-6.082969419658184">
        <ele>356.6000061035156</ele>
        <time>2015-05-03T08:42:40.000Z</time>
      </trkpt>
      <trkpt lat="39.857487324625254" lon="-6.082986854016781">
        <ele>356.79998779296875</ele>
        <time>2015-05-03T08:42:41.000Z</time>
      </trkpt>
      <trkpt lat="39.85755898989737" lon="-6.08298534527421">
        <ele>357.6000061035156</ele>
        <time>2015-05-03T08:42:43.000Z</time>
      </trkpt>
      <trkpt lat="39.85757768154144" lon="-6.082974029704928">
        <ele>358.20001220703125</ele>
        <time>2015-05-03T08:42:47.000Z</time>
      </trkpt>
      <trkpt lat="39.85760408453643" lon="-6.082955589517951">
        <ele>358.20001220703125</ele>
        <time>2015-05-03T08:42:48.000Z</time>
      </trkpt>
      <trkpt lat="39.857657477259636" lon="-6.082880320027471">
        <ele>358.20001220703125</ele>
        <time>2015-05-03T08:42:50.000Z</time>
      </trkpt>
      <trkpt lat="39.85770399682224" lon="-6.082792393863201">
        <ele>359.0</ele>
        <time>2015-05-03T08:42:52.000Z</time>
      </trkpt>
      <trkpt lat="39.8577543720603" lon="-6.082696756348014">
        <ele>360.0</ele>
        <time>2015-05-03T08:42:54.000Z</time>
      </trkpt>
      <trkpt lat="39.8578061722219" lon="-6.082598939538002">
        <ele>360.79998779296875</ele>
        <time>2015-05-03T08:42:56.000Z</time>
      </trkpt>
      <trkpt lat="39.85783458687365" lon="-6.082553844898939">
        <ele>361.0</ele>
        <time>2015-05-03T08:42:57.000Z</time>
      </trkpt>
      <trkpt lat="39.857864677906036" lon="-6.082508750259876">
        <ele>361.6000061035156</ele>
        <time>2015-05-03T08:42:58.000Z</time>
      </trkpt>
      <trkpt lat="39.85792494378984" lon="-6.08241998590529">
        <ele>361.79998779296875</ele>
        <time>2015-05-03T08:43:00.000Z</time>
      </trkpt>
      <trkpt lat="39.8579565435648" lon="-6.082377405837178">
        <ele>362.20001220703125</ele>
        <time>2015-05-03T08:43:01.000Z</time>
      </trkpt>
      <trkpt lat="39.85802309587598" lon="-6.082300208508968">
        <ele>363.20001220703125</ele>
        <time>2015-05-03T08:43:03.000Z</time>
      </trkpt>
      <trkpt lat="39.85805595293641" lon="-6.082262909039855">
        <ele>363.6000061035156</ele>
        <time>2015-05-03T08:43:04.000Z</time>
      </trkpt>
      <trkpt lat="39.85812485218048" lon="-6.082194093614817">
        <ele>364.20001220703125</ele>
        <time>2015-05-03T08:43:06.000Z</time>
      </trkpt>
      <trkpt lat="39.85819559544325" lon="-6.082129552960396">
        <ele>364.6000061035156</ele>
        <time>2015-05-03T08:43:08.000Z</time>
      </trkpt>
      <trkpt lat="39.85829634591937" lon="-6.08203693293035">
        <ele>365.6000061035156</ele>
        <time>2015-05-03T08:43:11.000Z</time>
      </trkpt>
      <trkpt lat="39.85832819715142" lon="-6.082003489136696">
        <ele>366.0</ele>
        <time>2015-05-03T08:43:12.000Z</time>
      </trkpt>
      <trkpt lat="39.85835870727897" lon="-6.081968871876597">
        <ele>366.0</ele>
        <time>2015-05-03T08:43:13.000Z</time>
      </trkpt>
      <trkpt lat="39.85845065675676" lon="-6.081866109743714">
        <ele>367.0</ele>
        <time>2015-05-03T08:43:16.000Z</time>
      </trkpt>
      <trkpt lat="39.8585710208863" lon="-6.081719761714339">
        <ele>367.6000061035156</ele>
        <time>2015-05-03T08:43:20.000Z</time>
      </trkpt>
      <trkpt lat="39.858597591519356" lon="-6.081683887168765">
        <ele>367.79998779296875</ele>
        <time>2015-05-03T08:43:21.000Z</time>
      </trkpt>
      <trkpt lat="39.85862357541919" lon="-6.081644911319017">
        <ele>368.20001220703125</ele>
        <time>2015-05-03T08:43:22.000Z</time>
      </trkpt>
      <trkpt lat="39.858708987012506" lon="-6.081543490290642">
        <ele>369.20001220703125</ele>
        <time>2015-05-03T08:43:25.000Z</time>
      </trkpt>
      <trkpt lat="39.8587681632489" lon="-6.0814764350652695">
        <ele>369.6000061035156</ele>
        <time>2015-05-03T08:43:27.000Z</time>
      </trkpt>
      <trkpt lat="39.85885223373771" lon="-6.081380294635892">
        <ele>370.79998779296875</ele>
        <time>2015-05-03T08:43:30.000Z</time>
      </trkpt>
      <trkpt lat="39.85899992287159" lon="-6.081237802281976">
        <ele>371.3999938964844</ele>
        <time>2015-05-03T08:43:35.000Z</time>
      </trkpt>
      <trkpt lat="39.85906588844955" lon="-6.08121894299984">
        <ele>371.79998779296875</ele>
        <time>2015-05-03T08:43:37.000Z</time>
      </trkpt>
      <trkpt lat="39.85913805663586" lon="-6.081227157264948">
        <ele>372.20001220703125</ele>
        <time>2015-05-03T08:43:39.000Z</time>
      </trkpt>
      <trkpt lat="39.85923897475004" lon="-6.081275017932057">
        <ele>373.0</ele>
        <time>2015-05-03T08:43:42.000Z</time>
      </trkpt>
      <trkpt lat="39.85929848626256" lon="-6.081333439797163">
        <ele>373.3999938964844</ele>
        <time>2015-05-03T08:43:44.000Z</time>
      </trkpt>
      <trkpt lat="39.8594518750906" lon="-6.081533180549741">
        <ele>374.0</ele>
        <time>2015-05-03T08:43:50.000Z</time>
      </trkpt>
      <trkpt lat="39.85947769135237" lon="-6.081567211076617">
        <ele>374.20001220703125</ele>
        <time>2015-05-03T08:43:51.000Z</time>
      </trkpt>
      <trkpt lat="39.85960425809026" lon="-6.081746332347393">
        <ele>375.3999938964844</ele>
        <time>2015-05-03T08:43:56.000Z</time>
      </trkpt>
      <trkpt lat="39.859709702432156" lon="-6.081898882985115">
        <ele>375.79998779296875</ele>
        <time>2015-05-03T08:44:00.000Z</time>
      </trkpt>
      <trkpt lat="39.85983459278941" lon="-6.082086889073253">
        <ele>376.3999938964844</ele>
        <time>2015-05-03T08:44:05.000Z</time>
      </trkpt>
      <trkpt lat="39.85993760637939" lon="-6.0822241846472025">
        <ele>377.6000061035156</ele>
        <time>2015-05-03T08:44:09.000Z</time>
      </trkpt>
      <trkpt lat="39.859962835907936" lon="-6.082256454974413">
        <ele>377.79998779296875</ele>
        <time>2015-05-03T08:44:10.000Z</time>
      </trkpt>
      <trkpt lat="39.86009258776903" lon="-6.0824276972562075">
        <ele>378.6000061035156</ele>
        <time>2015-05-03T08:44:15.000Z</time>
      </trkpt>
      <trkpt lat="39.86011832021177" lon="-6.082465164363384">
        <ele>378.79998779296875</ele>
        <time>2015-05-03T08:44:16.000Z</time>
      </trkpt>
      <trkpt lat="39.86028763465583" lon="-6.082671023905277">
        <ele>379.79998779296875</ele>
        <time>2015-05-03T08:44:22.000Z</time>
      </trkpt>
      <trkpt lat="39.860317977145314" lon="-6.082705976441503">
        <ele>380.3999938964844</ele>
        <time>2015-05-03T08:44:23.000Z</time>
      </trkpt>
      <trkpt lat="39.86040950752795" lon="-6.082808822393417">
        <ele>380.79998779296875</ele>
        <time>2015-05-03T08:44:26.000Z</time>
      </trkpt>
      <trkpt lat="39.86052844673395" lon="-6.082946117967367">
        <ele>381.6000061035156</ele>
        <time>2015-05-03T08:44:30.000Z</time>
      </trkpt>
      <trkpt lat="39.86055828630924" lon="-6.082980148494244">
        <ele>382.0</ele>
        <time>2015-05-03T08:44:31.000Z</time>
      </trkpt>
      <trkpt lat="39.860703041777015" lon="-6.083161951974034">
        <ele>383.0</ele>
        <time>2015-05-03T08:44:36.000Z</time>
      </trkpt>
      <trkpt lat="39.86075953580439" lon="-6.083234203979373">
        <ele>383.0</ele>
        <time>2015-05-03T08:44:38.000Z</time>
      </trkpt>
      <trkpt lat="39.860903453081846" lon="-6.083417935296893">
        <ele>384.3999938964844</ele>
        <time>2015-05-03T08:44:43.000Z</time>
      </trkpt>
      <trkpt lat="39.86098375171423" lon="-6.083530839532614">
        <ele>385.6000061035156</ele>
        <time>2015-05-03T08:44:46.000Z</time>
      </trkpt>
      <trkpt lat="39.86103697679937" lon="-6.083607114851475">
        <ele>386.0</ele>
        <time>2015-05-03T08:44:48.000Z</time>
      </trkpt>
      <trkpt lat="39.86112364567816" lon="-6.08378179371357">
        <ele>386.6000061035156</ele>
        <time>2015-05-03T08:44:52.000Z</time>
      </trkpt>
      <trkpt lat="39.86118131317198" lon="-6.083917496725917">
        <ele>387.20001220703125</ele>
        <time>2015-05-03T08:44:55.000Z</time>
      </trkpt>
      <trkpt lat="39.86126244999468" lon="-6.084097204729915">
        <ele>387.79998779296875</ele>
        <time>2015-05-03T08:44:59.000Z</time>
      </trkpt>
      <trkpt lat="39.861330427229404" lon="-6.084240870550275">
        <ele>388.20001220703125</ele>
        <time>2015-05-03T08:45:02.000Z</time>
      </trkpt>
      <trkpt lat="39.86142883077264" lon="-6.084429211914539">
        <ele>388.20001220703125</ele>
        <time>2015-05-03T08:45:06.000Z</time>
      </trkpt>
      <trkpt lat="39.86153871752322" lon="-6.08453432098031">
        <ele>388.79998779296875</ele>
        <time>2015-05-03T08:45:09.000Z</time>
      </trkpt>
      <trkpt lat="39.86157878302038" lon="-6.084562735632062">
        <ele>388.79998779296875</ele>
        <time>2015-05-03T08:45:10.000Z</time>
      </trkpt>
      <trkpt lat="39.86161951906979" lon="-6.0845843609422445">
        <ele>388.6000061035156</ele>
        <time>2015-05-03T08:45:11.000Z</time>
      </trkpt>
      <trkpt lat="39.86182169057429" lon="-6.0846933256834745">
        <ele>389.79998779296875</ele>
        <time>2015-05-03T08:45:16.000Z</time>
      </trkpt>
      <trkpt lat="39.86185999587178" lon="-6.084719058126211">
        <ele>389.79998779296875</ele>
        <time>2015-05-03T08:45:17.000Z</time>
      </trkpt>
      <trkpt lat="39.86198731698096" lon="-6.084861466661096">
        <ele>390.6000061035156</ele>
        <time>2015-05-03T08:45:21.000Z</time>
      </trkpt>
      <trkpt lat="39.86201514489949" lon="-6.0849024541676044">
        <ele>391.0</ele>
        <time>2015-05-03T08:45:22.000Z</time>
      </trkpt>
      <trkpt lat="39.862064430490136" lon="-6.08498870395124">
        <ele>391.6000061035156</ele>
        <time>2015-05-03T08:45:24.000Z</time>
      </trkpt>
      <trkpt lat="39.86208756454289" lon="-6.085033630952239">
        <ele>392.0</ele>
        <time>2015-05-03T08:45:25.000Z</time>
      </trkpt>
      <trkpt lat="39.86217599362135" lon="-6.085205459967256">
        <ele>393.0</ele>
        <time>2015-05-03T08:45:29.000Z</time>
      </trkpt>
      <trkpt lat="39.86219619400799" lon="-6.085250889882445">
        <ele>393.20001220703125</ele>
        <time>2015-05-03T08:45:30.000Z</time>
      </trkpt>
      <trkpt lat="39.86225193366408" lon="-6.085391202941537">
        <ele>393.6000061035156</ele>
        <time>2015-05-03T08:45:33.000Z</time>
      </trkpt>
      <trkpt lat="39.862284287810326" lon="-6.085493629798293">
        <ele>394.0</ele>
        <time>2015-05-03T08:45:35.000Z</time>
      </trkpt>
      <trkpt lat="39.862299375236034" lon="-6.085544424131513">
        <ele>394.0</ele>
        <time>2015-05-03T08:45:36.000Z</time>
      </trkpt>
      <trkpt lat="39.8623148817569" lon="-6.085594212636352">
        <ele>394.20001220703125</ele>
        <time>2015-05-03T08:45:37.000Z</time>
      </trkpt>
      <trkpt lat="39.8623529355973" lon="-6.08580032363534">
        <ele>395.20001220703125</ele>
        <time>2015-05-03T08:45:41.000Z</time>
      </trkpt>
      <trkpt lat="39.862371291965246" lon="-6.085905013605952">
        <ele>395.6000061035156</ele>
        <time>2015-05-03T08:45:43.000Z</time>
      </trkpt>
      <trkpt lat="39.862406412139535" lon="-6.086164014413953">
        <ele>396.3999938964844</ele>
        <time>2015-05-03T08:45:48.000Z</time>
      </trkpt>
      <trkpt lat="39.86240867525339" lon="-6.086216988041997">
        <ele>396.6000061035156</ele>
        <time>2015-05-03T08:45:49.000Z</time>
      </trkpt>
      <trkpt lat="39.86239886842668" lon="-6.086475737392902">
        <ele>397.3999938964844</ele>
        <time>2015-05-03T08:45:54.000Z</time>
      </trkpt>
      <trkpt lat="39.86238629557192" lon="-6.086578583344817">
        <ele>397.79998779296875</ele>
        <time>2015-05-03T08:45:56.000Z</time>
      </trkpt>
      <trkpt lat="39.86241554841399" lon="-6.0867913998663425">
        <ele>398.0</ele>
        <time>2015-05-03T08:46:00.000Z</time>
      </trkpt>
      <trkpt lat="39.86243147403002" lon="-6.0868423618376255">
        <ele>397.79998779296875</ele>
        <time>2015-05-03T08:46:01.000Z</time>
      </trkpt>
      <trkpt lat="39.86249601468444" lon="-6.087029697373509">
        <ele>398.6000061035156</ele>
        <time>2015-05-03T08:46:05.000Z</time>
      </trkpt>
      <trkpt lat="39.862520322203636" lon="-6.08712550252676">
        <ele>399.20001220703125</ele>
        <time>2015-05-03T08:46:07.000Z</time>
      </trkpt>
      <trkpt lat="39.86253817565739" lon="-6.0874466970562935">
        <ele>399.6000061035156</ele>
        <time>2015-05-03T08:46:13.000Z</time>
      </trkpt>
      <trkpt lat="39.86253323033452" lon="-6.087559349834919">
        <ele>399.79998779296875</ele>
        <time>2015-05-03T08:46:15.000Z</time>
      </trkpt>
      <trkpt lat="39.86251076683402" lon="-6.087836120277643">
        <ele>400.79998779296875</ele>
        <time>2015-05-03T08:46:20.000Z</time>
      </trkpt>
      <trkpt lat="39.86250766552985" lon="-6.087891776114702">
        <ele>401.0</ele>
        <time>2015-05-03T08:46:21.000Z</time>
      </trkpt>
      <trkpt lat="39.86248377710581" lon="-6.088225711137056">
        <ele>402.20001220703125</ele>
        <time>2015-05-03T08:46:27.000Z</time>
      </trkpt>
      <trkpt lat="39.86248050816357" lon="-6.088280528783798">
        <ele>402.20001220703125</ele>
        <time>2015-05-03T08:46:28.000Z</time>
      </trkpt>
      <trkpt lat="39.86248838715255" lon="-6.088500218465924">
        <ele>402.6000061035156</ele>
        <time>2015-05-03T08:46:32.000Z</time>
      </trkpt>
      <trkpt lat="39.862510431557894" lon="-6.088604237884283">
        <ele>403.0</ele>
        <time>2015-05-03T08:46:34.000Z</time>
      </trkpt>
      <trkpt lat="39.862529039382935" lon="-6.088650254532695">
        <ele>403.0</ele>
        <time>2015-05-03T08:46:35.000Z</time>
      </trkpt>
      <trkpt lat="39.862579833716154" lon="-6.088726362213492">
        <ele>403.20001220703125</ele>
        <time>2015-05-03T08:46:37.000Z</time>
      </trkpt>
      <trkpt lat="39.86266759224236" lon="-6.088816383853555">
        <ele>404.0</ele>
        <time>2015-05-03T08:46:40.000Z</time>
      </trkpt>
      <trkpt lat="39.86273632384837" lon="-6.088852342218161">
        <ele>404.3999938964844</ele>
        <time>2015-05-03T08:46:42.000Z</time>
      </trkpt>
      <trkpt lat="39.86284830607474" lon="-6.088875560089946">
        <ele>405.0</ele>
        <time>2015-05-03T08:46:45.000Z</time>
      </trkpt>
      <trkpt lat="39.86288744956255" lon="-6.088875979185104">
        <ele>405.3999938964844</ele>
        <time>2015-05-03T08:46:46.000Z</time>
      </trkpt>
      <trkpt lat="39.863034300506115" lon="-6.0888732969760895">
        <ele>406.20001220703125</ele>
        <time>2015-05-03T08:46:50.000Z</time>
      </trkpt>
      <trkpt lat="39.863104708492756" lon="-6.088845804333687">
        <ele>406.79998779296875</ele>
        <time>2015-05-03T08:46:52.000Z</time>
      </trkpt>
      <trkpt lat="39.86316950060427" lon="-6.088797692209482">
        <ele>407.79998779296875</ele>
        <time>2015-05-03T08:46:54.000Z</time>
      </trkpt>
      <trkpt lat="39.863273268565536" lon="-6.0886795073747635">
        <ele>408.6000061035156</ele>
        <time>2015-05-03T08:46:58.000Z</time>
      </trkpt>
      <trkpt lat="39.863322135061026" lon="-6.0886176489293575">
        <ele>409.0</ele>
        <time>2015-05-03T08:47:00.000Z</time>
      </trkpt>
      <trkpt lat="39.863439900800586" lon="-6.088446574285626">
        <ele>410.0</ele>
        <time>2015-05-03T08:47:05.000Z</time>
      </trkpt>
      <trkpt lat="39.86360049806535" lon="-6.088248258456588">
        <ele>411.20001220703125</ele>
        <time>2015-05-03T08:47:11.000Z</time>
      </trkpt>
      <trkpt lat="39.8636637814343" lon="-6.0881979670375586">
        <ele>411.3999938964844</ele>
        <time>2015-05-03T08:47:13.000Z</time>
      </trkpt>
      <trkpt lat="39.86389445140958" lon="-6.088129235431552">
        <ele>412.20001220703125</ele>
        <time>2015-05-03T08:47:19.000Z</time>
      </trkpt>
      <trkpt lat="39.863935271278024" lon="-6.088139126077294">
        <ele>412.20001220703125</ele>
        <time>2015-05-03T08:47:20.000Z</time>
      </trkpt>
      <trkpt lat="39.86401506699622" lon="-6.088166618719697">
        <ele>412.20001220703125</ele>
        <time>2015-05-03T08:47:22.000Z</time>
      </trkpt>
      <trkpt lat="39.86405471339822" lon="-6.088185729458928">
        <ele>412.3999938964844</ele>
        <time>2015-05-03T08:47:23.000Z</time>
      </trkpt>
      <trkpt lat="39.86409620381892" lon="-6.088211964815855">
        <ele>412.79998779296875</ele>
        <time>2015-05-03T08:47:24.000Z</time>
      </trkpt>
      <trkpt lat="39.86431924626231" lon="-6.088418075814843">
        <ele>413.79998779296875</ele>
        <time>2015-05-03T08:47:30.000Z</time>
      </trkpt>
      <trkpt lat="39.864351097494364" lon="-6.088461494073272">
        <ele>414.0</ele>
        <time>2015-05-03T08:47:31.000Z</time>
      </trkpt>
      <trkpt lat="39.8644944280386" lon="-6.088701467961073">
        <ele>414.79998779296875</ele>
        <time>2015-05-03T08:47:36.000Z</time>
      </trkpt>
      <trkpt lat="39.864518735557795" lon="-6.088749077171087">
        <ele>414.79998779296875</ele>
        <time>2015-05-03T08:47:37.000Z</time>
      </trkpt>
      <trkpt lat="39.86463918350637" lon="-6.089034732431173">
        <ele>415.79998779296875</ele>
        <time>2015-05-03T08:47:42.000Z</time>
      </trkpt>
      <trkpt lat="39.864661479368806" lon="-6.089101703837514">
        <ele>416.0</ele>
        <time>2015-05-03T08:47:43.000Z</time>
      </trkpt>
      <trkpt lat="39.86472082324326" lon="-6.08936732634902">
        <ele>417.0</ele>
        <time>2015-05-03T08:47:47.000Z</time>
      </trkpt>
      <trkpt lat="39.86472669057548" lon="-6.089435555040836">
        <ele>417.20001220703125</ele>
        <time>2015-05-03T08:47:48.000Z</time>
      </trkpt>
      <trkpt lat="39.86473205499351" lon="-6.08950755558908">
        <ele>417.20001220703125</ele>
        <time>2015-05-03T08:47:49.000Z</time>
      </trkpt>
      <trkpt lat="39.86472509801388" lon="-6.089913826435804">
        <ele>417.6000061035156</ele>
        <time>2015-05-03T08:47:54.000Z</time>
      </trkpt>
      <trkpt lat="39.86463683657348" lon="-6.090385057032108">
        <ele>416.79998779296875</ele>
        <time>2015-05-03T08:47:59.000Z</time>
      </trkpt>
      <trkpt lat="39.86456349492073" lon="-6.090566273778677">
        <ele>416.3999938964844</ele>
        <time>2015-05-03T08:48:01.000Z</time>
      </trkpt>
      <trkpt lat="39.864475317299366" lon="-6.090726535767317">
        <ele>416.3999938964844</ele>
        <time>2015-05-03T08:48:03.000Z</time>
      </trkpt>
      <trkpt lat="39.864376997575164" lon="-6.090863076969981">
        <ele>416.6000061035156</ele>
        <time>2015-05-03T08:48:05.000Z</time>
      </trkpt>
      <trkpt lat="39.86426551826298" lon="-6.090978411957622">
        <ele>416.20001220703125</ele>
        <time>2015-05-03T08:48:07.000Z</time>
      </trkpt>
      <trkpt lat="39.86420340836048" lon="-6.091034822165966">
        <ele>416.20001220703125</ele>
        <time>2015-05-03T08:48:08.000Z</time>
      </trkpt>
      <trkpt lat="39.86407005228102" lon="-6.091122832149267">
        <ele>415.79998779296875</ele>
        <time>2015-05-03T08:48:10.000Z</time>
      </trkpt>
      <trkpt lat="39.863924542441964" lon="-6.0911675076931715">
        <ele>416.20001220703125</ele>
        <time>2015-05-03T08:48:12.000Z</time>
      </trkpt>
      <trkpt lat="39.86369077116251" lon="-6.091200364753604">
        <ele>416.6000061035156</ele>
        <time>2015-05-03T08:48:15.000Z</time>
      </trkpt>
      <trkpt lat="39.86353386193514" lon="-6.091206148266792">
        <ele>416.3999938964844</ele>
        <time>2015-05-03T08:48:17.000Z</time>
      </trkpt>
      <trkpt lat="39.86345909535885" lon="-6.091218385845423">
        <ele>416.3999938964844</ele>
        <time>2015-05-03T08:48:18.000Z</time>
      </trkpt>
      <trkpt lat="39.863247787579894" lon="-6.0913103353232145">
        <ele>417.0</ele>
        <time>2015-05-03T08:48:21.000Z</time>
      </trkpt>
      <trkpt lat="39.86318148672581" lon="-6.091347048059106">
        <ele>417.3999938964844</ele>
        <time>2015-05-03T08:48:22.000Z</time>
      </trkpt>
      <trkpt lat="39.863003455102444" lon="-6.091446289792657">
        <ele>418.6000061035156</ele>
        <time>2015-05-03T08:48:25.000Z</time>
      </trkpt>
      <trkpt lat="39.862946290522814" lon="-6.091480404138565">
        <ele>418.79998779296875</ele>
        <time>2015-05-03T08:48:26.000Z</time>
      </trkpt>
      <trkpt lat="39.862734731286764" lon="-6.091625243425369">
        <ele>419.6000061035156</ele>
        <time>2015-05-03T08:48:30.000Z</time>
      </trkpt>
      <trkpt lat="39.86259047873318" lon="-6.091742925345898">
        <ele>420.20001220703125</ele>
        <time>2015-05-03T08:48:33.000Z</time>
      </trkpt>
      <trkpt lat="39.8624911531806" lon="-6.091812243685126">
        <ele>421.0</ele>
        <time>2015-05-03T08:48:35.000Z</time>
      </trkpt>
      <trkpt lat="39.862252520397305" lon="-6.091972589492798">
        <ele>421.6000061035156</ele>
        <time>2015-05-03T08:48:40.000Z</time>
      </trkpt>
      <trkpt lat="39.86206602305174" lon="-6.092117177322507">
        <ele>422.20001220703125</ele>
        <time>2015-05-03T08:48:44.000Z</time>
      </trkpt>
      <trkpt lat="39.86193610355258" lon="-6.092230584472418">
        <ele>423.20001220703125</ele>
        <time>2015-05-03T08:48:47.000Z</time>
      </trkpt>
      <trkpt lat="39.861851865425706" lon="-6.092314571142197">
        <ele>423.3999938964844</ele>
        <time>2015-05-03T08:48:49.000Z</time>
      </trkpt>
      <trkpt lat="39.8618143144995" lon="-6.09236117452383">
        <ele>423.6000061035156</ele>
        <time>2015-05-03T08:48:50.000Z</time>
      </trkpt>
      <trkpt lat="39.86169529147446" lon="-6.0924960393458605">
        <ele>423.79998779296875</ele>
        <time>2015-05-03T08:48:53.000Z</time>
      </trkpt>
      <trkpt lat="39.861583141610026" lon="-6.0926297307014465">
        <ele>424.79998779296875</ele>
        <time>2015-05-03T08:48:56.000Z</time>
      </trkpt>
      <trkpt lat="39.8614118155092" lon="-6.092855120077729">
        <ele>425.79998779296875</ele>
        <time>2015-05-03T08:49:01.000Z</time>
      </trkpt>
      <trkpt lat="39.861387172713876" lon="-6.0929106920957565">
        <ele>426.20001220703125</ele>
        <time>2015-05-03T08:49:02.000Z</time>
      </trkpt>
      <trkpt lat="39.861338222399354" lon="-6.093076653778553">
        <ele>426.0</ele>
        <time>2015-05-03T08:49:05.000Z</time>
      </trkpt>
      <trkpt lat="39.861352387815714" lon="-6.093135746195912">
        <ele>426.20001220703125</ele>
        <time>2015-05-03T08:49:06.000Z</time>
      </trkpt>
      <trkpt lat="39.86148021183908" lon="-6.093248063698411">
        <ele>426.3999938964844</ele>
        <time>2015-05-03T08:49:09.000Z</time>
      </trkpt>
      <trkpt lat="39.861643658950925" lon="-6.093227108940482">
        <ele>426.3999938964844</ele>
        <time>2015-05-03T08:49:12.000Z</time>
      </trkpt>
      <trkpt lat="39.86179579049349" lon="-6.093084951862693">
        <ele>426.6000061035156</ele>
        <time>2015-05-03T08:49:15.000Z</time>
      </trkpt>
      <trkpt lat="39.86185044050217" lon="-6.093038348481059">
        <ele>426.6000061035156</ele>
        <time>2015-05-03T08:49:16.000Z</time>
      </trkpt>
      <trkpt lat="39.86190886236727" lon="-6.092998702079058">
        <ele>426.20001220703125</ele>
        <time>2015-05-03T08:49:17.000Z</time>
      </trkpt>
      <trkpt lat="39.86210851930082" lon="-6.092920247465372">
        <ele>425.79998779296875</ele>
        <time>2015-05-03T08:49:20.000Z</time>
      </trkpt>
      <trkpt lat="39.8624721262604" lon="-6.0928682796657085">
        <ele>425.6000061035156</ele>
        <time>2015-05-03T08:49:25.000Z</time>
      </trkpt>
      <trkpt lat="39.86281578429043" lon="-6.092895520851016">
        <ele>425.3999938964844</ele>
        <time>2015-05-03T08:49:29.000Z</time>
      </trkpt>
      <trkpt lat="39.86324166879058" lon="-6.092983866110444">
        <ele>425.20001220703125</ele>
        <time>2015-05-03T08:49:34.000Z</time>
      </trkpt>
      <trkpt lat="39.86331760883331" lon="-6.093033822253346">
        <ele>425.20001220703125</ele>
        <time>2015-05-03T08:49:35.000Z</time>
      </trkpt>
      <trkpt lat="39.8634959757328" lon="-6.09325485303998">
        <ele>425.3999938964844</ele>
        <time>2015-05-03T08:49:38.000Z</time>
      </trkpt>
      <trkpt lat="39.86361793242395" lon="-6.093636816367507">
        <ele>426.0</ele>
        <time>2015-05-03T08:49:42.000Z</time>
      </trkpt>
      <trkpt lat="39.86363863572478" lon="-6.093830857425928">
        <ele>426.3999938964844</ele>
        <time>2015-05-03T08:49:44.000Z</time>
      </trkpt>
      <trkpt lat="39.86365456134081" lon="-6.094012074172497">
        <ele>427.20001220703125</ele>
        <time>2015-05-03T08:49:46.000Z</time>
      </trkpt>
      <trkpt lat="39.86365959048271" lon="-6.094101257622242">
        <ele>427.6000061035156</ele>
        <time>2015-05-03T08:49:47.000Z</time>
      </trkpt>
      <trkpt lat="39.86367157660425" lon="-6.094260010868311">
        <ele>428.3999938964844</ele>
        <time>2015-05-03T08:49:49.000Z</time>
      </trkpt>
      <trkpt lat="39.86369135789573" lon="-6.094481879845262">
        <ele>429.3999938964844</ele>
        <time>2015-05-03T08:49:52.000Z</time>
      </trkpt>
      <trkpt lat="39.86372044309974" lon="-6.094764601439238">
        <ele>430.3999938964844</ele>
        <time>2015-05-03T08:49:56.000Z</time>
      </trkpt>
      <trkpt lat="39.86372052691877" lon="-6.095090741291642">
        <ele>431.0</ele>
        <time>2015-05-03T08:50:00.000Z</time>
      </trkpt>
      <trkpt lat="39.86371281556785" lon="-6.095169028267264">
        <ele>431.3999938964844</ele>
        <time>2015-05-03T08:50:01.000Z</time>
      </trkpt>
      <trkpt lat="39.8636859934777" lon="-6.095485193654895">
        <ele>432.6000061035156</ele>
        <time>2015-05-03T08:50:05.000Z</time>
      </trkpt>
      <trkpt lat="39.86360091716051" lon="-6.0959874372929335">
        <ele>433.79998779296875</ele>
        <time>2015-05-03T08:50:11.000Z</time>
      </trkpt>
      <trkpt lat="39.86356227658689" lon="-6.096232021227479">
        <ele>435.0</ele>
        <time>2015-05-03T08:50:14.000Z</time>
      </trkpt>
      <trkpt lat="39.863545345142484" lon="-6.096385912969708">
        <ele>436.20001220703125</ele>
        <time>2015-05-03T08:50:16.000Z</time>
      </trkpt>
      <trkpt lat="39.863535119220614" lon="-6.096467301249504">
        <ele>436.3999938964844</ele>
        <time>2015-05-03T08:50:17.000Z</time>
      </trkpt>
      <trkpt lat="39.863522881641984" lon="-6.0967783536762">
        <ele>437.3999938964844</ele>
        <time>2015-05-03T08:50:21.000Z</time>
      </trkpt>
      <trkpt lat="39.863532269373536" lon="-6.096930904313922">
        <ele>437.79998779296875</ele>
        <time>2015-05-03T08:50:23.000Z</time>
      </trkpt>
      <trkpt lat="39.863555151969194" lon="-6.097302976995707">
        <ele>438.6000061035156</ele>
        <time>2015-05-03T08:50:28.000Z</time>
      </trkpt>
      <trkpt lat="39.86352816224098" lon="-6.097447732463479">
        <ele>439.0</ele>
        <time>2015-05-03T08:50:30.000Z</time>
      </trkpt>
      <trkpt lat="39.863493125885725" lon="-6.097585866227746">
        <ele>439.6000061035156</ele>
        <time>2015-05-03T08:50:32.000Z</time>
      </trkpt>
      <trkpt lat="39.86347124911845" lon="-6.09764663502574">
        <ele>440.0</ele>
        <time>2015-05-03T08:50:33.000Z</time>
      </trkpt>
      <trkpt lat="39.86343001015484" lon="-6.097764316946268">
        <ele>440.0</ele>
        <time>2015-05-03T08:50:35.000Z</time>
      </trkpt>
      <trkpt lat="39.863411989063025" lon="-6.097832294180989">
        <ele>440.3999938964844</ele>
        <time>2015-05-03T08:50:36.000Z</time>
      </trkpt>
      <trkpt lat="39.863372007384896" lon="-6.097973613068461">
        <ele>441.0</ele>
        <time>2015-05-03T08:50:38.000Z</time>
      </trkpt>
      <trkpt lat="39.8632922116667" lon="-6.098245605826378">
        <ele>441.6000061035156</ele>
        <time>2015-05-03T08:50:42.000Z</time>
      </trkpt>
      <trkpt lat="39.86326044425368" lon="-6.098447777330875">
        <ele>442.0</ele>
        <time>2015-05-03T08:50:45.000Z</time>
      </trkpt>
      <trkpt lat="39.86323890276253" lon="-6.098658749833703">
        <ele>442.6000061035156</ele>
        <time>2015-05-03T08:50:48.000Z</time>
      </trkpt>
      <trkpt lat="39.863228760659695" lon="-6.098797805607319">
        <ele>443.20001220703125</ele>
        <time>2015-05-03T08:50:50.000Z</time>
      </trkpt>
      <trkpt lat="39.86319632269442" lon="-6.099204998463392">
        <ele>444.20001220703125</ele>
        <time>2015-05-03T08:50:56.000Z</time>
      </trkpt>
      <trkpt lat="39.86319322139025" lon="-6.099270209670067">
        <ele>444.20001220703125</ele>
        <time>2015-05-03T08:50:57.000Z</time>
      </trkpt>
      <trkpt lat="39.86319531686604" lon="-6.099337013438344">
        <ele>444.6000061035156</ele>
        <time>2015-05-03T08:50:58.000Z</time>
      </trkpt>
      <trkpt lat="39.86320051364601" lon="-6.099528707563877">
        <ele>445.20001220703125</ele>
        <time>2015-05-03T08:51:01.000Z</time>
      </trkpt>
      <trkpt lat="39.86321400851011" lon="-6.099714366719127">
        <ele>445.79998779296875</ele>
        <time>2015-05-03T08:51:04.000Z</time>
      </trkpt>
      <trkpt lat="39.86322607845068" lon="-6.0999067313969135">
        <ele>446.79998779296875</ele>
        <time>2015-05-03T08:51:07.000Z</time>
      </trkpt>
      <trkpt lat="39.863226916641" lon="-6.100161289796233">
        <ele>447.6000061035156</ele>
        <time>2015-05-03T08:51:11.000Z</time>
      </trkpt>
      <trkpt lat="39.86322063021362" lon="-6.10022415407002">
        <ele>447.79998779296875</ele>
        <time>2015-05-03T08:51:12.000Z</time>
      </trkpt>
      <trkpt lat="39.8632060457021" lon="-6.100346781313419">
        <ele>448.20001220703125</ele>
        <time>2015-05-03T08:51:14.000Z</time>
      </trkpt>
      <trkpt lat="39.86318802461028" lon="-6.1004651337862015">
        <ele>449.0</ele>
        <time>2015-05-03T08:51:16.000Z</time>
      </trkpt>
      <trkpt lat="39.86316363327205" lon="-6.100710555911064">
        <ele>449.3999938964844</ele>
        <time>2015-05-03T08:51:20.000Z</time>
      </trkpt>
      <trkpt lat="39.863164806738496" lon="-6.1007764376699924">
        <ele>449.20001220703125</ele>
        <time>2015-05-03T08:51:21.000Z</time>
      </trkpt>
      <trkpt lat="39.86322758719325" lon="-6.101095704361796">
        <ele>449.79998779296875</ele>
        <time>2015-05-03T08:51:26.000Z</time>
      </trkpt>
      <trkpt lat="39.86324460245669" lon="-6.101158484816551">
        <ele>449.79998779296875</ele>
        <time>2015-05-03T08:51:27.000Z</time>
      </trkpt>
      <trkpt lat="39.863283494487405" lon="-6.101358896121383">
        <ele>449.79998779296875</ele>
        <time>2015-05-03T08:51:30.000Z</time>
      </trkpt>
      <trkpt lat="39.86327360384166" lon="-6.101504070684314">
        <ele>450.0</ele>
        <time>2015-05-03T08:51:32.000Z</time>
      </trkpt>
      <trkpt lat="39.86325893551111" lon="-6.101578250527382">
        <ele>450.20001220703125</ele>
        <time>2015-05-03T08:51:33.000Z</time>
      </trkpt>
      <trkpt lat="39.86318651586771" lon="-6.101865079253912">
        <ele>450.3999938964844</ele>
        <time>2015-05-03T08:51:37.000Z</time>
      </trkpt>
      <trkpt lat="39.863064559176564" lon="-6.102396659553051">
        <ele>450.79998779296875</ele>
        <time>2015-05-03T08:51:44.000Z</time>
      </trkpt>
      <trkpt lat="39.86306154169142" lon="-6.102481484413147">
        <ele>450.6000061035156</ele>
        <time>2015-05-03T08:51:45.000Z</time>
      </trkpt>
      <trkpt lat="39.86306774429977" lon="-6.102730929851532">
        <ele>450.6000061035156</ele>
        <time>2015-05-03T08:51:48.000Z</time>
      </trkpt>
      <trkpt lat="39.86306305043399" lon="-6.102813156321645">
        <ele>450.6000061035156</ele>
        <time>2015-05-03T08:51:49.000Z</time>
      </trkpt>
      <trkpt lat="39.86301686614752" lon="-6.103050364181399">
        <ele>450.79998779296875</ele>
        <time>2015-05-03T08:51:52.000Z</time>
      </trkpt>
      <trkpt lat="39.862936148419976" lon="-6.103263767436147">
        <ele>451.6000061035156</ele>
        <time>2015-05-03T08:51:55.000Z</time>
      </trkpt>
      <trkpt lat="39.86290588974953" lon="-6.10333283431828">
        <ele>451.3999938964844</ele>
        <time>2015-05-03T08:51:56.000Z</time>
      </trkpt>
      <trkpt lat="39.862849144265056" lon="-6.103469794616103">
        <ele>452.0</ele>
        <time>2015-05-03T08:51:58.000Z</time>
      </trkpt>
      <trkpt lat="39.86279466189444" lon="-6.103600049391389">
        <ele>452.0</ele>
        <time>2015-05-03T08:52:00.000Z</time>
      </trkpt>
      <trkpt lat="39.86273758113384" lon="-6.103812279179692">
        <ele>452.0</ele>
        <time>2015-05-03T08:52:03.000Z</time>
      </trkpt>
      <trkpt lat="39.86272777430713" lon="-6.1039577051997185">
        <ele>452.6000061035156</ele>
        <time>2015-05-03T08:52:05.000Z</time>
      </trkpt>
      <trkpt lat="39.86273691058159" lon="-6.104187872260809">
        <ele>453.0</ele>
        <time>2015-05-03T08:52:08.000Z</time>
      </trkpt>
      <trkpt lat="39.86282433383167" lon="-6.104509234428406">
        <ele>452.79998779296875</ele>
        <time>2015-05-03T08:52:12.000Z</time>
      </trkpt>
      <trkpt lat="39.86287244595587" lon="-6.10466631129384">
        <ele>453.0</ele>
        <time>2015-05-03T08:52:14.000Z</time>
      </trkpt>
      <trkpt lat="39.86294126138091" lon="-6.105000413954258">
        <ele>453.20001220703125</ele>
        <time>2015-05-03T08:52:18.000Z</time>
      </trkpt>
      <trkpt lat="39.86290949396789" lon="-6.105348262935877">
        <ele>453.20001220703125</ele>
        <time>2015-05-03T08:52:22.000Z</time>
      </trkpt>
      <trkpt lat="39.86281662248075" lon="-6.10580088570714">
        <ele>452.3999938964844</ele>
        <time>2015-05-03T08:52:27.000Z</time>
      </trkpt>
      <trkpt lat="39.86281117424369" lon="-6.10589811578393">
        <ele>452.20001220703125</ele>
        <time>2015-05-03T08:52:28.000Z</time>
      </trkpt>
      <trkpt lat="39.86279600299895" lon="-6.106278151273727">
        <ele>452.79998779296875</ele>
        <time>2015-05-03T08:52:32.000Z</time>
      </trkpt>
      <trkpt lat="39.86278736963868" lon="-6.106559112668037">
        <ele>453.0</ele>
        <time>2015-05-03T08:52:35.000Z</time>
      </trkpt>
      <trkpt lat="39.8628053907305" lon="-6.106742843985558">
        <ele>452.6000061035156</ele>
        <time>2015-05-03T08:52:37.000Z</time>
      </trkpt>
      <trkpt lat="39.862818382680416" lon="-6.1070105619728565">
        <ele>453.20001220703125</ele>
        <time>2015-05-03T08:52:40.000Z</time>
      </trkpt>
      <trkpt lat="39.862805642187595" lon="-6.107274340465665">
        <ele>453.6000061035156</ele>
        <time>2015-05-03T08:52:43.000Z</time>
      </trkpt>
      <trkpt lat="39.86279449425638" lon="-6.107361344620585">
        <ele>453.79998779296875</ele>
        <time>2015-05-03T08:52:44.000Z</time>
      </trkpt>
      <trkpt lat="39.86277739517391" lon="-6.107446923851967">
        <ele>453.79998779296875</ele>
        <time>2015-05-03T08:52:45.000Z</time>
      </trkpt>
      <trkpt lat="39.86274286173284" lon="-6.107709361240268">
        <ele>454.0</ele>
        <time>2015-05-03T08:52:48.000Z</time>
      </trkpt>
      <trkpt lat="39.86268720589578" lon="-6.107964087277651">
        <ele>454.0</ele>
        <time>2015-05-03T08:52:51.000Z</time>
      </trkpt>
      <trkpt lat="39.86262308433652" lon="-6.108124768361449">
        <ele>454.3999938964844</ele>
        <time>2015-05-03T08:52:53.000Z</time>
      </trkpt>
      <trkpt lat="39.862548653036356" lon="-6.10827287659049">
        <ele>454.0</ele>
        <time>2015-05-03T08:52:55.000Z</time>
      </trkpt>
      <trkpt lat="39.86243532970548" lon="-6.108495919033885">
        <ele>454.79998779296875</ele>
        <time>2015-05-03T08:52:58.000Z</time>
      </trkpt>
      <trkpt lat="39.862358970567584" lon="-6.108638495206833">
        <ele>454.79998779296875</ele>
        <time>2015-05-03T08:53:00.000Z</time>
      </trkpt>
      <trkpt lat="39.86213877797127" lon="-6.109005371108651">
        <ele>454.20001220703125</ele>
        <time>2015-05-03T08:53:05.000Z</time>
      </trkpt>
      <trkpt lat="39.862045319750905" lon="-6.109167980030179">
        <ele>453.79998779296875</ele>
        <time>2015-05-03T08:53:07.000Z</time>
      </trkpt>
      <trkpt lat="39.861855218186975" lon="-6.1094973888248205">
        <ele>453.6000061035156</ele>
        <time>2015-05-03T08:53:11.000Z</time>
      </trkpt>
      <trkpt lat="39.86180693842471" lon="-6.109573245048523">
        <ele>453.6000061035156</ele>
        <time>2015-05-03T08:53:12.000Z</time>
      </trkpt>
      <trkpt lat="39.86176745966077" lon="-6.109649604186416">
        <ele>453.79998779296875</ele>
        <time>2015-05-03T08:53:13.000Z</time>
      </trkpt>
      <trkpt lat="39.86166427843273" lon="-6.109850853681564">
        <ele>453.79998779296875</ele>
        <time>2015-05-03T08:53:16.000Z</time>
      </trkpt>
      <trkpt lat="39.86151600256562" lon="-6.110031651332974">
        <ele>452.3999938964844</ele>
        <time>2015-05-03T08:53:19.000Z</time>
      </trkpt>
      <trkpt lat="39.86147082410753" lon="-6.110118655487895">
        <ele>452.20001220703125</ele>
        <time>2015-05-03T08:53:20.000Z</time>
      </trkpt>
      <trkpt lat="39.86139027401805" lon="-6.110316468402743">
        <ele>451.20001220703125</ele>
        <time>2015-05-03T08:53:22.000Z</time>
      </trkpt>
      <trkpt lat="39.861304527148604" lon="-6.110535571351647">
        <ele>450.20001220703125</ele>
        <time>2015-05-03T08:53:24.000Z</time>
      </trkpt>
      <trkpt lat="39.86117938533425" lon="-6.1108839232474566">
        <ele>448.79998779296875</ele>
        <time>2015-05-03T08:53:27.000Z</time>
      </trkpt>
      <trkpt lat="39.86110688187182" lon="-6.111135128885508">
        <ele>447.79998779296875</ele>
        <time>2015-05-03T08:53:29.000Z</time>
      </trkpt>
      <trkpt lat="39.86107301898301" lon="-6.111264964565635">
        <ele>447.0</ele>
        <time>2015-05-03T08:53:30.000Z</time>
      </trkpt>
      <trkpt lat="39.86104242503643" lon="-6.111396895721555">
        <ele>446.3999938964844</ele>
        <time>2015-05-03T08:53:31.000Z</time>
      </trkpt>
      <trkpt lat="39.8609612043947" lon="-6.111812889575958">
        <ele>444.6000061035156</ele>
        <time>2015-05-03T08:53:34.000Z</time>
      </trkpt>
      <trkpt lat="39.86090152524412" lon="-6.112098880112171">
        <ele>443.20001220703125</ele>
        <time>2015-05-03T08:53:36.000Z</time>
      </trkpt>
      <trkpt lat="39.860811587423086" lon="-6.112548653036356">
        <ele>441.79998779296875</ele>
        <time>2015-05-03T08:53:39.000Z</time>
      </trkpt>
      <trkpt lat="39.8607571888715" lon="-6.11285962164402">
        <ele>440.6000061035156</ele>
        <time>2015-05-03T08:53:41.000Z</time>
      </trkpt>
      <trkpt lat="39.860705556347966" lon="-6.113187940791249">
        <ele>439.0</ele>
        <time>2015-05-03T08:53:43.000Z</time>
      </trkpt>
      <trkpt lat="39.86067487858236" lon="-6.113354992121458">
        <ele>438.0</ele>
        <time>2015-05-03T08:53:44.000Z</time>
      </trkpt>
      <trkpt lat="39.86064026132226" lon="-6.113522043451667">
        <ele>436.6000061035156</ele>
        <time>2015-05-03T08:53:45.000Z</time>
      </trkpt>
      <trkpt lat="39.86060354858637" lon="-6.113690687343478">
        <ele>435.79998779296875</ele>
        <time>2015-05-03T08:53:46.000Z</time>
      </trkpt>
      <trkpt lat="39.860565746203065" lon="-6.113857654854655">
        <ele>435.20001220703125</ele>
        <time>2015-05-03T08:53:47.000Z</time>
      </trkpt>
      <trkpt lat="39.86052635125816" lon="-6.114028058946133">
        <ele>434.79998779296875</ele>
        <time>2015-05-03T08:53:48.000Z</time>
      </trkpt>
      <trkpt lat="39.860481256619096" lon="-6.114191506057978">
        <ele>434.0</ele>
        <time>2015-05-03T08:53:49.000Z</time>
      </trkpt>
      <trkpt lat="39.86033298075199" lon="-6.114676231518388">
        <ele>432.79998779296875</ele>
        <time>2015-05-03T08:53:52.000Z</time>
      </trkpt>
      <trkpt lat="39.860234996303916" lon="-6.114987535402179">
        <ele>431.79998779296875</ele>
        <time>2015-05-03T08:53:54.000Z</time>
      </trkpt>
      <trkpt lat="39.860120080411434" lon="-6.115292049944401">
        <ele>430.79998779296875</ele>
        <time>2015-05-03T08:53:56.000Z</time>
      </trkpt>
      <trkpt lat="39.86001497134566" lon="-6.115600168704987">
        <ele>429.6000061035156</ele>
        <time>2015-05-03T08:53:58.000Z</time>
      </trkpt>
      <trkpt lat="39.859930062666535" lon="-6.11591356806457">
        <ele>428.79998779296875</ele>
        <time>2015-05-03T08:54:00.000Z</time>
      </trkpt>
      <trkpt lat="39.85989267937839" lon="-6.116072069853544">
        <ele>427.79998779296875</ele>
        <time>2015-05-03T08:54:01.000Z</time>
      </trkpt>
      <trkpt lat="39.85985906794667" lon="-6.116233002394438">
        <ele>426.6000061035156</ele>
        <time>2015-05-03T08:54:02.000Z</time>
      </trkpt>
      <trkpt lat="39.85982897691429" lon="-6.116389408707619">
        <ele>426.0</ele>
        <time>2015-05-03T08:54:03.000Z</time>
      </trkpt>
      <trkpt lat="39.859772650524974" lon="-6.116712195798755">
        <ele>425.0</ele>
        <time>2015-05-03T08:54:05.000Z</time>
      </trkpt>
      <trkpt lat="39.859735602512956" lon="-6.11704520881176">
        <ele>423.20001220703125</ele>
        <time>2015-05-03T08:54:07.000Z</time>
      </trkpt>
      <trkpt lat="39.859718503430486" lon="-6.117213014513254">
        <ele>422.79998779296875</ele>
        <time>2015-05-03T08:54:08.000Z</time>
      </trkpt>
      <trkpt lat="39.8597005661577" lon="-6.117372522130609">
        <ele>422.20001220703125</ele>
        <time>2015-05-03T08:54:09.000Z</time>
      </trkpt>
      <trkpt lat="39.85967508517206" lon="-6.117859426885843">
        <ele>420.79998779296875</ele>
        <time>2015-05-03T08:54:12.000Z</time>
      </trkpt>
      <trkpt lat="39.85967332497239" lon="-6.118028741329908">
        <ele>419.79998779296875</ele>
        <time>2015-05-03T08:54:13.000Z</time>
      </trkpt>
      <trkpt lat="39.859675001353025" lon="-6.118198977783322">
        <ele>419.6000061035156</ele>
        <time>2015-05-03T08:54:14.000Z</time>
      </trkpt>
      <trkpt lat="39.85971045680344" lon="-6.118517741560936">
        <ele>418.3999938964844</ele>
        <time>2015-05-03T08:54:16.000Z</time>
      </trkpt>
      <trkpt lat="39.859729651361704" lon="-6.118632322177291">
        <ele>416.79998779296875</ele>
        <time>2015-05-03T08:54:17.000Z</time>
      </trkpt>
      <trkpt lat="39.859729148447514" lon="-6.118718907237053">
        <ele>415.20001220703125</ele>
        <time>2015-05-03T08:54:18.000Z</time>
      </trkpt>
      <trkpt lat="39.859694028273225" lon="-6.118777832016349">
        <ele>414.20001220703125</ele>
        <time>2015-05-03T08:54:19.000Z</time>
      </trkpt>
      <trkpt lat="39.85963258892298" lon="-6.118778502568603">
        <ele>414.0</ele>
        <time>2015-05-03T08:54:20.000Z</time>
      </trkpt>
      <trkpt lat="39.85957643017173" lon="-6.11872460693121">
        <ele>413.3999938964844</ele>
        <time>2015-05-03T08:54:21.000Z</time>
      </trkpt>
      <trkpt lat="39.85952513292432" lon="-6.118636429309845">
        <ele>412.79998779296875</ele>
        <time>2015-05-03T08:54:22.000Z</time>
      </trkpt>
      <trkpt lat="39.85948230139911" lon="-6.118535092100501">
        <ele>411.79998779296875</ele>
        <time>2015-05-03T08:54:23.000Z</time>
      </trkpt>
      <trkpt lat="39.85943318344653" lon="-6.118423193693161">
        <ele>410.79998779296875</ele>
        <time>2015-05-03T08:54:24.000Z</time>
      </trkpt>
      <trkpt lat="39.859333941712976" lon="-6.118176598101854">
        <ele>408.79998779296875</ele>
        <time>2015-05-03T08:54:26.000Z</time>
      </trkpt>
      <trkpt lat="39.85928054898977" lon="-6.118047600612044">
        <ele>408.0</ele>
        <time>2015-05-03T08:54:27.000Z</time>
      </trkpt>
      <trkpt lat="39.85922229476273" lon="-6.1179159209132195">
        <ele>407.20001220703125</ele>
        <time>2015-05-03T08:54:28.000Z</time>
      </trkpt>
      <trkpt lat="39.85916152596474" lon="-6.1177857499569654">
        <ele>406.0</ele>
        <time>2015-05-03T08:54:29.000Z</time>
      </trkpt>
      <trkpt lat="39.85903797671199" lon="-6.117512499913573">
        <ele>404.0</ele>
        <time>2015-05-03T08:54:31.000Z</time>
      </trkpt>
      <trkpt lat="39.85896756872535" lon="-6.117369085550308">
        <ele>403.20001220703125</ele>
        <time>2015-05-03T08:54:32.000Z</time>
      </trkpt>
      <trkpt lat="39.858881989493966" lon="-6.117244027554989">
        <ele>402.20001220703125</ele>
        <time>2015-05-03T08:54:33.000Z</time>
      </trkpt>
      <trkpt lat="39.85877704806626" lon="-6.117141181603074">
        <ele>401.20001220703125</ele>
        <time>2015-05-03T08:54:34.000Z</time>
      </trkpt>
      <trkpt lat="39.85866020433605" lon="-6.117065912112594">
        <ele>400.0</ele>
        <time>2015-05-03T08:54:35.000Z</time>
      </trkpt>
      <trkpt lat="39.85854067839682" lon="-6.116998102515936">
        <ele>398.3999938964844</ele>
        <time>2015-05-03T08:54:36.000Z</time>
      </trkpt>
      <trkpt lat="39.85842442139983" lon="-6.116928784176707">
        <ele>397.20001220703125</ele>
        <time>2015-05-03T08:54:37.000Z</time>
      </trkpt>
      <trkpt lat="39.85831637866795" lon="-6.116884360089898">
        <ele>396.20001220703125</ele>
        <time>2015-05-03T08:54:38.000Z</time>
      </trkpt>
      <trkpt lat="39.85822652466595" lon="-6.11687857657671">
        <ele>395.6000061035156</ele>
        <time>2015-05-03T08:54:39.000Z</time>
      </trkpt>
      <trkpt lat="39.85808629542589" lon="-6.1169979348778725">
        <ele>395.20001220703125</ele>
        <time>2015-05-03T08:54:41.000Z</time>
      </trkpt>
      <trkpt lat="39.858067436143756" lon="-6.117119304835796">
        <ele>394.3999938964844</ele>
        <time>2015-05-03T08:54:42.000Z</time>
      </trkpt>
      <trkpt lat="39.85807531513274" lon="-6.117243776097894">
        <ele>393.6000061035156</ele>
        <time>2015-05-03T08:54:43.000Z</time>
      </trkpt>
      <trkpt lat="39.858096772804856" lon="-6.117364559322596">
        <ele>393.0</ele>
        <time>2015-05-03T08:54:44.000Z</time>
      </trkpt>
      <trkpt lat="39.858190063387156" lon="-6.11759640276432">
        <ele>392.20001220703125</ele>
        <time>2015-05-03T08:54:46.000Z</time>
      </trkpt>
      <trkpt lat="39.858258878812194" lon="-6.117694387212396">
        <ele>392.0</ele>
        <time>2015-05-03T08:54:47.000Z</time>
      </trkpt>
      <trkpt lat="39.85840246081352" lon="-6.1178867518901825">
        <ele>391.20001220703125</ele>
        <time>2015-05-03T08:54:49.000Z</time>
      </trkpt>
      <trkpt lat="39.8584468010813" lon="-6.1180145759135485">
        <ele>390.3999938964844</ele>
        <time>2015-05-03T08:54:50.000Z</time>
      </trkpt>
      <trkpt lat="39.85845644026995" lon="-6.118148937821388">
        <ele>388.79998779296875</ele>
        <time>2015-05-03T08:54:51.000Z</time>
      </trkpt>
      <trkpt lat="39.858415285125375" lon="-6.118414727970958">
        <ele>388.3999938964844</ele>
        <time>2015-05-03T08:54:53.000Z</time>
      </trkpt>
      <trkpt lat="39.85839055851102" lon="-6.118549257516861">
        <ele>388.0</ele>
        <time>2015-05-03T08:54:54.000Z</time>
      </trkpt>
      <trkpt lat="39.85837052576244" lon="-6.118683200329542">
        <ele>387.6000061035156</ele>
        <time>2015-05-03T08:54:55.000Z</time>
      </trkpt>
      <trkpt lat="39.85833054408431" lon="-6.118957959115505">
        <ele>386.3999938964844</ele>
        <time>2015-05-03T08:54:57.000Z</time>
      </trkpt>
      <trkpt lat="39.85827983357012" lon="-6.11923866905272">
        <ele>385.0</ele>
        <time>2015-05-03T08:54:59.000Z</time>
      </trkpt>
      <trkpt lat="39.858274217695" lon="-6.119383340701461">
        <ele>384.0</ele>
        <time>2015-05-03T08:55:00.000Z</time>
      </trkpt>
      <trkpt lat="39.858294585719705" lon="-6.119513092562556">
        <ele>382.79998779296875</ele>
        <time>2015-05-03T08:55:01.000Z</time>
      </trkpt>
      <trkpt lat="39.85834370367229" lon="-6.119624739512801">
        <ele>381.6000061035156</ele>
        <time>2015-05-03T08:55:02.000Z</time>
      </trkpt>
      <trkpt lat="39.85850254073739" lon="-6.119770333170891">
        <ele>380.3999938964844</ele>
        <time>2015-05-03T08:55:04.000Z</time>
      </trkpt>
      <trkpt lat="39.85859910026193" lon="-6.119823306798935">
        <ele>379.79998779296875</ele>
        <time>2015-05-03T08:55:05.000Z</time>
      </trkpt>
      <trkpt lat="39.85869507305324" lon="-6.119882650673389">
        <ele>379.20001220703125</ele>
        <time>2015-05-03T08:55:06.000Z</time>
      </trkpt>
      <trkpt lat="39.8587784729898" lon="-6.119947610422969">
        <ele>378.3999938964844</ele>
        <time>2015-05-03T08:55:07.000Z</time>
      </trkpt>
      <trkpt lat="39.85883764922619" lon="-6.120012486353517">
        <ele>377.6000061035156</ele>
        <time>2015-05-03T08:55:08.000Z</time>
      </trkpt>
      <trkpt lat="39.85887184739113" lon="-6.120194625109434">
        <ele>376.20001220703125</ele>
        <time>2015-05-03T08:55:10.000Z</time>
      </trkpt>
      <trkpt lat="39.858790626749396" lon="-6.120334602892399">
        <ele>375.20001220703125</ele>
        <time>2015-05-03T08:55:12.000Z</time>
      </trkpt>
      <trkpt lat="39.85860991291702" lon="-6.120386319234967">
        <ele>375.79998779296875</ele>
        <time>2015-05-03T08:55:15.000Z</time>
      </trkpt>
      <trkpt lat="39.858548138290644" lon="-6.120395623147488">
        <ele>376.3999938964844</ele>
        <time>2015-05-03T08:55:16.000Z</time>
      </trkpt>
      <trkpt lat="39.85843246802688" lon="-6.120430659502745">
        <ele>376.79998779296875</ele>
        <time>2015-05-03T08:55:18.000Z</time>
      </trkpt>
      <trkpt lat="39.85832425765693" lon="-6.120481034740806">
        <ele>377.0</ele>
        <time>2015-05-03T08:55:20.000Z</time>
      </trkpt>
      <trkpt lat="39.85827287659049" lon="-6.1205055098980665">
        <ele>377.20001220703125</ele>
        <time>2015-05-03T08:55:21.000Z</time>
      </trkpt>
      <trkpt lat="39.858171455562115" lon="-6.120563512668014">
        <ele>377.79998779296875</ele>
        <time>2015-05-03T08:55:23.000Z</time>
      </trkpt>
      <trkpt lat="39.85807657241821" lon="-6.120614223182201">
        <ele>378.6000061035156</ele>
        <time>2015-05-03T08:55:25.000Z</time>
      </trkpt>
      <trkpt lat="39.8579943459481" lon="-6.120666190981865">
        <ele>379.6000061035156</ele>
        <time>2015-05-03T08:55:27.000Z</time>
      </trkpt>
      <trkpt lat="39.857955034822226" lon="-6.120687983930111">
        <ele>379.79998779296875</ele>
        <time>2015-05-03T08:55:28.000Z</time>
      </trkpt>
      <trkpt lat="39.857880771160126" lon="-6.120729390531778">
        <ele>380.6000061035156</ele>
        <time>2015-05-03T08:55:30.000Z</time>
      </trkpt>
      <trkpt lat="39.857847495004535" lon="-6.1207508482038975">
        <ele>381.3999938964844</ele>
        <time>2015-05-03T08:55:31.000Z</time>
      </trkpt>
      <trkpt lat="39.857783457264304" lon="-6.12078906968236">
        <ele>382.20001220703125</ele>
        <time>2015-05-03T08:55:33.000Z</time>
      </trkpt>
      <trkpt lat="39.85775479115546" lon="-6.12081203609705">
        <ele>382.3999938964844</ele>
        <time>2015-05-03T08:55:34.000Z</time>
      </trkpt>
      <trkpt lat="39.857673989608884" lon="-6.1208907421678305">
        <ele>383.6000061035156</ele>
        <time>2015-05-03T08:55:37.000Z</time>
      </trkpt>
      <trkpt lat="39.8576195910573" lon="-6.12094447016716">
        <ele>384.20001220703125</ele>
        <time>2015-05-03T08:55:39.000Z</time>
      </trkpt>
      <trkpt lat="39.85757357440889" lon="-6.121004736050963">
        <ele>385.20001220703125</ele>
        <time>2015-05-03T08:55:41.000Z</time>
      </trkpt>
      <trkpt lat="39.85748229548335" lon="-6.121121998876333">
        <ele>386.0</ele>
        <time>2015-05-03T08:55:45.000Z</time>
      </trkpt>
      <trkpt lat="39.857457568868995" lon="-6.121146641671658">
        <ele>386.20001220703125</ele>
        <time>2015-05-03T08:55:46.000Z</time>
      </trkpt>
      <trkpt lat="39.85743384808302" lon="-6.121170446276665">
        <ele>386.20001220703125</ele>
        <time>2015-05-03T08:55:47.000Z</time>
      </trkpt>
      <trkpt lat="39.85734064131975" lon="-6.121258623898029">
        <ele>387.3999938964844</ele>
        <time>2015-05-03T08:55:51.000Z</time>
      </trkpt>
      <trkpt lat="39.85729278065264" lon="-6.121293408796191">
        <ele>388.3999938964844</ele>
        <time>2015-05-03T08:55:53.000Z</time>
      </trkpt>
      <trkpt lat="39.85726872459054" lon="-6.1213127709925175">
        <ele>388.79998779296875</ele>
        <time>2015-05-03T08:55:54.000Z</time>
      </trkpt>
      <trkpt lat="39.8571393918246" lon="-6.121424585580826">
        <ele>390.0</ele>
        <time>2015-05-03T08:55:59.000Z</time>
      </trkpt>
      <trkpt lat="39.857090692967176" lon="-6.121471524238586">
        <ele>390.79998779296875</ele>
        <time>2015-05-03T08:56:01.000Z</time>
      </trkpt>
      <trkpt lat="39.85706437379122" lon="-6.121493484824896">
        <ele>391.0</ele>
        <time>2015-05-03T08:56:02.000Z</time>
      </trkpt>
      <trkpt lat="39.85696672461927" lon="-6.12159188836813">
        <ele>392.6000061035156</ele>
        <time>2015-05-03T08:56:06.000Z</time>
      </trkpt>
      <trkpt lat="39.85689313150942" lon="-6.12168132327497">
        <ele>393.3999938964844</ele>
        <time>2015-05-03T08:56:09.000Z</time>
      </trkpt>
      <trkpt lat="39.85686765052378" lon="-6.121716694906354">
        <ele>393.79998779296875</ele>
        <time>2015-05-03T08:56:10.000Z</time>
      </trkpt>
      <trkpt lat="39.856776874512434" lon="-6.1218643840402365">
        <ele>394.79998779296875</ele>
        <time>2015-05-03T08:56:14.000Z</time>
      </trkpt>
      <trkpt lat="39.85673605464399" lon="-6.121944598853588">
        <ele>395.3999938964844</ele>
        <time>2015-05-03T08:56:16.000Z</time>
      </trkpt>
      <trkpt lat="39.85666925087571" lon="-6.122109135612845">
        <ele>396.20001220703125</ele>
        <time>2015-05-03T08:56:20.000Z</time>
      </trkpt>
      <trkpt lat="39.856614181771874" lon="-6.122272415086627">
        <ele>397.3999938964844</ele>
        <time>2015-05-03T08:56:24.000Z</time>
      </trkpt>
      <trkpt lat="39.85657386481762" lon="-6.122512137517333">
        <ele>398.3999938964844</ele>
        <time>2015-05-03T08:56:29.000Z</time>
      </trkpt>
      <trkpt lat="39.85657059587538" lon="-6.122623365372419">
        <ele>399.20001220703125</ele>
        <time>2015-05-03T08:56:31.000Z</time>
      </trkpt>
      <trkpt lat="39.856568835675716" lon="-6.122682373970747">
        <ele>399.6000061035156</ele>
        <time>2015-05-03T08:56:32.000Z</time>
      </trkpt>
      <trkpt lat="39.856572607532144" lon="-6.1230600625276566">
        <ele>400.79998779296875</ele>
        <time>2015-05-03T08:56:39.000Z</time>
      </trkpt>
      <trkpt lat="39.85658157616854" lon="-6.123239183798432">
        <ele>401.0</ele>
        <time>2015-05-03T08:56:42.000Z</time>
      </trkpt>
      <trkpt lat="39.85656213015318" lon="-6.123427944257855">
        <ele>401.6000061035156</ele>
        <time>2015-05-03T08:56:45.000Z</time>
      </trkpt>
      <trkpt lat="39.85653765499592" lon="-6.123548056930304">
        <ele>402.20001220703125</ele>
        <time>2015-05-03T08:56:47.000Z</time>
      </trkpt>
      <trkpt lat="39.85649230889976" lon="-6.123723238706589">
        <ele>402.6000061035156</ele>
        <time>2015-05-03T08:56:50.000Z</time>
      </trkpt>
      <trkpt lat="39.85647797584534" lon="-6.123782079666853">
        <ele>402.6000061035156</ele>
        <time>2015-05-03T08:56:51.000Z</time>
      </trkpt>
      <trkpt lat="39.85643464140594" lon="-6.123954160138965">
        <ele>403.20001220703125</ele>
        <time>2015-05-03T08:56:54.000Z</time>
      </trkpt>
      <trkpt lat="39.85640723258257" lon="-6.124212071299553">
        <ele>403.79998779296875</ele>
        <time>2015-05-03T08:56:58.000Z</time>
      </trkpt>
      <trkpt lat="39.856407484039664" lon="-6.124276863411069">
        <ele>403.79998779296875</ele>
        <time>2015-05-03T08:56:59.000Z</time>
      </trkpt>
      <trkpt lat="39.85639306716621" lon="-6.124786147847772">
        <ele>404.20001220703125</ele>
        <time>2015-05-03T08:57:06.000Z</time>
      </trkpt>
      <trkpt lat="39.85638921149075" lon="-6.124859070405364">
        <ele>404.20001220703125</ele>
        <time>2015-05-03T08:57:07.000Z</time>
      </trkpt>
      <trkpt lat="39.85636071301997" lon="-6.125126285478473">
        <ele>404.6000061035156</ele>
        <time>2015-05-03T08:57:11.000Z</time>
      </trkpt>
      <trkpt lat="39.85638686455786" lon="-6.125174984335899">
        <ele>404.20001220703125</ele>
        <time>2015-05-03T08:57:12.000Z</time>
      </trkpt>
      <trkpt lat="39.85651183873415" lon="-6.125180348753929">
        <ele>405.0</ele>
        <time>2015-05-03T08:57:15.000Z</time>
      </trkpt>
      <trkpt lat="39.85661007463932" lon="-6.125137768685818">
        <ele>405.0</ele>
        <time>2015-05-03T08:57:17.000Z</time>
      </trkpt>
      <trkpt lat="39.856702610850334" lon="-6.125076748430729">
        <ele>405.3999938964844</ele>
        <time>2015-05-03T08:57:19.000Z</time>
      </trkpt>
      <trkpt lat="39.856735887005925" lon="-6.125025283545256">
        <ele>405.6000061035156</ele>
        <time>2015-05-03T08:57:20.000Z</time>
      </trkpt>
      <trkpt lat="39.85684543848038" lon="-6.1248627584427595">
        <ele>405.79998779296875</ele>
        <time>2015-05-03T08:57:23.000Z</time>
      </trkpt>
      <trkpt lat="39.856903944164515" lon="-6.124825039878488">
        <ele>405.6000061035156</ele>
        <time>2015-05-03T08:57:24.000Z</time>
      </trkpt>
      <trkpt lat="39.85704492777586" lon="-6.1247181706130505">
        <ele>403.79998779296875</ele>
        <time>2015-05-03T08:57:26.000Z</time>
      </trkpt>
      <trkpt lat="39.85711726360023" lon="-6.124657737091184">
        <ele>402.79998779296875</ele>
        <time>2015-05-03T08:57:27.000Z</time>
      </trkpt>
      <trkpt lat="39.85718674957752" lon="-6.124599985778332">
        <ele>401.79998779296875</ele>
        <time>2015-05-03T08:57:28.000Z</time>
      </trkpt>
      <trkpt lat="39.85724785365164" lon="-6.124539552256465">
        <ele>401.20001220703125</ele>
        <time>2015-05-03T08:57:29.000Z</time>
      </trkpt>
      <trkpt lat="39.85736017115414" lon="-6.1243927013129">
        <ele>400.3999938964844</ele>
        <time>2015-05-03T08:57:31.000Z</time>
      </trkpt>
      <trkpt lat="39.85741666518152" lon="-6.124317767098546">
        <ele>400.20001220703125</ele>
        <time>2015-05-03T08:57:32.000Z</time>
      </trkpt>
      <trkpt lat="39.8574657831341" lon="-6.124247694388032">
        <ele>399.6000061035156</ele>
        <time>2015-05-03T08:57:33.000Z</time>
      </trkpt>
      <trkpt lat="39.85751112923026" lon="-6.124166641384363">
        <ele>398.79998779296875</ele>
        <time>2015-05-03T08:57:34.000Z</time>
      </trkpt>
      <trkpt lat="39.85755454748869" lon="-6.124071925878525">
        <ele>397.3999938964844</ele>
        <time>2015-05-03T08:57:35.000Z</time>
      </trkpt>
      <trkpt lat="39.857606682926416" lon="-6.123962877318263">
        <ele>396.0</ele>
        <time>2015-05-03T08:57:36.000Z</time>
      </trkpt>
      <trkpt lat="39.85766242258251" lon="-6.123859276995063">
        <ele>394.3999938964844</ele>
        <time>2015-05-03T08:57:37.000Z</time>
      </trkpt>
      <trkpt lat="39.857708187773824" lon="-6.123766154050827">
        <ele>393.20001220703125</ele>
        <time>2015-05-03T08:57:38.000Z</time>
      </trkpt>
      <trkpt lat="39.857755629345775" lon="-6.123700607568026">
        <ele>392.20001220703125</ele>
        <time>2015-05-03T08:57:39.000Z</time>
      </trkpt>
      <trkpt lat="39.857818158343434" lon="-6.12366858869791">
        <ele>391.6000061035156</ele>
        <time>2015-05-03T08:57:40.000Z</time>
      </trkpt>
      <trkpt lat="39.8578923381865" lon="-6.123654842376709">
        <ele>391.0</ele>
        <time>2015-05-03T08:57:41.000Z</time>
      </trkpt>
      <trkpt lat="39.85804514028132" lon="-6.123615028336644">
        <ele>389.3999938964844</ele>
        <time>2015-05-03T08:57:43.000Z</time>
      </trkpt>
      <trkpt lat="39.85811982303858" lon="-6.123575381934643">
        <ele>388.3999938964844</ele>
        <time>2015-05-03T08:57:44.000Z</time>
      </trkpt>
      <trkpt lat="39.85829500481486" lon="-6.123475721105933">
        <ele>386.3999938964844</ele>
        <time>2015-05-03T08:57:46.000Z</time>
      </trkpt>
      <trkpt lat="39.858393324539065" lon="-6.123427441343665">
        <ele>383.6000061035156</ele>
        <time>2015-05-03T08:57:47.000Z</time>
      </trkpt>
      <trkpt lat="39.8584933206439" lon="-6.123379245400429">
        <ele>382.3999938964844</ele>
        <time>2015-05-03T08:57:48.000Z</time>
      </trkpt>
      <trkpt lat="39.85859147273004" lon="-6.123329624533653">
        <ele>381.20001220703125</ele>
        <time>2015-05-03T08:57:49.000Z</time>
      </trkpt>
      <trkpt lat="39.85876137390733" lon="-6.12325519323349">
        <ele>380.3999938964844</ele>
        <time>2015-05-03T08:57:51.000Z</time>
      </trkpt>
      <trkpt lat="39.85882448963821" lon="-6.123273717239499">
        <ele>380.0</ele>
        <time>2015-05-03T08:57:52.000Z</time>
      </trkpt>
      <trkpt lat="39.85887922346592" lon="-6.123291989788413">
        <ele>380.20001220703125</ele>
        <time>2015-05-03T08:57:53.000Z</time>
      </trkpt>
      <trkpt lat="39.85895994119346" lon="-6.12328888848424">
        <ele>380.0</ele>
        <time>2015-05-03T08:57:55.000Z</time>
      </trkpt>
      <trkpt lat="39.85898617655039" lon="-6.123247146606445">
        <ele>380.0</ele>
        <time>2015-05-03T08:57:56.000Z</time>
      </trkpt>
      <trkpt lat="39.859060775488615" lon="-6.123111862689257">
        <ele>380.79998779296875</ele>
        <time>2015-05-03T08:57:59.000Z</time>
      </trkpt>
      <trkpt lat="39.85909237526357" lon="-6.123072719201446">
        <ele>381.0</ele>
        <time>2015-05-03T08:58:00.000Z</time>
      </trkpt>
      <trkpt lat="39.8592222109437" lon="-6.122950175777078">
        <ele>381.20001220703125</ele>
        <time>2015-05-03T08:58:04.000Z</time>
      </trkpt>
      <trkpt lat="39.85929354093969" lon="-6.122910780832171">
        <ele>381.6000061035156</ele>
        <time>2015-05-03T08:58:06.000Z</time>
      </trkpt>
      <trkpt lat="39.859394961968064" lon="-6.122879097238183">
        <ele>382.20001220703125</ele>
        <time>2015-05-03T08:58:09.000Z</time>
      </trkpt>
      <trkpt lat="39.85949831083417" lon="-6.122863423079252">
        <ele>383.79998779296875</ele>
        <time>2015-05-03T08:58:12.000Z</time>
      </trkpt>
      <trkpt lat="39.8595813754946" lon="-6.122821681201458">
        <ele>385.0</ele>
        <time>2015-05-03T08:58:15.000Z</time>
      </trkpt>
      <trkpt lat="39.85964046791196" lon="-6.12279980443418">
        <ele>385.20001220703125</ele>
        <time>2015-05-03T08:58:17.000Z</time>
      </trkpt>
      <trkpt lat="39.85969377681613" lon="-6.122778179123998">
        <ele>386.0</ele>
        <time>2015-05-03T08:58:19.000Z</time>
      </trkpt>
      <trkpt lat="39.859766867011786" lon="-6.122755296528339">
        <ele>387.3999938964844</ele>
        <time>2015-05-03T08:58:22.000Z</time>
      </trkpt>
      <trkpt lat="39.85981062054634" lon="-6.122742723673582">
        <ele>388.0</ele>
        <time>2015-05-03T08:58:24.000Z</time>
      </trkpt>
      <trkpt lat="39.85985470935702" lon="-6.122726378962398">
        <ele>388.6000061035156</ele>
        <time>2015-05-03T08:58:26.000Z</time>
      </trkpt>
      <trkpt lat="39.859919752925634" lon="-6.122719421982765">
        <ele>389.6000061035156</ele>
        <time>2015-05-03T08:58:29.000Z</time>
      </trkpt>
      <trkpt lat="39.85997289419174" lon="-6.122726211324334">
        <ele>390.0</ele>
        <time>2015-05-03T08:58:31.000Z</time>
      </trkpt>
      <trkpt lat="39.86011513508856" lon="-6.122746663168073">
        <ele>390.0</ele>
        <time>2015-05-03T08:58:35.000Z</time>
      </trkpt>
      <trkpt lat="39.86025536432862" lon="-6.122754290699959">
        <ele>389.0</ele>
        <time>2015-05-03T08:58:38.000Z</time>
      </trkpt>
      <trkpt lat="39.8603047337383" lon="-6.122739538550377">
        <ele>388.79998779296875</ele>
        <time>2015-05-03T08:58:39.000Z</time>
      </trkpt>
      <trkpt lat="39.86035066656768" lon="-6.122721768915653">
        <ele>388.79998779296875</ele>
        <time>2015-05-03T08:58:40.000Z</time>
      </trkpt>
      <trkpt lat="39.86051847226918" lon="-6.122670052573085">
        <ele>390.0</ele>
        <time>2015-05-03T08:58:44.000Z</time>
      </trkpt>
      <trkpt lat="39.86054806038737" lon="-6.12264390103519">
        <ele>390.20001220703125</ele>
        <time>2015-05-03T08:58:45.000Z</time>
      </trkpt>
      <trkpt lat="39.86062718555331" lon="-6.122600818052888">
        <ele>391.0</ele>
        <time>2015-05-03T08:58:48.000Z</time>
      </trkpt>
      <trkpt lat="39.86068376339972" lon="-6.122580114752054">
        <ele>391.3999938964844</ele>
        <time>2015-05-03T08:58:50.000Z</time>
      </trkpt>
      <trkpt lat="39.86077663488686" lon="-6.122508868575096">
        <ele>392.3999938964844</ele>
        <time>2015-05-03T08:58:54.000Z</time>
      </trkpt>
      <trkpt lat="39.86081510782242" lon="-6.122464695945382">
        <ele>393.20001220703125</ele>
        <time>2015-05-03T08:58:56.000Z</time>
      </trkpt>
      <trkpt lat="39.86082734540105" lon="-6.122437454760075">
        <ele>393.79998779296875</ele>
        <time>2015-05-03T08:58:57.000Z</time>
      </trkpt>
      <trkpt lat="39.86089029349387" lon="-6.1223408952355385">
        <ele>394.79998779296875</ele>
        <time>2015-05-03T08:59:01.000Z</time>
      </trkpt>
      <trkpt lat="39.86090906895697" lon="-6.1223173420876265">
        <ele>395.3999938964844</ele>
        <time>2015-05-03T08:59:02.000Z</time>
      </trkpt>
      <trkpt lat="39.86095550470054" lon="-6.122233271598816">
        <ele>396.0</ele>
        <time>2015-05-03T08:59:05.000Z</time>
      </trkpt>
      <trkpt lat="39.86100445501506" lon="-6.1221217922866344">
        <ele>397.0</ele>
        <time>2015-05-03T08:59:09.000Z</time>
      </trkpt>
      <trkpt lat="39.86106648109853" lon="-6.12197058275342">
        <ele>398.20001220703125</ele>
        <time>2015-05-03T08:59:14.000Z</time>
      </trkpt>
      <trkpt lat="39.86109481193125" lon="-6.121913082897663">
        <ele>398.3999938964844</ele>
        <time>2015-05-03T08:59:16.000Z</time>
      </trkpt>
      <trkpt lat="39.861145773902535" lon="-6.121798334643245">
        <ele>399.3999938964844</ele>
        <time>2015-05-03T08:59:20.000Z</time>
      </trkpt>
      <trkpt lat="39.86119044944644" lon="-6.121712671592832">
        <ele>400.3999938964844</ele>
        <time>2015-05-03T08:59:24.000Z</time>
      </trkpt>
      <trkpt lat="39.861239148303866" lon="-6.121624410152435">
        <ele>401.79998779296875</ele>
        <time>2015-05-03T08:59:28.000Z</time>
      </trkpt>
      <trkpt lat="39.8612754419446" lon="-6.121565401554108">
        <ele>402.79998779296875</ele>
        <time>2015-05-03T08:59:31.000Z</time>
      </trkpt>
      <trkpt lat="39.861289942637086" lon="-6.121549308300018">
        <ele>403.0</ele>
        <time>2015-05-03T08:59:32.000Z</time>
      </trkpt>
      <trkpt lat="39.86134492792189" lon="-6.121473787352443">
        <ele>404.0</ele>
        <time>2015-05-03T08:59:36.000Z</time>
      </trkpt>
      <trkpt lat="39.86135791987181" lon="-6.121457777917385">
        <ele>404.0</ele>
        <time>2015-05-03T08:59:37.000Z</time>
      </trkpt>
      <trkpt lat="39.86140737310052" lon="-6.121391477063298">
        <ele>405.20001220703125</ele>
        <time>2015-05-03T08:59:41.000Z</time>
      </trkpt>
      <trkpt lat="39.861437967047095" lon="-6.121348226442933">
        <ele>406.20001220703125</ele>
        <time>2015-05-03T08:59:44.000Z</time>
      </trkpt>
      <trkpt lat="39.861446265131235" lon="-6.121330456808209">
        <ele>406.6000061035156</ele>
        <time>2015-05-03T08:59:45.000Z</time>
      </trkpt>
      <trkpt lat="39.86146906390786" lon="-6.121255103498697">
        <ele>407.6000061035156</ele>
        <time>2015-05-03T08:59:49.000Z</time>
      </trkpt>
      <trkpt lat="39.861474176868796" lon="-6.121232723817229">
        <ele>407.79998779296875</ele>
        <time>2015-05-03T08:59:50.000Z</time>
      </trkpt>
      <trkpt lat="39.86149932257831" lon="-6.121103307232261">
        <ele>408.6000061035156</ele>
        <time>2015-05-03T08:59:55.000Z</time>
      </trkpt>
      <trkpt lat="39.861513739451766" lon="-6.121028875932097">
        <ele>409.6000061035156</ele>
        <time>2015-05-03T08:59:58.000Z</time>
      </trkpt>
      <trkpt lat="39.861523881554604" lon="-6.121005658060312">
        <ele>410.0</ele>
        <time>2015-05-03T08:59:59.000Z</time>
      </trkpt>
      <trkpt lat="39.86157886683941" lon="-6.120868446305394">
        <ele>410.6000061035156</ele>
        <time>2015-05-03T09:00:04.000Z</time>
      </trkpt>
      <trkpt lat="39.861674001440406" lon="-6.1206574738025665">
        <ele>410.20001220703125</ele>
        <time>2015-05-03T09:00:09.000Z</time>
      </trkpt>
      <trkpt lat="39.86178221181035" lon="-6.120399311184883">
        <ele>410.6000061035156</ele>
        <time>2015-05-03T09:00:15.000Z</time>
      </trkpt>
      <trkpt lat="39.86182076856494" lon="-6.120327142998576">
        <ele>411.20001220703125</ele>
        <time>2015-05-03T09:00:17.000Z</time>
      </trkpt>
      <trkpt lat="39.86187466420233" lon="-6.120212646201253">
        <ele>412.3999938964844</ele>
        <time>2015-05-03T09:00:20.000Z</time>
      </trkpt>
      <trkpt lat="39.861971056088805" lon="-6.120030842721462">
        <ele>413.6000061035156</ele>
        <time>2015-05-03T09:00:25.000Z</time>
      </trkpt>
      <trkpt lat="39.86201724037528" lon="-6.119952974840999">
        <ele>413.79998779296875</ele>
        <time>2015-05-03T09:00:27.000Z</time>
      </trkpt>
      <trkpt lat="39.86214866861701" lon="-6.119697829708457">
        <ele>413.6000061035156</ele>
        <time>2015-05-03T09:00:33.000Z</time>
      </trkpt>
      <trkpt lat="39.86216962337494" lon="-6.119652735069394">
        <ele>413.6000061035156</ele>
        <time>2015-05-03T09:00:34.000Z</time>
      </trkpt>
      <trkpt lat="39.8622889816761" lon="-6.11937546171248">
        <ele>414.20001220703125</ele>
        <time>2015-05-03T09:00:40.000Z</time>
      </trkpt>
      <trkpt lat="39.86230549402535" lon="-6.119329696521163">
        <ele>414.3999938964844</ele>
        <time>2015-05-03T09:00:41.000Z</time>
      </trkpt>
      <trkpt lat="39.86234011128545" lon="-6.119245793670416">
        <ele>415.0</ele>
        <time>2015-05-03T09:00:43.000Z</time>
      </trkpt>
      <trkpt lat="39.86241932027042" lon="-6.119027696549892">
        <ele>415.6000061035156</ele>
        <time>2015-05-03T09:00:48.000Z</time>
      </trkpt>
      <trkpt lat="39.86248729750514" lon="-6.118862489238381">
        <ele>416.3999938964844</ele>
        <time>2015-05-03T09:00:52.000Z</time>
      </trkpt>
      <trkpt lat="39.86255527473986" lon="-6.118760984390974">
        <ele>416.79998779296875</ele>
        <time>2015-05-03T09:00:55.000Z</time>
      </trkpt>
      <trkpt lat="39.86263775266707" lon="-6.118677668273449">
        <ele>417.6000061035156</ele>
        <time>2015-05-03T09:00:58.000Z</time>
      </trkpt>
      <trkpt lat="39.86272752285004" lon="-6.118579600006342">
        <ele>417.6000061035156</ele>
        <time>2015-05-03T09:01:01.000Z</time>
      </trkpt>
      <trkpt lat="39.86277907155454" lon="-6.118407351896167">
        <ele>418.0</ele>
        <time>2015-05-03T09:01:05.000Z</time>
      </trkpt>
      <trkpt lat="39.862761218100786" lon="-6.118236863985658">
        <ele>419.0</ele>
        <time>2015-05-03T09:01:09.000Z</time>
      </trkpt>
      <trkpt lat="39.86275602132082" lon="-6.118201073259115">
        <ele>419.20001220703125</ele>
        <time>2015-05-03T09:01:10.000Z</time>
      </trkpt>
      <trkpt lat="39.86274386756122" lon="-6.118094203993678">
        <ele>420.20001220703125</ele>
        <time>2015-05-03T09:01:13.000Z</time>
      </trkpt>
      <trkpt lat="39.86273892223835" lon="-6.11799756065011">
        <ele>421.3999938964844</ele>
        <time>2015-05-03T09:01:16.000Z</time>
      </trkpt>
      <trkpt lat="39.86273976042867" lon="-6.117963697761297">
        <ele>421.6000061035156</ele>
        <time>2015-05-03T09:01:17.000Z</time>
      </trkpt>
      <trkpt lat="39.862751411274076" lon="-6.1178685631603">
        <ele>422.3999938964844</ele>
        <time>2015-05-03T09:01:20.000Z</time>
      </trkpt>
      <trkpt lat="39.862757278606296" lon="-6.1177704110741615">
        <ele>423.20001220703125</ele>
        <time>2015-05-03T09:01:23.000Z</time>
      </trkpt>
      <trkpt lat="39.86276322975755" lon="-6.117742331698537">
        <ele>423.3999938964844</ele>
        <time>2015-05-03T09:01:24.000Z</time>
      </trkpt>
      <trkpt lat="39.86277848482132" lon="-6.117717856541276">
        <ele>423.6000061035156</ele>
        <time>2015-05-03T09:01:25.000Z</time>
      </trkpt>
      <trkpt lat="39.86279206350446" lon="-6.117654908448458">
        <ele>424.20001220703125</ele>
        <time>2015-05-03T09:01:27.000Z</time>
      </trkpt>
      <trkpt lat="39.862801199778914" lon="-6.117594642564654">
        <ele>424.79998779296875</ele>
        <time>2015-05-03T09:01:29.000Z</time>
      </trkpt>
      <trkpt lat="39.8628138564527" lon="-6.117448294535279">
        <ele>426.0</ele>
        <time>2015-05-03T09:01:34.000Z</time>
      </trkpt>
      <trkpt lat="39.86281846649945" lon="-6.117422142997384">
        <ele>426.3999938964844</ele>
        <time>2015-05-03T09:01:35.000Z</time>
      </trkpt>
      <trkpt lat="39.86283414065838" lon="-6.11727680079639">
        <ele>427.20001220703125</ele>
        <time>2015-05-03T09:01:40.000Z</time>
      </trkpt>
      <trkpt lat="39.862838834524155" lon="-6.11722064204514">
        <ele>427.79998779296875</ele>
        <time>2015-05-03T09:01:42.000Z</time>
      </trkpt>
      <trkpt lat="39.86284394748509" lon="-6.117165321484208">
        <ele>428.3999938964844</ele>
        <time>2015-05-03T09:01:44.000Z</time>
      </trkpt>
      <trkpt lat="39.862837409600616" lon="-6.117042610421777">
        <ele>429.6000061035156</ele>
        <time>2015-05-03T09:01:49.000Z</time>
      </trkpt>
      <trkpt lat="39.8628193885088" lon="-6.1169028002768755">
        <ele>430.79998779296875</ele>
        <time>2015-05-03T09:01:55.000Z</time>
      </trkpt>
      <trkpt lat="39.86281578429043" lon="-6.1168839409947395">
        <ele>431.20001220703125</ele>
        <time>2015-05-03T09:01:56.000Z</time>
      </trkpt>
      <trkpt lat="39.862815951928496" lon="-6.116817723959684">
        <ele>432.0</ele>
        <time>2015-05-03T09:01:59.000Z</time>
      </trkpt>
      <trkpt lat="39.862807570025325" lon="-6.116737090051174">
        <ele>432.79998779296875</ele>
        <time>2015-05-03T09:02:03.000Z</time>
      </trkpt>
      <trkpt lat="39.86280187033117" lon="-6.116710938513279">
        <ele>433.3999938964844</ele>
        <time>2015-05-03T09:02:04.000Z</time>
      </trkpt>
      <trkpt lat="39.86276582814753" lon="-6.11663181334734">
        <ele>434.20001220703125</ele>
        <time>2015-05-03T09:02:08.000Z</time>
      </trkpt>
      <trkpt lat="39.86275367438793" lon="-6.116614798083901">
        <ele>434.3999938964844</ele>
        <time>2015-05-03T09:02:09.000Z</time>
      </trkpt>
      <trkpt lat="39.86271260306239" lon="-6.116529386490583">
        <ele>435.3999938964844</ele>
        <time>2015-05-03T09:02:14.000Z</time>
      </trkpt>
      <trkpt lat="39.86269357614219" lon="-6.116507844999433">
        <ele>436.20001220703125</ele>
        <time>2015-05-03T09:02:16.000Z</time>
      </trkpt>
      <trkpt lat="39.86267882399261" lon="-6.116493595764041">
        <ele>436.6000061035156</ele>
        <time>2015-05-03T09:02:17.000Z</time>
      </trkpt>
      <trkpt lat="39.8626499902457" lon="-6.116449339315295">
        <ele>437.3999938964844</ele>
        <time>2015-05-03T09:02:20.000Z</time>
      </trkpt>
      <trkpt lat="39.86263523809612" lon="-6.116420589387417">
        <ele>437.6000061035156</ele>
        <time>2015-05-03T09:02:22.000Z</time>
      </trkpt>
      <trkpt lat="39.862608164548874" lon="-6.116379601880908">
        <ele>438.79998779296875</ele>
        <time>2015-05-03T09:02:25.000Z</time>
      </trkpt>
      <trkpt lat="39.86259534023702" lon="-6.116355545818806">
        <ele>439.6000061035156</ele>
        <time>2015-05-03T09:02:27.000Z</time>
      </trkpt>
      <trkpt lat="39.86256633885205" lon="-6.116292849183083">
        <ele>440.0</ele>
        <time>2015-05-03T09:02:31.000Z</time>
      </trkpt>
      <trkpt lat="39.86255016177893" lon="-6.116260411217809">
        <ele>440.6000061035156</ele>
        <time>2015-05-03T09:02:33.000Z</time>
      </trkpt>
      <trkpt lat="39.86254211515188" lon="-6.116233924403787">
        <ele>441.20001220703125</ele>
        <time>2015-05-03T09:02:35.000Z</time>
      </trkpt>
      <trkpt lat="39.862531553953886" lon="-6.116170221939683">
        <ele>442.6000061035156</ele>
        <time>2015-05-03T09:02:40.000Z</time>
      </trkpt>
      <trkpt lat="39.86253314651549" lon="-6.116149351000786">
        <ele>442.79998779296875</ele>
        <time>2015-05-03T09:02:41.000Z</time>
      </trkpt>
      <trkpt lat="39.86254672519863" lon="-6.116063771769404">
        <ele>443.79998779296875</ele>
        <time>2015-05-03T09:02:45.000Z</time>
      </trkpt>
      <trkpt lat="39.86256214790046" lon="-6.116001242771745">
        <ele>445.0</ele>
        <time>2015-05-03T09:02:49.000Z</time>
      </trkpt>
      <trkpt lat="39.862605733796954" lon="-6.115892948582768">
        <ele>446.6000061035156</ele>
        <time>2015-05-03T09:02:53.000Z</time>
      </trkpt>
      <trkpt lat="39.86262417398393" lon="-6.115840394049883">
        <ele>447.0</ele>
        <time>2015-05-03T09:02:55.000Z</time>
      </trkpt>
      <trkpt lat="39.86274185590446" lon="-6.115740481764078">
        <ele>447.20001220703125</ele>
        <time>2015-05-03T09:03:00.000Z</time>
      </trkpt>
      <trkpt lat="39.862821316346526" lon="-6.115739308297634">
        <ele>446.6000061035156</ele>
        <time>2015-05-03T09:03:02.000Z</time>
      </trkpt>
      <trkpt lat="39.862914523109794" lon="-6.115778870880604">
        <ele>446.20001220703125</ele>
        <time>2015-05-03T09:03:04.000Z</time>
      </trkpt>
      <trkpt lat="39.863020638003945" lon="-6.1158455070108175">
        <ele>445.20001220703125</ele>
        <time>2015-05-03T09:03:06.000Z</time>
      </trkpt>
      <trkpt lat="39.86317134462297" lon="-6.115937791764736">
        <ele>445.6000061035156</ele>
        <time>2015-05-03T09:03:09.000Z</time>
      </trkpt>
      <trkpt lat="39.86330000683665" lon="-6.116073997691274">
        <ele>445.3999938964844</ele>
        <time>2015-05-03T09:03:12.000Z</time>
      </trkpt>
      <trkpt lat="39.86334811896086" lon="-6.116212131455541">
        <ele>445.3999938964844</ele>
        <time>2015-05-03T09:03:14.000Z</time>
      </trkpt>
      <trkpt lat="39.86334677785635" lon="-6.116376249119639">
        <ele>444.0</ele>
        <time>2015-05-03T09:03:16.000Z</time>
      </trkpt>
      <trkpt lat="39.86332976259291" lon="-6.116470545530319">
        <ele>443.20001220703125</ele>
        <time>2015-05-03T09:03:17.000Z</time>
      </trkpt>
      <trkpt lat="39.86331014893949" lon="-6.116572134196758">
        <ele>442.6000061035156</ele>
        <time>2015-05-03T09:03:18.000Z</time>
      </trkpt>
      <trkpt lat="39.863275615498424" lon="-6.116794170811772">
        <ele>441.0</ele>
        <time>2015-05-03T09:03:20.000Z</time>
      </trkpt>
      <trkpt lat="39.8632525652647" lon="-6.116913529112935">
        <ele>440.20001220703125</ele>
        <time>2015-05-03T09:03:21.000Z</time>
      </trkpt>
      <trkpt lat="39.863230688497424" lon="-6.117044119164348">
        <ele>439.6000061035156</ele>
        <time>2015-05-03T09:03:22.000Z</time>
      </trkpt>
      <trkpt lat="39.86321970820427" lon="-6.117324661463499">
        <ele>438.0</ele>
        <time>2015-05-03T09:03:24.000Z</time>
      </trkpt>
      <trkpt lat="39.86320621334016" lon="-6.117466231808066">
        <ele>437.0</ele>
        <time>2015-05-03T09:03:25.000Z</time>
      </trkpt>
      <trkpt lat="39.863183833658695" lon="-6.117602018639445">
        <ele>436.3999938964844</ele>
        <time>2015-05-03T09:03:26.000Z</time>
      </trkpt>
      <trkpt lat="39.86314259469509" lon="-6.118021365255117">
        <ele>435.20001220703125</ele>
        <time>2015-05-03T09:03:29.000Z</time>
      </trkpt>
      <trkpt lat="39.86313169822097" lon="-6.11817542463541">
        <ele>434.0</ele>
        <time>2015-05-03T09:03:30.000Z</time>
      </trkpt>
      <trkpt lat="39.863120801746845" lon="-6.11833275295794">
        <ele>432.6000061035156</ele>
        <time>2015-05-03T09:03:31.000Z</time>
      </trkpt>
      <trkpt lat="39.86312113702297" lon="-6.118493601679802">
        <ele>431.20001220703125</ele>
        <time>2015-05-03T09:03:32.000Z</time>
      </trkpt>
      <trkpt lat="39.86312340013683" lon="-6.118656545877457">
        <ele>429.79998779296875</ele>
        <time>2015-05-03T09:03:33.000Z</time>
      </trkpt>
      <trkpt lat="39.8631214722991" lon="-6.1188265308737755">
        <ele>428.20001220703125</ele>
        <time>2015-05-03T09:03:34.000Z</time>
      </trkpt>
      <trkpt lat="39.86307453364134" lon="-6.118989642709494">
        <ele>427.0</ele>
        <time>2015-05-03T09:03:35.000Z</time>
      </trkpt>
      <trkpt lat="39.86301368102431" lon="-6.119131213054061">
        <ele>426.3999938964844</ele>
        <time>2015-05-03T09:03:36.000Z</time>
      </trkpt>
      <trkpt lat="39.86296867020428" lon="-6.119276471436024">
        <ele>426.0</ele>
        <time>2015-05-03T09:03:37.000Z</time>
      </trkpt>
      <trkpt lat="39.86289834603667" lon="-6.119711995124817">
        <ele>425.20001220703125</ele>
        <time>2015-05-03T09:03:40.000Z</time>
      </trkpt>
      <trkpt lat="39.86288317479193" lon="-6.119853230193257">
        <ele>425.0</ele>
        <time>2015-05-03T09:03:41.000Z</time>
      </trkpt>
      <trkpt lat="39.86285283230245" lon="-6.119992956519127">
        <ele>424.6000061035156</ele>
        <time>2015-05-03T09:03:42.000Z</time>
      </trkpt>
      <trkpt lat="39.86280002631247" lon="-6.120248604565859">
        <ele>424.79998779296875</ele>
        <time>2015-05-03T09:03:44.000Z</time>
      </trkpt>
      <trkpt lat="39.862727019935846" lon="-6.120717320591211">
        <ele>425.3999938964844</ele>
        <time>2015-05-03T09:03:48.000Z</time>
      </trkpt>
      <trkpt lat="39.862722577527165" lon="-6.120831985026598">
        <ele>425.0</ele>
        <time>2015-05-03T09:03:49.000Z</time>
      </trkpt>
      <trkpt lat="39.862700114026666" lon="-6.121055446565151">
        <ele>424.79998779296875</ele>
        <time>2015-05-03T09:03:51.000Z</time>
      </trkpt>
      <trkpt lat="39.86266231164336" lon="-6.12136323004961">
        <ele>425.0</ele>
        <time>2015-05-03T09:03:54.000Z</time>
      </trkpt>
      <trkpt lat="39.862650660797954" lon="-6.121850050985813">
        <ele>425.6000061035156</ele>
        <time>2015-05-03T09:03:59.000Z</time>
      </trkpt>
      <trkpt lat="39.862660467624664" lon="-6.121924482285976">
        <ele>426.0</ele>
        <time>2015-05-03T09:04:00.000Z</time>
      </trkpt>
      <trkpt lat="39.86268712207675" lon="-6.122085582464933">
        <ele>426.79998779296875</ele>
        <time>2015-05-03T09:04:02.000Z</time>
      </trkpt>
      <trkpt lat="39.86270656809211" lon="-6.1221597623080015">
        <ele>427.20001220703125</ele>
        <time>2015-05-03T09:04:03.000Z</time>
      </trkpt>
      <trkpt lat="39.86282140016556" lon="-6.122551029548049">
        <ele>427.20001220703125</ele>
        <time>2015-05-03T09:04:08.000Z</time>
      </trkpt>
      <trkpt lat="39.86278301104903" lon="-6.122814808040857">
        <ele>426.6000061035156</ele>
        <time>2015-05-03T09:04:11.000Z</time>
      </trkpt>
      <trkpt lat="39.86276448704302" lon="-6.122896699234843">
        <ele>426.79998779296875</ele>
        <time>2015-05-03T09:04:12.000Z</time>
      </trkpt>
      <trkpt lat="39.86274227499962" lon="-6.123075736686587">
        <ele>427.0</ele>
        <time>2015-05-03T09:04:14.000Z</time>
      </trkpt>
      <trkpt lat="39.86271729692817" lon="-6.123266508802772">
        <ele>426.6000061035156</ele>
        <time>2015-05-03T09:04:16.000Z</time>
      </trkpt>
      <trkpt lat="39.862645296379924" lon="-6.123540513217449">
        <ele>426.20001220703125</ele>
        <time>2015-05-03T09:04:19.000Z</time>
      </trkpt>
      <trkpt lat="39.86257974989712" lon="-6.123697254806757">
        <ele>426.3999938964844</ele>
        <time>2015-05-03T09:04:21.000Z</time>
      </trkpt>
      <trkpt lat="39.86241311766207" lon="-6.123835975304246">
        <ele>427.6000061035156</ele>
        <time>2015-05-03T09:04:24.000Z</time>
      </trkpt>
      <trkpt lat="39.862303817644715" lon="-6.123889619484544">
        <ele>428.3999938964844</ele>
        <time>2015-05-03T09:04:26.000Z</time>
      </trkpt>
      <trkpt lat="39.86214850097895" lon="-6.123992213979363">
        <ele>429.3999938964844</ele>
        <time>2015-05-03T09:04:29.000Z</time>
      </trkpt>
      <trkpt lat="39.86210893839598" lon="-6.1240531504154205">
        <ele>429.3999938964844</ele>
        <time>2015-05-03T09:04:30.000Z</time>
      </trkpt>
      <trkpt lat="39.86208320595324" lon="-6.124315420165658">
        <ele>428.3999938964844</ele>
        <time>2015-05-03T09:04:33.000Z</time>
      </trkpt>
      <trkpt lat="39.862112710252404" lon="-6.124529410153627">
        <ele>426.79998779296875</ele>
        <time>2015-05-03T09:04:35.000Z</time>
      </trkpt>
      <trkpt lat="39.86217599362135" lon="-6.1247496865689754">
        <ele>425.3999938964844</ele>
        <time>2015-05-03T09:04:37.000Z</time>
      </trkpt>
      <trkpt lat="39.86237137578428" lon="-6.125233070924878">
        <ele>425.3999938964844</ele>
        <time>2015-05-03T09:04:42.000Z</time>
      </trkpt>
      <trkpt lat="39.862479669973254" lon="-6.125448904931545">
        <ele>426.79998779296875</ele>
        <time>2015-05-03T09:04:45.000Z</time>
      </trkpt>
      <trkpt lat="39.862501714378595" lon="-6.125517217442393">
        <ele>427.3999938964844</ele>
        <time>2015-05-03T09:04:46.000Z</time>
      </trkpt>
      <trkpt lat="39.862521663308144" lon="-6.125581590458751">
        <ele>427.79998779296875</ele>
        <time>2015-05-03T09:04:47.000Z</time>
      </trkpt>
      <trkpt lat="39.86255619674921" lon="-6.1257009487599134">
        <ele>429.0</ele>
        <time>2015-05-03T09:04:49.000Z</time>
      </trkpt>
      <trkpt lat="39.862569188699126" lon="-6.1257630586624146">
        <ele>429.6000061035156</ele>
        <time>2015-05-03T09:04:50.000Z</time>
      </trkpt>
      <trkpt lat="39.862579414620996" lon="-6.125822402536869">
        <ele>430.20001220703125</ele>
        <time>2015-05-03T09:04:51.000Z</time>
      </trkpt>
      <trkpt lat="39.862599950283766" lon="-6.125996662303805">
        <ele>431.79998779296875</ele>
        <time>2015-05-03T09:04:54.000Z</time>
      </trkpt>
      <trkpt lat="39.86260615289211" lon="-6.126053240150213">
        <ele>432.0</ele>
        <time>2015-05-03T09:04:55.000Z</time>
      </trkpt>
      <trkpt lat="39.86260598525405" lon="-6.126110404729843">
        <ele>432.3999938964844</ele>
        <time>2015-05-03T09:04:56.000Z</time>
      </trkpt>
      <trkpt lat="39.86260556615889" lon="-6.126348786056042">
        <ele>432.6000061035156</ele>
        <time>2015-05-03T09:05:00.000Z</time>
      </trkpt>
      <trkpt lat="39.86260615289211" lon="-6.126412823796272">
        <ele>432.79998779296875</ele>
        <time>2015-05-03T09:05:01.000Z</time>
      </trkpt>
      <trkpt lat="39.862597938627005" lon="-6.126608541235328">
        <ele>433.20001220703125</ele>
        <time>2015-05-03T09:05:04.000Z</time>
      </trkpt>
      <trkpt lat="39.862599447369576" lon="-6.126814568415284">
        <ele>433.20001220703125</ele>
        <time>2015-05-03T09:05:07.000Z</time>
      </trkpt>
      <trkpt lat="39.86259542405605" lon="-6.1269614193588495">
        <ele>433.0</ele>
        <time>2015-05-03T09:05:09.000Z</time>
      </trkpt>
      <trkpt lat="39.86260154284537" lon="-6.127201309427619">
        <ele>431.79998779296875</ele>
        <time>2015-05-03T09:05:12.000Z</time>
      </trkpt>
      <trkpt lat="39.862617552280426" lon="-6.127460394054651">
        <ele>431.3999938964844</ele>
        <time>2015-05-03T09:05:15.000Z</time>
      </trkpt>
      <trkpt lat="39.862645380198956" lon="-6.127739595249295">
        <ele>432.79998779296875</ele>
        <time>2015-05-03T09:05:19.000Z</time>
      </trkpt>
      <trkpt lat="39.86265543848276" lon="-6.127796173095703">
        <ele>433.3999938964844</ele>
        <time>2015-05-03T09:05:20.000Z</time>
      </trkpt>
      <trkpt lat="39.86267094500363" lon="-6.127844788134098">
        <ele>434.0</ele>
        <time>2015-05-03T09:05:21.000Z</time>
      </trkpt>
      <trkpt lat="39.8627208173275" lon="-6.127983760088682">
        <ele>435.3999938964844</ele>
        <time>2015-05-03T09:05:24.000Z</time>
      </trkpt>
      <trkpt lat="39.86274001188576" lon="-6.128023825585842">
        <ele>435.79998779296875</ele>
        <time>2015-05-03T09:05:25.000Z</time>
      </trkpt>
      <trkpt lat="39.86276096664369" lon="-6.128061376512051">
        <ele>436.3999938964844</ele>
        <time>2015-05-03T09:05:26.000Z</time>
      </trkpt>
      <trkpt lat="39.8628849349916" lon="-6.128242509439588">
        <ele>437.3999938964844</ele>
        <time>2015-05-03T09:05:31.000Z</time>
      </trkpt>
      <trkpt lat="39.86293891444802" lon="-6.128309732303023">
        <ele>438.0</ele>
        <time>2015-05-03T09:05:33.000Z</time>
      </trkpt>
      <trkpt lat="39.86299490556121" lon="-6.1283777095377445">
        <ele>438.3999938964844</ele>
        <time>2015-05-03T09:05:35.000Z</time>
      </trkpt>
      <trkpt lat="39.86306489445269" lon="-6.128549287095666">
        <ele>438.3999938964844</ele>
        <time>2015-05-03T09:05:39.000Z</time>
      </trkpt>
      <trkpt lat="39.86309280619025" lon="-6.1288047675043344">
        <ele>440.0</ele>
        <time>2015-05-03T09:05:45.000Z</time>
      </trkpt>
      <trkpt lat="39.863131530582905" lon="-6.129007944837213">
        <ele>440.79998779296875</ele>
        <time>2015-05-03T09:05:50.000Z</time>
      </trkpt>
      <trkpt lat="39.86313907429576" lon="-6.129044825211167">
        <ele>441.0</ele>
        <time>2015-05-03T09:05:51.000Z</time>
      </trkpt>
      <trkpt lat="39.8631748650223" lon="-6.129224700853229">
        <ele>442.3999938964844</ele>
        <time>2015-05-03T09:05:56.000Z</time>
      </trkpt>
      <trkpt lat="39.86318928189576" lon="-6.129286726936698">
        <ele>443.20001220703125</ele>
        <time>2015-05-03T09:05:58.000Z</time>
      </trkpt>
      <trkpt lat="39.86320210620761" lon="-6.129348836839199">
        <ele>443.6000061035156</ele>
        <time>2015-05-03T09:06:00.000Z</time>
      </trkpt>
      <trkpt lat="39.86323571763933" lon="-6.1294579692184925">
        <ele>444.6000061035156</ele>
        <time>2015-05-03T09:06:04.000Z</time>
      </trkpt>
      <trkpt lat="39.863256588578224" lon="-6.1295445542782545">
        <ele>446.0</ele>
        <time>2015-05-03T09:06:07.000Z</time>
      </trkpt>
      <trkpt lat="39.86327880062163" lon="-6.129657290875912">
        <ele>446.3999938964844</ele>
        <time>2015-05-03T09:06:11.000Z</time>
      </trkpt>
      <trkpt lat="39.863287350162864" lon="-6.129720909520984">
        <ele>447.20001220703125</ele>
        <time>2015-05-03T09:06:13.000Z</time>
      </trkpt>
      <trkpt lat="39.863304449245334" lon="-6.129745300859213">
        <ele>447.3999938964844</ele>
        <time>2015-05-03T09:06:14.000Z</time>
      </trkpt>
      <trkpt lat="39.86331928521395" lon="-6.129804812371731">
        <ele>448.0</ele>
        <time>2015-05-03T09:06:16.000Z</time>
      </trkpt>
      <trkpt lat="39.86332925967872" lon="-6.12983507104218">
        <ele>448.20001220703125</ele>
        <time>2015-05-03T09:06:17.000Z</time>
      </trkpt>
      <trkpt lat="39.863409558311105" lon="-6.1300284415483475">
        <ele>449.20001220703125</ele>
        <time>2015-05-03T09:06:24.000Z</time>
      </trkpt>
      <trkpt lat="39.863417353481054" lon="-6.130054425448179">
        <ele>449.20001220703125</ele>
        <time>2015-05-03T09:06:25.000Z</time>
      </trkpt>
      <trkpt lat="39.863439816981554" lon="-6.130135394632816">
        <ele>450.6000061035156</ele>
        <time>2015-05-03T09:06:28.000Z</time>
      </trkpt>
      <trkpt lat="39.86344727687538" lon="-6.130166240036488">
        <ele>450.6000061035156</ele>
        <time>2015-05-03T09:06:29.000Z</time>
      </trkpt>
      <trkpt lat="39.86348608508706" lon="-6.130248382687569">
        <ele>451.6000061035156</ele>
        <time>2015-05-03T09:06:32.000Z</time>
      </trkpt>
      <trkpt lat="39.86351106315851" lon="-6.130315186455846">
        <ele>452.3999938964844</ele>
        <time>2015-05-03T09:06:34.000Z</time>
      </trkpt>
      <trkpt lat="39.86352422274649" lon="-6.130344774574041">
        <ele>452.6000061035156</ele>
        <time>2015-05-03T09:06:35.000Z</time>
      </trkpt>
      <trkpt lat="39.86358432099223" lon="-6.1305193696171045">
        <ele>453.6000061035156</ele>
        <time>2015-05-03T09:06:40.000Z</time>
      </trkpt>
      <trkpt lat="39.86361147835851" lon="-6.130592795088887">
        <ele>454.3999938964844</ele>
        <time>2015-05-03T09:06:42.000Z</time>
      </trkpt>
      <trkpt lat="39.86363117583096" lon="-6.130868056789041">
        <ele>454.3999938964844</ele>
        <time>2015-05-03T09:06:48.000Z</time>
      </trkpt>
      <trkpt lat="39.86361709423363" lon="-6.131273237988353">
        <ele>453.79998779296875</ele>
        <time>2015-05-03T09:06:54.000Z</time>
      </trkpt>
      <trkpt lat="39.86361944116652" lon="-6.131472811102867">
        <ele>452.3999938964844</ele>
        <time>2015-05-03T09:06:56.000Z</time>
      </trkpt>
      <trkpt lat="39.863609969615936" lon="-6.131585631519556">
        <ele>451.20001220703125</ele>
        <time>2015-05-03T09:06:57.000Z</time>
      </trkpt>
      <trkpt lat="39.86359932459891" lon="-6.131705241277814">
        <ele>450.20001220703125</ele>
        <time>2015-05-03T09:06:58.000Z</time>
      </trkpt>
      <trkpt lat="39.86358138732612" lon="-6.1318261083215475">
        <ele>449.0</ele>
        <time>2015-05-03T09:06:59.000Z</time>
      </trkpt>
      <trkpt lat="39.863556576892734" lon="-6.131952926516533">
        <ele>447.79998779296875</ele>
        <time>2015-05-03T09:07:00.000Z</time>
      </trkpt>
      <trkpt lat="39.86353595741093" lon="-6.132088042795658">
        <ele>446.6000061035156</ele>
        <time>2015-05-03T09:07:01.000Z</time>
      </trkpt>
      <trkpt lat="39.86352078616619" lon="-6.132230283692479">
        <ele>445.3999938964844</ele>
        <time>2015-05-03T09:07:02.000Z</time>
      </trkpt>
      <trkpt lat="39.863484827801585" lon="-6.132528930902481">
        <ele>444.3999938964844</ele>
        <time>2015-05-03T09:07:04.000Z</time>
      </trkpt>
      <trkpt lat="39.86343872733414" lon="-6.132963532581925">
        <ele>443.6000061035156</ele>
        <time>2015-05-03T09:07:07.000Z</time>
      </trkpt>
      <trkpt lat="39.86341559328139" lon="-6.13324667327106">
        <ele>442.79998779296875</ele>
        <time>2015-05-03T09:07:09.000Z</time>
      </trkpt>
      <trkpt lat="39.86336714588106" lon="-6.133676078170538">
        <ele>441.3999938964844</ele>
        <time>2015-05-03T09:07:12.000Z</time>
      </trkpt>
      <trkpt lat="39.8633183632046" lon="-6.1339539382606745">
        <ele>440.6000061035156</ele>
        <time>2015-05-03T09:07:14.000Z</time>
      </trkpt>
      <trkpt lat="39.863296234980226" lon="-6.1340967658907175">
        <ele>439.79998779296875</ele>
        <time>2015-05-03T09:07:15.000Z</time>
      </trkpt>
      <trkpt lat="39.86325306817889" lon="-6.134381415322423">
        <ele>438.3999938964844</ele>
        <time>2015-05-03T09:07:17.000Z</time>
      </trkpt>
      <trkpt lat="39.863249296322465" lon="-6.134526589885354">
        <ele>438.0</ele>
        <time>2015-05-03T09:07:18.000Z</time>
      </trkpt>
      <trkpt lat="39.86324862577021" lon="-6.134667992591858">
        <ele>437.3999938964844</ele>
        <time>2015-05-03T09:07:19.000Z</time>
      </trkpt>
      <trkpt lat="39.863253654912114" lon="-6.134811406955123">
        <ele>437.20001220703125</ele>
        <time>2015-05-03T09:07:20.000Z</time>
      </trkpt>
      <trkpt lat="39.86327930353582" lon="-6.135076023638248">
        <ele>436.3999938964844</ele>
        <time>2015-05-03T09:07:22.000Z</time>
      </trkpt>
      <trkpt lat="39.86329606734216" lon="-6.1352023389190435">
        <ele>436.3999938964844</ele>
        <time>2015-05-03T09:07:23.000Z</time>
      </trkpt>
      <trkpt lat="39.86335541121662" lon="-6.135526718571782">
        <ele>438.20001220703125</ele>
        <time>2015-05-03T09:07:26.000Z</time>
      </trkpt>
      <trkpt lat="39.86337477341294" lon="-6.135624116286635">
        <ele>439.0</ele>
        <time>2015-05-03T09:07:27.000Z</time>
      </trkpt>
      <trkpt lat="39.86341014504433" lon="-6.135811284184456">
        <ele>439.3999938964844</ele>
        <time>2015-05-03T09:07:29.000Z</time>
      </trkpt>
      <trkpt lat="39.86345046199858" lon="-6.136072380468249">
        <ele>440.3999938964844</ele>
        <time>2015-05-03T09:07:32.000Z</time>
      </trkpt>
      <trkpt lat="39.86346362158656" lon="-6.136154439300299">
        <ele>441.0</ele>
        <time>2015-05-03T09:07:33.000Z</time>
      </trkpt>
      <trkpt lat="39.86347585916519" lon="-6.136232139542699">
        <ele>441.3999938964844</ele>
        <time>2015-05-03T09:07:34.000Z</time>
      </trkpt>
      <trkpt lat="39.86350720748305" lon="-6.136457361280918">
        <ele>442.6000061035156</ele>
        <time>2015-05-03T09:07:37.000Z</time>
      </trkpt>
      <trkpt lat="39.8635533079505" lon="-6.136662298813462">
        <ele>443.3999938964844</ele>
        <time>2015-05-03T09:07:40.000Z</time>
      </trkpt>
      <trkpt lat="39.86356613226235" lon="-6.13673010841012">
        <ele>443.79998779296875</ele>
        <time>2015-05-03T09:07:41.000Z</time>
      </trkpt>
      <trkpt lat="39.86360787414014" lon="-6.136977290734649">
        <ele>445.0</ele>
        <time>2015-05-03T09:07:45.000Z</time>
      </trkpt>
      <trkpt lat="39.863609969615936" lon="-6.137036215513945">
        <ele>445.3999938964844</ele>
        <time>2015-05-03T09:07:46.000Z</time>
      </trkpt>
      <trkpt lat="39.8636032640934" lon="-6.137096062302589">
        <ele>445.79998779296875</ele>
        <time>2015-05-03T09:07:47.000Z</time>
      </trkpt>
      <trkpt lat="39.86359630711377" lon="-6.137155322358012">
        <ele>446.0</ele>
        <time>2015-05-03T09:07:48.000Z</time>
      </trkpt>
      <trkpt lat="39.86357241868973" lon="-6.137260096147656">
        <ele>446.20001220703125</ele>
        <time>2015-05-03T09:07:50.000Z</time>
      </trkpt>
      <trkpt lat="39.863543501123786" lon="-6.137374090030789">
        <ele>446.20001220703125</ele>
        <time>2015-05-03T09:07:52.000Z</time>
      </trkpt>
      <trkpt lat="39.86343026161194" lon="-6.13785688765347">
        <ele>446.0</ele>
        <time>2015-05-03T09:07:59.000Z</time>
      </trkpt>
      <trkpt lat="39.86330755054951" lon="-6.138322250917554">
        <ele>444.79998779296875</ele>
        <time>2015-05-03T09:08:05.000Z</time>
      </trkpt>
      <trkpt lat="39.863283075392246" lon="-6.138406321406364">
        <ele>444.79998779296875</ele>
        <time>2015-05-03T09:08:06.000Z</time>
      </trkpt>
      <trkpt lat="39.86314116977155" lon="-6.13902029581368">
        <ele>444.6000061035156</ele>
        <time>2015-05-03T09:08:13.000Z</time>
      </trkpt>
      <trkpt lat="39.86302491277456" lon="-6.139334365725517">
        <ele>446.0</ele>
        <time>2015-05-03T09:08:17.000Z</time>
      </trkpt>
      <trkpt lat="39.862923910841346" lon="-6.139598898589611">
        <ele>447.3999938964844</ele>
        <time>2015-05-03T09:08:21.000Z</time>
      </trkpt>
      <trkpt lat="39.862881330773234" lon="-6.139742732048035">
        <ele>447.20001220703125</ele>
        <time>2015-05-03T09:08:23.000Z</time>
      </trkpt>
      <trkpt lat="39.86277211457491" lon="-6.140165934339166">
        <ele>446.20001220703125</ele>
        <time>2015-05-03T09:08:28.000Z</time>
      </trkpt>
      <trkpt lat="39.86274722032249" lon="-6.140257464721799">
        <ele>446.0</ele>
        <time>2015-05-03T09:08:29.000Z</time>
      </trkpt>
      <trkpt lat="39.86266566440463" lon="-6.140656778588891">
        <ele>445.0</ele>
        <time>2015-05-03T09:08:33.000Z</time>
      </trkpt>
      <trkpt lat="39.86263892613351" lon="-6.140878899022937">
        <ele>444.0</ele>
        <time>2015-05-03T09:08:35.000Z</time>
      </trkpt>
      <trkpt lat="39.86260858364403" lon="-6.140983169898391">
        <ele>443.79998779296875</ele>
        <time>2015-05-03T09:08:36.000Z</time>
      </trkpt>
      <trkpt lat="39.86253658309579" lon="-6.141268406063318">
        <ele>444.79998779296875</ele>
        <time>2015-05-03T09:08:39.000Z</time>
      </trkpt>
      <trkpt lat="39.86252426169813" lon="-6.14136035554111">
        <ele>444.79998779296875</ele>
        <time>2015-05-03T09:08:40.000Z</time>
      </trkpt>
      <trkpt lat="39.86247413791716" lon="-6.141700493171811">
        <ele>446.20001220703125</ele>
        <time>2015-05-03T09:08:44.000Z</time>
      </trkpt>
      <trkpt lat="39.862463073804975" lon="-6.141773918643594">
        <ele>446.79998779296875</ele>
        <time>2015-05-03T09:08:45.000Z</time>
      </trkpt>
      <trkpt lat="39.86244865693152" lon="-6.141912890598178">
        <ele>447.20001220703125</ele>
        <time>2015-05-03T09:08:47.000Z</time>
      </trkpt>
      <trkpt lat="39.862439604476094" lon="-6.142212795093656">
        <ele>448.20001220703125</ele>
        <time>2015-05-03T09:08:51.000Z</time>
      </trkpt>
      <trkpt lat="39.862489476799965" lon="-6.142529379576445">
        <ele>447.6000061035156</ele>
        <time>2015-05-03T09:08:55.000Z</time>
      </trkpt>
      <trkpt lat="39.862481681630015" lon="-6.142675559967756">
        <ele>447.3999938964844</ele>
        <time>2015-05-03T09:08:57.000Z</time>
      </trkpt>
      <trkpt lat="39.86245175823569" lon="-6.1427511647343636">
        <ele>447.6000061035156</ele>
        <time>2015-05-03T09:08:58.000Z</time>
      </trkpt>
      <trkpt lat="39.8622889816761" lon="-6.143006980419159">
        <ele>447.6000061035156</ele>
        <time>2015-05-03T09:09:02.000Z</time>
      </trkpt>
      <trkpt lat="39.86224883235991" lon="-6.143075712025166">
        <ele>447.3999938964844</ele>
        <time>2015-05-03T09:09:03.000Z</time>
      </trkpt>
      <trkpt lat="39.86208354122937" lon="-6.143379891291261">
        <ele>446.20001220703125</ele>
        <time>2015-05-03T09:09:07.000Z</time>
      </trkpt>
      <trkpt lat="39.862044816836715" lon="-6.143474355340004">
        <ele>445.6000061035156</ele>
        <time>2015-05-03T09:09:08.000Z</time>
      </trkpt>
      <trkpt lat="39.862013133242726" lon="-6.1435784585773945">
        <ele>445.0</ele>
        <time>2015-05-03T09:09:09.000Z</time>
      </trkpt>
      <trkpt lat="39.86197482794523" lon="-6.143807787448168">
        <ele>443.79998779296875</ele>
        <time>2015-05-03T09:09:11.000Z</time>
      </trkpt>
      <trkpt lat="39.86195169389248" lon="-6.143933180719614">
        <ele>443.20001220703125</ele>
        <time>2015-05-03T09:09:12.000Z</time>
      </trkpt>
      <trkpt lat="39.86192428506911" lon="-6.144048096612096">
        <ele>442.6000061035156</ele>
        <time>2015-05-03T09:09:13.000Z</time>
      </trkpt>
      <trkpt lat="39.861854799091816" lon="-6.144349509850144">
        <ele>442.79998779296875</ele>
        <time>2015-05-03T09:09:16.000Z</time>
      </trkpt>
      <trkpt lat="39.86184071749449" lon="-6.1445229314267635">
        <ele>443.6000061035156</ele>
        <time>2015-05-03T09:09:18.000Z</time>
      </trkpt>
      <trkpt lat="39.86182822845876" lon="-6.144752511754632">
        <ele>445.20001220703125</ele>
        <time>2015-05-03T09:09:21.000Z</time>
      </trkpt>
      <trkpt lat="39.861813727766275" lon="-6.14496449008584">
        <ele>446.3999938964844</ele>
        <time>2015-05-03T09:09:24.000Z</time>
      </trkpt>
      <trkpt lat="39.86180065199733" lon="-6.145176803693175">
        <ele>447.3999938964844</ele>
        <time>2015-05-03T09:09:27.000Z</time>
      </trkpt>
      <trkpt lat="39.86179972998798" lon="-6.145247211679816">
        <ele>447.6000061035156</ele>
        <time>2015-05-03T09:09:28.000Z</time>
      </trkpt>
      <trkpt lat="39.861791850999" lon="-6.145448377355933">
        <ele>448.6000061035156</ele>
        <time>2015-05-03T09:09:31.000Z</time>
      </trkpt>
      <trkpt lat="39.861790761351585" lon="-6.145642166957259">
        <ele>449.79998779296875</ele>
        <time>2015-05-03T09:09:34.000Z</time>
      </trkpt>
      <trkpt lat="39.86177139915526" lon="-6.145961433649063">
        <ele>451.0</ele>
        <time>2015-05-03T09:09:39.000Z</time>
      </trkpt>
      <trkpt lat="39.861707277596" lon="-6.1460549756884575">
        <ele>451.20001220703125</ele>
        <time>2015-05-03T09:09:41.000Z</time>
      </trkpt>
      <trkpt lat="39.861621614545584" lon="-6.146218758076429">
        <ele>449.3999938964844</ele>
        <time>2015-05-03T09:09:43.000Z</time>
      </trkpt>
      <trkpt lat="39.8615722451359" lon="-6.1463176645338535">
        <ele>448.0</ele>
        <time>2015-05-03T09:09:44.000Z</time>
      </trkpt>
      <trkpt lat="39.861526815220714" lon="-6.146424952894449">
        <ele>446.6000061035156</ele>
        <time>2015-05-03T09:09:45.000Z</time>
      </trkpt>
      <trkpt lat="39.86147794872522" lon="-6.1465344205498695">
        <ele>445.6000061035156</ele>
        <time>2015-05-03T09:09:46.000Z</time>
      </trkpt>
      <trkpt lat="39.861423298716545" lon="-6.146657215431333">
        <ele>444.20001220703125</ele>
        <time>2015-05-03T09:09:47.000Z</time>
      </trkpt>
      <trkpt lat="39.861365128308535" lon="-6.146783949807286">
        <ele>443.20001220703125</ele>
        <time>2015-05-03T09:09:48.000Z</time>
      </trkpt>
      <trkpt lat="39.86130075529218" lon="-6.146917557343841">
        <ele>441.3999938964844</ele>
        <time>2015-05-03T09:09:49.000Z</time>
      </trkpt>
      <trkpt lat="39.861231688410044" lon="-6.147055355831981">
        <ele>440.0</ele>
        <time>2015-05-03T09:09:50.000Z</time>
      </trkpt>
      <trkpt lat="39.861155496910214" lon="-6.147189382463694">
        <ele>438.79998779296875</ele>
        <time>2015-05-03T09:09:51.000Z</time>
      </trkpt>
      <trkpt lat="39.86108676530421" lon="-6.147338496521115">
        <ele>437.79998779296875</ele>
        <time>2015-05-03T09:09:52.000Z</time>
      </trkpt>
      <trkpt lat="39.86103219911456" lon="-6.147493226453662">
        <ele>436.6000061035156</ele>
        <time>2015-05-03T09:09:53.000Z</time>
      </trkpt>
      <trkpt lat="39.860983500257134" lon="-6.147651392966509">
        <ele>434.3999938964844</ele>
        <time>2015-05-03T09:09:54.000Z</time>
      </trkpt>
      <trkpt lat="39.86089775338769" lon="-6.147963618859649">
        <ele>433.3999938964844</ele>
        <time>2015-05-03T09:09:56.000Z</time>
      </trkpt>
      <trkpt lat="39.860824747011065" lon="-6.148253297433257">
        <ele>433.3999938964844</ele>
        <time>2015-05-03T09:09:58.000Z</time>
      </trkpt>
      <trkpt lat="39.86073640175164" lon="-6.148520344868302">
        <ele>433.3999938964844</ele>
        <time>2015-05-03T09:10:00.000Z</time>
      </trkpt>
      <trkpt lat="39.86069633625448" lon="-6.148639116436243">
        <ele>433.3999938964844</ele>
        <time>2015-05-03T09:10:01.000Z</time>
      </trkpt>
      <trkpt lat="39.86049332655966" lon="-6.149155106395483">
        <ele>435.79998779296875</ele>
        <time>2015-05-03T09:10:06.000Z</time>
      </trkpt>
      <trkpt lat="39.86037204042077" lon="-6.149409832432866">
        <ele>437.0</ele>
        <time>2015-05-03T09:10:09.000Z</time>
      </trkpt>
      <trkpt lat="39.86032166518271" lon="-6.149581912904978">
        <ele>437.0</ele>
        <time>2015-05-03T09:10:11.000Z</time>
      </trkpt>
      <trkpt lat="39.86028268933296" lon="-6.149828257039189">
        <ele>437.3999938964844</ele>
        <time>2015-05-03T09:10:14.000Z</time>
      </trkpt>
      <trkpt lat="39.860278414562345" lon="-6.149908388033509">
        <ele>437.79998779296875</ele>
        <time>2015-05-03T09:10:15.000Z</time>
      </trkpt>
      <trkpt lat="39.8602753970772" lon="-6.149983825162053">
        <ele>438.3999938964844</ele>
        <time>2015-05-03T09:10:16.000Z</time>
      </trkpt>
      <trkpt lat="39.86027816310525" lon="-6.150115421041846">
        <ele>439.3999938964844</ele>
        <time>2015-05-03T09:10:18.000Z</time>
      </trkpt>
      <trkpt lat="39.86028461717069" lon="-6.150176776573062">
        <ele>440.20001220703125</ele>
        <time>2015-05-03T09:10:19.000Z</time>
      </trkpt>
      <trkpt lat="39.86029425635934" lon="-6.150232600048184">
        <ele>440.79998779296875</ele>
        <time>2015-05-03T09:10:20.000Z</time>
      </trkpt>
      <trkpt lat="39.860311606898904" lon="-6.15028565749526">
        <ele>441.0</ele>
        <time>2015-05-03T09:10:21.000Z</time>
      </trkpt>
      <trkpt lat="39.860321497544646" lon="-6.150342151522636">
        <ele>441.3999938964844</ele>
        <time>2015-05-03T09:10:22.000Z</time>
      </trkpt>
      <trkpt lat="39.860349744558334" lon="-6.150462348014116">
        <ele>441.79998779296875</ele>
        <time>2015-05-03T09:10:24.000Z</time>
      </trkpt>
      <trkpt lat="39.86037388443947" lon="-6.150516411289573">
        <ele>441.79998779296875</ele>
        <time>2015-05-03T09:10:25.000Z</time>
      </trkpt>
      <trkpt lat="39.86042912118137" lon="-6.150700226426125">
        <ele>442.0</ele>
        <time>2015-05-03T09:10:28.000Z</time>
      </trkpt>
      <trkpt lat="39.86045887693763" lon="-6.150831403210759">
        <ele>441.79998779296875</ele>
        <time>2015-05-03T09:10:30.000Z</time>
      </trkpt>
      <trkpt lat="39.86047471873462" lon="-6.151025108993053">
        <ele>442.3999938964844</ele>
        <time>2015-05-03T09:10:33.000Z</time>
      </trkpt>
      <trkpt lat="39.86048477701843" lon="-6.151155363768339">
        <ele>442.6000061035156</ele>
        <time>2015-05-03T09:10:35.000Z</time>
      </trkpt>
      <trkpt lat="39.860493410378695" lon="-6.151344124227762">
        <ele>442.79998779296875</ele>
        <time>2015-05-03T09:10:38.000Z</time>
      </trkpt>
      <trkpt lat="39.86049215309322" lon="-6.151468176394701">
        <ele>443.20001220703125</ele>
        <time>2015-05-03T09:10:40.000Z</time>
      </trkpt>
      <trkpt lat="39.860493913292885" lon="-6.151590468361974">
        <ele>443.20001220703125</ele>
        <time>2015-05-03T09:10:42.000Z</time>
      </trkpt>
      <trkpt lat="39.86048963852227" lon="-6.151699181646109">
        <ele>444.0</ele>
        <time>2015-05-03T09:10:44.000Z</time>
      </trkpt>
      <trkpt lat="39.86048251390457" lon="-6.151875117793679">
        <ele>445.20001220703125</ele>
        <time>2015-05-03T09:10:48.000Z</time>
      </trkpt>
      <trkpt lat="39.860481256619096" lon="-6.151983831077814">
        <ele>446.3999938964844</ele>
        <time>2015-05-03T09:10:51.000Z</time>
      </trkpt>
      <trkpt lat="39.86047077924013" lon="-6.1520544067025185">
        <ele>447.3999938964844</ele>
        <time>2015-05-03T09:10:53.000Z</time>
      </trkpt>
      <trkpt lat="39.86047203652561" lon="-6.152087766677141">
        <ele>448.0</ele>
        <time>2015-05-03T09:10:54.000Z</time>
      </trkpt>
      <trkpt lat="39.86046499572694" lon="-6.152154989540577">
        <ele>448.3999938964844</ele>
        <time>2015-05-03T09:10:56.000Z</time>
      </trkpt>
      <trkpt lat="39.86043892800808" lon="-6.152335871011019">
        <ele>449.6000061035156</ele>
        <time>2015-05-03T09:11:01.000Z</time>
      </trkpt>
      <trkpt lat="39.8604379221797" lon="-6.152375936508179">
        <ele>450.0</ele>
        <time>2015-05-03T09:11:02.000Z</time>
      </trkpt>
      <trkpt lat="39.86042367294431" lon="-6.152518177405">
        <ele>450.79998779296875</ele>
        <time>2015-05-03T09:11:06.000Z</time>
      </trkpt>
      <trkpt lat="39.86041411757469" lon="-6.152590932324529">
        <ele>451.3999938964844</ele>
        <time>2015-05-03T09:11:08.000Z</time>
      </trkpt>
      <trkpt lat="39.86040774732828" lon="-6.152625633403659">
        <ele>452.0</ele>
        <time>2015-05-03T09:11:09.000Z</time>
      </trkpt>
      <trkpt lat="39.86039877869189" lon="-6.152713559567928">
        <ele>453.20001220703125</ele>
        <time>2015-05-03T09:11:12.000Z</time>
      </trkpt>
      <trkpt lat="39.86038419418037" lon="-6.152816321700811">
        <ele>453.3999938964844</ele>
        <time>2015-05-03T09:11:15.000Z</time>
      </trkpt>
      <trkpt lat="39.860363407060504" lon="-6.1529299803078175">
        <ele>454.3999938964844</ele>
        <time>2015-05-03T09:11:19.000Z</time>
      </trkpt>
      <trkpt lat="39.86035016365349" lon="-6.153015224263072">
        <ele>455.0</ele>
        <time>2015-05-03T09:11:22.000Z</time>
      </trkpt>
      <trkpt lat="39.86034261994064" lon="-6.153072053566575">
        <ele>455.6000061035156</ele>
        <time>2015-05-03T09:11:24.000Z</time>
      </trkpt>
      <trkpt lat="39.86033440567553" lon="-6.153164505958557">
        <ele>456.79998779296875</ele>
        <time>2015-05-03T09:11:27.000Z</time>
      </trkpt>
      <trkpt lat="39.860336584970355" lon="-6.153221502900124">
        <ele>457.0</ele>
        <time>2015-05-03T09:11:29.000Z</time>
      </trkpt>
      <trkpt lat="39.86032619141042" lon="-6.153274141252041">
        <ele>457.79998779296875</ele>
        <time>2015-05-03T09:11:32.000Z</time>
      </trkpt>
      <trkpt lat="39.860319904983044" lon="-6.153328288346529">
        <ele>458.79998779296875</ele>
        <time>2015-05-03T09:11:34.000Z</time>
      </trkpt>
      <trkpt lat="39.86031328327954" lon="-6.1534191481769085">
        <ele>460.0</ele>
        <time>2015-05-03T09:11:38.000Z</time>
      </trkpt>
      <trkpt lat="39.860313199460506" lon="-6.153432726860046">
        <ele>460.20001220703125</ele>
        <time>2015-05-03T09:11:39.000Z</time>
      </trkpt>
      <trkpt lat="39.86028880812228" lon="-6.153529202565551">
        <ele>461.20001220703125</ele>
        <time>2015-05-03T09:11:43.000Z</time>
      </trkpt>
      <trkpt lat="39.86027707345784" lon="-6.153591396287084">
        <ele>461.79998779296875</ele>
        <time>2015-05-03T09:11:45.000Z</time>
      </trkpt>
      <trkpt lat="39.8602687753737" lon="-6.1536426935344934">
        <ele>462.3999938964844</ele>
        <time>2015-05-03T09:11:47.000Z</time>
      </trkpt>
      <trkpt lat="39.86024354584515" lon="-6.153786024078727">
        <ele>463.0</ele>
        <time>2015-05-03T09:11:52.000Z</time>
      </trkpt>
      <trkpt lat="39.86022879369557" lon="-6.153864981606603">
        <ele>463.6000061035156</ele>
        <time>2015-05-03T09:11:54.000Z</time>
      </trkpt>
      <trkpt lat="39.8601720482111" lon="-6.1541118286550045">
        <ele>463.0</ele>
        <time>2015-05-03T09:11:59.000Z</time>
      </trkpt>
      <trkpt lat="39.86015059053898" lon="-6.154234958812594">
        <ele>462.6000061035156</ele>
        <time>2015-05-03T09:12:01.000Z</time>
      </trkpt>
      <trkpt lat="39.86013734713197" lon="-6.1544213723391294">
        <ele>462.20001220703125</ele>
        <time>2015-05-03T09:12:04.000Z</time>
      </trkpt>
      <trkpt lat="39.86014866270125" lon="-6.154488008469343">
        <ele>462.0</ele>
        <time>2015-05-03T09:12:05.000Z</time>
      </trkpt>
      <trkpt lat="39.86015260219574" lon="-6.154568642377853">
        <ele>461.3999938964844</ele>
        <time>2015-05-03T09:12:06.000Z</time>
      </trkpt>
      <trkpt lat="39.86015846952796" lon="-6.154735190793872">
        <ele>460.20001220703125</ele>
        <time>2015-05-03T09:12:08.000Z</time>
      </trkpt>
      <trkpt lat="39.860136257484555" lon="-6.154824709519744">
        <ele>459.79998779296875</ele>
        <time>2015-05-03T09:12:09.000Z</time>
      </trkpt>
      <trkpt lat="39.860043385997415" lon="-6.1549656093120575">
        <ele>459.0</ele>
        <time>2015-05-03T09:12:11.000Z</time>
      </trkpt>
      <trkpt lat="39.85999803990126" lon="-6.155026964843273">
        <ele>459.0</ele>
        <time>2015-05-03T09:12:12.000Z</time>
      </trkpt>
      <trkpt lat="39.85988647677004" lon="-6.155242631211877">
        <ele>458.79998779296875</ele>
        <time>2015-05-03T09:12:15.000Z</time>
      </trkpt>
      <trkpt lat="39.859818667173386" lon="-6.155401552096009">
        <ele>458.3999938964844</ele>
        <time>2015-05-03T09:12:17.000Z</time>
      </trkpt>
      <trkpt lat="39.859785474836826" lon="-6.1554862931370735">
        <ele>457.79998779296875</ele>
        <time>2015-05-03T09:12:18.000Z</time>
      </trkpt>
      <trkpt lat="39.859738033264875" lon="-6.15557212382555">
        <ele>457.3999938964844</ele>
        <time>2015-05-03T09:12:19.000Z</time>
      </trkpt>
      <trkpt lat="39.85968782566488" lon="-6.155652338638902">
        <ele>456.79998779296875</ele>
        <time>2015-05-03T09:12:20.000Z</time>
      </trkpt>
      <trkpt lat="39.8595829680562" lon="-6.155802793800831">
        <ele>456.20001220703125</ele>
        <time>2015-05-03T09:12:22.000Z</time>
      </trkpt>
      <trkpt lat="39.85948179848492" lon="-6.155948638916016">
        <ele>456.3999938964844</ele>
        <time>2015-05-03T09:12:24.000Z</time>
      </trkpt>
      <trkpt lat="39.859391022473574" lon="-6.1561135109514">
        <ele>456.20001220703125</ele>
        <time>2015-05-03T09:12:26.000Z</time>
      </trkpt>
      <trkpt lat="39.85936311073601" lon="-6.15620780736208">
        <ele>456.0</ele>
        <time>2015-05-03T09:12:27.000Z</time>
      </trkpt>
      <trkpt lat="39.85935045406222" lon="-6.156313167884946">
        <ele>455.6000061035156</ele>
        <time>2015-05-03T09:12:28.000Z</time>
      </trkpt>
      <trkpt lat="39.859384736046195" lon="-6.156532438471913">
        <ele>454.79998779296875</ele>
        <time>2015-05-03T09:12:30.000Z</time>
      </trkpt>
      <trkpt lat="39.85941574908793" lon="-6.156648192554712">
        <ele>454.3999938964844</ele>
        <time>2015-05-03T09:12:31.000Z</time>
      </trkpt>
      <trkpt lat="39.859447767958045" lon="-6.156766461208463">
        <ele>453.79998779296875</ele>
        <time>2015-05-03T09:12:32.000Z</time>
      </trkpt>
      <trkpt lat="39.859443828463554" lon="-6.156898308545351">
        <ele>452.79998779296875</ele>
        <time>2015-05-03T09:12:33.000Z</time>
      </trkpt>
      <trkpt lat="39.859424382448196" lon="-6.157034849748015">
        <ele>451.79998779296875</ele>
        <time>2015-05-03T09:12:34.000Z</time>
      </trkpt>
      <trkpt lat="39.85938188619912" lon="-6.157153872773051">
        <ele>450.3999938964844</ele>
        <time>2015-05-03T09:12:35.000Z</time>
      </trkpt>
      <trkpt lat="39.85930695198476" lon="-6.157255209982395">
        <ele>449.3999938964844</ele>
        <time>2015-05-03T09:12:36.000Z</time>
      </trkpt>
      <trkpt lat="39.85919723287225" lon="-6.157333580777049">
        <ele>448.20001220703125</ele>
        <time>2015-05-03T09:12:37.000Z</time>
      </trkpt>
      <trkpt lat="39.859096482396126" lon="-6.157417483627796">
        <ele>447.3999938964844</ele>
        <time>2015-05-03T09:12:38.000Z</time>
      </trkpt>
      <trkpt lat="39.85899078659713" lon="-6.157487975433469">
        <ele>446.20001220703125</ele>
        <time>2015-05-03T09:12:39.000Z</time>
      </trkpt>
      <trkpt lat="39.85888601280749" lon="-6.157537596300244">
        <ele>445.0</ele>
        <time>2015-05-03T09:12:40.000Z</time>
      </trkpt>
      <trkpt lat="39.858787106350064" lon="-6.1575643345713615">
        <ele>443.79998779296875</ele>
        <time>2015-05-03T09:12:41.000Z</time>
      </trkpt>
      <trkpt lat="39.85869029536843" lon="-6.157565424218774">
        <ele>442.3999938964844</ele>
        <time>2015-05-03T09:12:42.000Z</time>
      </trkpt>
      <trkpt lat="39.85856615938246" lon="-6.157664163038135">
        <ele>440.20001220703125</ele>
        <time>2015-05-03T09:12:44.000Z</time>
      </trkpt>
      <trkpt lat="39.858531542122364" lon="-6.15788628347218">
        <ele>438.20001220703125</ele>
        <time>2015-05-03T09:12:46.000Z</time>
      </trkpt>
      <trkpt lat="39.85852433368564" lon="-6.158009748905897">
        <ele>437.0</ele>
        <time>2015-05-03T09:12:47.000Z</time>
      </trkpt>
      <trkpt lat="39.85851016826928" lon="-6.158138075843453">
        <ele>436.0</ele>
        <time>2015-05-03T09:12:48.000Z</time>
      </trkpt>
      <trkpt lat="39.85848787240684" lon="-6.158400680869818">
        <ele>433.79998779296875</ele>
        <time>2015-05-03T09:12:50.000Z</time>
      </trkpt>
      <trkpt lat="39.858437748625875" lon="-6.158622968941927">
        <ele>432.6000061035156</ele>
        <time>2015-05-03T09:12:52.000Z</time>
      </trkpt>
      <trkpt lat="39.858375722542405" lon="-6.158704273402691">
        <ele>432.20001220703125</ele>
        <time>2015-05-03T09:12:53.000Z</time>
      </trkpt>
      <trkpt lat="39.85821571201086" lon="-6.15876043215394">
        <ele>432.3999938964844</ele>
        <time>2015-05-03T09:12:55.000Z</time>
      </trkpt>
      <trkpt lat="39.85814480111003" lon="-6.158783063292503">
        <ele>432.3999938964844</ele>
        <time>2015-05-03T09:12:56.000Z</time>
      </trkpt>
      <trkpt lat="39.858081014826894" lon="-6.158820278942585">
        <ele>432.3999938964844</ele>
        <time>2015-05-03T09:12:57.000Z</time>
      </trkpt>
      <trkpt lat="39.85790574923158" lon="-6.158930836245418">
        <ele>432.79998779296875</ele>
        <time>2015-05-03T09:13:00.000Z</time>
      </trkpt>
      <trkpt lat="39.857852943241596" lon="-6.158950617536902">
        <ele>432.79998779296875</ele>
        <time>2015-05-03T09:13:01.000Z</time>
      </trkpt>
      <trkpt lat="39.85769536346197" lon="-6.1589794512838125">
        <ele>433.3999938964844</ele>
        <time>2015-05-03T09:13:04.000Z</time>
      </trkpt>
      <trkpt lat="39.85765119083226" lon="-6.158989677205682">
        <ele>433.6000061035156</ele>
        <time>2015-05-03T09:13:05.000Z</time>
      </trkpt>
      <trkpt lat="39.85757759772241" lon="-6.159012392163277">
        <ele>434.6000061035156</ele>
        <time>2015-05-03T09:13:07.000Z</time>
      </trkpt>
      <trkpt lat="39.857550859451294" lon="-6.159040974453092">
        <ele>435.0</ele>
        <time>2015-05-03T09:13:08.000Z</time>
      </trkpt>
      <trkpt lat="39.857493694871664" lon="-6.159103084355593">
        <ele>436.20001220703125</ele>
        <time>2015-05-03T09:13:10.000Z</time>
      </trkpt>
      <trkpt lat="39.85745673067868" lon="-6.159186400473118">
        <ele>437.3999938964844</ele>
        <time>2015-05-03T09:13:12.000Z</time>
      </trkpt>
      <trkpt lat="39.85744181089103" lon="-6.159227220341563">
        <ele>437.6000061035156</ele>
        <time>2015-05-03T09:13:13.000Z</time>
      </trkpt>
      <trkpt lat="39.85742622055113" lon="-6.159269465133548">
        <ele>438.0</ele>
        <time>2015-05-03T09:13:14.000Z</time>
      </trkpt>
      <trkpt lat="39.85741373151541" lon="-6.159317577257752">
        <ele>439.20001220703125</ele>
        <time>2015-05-03T09:13:15.000Z</time>
      </trkpt>
      <trkpt lat="39.857407780364156" lon="-6.159360995516181">
        <ele>439.3999938964844</ele>
        <time>2015-05-03T09:13:16.000Z</time>
      </trkpt>
      <trkpt lat="39.85737903043628" lon="-6.159433498978615">
        <ele>440.0</ele>
        <time>2015-05-03T09:13:18.000Z</time>
      </trkpt>
      <trkpt lat="39.85736687667668" lon="-6.159470211714506">
        <ele>440.3999938964844</ele>
        <time>2015-05-03T09:13:19.000Z</time>
      </trkpt>
      <trkpt lat="39.85734550282359" lon="-6.159530645236373">
        <ele>441.3999938964844</ele>
        <time>2015-05-03T09:13:21.000Z</time>
      </trkpt>
      <trkpt lat="39.857301246374846" lon="-6.159618152305484">
        <ele>441.79998779296875</ele>
        <time>2015-05-03T09:13:24.000Z</time>
      </trkpt>
      <trkpt lat="39.8572863265872" lon="-6.159650254994631">
        <ele>442.20001220703125</ele>
        <time>2015-05-03T09:13:25.000Z</time>
      </trkpt>
      <trkpt lat="39.857260175049305" lon="-6.159697948023677">
        <ele>442.6000061035156</ele>
        <time>2015-05-03T09:13:27.000Z</time>
      </trkpt>
      <trkpt lat="39.85719429329038" lon="-6.159815462306142">
        <ele>443.79998779296875</ele>
        <time>2015-05-03T09:13:31.000Z</time>
      </trkpt>
      <trkpt lat="39.85713528469205" lon="-6.159920152276754">
        <ele>444.20001220703125</ele>
        <time>2015-05-03T09:13:35.000Z</time>
      </trkpt>
      <trkpt lat="39.857097985222936" lon="-6.1599925719201565">
        <ele>445.0</ele>
        <time>2015-05-03T09:13:38.000Z</time>
      </trkpt>
      <trkpt lat="39.8570669721812" lon="-6.160064740106463">
        <ele>446.0</ele>
        <time>2015-05-03T09:13:41.000Z</time>
      </trkpt>
      <trkpt lat="39.85702003352344" lon="-6.160158785060048">
        <ele>447.20001220703125</ele>
        <time>2015-05-03T09:13:45.000Z</time>
      </trkpt>
      <trkpt lat="39.856966976076365" lon="-6.160271437838674">
        <ele>448.3999938964844</ele>
        <time>2015-05-03T09:13:50.000Z</time>
      </trkpt>
      <trkpt lat="39.856953816488385" lon="-6.160295661538839">
        <ele>448.79998779296875</ele>
        <time>2015-05-03T09:13:51.000Z</time>
      </trkpt>
      <trkpt lat="39.85687972046435" lon="-6.160426922142506">
        <ele>449.20001220703125</ele>
        <time>2015-05-03T09:13:57.000Z</time>
      </trkpt>
      <trkpt lat="39.856862872838974" lon="-6.160455420613289">
        <ele>450.0</ele>
        <time>2015-05-03T09:13:58.000Z</time>
      </trkpt>
      <trkpt lat="39.856839906424284" lon="-6.1605017725378275">
        <ele>450.6000061035156</ele>
        <time>2015-05-03T09:14:00.000Z</time>
      </trkpt>
      <trkpt lat="39.85681274905801" lon="-6.160564636811614">
        <ele>451.0</ele>
        <time>2015-05-03T09:14:03.000Z</time>
      </trkpt>
      <trkpt lat="39.8568026907742" lon="-6.160596152767539">
        <ele>451.79998779296875</ele>
        <time>2015-05-03T09:14:04.000Z</time>
      </trkpt>
      <trkpt lat="39.856797913089395" lon="-6.160614928230643">
        <ele>452.0</ele>
        <time>2015-05-03T09:14:05.000Z</time>
      </trkpt>
      <trkpt lat="39.85677285119891" lon="-6.1607173550873995">
        <ele>453.0</ele>
        <time>2015-05-03T09:14:09.000Z</time>
      </trkpt>
      <trkpt lat="39.856744017452" lon="-6.160809136927128">
        <ele>454.0</ele>
        <time>2015-05-03T09:14:13.000Z</time>
      </trkpt>
      <trkpt lat="39.856725661084056" lon="-6.160911563783884">
        <ele>455.20001220703125</ele>
        <time>2015-05-03T09:14:17.000Z</time>
      </trkpt>
      <trkpt lat="39.85672063194215" lon="-6.160973841324449">
        <ele>455.79998779296875</ele>
        <time>2015-05-03T09:14:20.000Z</time>
      </trkpt>
      <trkpt lat="39.856720715761185" lon="-6.161013236269355">
        <ele>456.20001220703125</ele>
        <time>2015-05-03T09:14:22.000Z</time>
      </trkpt>
      <trkpt lat="39.85670822672546" lon="-6.161096887663007">
        <ele>457.20001220703125</ele>
        <time>2015-05-03T09:14:26.000Z</time>
      </trkpt>
      <trkpt lat="39.85670445486903" lon="-6.161120273172855">
        <ele>457.6000061035156</ele>
        <time>2015-05-03T09:14:27.000Z</time>
      </trkpt>
      <trkpt lat="39.856703197583556" lon="-6.16116494871676">
        <ele>458.79998779296875</ele>
        <time>2015-05-03T09:14:29.000Z</time>
      </trkpt>
      <trkpt lat="39.856699761003256" lon="-6.161257987841964">
        <ele>459.79998779296875</ele>
        <time>2015-05-03T09:14:33.000Z</time>
      </trkpt>
      <trkpt lat="39.85670059919357" lon="-6.161274164915085">
        <ele>460.0</ele>
        <time>2015-05-03T09:14:34.000Z</time>
      </trkpt>
      <trkpt lat="39.856694815680385" lon="-6.1613464169204235">
        <ele>460.79998779296875</ele>
        <time>2015-05-03T09:14:37.000Z</time>
      </trkpt>
      <trkpt lat="39.856667909771204" lon="-6.1614621710032225">
        <ele>461.6000061035156</ele>
        <time>2015-05-03T09:14:42.000Z</time>
      </trkpt>
      <trkpt lat="39.85664812847972" lon="-6.161517156288028">
        <ele>462.0</ele>
        <time>2015-05-03T09:14:44.000Z</time>
      </trkpt>
      <trkpt lat="39.85661753453314" lon="-6.161589743569493">
        <ele>462.3999938964844</ele>
        <time>2015-05-03T09:14:47.000Z</time>
      </trkpt>
      <trkpt lat="39.85657051205635" lon="-6.161672808229923">
        <ele>463.0</ele>
        <time>2015-05-03T09:14:50.000Z</time>
      </trkpt>
      <trkpt lat="39.85650010406971" lon="-6.16176743991673">
        <ele>464.20001220703125</ele>
        <time>2015-05-03T09:14:54.000Z</time>
      </trkpt>
      <trkpt lat="39.85641653649509" lon="-6.161828376352787">
        <ele>465.20001220703125</ele>
        <time>2015-05-03T09:14:58.000Z</time>
      </trkpt>
      <trkpt lat="39.85637747682631" lon="-6.161833740770817">
        <ele>465.6000061035156</ele>
        <time>2015-05-03T09:15:00.000Z</time>
      </trkpt>
      <trkpt lat="39.85636180266738" lon="-6.161827957257628">
        <ele>466.0</ele>
        <time>2015-05-03T09:15:01.000Z</time>
      </trkpt>
      <trkpt lat="39.85635358840227" lon="-6.161812115460634">
        <ele>466.0</ele>
        <time>2015-05-03T09:15:02.000Z</time>
      </trkpt>
      <trkpt lat="39.85633657313883" lon="-6.161806080490351">
        <ele>466.6000061035156</ele>
        <time>2015-05-03T09:15:03.000Z</time>
      </trkpt>
      <trkpt lat="39.856294663622975" lon="-6.161774899810553">
        <ele>467.6000061035156</ele>
        <time>2015-05-03T09:15:06.000Z</time>
      </trkpt>
      <trkpt lat="39.856277480721474" lon="-6.161766182631254">
        <ele>467.79998779296875</ele>
        <time>2015-05-03T09:15:07.000Z</time>
      </trkpt>
      <trkpt lat="39.85622350126505" lon="-6.161703234538436">
        <ele>469.20001220703125</ele>
        <time>2015-05-03T09:15:11.000Z</time>
      </trkpt>
      <trkpt lat="39.85620405524969" lon="-6.161679681390524">
        <ele>469.6000061035156</ele>
        <time>2015-05-03T09:15:13.000Z</time>
      </trkpt>
      <trkpt lat="39.85615627840161" lon="-6.161627126857638">
        <ele>470.3999938964844</ele>
        <time>2015-05-03T09:15:17.000Z</time>
      </trkpt>
      <trkpt lat="39.85611168667674" lon="-6.161572141572833">
        <ele>471.3999938964844</ele>
        <time>2015-05-03T09:15:21.000Z</time>
      </trkpt>
      <trkpt lat="39.8560756444931" lon="-6.161527382209897">
        <ele>472.3999938964844</ele>
        <time>2015-05-03T09:15:24.000Z</time>
      </trkpt>
      <trkpt lat="39.85603214241564" lon="-6.161465607583523">
        <ele>472.79998779296875</ele>
        <time>2015-05-03T09:15:27.000Z</time>
      </trkpt>
      <trkpt lat="39.85600548796356" lon="-6.161426128819585">
        <ele>473.6000061035156</ele>
        <time>2015-05-03T09:15:29.000Z</time>
      </trkpt>
      <trkpt lat="39.855941869318485" lon="-6.161336023360491">
        <ele>474.79998779296875</ele>
        <time>2015-05-03T09:15:34.000Z</time>
      </trkpt>
      <trkpt lat="39.855891074985266" lon="-6.161262094974518">
        <ele>475.3999938964844</ele>
        <time>2015-05-03T09:15:37.000Z</time>
      </trkpt>
      <trkpt lat="39.85586442053318" lon="-6.161218089982867">
        <ele>476.0</ele>
        <time>2015-05-03T09:15:39.000Z</time>
      </trkpt>
      <trkpt lat="39.85581899061799" lon="-6.161113316193223">
        <ele>477.0</ele>
        <time>2015-05-03T09:15:43.000Z</time>
      </trkpt>
      <trkpt lat="39.85578613355756" lon="-6.161065120249987">
        <ele>477.3999938964844</ele>
        <time>2015-05-03T09:15:45.000Z</time>
      </trkpt>
      <trkpt lat="39.85573793761432" lon="-6.161016672849655">
        <ele>478.20001220703125</ele>
        <time>2015-05-03T09:15:48.000Z</time>
      </trkpt>
      <trkpt lat="39.855670714750886" lon="-6.160932602360845">
        <ele>479.3999938964844</ele>
        <time>2015-05-03T09:15:53.000Z</time>
      </trkpt>
      <trkpt lat="39.85560868866742" lon="-6.16086102090776">
        <ele>480.6000061035156</ele>
        <time>2015-05-03T09:15:58.000Z</time>
      </trkpt>
      <trkpt lat="39.85557231120765" lon="-6.160809304565191">
        <ele>481.20001220703125</ele>
        <time>2015-05-03T09:16:01.000Z</time>
      </trkpt>
      <trkpt lat="39.85554398037493" lon="-6.160776615142822">
        <ele>481.6000061035156</ele>
        <time>2015-05-03T09:16:03.000Z</time>
      </trkpt>
      <trkpt lat="39.855447420850396" lon="-6.160668656229973">
        <ele>482.79998779296875</ele>
        <time>2015-05-03T09:16:09.000Z</time>
      </trkpt>
      <trkpt lat="39.855409702286124" lon="-6.160636134445667">
        <ele>483.0</ele>
        <time>2015-05-03T09:16:11.000Z</time>
      </trkpt>
      <trkpt lat="39.855327643454075" lon="-6.160593302920461">
        <ele>484.0</ele>
        <time>2015-05-03T09:16:15.000Z</time>
      </trkpt>
      <trkpt lat="39.85519462265074" lon="-6.160550303757191">
        <ele>485.20001220703125</ele>
        <time>2015-05-03T09:16:20.000Z</time>
      </trkpt>
      <trkpt lat="39.855028158053756" lon="-6.160484841093421">
        <ele>486.0</ele>
        <time>2015-05-03T09:16:26.000Z</time>
      </trkpt>
      <trkpt lat="39.85499563626945" lon="-6.160465311259031">
        <ele>486.3999938964844</ele>
        <time>2015-05-03T09:16:27.000Z</time>
      </trkpt>
      <trkpt lat="39.854821376502514" lon="-6.160407979041338">
        <ele>487.79998779296875</ele>
        <time>2015-05-03T09:16:33.000Z</time>
      </trkpt>
      <trkpt lat="39.854793548583984" lon="-6.160403033718467">
        <ele>487.79998779296875</ele>
        <time>2015-05-03T09:16:34.000Z</time>
      </trkpt>
      <trkpt lat="39.85470847226679" lon="-6.16036556661129">
        <ele>488.79998779296875</ele>
        <time>2015-05-03T09:16:37.000Z</time>
      </trkpt>
      <trkpt lat="39.85461987555027" lon="-6.160342851653695">
        <ele>489.6000061035156</ele>
        <time>2015-05-03T09:16:40.000Z</time>
      </trkpt>
      <trkpt lat="39.85459196381271" lon="-6.160335643216968">
        <ele>489.79998779296875</ele>
        <time>2015-05-03T09:16:41.000Z</time>
      </trkpt>
      <trkpt lat="39.85450956970453" lon="-6.160316951572895">
        <ele>490.79998779296875</ele>
        <time>2015-05-03T09:16:44.000Z</time>
      </trkpt>
      <trkpt lat="39.85443170182407" lon="-6.160289207473397">
        <ele>491.6000061035156</ele>
        <time>2015-05-03T09:16:47.000Z</time>
      </trkpt>
      <trkpt lat="39.85440135933459" lon="-6.160278310999274">
        <ele>491.79998779296875</ele>
        <time>2015-05-03T09:16:48.000Z</time>
      </trkpt>
      <trkpt lat="39.85423472709954" lon="-6.160230785608292">
        <ele>493.20001220703125</ele>
        <time>2015-05-03T09:16:54.000Z</time>
      </trkpt>
      <trkpt lat="39.8541484773159" lon="-6.1602105014026165">
        <ele>494.20001220703125</ele>
        <time>2015-05-03T09:16:57.000Z</time>
      </trkpt>
      <trkpt lat="39.854054767638445" lon="-6.1601754650473595">
        <ele>494.6000061035156</ele>
        <time>2015-05-03T09:17:00.000Z</time>
      </trkpt>
      <trkpt lat="39.85392292030156" lon="-6.1601171270012856">
        <ele>495.20001220703125</ele>
        <time>2015-05-03T09:17:04.000Z</time>
      </trkpt>
      <trkpt lat="39.85386298969388" lon="-6.160100195556879">
        <ele>495.79998779296875</ele>
        <time>2015-05-03T09:17:06.000Z</time>
      </trkpt>
      <trkpt lat="39.853769447654486" lon="-6.1600729543715715">
        <ele>496.3999938964844</ele>
        <time>2015-05-03T09:17:09.000Z</time>
      </trkpt>
      <trkpt lat="39.85371286980808" lon="-6.160032972693443">
        <ele>496.6000061035156</ele>
        <time>2015-05-03T09:17:11.000Z</time>
      </trkpt>
      <trkpt lat="39.853532407432795" lon="-6.159939933568239">
        <ele>497.3999938964844</ele>
        <time>2015-05-03T09:17:17.000Z</time>
      </trkpt>
      <trkpt lat="39.853350101038814" lon="-6.159821078181267">
        <ele>498.79998779296875</ele>
        <time>2015-05-03T09:17:23.000Z</time>
      </trkpt>
      <trkpt lat="39.85331774689257" lon="-6.15980414673686">
        <ele>499.20001220703125</ele>
        <time>2015-05-03T09:17:24.000Z</time>
      </trkpt>
      <trkpt lat="39.853124460205436" lon="-6.159756202250719">
        <ele>500.0</ele>
        <time>2015-05-03T09:17:30.000Z</time>
      </trkpt>
      <trkpt lat="39.853057907894254" lon="-6.159755950793624">
        <ele>500.20001220703125</ele>
        <time>2015-05-03T09:17:32.000Z</time>
      </trkpt>
      <trkpt lat="39.85283846966922" lon="-6.159766931086779">
        <ele>500.79998779296875</ele>
        <time>2015-05-03T09:17:38.000Z</time>
      </trkpt>
      <trkpt lat="39.85279773361981" lon="-6.159781767055392">
        <ele>500.6000061035156</ele>
        <time>2015-05-03T09:17:39.000Z</time>
      </trkpt>
      <trkpt lat="39.852734953165054" lon="-6.15984614007175">
        <ele>500.79998779296875</ele>
        <time>2015-05-03T09:17:41.000Z</time>
      </trkpt>
      <trkpt lat="39.852652894333005" lon="-6.160037582740188">
        <ele>500.3999938964844</ele>
        <time>2015-05-03T09:17:45.000Z</time>
      </trkpt>
      <trkpt lat="39.85263311304152" lon="-6.160088209435344">
        <ele>500.20001220703125</ele>
        <time>2015-05-03T09:17:46.000Z</time>
      </trkpt>
      <trkpt lat="39.85256035812199" lon="-6.160266073420644">
        <ele>500.0</ele>
        <time>2015-05-03T09:17:49.000Z</time>
      </trkpt>
      <trkpt lat="39.852505791932344" lon="-6.160382330417633">
        <ele>500.0</ele>
        <time>2015-05-03T09:17:51.000Z</time>
      </trkpt>
      <trkpt lat="39.852377800270915" lon="-6.160656837746501">
        <ele>500.79998779296875</ele>
        <time>2015-05-03T09:17:56.000Z</time>
      </trkpt>
      <trkpt lat="39.852312756702304" lon="-6.160825481638312">
        <ele>501.20001220703125</ele>
        <time>2015-05-03T09:17:59.000Z</time>
      </trkpt>
      <trkpt lat="39.85224469564855" lon="-6.160980546846986">
        <ele>502.20001220703125</ele>
        <time>2015-05-03T09:18:02.000Z</time>
      </trkpt>
      <trkpt lat="39.85214344225824" lon="-6.161226388067007">
        <ele>503.20001220703125</ele>
        <time>2015-05-03T09:18:07.000Z</time>
      </trkpt>
      <trkpt lat="39.85212307423353" lon="-6.1612786911427975">
        <ele>503.3999938964844</ele>
        <time>2015-05-03T09:18:08.000Z</time>
      </trkpt>
      <trkpt lat="39.852104131132364" lon="-6.161335771903396">
        <ele>503.3999938964844</ele>
        <time>2015-05-03T09:18:09.000Z</time>
      </trkpt>
      <trkpt lat="39.85205518081784" lon="-6.161516988649964">
        <ele>503.6000061035156</ele>
        <time>2015-05-03T09:18:12.000Z</time>
      </trkpt>
      <trkpt lat="39.8520434461534" lon="-6.161577338352799">
        <ele>503.6000061035156</ele>
        <time>2015-05-03T09:18:13.000Z</time>
      </trkpt>
      <trkpt lat="39.85199927352369" lon="-6.161898532882333">
        <ele>504.79998779296875</ele>
        <time>2015-05-03T09:18:18.000Z</time>
      </trkpt>
      <trkpt lat="39.85198871232569" lon="-6.162032894790173">
        <ele>504.6000061035156</ele>
        <time>2015-05-03T09:18:20.000Z</time>
      </trkpt>
      <trkpt lat="39.85197002068162" lon="-6.1622540932148695">
        <ele>504.20001220703125</ele>
        <time>2015-05-03T09:18:23.000Z</time>
      </trkpt>
      <trkpt lat="39.85192375257611" lon="-6.162389628589153">
        <ele>503.79998779296875</ele>
        <time>2015-05-03T09:18:25.000Z</time>
      </trkpt>
      <trkpt lat="39.851860804483294" lon="-6.1625156085938215">
        <ele>503.79998779296875</ele>
        <time>2015-05-03T09:18:27.000Z</time>
      </trkpt>
      <trkpt lat="39.851796850562096" lon="-6.162627674639225">
        <ele>504.3999938964844</ele>
        <time>2015-05-03T09:18:29.000Z</time>
      </trkpt>
      <trkpt lat="39.8517688550055" lon="-6.162680564448237">
        <ele>504.79998779296875</ele>
        <time>2015-05-03T09:18:30.000Z</time>
      </trkpt>
      <trkpt lat="39.851682018488646" lon="-6.162828421220183">
        <ele>506.0</ele>
        <time>2015-05-03T09:18:33.000Z</time>
      </trkpt>
      <trkpt lat="39.85162443481386" lon="-6.1629267409443855">
        <ele>506.20001220703125</ele>
        <time>2015-05-03T09:18:35.000Z</time>
      </trkpt>
      <trkpt lat="39.85156014561653" lon="-6.163030844181776">
        <ele>506.20001220703125</ele>
        <time>2015-05-03T09:18:37.000Z</time>
      </trkpt>
      <trkpt lat="39.85144858248532" lon="-6.163193704560399">
        <ele>504.79998779296875</ele>
        <time>2015-05-03T09:18:40.000Z</time>
      </trkpt>
      <trkpt lat="39.85131396912038" lon="-6.163356397300959">
        <ele>504.20001220703125</ele>
        <time>2015-05-03T09:18:43.000Z</time>
      </trkpt>
      <trkpt lat="39.85115974210203" lon="-6.163491597399116">
        <ele>503.6000061035156</ele>
        <time>2015-05-03T09:18:46.000Z</time>
      </trkpt>
      <trkpt lat="39.851101068779826" lon="-6.163520431146026">
        <ele>503.0</ele>
        <time>2015-05-03T09:18:47.000Z</time>
      </trkpt>
      <trkpt lat="39.85103619284928" lon="-6.163526633754373">
        <ele>502.79998779296875</ele>
        <time>2015-05-03T09:18:48.000Z</time>
      </trkpt>
      <trkpt lat="39.85093083232641" lon="-6.163476342335343">
        <ele>503.20001220703125</ele>
        <time>2015-05-03T09:18:50.000Z</time>
      </trkpt>
      <trkpt lat="39.850885486230254" lon="-6.163437031209469">
        <ele>503.6000061035156</ele>
        <time>2015-05-03T09:18:51.000Z</time>
      </trkpt>
      <trkpt lat="39.85082027502358" lon="-6.163349859416485">
        <ele>504.20001220703125</ele>
        <time>2015-05-03T09:18:53.000Z</time>
      </trkpt>
      <trkpt lat="39.85076269134879" lon="-6.163260843604803">
        <ele>505.0</ele>
        <time>2015-05-03T09:18:55.000Z</time>
      </trkpt>
      <trkpt lat="39.85065070912242" lon="-6.1630958039313555">
        <ele>506.0</ele>
        <time>2015-05-03T09:18:59.000Z</time>
      </trkpt>
      <trkpt lat="39.850556747987866" lon="-6.16298658773303">
        <ele>506.6000061035156</ele>
        <time>2015-05-03T09:19:02.000Z</time>
      </trkpt>
      <trkpt lat="39.85046764835715" lon="-6.162895644083619">
        <ele>507.6000061035156</ele>
        <time>2015-05-03T09:19:05.000Z</time>
      </trkpt>
      <trkpt lat="39.85038751736283" lon="-6.162823643535376">
        <ele>508.6000061035156</ele>
        <time>2015-05-03T09:19:08.000Z</time>
      </trkpt>
      <trkpt lat="39.85035960562527" lon="-6.162801263853908">
        <ele>508.79998779296875</ele>
        <time>2015-05-03T09:19:09.000Z</time>
      </trkpt>
      <trkpt lat="39.850237062200904" lon="-6.162672266364098">
        <ele>509.79998779296875</ele>
        <time>2015-05-03T09:19:14.000Z</time>
      </trkpt>
      <trkpt lat="39.85013815574348" lon="-6.1625815741717815">
        <ele>511.0</ele>
        <time>2015-05-03T09:19:18.000Z</time>
      </trkpt>
      <trkpt lat="39.85005475580692" lon="-6.162482835352421">
        <ele>512.0</ele>
        <time>2015-05-03T09:19:22.000Z</time>
      </trkpt>
      <trkpt lat="39.85003313049674" lon="-6.1624593660235405">
        <ele>512.4000244140625</ele>
        <time>2015-05-03T09:19:23.000Z</time>
      </trkpt>
      <trkpt lat="39.84989583492279" lon="-6.162296757102013">
        <ele>513.5999755859375</ele>
        <time>2015-05-03T09:19:29.000Z</time>
      </trkpt>
      <trkpt lat="39.84979902394116" lon="-6.162192318588495">
        <ele>514.5999755859375</ele>
        <time>2015-05-03T09:19:33.000Z</time>
      </trkpt>
      <trkpt lat="39.84970296733081" lon="-6.162089724093676">
        <ele>515.5999755859375</ele>
        <time>2015-05-03T09:19:37.000Z</time>
      </trkpt>
      <trkpt lat="39.84952971339226" lon="-6.161911776289344">
        <ele>517.0</ele>
        <time>2015-05-03T09:19:44.000Z</time>
      </trkpt>
      <trkpt lat="39.849359560757875" lon="-6.161744557321072">
        <ele>518.0</ele>
        <time>2015-05-03T09:19:51.000Z</time>
      </trkpt>
      <trkpt lat="39.84931228682399" lon="-6.161703234538436">
        <ele>518.5999755859375</ele>
        <time>2015-05-03T09:19:53.000Z</time>
      </trkpt>
      <trkpt lat="39.84924296848476" lon="-6.161639532074332">
        <ele>519.0</ele>
        <time>2015-05-03T09:19:56.000Z</time>
      </trkpt>
      <trkpt lat="39.849156299605966" lon="-6.161556299775839">
        <ele>520.4000244140625</ele>
        <time>2015-05-03T09:20:00.000Z</time>
      </trkpt>
      <trkpt lat="39.84913358464837" lon="-6.161538027226925">
        <ele>520.5999755859375</ele>
        <time>2015-05-03T09:20:01.000Z</time>
      </trkpt>
      <trkpt lat="39.8490456584841" lon="-6.161465439945459">
        <ele>521.4000244140625</ele>
        <time>2015-05-03T09:20:05.000Z</time>
      </trkpt>
      <trkpt lat="39.84896100126207" lon="-6.16138681769371">
        <ele>522.5999755859375</ele>
        <time>2015-05-03T09:20:09.000Z</time>
      </trkpt>
      <trkpt lat="39.848917331546545" lon="-6.16134381853044">
        <ele>522.7999877929688</ele>
        <time>2015-05-03T09:20:11.000Z</time>
      </trkpt>
      <trkpt lat="39.84885639511049" lon="-6.161267124116421">
        <ele>523.5999755859375</ele>
        <time>2015-05-03T09:20:14.000Z</time>
      </trkpt>
      <trkpt lat="39.84876084141433" lon="-6.1611507833004">
        <ele>524.7999877929688</ele>
        <time>2015-05-03T09:20:19.000Z</time>
      </trkpt>
      <trkpt lat="39.84874080866575" lon="-6.1611290741711855">
        <ele>525.4000244140625</ele>
        <time>2015-05-03T09:20:20.000Z</time>
      </trkpt>
      <trkpt lat="39.84868188388646" lon="-6.161064533516765">
        <ele>526.0</ele>
        <time>2015-05-03T09:20:23.000Z</time>
      </trkpt>
      <trkpt lat="39.84858280979097" lon="-6.160954479128122">
        <ele>526.7999877929688</ele>
        <time>2015-05-03T09:20:28.000Z</time>
      </trkpt>
      <trkpt lat="39.84856084920466" lon="-6.160931093618274">
        <ele>527.2000122070312</ele>
        <time>2015-05-03T09:20:29.000Z</time>
      </trkpt>
      <trkpt lat="39.848419027403" lon="-6.160792708396912">
        <ele>528.2000122070312</ele>
        <time>2015-05-03T09:20:35.000Z</time>
      </trkpt>
      <trkpt lat="39.84839572571218" lon="-6.160768149420619">
        <ele>528.2000122070312</ele>
        <time>2015-05-03T09:20:36.000Z</time>
      </trkpt>
      <trkpt lat="39.84824652783573" lon="-6.160650132223964">
        <ele>529.4000244140625</ele>
        <time>2015-05-03T09:20:42.000Z</time>
      </trkpt>
      <trkpt lat="39.8481132555753" lon="-6.1605550814419985">
        <ele>530.5999755859375</ele>
        <time>2015-05-03T09:20:47.000Z</time>
      </trkpt>
      <trkpt lat="39.8480302747339" lon="-6.160497916862369">
        <ele>531.7999877929688</ele>
        <time>2015-05-03T09:20:50.000Z</time>
      </trkpt>
      <trkpt lat="39.84800328500569" lon="-6.160479728132486">
        <ele>531.5999755859375</ele>
        <time>2015-05-03T09:20:51.000Z</time>
      </trkpt>
      <trkpt lat="39.847888788208365" lon="-6.160407727584243">
        <ele>532.7999877929688</ele>
        <time>2015-05-03T09:20:55.000Z</time>
      </trkpt>
      <trkpt lat="39.847806729376316" lon="-6.160355424508452">
        <ele>533.7999877929688</ele>
        <time>2015-05-03T09:20:58.000Z</time>
      </trkpt>
      <trkpt lat="39.847780829295516" lon="-6.160339834168553">
        <ele>533.7999877929688</ele>
        <time>2015-05-03T09:20:59.000Z</time>
      </trkpt>
      <trkpt lat="39.84767203219235" lon="-6.160279735922813">
        <ele>535.4000244140625</ele>
        <time>2015-05-03T09:21:03.000Z</time>
      </trkpt>
      <trkpt lat="39.84759148210287" lon="-6.160237910225987">
        <ele>536.0</ele>
        <time>2015-05-03T09:21:06.000Z</time>
      </trkpt>
      <trkpt lat="39.847509171813726" lon="-6.1601898819208145">
        <ele>536.5999755859375</ele>
        <time>2015-05-03T09:21:09.000Z</time>
      </trkpt>
      <trkpt lat="39.84740632586181" lon="-6.160115785896778">
        <ele>537.5999755859375</ele>
        <time>2015-05-03T09:21:13.000Z</time>
      </trkpt>
      <trkpt lat="39.8473811801523" lon="-6.1600997764617205">
        <ele>537.7999877929688</ele>
        <time>2015-05-03T09:21:14.000Z</time>
      </trkpt>
      <trkpt lat="39.84729861840606" lon="-6.1600567772984505">
        <ele>538.7999877929688</ele>
        <time>2015-05-03T09:21:17.000Z</time>
      </trkpt>
      <trkpt lat="39.84721379354596" lon="-6.1600022949278355">
        <ele>539.5999755859375</ele>
        <time>2015-05-03T09:21:20.000Z</time>
      </trkpt>
      <trkpt lat="39.847181187942624" lon="-6.159980921074748">
        <ele>540.2000122070312</ele>
        <time>2015-05-03T09:21:21.000Z</time>
      </trkpt>
      <trkpt lat="39.84709066338837" lon="-6.159922750666738">
        <ele>541.4000244140625</ele>
        <time>2015-05-03T09:21:25.000Z</time>
      </trkpt>
      <trkpt lat="39.847075659781694" lon="-6.159927444532514">
        <ele>541.7999877929688</ele>
        <time>2015-05-03T09:21:26.000Z</time>
      </trkpt>
      <trkpt lat="39.84704204834998" lon="-6.159968599677086">
        <ele>542.0</ele>
        <time>2015-05-03T09:21:28.000Z</time>
      </trkpt>
      <trkpt lat="39.84705973416567" lon="-6.160092484205961">
        <ele>542.5999755859375</ele>
        <time>2015-05-03T09:21:32.000Z</time>
      </trkpt>
      <trkpt lat="39.847170542925596" lon="-6.160337654873729">
        <ele>543.4000244140625</ele>
        <time>2015-05-03T09:21:39.000Z</time>
      </trkpt>
      <trkpt lat="39.847184205427766" lon="-6.160374451428652">
        <ele>543.5999755859375</ele>
        <time>2015-05-03T09:21:40.000Z</time>
      </trkpt>
      <trkpt lat="39.84727129340172" lon="-6.160629680380225">
        <ele>544.7999877929688</ele>
        <time>2015-05-03T09:21:47.000Z</time>
      </trkpt>
      <trkpt lat="39.84732854180038" lon="-6.16079555824399">
        <ele>546.0</ele>
        <time>2015-05-03T09:21:52.000Z</time>
      </trkpt>
      <trkpt lat="39.84735393896699" lon="-6.160853812471032">
        <ele>546.4000244140625</ele>
        <time>2015-05-03T09:21:54.000Z</time>
      </trkpt>
      <trkpt lat="39.84738042578101" lon="-6.160908043384552">
        <ele>547.0</ele>
        <time>2015-05-03T09:21:56.000Z</time>
      </trkpt>
      <trkpt lat="39.84742417931557" lon="-6.161007955670357">
        <ele>548.0</ele>
        <time>2015-05-03T09:22:00.000Z</time>
      </trkpt>
      <trkpt lat="39.84743406996131" lon="-6.161032598465681">
        <ele>548.5999755859375</ele>
        <time>2015-05-03T09:22:01.000Z</time>
      </trkpt>
      <trkpt lat="39.84746349044144" lon="-6.161123039200902">
        <ele>549.5999755859375</ele>
        <time>2015-05-03T09:22:05.000Z</time>
      </trkpt>
      <trkpt lat="39.84747405163944" lon="-6.161146676167846">
        <ele>549.7999877929688</ele>
        <time>2015-05-03T09:22:06.000Z</time>
      </trkpt>
      <trkpt lat="39.84750296920538" lon="-6.161235189065337">
        <ele>551.0</ele>
        <time>2015-05-03T09:22:10.000Z</time>
      </trkpt>
      <trkpt lat="39.84751420095563" lon="-6.161284223198891">
        <ele>551.5999755859375</ele>
        <time>2015-05-03T09:22:12.000Z</time>
      </trkpt>
      <trkpt lat="39.847521325573325" lon="-6.161327725276351">
        <ele>552.0</ele>
        <time>2015-05-03T09:22:14.000Z</time>
      </trkpt>
      <trkpt lat="39.84754303470254" lon="-6.161407940089703">
        <ele>553.2000122070312</ele>
        <time>2015-05-03T09:22:18.000Z</time>
      </trkpt>
      <trkpt lat="39.84755426645279" lon="-6.161422859877348">
        <ele>553.5999755859375</ele>
        <time>2015-05-03T09:22:19.000Z</time>
      </trkpt>
      <trkpt lat="39.84759139828384" lon="-6.1614995542913675">
        <ele>554.0</ele>
        <time>2015-05-03T09:22:23.000Z</time>
      </trkpt>
      <trkpt lat="39.847597517073154" lon="-6.1615219339728355">
        <ele>554.4000244140625</ele>
        <time>2015-05-03T09:22:24.000Z</time>
      </trkpt>
      <trkpt lat="39.847601875662804" lon="-6.161544062197208">
        <ele>555.0</ele>
        <time>2015-05-03T09:22:25.000Z</time>
      </trkpt>
      <trkpt lat="39.84761503525078" lon="-6.1616400349885225">
        <ele>555.4000244140625</ele>
        <time>2015-05-03T09:22:29.000Z</time>
      </trkpt>
      <trkpt lat="39.84761444851756" lon="-6.161665096879005">
        <ele>555.7999877929688</ele>
        <time>2015-05-03T09:22:30.000Z</time>
      </trkpt>
      <trkpt lat="39.847612269222736" lon="-6.161692924797535">
        <ele>556.0</ele>
        <time>2015-05-03T09:22:31.000Z</time>
      </trkpt>
      <trkpt lat="39.84760690480471" lon="-6.1617746483534575">
        <ele>556.5999755859375</ele>
        <time>2015-05-03T09:22:34.000Z</time>
      </trkpt>
      <trkpt lat="39.84760078601539" lon="-6.16180163808167">
        <ele>556.7999877929688</ele>
        <time>2015-05-03T09:22:35.000Z</time>
      </trkpt>
      <trkpt lat="39.847581423819065" lon="-6.161857293918729">
        <ele>557.2000122070312</ele>
        <time>2015-05-03T09:22:37.000Z</time>
      </trkpt>
      <trkpt lat="39.84750674106181" lon="-6.1620143707841635">
        <ele>557.7999877929688</ele>
        <time>2015-05-03T09:22:42.000Z</time>
      </trkpt>
      <trkpt lat="39.847488552331924" lon="-6.162042450159788">
        <ele>557.7999877929688</ele>
        <time>2015-05-03T09:22:43.000Z</time>
      </trkpt>
      <trkpt lat="39.84737489372492" lon="-6.162227857857943">
        <ele>558.0</ele>
        <time>2015-05-03T09:22:49.000Z</time>
      </trkpt>
      <trkpt lat="39.847261821851134" lon="-6.162394657731056">
        <ele>558.0</ele>
        <time>2015-05-03T09:22:55.000Z</time>
      </trkpt>
      <trkpt lat="39.84718495979905" lon="-6.162504628300667">
        <ele>558.4000244140625</ele>
        <time>2015-05-03T09:22:59.000Z</time>
      </trkpt>
      <trkpt lat="39.8471100255847" lon="-6.1626016069203615">
        <ele>558.7999877929688</ele>
        <time>2015-05-03T09:23:03.000Z</time>
      </trkpt>
      <trkpt lat="39.847059566527605" lon="-6.162691796198487">
        <ele>559.5999755859375</ele>
        <time>2015-05-03T09:23:07.000Z</time>
      </trkpt>
      <trkpt lat="39.847049843519926" lon="-6.1627105716615915">
        <ele>559.7999877929688</ele>
        <time>2015-05-03T09:23:08.000Z</time>
      </trkpt>
      <trkpt lat="39.84704012051225" lon="-6.162727335467935">
        <ele>560.2000122070312</ele>
        <time>2015-05-03T09:23:09.000Z</time>
      </trkpt>
      <trkpt lat="39.84698245301843" lon="-6.162807634100318">
        <ele>561.0</ele>
        <time>2015-05-03T09:23:14.000Z</time>
      </trkpt>
      <trkpt lat="39.84696057625115" lon="-6.16284241899848">
        <ele>561.5999755859375</ele>
        <time>2015-05-03T09:23:16.000Z</time>
      </trkpt>
      <trkpt lat="39.84690383076668" lon="-6.162939146161079">
        <ele>562.5999755859375</ele>
        <time>2015-05-03T09:23:21.000Z</time>
      </trkpt>
      <trkpt lat="39.84689217992127" lon="-6.16295968182385">
        <ele>563.0</ele>
        <time>2015-05-03T09:23:22.000Z</time>
      </trkpt>
      <trkpt lat="39.846832333132625" lon="-6.163061270490289">
        <ele>563.7999877929688</ele>
        <time>2015-05-03T09:23:27.000Z</time>
      </trkpt>
      <trkpt lat="39.84679092653096" lon="-6.163113489747047">
        <ele>565.0</ele>
        <time>2015-05-03T09:23:30.000Z</time>
      </trkpt>
      <trkpt lat="39.84673275612295" lon="-6.163215162232518">
        <ele>565.4000244140625</ele>
        <time>2015-05-03T09:23:35.000Z</time>
      </trkpt>
      <trkpt lat="39.84670945443213" lon="-6.163263274356723">
        <ele>566.4000244140625</ele>
        <time>2015-05-03T09:23:37.000Z</time>
      </trkpt>
      <trkpt lat="39.84669813886285" lon="-6.163287498056889">
        <ele>566.4000244140625</ele>
        <time>2015-05-03T09:23:38.000Z</time>
      </trkpt>
      <trkpt lat="39.84663845971227" lon="-6.163378860801458">
        <ele>567.5999755859375</ele>
        <time>2015-05-03T09:23:43.000Z</time>
      </trkpt>
      <trkpt lat="39.84658154658973" lon="-6.163537194952369">
        <ele>569.4000244140625</ele>
        <time>2015-05-03T09:23:49.000Z</time>
      </trkpt>
      <trkpt lat="39.846529411152005" lon="-6.16369460709393">
        <ele>568.5999755859375</ele>
        <time>2015-05-03T09:23:54.000Z</time>
      </trkpt>
      <trkpt lat="39.8465140722692" lon="-6.163781443610787">
        <ele>568.2000122070312</ele>
        <time>2015-05-03T09:23:56.000Z</time>
      </trkpt>
      <trkpt lat="39.84648993238807" lon="-6.163886217400432">
        <ele>568.0</ele>
        <time>2015-05-03T09:23:58.000Z</time>
      </trkpt>
      <trkpt lat="39.846452716737986" lon="-6.1640791688114405">
        <ele>567.2000122070312</ele>
        <time>2015-05-03T09:24:01.000Z</time>
      </trkpt>
      <trkpt lat="39.84642840921879" lon="-6.16422669030726">
        <ele>566.4000244140625</ele>
        <time>2015-05-03T09:24:03.000Z</time>
      </trkpt>
      <trkpt lat="39.846419943496585" lon="-6.164306569844484">
        <ele>566.2000122070312</ele>
        <time>2015-05-03T09:24:04.000Z</time>
      </trkpt>
      <trkpt lat="39.84641399234533" lon="-6.164580658078194">
        <ele>564.4000244140625</ele>
        <time>2015-05-03T09:24:07.000Z</time>
      </trkpt>
      <trkpt lat="39.84641826711595" lon="-6.164670595899224">
        <ele>562.5999755859375</ele>
        <time>2015-05-03T09:24:08.000Z</time>
      </trkpt>
      <trkpt lat="39.846424888819456" lon="-6.164788277819753">
        <ele>561.7999877929688</ele>
        <time>2015-05-03T09:24:10.000Z</time>
      </trkpt>
      <trkpt lat="39.84643419273198" lon="-6.164871342480183">
        <ele>561.7999877929688</ele>
        <time>2015-05-03T09:24:12.000Z</time>
      </trkpt>
      <trkpt lat="39.846470234915614" lon="-6.164992963895202">
        <ele>562.0</ele>
        <time>2015-05-03T09:24:15.000Z</time>
      </trkpt>
      <trkpt lat="39.84649018384516" lon="-6.165035292506218">
        <ele>562.0</ele>
        <time>2015-05-03T09:24:16.000Z</time>
      </trkpt>
      <trkpt lat="39.84651256352663" lon="-6.1650792974978685">
        <ele>561.7999877929688</ele>
        <time>2015-05-03T09:24:17.000Z</time>
      </trkpt>
      <trkpt lat="39.84664365649223" lon="-6.16532027721405">
        <ele>562.0</ele>
        <time>2015-05-03T09:24:22.000Z</time>
      </trkpt>
      <trkpt lat="39.84667123295367" lon="-6.165366712957621">
        <ele>562.2000122070312</ele>
        <time>2015-05-03T09:24:23.000Z</time>
      </trkpt>
      <trkpt lat="39.84672722406685" lon="-6.165459919720888">
        <ele>562.7999877929688</ele>
        <time>2015-05-03T09:24:25.000Z</time>
      </trkpt>
      <trkpt lat="39.84679637476802" lon="-6.16562127135694">
        <ele>563.0</ele>
        <time>2015-05-03T09:24:28.000Z</time>
      </trkpt>
      <trkpt lat="39.84683208167553" lon="-6.165736438706517">
        <ele>563.4000244140625</ele>
        <time>2015-05-03T09:24:30.000Z</time>
      </trkpt>
      <trkpt lat="39.84684675000608" lon="-6.165796117857099">
        <ele>563.4000244140625</ele>
        <time>2015-05-03T09:24:31.000Z</time>
      </trkpt>
      <trkpt lat="39.846875835210085" lon="-6.165918493643403">
        <ele>563.0</ele>
        <time>2015-05-03T09:24:33.000Z</time>
      </trkpt>
      <trkpt lat="39.84693459235132" lon="-6.166191827505827">
        <ele>562.5999755859375</ele>
        <time>2015-05-03T09:24:37.000Z</time>
      </trkpt>
      <trkpt lat="39.846965270116925" lon="-6.166345635429025">
        <ele>562.0</ele>
        <time>2015-05-03T09:24:39.000Z</time>
      </trkpt>
      <trkpt lat="39.8469871468842" lon="-6.166608491912484">
        <ele>561.2000122070312</ele>
        <time>2015-05-03T09:24:42.000Z</time>
      </trkpt>
      <trkpt lat="39.84698362648487" lon="-6.166699770838022">
        <ele>560.4000244140625</ele>
        <time>2015-05-03T09:24:43.000Z</time>
      </trkpt>
      <trkpt lat="39.84698421321809" lon="-6.166790379211307">
        <ele>559.7999877929688</ele>
        <time>2015-05-03T09:24:44.000Z</time>
      </trkpt>
      <trkpt lat="39.847003826871514" lon="-6.166972517967224">
        <ele>559.4000244140625</ele>
        <time>2015-05-03T09:24:46.000Z</time>
      </trkpt>
      <trkpt lat="39.84701631590724" lon="-6.1670648865401745">
        <ele>559.0</ele>
        <time>2015-05-03T09:24:47.000Z</time>
      </trkpt>
      <trkpt lat="39.84703299589455" lon="-6.167158177122474">
        <ele>558.5999755859375</ele>
        <time>2015-05-03T09:24:48.000Z</time>
      </trkpt>
      <trkpt lat="39.84708420932293" lon="-6.1674359533935785">
        <ele>557.5999755859375</ele>
        <time>2015-05-03T09:24:51.000Z</time>
      </trkpt>
      <trkpt lat="39.84710147604346" lon="-6.167529579252005">
        <ele>557.2000122070312</ele>
        <time>2015-05-03T09:24:52.000Z</time>
      </trkpt>
      <trkpt lat="39.847143134102225" lon="-6.167830992490053">
        <ele>555.5999755859375</ele>
        <time>2015-05-03T09:24:55.000Z</time>
      </trkpt>
      <trkpt lat="39.84714581631124" lon="-6.167937610298395">
        <ele>555.5999755859375</ele>
        <time>2015-05-03T09:24:56.000Z</time>
      </trkpt>
      <trkpt lat="39.84714522957802" lon="-6.168044982478023">
        <ele>555.0</ele>
        <time>2015-05-03T09:24:57.000Z</time>
      </trkpt>
      <trkpt lat="39.847146989777684" lon="-6.16815235465765">
        <ele>553.5999755859375</ele>
        <time>2015-05-03T09:24:58.000Z</time>
      </trkpt>
      <trkpt lat="39.84715352766216" lon="-6.168366260826588">
        <ele>553.0</ele>
        <time>2015-05-03T09:25:00.000Z</time>
      </trkpt>
      <trkpt lat="39.84716048464179" lon="-6.168472794815898">
        <ele>552.5999755859375</ele>
        <time>2015-05-03T09:25:01.000Z</time>
      </trkpt>
      <trkpt lat="39.84716107137501" lon="-6.168581256642938">
        <ele>551.7999877929688</ele>
        <time>2015-05-03T09:25:02.000Z</time>
      </trkpt>
      <trkpt lat="39.84716811217368" lon="-6.168692400678992">
        <ele>551.0</ele>
        <time>2015-05-03T09:25:03.000Z</time>
      </trkpt>
      <trkpt lat="39.84718378633261" lon="-6.168805472552776">
        <ele>549.7999877929688</ele>
        <time>2015-05-03T09:25:04.000Z</time>
      </trkpt>
      <trkpt lat="39.847203735262156" lon="-6.168918460607529">
        <ele>549.0</ele>
        <time>2015-05-03T09:25:05.000Z</time>
      </trkpt>
      <trkpt lat="39.84722435474396" lon="-6.169032286852598">
        <ele>548.4000244140625</ele>
        <time>2015-05-03T09:25:06.000Z</time>
      </trkpt>
      <trkpt lat="39.847258972004056" lon="-6.169263795018196">
        <ele>547.4000244140625</ele>
        <time>2015-05-03T09:25:08.000Z</time>
      </trkpt>
      <trkpt lat="39.84731731005013" lon="-6.169597478583455">
        <ele>546.5999755859375</ele>
        <time>2015-05-03T09:25:11.000Z</time>
      </trkpt>
      <trkpt lat="39.84736701473594" lon="-6.169785987585783">
        <ele>546.2000122070312</ele>
        <time>2015-05-03T09:25:13.000Z</time>
      </trkpt>
      <trkpt lat="39.84741177409887" lon="-6.169934179633856">
        <ele>546.5999755859375</ele>
        <time>2015-05-03T09:25:15.000Z</time>
      </trkpt>
      <trkpt lat="39.84744203276932" lon="-6.170044234022498">
        <ele>548.2000122070312</ele>
        <time>2015-05-03T09:25:17.000Z</time>
      </trkpt>
      <trkpt lat="39.84746491536498" lon="-6.170139955356717">
        <ele>549.4000244140625</ele>
        <time>2015-05-03T09:25:19.000Z</time>
      </trkpt>
      <trkpt lat="39.847475811839104" lon="-6.170183960348368">
        <ele>549.7999877929688</ele>
        <time>2015-05-03T09:25:20.000Z</time>
      </trkpt>
      <trkpt lat="39.84750313684344" lon="-6.17027347907424">
        <ele>550.4000244140625</ele>
        <time>2015-05-03T09:25:22.000Z</time>
      </trkpt>
      <trkpt lat="39.84752643853426" lon="-6.170362662523985">
        <ele>550.7999877929688</ele>
        <time>2015-05-03T09:25:24.000Z</time>
      </trkpt>
      <trkpt lat="39.84753783792257" lon="-6.1704514268785715">
        <ele>551.4000244140625</ele>
        <time>2015-05-03T09:25:26.000Z</time>
      </trkpt>
      <trkpt lat="39.84753968194127" lon="-6.17054614238441">
        <ele>551.7999877929688</ele>
        <time>2015-05-03T09:25:28.000Z</time>
      </trkpt>
      <trkpt lat="39.84754244796932" lon="-6.170647982507944">
        <ele>552.0</ele>
        <time>2015-05-03T09:25:30.000Z</time>
      </trkpt>
      <trkpt lat="39.84754705801606" lon="-6.170754013583064">
        <ele>552.4000244140625</ele>
        <time>2015-05-03T09:25:32.000Z</time>
      </trkpt>
      <trkpt lat="39.847557451575994" lon="-6.170923160389066">
        <ele>552.7999877929688</ele>
        <time>2015-05-03T09:25:35.000Z</time>
      </trkpt>
      <trkpt lat="39.84756709076464" lon="-6.171043775975704">
        <ele>552.5999755859375</ele>
        <time>2015-05-03T09:25:37.000Z</time>
      </trkpt>
      <trkpt lat="39.84756206162274" lon="-6.171234380453825">
        <ele>552.2000122070312</ele>
        <time>2015-05-03T09:25:40.000Z</time>
      </trkpt>
      <trkpt lat="39.84756491146982" lon="-6.171298502013087">
        <ele>552.4000244140625</ele>
        <time>2015-05-03T09:25:41.000Z</time>
      </trkpt>
      <trkpt lat="39.847570192068815" lon="-6.171622881665826">
        <ele>552.2000122070312</ele>
        <time>2015-05-03T09:25:46.000Z</time>
      </trkpt>
      <trkpt lat="39.847568767145276" lon="-6.171752214431763">
        <ele>552.5999755859375</ele>
        <time>2015-05-03T09:25:48.000Z</time>
      </trkpt>
      <trkpt lat="39.84755862504244" lon="-6.172259068116546">
        <ele>552.7999877929688</ele>
        <time>2015-05-03T09:25:56.000Z</time>
      </trkpt>
      <trkpt lat="39.84754705801606" lon="-6.172629715874791">
        <ele>553.5999755859375</ele>
        <time>2015-05-03T09:26:02.000Z</time>
      </trkpt>
      <trkpt lat="39.8475434537977" lon="-6.172692077234387">
        <ele>553.7999877929688</ele>
        <time>2015-05-03T09:26:03.000Z</time>
      </trkpt>
      <trkpt lat="39.847542280331254" lon="-6.172753935679793">
        <ele>553.7999877929688</ele>
        <time>2015-05-03T09:26:04.000Z</time>
      </trkpt>
      <trkpt lat="39.84754596836865" lon="-6.172921909019351">
        <ele>554.2000122070312</ele>
        <time>2015-05-03T09:26:07.000Z</time>
      </trkpt>
      <trkpt lat="39.847557032480836" lon="-6.173025174066424">
        <ele>554.5999755859375</ele>
        <time>2015-05-03T09:26:09.000Z</time>
      </trkpt>
      <trkpt lat="39.84755367971957" lon="-6.173077477142215">
        <ele>555.0</ele>
        <time>2015-05-03T09:26:10.000Z</time>
      </trkpt>
      <trkpt lat="39.84754739329219" lon="-6.173128774389625">
        <ele>555.4000244140625</ele>
        <time>2015-05-03T09:26:11.000Z</time>
      </trkpt>
      <trkpt lat="39.84754454344511" lon="-6.17317889817059">
        <ele>555.5999755859375</ele>
        <time>2015-05-03T09:26:12.000Z</time>
      </trkpt>
      <trkpt lat="39.847529623657465" lon="-6.17337629199028">
        <ele>556.4000244140625</ele>
        <time>2015-05-03T09:26:16.000Z</time>
      </trkpt>
      <trkpt lat="39.847526270896196" lon="-6.173424068838358">
        <ele>556.7999877929688</ele>
        <time>2015-05-03T09:26:17.000Z</time>
      </trkpt>
      <trkpt lat="39.84751948155463" lon="-6.173710059374571">
        <ele>558.0</ele>
        <time>2015-05-03T09:26:23.000Z</time>
      </trkpt>
      <trkpt lat="39.84750975854695" lon="-6.173935951665044">
        <ele>559.0</ele>
        <time>2015-05-03T09:26:28.000Z</time>
      </trkpt>
      <trkpt lat="39.84750850126147" lon="-6.173976603895426">
        <ele>559.2000122070312</ele>
        <time>2015-05-03T09:26:29.000Z</time>
      </trkpt>
      <trkpt lat="39.84750607050955" lon="-6.174190258607268">
        <ele>560.2000122070312</ele>
        <time>2015-05-03T09:26:34.000Z</time>
      </trkpt>
      <trkpt lat="39.847499867901206" lon="-6.174311963841319">
        <ele>560.7999877929688</ele>
        <time>2015-05-03T09:26:37.000Z</time>
      </trkpt>
      <trkpt lat="39.84749609604478" lon="-6.174396453425288">
        <ele>561.4000244140625</ele>
        <time>2015-05-03T09:26:39.000Z</time>
      </trkpt>
      <trkpt lat="39.8474863730371" lon="-6.174565432593226">
        <ele>562.4000244140625</ele>
        <time>2015-05-03T09:26:43.000Z</time>
      </trkpt>
      <trkpt lat="39.847485199570656" lon="-6.174909006804228">
        <ele>562.7999877929688</ele>
        <time>2015-05-03T09:26:50.000Z</time>
      </trkpt>
      <trkpt lat="39.84748100861907" lon="-6.17515585385263">
        <ele>562.7999877929688</ele>
        <time>2015-05-03T09:26:54.000Z</time>
      </trkpt>
      <trkpt lat="39.84747966751456" lon="-6.175226513296366">
        <ele>562.7999877929688</ele>
        <time>2015-05-03T09:26:55.000Z</time>
      </trkpt>
      <trkpt lat="39.847441697493196" lon="-6.1756733525544405">
        <ele>561.5999755859375</ele>
        <time>2015-05-03T09:27:01.000Z</time>
      </trkpt>
      <trkpt lat="39.84742677770555" lon="-6.175840152427554">
        <ele>561.4000244140625</ele>
        <time>2015-05-03T09:27:03.000Z</time>
      </trkpt>
      <trkpt lat="39.84741169027984" lon="-6.176023380830884">
        <ele>559.7999877929688</ele>
        <time>2015-05-03T09:27:05.000Z</time>
      </trkpt>
      <trkpt lat="39.847402134910226" lon="-6.176121952012181">
        <ele>559.2000122070312</ele>
        <time>2015-05-03T09:27:06.000Z</time>
      </trkpt>
      <trkpt lat="39.8473946750164" lon="-6.176221864297986">
        <ele>558.5999755859375</ele>
        <time>2015-05-03T09:27:07.000Z</time>
      </trkpt>
      <trkpt lat="39.84737397171557" lon="-6.176423029974103">
        <ele>557.5999755859375</ele>
        <time>2015-05-03T09:27:09.000Z</time>
      </trkpt>
      <trkpt lat="39.84736165031791" lon="-6.176627296954393">
        <ele>557.2000122070312</ele>
        <time>2015-05-03T09:27:11.000Z</time>
      </trkpt>
      <trkpt lat="39.847353771328926" lon="-6.176830222830176">
        <ele>556.2000122070312</ele>
        <time>2015-05-03T09:27:13.000Z</time>
      </trkpt>
      <trkpt lat="39.84735997393727" lon="-6.17693692445755">
        <ele>555.7999877929688</ele>
        <time>2015-05-03T09:27:14.000Z</time>
      </trkpt>
      <trkpt lat="39.847372714430094" lon="-6.177046811208129">
        <ele>555.0</ele>
        <time>2015-05-03T09:27:15.000Z</time>
      </trkpt>
      <trkpt lat="39.84739190898836" lon="-6.1771556083112955">
        <ele>554.4000244140625</ele>
        <time>2015-05-03T09:27:16.000Z</time>
      </trkpt>
      <trkpt lat="39.84740909188986" lon="-6.177265830338001">
        <ele>554.0</ele>
        <time>2015-05-03T09:27:17.000Z</time>
      </trkpt>
      <trkpt lat="39.84742392785847" lon="-6.177369765937328">
        <ele>553.7999877929688</ele>
        <time>2015-05-03T09:27:18.000Z</time>
      </trkpt>
      <trkpt lat="39.84746038913727" lon="-6.177550898864865">
        <ele>553.7999877929688</ele>
        <time>2015-05-03T09:27:20.000Z</time>
      </trkpt>
      <trkpt lat="39.84752953983843" lon="-6.17782523855567">
        <ele>555.2000122070312</ele>
        <time>2015-05-03T09:27:24.000Z</time>
      </trkpt>
      <trkpt lat="39.847562313079834" lon="-6.177953062579036">
        <ele>556.5999755859375</ele>
        <time>2015-05-03T09:27:27.000Z</time>
      </trkpt>
      <trkpt lat="39.847567761316895" lon="-6.177989020943642">
        <ele>557.2000122070312</ele>
        <time>2015-05-03T09:27:28.000Z</time>
      </trkpt>
      <trkpt lat="39.847584776580334" lon="-6.178055657073855">
        <ele>558.0</ele>
        <time>2015-05-03T09:27:30.000Z</time>
      </trkpt>
      <trkpt lat="39.84761293977499" lon="-6.178135368973017">
        <ele>559.2000122070312</ele>
        <time>2015-05-03T09:27:33.000Z</time>
      </trkpt>
      <trkpt lat="39.847617549821734" lon="-6.178161101415753">
        <ele>559.2000122070312</ele>
        <time>2015-05-03T09:27:34.000Z</time>
      </trkpt>
      <trkpt lat="39.84761981293559" lon="-6.178287584334612">
        <ele>560.4000244140625</ele>
        <time>2015-05-03T09:27:38.000Z</time>
      </trkpt>
      <trkpt lat="39.847617549821734" lon="-6.178322369232774">
        <ele>560.7999877929688</ele>
        <time>2015-05-03T09:27:39.000Z</time>
      </trkpt>
      <trkpt lat="39.84761159867048" lon="-6.178467879071832">
        <ele>561.5999755859375</ele>
        <time>2015-05-03T09:27:43.000Z</time>
      </trkpt>
      <trkpt lat="39.847603887319565" lon="-6.178576676174998">
        <ele>562.0</ele>
        <time>2015-05-03T09:27:46.000Z</time>
      </trkpt>
      <trkpt lat="39.847582932561636" lon="-6.178764849901199">
        <ele>562.7999877929688</ele>
        <time>2015-05-03T09:27:51.000Z</time>
      </trkpt>
      <trkpt lat="39.8475622292608" lon="-6.178912790492177">
        <ele>563.4000244140625</ele>
        <time>2015-05-03T09:27:55.000Z</time>
      </trkpt>
      <trkpt lat="39.84754454344511" lon="-6.178979761898518">
        <ele>564.0</ele>
        <time>2015-05-03T09:27:57.000Z</time>
      </trkpt>
      <trkpt lat="39.84749760478735" lon="-6.1792227532714605">
        <ele>565.2000122070312</ele>
        <time>2015-05-03T09:28:04.000Z</time>
      </trkpt>
      <trkpt lat="39.84749358147383" lon="-6.179255694150925">
        <ele>565.5999755859375</ele>
        <time>2015-05-03T09:28:05.000Z</time>
      </trkpt>
      <trkpt lat="39.847460305318236" lon="-6.179475970566273">
        <ele>565.7999877929688</ele>
        <time>2015-05-03T09:28:11.000Z</time>
      </trkpt>
      <trkpt lat="39.84743348322809" lon="-6.179694151505828">
        <ele>566.2000122070312</ele>
        <time>2015-05-03T09:28:16.000Z</time>
      </trkpt>
      <trkpt lat="39.84743071720004" lon="-6.179748801514506">
        <ele>566.2000122070312</ele>
        <time>2015-05-03T09:28:17.000Z</time>
      </trkpt>
      <trkpt lat="39.84741244465113" lon="-6.180070079863071">
        <ele>565.4000244140625</ele>
        <time>2015-05-03T09:28:22.000Z</time>
      </trkpt>
      <trkpt lat="39.84740674495697" lon="-6.180141493678093">
        <ele>565.2000122070312</ele>
        <time>2015-05-03T09:28:23.000Z</time>
      </trkpt>
      <trkpt lat="39.84740716405213" lon="-6.18021659553051">
        <ele>565.0</ele>
        <time>2015-05-03T09:28:24.000Z</time>
      </trkpt>
      <trkpt lat="39.84739392064512" lon="-6.180447852239013">
        <ele>564.4000244140625</ele>
        <time>2015-05-03T09:28:27.000Z</time>
      </trkpt>
      <trkpt lat="39.84738562256098" lon="-6.180532677099109">
        <ele>564.2000122070312</ele>
        <time>2015-05-03T09:28:28.000Z</time>
      </trkpt>
      <trkpt lat="39.84735452570021" lon="-6.180884130299091">
        <ele>562.7999877929688</ele>
        <time>2015-05-03T09:28:32.000Z</time>
      </trkpt>
      <trkpt lat="39.84734765253961" lon="-6.180967949330807">
        <ele>562.5999755859375</ele>
        <time>2015-05-03T09:28:33.000Z</time>
      </trkpt>
      <trkpt lat="39.84733298420906" lon="-6.181138269603252">
        <ele>562.2000122070312</ele>
        <time>2015-05-03T09:28:35.000Z</time>
      </trkpt>
      <trkpt lat="39.84732661396265" lon="-6.181223094463348">
        <ele>561.7999877929688</ele>
        <time>2015-05-03T09:28:36.000Z</time>
      </trkpt>
      <trkpt lat="39.84731202945113" lon="-6.181479832157493">
        <ele>560.5999755859375</ele>
        <time>2015-05-03T09:28:39.000Z</time>
      </trkpt>
      <trkpt lat="39.84730331227183" lon="-6.181562896817923">
        <ele>560.4000244140625</ele>
        <time>2015-05-03T09:28:40.000Z</time>
      </trkpt>
      <trkpt lat="39.847303815186024" lon="-6.181644955649972">
        <ele>560.4000244140625</ele>
        <time>2015-05-03T09:28:41.000Z</time>
      </trkpt>
      <trkpt lat="39.84729937277734" lon="-6.181877637282014">
        <ele>560.7999877929688</ele>
        <time>2015-05-03T09:28:44.000Z</time>
      </trkpt>
      <trkpt lat="39.847280848771334" lon="-6.182158179581165">
        <ele>561.7999877929688</ele>
        <time>2015-05-03T09:28:48.000Z</time>
      </trkpt>
      <trkpt lat="39.84727724455297" lon="-6.182280974462628">
        <ele>562.5999755859375</ele>
        <time>2015-05-03T09:28:50.000Z</time>
      </trkpt>
      <trkpt lat="39.847280429676175" lon="-6.182341743260622">
        <ele>562.5999755859375</ele>
        <time>2015-05-03T09:28:51.000Z</time>
      </trkpt>
      <trkpt lat="39.84728545881808" lon="-6.182643994688988">
        <ele>562.4000244140625</ele>
        <time>2015-05-03T09:28:56.000Z</time>
      </trkpt>
      <trkpt lat="39.847285794094205" lon="-6.182761006057262">
        <ele>562.4000244140625</ele>
        <time>2015-05-03T09:28:58.000Z</time>
      </trkpt>
      <trkpt lat="39.84726324677467" lon="-6.182945994660258">
        <ele>562.7999877929688</ele>
        <time>2015-05-03T09:29:01.000Z</time>
      </trkpt>
      <trkpt lat="39.847255451604724" lon="-6.1829910054802895">
        <ele>563.4000244140625</ele>
        <time>2015-05-03T09:29:02.000Z</time>
      </trkpt>
      <trkpt lat="39.84723675996065" lon="-6.1830987967550755">
        <ele>564.2000122070312</ele>
        <time>2015-05-03T09:29:04.000Z</time>
      </trkpt>
      <trkpt lat="39.847242292016745" lon="-6.18320751003921">
        <ele>564.4000244140625</ele>
        <time>2015-05-03T09:29:06.000Z</time>
      </trkpt>
      <trkpt lat="39.847243800759315" lon="-6.183259142562747">
        <ele>564.4000244140625</ele>
        <time>2015-05-03T09:29:07.000Z</time>
      </trkpt>
      <trkpt lat="39.847235418856144" lon="-6.183414291590452">
        <ele>565.4000244140625</ele>
        <time>2015-05-03T09:29:10.000Z</time>
      </trkpt>
      <trkpt lat="39.847219409421086" lon="-6.183620737865567">
        <ele>566.0</ele>
        <time>2015-05-03T09:29:14.000Z</time>
      </trkpt>
      <trkpt lat="39.84720935113728" lon="-6.183832380920649">
        <ele>566.5999755859375</ele>
        <time>2015-05-03T09:29:18.000Z</time>
      </trkpt>
      <trkpt lat="39.84721220098436" lon="-6.183935394510627">
        <ele>567.0</ele>
        <time>2015-05-03T09:29:20.000Z</time>
      </trkpt>
      <trkpt lat="39.84715805388987" lon="-6.1842907872051">
        <ele>567.5999755859375</ele>
        <time>2015-05-03T09:29:27.000Z</time>
      </trkpt>
      <trkpt lat="39.847144056111574" lon="-6.184526151046157">
        <ele>568.7999877929688</ele>
        <time>2015-05-03T09:29:32.000Z</time>
      </trkpt>
      <trkpt lat="39.84711354598403" lon="-6.1848328448832035">
        <ele>569.4000244140625</ele>
        <time>2015-05-03T09:29:38.000Z</time>
      </trkpt>
      <trkpt lat="39.84709653072059" lon="-6.184943988919258">
        <ele>569.7999877929688</ele>
        <time>2015-05-03T09:29:40.000Z</time>
      </trkpt>
      <trkpt lat="39.84707364812493" lon="-6.185124535113573">
        <ele>569.5999755859375</ele>
        <time>2015-05-03T09:29:43.000Z</time>
      </trkpt>
      <trkpt lat="39.84706434421241" lon="-6.185185303911567">
        <ele>569.7999877929688</ele>
        <time>2015-05-03T09:29:44.000Z</time>
      </trkpt>
      <trkpt lat="39.847025871276855" lon="-6.185573134571314">
        <ele>570.0</ele>
        <time>2015-05-03T09:29:50.000Z</time>
      </trkpt>
      <trkpt lat="39.84698354266584" lon="-6.185933304950595">
        <ele>569.2000122070312</ele>
        <time>2015-05-03T09:29:55.000Z</time>
      </trkpt>
      <trkpt lat="39.846978429704905" lon="-6.186014525592327">
        <ele>568.7999877929688</ele>
        <time>2015-05-03T09:29:56.000Z</time>
      </trkpt>
      <trkpt lat="39.84695269726217" lon="-6.186263635754585">
        <ele>567.5999755859375</ele>
        <time>2015-05-03T09:29:59.000Z</time>
      </trkpt>
      <trkpt lat="39.846934927627444" lon="-6.186519451439381">
        <ele>567.2000122070312</ele>
        <time>2015-05-03T09:30:03.000Z</time>
      </trkpt>
      <trkpt lat="39.84693065285683" lon="-6.186603773385286">
        <ele>567.4000244140625</ele>
        <time>2015-05-03T09:30:04.000Z</time>
      </trkpt>
      <trkpt lat="39.8468613345176" lon="-6.187083385884762">
        <ele>567.5999755859375</ele>
        <time>2015-05-03T09:30:10.000Z</time>
      </trkpt>
      <trkpt lat="39.84685119241476" lon="-6.1872299015522">
        <ele>568.2000122070312</ele>
        <time>2015-05-03T09:30:12.000Z</time>
      </trkpt>
      <trkpt lat="39.84685521572828" lon="-6.187372813001275">
        <ele>568.5999755859375</ele>
        <time>2015-05-03T09:30:14.000Z</time>
      </trkpt>
      <trkpt lat="39.84685161150992" lon="-6.18744489736855">
        <ele>568.5999755859375</ele>
        <time>2015-05-03T09:30:15.000Z</time>
      </trkpt>
      <trkpt lat="39.84681489877403" lon="-6.187730887904763">
        <ele>568.7999877929688</ele>
        <time>2015-05-03T09:30:19.000Z</time>
      </trkpt>
      <trkpt lat="39.84679344110191" lon="-6.1879569478333">
        <ele>568.7999877929688</ele>
        <time>2015-05-03T09:30:22.000Z</time>
      </trkpt>
      <trkpt lat="39.84676812775433" lon="-6.188272777944803">
        <ele>568.2000122070312</ele>
        <time>2015-05-03T09:30:26.000Z</time>
      </trkpt>
      <trkpt lat="39.8467352706939" lon="-6.188942575827241">
        <ele>569.0</ele>
        <time>2015-05-03T09:30:35.000Z</time>
      </trkpt>
      <trkpt lat="39.8467318341136" lon="-6.189134940505028">
        <ele>569.7999877929688</ele>
        <time>2015-05-03T09:30:38.000Z</time>
      </trkpt>
      <trkpt lat="39.846727810800076" lon="-6.189321605488658">
        <ele>570.5999755859375</ele>
        <time>2015-05-03T09:30:41.000Z</time>
      </trkpt>
      <trkpt lat="39.84672512859106" lon="-6.189506342634559">
        <ele>570.5999755859375</ele>
        <time>2015-05-03T09:30:44.000Z</time>
      </trkpt>
      <trkpt lat="39.846714651212096" lon="-6.1896206717938185">
        <ele>571.2000122070312</ele>
        <time>2015-05-03T09:30:46.000Z</time>
      </trkpt>
      <trkpt lat="39.84670802950859" lon="-6.189737180247903">
        <ele>571.5999755859375</ele>
        <time>2015-05-03T09:30:48.000Z</time>
      </trkpt>
      <trkpt lat="39.84669629484415" lon="-6.189960306510329">
        <ele>572.4000244140625</ele>
        <time>2015-05-03T09:30:52.000Z</time>
      </trkpt>
      <trkpt lat="39.84668833203614" lon="-6.190134063363075">
        <ele>572.5999755859375</ele>
        <time>2015-05-03T09:30:55.000Z</time>
      </trkpt>
      <trkpt lat="39.846685230731964" lon="-6.190306395292282">
        <ele>573.4000244140625</ele>
        <time>2015-05-03T09:30:58.000Z</time>
      </trkpt>
      <trkpt lat="39.84666595235467" lon="-6.190480403602123">
        <ele>573.5999755859375</ele>
        <time>2015-05-03T09:31:01.000Z</time>
      </trkpt>
      <trkpt lat="39.846659330651164" lon="-6.190540920943022">
        <ele>573.5999755859375</ele>
        <time>2015-05-03T09:31:02.000Z</time>
      </trkpt>
      <trkpt lat="39.846650110557675" lon="-6.190603701397777">
        <ele>573.5999755859375</ele>
        <time>2015-05-03T09:31:03.000Z</time>
      </trkpt>
      <trkpt lat="39.8466142360121" lon="-6.190900923684239">
        <ele>573.7999877929688</ele>
        <time>2015-05-03T09:31:08.000Z</time>
      </trkpt>
      <trkpt lat="39.84660878777504" lon="-6.190962614491582">
        <ele>574.2000122070312</ele>
        <time>2015-05-03T09:31:09.000Z</time>
      </trkpt>
      <trkpt lat="39.84659965150058" lon="-6.191079458221793">
        <ele>574.5999755859375</ele>
        <time>2015-05-03T09:31:11.000Z</time>
      </trkpt>
      <trkpt lat="39.84658054076135" lon="-6.191254053264856">
        <ele>574.7999877929688</ele>
        <time>2015-05-03T09:31:14.000Z</time>
      </trkpt>
      <trkpt lat="39.846565620973706" lon="-6.191360419616103">
        <ele>575.4000244140625</ele>
        <time>2015-05-03T09:31:16.000Z</time>
      </trkpt>
      <trkpt lat="39.84655698761344" lon="-6.191413979977369">
        <ele>575.5999755859375</ele>
        <time>2015-05-03T09:31:17.000Z</time>
      </trkpt>
      <trkpt lat="39.84652220271528" lon="-6.1916299816221">
        <ele>576.0</ele>
        <time>2015-05-03T09:31:21.000Z</time>
      </trkpt>
      <trkpt lat="39.84649982303381" lon="-6.191785801202059">
        <ele>577.0</ele>
        <time>2015-05-03T09:31:24.000Z</time>
      </trkpt>
      <trkpt lat="39.846471240743995" lon="-6.191933238878846">
        <ele>577.7999877929688</ele>
        <time>2015-05-03T09:31:27.000Z</time>
      </trkpt>
      <trkpt lat="39.84642748720944" lon="-6.191992415115237">
        <ele>578.4000244140625</ele>
        <time>2015-05-03T09:31:29.000Z</time>
      </trkpt>
      <trkpt lat="39.8463983181864" lon="-6.191997695714235">
        <ele>578.5999755859375</ele>
        <time>2015-05-03T09:31:30.000Z</time>
      </trkpt>
      <trkpt lat="39.84621601179242" lon="-6.191958636045456">
        <ele>577.5999755859375</ele>
        <time>2015-05-03T09:31:35.000Z</time>
      </trkpt>
      <trkpt lat="39.84616471454501" lon="-6.191942961886525">
        <ele>577.2000122070312</ele>
        <time>2015-05-03T09:31:36.000Z</time>
      </trkpt>
      <trkpt lat="39.846106711775064" lon="-6.191920498386025">
        <ele>576.2000122070312</ele>
        <time>2015-05-03T09:31:37.000Z</time>
      </trkpt>
      <trkpt lat="39.84597612172365" lon="-6.191879762336612">
        <ele>574.5999755859375</ele>
        <time>2015-05-03T09:31:39.000Z</time>
      </trkpt>
      <trkpt lat="39.845905881375074" lon="-6.191865932196379">
        <ele>573.4000244140625</ele>
        <time>2015-05-03T09:31:40.000Z</time>
      </trkpt>
      <trkpt lat="39.845835054293275" lon="-6.191853107884526">
        <ele>570.4000244140625</ele>
        <time>2015-05-03T09:31:41.000Z</time>
      </trkpt>
      <trkpt lat="39.845764143392444" lon="-6.191834500059485">
        <ele>569.4000244140625</ele>
        <time>2015-05-03T09:31:42.000Z</time>
      </trkpt>
      <trkpt lat="39.8456059768796" lon="-6.19178781285882">
        <ele>566.5999755859375</ele>
        <time>2015-05-03T09:31:44.000Z</time>
      </trkpt>
      <trkpt lat="39.84551670961082" lon="-6.191759565845132">
        <ele>564.7999877929688</ele>
        <time>2015-05-03T09:31:45.000Z</time>
      </trkpt>
      <trkpt lat="39.845424173399806" lon="-6.191731821745634">
        <ele>562.7999877929688</ele>
        <time>2015-05-03T09:31:46.000Z</time>
      </trkpt>
      <trkpt lat="39.845331721007824" lon="-6.1917107831686735">
        <ele>561.7999877929688</ele>
        <time>2015-05-03T09:31:47.000Z</time>
      </trkpt>
      <trkpt lat="39.845146145671606" lon="-6.191671220585704">
        <ele>559.4000244140625</ele>
        <time>2015-05-03T09:31:49.000Z</time>
      </trkpt>
      <trkpt lat="39.84504371881485" lon="-6.191649595275521">
        <ele>557.7999877929688</ele>
        <time>2015-05-03T09:31:50.000Z</time>
      </trkpt>
      <trkpt lat="39.84493911266327" lon="-6.191626377403736">
        <ele>556.4000244140625</ele>
        <time>2015-05-03T09:31:51.000Z</time>
      </trkpt>
      <trkpt lat="39.84483752399683" lon="-6.191600812599063">
        <ele>555.4000244140625</ele>
        <time>2015-05-03T09:31:52.000Z</time>
      </trkpt>
      <trkpt lat="39.844740461558104" lon="-6.191577930003405">
        <ele>555.0</ele>
        <time>2015-05-03T09:31:53.000Z</time>
      </trkpt>
      <trkpt lat="39.84453267417848" lon="-6.191527806222439">
        <ele>556.2000122070312</ele>
        <time>2015-05-03T09:31:56.000Z</time>
      </trkpt>
      <trkpt lat="39.844497721642256" lon="-6.1915231961756945">
        <ele>557.7999877929688</ele>
        <time>2015-05-03T09:31:57.000Z</time>
      </trkpt>
      <trkpt lat="39.84446721151471" lon="-6.191519759595394">
        <ele>558.7999877929688</ele>
        <time>2015-05-03T09:31:58.000Z</time>
      </trkpt>
      <trkpt lat="39.84440837055445" lon="-6.1915134731680155">
        <ele>560.4000244140625</ele>
        <time>2015-05-03T09:32:00.000Z</time>
      </trkpt>
      <trkpt lat="39.84438213519752" lon="-6.191504588350654">
        <ele>561.0</ele>
        <time>2015-05-03T09:32:01.000Z</time>
      </trkpt>
      <trkpt lat="39.8443522118032" lon="-6.191494697704911">
        <ele>561.7999877929688</ele>
        <time>2015-05-03T09:32:02.000Z</time>
      </trkpt>
      <trkpt lat="39.8442761041224" lon="-6.1914825439453125">
        <ele>563.0</ele>
        <time>2015-05-03T09:32:04.000Z</time>
      </trkpt>
      <trkpt lat="39.84423561953008" lon="-6.1914757546037436">
        <ele>563.7999877929688</ele>
        <time>2015-05-03T09:32:06.000Z</time>
      </trkpt>
      <trkpt lat="39.844205025583506" lon="-6.191470641642809">
        <ele>564.2000122070312</ele>
        <time>2015-05-03T09:32:07.000Z</time>
      </trkpt>
      <trkpt lat="39.844144424423575" lon="-6.191454716026783">
        <ele>565.0</ele>
        <time>2015-05-03T09:32:09.000Z</time>
      </trkpt>
      <trkpt lat="39.84411047771573" lon="-6.191447423771024">
        <ele>565.2000122070312</ele>
        <time>2015-05-03T09:32:10.000Z</time>
      </trkpt>
      <trkpt lat="39.844077453017235" lon="-6.191442562267184">
        <ele>565.2000122070312</ele>
        <time>2015-05-03T09:32:11.000Z</time>
      </trkpt>
      <trkpt lat="39.84394686296582" lon="-6.191419092938304">
        <ele>566.0</ele>
        <time>2015-05-03T09:32:15.000Z</time>
      </trkpt>
      <trkpt lat="39.843913754448295" lon="-6.191413225606084">
        <ele>566.2000122070312</ele>
        <time>2015-05-03T09:32:16.000Z</time>
      </trkpt>
      <trkpt lat="39.84382557682693" lon="-6.191398724913597">
        <ele>566.5999755859375</ele>
        <time>2015-05-03T09:32:19.000Z</time>
      </trkpt>
      <trkpt lat="39.84373521991074" lon="-6.191387576982379">
        <ele>567.2000122070312</ele>
        <time>2015-05-03T09:32:22.000Z</time>
      </trkpt>
      <trkpt lat="39.843651819974184" lon="-6.191373495385051">
        <ele>567.2000122070312</ele>
        <time>2015-05-03T09:32:25.000Z</time>
      </trkpt>
      <trkpt lat="39.84362902119756" lon="-6.191359413787723">
        <ele>567.2000122070312</ele>
        <time>2015-05-03T09:32:26.000Z</time>
      </trkpt>
      <trkpt lat="39.84360127709806" lon="-6.191267129033804">
        <ele>567.2000122070312</ele>
        <time>2015-05-03T09:32:29.000Z</time>
      </trkpt>
      <trkpt lat="39.8436008580029" lon="-6.191204683855176">
        <ele>566.5999755859375</ele>
        <time>2015-05-03T09:32:30.000Z</time>
      </trkpt>
      <trkpt lat="39.84360437840223" lon="-6.1911291629076">
        <ele>564.7999877929688</ele>
        <time>2015-05-03T09:32:31.000Z</time>
      </trkpt>
      <trkpt lat="39.84361024573445" lon="-6.19103729724884">
        <ele>563.2000122070312</ele>
        <time>2015-05-03T09:32:32.000Z</time>
      </trkpt>
      <trkpt lat="39.84362181276083" lon="-6.190932020545006">
        <ele>561.7999877929688</ele>
        <time>2015-05-03T09:32:33.000Z</time>
      </trkpt>
      <trkpt lat="39.843644024804235" lon="-6.190827246755362">
        <ele>560.7999877929688</ele>
        <time>2015-05-03T09:32:34.000Z</time>
      </trkpt>
      <trkpt lat="39.843665063381195" lon="-6.190717946738005">
        <ele>560.2000122070312</ele>
        <time>2015-05-03T09:32:35.000Z</time>
      </trkpt>
      <trkpt lat="39.8437028657645" lon="-6.190509237349033">
        <ele>559.0</ele>
        <time>2015-05-03T09:32:37.000Z</time>
      </trkpt>
      <trkpt lat="39.84369959682226" lon="-6.190316034480929">
        <ele>558.5999755859375</ele>
        <time>2015-05-03T09:32:39.000Z</time>
      </trkpt>
      <trkpt lat="39.843691885471344" lon="-6.190151162445545">
        <ele>558.5999755859375</ele>
        <time>2015-05-03T09:32:41.000Z</time>
      </trkpt>
      <trkpt lat="39.84369062818587" lon="-6.190083604305983">
        <ele>558.7999877929688</ele>
        <time>2015-05-03T09:32:42.000Z</time>
      </trkpt>
      <trkpt lat="39.84368526376784" lon="-6.190025769174099">
        <ele>559.2000122070312</ele>
        <time>2015-05-03T09:32:43.000Z</time>
      </trkpt>
      <trkpt lat="39.84367663040757" lon="-6.189887803047895">
        <ele>560.4000244140625</ele>
        <time>2015-05-03T09:32:46.000Z</time>
      </trkpt>
      <trkpt lat="39.843666069209576" lon="-6.1898203287273645">
        <ele>561.2000122070312</ele>
        <time>2015-05-03T09:32:48.000Z</time>
      </trkpt>
      <trkpt lat="39.8436560947448" lon="-6.1897950153797865">
        <ele>561.7999877929688</ele>
        <time>2015-05-03T09:32:49.000Z</time>
      </trkpt>
      <trkpt lat="39.84360035508871" lon="-6.189695103093982">
        <ele>562.7999877929688</ele>
        <time>2015-05-03T09:32:53.000Z</time>
      </trkpt>
      <trkpt lat="39.843545285984874" lon="-6.189643805846572">
        <ele>563.7999877929688</ele>
        <time>2015-05-03T09:32:56.000Z</time>
      </trkpt>
      <trkpt lat="39.84352173283696" lon="-6.189636429771781">
        <ele>564.0</ele>
        <time>2015-05-03T09:32:57.000Z</time>
      </trkpt>
      <trkpt lat="39.843498934060335" lon="-6.189628969877958">
        <ele>564.2000122070312</ele>
        <time>2015-05-03T09:32:58.000Z</time>
      </trkpt>
      <trkpt lat="39.843398770317435" lon="-6.1896097753196955">
        <ele>564.7999877929688</ele>
        <time>2015-05-03T09:33:02.000Z</time>
      </trkpt>
      <trkpt lat="39.84335015527904" lon="-6.189602734521031">
        <ele>565.2000122070312</ele>
        <time>2015-05-03T09:33:04.000Z</time>
      </trkpt>
      <trkpt lat="39.843263402581215" lon="-6.189585635438561">
        <ele>565.7999877929688</ele>
        <time>2015-05-03T09:33:08.000Z</time>
      </trkpt>
      <trkpt lat="39.84319366514683" lon="-6.1895661894232035">
        <ele>566.4000244140625</ele>
        <time>2015-05-03T09:33:11.000Z</time>
      </trkpt>
      <trkpt lat="39.84307489357889" lon="-6.189558310434222">
        <ele>567.2000122070312</ele>
        <time>2015-05-03T09:33:16.000Z</time>
      </trkpt>
      <trkpt lat="39.84305025078356" lon="-6.189555209130049">
        <ele>567.4000244140625</ele>
        <time>2015-05-03T09:33:17.000Z</time>
      </trkpt>
      <trkpt lat="39.84290365129709" lon="-6.189503325149417">
        <ele>568.0</ele>
        <time>2015-05-03T09:33:23.000Z</time>
      </trkpt>
      <trkpt lat="39.842799212783575" lon="-6.189372651278973">
        <ele>568.4000244140625</ele>
        <time>2015-05-03T09:33:29.000Z</time>
      </trkpt>
      <trkpt lat="39.84278932213783" lon="-6.189340045675635">
        <ele>568.5999755859375</ele>
        <time>2015-05-03T09:33:30.000Z</time>
      </trkpt>
      <trkpt lat="39.842767445370555" lon="-6.189160170033574">
        <ele>570.0</ele>
        <time>2015-05-03T09:33:35.000Z</time>
      </trkpt>
      <trkpt lat="39.842767445370555" lon="-6.189066963270307">
        <ele>571.4000244140625</ele>
        <time>2015-05-03T09:33:38.000Z</time>
      </trkpt>
      <trkpt lat="39.84277406707406" lon="-6.188977276906371">
        <ele>572.2000122070312</ele>
        <time>2015-05-03T09:33:41.000Z</time>
      </trkpt>
      <trkpt lat="39.842779180034995" lon="-6.188948191702366">
        <ele>572.4000244140625</ele>
        <time>2015-05-03T09:33:42.000Z</time>
      </trkpt>
      <trkpt lat="39.84278856776655" lon="-6.188834281638265">
        <ele>573.4000244140625</ele>
        <time>2015-05-03T09:33:46.000Z</time>
      </trkpt>
      <trkpt lat="39.84278270043433" lon="-6.188803939148784">
        <ele>573.5999755859375</ele>
        <time>2015-05-03T09:33:47.000Z</time>
      </trkpt>
      <trkpt lat="39.84276786446571" lon="-6.188776697963476">
        <ele>573.7999877929688</ele>
        <time>2015-05-03T09:33:48.000Z</time>
      </trkpt>
      <trkpt lat="39.842722015455365" lon="-6.188704026862979">
        <ele>574.4000244140625</ele>
        <time>2015-05-03T09:33:51.000Z</time>
      </trkpt>
      <trkpt lat="39.84265764243901" lon="-6.188623644411564">
        <ele>574.7999877929688</ele>
        <time>2015-05-03T09:33:55.000Z</time>
      </trkpt>
      <trkpt lat="39.84264213591814" lon="-6.188601097092032">
        <ele>574.7999877929688</ele>
        <time>2015-05-03T09:33:56.000Z</time>
      </trkpt>
      <trkpt lat="39.84252696856856" lon="-6.18848567828536">
        <ele>575.5999755859375</ele>
        <time>2015-05-03T09:34:02.000Z</time>
      </trkpt>
      <trkpt lat="39.84250986948609" lon="-6.188466148450971">
        <ele>575.7999877929688</ele>
        <time>2015-05-03T09:34:03.000Z</time>
      </trkpt>
      <trkpt lat="39.84243334271014" lon="-6.188409822061658">
        <ele>576.7999877929688</ele>
        <time>2015-05-03T09:34:06.000Z</time>
      </trkpt>
      <trkpt lat="39.84242353588343" lon="-6.188400266692042">
        <ele>576.7999877929688</ele>
        <time>2015-05-03T09:34:07.000Z</time>
      </trkpt>
      <trkpt lat="39.84232068993151" lon="-6.188333798199892">
        <ele>578.0</ele>
        <time>2015-05-03T09:34:12.000Z</time>
      </trkpt>
      <trkpt lat="39.84225799329579" lon="-6.1882933136075735">
        <ele>578.7999877929688</ele>
        <time>2015-05-03T09:34:15.000Z</time>
      </trkpt>
      <trkpt lat="39.8422212805599" lon="-6.1882685869932175">
        <ele>579.4000244140625</ele>
        <time>2015-05-03T09:34:17.000Z</time>
      </trkpt>
      <trkpt lat="39.84214190393686" lon="-6.188230449333787">
        <ele>580.5999755859375</ele>
        <time>2015-05-03T09:34:21.000Z</time>
      </trkpt>
      <trkpt lat="39.84205833636224" lon="-6.188196083530784">
        <ele>582.0</ele>
        <time>2015-05-03T09:34:25.000Z</time>
      </trkpt>
      <trkpt lat="39.842000249773264" lon="-6.188170183449984">
        <ele>583.0</ele>
        <time>2015-05-03T09:34:28.000Z</time>
      </trkpt>
      <trkpt lat="39.84197795391083" lon="-6.188160628080368">
        <ele>583.2000122070312</ele>
        <time>2015-05-03T09:34:29.000Z</time>
      </trkpt>
      <trkpt lat="39.84189069829881" lon="-6.188100781291723">
        <ele>584.2000122070312</ele>
        <time>2015-05-03T09:34:34.000Z</time>
      </trkpt>
      <trkpt lat="39.84180553816259" lon="-6.187976645305753">
        <ele>585.4000244140625</ele>
        <time>2015-05-03T09:34:40.000Z</time>
      </trkpt>
      <trkpt lat="39.84175809659064" lon="-6.187799451872706">
        <ele>585.7999877929688</ele>
        <time>2015-05-03T09:34:46.000Z</time>
      </trkpt>
      <trkpt lat="39.84175189398229" lon="-6.18773901835084">
        <ele>586.5999755859375</ele>
        <time>2015-05-03T09:34:48.000Z</time>
      </trkpt>
      <trkpt lat="39.84176790341735" lon="-6.187637932598591">
        <ele>587.0</ele>
        <time>2015-05-03T09:34:51.000Z</time>
      </trkpt>
      <trkpt lat="39.841806292533875" lon="-6.187510024756193">
        <ele>587.7999877929688</ele>
        <time>2015-05-03T09:34:55.000Z</time>
      </trkpt>
      <trkpt lat="39.8418153449893" lon="-6.187470881268382">
        <ele>587.7999877929688</ele>
        <time>2015-05-03T09:34:56.000Z</time>
      </trkpt>
      <trkpt lat="39.841852225363255" lon="-6.18724700063467">
        <ele>588.5999755859375</ele>
        <time>2015-05-03T09:35:02.000Z</time>
      </trkpt>
      <trkpt lat="39.841862032189965" lon="-6.187213892117143">
        <ele>588.7999877929688</ele>
        <time>2015-05-03T09:35:03.000Z</time>
      </trkpt>
      <trkpt lat="39.84194098971784" lon="-6.187018509954214">
        <ele>589.0</ele>
        <time>2015-05-03T09:35:08.000Z</time>
      </trkpt>
      <trkpt lat="39.841989101842046" lon="-6.186912730336189">
        <ele>588.5999755859375</ele>
        <time>2015-05-03T09:35:10.000Z</time>
      </trkpt>
      <trkpt lat="39.842091193422675" lon="-6.186737213283777">
        <ele>587.5999755859375</ele>
        <time>2015-05-03T09:35:13.000Z</time>
      </trkpt>
      <trkpt lat="39.842123966664076" lon="-6.1866682302206755">
        <ele>587.0</ele>
        <time>2015-05-03T09:35:14.000Z</time>
      </trkpt>
      <trkpt lat="39.84215992502868" lon="-6.186595391482115">
        <ele>586.5999755859375</ele>
        <time>2015-05-03T09:35:15.000Z</time>
      </trkpt>
      <trkpt lat="39.84223150648177" lon="-6.186446947976947">
        <ele>586.2000122070312</ele>
        <time>2015-05-03T09:35:17.000Z</time>
      </trkpt>
      <trkpt lat="39.84231188893318" lon="-6.18629808537662">
        <ele>585.4000244140625</ele>
        <time>2015-05-03T09:35:19.000Z</time>
      </trkpt>
      <trkpt lat="39.84244700521231" lon="-6.186085436493158">
        <ele>584.0</ele>
        <time>2015-05-03T09:35:22.000Z</time>
      </trkpt>
      <trkpt lat="39.8424993082881" lon="-6.18602592498064">
        <ele>584.0</ele>
        <time>2015-05-03T09:35:23.000Z</time>
      </trkpt>
      <trkpt lat="39.84255806542933" lon="-6.185974041000009">
        <ele>583.5999755859375</ele>
        <time>2015-05-03T09:35:24.000Z</time>
      </trkpt>
      <trkpt lat="39.84268203377724" lon="-6.1858774814754725">
        <ele>582.5999755859375</ele>
        <time>2015-05-03T09:35:26.000Z</time>
      </trkpt>
      <trkpt lat="39.84273877926171" lon="-6.185812437906861">
        <ele>582.2000122070312</ele>
        <time>2015-05-03T09:35:27.000Z</time>
      </trkpt>
      <trkpt lat="39.84278437681496" lon="-6.185731468722224">
        <ele>581.5999755859375</ele>
        <time>2015-05-03T09:35:28.000Z</time>
      </trkpt>
      <trkpt lat="39.842828465625644" lon="-6.185642285272479">
        <ele>580.7999877929688</ele>
        <time>2015-05-03T09:35:29.000Z</time>
      </trkpt>
      <trkpt lat="39.84287808649242" lon="-6.185547737404704">
        <ele>579.7999877929688</ele>
        <time>2015-05-03T09:35:30.000Z</time>
      </trkpt>
      <trkpt lat="39.84292661771178" lon="-6.185442125424743">
        <ele>578.5999755859375</ele>
        <time>2015-05-03T09:35:31.000Z</time>
      </trkpt>
      <trkpt lat="39.84297154471278" lon="-6.185326371341944">
        <ele>577.0</ele>
        <time>2015-05-03T09:35:32.000Z</time>
      </trkpt>
      <trkpt lat="39.8430051561445" lon="-6.185192679986358">
        <ele>575.5999755859375</ele>
        <time>2015-05-03T09:35:33.000Z</time>
      </trkpt>
      <trkpt lat="39.84302376396954" lon="-6.185053205117583">
        <ele>573.7999877929688</ele>
        <time>2015-05-03T09:35:34.000Z</time>
      </trkpt>
      <trkpt lat="39.84302468597889" lon="-6.1849206034094095">
        <ele>572.5999755859375</ele>
        <time>2015-05-03T09:35:35.000Z</time>
      </trkpt>
      <trkpt lat="39.843011777848005" lon="-6.184788253158331">
        <ele>571.2000122070312</ele>
        <time>2015-05-03T09:35:36.000Z</time>
      </trkpt>
      <trkpt lat="39.84301504679024" lon="-6.184656657278538">
        <ele>570.0</ele>
        <time>2015-05-03T09:35:37.000Z</time>
      </trkpt>
      <trkpt lat="39.84309760853648" lon="-6.184417521581054">
        <ele>567.7999877929688</ele>
        <time>2015-05-03T09:35:39.000Z</time>
      </trkpt>
      <trkpt lat="39.84322987496853" lon="-6.184243010357022">
        <ele>566.4000244140625</ele>
        <time>2015-05-03T09:35:41.000Z</time>
      </trkpt>
      <trkpt lat="39.843303468078375" lon="-6.184165729209781">
        <ele>566.2000122070312</ele>
        <time>2015-05-03T09:35:42.000Z</time>
      </trkpt>
      <trkpt lat="39.84338200651109" lon="-6.184097584336996">
        <ele>565.7999877929688</ele>
        <time>2015-05-03T09:35:43.000Z</time>
      </trkpt>
      <trkpt lat="39.843460377305746" lon="-6.184028517454863">
        <ele>565.4000244140625</ele>
        <time>2015-05-03T09:35:44.000Z</time>
      </trkpt>
      <trkpt lat="39.84360764734447" lon="-6.18388032540679">
        <ele>564.7999877929688</ele>
        <time>2015-05-03T09:35:46.000Z</time>
      </trkpt>
      <trkpt lat="39.84367864206433" lon="-6.183676058426499">
        <ele>564.4000244140625</ele>
        <time>2015-05-03T09:35:48.000Z</time>
      </trkpt>
      <trkpt lat="39.8437581025064" lon="-6.1833305563777685">
        <ele>563.0</ele>
        <time>2015-05-03T09:35:51.000Z</time>
      </trkpt>
      <trkpt lat="39.84388617798686" lon="-6.183076500892639">
        <ele>563.2000122070312</ele>
        <time>2015-05-03T09:35:54.000Z</time>
      </trkpt>
      <trkpt lat="39.84395029954612" lon="-6.182943480089307">
        <ele>564.0</ele>
        <time>2015-05-03T09:35:56.000Z</time>
      </trkpt>
      <trkpt lat="39.84405708499253" lon="-6.182732759043574">
        <ele>564.4000244140625</ele>
        <time>2015-05-03T09:35:59.000Z</time>
      </trkpt>
      <trkpt lat="39.84415967948735" lon="-6.182482307776809">
        <ele>563.2000122070312</ele>
        <time>2015-05-03T09:36:02.000Z</time>
      </trkpt>
      <trkpt lat="39.84418516047299" lon="-6.182380383834243">
        <ele>562.2000122070312</ele>
        <time>2015-05-03T09:36:03.000Z</time>
      </trkpt>
      <trkpt lat="39.84421759843826" lon="-6.1821637116372585">
        <ele>561.2000122070312</ele>
        <time>2015-05-03T09:36:05.000Z</time>
      </trkpt>
      <trkpt lat="39.84422078356147" lon="-6.182053405791521">
        <ele>561.0</ele>
        <time>2015-05-03T09:36:06.000Z</time>
      </trkpt>
      <trkpt lat="39.84422572888434" lon="-6.181942345574498">
        <ele>560.5999755859375</ele>
        <time>2015-05-03T09:36:07.000Z</time>
      </trkpt>
      <trkpt lat="39.84424374997616" lon="-6.181778311729431">
        <ele>559.2000122070312</ele>
        <time>2015-05-03T09:36:08.000Z</time>
      </trkpt>
      <trkpt lat="39.84428524039686" lon="-6.181595167145133">
        <ele>558.2000122070312</ele>
        <time>2015-05-03T09:36:10.000Z</time>
      </trkpt>
      <trkpt lat="39.844307536259294" lon="-6.181454183533788">
        <ele>556.7999877929688</ele>
        <time>2015-05-03T09:36:11.000Z</time>
      </trkpt>
      <trkpt lat="39.84432689845562" lon="-6.181304985657334">
        <ele>555.4000244140625</ele>
        <time>2015-05-03T09:36:12.000Z</time>
      </trkpt>
      <trkpt lat="39.8443487752229" lon="-6.181143969297409">
        <ele>554.0</ele>
        <time>2015-05-03T09:36:13.000Z</time>
      </trkpt>
      <trkpt lat="39.84438448213041" lon="-6.180992927402258">
        <ele>552.4000244140625</ele>
        <time>2015-05-03T09:36:14.000Z</time>
      </trkpt>
      <trkpt lat="39.84441641718149" lon="-6.180857559666038">
        <ele>551.7999877929688</ele>
        <time>2015-05-03T09:36:15.000Z</time>
      </trkpt>
      <trkpt lat="39.84446134418249" lon="-6.180637618526816">
        <ele>554.0</ele>
        <time>2015-05-03T09:36:17.000Z</time>
      </trkpt>
      <trkpt lat="39.84448271803558" lon="-6.180542651563883">
        <ele>554.5999755859375</ele>
        <time>2015-05-03T09:36:18.000Z</time>
      </trkpt>
      <trkpt lat="39.84454298391938" lon="-6.1802335269749165">
        <ele>554.5999755859375</ele>
        <time>2015-05-03T09:36:21.000Z</time>
      </trkpt>
      <trkpt lat="39.84456779435277" lon="-6.179993133991957">
        <ele>553.5999755859375</ele>
        <time>2015-05-03T09:36:23.000Z</time>
      </trkpt>
      <trkpt lat="39.844563687220216" lon="-6.179874278604984">
        <ele>553.0</ele>
        <time>2015-05-03T09:36:24.000Z</time>
      </trkpt>
      <trkpt lat="39.8445298243314" lon="-6.179646207019687">
        <ele>551.7999877929688</ele>
        <time>2015-05-03T09:36:26.000Z</time>
      </trkpt>
      <trkpt lat="39.84450467862189" lon="-6.179288299754262">
        <ele>550.5999755859375</ele>
        <time>2015-05-03T09:36:29.000Z</time>
      </trkpt>
      <trkpt lat="39.84450618736446" lon="-6.1790616530925035">
        <ele>550.7999877929688</ele>
        <time>2015-05-03T09:36:31.000Z</time>
      </trkpt>
      <trkpt lat="39.84449688345194" lon="-6.178954113274813">
        <ele>551.0</ele>
        <time>2015-05-03T09:36:32.000Z</time>
      </trkpt>
      <trkpt lat="39.84441197477281" lon="-6.178650017827749">
        <ele>550.5999755859375</ele>
        <time>2015-05-03T09:36:35.000Z</time>
      </trkpt>
      <trkpt lat="39.84437149018049" lon="-6.178540214896202">
        <ele>549.5999755859375</ele>
        <time>2015-05-03T09:36:36.000Z</time>
      </trkpt>
      <trkpt lat="39.8443453386426" lon="-6.178426053375006">
        <ele>548.4000244140625</ele>
        <time>2015-05-03T09:36:37.000Z</time>
      </trkpt>
      <trkpt lat="39.84434952959418" lon="-6.178322872146964">
        <ele>547.2000122070312</ele>
        <time>2015-05-03T09:36:38.000Z</time>
      </trkpt>
      <trkpt lat="39.844416584819555" lon="-6.178164621815085">
        <ele>546.5999755859375</ele>
        <time>2015-05-03T09:36:40.000Z</time>
      </trkpt>
      <trkpt lat="39.84446193091571" lon="-6.178081640973687">
        <ele>545.7999877929688</ele>
        <time>2015-05-03T09:36:41.000Z</time>
      </trkpt>
      <trkpt lat="39.84453996643424" lon="-6.177901849150658">
        <ele>544.5999755859375</ele>
        <time>2015-05-03T09:36:43.000Z</time>
      </trkpt>
      <trkpt lat="39.84455153346062" lon="-6.177820460870862">
        <ele>543.7999877929688</ele>
        <time>2015-05-03T09:36:44.000Z</time>
      </trkpt>
      <trkpt lat="39.84454734250903" lon="-6.177740916609764">
        <ele>542.5999755859375</ele>
        <time>2015-05-03T09:36:45.000Z</time>
      </trkpt>
      <trkpt lat="39.844520688056946" lon="-6.177668832242489">
        <ele>541.5999755859375</ele>
        <time>2015-05-03T09:36:46.000Z</time>
      </trkpt>
      <trkpt lat="39.84447391703725" lon="-6.177613595500588">
        <ele>540.5999755859375</ele>
        <time>2015-05-03T09:36:47.000Z</time>
      </trkpt>
      <trkpt lat="39.84446964226663" lon="-6.177488956600428">
        <ele>539.5999755859375</ele>
        <time>2015-05-03T09:36:49.000Z</time>
      </trkpt>
      <trkpt lat="39.844505935907364" lon="-6.177432630211115">
        <ele>539.2000122070312</ele>
        <time>2015-05-03T09:36:50.000Z</time>
      </trkpt>
      <trkpt lat="39.84454826451838" lon="-6.1773752979934216">
        <ele>538.7999877929688</ele>
        <time>2015-05-03T09:36:51.000Z</time>
      </trkpt>
      <trkpt lat="39.84458640217781" lon="-6.177315702661872">
        <ele>538.4000244140625</ele>
        <time>2015-05-03T09:36:52.000Z</time>
      </trkpt>
      <trkpt lat="39.84465412795544" lon="-6.177156362682581">
        <ele>539.7999877929688</ele>
        <time>2015-05-03T09:36:55.000Z</time>
      </trkpt>
      <trkpt lat="39.84466401860118" lon="-6.177123337984085">
        <ele>540.5999755859375</ele>
        <time>2015-05-03T09:36:56.000Z</time>
      </trkpt>
      <trkpt lat="39.84467868693173" lon="-6.177057875320315">
        <ele>541.5999755859375</ele>
        <time>2015-05-03T09:36:58.000Z</time>
      </trkpt>
      <trkpt lat="39.84468899667263" lon="-6.17697355337441">
        <ele>543.2000122070312</ele>
        <time>2015-05-03T09:37:01.000Z</time>
      </trkpt>
      <trkpt lat="39.84468413516879" lon="-6.176945054903626">
        <ele>543.7999877929688</ele>
        <time>2015-05-03T09:37:02.000Z</time>
      </trkpt>
      <trkpt lat="39.84467810019851" lon="-6.176917729899287">
        <ele>544.4000244140625</ele>
        <time>2015-05-03T09:37:03.000Z</time>
      </trkpt>
      <trkpt lat="39.84465320594609" lon="-6.17682745680213">
        <ele>545.0</ele>
        <time>2015-05-03T09:37:06.000Z</time>
      </trkpt>
      <trkpt lat="39.84464147128165" lon="-6.176791163161397">
        <ele>545.4000244140625</ele>
        <time>2015-05-03T09:37:07.000Z</time>
      </trkpt>
      <trkpt lat="39.844626551494" lon="-6.176756964996457">
        <ele>545.5999755859375</ele>
        <time>2015-05-03T09:37:08.000Z</time>
      </trkpt>
      <trkpt lat="39.844595370814204" lon="-6.176688065752387">
        <ele>546.0</ele>
        <time>2015-05-03T09:37:10.000Z</time>
      </trkpt>
      <trkpt lat="39.8445522878319" lon="-6.176603157073259">
        <ele>546.0</ele>
        <time>2015-05-03T09:37:12.000Z</time>
      </trkpt>
      <trkpt lat="39.84450526535511" lon="-6.176508357748389">
        <ele>546.0</ele>
        <time>2015-05-03T09:37:14.000Z</time>
      </trkpt>
      <trkpt lat="39.84443888068199" lon="-6.17630073800683">
        <ele>546.2000122070312</ele>
        <time>2015-05-03T09:37:18.000Z</time>
      </trkpt>
      <trkpt lat="39.844429241493344" lon="-6.176248854026198">
        <ele>546.4000244140625</ele>
        <time>2015-05-03T09:37:19.000Z</time>
      </trkpt>
      <trkpt lat="39.844419015571475" lon="-6.176211386919022">
        <ele>547.0</ele>
        <time>2015-05-03T09:37:20.000Z</time>
      </trkpt>
      <trkpt lat="39.84439864754677" lon="-6.176121700555086">
        <ele>547.5999755859375</ele>
        <time>2015-05-03T09:37:22.000Z</time>
      </trkpt>
      <trkpt lat="39.84437576495111" lon="-6.175961857661605">
        <ele>548.4000244140625</ele>
        <time>2015-05-03T09:37:25.000Z</time>
      </trkpt>
      <trkpt lat="39.844353552907705" lon="-6.175802769139409">
        <ele>548.5999755859375</ele>
        <time>2015-05-03T09:37:28.000Z</time>
      </trkpt>
      <trkpt lat="39.84433067031205" lon="-6.175567992031574">
        <ele>549.2000122070312</ele>
        <time>2015-05-03T09:37:32.000Z</time>
      </trkpt>
      <trkpt lat="39.84432773664594" lon="-6.175455925986171">
        <ele>549.5999755859375</ele>
        <time>2015-05-03T09:37:34.000Z</time>
      </trkpt>
      <trkpt lat="39.844300244003534" lon="-6.1752845998853445">
        <ele>550.0</ele>
        <time>2015-05-03T09:37:37.000Z</time>
      </trkpt>
      <trkpt lat="39.84421047382057" lon="-6.174869779497385">
        <ele>549.4000244140625</ele>
        <time>2015-05-03T09:37:43.000Z</time>
      </trkpt>
      <trkpt lat="39.84416990540922" lon="-6.174560822546482">
        <ele>548.5999755859375</ele>
        <time>2015-05-03T09:37:47.000Z</time>
      </trkpt>
      <trkpt lat="39.844171749427915" lon="-6.174363931640983">
        <ele>547.4000244140625</ele>
        <time>2015-05-03T09:37:49.000Z</time>
      </trkpt>
      <trkpt lat="39.844197146594524" lon="-6.174172069877386">
        <ele>546.7999877929688</ele>
        <time>2015-05-03T09:37:51.000Z</time>
      </trkpt>
      <trkpt lat="39.84423763118684" lon="-6.1740070302039385">
        <ele>547.4000244140625</ele>
        <time>2015-05-03T09:37:53.000Z</time>
      </trkpt>
      <trkpt lat="39.84430460259318" lon="-6.173667395487428">
        <ele>548.5999755859375</ele>
        <time>2015-05-03T09:37:57.000Z</time>
      </trkpt>
      <trkpt lat="39.844309045001864" lon="-6.173485005274415">
        <ele>548.2000122070312</ele>
        <time>2015-05-03T09:37:59.000Z</time>
      </trkpt>
      <trkpt lat="39.84430192038417" lon="-6.173273613676429">
        <ele>546.5999755859375</ele>
        <time>2015-05-03T09:38:01.000Z</time>
      </trkpt>
      <trkpt lat="39.8443038482219" lon="-6.173039171844721">
        <ele>545.5999755859375</ele>
        <time>2015-05-03T09:38:03.000Z</time>
      </trkpt>
      <trkpt lat="39.844315918162465" lon="-6.172825433313847">
        <ele>546.4000244140625</ele>
        <time>2015-05-03T09:38:05.000Z</time>
      </trkpt>
      <trkpt lat="39.84433569945395" lon="-6.172513794153929">
        <ele>546.2000122070312</ele>
        <time>2015-05-03T09:38:08.000Z</time>
      </trkpt>
      <trkpt lat="39.84432999975979" lon="-6.172410361468792">
        <ele>546.2000122070312</ele>
        <time>2015-05-03T09:38:09.000Z</time>
      </trkpt>
      <trkpt lat="39.844279792159796" lon="-6.1722148116678">
        <ele>545.5999755859375</ele>
        <time>2015-05-03T09:38:11.000Z</time>
      </trkpt>
      <trkpt lat="39.84423654153943" lon="-6.172133088111877">
        <ele>545.5999755859375</ele>
        <time>2015-05-03T09:38:12.000Z</time>
      </trkpt>
      <trkpt lat="39.84413403086364" lon="-6.171986488625407">
        <ele>544.0</ele>
        <time>2015-05-03T09:38:14.000Z</time>
      </trkpt>
      <trkpt lat="39.84409287571907" lon="-6.1718229576945305">
        <ele>542.5999755859375</ele>
        <time>2015-05-03T09:38:16.000Z</time>
      </trkpt>
      <trkpt lat="39.84409145079553" lon="-6.171745341271162">
        <ele>542.7999877929688</ele>
        <time>2015-05-03T09:38:17.000Z</time>
      </trkpt>
      <trkpt lat="39.8441725037992" lon="-6.171508384868503">
        <ele>542.5999755859375</ele>
        <time>2015-05-03T09:38:20.000Z</time>
      </trkpt>
      <trkpt lat="39.844330586493015" lon="-6.171322474256158">
        <ele>541.5999755859375</ele>
        <time>2015-05-03T09:38:23.000Z</time>
      </trkpt>
      <trkpt lat="39.8443556483835" lon="-6.171126253902912">
        <ele>543.4000244140625</ele>
        <time>2015-05-03T09:38:26.000Z</time>
      </trkpt>
      <trkpt lat="39.84434642829001" lon="-6.171069340780377">
        <ele>544.0</ele>
        <time>2015-05-03T09:38:27.000Z</time>
      </trkpt>
      <trkpt lat="39.84432337805629" lon="-6.170910419896245">
        <ele>544.7999877929688</ele>
        <time>2015-05-03T09:38:30.000Z</time>
      </trkpt>
      <trkpt lat="39.84431876800954" lon="-6.170856691896915">
        <ele>545.2000122070312</ele>
        <time>2015-05-03T09:38:31.000Z</time>
      </trkpt>
      <trkpt lat="39.84429647214711" lon="-6.170694334432483">
        <ele>546.4000244140625</ele>
        <time>2015-05-03T09:38:34.000Z</time>
      </trkpt>
      <trkpt lat="39.84427560120821" lon="-6.1705872137099504">
        <ele>546.5999755859375</ele>
        <time>2015-05-03T09:38:36.000Z</time>
      </trkpt>
      <trkpt lat="39.84426638111472" lon="-6.170535245910287">
        <ele>546.7999877929688</ele>
        <time>2015-05-03T09:38:37.000Z</time>
      </trkpt>
      <trkpt lat="39.844230422750115" lon="-6.170374983921647">
        <ele>547.5999755859375</ele>
        <time>2015-05-03T09:38:40.000Z</time>
      </trkpt>
      <trkpt lat="39.844183484092355" lon="-6.170206675305963">
        <ele>548.4000244140625</ele>
        <time>2015-05-03T09:38:43.000Z</time>
      </trkpt>
      <trkpt lat="39.844065299257636" lon="-6.169826304540038">
        <ele>548.0</ele>
        <time>2015-05-03T09:38:49.000Z</time>
      </trkpt>
      <trkpt lat="39.843909312039614" lon="-6.169357756152749">
        <ele>547.0</ele>
        <time>2015-05-03T09:38:55.000Z</time>
      </trkpt>
      <trkpt lat="39.84386966563761" lon="-6.169280139729381">
        <ele>546.5999755859375</ele>
        <time>2015-05-03T09:38:56.000Z</time>
      </trkpt>
      <trkpt lat="39.84382909722626" lon="-6.169202607125044">
        <ele>546.4000244140625</ele>
        <time>2015-05-03T09:38:57.000Z</time>
      </trkpt>
      <trkpt lat="39.84378341585398" lon="-6.169130774214864">
        <ele>546.2000122070312</ele>
        <time>2015-05-03T09:38:58.000Z</time>
      </trkpt>
      <trkpt lat="39.843731950968504" lon="-6.169062294065952">
        <ele>546.4000244140625</ele>
        <time>2015-05-03T09:38:59.000Z</time>
      </trkpt>
      <trkpt lat="39.843495497480035" lon="-6.168847633525729">
        <ele>545.7999877929688</ele>
        <time>2015-05-03T09:39:03.000Z</time>
      </trkpt>
      <trkpt lat="39.843433974310756" lon="-6.168799856677651">
        <ele>545.7999877929688</ele>
        <time>2015-05-03T09:39:04.000Z</time>
      </trkpt>
      <trkpt lat="39.84337261877954" lon="-6.168742859736085">
        <ele>545.5999755859375</ele>
        <time>2015-05-03T09:39:05.000Z</time>
      </trkpt>
      <trkpt lat="39.84332911670208" lon="-6.168666584417224">
        <ele>545.2000122070312</ele>
        <time>2015-05-03T09:39:06.000Z</time>
      </trkpt>
      <trkpt lat="39.843302462249994" lon="-6.168582430109382">
        <ele>545.0</ele>
        <time>2015-05-03T09:39:07.000Z</time>
      </trkpt>
      <trkpt lat="39.843272706493735" lon="-6.1684261076152325">
        <ele>545.2000122070312</ele>
        <time>2015-05-03T09:39:09.000Z</time>
      </trkpt>
      <trkpt lat="39.84325099736452" lon="-6.168352430686355">
        <ele>545.5999755859375</ele>
        <time>2015-05-03T09:39:10.000Z</time>
      </trkpt>
      <trkpt lat="39.84322115778923" lon="-6.168282106518745">
        <ele>545.5999755859375</ele>
        <time>2015-05-03T09:39:11.000Z</time>
      </trkpt>
      <trkpt lat="39.843146558851004" lon="-6.168162496760488">
        <ele>546.2000122070312</ele>
        <time>2015-05-03T09:39:13.000Z</time>
      </trkpt>
      <trkpt lat="39.84305209480226" lon="-6.1680759117007256">
        <ele>546.5999755859375</ele>
        <time>2015-05-03T09:39:15.000Z</time>
      </trkpt>
      <trkpt lat="39.84300406649709" lon="-6.168037438765168">
        <ele>546.7999877929688</ele>
        <time>2015-05-03T09:39:16.000Z</time>
      </trkpt>
      <trkpt lat="39.84291287139058" lon="-6.167948925867677">
        <ele>547.0</ele>
        <time>2015-05-03T09:39:18.000Z</time>
      </trkpt>
      <trkpt lat="39.84288110397756" lon="-6.167892096564174">
        <ele>547.4000244140625</ele>
        <time>2015-05-03T09:39:19.000Z</time>
      </trkpt>
      <trkpt lat="39.84285905957222" lon="-6.167831411585212">
        <ele>547.5999755859375</ele>
        <time>2015-05-03T09:39:20.000Z</time>
      </trkpt>
      <trkpt lat="39.84279468655586" lon="-6.1676698084920645">
        <ele>548.5999755859375</ele>
        <time>2015-05-03T09:39:23.000Z</time>
      </trkpt>
      <trkpt lat="39.84274188056588" lon="-6.167587246745825">
        <ele>549.5999755859375</ele>
        <time>2015-05-03T09:39:25.000Z</time>
      </trkpt>
      <trkpt lat="39.842716148123145" lon="-6.16755330003798">
        <ele>549.7999877929688</ele>
        <time>2015-05-03T09:39:26.000Z</time>
      </trkpt>
      <trkpt lat="39.8426219355315" lon="-6.167422290891409">
        <ele>551.0</ele>
        <time>2015-05-03T09:39:30.000Z</time>
      </trkpt>
      <trkpt lat="39.84257893636823" lon="-6.167354313656688">
        <ele>551.4000244140625</ele>
        <time>2015-05-03T09:39:32.000Z</time>
      </trkpt>
      <trkpt lat="39.84252076596022" lon="-6.167245768010616">
        <ele>552.0</ele>
        <time>2015-05-03T09:39:35.000Z</time>
      </trkpt>
      <trkpt lat="39.84245639294386" lon="-6.167133450508118">
        <ele>552.4000244140625</ele>
        <time>2015-05-03T09:39:38.000Z</time>
      </trkpt>
      <trkpt lat="39.842398473992944" lon="-6.167029347270727">
        <ele>553.2000122070312</ele>
        <time>2015-05-03T09:39:41.000Z</time>
      </trkpt>
      <trkpt lat="39.842323707416654" lon="-6.166901020333171">
        <ele>554.2000122070312</ele>
        <time>2015-05-03T09:39:45.000Z</time>
      </trkpt>
      <trkpt lat="39.84230157919228" lon="-6.166872186586261">
        <ele>554.5999755859375</ele>
        <time>2015-05-03T09:39:46.000Z</time>
      </trkpt>
      <trkpt lat="39.84215648844838" lon="-6.166703123599291">
        <ele>555.2000122070312</ele>
        <time>2015-05-03T09:39:52.000Z</time>
      </trkpt>
      <trkpt lat="39.84211382456124" lon="-6.166636571288109">
        <ele>555.4000244140625</ele>
        <time>2015-05-03T09:39:54.000Z</time>
      </trkpt>
      <trkpt lat="39.84206152148545" lon="-6.16653012111783">
        <ele>556.2000122070312</ele>
        <time>2015-05-03T09:39:57.000Z</time>
      </trkpt>
      <trkpt lat="39.842043835669756" lon="-6.166499946266413">
        <ele>556.4000244140625</ele>
        <time>2015-05-03T09:39:58.000Z</time>
      </trkpt>
      <trkpt lat="39.84196990728378" lon="-6.166363907977939">
        <ele>557.5999755859375</ele>
        <time>2015-05-03T09:40:02.000Z</time>
      </trkpt>
      <trkpt lat="39.84195264056325" lon="-6.166330045089126">
        <ele>557.7999877929688</ele>
        <time>2015-05-03T09:40:03.000Z</time>
      </trkpt>
      <trkpt lat="39.84188047237694" lon="-6.16620616056025">
        <ele>558.7999877929688</ele>
        <time>2015-05-03T09:40:07.000Z</time>
      </trkpt>
      <trkpt lat="39.84180511906743" lon="-6.166107086464763">
        <ele>559.2000122070312</ele>
        <time>2015-05-03T09:40:11.000Z</time>
      </trkpt>
      <trkpt lat="39.84178223647177" lon="-6.166091579943895">
        <ele>559.5999755859375</ele>
        <time>2015-05-03T09:40:12.000Z</time>
      </trkpt>
      <trkpt lat="39.84175901859999" lon="-6.166068697348237">
        <ele>559.7999877929688</ele>
        <time>2015-05-03T09:40:13.000Z</time>
      </trkpt>
      <trkpt lat="39.841716857627034" lon="-6.166012203320861">
        <ele>560.4000244140625</ele>
        <time>2015-05-03T09:40:15.000Z</time>
      </trkpt>
      <trkpt lat="39.84167318791151" lon="-6.16594472900033">
        <ele>560.4000244140625</ele>
        <time>2015-05-03T09:40:17.000Z</time>
      </trkpt>
      <trkpt lat="39.8415716830641" lon="-6.165806092321873">
        <ele>560.5999755859375</ele>
        <time>2015-05-03T09:40:21.000Z</time>
      </trkpt>
      <trkpt lat="39.8414733633399" lon="-6.16566670127213">
        <ele>561.2000122070312</ele>
        <time>2015-05-03T09:40:25.000Z</time>
      </trkpt>
      <trkpt lat="39.8414268437773" lon="-6.165607022121549">
        <ele>561.4000244140625</ele>
        <time>2015-05-03T09:40:27.000Z</time>
      </trkpt>
      <trkpt lat="39.841379737481475" lon="-6.165543319657445">
        <ele>562.2000122070312</ele>
        <time>2015-05-03T09:40:29.000Z</time>
      </trkpt>
      <trkpt lat="39.84128527343273" lon="-6.165370149537921">
        <ele>563.2000122070312</ele>
        <time>2015-05-03T09:40:34.000Z</time>
      </trkpt>
      <trkpt lat="39.841237999498844" lon="-6.165242493152618">
        <ele>564.4000244140625</ele>
        <time>2015-05-03T09:40:38.000Z</time>
      </trkpt>
      <trkpt lat="39.84120790846646" lon="-6.165142077952623">
        <ele>565.4000244140625</ele>
        <time>2015-05-03T09:40:41.000Z</time>
      </trkpt>
      <trkpt lat="39.841166250407696" lon="-6.164842089638114">
        <ele>566.0</ele>
        <time>2015-05-03T09:40:48.000Z</time>
      </trkpt>
      <trkpt lat="39.84122199006379" lon="-6.164532629773021">
        <ele>566.0</ele>
        <time>2015-05-03T09:40:53.000Z</time>
      </trkpt>
      <trkpt lat="39.84127781353891" lon="-6.164058800786734">
        <ele>564.7999877929688</ele>
        <time>2015-05-03T09:40:59.000Z</time>
      </trkpt>
      <trkpt lat="39.8413163702935" lon="-6.163809606805444">
        <ele>564.0</ele>
        <time>2015-05-03T09:41:02.000Z</time>
      </trkpt>
      <trkpt lat="39.84131972305477" lon="-6.16372000426054">
        <ele>563.4000244140625</ele>
        <time>2015-05-03T09:41:03.000Z</time>
      </trkpt>
      <trkpt lat="39.84132416546345" lon="-6.163627468049526">
        <ele>562.7999877929688</ele>
        <time>2015-05-03T09:41:04.000Z</time>
      </trkpt>
      <trkpt lat="39.841328440234065" lon="-6.163527304306626">
        <ele>562.2000122070312</ele>
        <time>2015-05-03T09:41:05.000Z</time>
      </trkpt>
      <trkpt lat="39.84133154153824" lon="-6.163423536345363">
        <ele>561.5999755859375</ele>
        <time>2015-05-03T09:41:06.000Z</time>
      </trkpt>
      <trkpt lat="39.841326009482145" lon="-6.16331591270864">
        <ele>561.2000122070312</ele>
        <time>2015-05-03T09:41:07.000Z</time>
      </trkpt>
      <trkpt lat="39.84132869169116" lon="-6.163094881922007">
        <ele>560.0</ele>
        <time>2015-05-03T09:41:09.000Z</time>
      </trkpt>
      <trkpt lat="39.84133506193757" lon="-6.1629771161824465">
        <ele>559.4000244140625</ele>
        <time>2015-05-03T09:41:10.000Z</time>
      </trkpt>
      <trkpt lat="39.8413576092571" lon="-6.1626228131353855">
        <ele>558.4000244140625</ele>
        <time>2015-05-03T09:41:13.000Z</time>
      </trkpt>
      <trkpt lat="39.841370433568954" lon="-6.162380492314696">
        <ele>557.2000122070312</ele>
        <time>2015-05-03T09:41:15.000Z</time>
      </trkpt>
      <trkpt lat="39.84137621708214" lon="-6.162256272509694">
        <ele>556.5999755859375</ele>
        <time>2015-05-03T09:41:16.000Z</time>
      </trkpt>
      <trkpt lat="39.84137856401503" lon="-6.162130124866962">
        <ele>555.5999755859375</ele>
        <time>2015-05-03T09:41:17.000Z</time>
      </trkpt>
      <trkpt lat="39.84137252904475" lon="-6.161884870380163">
        <ele>553.0</ele>
        <time>2015-05-03T09:41:19.000Z</time>
      </trkpt>
      <trkpt lat="39.84138309024274" lon="-6.161698205396533">
        <ele>552.4000244140625</ele>
        <time>2015-05-03T09:41:21.000Z</time>
      </trkpt>
      <trkpt lat="39.841392477974296" lon="-6.161600304767489">
        <ele>551.5999755859375</ele>
        <time>2015-05-03T09:41:22.000Z</time>
      </trkpt>
      <trkpt lat="39.84139365144074" lon="-6.1614977940917015">
        <ele>550.7999877929688</ele>
        <time>2015-05-03T09:41:23.000Z</time>
      </trkpt>
      <trkpt lat="39.84139448963106" lon="-6.1613962054252625">
        <ele>550.0</ele>
        <time>2015-05-03T09:41:24.000Z</time>
      </trkpt>
      <trkpt lat="39.84139088541269" lon="-6.1612913478165865">
        <ele>549.5999755859375</ele>
        <time>2015-05-03T09:41:25.000Z</time>
      </trkpt>
      <trkpt lat="39.841381665319204" lon="-6.161074256524444">
        <ele>548.4000244140625</ele>
        <time>2015-05-03T09:41:27.000Z</time>
      </trkpt>
      <trkpt lat="39.841374792158604" lon="-6.160960346460342">
        <ele>547.5999755859375</ele>
        <time>2015-05-03T09:41:28.000Z</time>
      </trkpt>
      <trkpt lat="39.841373367235065" lon="-6.160838808864355">
        <ele>547.2000122070312</ele>
        <time>2015-05-03T09:41:29.000Z</time>
      </trkpt>
      <trkpt lat="39.841369008645415" lon="-6.160722970962524">
        <ele>546.4000244140625</ele>
        <time>2015-05-03T09:41:30.000Z</time>
      </trkpt>
      <trkpt lat="39.84136372804642" lon="-6.160602942109108">
        <ele>546.0</ele>
        <time>2015-05-03T09:41:31.000Z</time>
      </trkpt>
      <trkpt lat="39.84136389568448" lon="-6.160372439771891">
        <ele>544.5999755859375</ele>
        <time>2015-05-03T09:41:33.000Z</time>
      </trkpt>
      <trkpt lat="39.841356771066785" lon="-6.1601772252470255">
        <ele>543.0</ele>
        <time>2015-05-03T09:41:35.000Z</time>
      </trkpt>
      <trkpt lat="39.84127798117697" lon="-6.160003049299121">
        <ele>543.5999755859375</ele>
        <time>2015-05-03T09:41:38.000Z</time>
      </trkpt>
      <trkpt lat="39.84125233255327" lon="-6.159957954660058">
        <ele>544.2000122070312</ele>
        <time>2015-05-03T09:41:39.000Z</time>
      </trkpt>
      <trkpt lat="39.84123204834759" lon="-6.159912692382932">
        <ele>544.7999877929688</ele>
        <time>2015-05-03T09:41:40.000Z</time>
      </trkpt>
      <trkpt lat="39.84121444635093" lon="-6.1598670948296785">
        <ele>545.4000244140625</ele>
        <time>2015-05-03T09:41:41.000Z</time>
      </trkpt>
      <trkpt lat="39.841197011992335" lon="-6.159821664914489">
        <ele>546.0</ele>
        <time>2015-05-03T09:41:42.000Z</time>
      </trkpt>
      <trkpt lat="39.841178907081485" lon="-6.159776654094458">
        <ele>546.4000244140625</ele>
        <time>2015-05-03T09:41:43.000Z</time>
      </trkpt>
      <trkpt lat="39.84116264618933" lon="-6.159733906388283">
        <ele>546.7999877929688</ele>
        <time>2015-05-03T09:41:44.000Z</time>
      </trkpt>
      <trkpt lat="39.841148564592004" lon="-6.159688979387283">
        <ele>547.4000244140625</ele>
        <time>2015-05-03T09:41:45.000Z</time>
      </trkpt>
      <trkpt lat="39.841107074171305" lon="-6.159566603600979">
        <ele>548.5999755859375</ele>
        <time>2015-05-03T09:41:48.000Z</time>
      </trkpt>
      <trkpt lat="39.841095339506865" lon="-6.15952611900866">
        <ele>549.2000122070312</ele>
        <time>2015-05-03T09:41:49.000Z</time>
      </trkpt>
      <trkpt lat="39.84107513912022" lon="-6.159439450129867">
        <ele>549.7999877929688</ele>
        <time>2015-05-03T09:41:51.000Z</time>
      </trkpt>
      <trkpt lat="39.84105275943875" lon="-6.159313889220357">
        <ele>550.7999877929688</ele>
        <time>2015-05-03T09:41:54.000Z</time>
      </trkpt>
      <trkpt lat="39.84104186296463" lon="-6.1592270527035">
        <ele>551.2000122070312</ele>
        <time>2015-05-03T09:41:56.000Z</time>
      </trkpt>
      <trkpt lat="39.84102761372924" lon="-6.159049943089485">
        <ele>551.7999877929688</ele>
        <time>2015-05-03T09:42:00.000Z</time>
      </trkpt>
      <trkpt lat="39.84101696871221" lon="-6.158959753811359">
        <ele>552.2000122070312</ele>
        <time>2015-05-03T09:42:02.000Z</time>
      </trkpt>
      <trkpt lat="39.84098922461271" lon="-6.158820949494839">
        <ele>553.0</ele>
        <time>2015-05-03T09:42:05.000Z</time>
      </trkpt>
      <trkpt lat="39.84093616716564" lon="-6.158621460199356">
        <ele>552.5999755859375</ele>
        <time>2015-05-03T09:42:09.000Z</time>
      </trkpt>
      <trkpt lat="39.84088394790888" lon="-6.158408559858799">
        <ele>553.0</ele>
        <time>2015-05-03T09:42:13.000Z</time>
      </trkpt>
      <trkpt lat="39.84083608724177" lon="-6.158251482993364">
        <ele>552.7999877929688</ele>
        <time>2015-05-03T09:42:16.000Z</time>
      </trkpt>
      <trkpt lat="39.840740617364645" lon="-6.157934227958322">
        <ele>553.2000122070312</ele>
        <time>2015-05-03T09:42:22.000Z</time>
      </trkpt>
      <trkpt lat="39.84062637202442" lon="-6.157575398683548">
        <ele>554.0</ele>
        <time>2015-05-03T09:42:29.000Z</time>
      </trkpt>
      <trkpt lat="39.840614050626755" lon="-6.157526029273868">
        <ele>554.4000244140625</ele>
        <time>2015-05-03T09:42:30.000Z</time>
      </trkpt>
      <trkpt lat="39.84054724685848" lon="-6.157233081758022">
        <ele>555.2000122070312</ele>
        <time>2015-05-03T09:42:36.000Z</time>
      </trkpt>
      <trkpt lat="39.840528555214405" lon="-6.157140210270882">
        <ele>555.7999877929688</ele>
        <time>2015-05-03T09:42:38.000Z</time>
      </trkpt>
      <trkpt lat="39.84046971425414" lon="-6.1569043435156345">
        <ele>556.4000244140625</ele>
        <time>2015-05-03T09:42:43.000Z</time>
      </trkpt>
      <trkpt lat="39.840425457805395" lon="-6.156710051000118">
        <ele>556.7999877929688</ele>
        <time>2015-05-03T09:42:47.000Z</time>
      </trkpt>
      <trkpt lat="39.840393271297216" lon="-6.156578874215484">
        <ele>557.5999755859375</ele>
        <time>2015-05-03T09:42:50.000Z</time>
      </trkpt>
      <trkpt lat="39.84032956883311" lon="-6.156315179541707">
        <ele>558.0</ele>
        <time>2015-05-03T09:42:56.000Z</time>
      </trkpt>
      <trkpt lat="39.84031573869288" lon="-6.156270503997803">
        <ele>558.2000122070312</ele>
        <time>2015-05-03T09:42:57.000Z</time>
      </trkpt>
      <trkpt lat="39.840245163068175" lon="-6.1560682486742735">
        <ele>559.2000122070312</ele>
        <time>2015-05-03T09:43:02.000Z</time>
      </trkpt>
      <trkpt lat="39.84020224772394" lon="-6.155960289761424">
        <ele>559.5999755859375</ele>
        <time>2015-05-03T09:43:05.000Z</time>
      </trkpt>
      <trkpt lat="39.84014801681042" lon="-6.155822491273284">
        <ele>560.5999755859375</ele>
        <time>2015-05-03T09:43:09.000Z</time>
      </trkpt>
      <trkpt lat="39.84011557884514" lon="-6.155727189034224">
        <ele>561.2000122070312</ele>
        <time>2015-05-03T09:43:12.000Z</time>
      </trkpt>
      <trkpt lat="39.84009688720107" lon="-6.155663235113025">
        <ele>561.7999877929688</ele>
        <time>2015-05-03T09:43:14.000Z</time>
      </trkpt>
      <trkpt lat="39.84004944562912" lon="-6.15549978800118">
        <ele>562.7999877929688</ele>
        <time>2015-05-03T09:43:19.000Z</time>
      </trkpt>
      <trkpt lat="39.84003469347954" lon="-6.155437678098679">
        <ele>563.0</ele>
        <time>2015-05-03T09:43:21.000Z</time>
      </trkpt>
      <trkpt lat="39.84000200405717" lon="-6.1553125362843275">
        <ele>564.0</ele>
        <time>2015-05-03T09:43:25.000Z</time>
      </trkpt>
      <trkpt lat="39.8399970587343" lon="-6.155281187966466">
        <ele>564.4000244140625</ele>
        <time>2015-05-03T09:43:26.000Z</time>
      </trkpt>
      <trkpt lat="39.83997627161443" lon="-6.155191669240594">
        <ele>565.2000122070312</ele>
        <time>2015-05-03T09:43:29.000Z</time>
      </trkpt>
      <trkpt lat="39.839939726516604" lon="-6.155063593760133">
        <ele>566.2000122070312</ele>
        <time>2015-05-03T09:43:33.000Z</time>
      </trkpt>
      <trkpt lat="39.839933440089226" lon="-6.155032832175493">
        <ele>566.2000122070312</ele>
        <time>2015-05-03T09:43:34.000Z</time>
      </trkpt>
      <trkpt lat="39.839914329349995" lon="-6.15491833537817">
        <ele>567.4000244140625</ele>
        <time>2015-05-03T09:43:38.000Z</time>
      </trkpt>
      <trkpt lat="39.83990913257003" lon="-6.154890339821577">
        <ele>567.7999877929688</ele>
        <time>2015-05-03T09:43:39.000Z</time>
      </trkpt>
      <trkpt lat="39.83988373540342" lon="-6.15479227155447">
        <ele>568.7999877929688</ele>
        <time>2015-05-03T09:43:43.000Z</time>
      </trkpt>
      <trkpt lat="39.839862613007426" lon="-6.154720103368163">
        <ele>569.4000244140625</ele>
        <time>2015-05-03T09:43:46.000Z</time>
      </trkpt>
      <trkpt lat="39.839850375428796" lon="-6.154676517471671">
        <ele>570.0</ele>
        <time>2015-05-03T09:43:48.000Z</time>
      </trkpt>
      <trkpt lat="39.83982824720442" lon="-6.154583226889372">
        <ele>571.4000244140625</ele>
        <time>2015-05-03T09:43:52.000Z</time>
      </trkpt>
      <trkpt lat="39.839803436771035" lon="-6.1544805485755205">
        <ele>572.5999755859375</ele>
        <time>2015-05-03T09:43:57.000Z</time>
      </trkpt>
      <trkpt lat="39.839800000190735" lon="-6.154453391209245">
        <ele>572.5999755859375</ele>
        <time>2015-05-03T09:43:58.000Z</time>
      </trkpt>
      <trkpt lat="39.83979715034366" lon="-6.15442824549973">
        <ele>572.7999877929688</ele>
        <time>2015-05-03T09:43:59.000Z</time>
      </trkpt>
      <trkpt lat="39.83977887779474" lon="-6.15435104817152">
        <ele>573.7999877929688</ele>
        <time>2015-05-03T09:44:02.000Z</time>
      </trkpt>
      <trkpt lat="39.839766304939985" lon="-6.154305282980204">
        <ele>574.5999755859375</ele>
        <time>2015-05-03T09:44:04.000Z</time>
      </trkpt>
      <trkpt lat="39.839765802025795" lon="-6.154287680983543">
        <ele>574.5999755859375</ele>
        <time>2015-05-03T09:44:05.000Z</time>
      </trkpt>
      <trkpt lat="39.83975540846586" lon="-6.154244681820273">
        <ele>575.0</ele>
        <time>2015-05-03T09:44:07.000Z</time>
      </trkpt>
      <trkpt lat="39.83972758054733" lon="-6.154153905808926">
        <ele>576.2000122070312</ele>
        <time>2015-05-03T09:44:12.000Z</time>
      </trkpt>
      <trkpt lat="39.83971123583615" lon="-6.154060196131468">
        <ele>577.4000244140625</ele>
        <time>2015-05-03T09:44:17.000Z</time>
      </trkpt>
      <trkpt lat="39.83970545232296" lon="-6.154020130634308">
        <ele>578.2000122070312</ele>
        <time>2015-05-03T09:44:19.000Z</time>
      </trkpt>
      <trkpt lat="39.83969707041979" lon="-6.153972940519452">
        <ele>578.4000244140625</ele>
        <time>2015-05-03T09:44:21.000Z</time>
      </trkpt>
      <trkpt lat="39.83967695385218" lon="-6.153876129537821">
        <ele>579.4000244140625</ele>
        <time>2015-05-03T09:44:25.000Z</time>
      </trkpt>
      <trkpt lat="39.83966211788356" lon="-6.153705893084407">
        <ele>580.4000244140625</ele>
        <time>2015-05-03T09:44:31.000Z</time>
      </trkpt>
      <trkpt lat="39.83965155668557" lon="-6.153606064617634">
        <ele>581.5999755859375</ele>
        <time>2015-05-03T09:44:35.000Z</time>
      </trkpt>
      <trkpt lat="39.83965071849525" lon="-6.153567340224981">
        <ele>581.5999755859375</ele>
        <time>2015-05-03T09:44:37.000Z</time>
      </trkpt>
      <trkpt lat="39.83963512815535" lon="-6.153482096269727">
        <ele>582.5999755859375</ele>
        <time>2015-05-03T09:44:41.000Z</time>
      </trkpt>
      <trkpt lat="39.83962741680443" lon="-6.153428703546524">
        <ele>583.2000122070312</ele>
        <time>2015-05-03T09:44:43.000Z</time>
      </trkpt>
      <trkpt lat="39.83961031772196" lon="-6.153318984434009">
        <ele>583.7999877929688</ele>
        <time>2015-05-03T09:44:47.000Z</time>
      </trkpt>
      <trkpt lat="39.839603025466204" lon="-6.153233740478754">
        <ele>584.5999755859375</ele>
        <time>2015-05-03T09:44:50.000Z</time>
      </trkpt>
      <trkpt lat="39.83959095552564" lon="-6.153180515393615">
        <ele>584.7999877929688</ele>
        <time>2015-05-03T09:44:52.000Z</time>
      </trkpt>
      <trkpt lat="39.83957109041512" lon="-6.153013547882438">
        <ele>585.7999877929688</ele>
        <time>2015-05-03T09:44:58.000Z</time>
      </trkpt>
      <trkpt lat="39.83956564217806" lon="-6.152981529012322">
        <ele>586.2000122070312</ele>
        <time>2015-05-03T09:44:59.000Z</time>
      </trkpt>
      <trkpt lat="39.83953731134534" lon="-6.152838701382279">
        <ele>587.5999755859375</ele>
        <time>2015-05-03T09:45:04.000Z</time>
      </trkpt>
      <trkpt lat="39.83953312039375" lon="-6.152808526530862">
        <ele>587.7999877929688</ele>
        <time>2015-05-03T09:45:05.000Z</time>
      </trkpt>
      <trkpt lat="39.83950353227556" lon="-6.152671817690134">
        <ele>588.7999877929688</ele>
        <time>2015-05-03T09:45:10.000Z</time>
      </trkpt>
      <trkpt lat="39.839475536718965" lon="-6.152539718896151">
        <ele>590.0</ele>
        <time>2015-05-03T09:45:15.000Z</time>
      </trkpt>
      <trkpt lat="39.839443350210786" lon="-6.152410889044404">
        <ele>591.2000122070312</ele>
        <time>2015-05-03T09:45:20.000Z</time>
      </trkpt>
      <trkpt lat="39.83940588310361" lon="-6.152311814948916">
        <ele>592.0</ele>
        <time>2015-05-03T09:45:24.000Z</time>
      </trkpt>
      <trkpt lat="39.839396914467216" lon="-6.1522844061255455">
        <ele>592.4000244140625</ele>
        <time>2015-05-03T09:45:25.000Z</time>
      </trkpt>
      <trkpt lat="39.83936129137874" lon="-6.152161443606019">
        <ele>593.4000244140625</ele>
        <time>2015-05-03T09:45:30.000Z</time>
      </trkpt>
      <trkpt lat="39.83935374766588" lon="-6.152136465534568">
        <ele>593.5999755859375</ele>
        <time>2015-05-03T09:45:31.000Z</time>
      </trkpt>
      <trkpt lat="39.83932483009994" lon="-6.1520378943532705">
        <ele>594.4000244140625</ele>
        <time>2015-05-03T09:45:35.000Z</time>
      </trkpt>
      <trkpt lat="39.839306473731995" lon="-6.151990620419383">
        <ele>594.7999877929688</ele>
        <time>2015-05-03T09:45:37.000Z</time>
      </trkpt>
      <trkpt lat="39.839277137070894" lon="-6.151880901306868">
        <ele>595.7999877929688</ele>
        <time>2015-05-03T09:45:41.000Z</time>
      </trkpt>
      <trkpt lat="39.83925643377006" lon="-6.151809319853783">
        <ele>596.0</ele>
        <time>2015-05-03T09:45:44.000Z</time>
      </trkpt>
      <trkpt lat="39.83923832885921" lon="-6.151723237708211">
        <ele>596.7999877929688</ele>
        <time>2015-05-03T09:45:47.000Z</time>
      </trkpt>
      <trkpt lat="39.839205304160714" lon="-6.151617961004376">
        <ele>597.5999755859375</ele>
        <time>2015-05-03T09:45:51.000Z</time>
      </trkpt>
      <trkpt lat="39.83919683843851" lon="-6.1515905521810055">
        <ele>598.0</ele>
        <time>2015-05-03T09:45:52.000Z</time>
      </trkpt>
      <trkpt lat="39.83915417455137" lon="-6.15144956856966">
        <ele>598.7999877929688</ele>
        <time>2015-05-03T09:45:57.000Z</time>
      </trkpt>
      <trkpt lat="39.83914495445788" lon="-6.1514197289943695">
        <ele>599.2000122070312</ele>
        <time>2015-05-03T09:45:58.000Z</time>
      </trkpt>
      <trkpt lat="39.83910145238042" lon="-6.151288049295545">
        <ele>600.4000244140625</ele>
        <time>2015-05-03T09:46:03.000Z</time>
      </trkpt>
      <trkpt lat="39.83904671855271" lon="-6.151049751788378">
        <ele>601.2000122070312</ele>
        <time>2015-05-03T09:46:11.000Z</time>
      </trkpt>
      <trkpt lat="39.83904177322984" lon="-6.151021337136626">
        <ele>601.4000244140625</ele>
        <time>2015-05-03T09:46:12.000Z</time>
      </trkpt>
      <trkpt lat="39.83902224339545" lon="-6.150852525606751">
        <ele>601.7999877929688</ele>
        <time>2015-05-03T09:46:17.000Z</time>
      </trkpt>
      <trkpt lat="39.83899215236306" lon="-6.150614563375711">
        <ele>601.5999755859375</ele>
        <time>2015-05-03T09:46:22.000Z</time>
      </trkpt>
      <trkpt lat="39.838914116844535" lon="-6.150254895910621">
        <ele>602.5999755859375</ele>
        <time>2015-05-03T09:46:29.000Z</time>
      </trkpt>
      <trkpt lat="39.8388693574816" lon="-6.150006288662553">
        <ele>603.0</ele>
        <time>2015-05-03T09:46:34.000Z</time>
      </trkpt>
      <trkpt lat="39.83882820233703" lon="-6.149862119928002">
        <ele>603.5999755859375</ele>
        <time>2015-05-03T09:46:37.000Z</time>
      </trkpt>
      <trkpt lat="39.8387810960412" lon="-6.149731697514653">
        <ele>604.4000244140625</ele>
        <time>2015-05-03T09:46:40.000Z</time>
      </trkpt>
      <trkpt lat="39.838734241202474" lon="-6.149557437747717">
        <ele>604.7999877929688</ele>
        <time>2015-05-03T09:46:44.000Z</time>
      </trkpt>
      <trkpt lat="39.83869090676308" lon="-6.1494041327387094">
        <ele>605.0</ele>
        <time>2015-05-03T09:46:47.000Z</time>
      </trkpt>
      <trkpt lat="39.83862200751901" lon="-6.149187460541725">
        <ele>604.7999877929688</ele>
        <time>2015-05-03T09:46:51.000Z</time>
      </trkpt>
      <trkpt lat="39.838557383045554" lon="-6.149027533829212">
        <ele>605.2000122070312</ele>
        <time>2015-05-03T09:46:54.000Z</time>
      </trkpt>
      <trkpt lat="39.838520335033536" lon="-6.148906666785479">
        <ele>604.5999755859375</ele>
        <time>2015-05-03T09:46:56.000Z</time>
      </trkpt>
      <trkpt lat="39.8384428024292" lon="-6.148636601865292">
        <ele>604.2000122070312</ele>
        <time>2015-05-03T09:47:00.000Z</time>
      </trkpt>
      <trkpt lat="39.83842469751835" lon="-6.1485624220222235">
        <ele>603.7999877929688</ele>
        <time>2015-05-03T09:47:01.000Z</time>
      </trkpt>
      <trkpt lat="39.83839737251401" lon="-6.148303002119064">
        <ele>602.7999877929688</ele>
        <time>2015-05-03T09:47:04.000Z</time>
      </trkpt>
      <trkpt lat="39.838356133550406" lon="-6.148009551689029">
        <ele>601.4000244140625</ele>
        <time>2015-05-03T09:47:07.000Z</time>
      </trkpt>
      <trkpt lat="39.83832612633705" lon="-6.147792376577854">
        <ele>599.7999877929688</ele>
        <time>2015-05-03T09:47:09.000Z</time>
      </trkpt>
      <trkpt lat="39.83829620294273" lon="-6.147564891725779">
        <ele>598.5999755859375</ele>
        <time>2015-05-03T09:47:11.000Z</time>
      </trkpt>
      <trkpt lat="39.83827575109899" lon="-6.147451316937804">
        <ele>598.4000244140625</ele>
        <time>2015-05-03T09:47:12.000Z</time>
      </trkpt>
      <trkpt lat="39.83825814910233" lon="-6.147333970293403">
        <ele>598.2000122070312</ele>
        <time>2015-05-03T09:47:13.000Z</time>
      </trkpt>
      <trkpt lat="39.838228141888976" lon="-6.147104389965534">
        <ele>597.5999755859375</ele>
        <time>2015-05-03T09:47:15.000Z</time>
      </trkpt>
      <trkpt lat="39.83817198313773" lon="-6.14664732478559">
        <ele>596.5999755859375</ele>
        <time>2015-05-03T09:47:19.000Z</time>
      </trkpt>
      <trkpt lat="39.83816762454808" lon="-6.146539198234677">
        <ele>596.4000244140625</ele>
        <time>2015-05-03T09:47:20.000Z</time>
      </trkpt>
      <trkpt lat="39.83817701227963" lon="-6.146436184644699">
        <ele>596.4000244140625</ele>
        <time>2015-05-03T09:47:21.000Z</time>
      </trkpt>
      <trkpt lat="39.8382234480232" lon="-6.146256979554892">
        <ele>596.7999877929688</ele>
        <time>2015-05-03T09:47:23.000Z</time>
      </trkpt>
      <trkpt lat="39.83828748576343" lon="-6.14609956741333">
        <ele>597.5999755859375</ele>
        <time>2015-05-03T09:47:25.000Z</time>
      </trkpt>
      <trkpt lat="39.83835730701685" lon="-6.145948776975274">
        <ele>597.7999877929688</ele>
        <time>2015-05-03T09:47:27.000Z</time>
      </trkpt>
      <trkpt lat="39.83838169835508" lon="-6.1458679754287004">
        <ele>597.7999877929688</ele>
        <time>2015-05-03T09:47:28.000Z</time>
      </trkpt>
      <trkpt lat="39.838481694459915" lon="-6.145517695695162">
        <ele>597.7999877929688</ele>
        <time>2015-05-03T09:47:32.000Z</time>
      </trkpt>
      <trkpt lat="39.838525112718344" lon="-6.145325833931565">
        <ele>597.2000122070312</ele>
        <time>2015-05-03T09:47:34.000Z</time>
      </trkpt>
      <trkpt lat="39.83858898282051" lon="-6.145037664100528">
        <ele>597.0</ele>
        <time>2015-05-03T09:47:37.000Z</time>
      </trkpt>
      <trkpt lat="39.83868068084121" lon="-6.144571714103222">
        <ele>598.0</ele>
        <time>2015-05-03T09:47:42.000Z</time>
      </trkpt>
      <trkpt lat="39.83871144242585" lon="-6.1441386211663485">
        <ele>598.2000122070312</ele>
        <time>2015-05-03T09:47:47.000Z</time>
      </trkpt>
      <trkpt lat="39.838723009452224" lon="-6.143873417750001">
        <ele>598.0</ele>
        <time>2015-05-03T09:47:50.000Z</time>
      </trkpt>
      <trkpt lat="39.83873600140214" lon="-6.143702762201428">
        <ele>598.0</ele>
        <time>2015-05-03T09:47:52.000Z</time>
      </trkpt>
      <trkpt lat="39.83875553123653" lon="-6.143293054774404">
        <ele>598.0</ele>
        <time>2015-05-03T09:47:57.000Z</time>
      </trkpt>
      <trkpt lat="39.83874689787626" lon="-6.143149305135012">
        <ele>598.0</ele>
        <time>2015-05-03T09:47:59.000Z</time>
      </trkpt>
      <trkpt lat="39.83871647156775" lon="-6.142933135852218">
        <ele>598.2000122070312</ele>
        <time>2015-05-03T09:48:02.000Z</time>
      </trkpt>
      <trkpt lat="39.838669281452894" lon="-6.142738675698638">
        <ele>599.0</ele>
        <time>2015-05-03T09:48:05.000Z</time>
      </trkpt>
      <trkpt lat="39.83865603804588" lon="-6.1426781583577394">
        <ele>599.2000122070312</ele>
        <time>2015-05-03T09:48:06.000Z</time>
      </trkpt>
      <trkpt lat="39.838638016954064" lon="-6.142554273828864">
        <ele>599.4000244140625</ele>
        <time>2015-05-03T09:48:08.000Z</time>
      </trkpt>
      <trkpt lat="39.83860733918846" lon="-6.142367860302329">
        <ele>600.2000122070312</ele>
        <time>2015-05-03T09:48:11.000Z</time>
      </trkpt>
      <trkpt lat="39.83859241940081" lon="-6.142308684065938">
        <ele>600.2000122070312</ele>
        <time>2015-05-03T09:48:12.000Z</time>
      </trkpt>
      <trkpt lat="39.838507594540715" lon="-6.141887493431568">
        <ele>601.0</ele>
        <time>2015-05-03T09:48:19.000Z</time>
      </trkpt>
      <trkpt lat="39.83850248157978" lon="-6.141827059909701">
        <ele>601.4000244140625</ele>
        <time>2015-05-03T09:48:20.000Z</time>
      </trkpt>
      <trkpt lat="39.83846426010132" lon="-6.141648273915052">
        <ele>601.7999877929688</ele>
        <time>2015-05-03T09:48:23.000Z</time>
      </trkpt>
      <trkpt lat="39.838423607870936" lon="-6.141470326110721">
        <ele>601.7999877929688</ele>
        <time>2015-05-03T09:48:26.000Z</time>
      </trkpt>
      <trkpt lat="39.83839485794306" lon="-6.141352811828256">
        <ele>602.5999755859375</ele>
        <time>2015-05-03T09:48:28.000Z</time>
      </trkpt>
      <trkpt lat="39.838362419977784" lon="-6.141240242868662">
        <ele>603.2000122070312</ele>
        <time>2015-05-03T09:48:30.000Z</time>
      </trkpt>
      <trkpt lat="39.83832495287061" lon="-6.14107696339488">
        <ele>603.5999755859375</ele>
        <time>2015-05-03T09:48:33.000Z</time>
      </trkpt>
      <trkpt lat="39.838305758312345" lon="-6.1409046314656734">
        <ele>604.0</ele>
        <time>2015-05-03T09:48:36.000Z</time>
      </trkpt>
      <trkpt lat="39.83827960677445" lon="-6.140713356435299">
        <ele>604.0</ele>
        <time>2015-05-03T09:48:39.000Z</time>
      </trkpt>
      <trkpt lat="39.838246665894985" lon="-6.140495762228966">
        <ele>603.4000244140625</ele>
        <time>2015-05-03T09:48:42.000Z</time>
      </trkpt>
      <trkpt lat="39.83821372501552" lon="-6.140236593782902">
        <ele>602.4000244140625</ele>
        <time>2015-05-03T09:48:45.000Z</time>
      </trkpt>
      <trkpt lat="39.83819201588631" lon="-6.139943227171898">
        <ele>601.0</ele>
        <time>2015-05-03T09:48:48.000Z</time>
      </trkpt>
      <trkpt lat="39.83819025568664" lon="-6.139839543029666">
        <ele>599.5999755859375</ele>
        <time>2015-05-03T09:48:49.000Z</time>
      </trkpt>
      <trkpt lat="39.83819461427629" lon="-6.1396043468266726">
        <ele>597.5999755859375</ele>
        <time>2015-05-03T09:48:51.000Z</time>
      </trkpt>
      <trkpt lat="39.838202157989144" lon="-6.139482222497463">
        <ele>596.5999755859375</ele>
        <time>2015-05-03T09:48:52.000Z</time>
      </trkpt>
      <trkpt lat="39.838208025321364" lon="-6.139357164502144">
        <ele>595.7999877929688</ele>
        <time>2015-05-03T09:48:53.000Z</time>
      </trkpt>
      <trkpt lat="39.838212886825204" lon="-6.139233447611332">
        <ele>595.2000122070312</ele>
        <time>2015-05-03T09:48:54.000Z</time>
      </trkpt>
      <trkpt lat="39.83821908943355" lon="-6.138986432924867">
        <ele>593.7999877929688</ele>
        <time>2015-05-03T09:48:56.000Z</time>
      </trkpt>
      <trkpt lat="39.83822386711836" lon="-6.138735394924879">
        <ele>592.5999755859375</ele>
        <time>2015-05-03T09:48:58.000Z</time>
      </trkpt>
      <trkpt lat="39.83823275193572" lon="-6.138488547876477">
        <ele>592.0</ele>
        <time>2015-05-03T09:49:00.000Z</time>
      </trkpt>
      <trkpt lat="39.838241720572114" lon="-6.1383665073663">
        <ele>591.2000122070312</ele>
        <time>2015-05-03T09:49:01.000Z</time>
      </trkpt>
      <trkpt lat="39.838259825482965" lon="-6.138117061927915">
        <ele>590.0</ele>
        <time>2015-05-03T09:49:03.000Z</time>
      </trkpt>
      <trkpt lat="39.83827717602253" lon="-6.137863006442785">
        <ele>589.5999755859375</ele>
        <time>2015-05-03T09:49:05.000Z</time>
      </trkpt>
      <trkpt lat="39.838301399722695" lon="-6.137607777491212">
        <ele>588.5999755859375</ele>
        <time>2015-05-03T09:49:07.000Z</time>
      </trkpt>
      <trkpt lat="39.838316570967436" lon="-6.137355314567685">
        <ele>587.0</ele>
        <time>2015-05-03T09:49:09.000Z</time>
      </trkpt>
      <trkpt lat="39.83832377940416" lon="-6.137226819992065">
        <ele>586.4000244140625</ele>
        <time>2015-05-03T09:49:10.000Z</time>
      </trkpt>
      <trkpt lat="39.838344398885965" lon="-6.1369758658111095">
        <ele>585.5999755859375</ele>
        <time>2015-05-03T09:49:12.000Z</time>
      </trkpt>
      <trkpt lat="39.838360073044896" lon="-6.13685566931963">
        <ele>584.5999755859375</ele>
        <time>2015-05-03T09:49:13.000Z</time>
      </trkpt>
      <trkpt lat="39.83838144689798" lon="-6.136738574132323">
        <ele>584.0</ele>
        <time>2015-05-03T09:49:14.000Z</time>
      </trkpt>
      <trkpt lat="39.83842662535608" lon="-6.136510921642184">
        <ele>583.2000122070312</ele>
        <time>2015-05-03T09:49:16.000Z</time>
      </trkpt>
      <trkpt lat="39.838468451052904" lon="-6.136405477300286">
        <ele>583.0</ele>
        <time>2015-05-03T09:49:17.000Z</time>
      </trkpt>
      <trkpt lat="39.83851304277778" lon="-6.1363020446151495">
        <ele>582.2000122070312</ele>
        <time>2015-05-03T09:49:18.000Z</time>
      </trkpt>
      <trkpt lat="39.83861823566258" lon="-6.136094005778432">
        <ele>580.2000122070312</ele>
        <time>2015-05-03T09:49:20.000Z</time>
      </trkpt>
      <trkpt lat="39.83873323537409" lon="-6.135876830667257">
        <ele>578.5999755859375</ele>
        <time>2015-05-03T09:49:22.000Z</time>
      </trkpt>
      <trkpt lat="39.838854018598795" lon="-6.13565756008029">
        <ele>577.0</ele>
        <time>2015-05-03T09:49:24.000Z</time>
      </trkpt>
      <trkpt lat="39.83898418955505" lon="-6.135437618941069">
        <ele>575.5999755859375</ele>
        <time>2015-05-03T09:49:26.000Z</time>
      </trkpt>
      <trkpt lat="39.839131040498614" lon="-6.135215582326055">
        <ele>574.4000244140625</ele>
        <time>2015-05-03T09:49:28.000Z</time>
      </trkpt>
      <trkpt lat="39.83919247984886" lon="-6.1351248901337385">
        <ele>573.2000122070312</ele>
        <time>2015-05-03T09:49:29.000Z</time>
      </trkpt>
      <trkpt lat="39.83928367495537" lon="-6.134985750541091">
        <ele>571.4000244140625</ele>
        <time>2015-05-03T09:49:31.000Z</time>
      </trkpt>
      <trkpt lat="39.839321142062545" lon="-6.134957419708371">
        <ele>570.7999877929688</ele>
        <time>2015-05-03T09:49:32.000Z</time>
      </trkpt>
      <trkpt lat="39.83934913761914" lon="-6.134963454678655">
        <ele>570.0</ele>
        <time>2015-05-03T09:49:33.000Z</time>
      </trkpt>
      <trkpt lat="39.839351903647184" lon="-6.135037215426564">
        <ele>569.4000244140625</ele>
        <time>2015-05-03T09:49:36.000Z</time>
      </trkpt>
      <trkpt lat="39.839306054636836" lon="-6.135153137147427">
        <ele>569.0</ele>
        <time>2015-05-03T09:49:38.000Z</time>
      </trkpt>
      <trkpt lat="39.83929046429694" lon="-6.13522463478148">
        <ele>569.0</ele>
        <time>2015-05-03T09:49:39.000Z</time>
      </trkpt>
      <trkpt lat="39.839279651641846" lon="-6.135307028889656">
        <ele>568.4000244140625</ele>
        <time>2015-05-03T09:49:40.000Z</time>
      </trkpt>
      <trkpt lat="39.83927018009126" lon="-6.135393865406513">
        <ele>568.2000122070312</ele>
        <time>2015-05-03T09:49:41.000Z</time>
      </trkpt>
      <trkpt lat="39.83926506713033" lon="-6.135490173473954">
        <ele>567.5999755859375</ele>
        <time>2015-05-03T09:49:42.000Z</time>
      </trkpt>
      <trkpt lat="39.83926557004452" lon="-6.1355887446552515">
        <ele>567.2000122070312</ele>
        <time>2015-05-03T09:49:43.000Z</time>
      </trkpt>
      <trkpt lat="39.83926431275904" lon="-6.135697038844228">
        <ele>566.5999755859375</ele>
        <time>2015-05-03T09:49:44.000Z</time>
      </trkpt>
      <trkpt lat="39.839267414063215" lon="-6.13592485897243">
        <ele>565.2000122070312</ele>
        <time>2015-05-03T09:49:46.000Z</time>
      </trkpt>
      <trkpt lat="39.83927546069026" lon="-6.13617061637342">
        <ele>564.4000244140625</ele>
        <time>2015-05-03T09:49:48.000Z</time>
      </trkpt>
      <trkpt lat="39.83928677625954" lon="-6.136297266930342">
        <ele>563.7999877929688</ele>
        <time>2015-05-03T09:49:49.000Z</time>
      </trkpt>
      <trkpt lat="39.83931569382548" lon="-6.13655861467123">
        <ele>562.4000244140625</ele>
        <time>2015-05-03T09:49:51.000Z</time>
      </trkpt>
      <trkpt lat="39.839354921132326" lon="-6.136825159192085">
        <ele>561.0</ele>
        <time>2015-05-03T09:49:53.000Z</time>
      </trkpt>
      <trkpt lat="39.83938534744084" lon="-6.137096062302589">
        <ele>559.7999877929688</ele>
        <time>2015-05-03T09:49:55.000Z</time>
      </trkpt>
      <trkpt lat="39.83939758501947" lon="-6.137468470260501">
        <ele>559.7999877929688</ele>
        <time>2015-05-03T09:49:58.000Z</time>
      </trkpt>
      <trkpt lat="39.839382749050856" lon="-6.138005582615733">
        <ele>560.7999877929688</ele>
        <time>2015-05-03T09:50:03.000Z</time>
      </trkpt>
      <trkpt lat="39.8393889516592" lon="-6.138105746358633">
        <ele>560.7999877929688</ele>
        <time>2015-05-03T09:50:04.000Z</time>
      </trkpt>
      <trkpt lat="39.83942952007055" lon="-6.138554764911532">
        <ele>560.7999877929688</ele>
        <time>2015-05-03T09:50:09.000Z</time>
      </trkpt>
      <trkpt lat="39.839435471221805" lon="-6.138640092685819">
        <ele>561.0</ele>
        <time>2015-05-03T09:50:10.000Z</time>
      </trkpt>
      <trkpt lat="39.83949305489659" lon="-6.1391116585582495">
        <ele>561.7999877929688</ele>
        <time>2015-05-03T09:50:16.000Z</time>
      </trkpt>
      <trkpt lat="39.839503448456526" lon="-6.139184162020683">
        <ele>562.0</ele>
        <time>2015-05-03T09:50:17.000Z</time>
      </trkpt>
      <trkpt lat="39.83954519033432" lon="-6.139460681006312">
        <ele>562.7999877929688</ele>
        <time>2015-05-03T09:50:21.000Z</time>
      </trkpt>
      <trkpt lat="39.839551812037826" lon="-6.139526562765241">
        <ele>563.2000122070312</ele>
        <time>2015-05-03T09:50:22.000Z</time>
      </trkpt>
      <trkpt lat="39.83956715092063" lon="-6.139714568853378">
        <ele>564.4000244140625</ele>
        <time>2015-05-03T09:50:25.000Z</time>
      </trkpt>
      <trkpt lat="39.83958902768791" lon="-6.139943478628993">
        <ele>565.5999755859375</ele>
        <time>2015-05-03T09:50:29.000Z</time>
      </trkpt>
      <trkpt lat="39.83960269019008" lon="-6.1401712987571955">
        <ele>566.4000244140625</ele>
        <time>2015-05-03T09:50:33.000Z</time>
      </trkpt>
      <trkpt lat="39.83960386365652" lon="-6.140287052839994">
        <ele>566.7999877929688</ele>
        <time>2015-05-03T09:50:35.000Z</time>
      </trkpt>
      <trkpt lat="39.83961593359709" lon="-6.14034304395318">
        <ele>567.0</ele>
        <time>2015-05-03T09:50:36.000Z</time>
      </trkpt>
      <trkpt lat="39.83962146565318" lon="-6.140395849943161">
        <ele>567.0</ele>
        <time>2015-05-03T09:50:37.000Z</time>
      </trkpt>
      <trkpt lat="39.83962632715702" lon="-6.140558458864689">
        <ele>567.7999877929688</ele>
        <time>2015-05-03T09:50:40.000Z</time>
      </trkpt>
      <trkpt lat="39.83964191749692" lon="-6.140721403062344">
        <ele>568.2000122070312</ele>
        <time>2015-05-03T09:50:43.000Z</time>
      </trkpt>
      <trkpt lat="39.839655915275216" lon="-6.140832211822271">
        <ele>568.7999877929688</ele>
        <time>2015-05-03T09:50:45.000Z</time>
      </trkpt>
      <trkpt lat="39.839658346027136" lon="-6.1408869456499815">
        <ele>569.0</ele>
        <time>2015-05-03T09:50:46.000Z</time>
      </trkpt>
      <trkpt lat="39.839691035449505" lon="-6.141111915931106">
        <ele>569.2000122070312</ele>
        <time>2015-05-03T09:50:50.000Z</time>
      </trkpt>
      <trkpt lat="39.839725736528635" lon="-6.141396481543779">
        <ele>569.7999877929688</ele>
        <time>2015-05-03T09:50:55.000Z</time>
      </trkpt>
      <trkpt lat="39.839745769277215" lon="-6.141517600044608">
        <ele>569.7999877929688</ele>
        <time>2015-05-03T09:50:57.000Z</time>
      </trkpt>
      <trkpt lat="39.839827828109264" lon="-6.1419642716646194">
        <ele>569.7999877929688</ele>
        <time>2015-05-03T09:51:04.000Z</time>
      </trkpt>
      <trkpt lat="39.839835120365024" lon="-6.142035853117704">
        <ele>569.7999877929688</ele>
        <time>2015-05-03T09:51:05.000Z</time>
      </trkpt>
      <trkpt lat="39.83988071791828" lon="-6.142324693500996">
        <ele>569.0</ele>
        <time>2015-05-03T09:51:09.000Z</time>
      </trkpt>
      <trkpt lat="39.83988876454532" lon="-6.142473220825195">
        <ele>568.7999877929688</ele>
        <time>2015-05-03T09:51:11.000Z</time>
      </trkpt>
      <trkpt lat="39.839896224439144" lon="-6.142677320167422">
        <ele>569.4000244140625</ele>
        <time>2015-05-03T09:51:14.000Z</time>
      </trkpt>
      <trkpt lat="39.83989245258272" lon="-6.142945792526007">
        <ele>569.7999877929688</ele>
        <time>2015-05-03T09:51:18.000Z</time>
      </trkpt>
      <trkpt lat="39.83988172374666" lon="-6.143073616549373">
        <ele>570.0</ele>
        <time>2015-05-03T09:51:20.000Z</time>
      </trkpt>
      <trkpt lat="39.83985942788422" lon="-6.143261957913637">
        <ele>570.7999877929688</ele>
        <time>2015-05-03T09:51:23.000Z</time>
      </trkpt>
      <trkpt lat="39.839855656027794" lon="-6.143325241282582">
        <ele>570.7999877929688</ele>
        <time>2015-05-03T09:51:24.000Z</time>
      </trkpt>
      <trkpt lat="39.839836712926626" lon="-6.1435257364064455">
        <ele>571.2000122070312</ele>
        <time>2015-05-03T09:51:27.000Z</time>
      </trkpt>
      <trkpt lat="39.83977778814733" lon="-6.143837794661522">
        <ele>572.0</ele>
        <time>2015-05-03T09:51:32.000Z</time>
      </trkpt>
      <trkpt lat="39.83977150171995" lon="-6.143900575116277">
        <ele>572.4000244140625</ele>
        <time>2015-05-03T09:51:33.000Z</time>
      </trkpt>
      <trkpt lat="39.839761443436146" lon="-6.143957152962685">
        <ele>572.7999877929688</ele>
        <time>2015-05-03T09:51:34.000Z</time>
      </trkpt>
      <trkpt lat="39.839735459536314" lon="-6.144070979207754">
        <ele>573.2000122070312</ele>
        <time>2015-05-03T09:51:36.000Z</time>
      </trkpt>
      <trkpt lat="39.83967427164316" lon="-6.1443485878407955">
        <ele>573.7999877929688</ele>
        <time>2015-05-03T09:51:41.000Z</time>
      </trkpt>
      <trkpt lat="39.83965859748423" lon="-6.144403405487537">
        <ele>574.4000244140625</ele>
        <time>2015-05-03T09:51:42.000Z</time>
      </trkpt>
      <trkpt lat="39.83955918811262" lon="-6.144746979698539">
        <ele>575.0</ele>
        <time>2015-05-03T09:51:48.000Z</time>
      </trkpt>
      <trkpt lat="39.83953655697405" lon="-6.144865080714226">
        <ele>575.4000244140625</ele>
        <time>2015-05-03T09:51:50.000Z</time>
      </trkpt>
      <trkpt lat="39.83950604684651" lon="-6.144977817311883">
        <ele>575.5999755859375</ele>
        <time>2015-05-03T09:51:52.000Z</time>
      </trkpt>
      <trkpt lat="39.83949330635369" lon="-6.145040178671479">
        <ele>575.4000244140625</ele>
        <time>2015-05-03T09:51:53.000Z</time>
      </trkpt>
      <trkpt lat="39.83939624391496" lon="-6.145507805049419">
        <ele>575.2000122070312</ele>
        <time>2015-05-03T09:52:00.000Z</time>
      </trkpt>
      <trkpt lat="39.83936347067356" lon="-6.145653985440731">
        <ele>574.7999877929688</ele>
        <time>2015-05-03T09:52:02.000Z</time>
      </trkpt>
      <trkpt lat="39.83930773101747" lon="-6.145867723971605">
        <ele>575.0</ele>
        <time>2015-05-03T09:52:05.000Z</time>
      </trkpt>
      <trkpt lat="39.83919868245721" lon="-6.146379103884101">
        <ele>575.4000244140625</ele>
        <time>2015-05-03T09:52:12.000Z</time>
      </trkpt>
      <trkpt lat="39.839184852316976" lon="-6.1467712093144655">
        <ele>575.0</ele>
        <time>2015-05-03T09:52:17.000Z</time>
      </trkpt>
      <trkpt lat="39.83918745070696" lon="-6.147052338346839">
        <ele>576.4000244140625</ele>
        <time>2015-05-03T09:52:21.000Z</time>
      </trkpt>
      <trkpt lat="39.83919348567724" lon="-6.147117968648672">
        <ele>576.7999877929688</ele>
        <time>2015-05-03T09:52:22.000Z</time>
      </trkpt>
      <trkpt lat="39.839254254475236" lon="-6.147488784044981">
        <ele>577.5999755859375</ele>
        <time>2015-05-03T09:52:28.000Z</time>
      </trkpt>
      <trkpt lat="39.83930630609393" lon="-6.147796651348472">
        <ele>578.0</ele>
        <time>2015-05-03T09:52:33.000Z</time>
      </trkpt>
      <trkpt lat="39.83931443654001" lon="-6.147857923060656">
        <ele>578.7999877929688</ele>
        <time>2015-05-03T09:52:34.000Z</time>
      </trkpt>
      <trkpt lat="39.83934595249593" lon="-6.148045090958476">
        <ele>578.5999755859375</ele>
        <time>2015-05-03T09:52:37.000Z</time>
      </trkpt>
      <trkpt lat="39.83941904269159" lon="-6.148362932726741">
        <ele>579.2000122070312</ele>
        <time>2015-05-03T09:52:42.000Z</time>
      </trkpt>
      <trkpt lat="39.83944695442915" lon="-6.148426970466971">
        <ele>579.4000244140625</ele>
        <time>2015-05-03T09:52:43.000Z</time>
      </trkpt>
      <trkpt lat="39.8395617865026" lon="-6.148747242987156">
        <ele>577.0</ele>
        <time>2015-05-03T09:52:47.000Z</time>
      </trkpt>
      <trkpt lat="39.839586513116956" lon="-6.148839527741075">
        <ele>576.7999877929688</ele>
        <time>2015-05-03T09:52:48.000Z</time>
      </trkpt>
      <trkpt lat="39.83962439931929" lon="-6.148932483047247">
        <ele>576.2000122070312</ele>
        <time>2015-05-03T09:52:49.000Z</time>
      </trkpt>
      <trkpt lat="39.839659268036485" lon="-6.149029294028878">
        <ele>575.4000244140625</ele>
        <time>2015-05-03T09:52:50.000Z</time>
      </trkpt>
      <trkpt lat="39.83974065631628" lon="-6.149236746132374">
        <ele>573.5999755859375</ele>
        <time>2015-05-03T09:52:52.000Z</time>
      </trkpt>
      <trkpt lat="39.839846938848495" lon="-6.149466326460242">
        <ele>571.5999755859375</ele>
        <time>2015-05-03T09:52:54.000Z</time>
      </trkpt>
      <trkpt lat="39.83990435488522" lon="-6.149588283151388">
        <ele>570.4000244140625</ele>
        <time>2015-05-03T09:52:55.000Z</time>
      </trkpt>
      <trkpt lat="39.83995841816068" lon="-6.149722225964069">
        <ele>569.2000122070312</ele>
        <time>2015-05-03T09:52:56.000Z</time>
      </trkpt>
      <trkpt lat="39.84000753611326" lon="-6.149865472689271">
        <ele>567.7999877929688</ele>
        <time>2015-05-03T09:52:57.000Z</time>
      </trkpt>
      <trkpt lat="39.84005179256201" lon="-6.150018107146025">
        <ele>566.5999755859375</ele>
        <time>2015-05-03T09:52:58.000Z</time>
      </trkpt>
      <trkpt lat="39.84010107815266" lon="-6.150172166526318">
        <ele>564.5999755859375</ele>
        <time>2015-05-03T09:52:59.000Z</time>
      </trkpt>
      <trkpt lat="39.840150782838464" lon="-6.1503297463059425">
        <ele>563.4000244140625</ele>
        <time>2015-05-03T09:53:00.000Z</time>
      </trkpt>
      <trkpt lat="39.840208031237125" lon="-6.15049185231328">
        <ele>561.4000244140625</ele>
        <time>2015-05-03T09:53:01.000Z</time>
      </trkpt>
      <trkpt lat="39.840267626568675" lon="-6.150656724348664">
        <ele>559.7999877929688</ele>
        <time>2015-05-03T09:53:02.000Z</time>
      </trkpt>
      <trkpt lat="39.84033619053662" lon="-6.150827966630459">
        <ele>558.0</ele>
        <time>2015-05-03T09:53:03.000Z</time>
      </trkpt>
      <trkpt lat="39.84040039591491" lon="-6.150992168113589">
        <ele>555.2000122070312</ele>
        <time>2015-05-03T09:53:04.000Z</time>
      </trkpt>
      <trkpt lat="39.84046225436032" lon="-6.15113734267652">
        <ele>552.4000244140625</ele>
        <time>2015-05-03T09:53:05.000Z</time>
      </trkpt>
      <trkpt lat="39.840520676225424" lon="-6.151274386793375">
        <ele>549.7999877929688</ele>
        <time>2015-05-03T09:53:06.000Z</time>
      </trkpt>
      <trkpt lat="39.84058043919504" lon="-6.15140019915998">
        <ele>548.5999755859375</ele>
        <time>2015-05-03T09:53:07.000Z</time>
      </trkpt>
      <trkpt lat="39.840641459450126" lon="-6.151510588824749">
        <ele>546.7999877929688</ele>
        <time>2015-05-03T09:53:08.000Z</time>
      </trkpt>
      <trkpt lat="39.840718153864145" lon="-6.151615362614393">
        <ele>545.0</ele>
        <time>2015-05-03T09:53:09.000Z</time>
      </trkpt>
      <trkpt lat="39.84080641530454" lon="-6.15172466263175">
        <ele>543.4000244140625</ele>
        <time>2015-05-03T09:53:10.000Z</time>
      </trkpt>
      <trkpt lat="39.84090071171522" lon="-6.1518376506865025">
        <ele>541.5999755859375</ele>
        <time>2015-05-03T09:53:11.000Z</time>
      </trkpt>
      <trkpt lat="39.84100079163909" lon="-6.151953404769301">
        <ele>540.0</ele>
        <time>2015-05-03T09:53:12.000Z</time>
      </trkpt>
      <trkpt lat="39.84109718352556" lon="-6.15207158960402">
        <ele>537.5999755859375</ele>
        <time>2015-05-03T09:53:13.000Z</time>
      </trkpt>
      <trkpt lat="39.84117924235761" lon="-6.1521978210657835">
        <ele>535.4000244140625</ele>
        <time>2015-05-03T09:53:14.000Z</time>
      </trkpt>
      <trkpt lat="39.841256104409695" lon="-6.152326483279467">
        <ele>533.0</ele>
        <time>2015-05-03T09:53:15.000Z</time>
      </trkpt>
      <trkpt lat="39.841318214312196" lon="-6.152468975633383">
        <ele>531.5999755859375</ele>
        <time>2015-05-03T09:53:16.000Z</time>
      </trkpt>
      <trkpt lat="39.8413663264364" lon="-6.152612557634711">
        <ele>530.5999755859375</ele>
        <time>2015-05-03T09:53:17.000Z</time>
      </trkpt>
      <trkpt lat="39.84139759093523" lon="-6.152768712490797">
        <ele>529.7999877929688</ele>
        <time>2015-05-03T09:53:18.000Z</time>
      </trkpt>
      <trkpt lat="39.84141217544675" lon="-6.152922939509153">
        <ele>528.4000244140625</ele>
        <time>2015-05-03T09:53:19.000Z</time>
      </trkpt>
      <trkpt lat="39.84141427092254" lon="-6.153068700805306">
        <ele>527.2000122070312</ele>
        <time>2015-05-03T09:53:20.000Z</time>
      </trkpt>
      <trkpt lat="39.8413509875536" lon="-6.153316050767899">
        <ele>526.7999877929688</ele>
        <time>2015-05-03T09:53:22.000Z</time>
      </trkpt>
      <trkpt lat="39.84130681492388" lon="-6.1534173879772425">
        <ele>526.7999877929688</ele>
        <time>2015-05-03T09:53:23.000Z</time>
      </trkpt>
      <trkpt lat="39.84126465395093" lon="-6.15362785756588">
        <ele>526.5999755859375</ele>
        <time>2015-05-03T09:53:25.000Z</time>
      </trkpt>
      <trkpt lat="39.841256188228726" lon="-6.153735565021634">
        <ele>526.2000122070312</ele>
        <time>2015-05-03T09:53:26.000Z</time>
      </trkpt>
      <trkpt lat="39.841262977570295" lon="-6.153961541131139">
        <ele>524.5999755859375</ele>
        <time>2015-05-03T09:53:28.000Z</time>
      </trkpt>
      <trkpt lat="39.84127680771053" lon="-6.15407888777554">
        <ele>524.0</ele>
        <time>2015-05-03T09:53:29.000Z</time>
      </trkpt>
      <trkpt lat="39.84128125011921" lon="-6.154200257733464">
        <ele>523.2000122070312</ele>
        <time>2015-05-03T09:53:30.000Z</time>
      </trkpt>
      <trkpt lat="39.841312346979976" lon="-6.154442662373185">
        <ele>522.0</ele>
        <time>2015-05-03T09:53:32.000Z</time>
      </trkpt>
      <trkpt lat="39.84133497811854" lon="-6.154559087008238">
        <ele>521.4000244140625</ele>
        <time>2015-05-03T09:53:33.000Z</time>
      </trkpt>
      <trkpt lat="39.8413369897753" lon="-6.154683222994208">
        <ele>520.5999755859375</ele>
        <time>2015-05-03T09:53:34.000Z</time>
      </trkpt>
      <trkpt lat="39.841275634244084" lon="-6.154923867434263">
        <ele>520.2000122070312</ele>
        <time>2015-05-03T09:53:36.000Z</time>
      </trkpt>
      <trkpt lat="39.84124168753624" lon="-6.1550424713641405">
        <ele>519.5999755859375</ele>
        <time>2015-05-03T09:53:37.000Z</time>
      </trkpt>
      <trkpt lat="39.84123095870018" lon="-6.155150765553117">
        <ele>519.2000122070312</ele>
        <time>2015-05-03T09:53:38.000Z</time>
      </trkpt>
      <trkpt lat="39.841234646737576" lon="-6.155250845476985">
        <ele>518.5999755859375</ele>
        <time>2015-05-03T09:53:39.000Z</time>
      </trkpt>
      <trkpt lat="39.841260965913534" lon="-6.155345141887665">
        <ele>518.4000244140625</ele>
        <time>2015-05-03T09:53:40.000Z</time>
      </trkpt>
      <trkpt lat="39.84137227758765" lon="-6.155504900962114">
        <ele>516.7999877929688</ele>
        <time>2015-05-03T09:53:42.000Z</time>
      </trkpt>
      <trkpt lat="39.841446205973625" lon="-6.155580757185817">
        <ele>515.4000244140625</ele>
        <time>2015-05-03T09:53:43.000Z</time>
      </trkpt>
      <trkpt lat="39.841519044712186" lon="-6.155652422457933">
        <ele>514.4000244140625</ele>
        <time>2015-05-03T09:53:44.000Z</time>
      </trkpt>
      <trkpt lat="39.841678803786635" lon="-6.155808912590146">
        <ele>513.0</ele>
        <time>2015-05-03T09:53:46.000Z</time>
      </trkpt>
      <trkpt lat="39.84175289981067" lon="-6.155903711915016">
        <ele>512.0</ele>
        <time>2015-05-03T09:53:47.000Z</time>
      </trkpt>
      <trkpt lat="39.841822972521186" lon="-6.156004127115011">
        <ele>510.3999938964844</ele>
        <time>2015-05-03T09:53:48.000Z</time>
      </trkpt>
      <trkpt lat="39.841973846778274" lon="-6.15620487369597">
        <ele>509.20001220703125</ele>
        <time>2015-05-03T09:53:50.000Z</time>
      </trkpt>
      <trkpt lat="39.84213452786207" lon="-6.156400926411152">
        <ele>507.20001220703125</ele>
        <time>2015-05-03T09:53:52.000Z</time>
      </trkpt>
      <trkpt lat="39.84227819368243" lon="-6.156623130664229">
        <ele>505.79998779296875</ele>
        <time>2015-05-03T09:53:54.000Z</time>
      </trkpt>
      <trkpt lat="39.84238799661398" lon="-6.156852878630161">
        <ele>504.3999938964844</ele>
        <time>2015-05-03T09:53:56.000Z</time>
      </trkpt>
      <trkpt lat="39.842434683814645" lon="-6.1570981331169605">
        <ele>504.6000061035156</ele>
        <time>2015-05-03T09:53:58.000Z</time>
      </trkpt>
      <trkpt lat="39.84242705628276" lon="-6.157216150313616">
        <ele>504.3999938964844</ele>
        <time>2015-05-03T09:53:59.000Z</time>
      </trkpt>
      <trkpt lat="39.84238908626139" lon="-6.157425446435809">
        <ele>504.0</ele>
        <time>2015-05-03T09:54:01.000Z</time>
      </trkpt>
      <trkpt lat="39.842468965798616" lon="-6.157572129741311">
        <ele>503.20001220703125</ele>
        <time>2015-05-03T09:54:03.000Z</time>
      </trkpt>
      <trkpt lat="39.84258790500462" lon="-6.157643040642142">
        <ele>503.20001220703125</ele>
        <time>2015-05-03T09:54:05.000Z</time>
      </trkpt>
      <trkpt lat="39.84263970516622" lon="-6.157696265727282">
        <ele>503.3999938964844</ele>
        <time>2015-05-03T09:54:06.000Z</time>
      </trkpt>
      <trkpt lat="39.84268555417657" lon="-6.157758962363005">
        <ele>503.3999938964844</ele>
        <time>2015-05-03T09:54:07.000Z</time>
      </trkpt>
      <trkpt lat="39.84272746369243" lon="-6.157819731160998">
        <ele>503.3999938964844</ele>
        <time>2015-05-03T09:54:08.000Z</time>
      </trkpt>
      <trkpt lat="39.84276560135186" lon="-6.15788284689188">
        <ele>503.79998779296875</ele>
        <time>2015-05-03T09:54:09.000Z</time>
      </trkpt>
      <trkpt lat="39.8428013920784" lon="-6.157950488850474">
        <ele>503.79998779296875</ele>
        <time>2015-05-03T09:54:10.000Z</time>
      </trkpt>
      <trkpt lat="39.84286475926638" lon="-6.158099602907896">
        <ele>503.79998779296875</ele>
        <time>2015-05-03T09:54:12.000Z</time>
      </trkpt>
      <trkpt lat="39.84290935099125" lon="-6.158262547105551">
        <ele>504.20001220703125</ele>
        <time>2015-05-03T09:54:14.000Z</time>
      </trkpt>
      <trkpt lat="39.842927288264036" lon="-6.158347204327583">
        <ele>504.0</ele>
        <time>2015-05-03T09:54:15.000Z</time>
      </trkpt>
      <trkpt lat="39.843006916344166" lon="-6.158667476847768">
        <ele>504.6000061035156</ele>
        <time>2015-05-03T09:54:19.000Z</time>
      </trkpt>
      <trkpt lat="39.843041533604264" lon="-6.158807873725891">
        <ele>505.0</ele>
        <time>2015-05-03T09:54:21.000Z</time>
      </trkpt>
      <trkpt lat="39.84305712394416" lon="-6.158876521512866">
        <ele>505.3999938964844</ele>
        <time>2015-05-03T09:54:22.000Z</time>
      </trkpt>
      <trkpt lat="39.84308193437755" lon="-6.159012392163277">
        <ele>506.20001220703125</ele>
        <time>2015-05-03T09:54:24.000Z</time>
      </trkpt>
      <trkpt lat="39.8430897295475" lon="-6.1590786930173635">
        <ele>506.6000061035156</ele>
        <time>2015-05-03T09:54:25.000Z</time>
      </trkpt>
      <trkpt lat="39.8431018833071" lon="-6.159209115430713">
        <ele>507.0</ele>
        <time>2015-05-03T09:54:27.000Z</time>
      </trkpt>
      <trkpt lat="39.84310548752546" lon="-6.159273404628038">
        <ele>507.20001220703125</ele>
        <time>2015-05-03T09:54:28.000Z</time>
      </trkpt>
      <trkpt lat="39.843107583001256" lon="-6.159332832321525">
        <ele>507.6000061035156</ele>
        <time>2015-05-03T09:54:29.000Z</time>
      </trkpt>
      <trkpt lat="39.84309978783131" lon="-6.159452190622687">
        <ele>508.20001220703125</ele>
        <time>2015-05-03T09:54:31.000Z</time>
      </trkpt>
      <trkpt lat="39.84307003207505" lon="-6.159569201990962">
        <ele>508.6000061035156</ele>
        <time>2015-05-03T09:54:33.000Z</time>
      </trkpt>
      <trkpt lat="39.84297011978924" lon="-6.159849325194955">
        <ele>507.3999938964844</ele>
        <time>2015-05-03T09:54:37.000Z</time>
      </trkpt>
      <trkpt lat="39.84295989386737" lon="-6.1599439568817616">
        <ele>506.79998779296875</ele>
        <time>2015-05-03T09:54:38.000Z</time>
      </trkpt>
      <trkpt lat="39.84298805706203" lon="-6.160037079825997">
        <ele>506.0</ele>
        <time>2015-05-03T09:54:39.000Z</time>
      </trkpt>
      <trkpt lat="39.84303315170109" lon="-6.160105811432004">
        <ele>505.0</ele>
        <time>2015-05-03T09:54:40.000Z</time>
      </trkpt>
      <trkpt lat="39.84315468929708" lon="-6.160162724554539">
        <ele>505.20001220703125</ele>
        <time>2015-05-03T09:54:42.000Z</time>
      </trkpt>
      <trkpt lat="39.84329332597554" lon="-6.160177392885089">
        <ele>504.79998779296875</ele>
        <time>2015-05-03T09:54:44.000Z</time>
      </trkpt>
      <trkpt lat="39.843444619327784" lon="-6.1601972579956055">
        <ele>504.0</ele>
        <time>2015-05-03T09:54:46.000Z</time>
      </trkpt>
      <trkpt lat="39.84352164901793" lon="-6.160216368734837">
        <ele>503.3999938964844</ele>
        <time>2015-05-03T09:54:47.000Z</time>
      </trkpt>
      <trkpt lat="39.84368425793946" lon="-6.160261547192931">
        <ele>502.20001220703125</ele>
        <time>2015-05-03T09:54:49.000Z</time>
      </trkpt>
      <trkpt lat="39.84376547858119" lon="-6.16030010394752">
        <ele>502.0</ele>
        <time>2015-05-03T09:54:50.000Z</time>
      </trkpt>
      <trkpt lat="39.843849716708064" lon="-6.160343773663044">
        <ele>501.3999938964844</ele>
        <time>2015-05-03T09:54:51.000Z</time>
      </trkpt>
      <trkpt lat="39.84391844831407" lon="-6.160398675128818">
        <ele>500.79998779296875</ele>
        <time>2015-05-03T09:54:52.000Z</time>
      </trkpt>
      <trkpt lat="39.84400327317417" lon="-6.160583244636655">
        <ele>499.6000061035156</ele>
        <time>2015-05-03T09:54:54.000Z</time>
      </trkpt>
      <trkpt lat="39.84400050714612" lon="-6.160800587385893">
        <ele>498.79998779296875</ele>
        <time>2015-05-03T09:54:56.000Z</time>
      </trkpt>
      <trkpt lat="39.84396865591407" lon="-6.161024132743478">
        <ele>498.0</ele>
        <time>2015-05-03T09:54:58.000Z</time>
      </trkpt>
      <trkpt lat="39.84394367784262" lon="-6.161273159086704">
        <ele>496.20001220703125</ele>
        <time>2015-05-03T09:55:00.000Z</time>
      </trkpt>
      <trkpt lat="39.843937726691365" lon="-6.161523861810565">
        <ele>495.0</ele>
        <time>2015-05-03T09:55:02.000Z</time>
      </trkpt>
      <trkpt lat="39.84394568949938" lon="-6.16163793951273">
        <ele>494.20001220703125</ele>
        <time>2015-05-03T09:55:03.000Z</time>
      </trkpt>
      <trkpt lat="39.843975780531764" lon="-6.1617437191307545">
        <ele>493.0</ele>
        <time>2015-05-03T09:55:04.000Z</time>
      </trkpt>
      <trkpt lat="39.844034537673" lon="-6.161827119067311">
        <ele>490.6000061035156</ele>
        <time>2015-05-03T09:55:05.000Z</time>
      </trkpt>
      <trkpt lat="39.844107795506716" lon="-6.161884535104036">
        <ele>490.0</ele>
        <time>2015-05-03T09:55:06.000Z</time>
      </trkpt>
      <trkpt lat="39.844268476590514" lon="-6.161908088251948">
        <ele>490.0</ele>
        <time>2015-05-03T09:55:08.000Z</time>
      </trkpt>
      <trkpt lat="39.844423877075315" lon="-6.161839356645942">
        <ele>489.3999938964844</ele>
        <time>2015-05-03T09:55:10.000Z</time>
      </trkpt>
      <trkpt lat="39.84448414295912" lon="-6.161777162924409">
        <ele>489.3999938964844</ele>
        <time>2015-05-03T09:55:11.000Z</time>
      </trkpt>
      <trkpt lat="39.84455010853708" lon="-6.161621091887355">
        <ele>489.6000061035156</ele>
        <time>2015-05-03T09:55:13.000Z</time>
      </trkpt>
      <trkpt lat="39.84457307495177" lon="-6.161544900387526">
        <ele>490.0</ele>
        <time>2015-05-03T09:55:14.000Z</time>
      </trkpt>
      <trkpt lat="39.84462923370302" lon="-6.161411963403225">
        <ele>490.79998779296875</ele>
        <time>2015-05-03T09:55:16.000Z</time>
      </trkpt>
      <trkpt lat="39.84466318041086" lon="-6.161352200433612">
        <ele>491.0</ele>
        <time>2015-05-03T09:55:17.000Z</time>
      </trkpt>
      <trkpt lat="39.84470911324024" lon="-6.161312218755484">
        <ele>491.0</ele>
        <time>2015-05-03T09:55:18.000Z</time>
      </trkpt>
      <trkpt lat="39.84479016624391" lon="-6.161328395828605">
        <ele>491.3999938964844</ele>
        <time>2015-05-03T09:55:20.000Z</time>
      </trkpt>
      <trkpt lat="39.844811875373125" lon="-6.161341639235616">
        <ele>491.79998779296875</ele>
        <time>2015-05-03T09:55:21.000Z</time>
      </trkpt>
      <trkpt lat="39.84481556341052" lon="-6.161394361406565">
        <ele>493.0</ele>
        <time>2015-05-03T09:55:23.000Z</time>
      </trkpt>
      <trkpt lat="39.844801062718034" lon="-6.161443395540118">
        <ele>493.79998779296875</ele>
        <time>2015-05-03T09:55:25.000Z</time>
      </trkpt>
      <trkpt lat="39.844813300296664" lon="-6.161462925374508">
        <ele>494.0</ele>
        <time>2015-05-03T09:55:26.000Z</time>
      </trkpt>
      <trkpt lat="39.84483132138848" lon="-6.161474408581853">
        <ele>494.3999938964844</ele>
        <time>2015-05-03T09:55:27.000Z</time>
      </trkpt>
      <trkpt lat="39.84487121924758" lon="-6.161470972001553">
        <ele>495.3999938964844</ele>
        <time>2015-05-03T09:55:29.000Z</time>
      </trkpt>
      <trkpt lat="39.844911620020866" lon="-6.161464769393206">
        <ele>496.20001220703125</ele>
        <time>2015-05-03T09:55:31.000Z</time>
      </trkpt>
      <trkpt lat="39.84493249095976" lon="-6.161461835727096">
        <ele>496.3999938964844</ele>
        <time>2015-05-03T09:55:32.000Z</time>
      </trkpt>
      <trkpt lat="39.84497398138046" lon="-6.161451525986195">
        <ele>497.0</ele>
        <time>2015-05-03T09:55:34.000Z</time>
      </trkpt>
      <trkpt lat="39.845014633610845" lon="-6.161438869312406">
        <ele>497.3999938964844</ele>
        <time>2015-05-03T09:55:36.000Z</time>
      </trkpt>
      <trkpt lat="39.84506609849632" lon="-6.161422021687031">
        <ele>498.3999938964844</ele>
        <time>2015-05-03T09:55:39.000Z</time>
      </trkpt>
      <trkpt lat="39.84507883898914" lon="-6.161412550136447">
        <ele>498.6000061035156</ele>
        <time>2015-05-03T09:55:40.000Z</time>
      </trkpt>
      <trkpt lat="39.845123682171106" lon="-6.161376927047968">
        <ele>499.79998779296875</ele>
        <time>2015-05-03T09:55:43.000Z</time>
      </trkpt>
      <trkpt lat="39.84515746124089" lon="-6.161361001431942">
        <ele>500.0</ele>
        <time>2015-05-03T09:55:45.000Z</time>
      </trkpt>
      <trkpt lat="39.84524413011968" lon="-6.1613390408456326">
        <ele>500.79998779296875</ele>
        <time>2015-05-03T09:55:50.000Z</time>
      </trkpt>
      <trkpt lat="39.845279334113" lon="-6.161330658942461">
        <ele>501.20001220703125</ele>
        <time>2015-05-03T09:55:52.000Z</time>
      </trkpt>
      <trkpt lat="39.845334822312" lon="-6.161317583173513">
        <ele>502.0</ele>
        <time>2015-05-03T09:55:55.000Z</time>
      </trkpt>
      <trkpt lat="39.84538570046425" lon="-6.161311715841293">
        <ele>502.3999938964844</ele>
        <time>2015-05-03T09:55:58.000Z</time>
      </trkpt>
      <trkpt lat="39.8454331420362" lon="-6.1613131407648325">
        <ele>503.0</ele>
        <time>2015-05-03T09:56:01.000Z</time>
      </trkpt>
      <trkpt lat="39.84548200853169" lon="-6.161321019753814">
        <ele>503.3999938964844</ele>
        <time>2015-05-03T09:56:04.000Z</time>
      </trkpt>
      <trkpt lat="39.84551277011633" lon="-6.161330742761493">
        <ele>504.0</ele>
        <time>2015-05-03T09:56:06.000Z</time>
      </trkpt>
      <trkpt lat="39.84559047035873" lon="-6.161323701962829">
        <ele>504.3999938964844</ele>
        <time>2015-05-03T09:56:11.000Z</time>
      </trkpt>
      <trkpt lat="39.84566129744053" lon="-6.161307441070676">
        <ele>505.3999938964844</ele>
        <time>2015-05-03T09:56:15.000Z</time>
      </trkpt>
      <trkpt lat="39.845718042925" lon="-6.16128321737051">
        <ele>505.20001220703125</ele>
        <time>2015-05-03T09:56:18.000Z</time>
      </trkpt>
      <trkpt lat="39.84575282782316" lon="-6.161267291754484">
        <ele>505.79998779296875</ele>
        <time>2015-05-03T09:56:20.000Z</time>
      </trkpt>
      <trkpt lat="39.845810579136014" lon="-6.161246839910746">
        <ele>506.20001220703125</ele>
        <time>2015-05-03T09:56:23.000Z</time>
      </trkpt>
      <trkpt lat="39.84583136625588" lon="-6.161239296197891">
        <ele>506.3999938964844</ele>
        <time>2015-05-03T09:56:24.000Z</time>
      </trkpt>
      <trkpt lat="39.84592457301915" lon="-6.161199733614922">
        <ele>507.0</ele>
        <time>2015-05-03T09:56:29.000Z</time>
      </trkpt>
      <trkpt lat="39.84594468958676" lon="-6.161193698644638">
        <ele>507.20001220703125</ele>
        <time>2015-05-03T09:56:30.000Z</time>
      </trkpt>
      <trkpt lat="39.84598324634135" lon="-6.1611853167414665">
        <ele>507.3999938964844</ele>
        <time>2015-05-03T09:56:32.000Z</time>
      </trkpt>
      <trkpt lat="39.84605365432799" lon="-6.161131672561169">
        <ele>508.3999938964844</ele>
        <time>2015-05-03T09:56:37.000Z</time>
      </trkpt>
      <trkpt lat="39.84606438316405" lon="-6.161113483831286">
        <ele>508.3999938964844</ele>
        <time>2015-05-03T09:56:38.000Z</time>
      </trkpt>
      <trkpt lat="39.8460980784148" lon="-6.161016086116433">
        <ele>509.20001220703125</ele>
        <time>2015-05-03T09:56:43.000Z</time>
      </trkpt>
      <trkpt lat="39.84610503539443" lon="-6.160981468856335">
        <ele>509.6000061035156</ele>
        <time>2015-05-03T09:56:45.000Z</time>
      </trkpt>
      <trkpt lat="39.84611031599343" lon="-6.1609249748289585">
        <ele>510.20001220703125</ele>
        <time>2015-05-03T09:56:48.000Z</time>
      </trkpt>
      <trkpt lat="39.84611140564084" lon="-6.160870073363185">
        <ele>510.6000061035156</ele>
        <time>2015-05-03T09:56:51.000Z</time>
      </trkpt>
      <trkpt lat="39.84610210172832" lon="-6.1608154233545065">
        <ele>511.20001220703125</ele>
        <time>2015-05-03T09:56:54.000Z</time>
      </trkpt>
      <trkpt lat="39.846102772280574" lon="-6.160765215754509">
        <ele>511.79998779296875</ele>
        <time>2015-05-03T09:56:56.000Z</time>
      </trkpt>
      <trkpt lat="39.84610101208091" lon="-6.1606646329164505">
        <ele>512.2000122070312</ele>
        <time>2015-05-03T09:57:00.000Z</time>
      </trkpt>
      <trkpt lat="39.84608743339777" lon="-6.160545609891415">
        <ele>512.7999877929688</ele>
        <time>2015-05-03T09:57:05.000Z</time>
      </trkpt>
      <trkpt lat="39.84608684666455" lon="-6.160525074228644">
        <ele>513.0</ele>
        <time>2015-05-03T09:57:06.000Z</time>
      </trkpt>
      <trkpt lat="39.84607460908592" lon="-6.1604381538927555">
        <ele>514.0</ele>
        <time>2015-05-03T09:57:10.000Z</time>
      </trkpt>
      <trkpt lat="39.84607469290495" lon="-6.160389119759202">
        <ele>514.4000244140625</ele>
        <time>2015-05-03T09:57:12.000Z</time>
      </trkpt>
      <trkpt lat="39.84605281613767" lon="-6.160314604640007">
        <ele>515.2000122070312</ele>
        <time>2015-05-03T09:57:16.000Z</time>
      </trkpt>
      <trkpt lat="39.84604979865253" lon="-6.160294404253364">
        <ele>515.4000244140625</ele>
        <time>2015-05-03T09:57:17.000Z</time>
      </trkpt>
      <trkpt lat="39.846066897735" lon="-6.160183679312468">
        <ele>516.2000122070312</ele>
        <time>2015-05-03T09:57:22.000Z</time>
      </trkpt>
      <trkpt lat="39.846065724268556" lon="-6.160164400935173">
        <ele>516.4000244140625</ele>
        <time>2015-05-03T09:57:23.000Z</time>
      </trkpt>
      <trkpt lat="39.84607167541981" lon="-6.1600820906460285">
        <ele>517.2000122070312</ele>
        <time>2015-05-03T09:57:27.000Z</time>
      </trkpt>
      <trkpt lat="39.84607360325754" lon="-6.159990141168237">
        <ele>517.5999755859375</ele>
        <time>2015-05-03T09:57:31.000Z</time>
      </trkpt>
      <trkpt lat="39.84607310034335" lon="-6.159892994910479">
        <ele>518.4000244140625</ele>
        <time>2015-05-03T09:57:35.000Z</time>
      </trkpt>
      <trkpt lat="39.84607754275203" lon="-6.159846726804972">
        <ele>519.0</ele>
        <time>2015-05-03T09:57:37.000Z</time>
      </trkpt>
      <trkpt lat="39.84609656967223" lon="-6.159751592203975">
        <ele>519.5999755859375</ele>
        <time>2015-05-03T09:57:41.000Z</time>
      </trkpt>
      <trkpt lat="39.846094055101275" lon="-6.159710353240371">
        <ele>520.0</ele>
        <time>2015-05-03T09:57:43.000Z</time>
      </trkpt>
      <trkpt lat="39.846086176112294" lon="-6.159673053771257">
        <ele>520.7999877929688</ele>
        <time>2015-05-03T09:57:45.000Z</time>
      </trkpt>
      <trkpt lat="39.846077961847186" lon="-6.159635838121176">
        <ele>521.2000122070312</ele>
        <time>2015-05-03T09:57:47.000Z</time>
      </trkpt>
      <trkpt lat="39.846079386770725" lon="-6.1596129555255175">
        <ele>521.4000244140625</ele>
        <time>2015-05-03T09:57:48.000Z</time>
      </trkpt>
      <trkpt lat="39.8460893612355" lon="-6.159497369080782">
        <ele>522.2000122070312</ele>
        <time>2015-05-03T09:57:54.000Z</time>
      </trkpt>
      <trkpt lat="39.84610805287957" lon="-6.1593779269605875">
        <ele>523.2000122070312</ele>
        <time>2015-05-03T09:57:59.000Z</time>
      </trkpt>
      <trkpt lat="39.84611123800278" lon="-6.159357558935881">
        <ele>523.4000244140625</ele>
        <time>2015-05-03T09:58:00.000Z</time>
      </trkpt>
      <trkpt lat="39.84613026492298" lon="-6.1592666152864695">
        <ele>524.4000244140625</ele>
        <time>2015-05-03T09:58:04.000Z</time>
      </trkpt>
      <trkpt lat="39.84613336622715" lon="-6.159225208684802">
        <ele>525.0</ele>
        <time>2015-05-03T09:58:06.000Z</time>
      </trkpt>
      <trkpt lat="39.846137557178736" lon="-6.159175336360931">
        <ele>525.5999755859375</ele>
        <time>2015-05-03T09:58:09.000Z</time>
      </trkpt>
      <trkpt lat="39.84613881446421" lon="-6.159110125154257">
        <ele>526.2000122070312</ele>
        <time>2015-05-03T09:58:12.000Z</time>
      </trkpt>
      <trkpt lat="39.8461377248168" lon="-6.159054050222039">
        <ele>526.7999877929688</ele>
        <time>2015-05-03T09:58:15.000Z</time>
      </trkpt>
      <trkpt lat="39.84613906592131" lon="-6.158964782953262">
        <ele>527.4000244140625</ele>
        <time>2015-05-03T09:58:19.000Z</time>
      </trkpt>
      <trkpt lat="39.84613873064518" lon="-6.158915665000677">
        <ele>528.2000122070312</ele>
        <time>2015-05-03T09:58:21.000Z</time>
      </trkpt>
      <trkpt lat="39.84615733847022" lon="-6.158821871504188">
        <ele>529.0</ele>
        <time>2015-05-03T09:58:26.000Z</time>
      </trkpt>
      <trkpt lat="39.84616530127823" lon="-6.1588068678975105">
        <ele>529.4000244140625</ele>
        <time>2015-05-03T09:58:27.000Z</time>
      </trkpt>
      <trkpt lat="39.84619287773967" lon="-6.158804940059781">
        <ele>530.4000244140625</ele>
        <time>2015-05-03T09:58:29.000Z</time>
      </trkpt>
      <trkpt lat="39.8462310153991" lon="-6.158830085769296">
        <ele>530.5999755859375</ele>
        <time>2015-05-03T09:58:31.000Z</time>
      </trkpt>
      <trkpt lat="39.84634039923549" lon="-6.159012895077467">
        <ele>531.5999755859375</ele>
        <time>2015-05-03T09:58:38.000Z</time>
      </trkpt>
      <trkpt lat="39.84643922187388" lon="-6.1591903399676085">
        <ele>532.5999755859375</ele>
        <time>2015-05-03T09:58:44.000Z</time>
      </trkpt>
      <trkpt lat="39.84645581804216" lon="-6.159219341352582">
        <ele>533.0</ele>
        <time>2015-05-03T09:58:45.000Z</time>
      </trkpt>
      <trkpt lat="39.846579618752" lon="-6.1594065092504025">
        <ele>533.5999755859375</ele>
        <time>2015-05-03T09:58:51.000Z</time>
      </trkpt>
      <trkpt lat="39.84667047858238" lon="-6.159545229747891">
        <ele>534.2000122070312</ele>
        <time>2015-05-03T09:58:55.000Z</time>
      </trkpt>
      <trkpt lat="39.84673736616969" lon="-6.159647321328521">
        <ele>535.0</ele>
        <time>2015-05-03T09:58:58.000Z</time>
      </trkpt>
      <trkpt lat="39.84686443582177" lon="-6.159800374880433">
        <ele>535.2000122070312</ele>
        <time>2015-05-03T09:59:03.000Z</time>
      </trkpt>
      <trkpt lat="39.8469163198024" lon="-6.159845050424337">
        <ele>535.7999877929688</ele>
        <time>2015-05-03T09:59:05.000Z</time>
      </trkpt>
      <trkpt lat="39.84694733284414" lon="-6.159862652420998">
        <ele>536.2000122070312</ele>
        <time>2015-05-03T09:59:24.000Z</time>
      </trkpt>
      <trkpt lat="39.846969125792384" lon="-6.1598556116223335">
        <ele>536.4000244140625</ele>
        <time>2015-05-03T09:59:25.000Z</time>
      </trkpt>
      <trkpt lat="39.84699200838804" lon="-6.159839183092117">
        <ele>536.4000244140625</ele>
        <time>2015-05-03T09:59:26.000Z</time>
      </trkpt>
      <trkpt lat="39.84712871722877" lon="-6.159756788983941">
        <ele>536.0</ele>
        <time>2015-05-03T09:59:30.000Z</time>
      </trkpt>
      <trkpt lat="39.84718487598002" lon="-6.1597347445786">
        <ele>535.2000122070312</ele>
        <time>2015-05-03T09:59:31.000Z</time>
      </trkpt>
      <trkpt lat="39.84730607829988" lon="-6.15967514924705">
        <ele>533.7999877929688</ele>
        <time>2015-05-03T09:59:33.000Z</time>
      </trkpt>
      <trkpt lat="39.84743834473193" lon="-6.15957498550415">
        <ele>532.4000244140625</ele>
        <time>2015-05-03T09:59:35.000Z</time>
      </trkpt>
      <trkpt lat="39.84752107411623" lon="-6.1595309805125">
        <ele>532.0</ele>
        <time>2015-05-03T09:59:36.000Z</time>
      </trkpt>
      <trkpt lat="39.8475968465209" lon="-6.159478090703487">
        <ele>530.5999755859375</ele>
        <time>2015-05-03T09:59:37.000Z</time>
      </trkpt>
      <trkpt lat="39.84764747321606" lon="-6.159398127347231">
        <ele>529.5999755859375</ele>
        <time>2015-05-03T09:59:38.000Z</time>
      </trkpt>
      <trkpt lat="39.84770002774894" lon="-6.159304920583963">
        <ele>528.2000122070312</ele>
        <time>2015-05-03T09:59:39.000Z</time>
      </trkpt>
      <trkpt lat="39.84776984900236" lon="-6.159217832610011">
        <ele>525.7999877929688</ele>
        <time>2015-05-03T09:59:40.000Z</time>
      </trkpt>
      <trkpt lat="39.847834557294846" lon="-6.159108281135559">
        <ele>524.4000244140625</ele>
        <time>2015-05-03T09:59:41.000Z</time>
      </trkpt>
      <trkpt lat="39.847902953624725" lon="-6.159026976674795">
        <ele>523.4000244140625</ele>
        <time>2015-05-03T09:59:42.000Z</time>
      </trkpt>
      <trkpt lat="39.84797260724008" lon="-6.15894416347146">
        <ele>522.4000244140625</ele>
        <time>2015-05-03T09:59:43.000Z</time>
      </trkpt>
      <trkpt lat="39.84808500856161" lon="-6.158756073564291">
        <ele>520.2000122070312</ele>
        <time>2015-05-03T09:59:45.000Z</time>
      </trkpt>
      <trkpt lat="39.848118368536234" lon="-6.158638307824731">
        <ele>519.0</ele>
        <time>2015-05-03T09:59:46.000Z</time>
      </trkpt>
      <trkpt lat="39.848160948604345" lon="-6.158531354740262">
        <ele>517.4000244140625</ele>
        <time>2015-05-03T09:59:47.000Z</time>
      </trkpt>
      <trkpt lat="39.84822800382972" lon="-6.158450553193688">
        <ele>515.7999877929688</ele>
        <time>2015-05-03T09:59:48.000Z</time>
      </trkpt>
      <trkpt lat="39.84830335713923" lon="-6.158376876264811">
        <ele>514.5999755859375</ele>
        <time>2015-05-03T09:59:49.000Z</time>
      </trkpt>
      <trkpt lat="39.848466804251075" lon="-6.158230109140277">
        <ele>513.0</ele>
        <time>2015-05-03T09:59:51.000Z</time>
      </trkpt>
      <trkpt lat="39.84855640679598" lon="-6.1581701785326">
        <ele>512.0</ele>
        <time>2015-05-03T09:59:52.000Z</time>
      </trkpt>
      <trkpt lat="39.84865095466375" lon="-6.158112678676844">
        <ele>511.3999938964844</ele>
        <time>2015-05-03T09:59:53.000Z</time>
      </trkpt>
      <trkpt lat="39.848835188895464" lon="-6.1579923145473">
        <ele>509.6000061035156</ele>
        <time>2015-05-03T09:59:55.000Z</time>
      </trkpt>
      <trkpt lat="39.84893384389579" lon="-6.157927606254816">
        <ele>508.6000061035156</ele>
        <time>2015-05-03T09:59:56.000Z</time>
      </trkpt>
      <trkpt lat="39.84903082251549" lon="-6.157868010923266">
        <ele>507.0</ele>
        <time>2015-05-03T09:59:57.000Z</time>
      </trkpt>
      <trkpt lat="39.84912411309779" lon="-6.157798944041133">
        <ele>505.0</ele>
        <time>2015-05-03T09:59:58.000Z</time>
      </trkpt>
      <trkpt lat="39.84921254217625" lon="-6.157714035362005">
        <ele>502.79998779296875</ele>
        <time>2015-05-03T09:59:59.000Z</time>
      </trkpt>
      <trkpt lat="39.84929828904569" lon="-6.157621666789055">
        <ele>501.20001220703125</ele>
        <time>2015-05-03T10:00:00.000Z</time>
      </trkpt>
      <trkpt lat="39.84939392656088" lon="-6.157540865242481">
        <ele>500.20001220703125</ele>
        <time>2015-05-03T10:00:01.000Z</time>
      </trkpt>
      <trkpt lat="39.84959433786571" lon="-6.157436929643154">
        <ele>498.6000061035156</ele>
        <time>2015-05-03T10:00:03.000Z</time>
      </trkpt>
      <trkpt lat="39.849710930138826" lon="-6.157427541911602">
        <ele>497.3999938964844</ele>
        <time>2015-05-03T10:00:04.000Z</time>
      </trkpt>
      <trkpt lat="39.849825259298086" lon="-6.157416645437479">
        <ele>495.20001220703125</ele>
        <time>2015-05-03T10:00:05.000Z</time>
      </trkpt>
      <trkpt lat="39.849940510466695" lon="-6.157404910773039">
        <ele>494.20001220703125</ele>
        <time>2015-05-03T10:00:06.000Z</time>
      </trkpt>
      <trkpt lat="39.85005509108305" lon="-6.157413963228464">
        <ele>492.79998779296875</ele>
        <time>2015-05-03T10:00:07.000Z</time>
      </trkpt>
      <trkpt lat="39.85016397200525" lon="-6.157447993755341">
        <ele>491.20001220703125</ele>
        <time>2015-05-03T10:00:08.000Z</time>
      </trkpt>
      <trkpt lat="39.85026380047202" lon="-6.157473977655172">
        <ele>489.79998779296875</ele>
        <time>2015-05-03T10:00:09.000Z</time>
      </trkpt>
      <trkpt lat="39.850365137681365" lon="-6.157474899664521">
        <ele>488.3999938964844</ele>
        <time>2015-05-03T10:00:10.000Z</time>
      </trkpt>
      <trkpt lat="39.85049958340824" lon="-6.157458974048495">
        <ele>486.79998779296875</ele>
        <time>2015-05-03T10:00:12.000Z</time>
      </trkpt>
      <trkpt lat="39.85057535581291" lon="-6.157345315441489">
        <ele>485.6000061035156</ele>
        <time>2015-05-03T10:00:14.000Z</time>
      </trkpt>
      <trkpt lat="39.85060377046466" lon="-6.1572718899697065">
        <ele>484.79998779296875</ele>
        <time>2015-05-03T10:00:15.000Z</time>
      </trkpt>
      <trkpt lat="39.85062321648002" lon="-6.157188070937991">
        <ele>484.3999938964844</ele>
        <time>2015-05-03T10:00:16.000Z</time>
      </trkpt>
      <trkpt lat="39.85061667859554" lon="-6.157001489773393">
        <ele>483.6000061035156</ele>
        <time>2015-05-03T10:00:18.000Z</time>
      </trkpt>
      <trkpt lat="39.85061198472977" lon="-6.15691440179944">
        <ele>483.79998779296875</ele>
        <time>2015-05-03T10:00:19.000Z</time>
      </trkpt>
      <trkpt lat="39.85061273910105" lon="-6.156743997707963">
        <ele>484.20001220703125</ele>
        <time>2015-05-03T10:00:21.000Z</time>
      </trkpt>
      <trkpt lat="39.85060569830239" lon="-6.1566628608852625">
        <ele>484.20001220703125</ele>
        <time>2015-05-03T10:00:22.000Z</time>
      </trkpt>
      <trkpt lat="39.85059203580022" lon="-6.156585328280926">
        <ele>484.20001220703125</ele>
        <time>2015-05-03T10:00:23.000Z</time>
      </trkpt>
      <trkpt lat="39.850546857342124" lon="-6.156446859240532">
        <ele>484.6000061035156</ele>
        <time>2015-05-03T10:00:25.000Z</time>
      </trkpt>
      <trkpt lat="39.85052556730807" lon="-6.156385755166411">
        <ele>485.0</ele>
        <time>2015-05-03T10:00:26.000Z</time>
      </trkpt>
      <trkpt lat="39.85051047988236" lon="-6.156322471797466">
        <ele>485.3999938964844</ele>
        <time>2015-05-03T10:00:27.000Z</time>
      </trkpt>
      <trkpt lat="39.850502433255315" lon="-6.156258434057236">
        <ele>485.79998779296875</ele>
        <time>2015-05-03T10:00:28.000Z</time>
      </trkpt>
      <trkpt lat="39.85049304552376" lon="-6.15612817928195">
        <ele>486.6000061035156</ele>
        <time>2015-05-03T10:00:30.000Z</time>
      </trkpt>
      <trkpt lat="39.85046370886266" lon="-6.156073193997145">
        <ele>486.3999938964844</ele>
        <time>2015-05-03T10:00:31.000Z</time>
      </trkpt>
      <trkpt lat="39.850429678335786" lon="-6.156031284481287">
        <ele>486.6000061035156</ele>
        <time>2015-05-03T10:00:32.000Z</time>
      </trkpt>
      <trkpt lat="39.850349044427276" lon="-6.155913099646568">
        <ele>487.6000061035156</ele>
        <time>2015-05-03T10:00:35.000Z</time>
      </trkpt>
      <trkpt lat="39.850306548178196" lon="-6.155828442424536">
        <ele>488.20001220703125</ele>
        <time>2015-05-03T10:00:37.000Z</time>
      </trkpt>
      <trkpt lat="39.850275199860334" lon="-6.155750323086977">
        <ele>489.0</ele>
        <time>2015-05-03T10:00:39.000Z</time>
      </trkpt>
      <trkpt lat="39.85026095062494" lon="-6.155610093846917">
        <ele>489.20001220703125</ele>
        <time>2015-05-03T10:00:42.000Z</time>
      </trkpt>
      <trkpt lat="39.85024502500892" lon="-6.155417812988162">
        <ele>488.3999938964844</ele>
        <time>2015-05-03T10:00:45.000Z</time>
      </trkpt>
      <trkpt lat="39.85025650821626" lon="-6.15529459901154">
        <ele>488.20001220703125</ele>
        <time>2015-05-03T10:00:47.000Z</time>
      </trkpt>
      <trkpt lat="39.850290371105075" lon="-6.155227543786168">
        <ele>488.0</ele>
        <time>2015-05-03T10:00:48.000Z</time>
      </trkpt>
      <trkpt lat="39.85032381489873" lon="-6.155035514384508">
        <ele>486.20001220703125</ele>
        <time>2015-05-03T10:00:50.000Z</time>
      </trkpt>
      <trkpt lat="39.85033169388771" lon="-6.154856141656637">
        <ele>485.20001220703125</ele>
        <time>2015-05-03T10:00:52.000Z</time>
      </trkpt>
      <trkpt lat="39.850307051092386" lon="-6.154745500534773">
        <ele>487.3999938964844</ele>
        <time>2015-05-03T10:00:54.000Z</time>
      </trkpt>
      <trkpt lat="39.85030562616885" lon="-6.154647432267666">
        <ele>489.3999938964844</ele>
        <time>2015-05-03T10:00:56.000Z</time>
      </trkpt>
      <trkpt lat="39.850306548178196" lon="-6.154607953503728">
        <ele>490.3999938964844</ele>
        <time>2015-05-03T10:00:57.000Z</time>
      </trkpt>
      <trkpt lat="39.85030881129205" lon="-6.154570402577519">
        <ele>490.79998779296875</ele>
        <time>2015-05-03T10:00:58.000Z</time>
      </trkpt>
      <trkpt lat="39.85031300224364" lon="-6.154530169442296">
        <ele>490.0</ele>
        <time>2015-05-03T10:00:59.000Z</time>
      </trkpt>
      <trkpt lat="39.85032448545098" lon="-6.1545138247311115">
        <ele>489.6000061035156</ele>
        <time>2015-05-03T10:01:00.000Z</time>
      </trkpt>
      <trkpt lat="39.850373016670346" lon="-6.1544667184352875">
        <ele>489.79998779296875</ele>
        <time>2015-05-03T10:01:02.000Z</time>
      </trkpt>
      <trkpt lat="39.850445771589875" lon="-6.154424473643303">
        <ele>489.3999938964844</ele>
        <time>2015-05-03T10:01:04.000Z</time>
      </trkpt>
      <trkpt lat="39.85058197751641" lon="-6.154357837513089">
        <ele>488.6000061035156</ele>
        <time>2015-05-03T10:01:07.000Z</time>
      </trkpt>
      <trkpt lat="39.850697396323085" lon="-6.1542982421815395">
        <ele>487.3999938964844</ele>
        <time>2015-05-03T10:01:09.000Z</time>
      </trkpt>
      <trkpt lat="39.85082865692675" lon="-6.1542334500700235">
        <ele>486.6000061035156</ele>
        <time>2015-05-03T10:01:11.000Z</time>
      </trkpt>
      <trkpt lat="39.85090174712241" lon="-6.15420394577086">
        <ele>486.0</ele>
        <time>2015-05-03T10:01:12.000Z</time>
      </trkpt>
      <trkpt lat="39.851055638864636" lon="-6.154132029041648">
        <ele>485.0</ele>
        <time>2015-05-03T10:01:14.000Z</time>
      </trkpt>
      <trkpt lat="39.85121271573007" lon="-6.154028680175543">
        <ele>483.6000061035156</ele>
        <time>2015-05-03T10:01:16.000Z</time>
      </trkpt>
      <trkpt lat="39.85128798522055" lon="-6.15395718254149">
        <ele>483.0</ele>
        <time>2015-05-03T10:01:17.000Z</time>
      </trkpt>
      <trkpt lat="39.8513650149107" lon="-6.15387755446136">
        <ele>482.6000061035156</ele>
        <time>2015-05-03T10:01:18.000Z</time>
      </trkpt>
      <trkpt lat="39.85152083449066" lon="-6.153687285259366">
        <ele>480.79998779296875</ele>
        <time>2015-05-03T10:01:20.000Z</time>
      </trkpt>
      <trkpt lat="39.85165779478848" lon="-6.15346466191113">
        <ele>479.20001220703125</ele>
        <time>2015-05-03T10:01:22.000Z</time>
      </trkpt>
      <trkpt lat="39.8517947550863" lon="-6.153225190937519">
        <ele>477.3999938964844</ele>
        <time>2015-05-03T10:01:24.000Z</time>
      </trkpt>
      <trkpt lat="39.85185015946627" lon="-6.153099881485105">
        <ele>476.79998779296875</ele>
        <time>2015-05-03T10:01:25.000Z</time>
      </trkpt>
      <trkpt lat="39.85190246254206" lon="-6.152969459071755">
        <ele>476.20001220703125</ele>
        <time>2015-05-03T10:01:26.000Z</time>
      </trkpt>
      <trkpt lat="39.851942444220185" lon="-6.1528324987739325">
        <ele>475.6000061035156</ele>
        <time>2015-05-03T10:01:27.000Z</time>
      </trkpt>
      <trkpt lat="39.85196725465357" lon="-6.152693526819348">
        <ele>474.79998779296875</ele>
        <time>2015-05-03T10:01:28.000Z</time>
      </trkpt>
      <trkpt lat="39.851963985711336" lon="-6.152416840195656">
        <ele>474.0</ele>
        <time>2015-05-03T10:01:30.000Z</time>
      </trkpt>
      <trkpt lat="39.85196272842586" lon="-6.152277197688818">
        <ele>473.3999938964844</ele>
        <time>2015-05-03T10:01:31.000Z</time>
      </trkpt>
      <trkpt lat="39.85195736400783" lon="-6.152015598490834">
        <ele>472.20001220703125</ele>
        <time>2015-05-03T10:01:33.000Z</time>
      </trkpt>
      <trkpt lat="39.851936660707" lon="-6.1516715213656425">
        <ele>472.79998779296875</ele>
        <time>2015-05-03T10:01:36.000Z</time>
      </trkpt>
      <trkpt lat="39.851930709555745" lon="-6.151487873867154">
        <ele>473.79998779296875</ele>
        <time>2015-05-03T10:01:38.000Z</time>
      </trkpt>
      <trkpt lat="39.851936073973775" lon="-6.15132593549788">
        <ele>474.79998779296875</ele>
        <time>2015-05-03T10:01:40.000Z</time>
      </trkpt>
      <trkpt lat="39.85197337344289" lon="-6.151110772043467">
        <ele>476.0</ele>
        <time>2015-05-03T10:01:43.000Z</time>
      </trkpt>
      <trkpt lat="39.8520003631711" lon="-6.151047237217426">
        <ele>476.3999938964844</ele>
        <time>2015-05-03T10:01:44.000Z</time>
      </trkpt>
      <trkpt lat="39.85203003510833" lon="-6.150988815352321">
        <ele>476.79998779296875</ele>
        <time>2015-05-03T10:01:45.000Z</time>
      </trkpt>
      <trkpt lat="39.85206674784422" lon="-6.150933830067515">
        <ele>477.0</ele>
        <time>2015-05-03T10:01:46.000Z</time>
      </trkpt>
      <trkpt lat="39.8521317075938" lon="-6.150814639404416">
        <ele>477.3999938964844</ele>
        <time>2015-05-03T10:01:48.000Z</time>
      </trkpt>
      <trkpt lat="39.85220303758979" lon="-6.150694107636809">
        <ele>477.6000061035156</ele>
        <time>2015-05-03T10:01:50.000Z</time>
      </trkpt>
      <trkpt lat="39.852290879935026" lon="-6.150493361055851">
        <ele>478.0</ele>
        <time>2015-05-03T10:01:53.000Z</time>
      </trkpt>
      <trkpt lat="39.852344021201134" lon="-6.150270821526647">
        <ele>478.20001220703125</ele>
        <time>2015-05-03T10:01:56.000Z</time>
      </trkpt>
      <trkpt lat="39.85239515081048" lon="-6.150023052468896">
        <ele>476.3999938964844</ele>
        <time>2015-05-03T10:01:59.000Z</time>
      </trkpt>
      <trkpt lat="39.852447118610144" lon="-6.149842170998454">
        <ele>475.79998779296875</ele>
        <time>2015-05-03T10:02:01.000Z</time>
      </trkpt>
      <trkpt lat="39.85251886770129" lon="-6.149663552641869">
        <ele>475.20001220703125</ele>
        <time>2015-05-03T10:02:03.000Z</time>
      </trkpt>
      <trkpt lat="39.852642165496945" lon="-6.149388458579779">
        <ele>474.3999938964844</ele>
        <time>2015-05-03T10:02:06.000Z</time>
      </trkpt>
      <trkpt lat="39.85268818214536" lon="-6.149299023672938">
        <ele>473.79998779296875</ele>
        <time>2015-05-03T10:02:07.000Z</time>
      </trkpt>
      <trkpt lat="39.85272950492799" lon="-6.1492091696709394">
        <ele>472.79998779296875</ele>
        <time>2015-05-03T10:02:08.000Z</time>
      </trkpt>
      <trkpt lat="39.85283235087991" lon="-6.1490480694919825">
        <ele>472.6000061035156</ele>
        <time>2015-05-03T10:02:10.000Z</time>
      </trkpt>
      <trkpt lat="39.85288222320378" lon="-6.148970955982804">
        <ele>472.6000061035156</ele>
        <time>2015-05-03T10:02:11.000Z</time>
      </trkpt>
      <trkpt lat="39.852934777736664" lon="-6.148910606279969">
        <ele>472.3999938964844</ele>
        <time>2015-05-03T10:02:12.000Z</time>
      </trkpt>
      <trkpt lat="39.85309772193432" lon="-6.148741124197841">
        <ele>471.79998779296875</ele>
        <time>2015-05-03T10:02:15.000Z</time>
      </trkpt>
      <trkpt lat="39.85315890982747" lon="-6.1486863903701305">
        <ele>471.6000061035156</ele>
        <time>2015-05-03T10:02:16.000Z</time>
      </trkpt>
      <trkpt lat="39.85349158756435" lon="-6.148470304906368">
        <ele>470.6000061035156</ele>
        <time>2015-05-03T10:02:21.000Z</time>
      </trkpt>
      <trkpt lat="39.853566689416766" lon="-6.148434514179826">
        <ele>470.20001220703125</ele>
        <time>2015-05-03T10:02:22.000Z</time>
      </trkpt>
      <trkpt lat="39.85363768413663" lon="-6.1484042555093765">
        <ele>470.20001220703125</ele>
        <time>2015-05-03T10:02:23.000Z</time>
      </trkpt>
      <trkpt lat="39.853775734081864" lon="-6.148355724290013">
        <ele>470.6000061035156</ele>
        <time>2015-05-03T10:02:25.000Z</time>
      </trkpt>
      <trkpt lat="39.85384086146951" lon="-6.148329321295023">
        <ele>471.0</ele>
        <time>2015-05-03T10:02:26.000Z</time>
      </trkpt>
      <trkpt lat="39.8541003651917" lon="-6.148182637989521">
        <ele>470.79998779296875</ele>
        <time>2015-05-03T10:02:30.000Z</time>
      </trkpt>
      <trkpt lat="39.85420849174261" lon="-6.148065961897373">
        <ele>471.0</ele>
        <time>2015-05-03T10:02:32.000Z</time>
      </trkpt>
      <trkpt lat="39.854305386543274" lon="-6.147787515074015">
        <ele>469.20001220703125</ele>
        <time>2015-05-03T10:02:35.000Z</time>
      </trkpt>
      <trkpt lat="39.85432868823409" lon="-6.147687938064337">
        <ele>468.79998779296875</ele>
        <time>2015-05-03T10:02:36.000Z</time>
      </trkpt>
      <trkpt lat="39.85438291914761" lon="-6.147479731589556">
        <ele>468.0</ele>
        <time>2015-05-03T10:02:38.000Z</time>
      </trkpt>
      <trkpt lat="39.854447375983" lon="-6.147267417982221">
        <ele>467.0</ele>
        <time>2015-05-03T10:02:40.000Z</time>
      </trkpt>
      <trkpt lat="39.85448157414794" lon="-6.147156106308103">
        <ele>466.6000061035156</ele>
        <time>2015-05-03T10:02:41.000Z</time>
      </trkpt>
      <trkpt lat="39.85457134433091" lon="-6.146829714998603">
        <ele>465.3999938964844</ele>
        <time>2015-05-03T10:02:44.000Z</time>
      </trkpt>
      <trkpt lat="39.854595735669136" lon="-6.146710021421313">
        <ele>464.79998779296875</ele>
        <time>2015-05-03T10:02:45.000Z</time>
      </trkpt>
      <trkpt lat="39.854624569416046" lon="-6.146593429148197">
        <ele>464.0</ele>
        <time>2015-05-03T10:02:46.000Z</time>
      </trkpt>
      <trkpt lat="39.85470377840102" lon="-6.146361082792282">
        <ele>463.0</ele>
        <time>2015-05-03T10:02:48.000Z</time>
      </trkpt>
      <trkpt lat="39.85476463101804" lon="-6.146245412528515">
        <ele>462.3999938964844</ele>
        <time>2015-05-03T10:02:49.000Z</time>
      </trkpt>
      <trkpt lat="39.854809641838074" lon="-6.146122450008988">
        <ele>462.0</ele>
        <time>2015-05-03T10:02:50.000Z</time>
      </trkpt>
      <trkpt lat="39.85496621578932" lon="-6.145754316821694">
        <ele>460.20001220703125</ele>
        <time>2015-05-03T10:02:53.000Z</time>
      </trkpt>
      <trkpt lat="39.855132680386305" lon="-6.145387357100844">
        <ele>459.6000061035156</ele>
        <time>2015-05-03T10:02:56.000Z</time>
      </trkpt>
      <trkpt lat="39.85518582165241" lon="-6.145266154780984">
        <ele>459.0</ele>
        <time>2015-05-03T10:02:57.000Z</time>
      </trkpt>
      <trkpt lat="39.85542378388345" lon="-6.144853178411722">
        <ele>458.6000061035156</ele>
        <time>2015-05-03T10:03:01.000Z</time>
      </trkpt>
      <trkpt lat="39.85563165508211" lon="-6.144522847607732">
        <ele>460.20001220703125</ele>
        <time>2015-05-03T10:03:05.000Z</time>
      </trkpt>
      <trkpt lat="39.85567431896925" lon="-6.1444637551903725">
        <ele>460.6000061035156</ele>
        <time>2015-05-03T10:03:06.000Z</time>
      </trkpt>
      <trkpt lat="39.85579686239362" lon="-6.144263008609414">
        <ele>460.79998779296875</ele>
        <time>2015-05-03T10:03:09.000Z</time>
      </trkpt>
      <trkpt lat="39.855850003659725" lon="-6.1441053450107574">
        <ele>460.20001220703125</ele>
        <time>2015-05-03T10:03:11.000Z</time>
      </trkpt>
      <trkpt lat="39.85595611855388" lon="-6.144127221778035">
        <ele>458.79998779296875</ele>
        <time>2015-05-03T10:03:13.000Z</time>
      </trkpt>
      <trkpt lat="39.8559789173305" lon="-6.144138872623444">
        <ele>458.79998779296875</ele>
        <time>2015-05-03T10:03:14.000Z</time>
      </trkpt>
      <trkpt lat="39.855999033898115" lon="-6.144213303923607">
        <ele>458.20001220703125</ele>
        <time>2015-05-03T10:03:15.000Z</time>
      </trkpt>
      <trkpt lat="39.85602208413184" lon="-6.144296200945973">
        <ele>457.3999938964844</ele>
        <time>2015-05-03T10:03:16.000Z</time>
      </trkpt>
      <trkpt lat="39.85609274357557" lon="-6.14448320120573">
        <ele>455.79998779296875</ele>
        <time>2015-05-03T10:03:18.000Z</time>
      </trkpt>
      <trkpt lat="39.85618385486305" lon="-6.1446955148130655">
        <ele>454.0</ele>
        <time>2015-05-03T10:03:20.000Z</time>
      </trkpt>
      <trkpt lat="39.85628753900528" lon="-6.144926687702537">
        <ele>452.0</ele>
        <time>2015-05-03T10:03:22.000Z</time>
      </trkpt>
      <trkpt lat="39.85636088065803" lon="-6.145037496462464">
        <ele>451.0</ele>
        <time>2015-05-03T10:03:23.000Z</time>
      </trkpt>
      <trkpt lat="39.8564403411001" lon="-6.145160291343927">
        <ele>450.0</ele>
        <time>2015-05-03T10:03:24.000Z</time>
      </trkpt>
      <trkpt lat="39.85653530806303" lon="-6.145271770656109">
        <ele>447.20001220703125</ele>
        <time>2015-05-03T10:03:25.000Z</time>
      </trkpt>
      <trkpt lat="39.856639662757516" lon="-6.145369838923216">
        <ele>446.0</ele>
        <time>2015-05-03T10:03:26.000Z</time>
      </trkpt>
      <trkpt lat="39.85675876960158" lon="-6.145445695146918">
        <ele>444.79998779296875</ele>
        <time>2015-05-03T10:03:27.000Z</time>
      </trkpt>
      <trkpt lat="39.85701852478087" lon="-6.145530100911856">
        <ele>442.3999938964844</ele>
        <time>2015-05-03T10:03:29.000Z</time>
      </trkpt>
      <trkpt lat="39.857154563069344" lon="-6.145555665716529">
        <ele>440.79998779296875</ele>
        <time>2015-05-03T10:03:30.000Z</time>
      </trkpt>
      <trkpt lat="39.85729085281491" lon="-6.14554108120501">
        <ele>439.79998779296875</ele>
        <time>2015-05-03T10:03:31.000Z</time>
      </trkpt>
      <trkpt lat="39.857420939952135" lon="-6.145506547763944">
        <ele>438.6000061035156</ele>
        <time>2015-05-03T10:03:32.000Z</time>
      </trkpt>
      <trkpt lat="39.857676420360804" lon="-6.145414933562279">
        <ele>436.3999938964844</ele>
        <time>2015-05-03T10:03:34.000Z</time>
      </trkpt>
      <trkpt lat="39.85780810005963" lon="-6.145374700427055">
        <ele>435.0</ele>
        <time>2015-05-03T10:03:35.000Z</time>
      </trkpt>
      <trkpt lat="39.85792804509401" lon="-6.1453284323215485">
        <ele>433.3999938964844</ele>
        <time>2015-05-03T10:03:36.000Z</time>
      </trkpt>
      <trkpt lat="39.85800574533641" lon="-6.145282667130232">
        <ele>431.79998779296875</ele>
        <time>2015-05-03T10:03:37.000Z</time>
      </trkpt>
      <trkpt lat="39.858061568811536" lon="-6.145212007686496">
        <ele>431.0</ele>
        <time>2015-05-03T10:03:38.000Z</time>
      </trkpt>
      <trkpt lat="39.85810440033674" lon="-6.145117459818721">
        <ele>430.3999938964844</ele>
        <time>2015-05-03T10:03:39.000Z</time>
      </trkpt>
      <trkpt lat="39.85812636092305" lon="-6.145005309954286">
        <ele>429.3999938964844</ele>
        <time>2015-05-03T10:03:40.000Z</time>
      </trkpt>
      <trkpt lat="39.85813214443624" lon="-6.144881173968315">
        <ele>428.3999938964844</ele>
        <time>2015-05-03T10:03:41.000Z</time>
      </trkpt>
      <trkpt lat="39.8581410292536" lon="-6.1447505839169025">
        <ele>427.3999938964844</ele>
        <time>2015-05-03T10:03:42.000Z</time>
      </trkpt>
      <trkpt lat="39.858166091144085" lon="-6.1446192394942045">
        <ele>426.20001220703125</ele>
        <time>2015-05-03T10:03:43.000Z</time>
      </trkpt>
      <trkpt lat="39.85821722075343" lon="-6.144496947526932">
        <ele>425.0</ele>
        <time>2015-05-03T10:03:44.000Z</time>
      </trkpt>
      <trkpt lat="39.85827664844692" lon="-6.144370129331946">
        <ele>423.79998779296875</ele>
        <time>2015-05-03T10:03:45.000Z</time>
      </trkpt>
      <trkpt lat="39.85833331011236" lon="-6.144236605614424">
        <ele>423.20001220703125</ele>
        <time>2015-05-03T10:03:46.000Z</time>
      </trkpt>
      <trkpt lat="39.8583778180182" lon="-6.1440841387957335">
        <ele>422.20001220703125</ele>
        <time>2015-05-03T10:03:47.000Z</time>
      </trkpt>
      <trkpt lat="39.85841268673539" lon="-6.143931085243821">
        <ele>421.3999938964844</ele>
        <time>2015-05-03T10:03:48.000Z</time>
      </trkpt>
      <trkpt lat="39.858459709212184" lon="-6.143781552091241">
        <ele>420.0</ele>
        <time>2015-05-03T10:03:49.000Z</time>
      </trkpt>
      <trkpt lat="39.85851016826928" lon="-6.143635120242834">
        <ele>418.79998779296875</ele>
        <time>2015-05-03T10:03:50.000Z</time>
      </trkpt>
      <trkpt lat="39.85863204114139" lon="-6.1433611158281565">
        <ele>417.20001220703125</ele>
        <time>2015-05-03T10:03:52.000Z</time>
      </trkpt>
      <trkpt lat="39.85870228148997" lon="-6.143224658444524">
        <ele>415.79998779296875</ele>
        <time>2015-05-03T10:03:53.000Z</time>
      </trkpt>
      <trkpt lat="39.85876531340182" lon="-6.143079148605466">
        <ele>414.6000061035156</ele>
        <time>2015-05-03T10:03:54.000Z</time>
      </trkpt>
      <trkpt lat="39.858829686418176" lon="-6.142942439764738">
        <ele>413.3999938964844</ele>
        <time>2015-05-03T10:03:55.000Z</time>
      </trkpt>
      <trkpt lat="39.85896865837276" lon="-6.142654437571764">
        <ele>411.79998779296875</ele>
        <time>2015-05-03T10:03:57.000Z</time>
      </trkpt>
      <trkpt lat="39.85902925953269" lon="-6.142513621598482">
        <ele>411.20001220703125</ele>
        <time>2015-05-03T10:03:58.000Z</time>
      </trkpt>
      <trkpt lat="39.85909505747259" lon="-6.142375571653247">
        <ele>410.0</ele>
        <time>2015-05-03T10:03:59.000Z</time>
      </trkpt>
      <trkpt lat="39.85916504636407" lon="-6.142232911661267">
        <ele>408.6000061035156</ele>
        <time>2015-05-03T10:04:00.000Z</time>
      </trkpt>
      <trkpt lat="39.85922807827592" lon="-6.142088659107685">
        <ele>407.6000061035156</ele>
        <time>2015-05-03T10:04:01.000Z</time>
      </trkpt>
      <trkpt lat="39.85928004607558" lon="-6.141958320513368">
        <ele>407.20001220703125</ele>
        <time>2015-05-03T10:04:02.000Z</time>
      </trkpt>
      <trkpt lat="39.8593083769083" lon="-6.141846925020218">
        <ele>407.20001220703125</ele>
        <time>2015-05-03T10:04:03.000Z</time>
      </trkpt>
      <trkpt lat="39.85931038856506" lon="-6.141719771549106">
        <ele>406.6000061035156</ele>
        <time>2015-05-03T10:04:04.000Z</time>
      </trkpt>
      <trkpt lat="39.85929127782583" lon="-6.141588008031249">
        <ele>406.20001220703125</ele>
        <time>2015-05-03T10:04:05.000Z</time>
      </trkpt>
      <trkpt lat="39.85925045795739" lon="-6.141469907015562">
        <ele>405.3999938964844</ele>
        <time>2015-05-03T10:04:06.000Z</time>
      </trkpt>
      <trkpt lat="39.85915079712868" lon="-6.1412447690963745">
        <ele>404.20001220703125</ele>
        <time>2015-05-03T10:04:08.000Z</time>
      </trkpt>
      <trkpt lat="39.85910318791866" lon="-6.141138905659318">
        <ele>404.0</ele>
        <time>2015-05-03T10:04:09.000Z</time>
      </trkpt>
      <trkpt lat="39.859015848487616" lon="-6.140933129936457">
        <ele>403.6000061035156</ele>
        <time>2015-05-03T10:04:11.000Z</time>
      </trkpt>
      <trkpt lat="39.858960611745715" lon="-6.140854172408581">
        <ele>403.6000061035156</ele>
        <time>2015-05-03T10:04:12.000Z</time>
      </trkpt>
      <trkpt lat="39.85890939831734" lon="-6.140775801613927">
        <ele>404.0</ele>
        <time>2015-05-03T10:04:13.000Z</time>
      </trkpt>
      <trkpt lat="39.858867740258574" lon="-6.14068116992712">
        <ele>403.79998779296875</ele>
        <time>2015-05-03T10:04:14.000Z</time>
      </trkpt>
      <trkpt lat="39.858754416927695" lon="-6.140554016456008">
        <ele>403.3999938964844</ele>
        <time>2015-05-03T10:04:16.000Z</time>
      </trkpt>
      <trkpt lat="39.85851293429732" lon="-6.1404298804700375">
        <ele>405.0</ele>
        <time>2015-05-03T10:04:20.000Z</time>
      </trkpt>
      <trkpt lat="39.858459793031216" lon="-6.140401549637318">
        <ele>405.3999938964844</ele>
        <time>2015-05-03T10:04:21.000Z</time>
      </trkpt>
      <trkpt lat="39.858412351459265" lon="-6.140362154692411">
        <ele>405.3999938964844</ele>
        <time>2015-05-03T10:04:22.000Z</time>
      </trkpt>
      <trkpt lat="39.85837580636144" lon="-6.140182614326477">
        <ele>404.6000061035156</ele>
        <time>2015-05-03T10:04:24.000Z</time>
      </trkpt>
      <trkpt lat="39.85837848857045" lon="-6.140092425048351">
        <ele>404.0</ele>
        <time>2015-05-03T10:04:25.000Z</time>
      </trkpt>
      <trkpt lat="39.85843892209232" lon="-6.139982873573899">
        <ele>404.6000061035156</ele>
        <time>2015-05-03T10:04:27.000Z</time>
      </trkpt>
      <trkpt lat="39.85847228206694" lon="-6.139952698722482">
        <ele>405.6000061035156</ele>
        <time>2015-05-03T10:04:28.000Z</time>
      </trkpt>
      <trkpt lat="39.85853531397879" lon="-6.139911878854036">
        <ele>407.0</ele>
        <time>2015-05-03T10:04:30.000Z</time>
      </trkpt>
      <trkpt lat="39.85855869948864" lon="-6.1398817878216505">
        <ele>407.79998779296875</ele>
        <time>2015-05-03T10:04:31.000Z</time>
      </trkpt>
      <trkpt lat="39.858585353940725" lon="-6.139853708446026">
        <ele>408.3999938964844</ele>
        <time>2015-05-03T10:04:32.000Z</time>
      </trkpt>
      <trkpt lat="39.85860915854573" lon="-6.139824287965894">
        <ele>409.0</ele>
        <time>2015-05-03T10:04:33.000Z</time>
      </trkpt>
      <trkpt lat="39.858652325347066" lon="-6.139739295467734">
        <ele>409.6000061035156</ele>
        <time>2015-05-03T10:04:35.000Z</time>
      </trkpt>
      <trkpt lat="39.8586851824075" lon="-6.139690596610308">
        <ele>409.79998779296875</ele>
        <time>2015-05-03T10:04:36.000Z</time>
      </trkpt>
      <trkpt lat="39.858711836859584" lon="-6.139644077047706">
        <ele>410.3999938964844</ele>
        <time>2015-05-03T10:04:37.000Z</time>
      </trkpt>
      <trkpt lat="39.85873932950199" lon="-6.139599233865738">
        <ele>410.6000061035156</ele>
        <time>2015-05-03T10:04:38.000Z</time>
      </trkpt>
      <trkpt lat="39.858806720003486" lon="-6.139498483389616">
        <ele>410.6000061035156</ele>
        <time>2015-05-03T10:04:40.000Z</time>
      </trkpt>
      <trkpt lat="39.85889774747193" lon="-6.139379628002644">
        <ele>409.6000061035156</ele>
        <time>2015-05-03T10:04:42.000Z</time>
      </trkpt>
      <trkpt lat="39.858943512663245" lon="-6.139306286349893">
        <ele>409.3999938964844</ele>
        <time>2015-05-03T10:04:43.000Z</time>
      </trkpt>
      <trkpt lat="39.85901551321149" lon="-6.139156082645059">
        <ele>409.3999938964844</ele>
        <time>2015-05-03T10:04:45.000Z</time>
      </trkpt>
      <trkpt lat="39.8590546566993" lon="-6.139016188681126">
        <ele>410.20001220703125</ele>
        <time>2015-05-03T10:04:47.000Z</time>
      </trkpt>
      <trkpt lat="39.85906588844955" lon="-6.1389484629035">
        <ele>411.0</ele>
        <time>2015-05-03T10:04:48.000Z</time>
      </trkpt>
      <trkpt lat="39.859086172655225" lon="-6.138771018013358">
        <ele>412.20001220703125</ele>
        <time>2015-05-03T10:04:51.000Z</time>
      </trkpt>
      <trkpt lat="39.85908843576908" lon="-6.138708991929889">
        <ele>412.0</ele>
        <time>2015-05-03T10:04:52.000Z</time>
      </trkpt>
      <trkpt lat="39.8591011762619" lon="-6.138388467952609">
        <ele>410.6000061035156</ele>
        <time>2015-05-03T10:04:56.000Z</time>
      </trkpt>
      <trkpt lat="39.859145265072584" lon="-6.138298278674483">
        <ele>409.6000061035156</ele>
        <time>2015-05-03T10:04:57.000Z</time>
      </trkpt>
      <trkpt lat="39.85924710519612" lon="-6.138164671137929">
        <ele>409.20001220703125</ele>
        <time>2015-05-03T10:04:59.000Z</time>
      </trkpt>
      <trkpt lat="39.859345676377416" lon="-6.137952441349626">
        <ele>410.6000061035156</ele>
        <time>2015-05-03T10:05:03.000Z</time>
      </trkpt>
      <trkpt lat="39.85936302691698" lon="-6.137904245406389">
        <ele>411.20001220703125</ele>
        <time>2015-05-03T10:05:04.000Z</time>
      </trkpt>
      <trkpt lat="39.85938775353134" lon="-6.137808104977012">
        <ele>412.20001220703125</ele>
        <time>2015-05-03T10:05:06.000Z</time>
      </trkpt>
      <trkpt lat="39.85941784456372" lon="-6.137673240154982">
        <ele>413.0</ele>
        <time>2015-05-03T10:05:09.000Z</time>
      </trkpt>
      <trkpt lat="39.85942698083818" lon="-6.1376294028013945">
        <ele>413.20001220703125</ele>
        <time>2015-05-03T10:05:10.000Z</time>
      </trkpt>
      <trkpt lat="39.85943393781781" lon="-6.1375165823847055">
        <ele>413.3999938964844</ele>
        <time>2015-05-03T10:05:12.000Z</time>
      </trkpt>
      <trkpt lat="39.859440391883254" lon="-6.137359756976366">
        <ele>412.3999938964844</ele>
        <time>2015-05-03T10:05:14.000Z</time>
      </trkpt>
      <trkpt lat="39.859442403540015" lon="-6.137271663174033">
        <ele>412.0</ele>
        <time>2015-05-03T10:05:15.000Z</time>
      </trkpt>
      <trkpt lat="39.85947333276272" lon="-6.136988773941994">
        <ele>410.79998779296875</ele>
        <time>2015-05-03T10:05:18.000Z</time>
      </trkpt>
      <trkpt lat="39.85948842018843" lon="-6.136886179447174">
        <ele>410.6000061035156</ele>
        <time>2015-05-03T10:05:19.000Z</time>
      </trkpt>
      <trkpt lat="39.85952714458108" lon="-6.136614857241511">
        <ele>410.3999938964844</ele>
        <time>2015-05-03T10:05:22.000Z</time>
      </trkpt>
      <trkpt lat="39.859533263370395" lon="-6.136530367657542">
        <ele>410.79998779296875</ele>
        <time>2015-05-03T10:05:23.000Z</time>
      </trkpt>
      <trkpt lat="39.85954248346388" lon="-6.136305229738355">
        <ele>412.20001220703125</ele>
        <time>2015-05-03T10:05:26.000Z</time>
      </trkpt>
      <trkpt lat="39.85956821590662" lon="-6.136189140379429">
        <ele>413.20001220703125</ele>
        <time>2015-05-03T10:05:28.000Z</time>
      </trkpt>
      <trkpt lat="39.85961138270795" lon="-6.1361736338585615">
        <ele>413.6000061035156</ele>
        <time>2015-05-03T10:05:29.000Z</time>
      </trkpt>
      <trkpt lat="39.859647592529655" lon="-6.13619115203619">
        <ele>414.3999938964844</ele>
        <time>2015-05-03T10:05:30.000Z</time>
      </trkpt>
      <trkpt lat="39.859682377427816" lon="-6.136230630800128">
        <ele>414.6000061035156</ele>
        <time>2015-05-03T10:05:31.000Z</time>
      </trkpt>
      <trkpt lat="39.859758066013455" lon="-6.13631428219378">
        <ele>414.6000061035156</ele>
        <time>2015-05-03T10:05:33.000Z</time>
      </trkpt>
      <trkpt lat="39.85981212928891" lon="-6.136426348239183">
        <ele>413.6000061035156</ele>
        <time>2015-05-03T10:05:35.000Z</time>
      </trkpt>
      <trkpt lat="39.85985403880477" lon="-6.136569008231163">
        <ele>412.79998779296875</ele>
        <time>2015-05-03T10:05:37.000Z</time>
      </trkpt>
      <trkpt lat="39.85987457446754" lon="-6.1366569343954325">
        <ele>412.3999938964844</ele>
        <time>2015-05-03T10:05:38.000Z</time>
      </trkpt>
      <trkpt lat="39.85988773405552" lon="-6.136751649901271">
        <ele>412.0</ele>
        <time>2015-05-03T10:05:39.000Z</time>
      </trkpt>
      <trkpt lat="39.85991908237338" lon="-6.136947451159358">
        <ele>410.79998779296875</ele>
        <time>2015-05-03T10:05:41.000Z</time>
      </trkpt>
      <trkpt lat="39.85994045622647" lon="-6.137052727863193">
        <ele>410.0</ele>
        <time>2015-05-03T10:05:42.000Z</time>
      </trkpt>
      <trkpt lat="39.8599648475647" lon="-6.137156831100583">
        <ele>409.20001220703125</ele>
        <time>2015-05-03T10:05:43.000Z</time>
      </trkpt>
      <trkpt lat="39.859977001324296" lon="-6.137272669002414">
        <ele>408.20001220703125</ele>
        <time>2015-05-03T10:05:44.000Z</time>
      </trkpt>
      <trkpt lat="39.8600113671273" lon="-6.137510547414422">
        <ele>406.6000061035156</ele>
        <time>2015-05-03T10:05:46.000Z</time>
      </trkpt>
      <trkpt lat="39.860067861154675" lon="-6.137706935405731">
        <ele>405.6000061035156</ele>
        <time>2015-05-03T10:05:48.000Z</time>
      </trkpt>
      <trkpt lat="39.86012469045818" lon="-6.137786228209734">
        <ele>405.0</ele>
        <time>2015-05-03T10:05:49.000Z</time>
      </trkpt>
      <trkpt lat="39.86030448228121" lon="-6.137967109680176">
        <ele>404.3999938964844</ele>
        <time>2015-05-03T10:05:52.000Z</time>
      </trkpt>
      <trkpt lat="39.860459212213755" lon="-6.138102561235428">
        <ele>405.3999938964844</ele>
        <time>2015-05-03T10:05:55.000Z</time>
      </trkpt>
      <trkpt lat="39.86055174842477" lon="-6.138184200972319">
        <ele>406.0</ele>
        <time>2015-05-03T10:05:57.000Z</time>
      </trkpt>
      <trkpt lat="39.86068912781775" lon="-6.13828050903976">
        <ele>406.0</ele>
        <time>2015-05-03T10:06:00.000Z</time>
      </trkpt>
      <trkpt lat="39.86081183888018" lon="-6.138286963105202">
        <ele>405.20001220703125</ele>
        <time>2015-05-03T10:06:02.000Z</time>
      </trkpt>
      <trkpt lat="39.860868668183684" lon="-6.138250334188342">
        <ele>404.79998779296875</ele>
        <time>2015-05-03T10:06:03.000Z</time>
      </trkpt>
      <trkpt lat="39.8609818238765" lon="-6.138142291456461">
        <ele>403.79998779296875</ele>
        <time>2015-05-03T10:06:05.000Z</time>
      </trkpt>
      <trkpt lat="39.86103278584778" lon="-6.138064255937934">
        <ele>403.20001220703125</ele>
        <time>2015-05-03T10:06:06.000Z</time>
      </trkpt>
      <trkpt lat="39.861083161085844" lon="-6.137993177399039">
        <ele>402.79998779296875</ele>
        <time>2015-05-03T10:06:07.000Z</time>
      </trkpt>
      <trkpt lat="39.86112599261105" lon="-6.137914303690195">
        <ele>402.3999938964844</ele>
        <time>2015-05-03T10:06:08.000Z</time>
      </trkpt>
      <trkpt lat="39.86116605810821" lon="-6.137841381132603">
        <ele>402.3999938964844</ele>
        <time>2015-05-03T10:06:09.000Z</time>
      </trkpt>
      <trkpt lat="39.861255744472146" lon="-6.137629570439458">
        <ele>403.3999938964844</ele>
        <time>2015-05-03T10:06:12.000Z</time>
      </trkpt>
      <trkpt lat="39.86131131649017" lon="-6.137488167732954">
        <ele>403.6000061035156</ele>
        <time>2015-05-03T10:06:14.000Z</time>
      </trkpt>
      <trkpt lat="39.86139044165611" lon="-6.137229837477207">
        <ele>402.6000061035156</ele>
        <time>2015-05-03T10:06:17.000Z</time>
      </trkpt>
      <trkpt lat="39.861418856307864" lon="-6.137063959613442">
        <ele>402.3999938964844</ele>
        <time>2015-05-03T10:06:19.000Z</time>
      </trkpt>
      <trkpt lat="39.861435536295176" lon="-6.136841084808111">
        <ele>403.79998779296875</ele>
        <time>2015-05-03T10:06:22.000Z</time>
      </trkpt>
      <trkpt lat="39.86144567839801" lon="-6.136671602725983">
        <ele>403.79998779296875</ele>
        <time>2015-05-03T10:06:24.000Z</time>
      </trkpt>
      <trkpt lat="39.861460430547595" lon="-6.136441016569734">
        <ele>403.20001220703125</ele>
        <time>2015-05-03T10:06:27.000Z</time>
      </trkpt>
      <trkpt lat="39.86145129427314" lon="-6.136278240010142">
        <ele>402.3999938964844</ele>
        <time>2015-05-03T10:06:29.000Z</time>
      </trkpt>
      <trkpt lat="39.86144148744643" lon="-6.135962158441544">
        <ele>402.20001220703125</ele>
        <time>2015-05-03T10:06:33.000Z</time>
      </trkpt>
      <trkpt lat="39.861417850479484" lon="-6.135819749906659">
        <ele>402.3999938964844</ele>
        <time>2015-05-03T10:06:35.000Z</time>
      </trkpt>
      <trkpt lat="39.8613999132067" lon="-6.135753449052572">
        <ele>402.79998779296875</ele>
        <time>2015-05-03T10:06:36.000Z</time>
      </trkpt>
      <trkpt lat="39.86137133091688" lon="-6.13559402525425">
        <ele>402.6000061035156</ele>
        <time>2015-05-03T10:06:38.000Z</time>
      </trkpt>
      <trkpt lat="39.86136244609952" lon="-6.135517666116357">
        <ele>402.6000061035156</ele>
        <time>2015-05-03T10:06:39.000Z</time>
      </trkpt>
      <trkpt lat="39.86129539087415" lon="-6.135278446599841">
        <ele>401.20001220703125</ele>
        <time>2015-05-03T10:06:42.000Z</time>
      </trkpt>
      <trkpt lat="39.861253732815385" lon="-6.135205859318376">
        <ele>400.79998779296875</ele>
        <time>2015-05-03T10:06:43.000Z</time>
      </trkpt>
      <trkpt lat="39.861069079488516" lon="-6.135060349479318">
        <ele>399.6000061035156</ele>
        <time>2015-05-03T10:06:46.000Z</time>
      </trkpt>
      <trkpt lat="39.86100043170154" lon="-6.13501600921154">
        <ele>398.79998779296875</ele>
        <time>2015-05-03T10:06:47.000Z</time>
      </trkpt>
      <trkpt lat="39.86094167456031" lon="-6.134968735277653">
        <ele>398.3999938964844</ele>
        <time>2015-05-03T10:06:48.000Z</time>
      </trkpt>
      <trkpt lat="39.86090504564345" lon="-6.134918108582497">
        <ele>397.79998779296875</ele>
        <time>2015-05-03T10:06:49.000Z</time>
      </trkpt>
      <trkpt lat="39.860896496102214" lon="-6.134868152439594">
        <ele>397.3999938964844</ele>
        <time>2015-05-03T10:06:50.000Z</time>
      </trkpt>
      <trkpt lat="39.86091770231724" lon="-6.134829092770815">
        <ele>397.20001220703125</ele>
        <time>2015-05-03T10:06:51.000Z</time>
      </trkpt>
      <trkpt lat="39.86094871535897" lon="-6.134811993688345">
        <ele>397.3999938964844</ele>
        <time>2015-05-03T10:06:52.000Z</time>
      </trkpt>
      <trkpt lat="39.861078299582005" lon="-6.134699173271656">
        <ele>397.79998779296875</ele>
        <time>2015-05-03T10:06:56.000Z</time>
      </trkpt>
      <trkpt lat="39.861112497746944" lon="-6.134669249877334">
        <ele>398.0</ele>
        <time>2015-05-03T10:06:57.000Z</time>
      </trkpt>
      <trkpt lat="39.861150635406375" lon="-6.134642343968153">
        <ele>398.0</ele>
        <time>2015-05-03T10:06:58.000Z</time>
      </trkpt>
      <trkpt lat="39.86121551133692" lon="-6.134576965123415">
        <ele>398.20001220703125</ele>
        <time>2015-05-03T10:07:00.000Z</time>
      </trkpt>
      <trkpt lat="39.861249290406704" lon="-6.13447898067534">
        <ele>398.79998779296875</ele>
        <time>2015-05-03T10:07:02.000Z</time>
      </trkpt>
      <trkpt lat="39.86126781441271" lon="-6.134314779192209">
        <ele>399.0</ele>
        <time>2015-05-03T10:07:05.000Z</time>
      </trkpt>
      <trkpt lat="39.861266389489174" lon="-6.134188296273351">
        <ele>399.0</ele>
        <time>2015-05-03T10:07:07.000Z</time>
      </trkpt>
      <trkpt lat="39.86128172837198" lon="-6.133776158094406">
        <ele>398.20001220703125</ele>
        <time>2015-05-03T10:07:13.000Z</time>
      </trkpt>
      <trkpt lat="39.86128021962941" lon="-6.133706588298082">
        <ele>398.6000061035156</ele>
        <time>2015-05-03T10:07:14.000Z</time>
      </trkpt>
      <trkpt lat="39.861255660653114" lon="-6.133334599435329">
        <ele>398.20001220703125</ele>
        <time>2015-05-03T10:07:19.000Z</time>
      </trkpt>
      <trkpt lat="39.861218025907874" lon="-6.132849203422666">
        <ele>397.0</ele>
        <time>2015-05-03T10:07:25.000Z</time>
      </trkpt>
      <trkpt lat="39.861214589327574" lon="-6.132527003064752">
        <ele>396.3999938964844</ele>
        <time>2015-05-03T10:07:29.000Z</time>
      </trkpt>
      <trkpt lat="39.86119975335896" lon="-6.132466485723853">
        <ele>396.6000061035156</ele>
        <time>2015-05-03T10:07:30.000Z</time>
      </trkpt>
      <trkpt lat="39.861178714782" lon="-6.1323868576437235">
        <ele>396.6000061035156</ele>
        <time>2015-05-03T10:07:31.000Z</time>
      </trkpt>
      <trkpt lat="39.861149629577994" lon="-6.132292225956917">
        <ele>396.0</ele>
        <time>2015-05-03T10:07:32.000Z</time>
      </trkpt>
      <trkpt lat="39.861117945984006" lon="-6.132199103012681">
        <ele>395.0</ele>
        <time>2015-05-03T10:07:33.000Z</time>
      </trkpt>
      <trkpt lat="39.861077880486846" lon="-6.132111009210348">
        <ele>394.20001220703125</ele>
        <time>2015-05-03T10:07:34.000Z</time>
      </trkpt>
      <trkpt lat="39.86102884635329" lon="-6.1320452112704515">
        <ele>394.0</ele>
        <time>2015-05-03T10:07:35.000Z</time>
      </trkpt>
      <trkpt lat="39.86088844947517" lon="-6.1318576242774725">
        <ele>393.6000061035156</ele>
        <time>2015-05-03T10:07:38.000Z</time>
      </trkpt>
      <trkpt lat="39.86085492186248" lon="-6.131781432777643">
        <ele>393.3999938964844</ele>
        <time>2015-05-03T10:07:39.000Z</time>
      </trkpt>
      <trkpt lat="39.860825166106224" lon="-6.131702559068799">
        <ele>393.0</ele>
        <time>2015-05-03T10:07:40.000Z</time>
      </trkpt>
      <trkpt lat="39.86077604815364" lon="-6.1315245274454355">
        <ele>392.20001220703125</ele>
        <time>2015-05-03T10:07:42.000Z</time>
      </trkpt>
      <trkpt lat="39.860741179436445" lon="-6.131346914917231">
        <ele>391.79998779296875</ele>
        <time>2015-05-03T10:07:44.000Z</time>
      </trkpt>
      <trkpt lat="39.86072877421975" lon="-6.1312618386000395">
        <ele>392.0</ele>
        <time>2015-05-03T10:07:45.000Z</time>
      </trkpt>
      <trkpt lat="39.86071318387985" lon="-6.130882892757654">
        <ele>390.6000061035156</ele>
        <time>2015-05-03T10:07:50.000Z</time>
      </trkpt>
      <trkpt lat="39.86069315113127" lon="-6.13048248924315">
        <ele>389.3999938964844</ele>
        <time>2015-05-03T10:07:55.000Z</time>
      </trkpt>
      <trkpt lat="39.86067756079137" lon="-6.130312085151672">
        <ele>389.3999938964844</ele>
        <time>2015-05-03T10:07:57.000Z</time>
      </trkpt>
      <trkpt lat="39.86063389107585" lon="-6.1300101689994335">
        <ele>389.6000061035156</ele>
        <time>2015-05-03T10:08:01.000Z</time>
      </trkpt>
      <trkpt lat="39.86061193048954" lon="-6.129868011921644">
        <ele>390.0</ele>
        <time>2015-05-03T10:08:03.000Z</time>
      </trkpt>
      <trkpt lat="39.86054789274931" lon="-6.12957464531064">
        <ele>390.6000061035156</ele>
        <time>2015-05-03T10:08:08.000Z</time>
      </trkpt>
      <trkpt lat="39.86053858883679" lon="-6.129524605348706">
        <ele>391.20001220703125</ele>
        <time>2015-05-03T10:08:09.000Z</time>
      </trkpt>
      <trkpt lat="39.860504725947976" lon="-6.129436511546373">
        <ele>391.6000061035156</ele>
        <time>2015-05-03T10:08:11.000Z</time>
      </trkpt>
      <trkpt lat="39.860472874715924" lon="-6.129341125488281">
        <ele>392.20001220703125</ele>
        <time>2015-05-03T10:08:13.000Z</time>
      </trkpt>
      <trkpt lat="39.860463067889214" lon="-6.129288403317332">
        <ele>392.20001220703125</ele>
        <time>2015-05-03T10:08:14.000Z</time>
      </trkpt>
      <trkpt lat="39.86045309342444" lon="-6.129241632297635">
        <ele>392.20001220703125</ele>
        <time>2015-05-03T10:08:15.000Z</time>
      </trkpt>
      <trkpt lat="39.86042803153396" lon="-6.129116993397474">
        <ele>392.20001220703125</ele>
        <time>2015-05-03T10:08:17.000Z</time>
      </trkpt>
      <trkpt lat="39.86039349809289" lon="-6.128904763609171">
        <ele>391.6000061035156</ele>
        <time>2015-05-03T10:08:20.000Z</time>
      </trkpt>
      <trkpt lat="39.86033733934164" lon="-6.128611983731389">
        <ele>391.0</ele>
        <time>2015-05-03T10:08:24.000Z</time>
      </trkpt>
      <trkpt lat="39.86030607484281" lon="-6.128385001793504">
        <ele>391.20001220703125</ele>
        <time>2015-05-03T10:08:27.000Z</time>
      </trkpt>
      <trkpt lat="39.86026542261243" lon="-6.128191212192178">
        <ele>391.79998779296875</ele>
        <time>2015-05-03T10:08:30.000Z</time>
      </trkpt>
      <trkpt lat="39.860237343236804" lon="-6.128089372068644">
        <ele>392.79998779296875</ele>
        <time>2015-05-03T10:08:32.000Z</time>
      </trkpt>
      <trkpt lat="39.86023114062846" lon="-6.128033213317394">
        <ele>393.0</ele>
        <time>2015-05-03T10:08:33.000Z</time>
      </trkpt>
      <trkpt lat="39.86021379008889" lon="-6.127926846966147">
        <ele>394.0</ele>
        <time>2015-05-03T10:08:35.000Z</time>
      </trkpt>
      <trkpt lat="39.86018453724682" lon="-6.127758119255304">
        <ele>394.6000061035156</ele>
        <time>2015-05-03T10:08:38.000Z</time>
      </trkpt>
      <trkpt lat="39.860168024897575" lon="-6.127705732360482">
        <ele>394.3999938964844</ele>
        <time>2015-05-03T10:08:39.000Z</time>
      </trkpt>
      <trkpt lat="39.8601234331727" lon="-6.12752677872777">
        <ele>394.3999938964844</ele>
        <time>2015-05-03T10:08:42.000Z</time>
      </trkpt>
      <trkpt lat="39.86010423861444" lon="-6.12746324390173">
        <ele>394.6000061035156</ele>
        <time>2015-05-03T10:08:43.000Z</time>
      </trkpt>
      <trkpt lat="39.85998404212296" lon="-6.127156633883715">
        <ele>393.79998779296875</ele>
        <time>2015-05-03T10:08:48.000Z</time>
      </trkpt>
      <trkpt lat="39.85981070436537" lon="-6.126802079379559">
        <ele>393.3999938964844</ele>
        <time>2015-05-03T10:08:54.000Z</time>
      </trkpt>
      <trkpt lat="39.859722862020135" lon="-6.126744747161865">
        <ele>393.0</ele>
        <time>2015-05-03T10:08:56.000Z</time>
      </trkpt>
      <trkpt lat="39.859644239768386" lon="-6.12676695920527">
        <ele>393.0</ele>
        <time>2015-05-03T10:08:58.000Z</time>
      </trkpt>
      <trkpt lat="39.859616328030825" lon="-6.126857567578554">
        <ele>393.20001220703125</ele>
        <time>2015-05-03T10:09:00.000Z</time>
      </trkpt>
      <trkpt lat="39.85962001606822" lon="-6.126929987221956">
        <ele>394.20001220703125</ele>
        <time>2015-05-03T10:09:02.000Z</time>
      </trkpt>
      <trkpt lat="39.859618842601776" lon="-6.126992180943489">
        <ele>395.20001220703125</ele>
        <time>2015-05-03T10:09:04.000Z</time>
      </trkpt>
      <trkpt lat="39.85962186008692" lon="-6.127084800973535">
        <ele>396.20001220703125</ele>
        <time>2015-05-03T10:09:07.000Z</time>
      </trkpt>
      <trkpt lat="39.85962110571563" lon="-6.127142133191228">
        <ele>397.3999938964844</ele>
        <time>2015-05-03T10:09:09.000Z</time>
      </trkpt>
      <trkpt lat="39.859621776267886" lon="-6.127217570319772">
        <ele>398.0</ele>
        <time>2015-05-03T10:09:12.000Z</time>
      </trkpt>
      <trkpt lat="39.859623620286584" lon="-6.1272974498569965">
        <ele>398.6000061035156</ele>
        <time>2015-05-03T10:09:14.000Z</time>
      </trkpt>
      <trkpt lat="39.8596263024956" lon="-6.127361319959164">
        <ele>399.6000061035156</ele>
        <time>2015-05-03T10:09:16.000Z</time>
      </trkpt>
      <trkpt lat="39.85962739214301" lon="-6.127459472045302">
        <ele>400.20001220703125</ele>
        <time>2015-05-03T10:09:19.000Z</time>
      </trkpt>
      <trkpt lat="39.85962395556271" lon="-6.1275021359324455">
        <ele>400.6000061035156</ele>
        <time>2015-05-03T10:09:20.000Z</time>
      </trkpt>
      <trkpt lat="39.85959495417774" lon="-6.127678994089365">
        <ele>400.3999938964844</ele>
        <time>2015-05-03T10:09:24.000Z</time>
      </trkpt>
      <trkpt lat="39.85958397388458" lon="-6.127726016566157">
        <ele>400.20001220703125</ele>
        <time>2015-05-03T10:09:25.000Z</time>
      </trkpt>
      <trkpt lat="39.85955497249961" lon="-6.1278599593788385">
        <ele>399.3999938964844</ele>
        <time>2015-05-03T10:09:27.000Z</time>
      </trkpt>
      <trkpt lat="39.859513314440846" lon="-6.128014689311385">
        <ele>398.6000061035156</ele>
        <time>2015-05-03T10:09:29.000Z</time>
      </trkpt>
      <trkpt lat="39.85948422923684" lon="-6.1281023640185595">
        <ele>397.79998779296875</ele>
        <time>2015-05-03T10:09:30.000Z</time>
      </trkpt>
      <trkpt lat="39.85942128114402" lon="-6.128250723704696">
        <ele>397.0</ele>
        <time>2015-05-03T10:09:32.000Z</time>
      </trkpt>
      <trkpt lat="39.85936394892633" lon="-6.128333285450935">
        <ele>396.3999938964844</ele>
        <time>2015-05-03T10:09:33.000Z</time>
      </trkpt>
      <trkpt lat="39.85931843519211" lon="-6.128398748114705">
        <ele>395.6000061035156</ele>
        <time>2015-05-03T10:09:34.000Z</time>
      </trkpt>
      <trkpt lat="39.85925833694637" lon="-6.128486758098006">
        <ele>395.0</ele>
        <time>2015-05-03T10:09:35.000Z</time>
      </trkpt>
      <trkpt lat="39.859147695824504" lon="-6.128625813871622">
        <ele>394.0</ele>
        <time>2015-05-03T10:09:37.000Z</time>
      </trkpt>
      <trkpt lat="39.85909329727292" lon="-6.128665879368782">
        <ele>393.6000061035156</ele>
        <time>2015-05-03T10:09:38.000Z</time>
      </trkpt>
      <trkpt lat="39.859032444655895" lon="-6.128614749759436">
        <ele>394.20001220703125</ele>
        <time>2015-05-03T10:09:39.000Z</time>
      </trkpt>
      <trkpt lat="39.85899196006358" lon="-6.128574013710022">
        <ele>394.20001220703125</ele>
        <time>2015-05-03T10:09:40.000Z</time>
      </trkpt>
      <trkpt lat="39.858967484906316" lon="-6.128503689542413">
        <ele>394.3999938964844</ele>
        <time>2015-05-03T10:09:41.000Z</time>
      </trkpt>
      <trkpt lat="39.85890227369964" lon="-6.128373686224222">
        <ele>394.0</ele>
        <time>2015-05-03T10:09:43.000Z</time>
      </trkpt>
      <trkpt lat="39.8588593583554" lon="-6.128318030387163">
        <ele>394.0</ele>
        <time>2015-05-03T10:09:44.000Z</time>
      </trkpt>
      <trkpt lat="39.85877763479948" lon="-6.128222979605198">
        <ele>394.20001220703125</ele>
        <time>2015-05-03T10:09:46.000Z</time>
      </trkpt>
      <trkpt lat="39.85869783908129" lon="-6.128144189715385">
        <ele>394.6000061035156</ele>
        <time>2015-05-03T10:09:48.000Z</time>
      </trkpt>
      <trkpt lat="39.85865970142186" lon="-6.128110410645604">
        <ele>395.0</ele>
        <time>2015-05-03T10:09:49.000Z</time>
      </trkpt>
      <trkpt lat="39.85859641805291" lon="-6.128056598827243">
        <ele>396.0</ele>
        <time>2015-05-03T10:09:51.000Z</time>
      </trkpt>
      <trkpt lat="39.85853363759816" lon="-6.128021981567144">
        <ele>397.3999938964844</ele>
        <time>2015-05-03T10:09:53.000Z</time>
      </trkpt>
      <trkpt lat="39.8584486451" lon="-6.127973115071654">
        <ele>398.3999938964844</ele>
        <time>2015-05-03T10:09:56.000Z</time>
      </trkpt>
      <trkpt lat="39.85835116356611" lon="-6.127876052632928">
        <ele>399.79998779296875</ele>
        <time>2015-05-03T10:10:00.000Z</time>
      </trkpt>
      <trkpt lat="39.85827907919884" lon="-6.127751665189862">
        <ele>400.0</ele>
        <time>2015-05-03T10:10:04.000Z</time>
      </trkpt>
      <trkpt lat="39.85826684162021" lon="-6.127706486731768">
        <ele>400.3999938964844</ele>
        <time>2015-05-03T10:10:05.000Z</time>
      </trkpt>
      <trkpt lat="39.85824353992939" lon="-6.1276317201554775">
        <ele>401.0</ele>
        <time>2015-05-03T10:10:07.000Z</time>
      </trkpt>
      <trkpt lat="39.858170533552766" lon="-6.127321673557162">
        <ele>402.20001220703125</ele>
        <time>2015-05-03T10:10:14.000Z</time>
      </trkpt>
      <trkpt lat="39.85806819051504" lon="-6.127011459320784">
        <ele>401.20001220703125</ele>
        <time>2015-05-03T10:10:19.000Z</time>
      </trkpt>
      <trkpt lat="39.85804698430002" lon="-6.126942811533809">
        <ele>400.6000061035156</ele>
        <time>2015-05-03T10:10:20.000Z</time>
      </trkpt>
      <trkpt lat="39.85799669288099" lon="-6.126738460734487">
        <ele>398.79998779296875</ele>
        <time>2015-05-03T10:10:22.000Z</time>
      </trkpt>
      <trkpt lat="39.857975067570806" lon="-6.126640476286411">
        <ele>398.0</ele>
        <time>2015-05-03T10:10:23.000Z</time>
      </trkpt>
      <trkpt lat="39.85795419663191" lon="-6.1264975648373365">
        <ele>396.79998779296875</ele>
        <time>2015-05-03T10:10:24.000Z</time>
      </trkpt>
      <trkpt lat="39.85792393796146" lon="-6.126368651166558">
        <ele>396.0</ele>
        <time>2015-05-03T10:10:25.000Z</time>
      </trkpt>
      <trkpt lat="39.85788831487298" lon="-6.126245940104127">
        <ele>394.6000061035156</ele>
        <time>2015-05-03T10:10:26.000Z</time>
      </trkpt>
      <trkpt lat="39.85782561823726" lon="-6.126122390851378">
        <ele>393.3999938964844</ele>
        <time>2015-05-03T10:10:27.000Z</time>
      </trkpt>
      <trkpt lat="39.857704332098365" lon="-6.125922566279769">
        <ele>392.3999938964844</ele>
        <time>2015-05-03T10:10:29.000Z</time>
      </trkpt>
      <trkpt lat="39.857567036524415" lon="-6.125803207978606">
        <ele>392.79998779296875</ele>
        <time>2015-05-03T10:10:31.000Z</time>
      </trkpt>
      <trkpt lat="39.857496628537774" lon="-6.1257819179445505">
        <ele>393.20001220703125</ele>
        <time>2015-05-03T10:10:32.000Z</time>
      </trkpt>
      <trkpt lat="39.85742940567434" lon="-6.125772697851062">
        <ele>393.3999938964844</ele>
        <time>2015-05-03T10:10:33.000Z</time>
      </trkpt>
      <trkpt lat="39.85736981034279" lon="-6.125814523547888">
        <ele>393.79998779296875</ele>
        <time>2015-05-03T10:10:34.000Z</time>
      </trkpt>
      <trkpt lat="39.8573209438473" lon="-6.12584687769413">
        <ele>394.3999938964844</ele>
        <time>2015-05-03T10:10:35.000Z</time>
      </trkpt>
      <trkpt lat="39.85728037543595" lon="-6.125877387821674">
        <ele>395.3999938964844</ele>
        <time>2015-05-03T10:10:36.000Z</time>
      </trkpt>
      <trkpt lat="39.85724416561425" lon="-6.12590747885406">
        <ele>396.20001220703125</ele>
        <time>2015-05-03T10:10:37.000Z</time>
      </trkpt>
      <trkpt lat="39.85712606459856" lon="-6.1259792279452085">
        <ele>397.3999938964844</ele>
        <time>2015-05-03T10:10:40.000Z</time>
      </trkpt>
      <trkpt lat="39.85709136351943" lon="-6.125999512150884">
        <ele>397.79998779296875</ele>
        <time>2015-05-03T10:10:41.000Z</time>
      </trkpt>
      <trkpt lat="39.8570151720196" lon="-6.126030022278428">
        <ele>398.6000061035156</ele>
        <time>2015-05-03T10:10:43.000Z</time>
      </trkpt>
      <trkpt lat="39.856851641088724" lon="-6.126049300655723">
        <ele>399.6000061035156</ele>
        <time>2015-05-03T10:10:47.000Z</time>
      </trkpt>
      <trkpt lat="39.85665692947805" lon="-6.126098670065403">
        <ele>400.6000061035156</ele>
        <time>2015-05-03T10:10:52.000Z</time>
      </trkpt>
      <trkpt lat="39.856619043275714" lon="-6.126118367537856">
        <ele>400.79998779296875</ele>
        <time>2015-05-03T10:10:53.000Z</time>
      </trkpt>
      <trkpt lat="39.856531200930476" lon="-6.126140831038356">
        <ele>400.79998779296875</ele>
        <time>2015-05-03T10:10:55.000Z</time>
      </trkpt>
      <trkpt lat="39.85648979432881" lon="-6.126126665621996">
        <ele>401.0</ele>
        <time>2015-05-03T10:10:56.000Z</time>
      </trkpt>
      <trkpt lat="39.85639398917556" lon="-6.125977970659733">
        <ele>400.3999938964844</ele>
        <time>2015-05-03T10:10:59.000Z</time>
      </trkpt>
      <trkpt lat="39.85634487122297" lon="-6.125846290960908">
        <ele>399.79998779296875</ele>
        <time>2015-05-03T10:11:01.000Z</time>
      </trkpt>
      <trkpt lat="39.856304889544845" lon="-6.125703798606992">
        <ele>399.6000061035156</ele>
        <time>2015-05-03T10:11:03.000Z</time>
      </trkpt>
      <trkpt lat="39.856282426044345" lon="-6.125561809167266">
        <ele>399.6000061035156</ele>
        <time>2015-05-03T10:11:05.000Z</time>
      </trkpt>
      <trkpt lat="39.856286281719804" lon="-6.125487629324198">
        <ele>399.6000061035156</ele>
        <time>2015-05-03T10:11:06.000Z</time>
      </trkpt>
      <trkpt lat="39.85626499168575" lon="-6.1253454722464085">
        <ele>400.0</ele>
        <time>2015-05-03T10:11:08.000Z</time>
      </trkpt>
      <trkpt lat="39.8561742156744" lon="-6.125276070088148">
        <ele>399.79998779296875</ele>
        <time>2015-05-03T10:11:10.000Z</time>
      </trkpt>
      <trkpt lat="39.85605049878359" lon="-6.125354692339897">
        <ele>400.6000061035156</ele>
        <time>2015-05-03T10:11:13.000Z</time>
      </trkpt>
      <trkpt lat="39.856014624238014" lon="-6.125389477238059">
        <ele>401.0</ele>
        <time>2015-05-03T10:11:14.000Z</time>
      </trkpt>
      <trkpt lat="39.855902306735516" lon="-6.125480839982629">
        <ele>402.20001220703125</ele>
        <time>2015-05-03T10:11:17.000Z</time>
      </trkpt>
      <trkpt lat="39.85579744912684" lon="-6.125563820824027">
        <ele>403.3999938964844</ele>
        <time>2015-05-03T10:11:20.000Z</time>
      </trkpt>
      <trkpt lat="39.85576383769512" lon="-6.1255881283432245">
        <ele>403.6000061035156</ele>
        <time>2015-05-03T10:11:21.000Z</time>
      </trkpt>
      <trkpt lat="39.85566174611449" lon="-6.12565484829247">
        <ele>404.79998779296875</ele>
        <time>2015-05-03T10:11:24.000Z</time>
      </trkpt>
      <trkpt lat="39.85557189211249" lon="-6.125725256279111">
        <ele>405.79998779296875</ele>
        <time>2015-05-03T10:11:27.000Z</time>
      </trkpt>
      <trkpt lat="39.855513805523515" lon="-6.125770267099142">
        <ele>406.6000061035156</ele>
        <time>2015-05-03T10:11:29.000Z</time>
      </trkpt>
      <trkpt lat="39.855486899614334" lon="-6.125794155523181">
        <ele>407.0</ele>
        <time>2015-05-03T10:11:30.000Z</time>
      </trkpt>
      <trkpt lat="39.85538061708212" lon="-6.125883590430021">
        <ele>408.6000061035156</ele>
        <time>2015-05-03T10:11:34.000Z</time>
      </trkpt>
      <trkpt lat="39.85535589046776" lon="-6.12590504810214">
        <ele>409.0</ele>
        <time>2015-05-03T10:11:35.000Z</time>
      </trkpt>
      <trkpt lat="39.85530652105808" lon="-6.125949053093791">
        <ele>409.6000061035156</ele>
        <time>2015-05-03T10:11:37.000Z</time>
      </trkpt>
      <trkpt lat="39.85520929098129" lon="-6.126038571819663">
        <ele>410.6000061035156</ele>
        <time>2015-05-03T10:11:41.000Z</time>
      </trkpt>
      <trkpt lat="39.85516469925642" lon="-6.126081654801965">
        <ele>411.0</ele>
        <time>2015-05-03T10:11:43.000Z</time>
      </trkpt>
      <trkpt lat="39.85509906895459" lon="-6.126148207113147">
        <ele>411.79998779296875</ele>
        <time>2015-05-03T10:11:46.000Z</time>
      </trkpt>
      <trkpt lat="39.85500963404775" lon="-6.126232864335179">
        <ele>413.20001220703125</ele>
        <time>2015-05-03T10:11:50.000Z</time>
      </trkpt>
      <trkpt lat="39.854965126141906" lon="-6.126284161582589">
        <ele>413.6000061035156</ele>
        <time>2015-05-03T10:11:52.000Z</time>
      </trkpt>
      <trkpt lat="39.854862531647086" lon="-6.126407543197274">
        <ele>414.20001220703125</ele>
        <time>2015-05-03T10:11:57.000Z</time>
      </trkpt>
      <trkpt lat="39.85482816584408" lon="-6.126447860151529">
        <ele>414.20001220703125</ele>
        <time>2015-05-03T10:11:59.000Z</time>
      </trkpt>
      <trkpt lat="39.85473311506212" lon="-6.126579036936164">
        <ele>414.0</ele>
        <time>2015-05-03T10:12:04.000Z</time>
      </trkpt>
      <trkpt lat="39.85457377508283" lon="-6.126789338886738">
        <ele>413.20001220703125</ele>
        <time>2015-05-03T10:12:11.000Z</time>
      </trkpt>
      <trkpt lat="39.85445307567716" lon="-6.126974914222956">
        <ele>412.79998779296875</ele>
        <time>2015-05-03T10:12:16.000Z</time>
      </trkpt>
      <trkpt lat="39.854427091777325" lon="-6.127016907557845">
        <ele>412.79998779296875</ele>
        <time>2015-05-03T10:12:17.000Z</time>
      </trkpt>
      <trkpt lat="39.85435609705746" lon="-6.127179265022278">
        <ele>412.0</ele>
        <time>2015-05-03T10:12:20.000Z</time>
      </trkpt>
      <trkpt lat="39.85433463938534" lon="-6.127242296934128">
        <ele>411.6000061035156</ele>
        <time>2015-05-03T10:12:21.000Z</time>
      </trkpt>
      <trkpt lat="39.85431611537933" lon="-6.127313207834959">
        <ele>411.20001220703125</ele>
        <time>2015-05-03T10:12:22.000Z</time>
      </trkpt>
      <trkpt lat="39.854302452877164" lon="-6.127385376021266">
        <ele>410.79998779296875</ele>
        <time>2015-05-03T10:12:23.000Z</time>
      </trkpt>
      <trkpt lat="39.854278229177" lon="-6.127547146752477">
        <ele>410.20001220703125</ele>
        <time>2015-05-03T10:12:25.000Z</time>
      </trkpt>
      <trkpt lat="39.8542660754174" lon="-6.127626104280353">
        <ele>410.0</ele>
        <time>2015-05-03T10:12:26.000Z</time>
      </trkpt>
      <trkpt lat="39.85423807986081" lon="-6.127809332683682">
        <ele>409.20001220703125</ele>
        <time>2015-05-03T10:12:28.000Z</time>
      </trkpt>
      <trkpt lat="39.85421150922775" lon="-6.128010246902704">
        <ele>407.6000061035156</ele>
        <time>2015-05-03T10:12:30.000Z</time>
      </trkpt>
      <trkpt lat="39.85420388169587" lon="-6.1281175352633">
        <ele>407.20001220703125</ele>
        <time>2015-05-03T10:12:31.000Z</time>
      </trkpt>
      <trkpt lat="39.854205306619406" lon="-6.128220716491342">
        <ele>406.6000061035156</ele>
        <time>2015-05-03T10:12:32.000Z</time>
      </trkpt>
      <trkpt lat="39.85421125777066" lon="-6.12832716666162">
        <ele>406.3999938964844</ele>
        <time>2015-05-03T10:12:33.000Z</time>
      </trkpt>
      <trkpt lat="39.854211090132594" lon="-6.128443842753768">
        <ele>406.0</ele>
        <time>2015-05-03T10:12:34.000Z</time>
      </trkpt>
      <trkpt lat="39.854198936372995" lon="-6.128554483875632">
        <ele>405.6000061035156</ele>
        <time>2015-05-03T10:12:35.000Z</time>
      </trkpt>
      <trkpt lat="39.854180831462145" lon="-6.128664035350084">
        <ele>405.0</ele>
        <time>2015-05-03T10:12:36.000Z</time>
      </trkpt>
      <trkpt lat="39.85415820032358" lon="-6.128755649551749">
        <ele>405.0</ele>
        <time>2015-05-03T10:12:37.000Z</time>
      </trkpt>
      <trkpt lat="39.854118721559644" lon="-6.128831589594483">
        <ele>404.3999938964844</ele>
        <time>2015-05-03T10:12:38.000Z</time>
      </trkpt>
      <trkpt lat="39.854003889486194" lon="-6.128881378099322">
        <ele>403.79998779296875</ele>
        <time>2015-05-03T10:12:40.000Z</time>
      </trkpt>
      <trkpt lat="39.85394789837301" lon="-6.128868972882628">
        <ele>403.6000061035156</ele>
        <time>2015-05-03T10:12:41.000Z</time>
      </trkpt>
      <trkpt lat="39.853806495666504" lon="-6.1288047675043344">
        <ele>404.0</ele>
        <time>2015-05-03T10:12:44.000Z</time>
      </trkpt>
      <trkpt lat="39.85373198054731" lon="-6.128757745027542">
        <ele>404.6000061035156</ele>
        <time>2015-05-03T10:12:46.000Z</time>
      </trkpt>
      <trkpt lat="39.85369744710624" lon="-6.1287337727844715">
        <ele>405.20001220703125</ele>
        <time>2015-05-03T10:12:47.000Z</time>
      </trkpt>
      <trkpt lat="39.85362988896668" lon="-6.128688845783472">
        <ele>406.0</ele>
        <time>2015-05-03T10:12:49.000Z</time>
      </trkpt>
      <trkpt lat="39.85359912738204" lon="-6.128665627911687">
        <ele>406.20001220703125</ele>
        <time>2015-05-03T10:12:50.000Z</time>
      </trkpt>
      <trkpt lat="39.853534838184714" lon="-6.128617515787482">
        <ele>406.79998779296875</ele>
        <time>2015-05-03T10:12:52.000Z</time>
      </trkpt>
      <trkpt lat="39.85350231640041" lon="-6.128590861335397">
        <ele>407.20001220703125</ele>
        <time>2015-05-03T10:12:53.000Z</time>
      </trkpt>
      <trkpt lat="39.85345118679106" lon="-6.128525482490659">
        <ele>407.79998779296875</ele>
        <time>2015-05-03T10:12:55.000Z</time>
      </trkpt>
      <trkpt lat="39.853395614773035" lon="-6.128423810005188">
        <ele>408.20001220703125</ele>
        <time>2015-05-03T10:12:58.000Z</time>
      </trkpt>
      <trkpt lat="39.85335580073297" lon="-6.128336889669299">
        <ele>409.6000061035156</ele>
        <time>2015-05-03T10:13:01.000Z</time>
      </trkpt>
      <trkpt lat="39.85332805663347" lon="-6.12828123383224">
        <ele>410.79998779296875</ele>
        <time>2015-05-03T10:13:03.000Z</time>
      </trkpt>
      <trkpt lat="39.85329276882112" lon="-6.128213172778487">
        <ele>411.20001220703125</ele>
        <time>2015-05-03T10:13:06.000Z</time>
      </trkpt>
      <trkpt lat="39.853271059691906" lon="-6.1281689163297415">
        <ele>411.79998779296875</ele>
        <time>2015-05-03T10:13:08.000Z</time>
      </trkpt>
      <trkpt lat="39.85325806774199" lon="-6.128147291019559">
        <ele>412.0</ele>
        <time>2015-05-03T10:13:09.000Z</time>
      </trkpt>
      <trkpt lat="39.85321640968323" lon="-6.128097418695688">
        <ele>413.0</ele>
        <time>2015-05-03T10:13:12.000Z</time>
      </trkpt>
      <trkpt lat="39.85318179242313" lon="-6.128039583563805">
        <ele>413.6000061035156</ele>
        <time>2015-05-03T10:13:15.000Z</time>
      </trkpt>
      <trkpt lat="39.853144492954016" lon="-6.128003625199199">
        <ele>414.20001220703125</ele>
        <time>2015-05-03T10:13:17.000Z</time>
      </trkpt>
      <trkpt lat="39.85305120237172" lon="-6.127930032089353">
        <ele>414.79998779296875</ele>
        <time>2015-05-03T10:13:21.000Z</time>
      </trkpt>
      <trkpt lat="39.85300392843783" lon="-6.127881500869989">
        <ele>415.3999938964844</ele>
        <time>2015-05-03T10:13:23.000Z</time>
      </trkpt>
      <trkpt lat="39.852908458560705" lon="-6.127754766494036">
        <ele>416.3999938964844</ele>
        <time>2015-05-03T10:13:28.000Z</time>
      </trkpt>
      <trkpt lat="39.85289387404919" lon="-6.127725765109062">
        <ele>416.79998779296875</ele>
        <time>2015-05-03T10:13:29.000Z</time>
      </trkpt>
      <trkpt lat="39.8528328537941" lon="-6.127609591931105">
        <ele>417.79998779296875</ele>
        <time>2015-05-03T10:13:33.000Z</time>
      </trkpt>
      <trkpt lat="39.85281676054001" lon="-6.127578746527433">
        <ele>418.0</ele>
        <time>2015-05-03T10:13:34.000Z</time>
      </trkpt>
      <trkpt lat="39.85268600285053" lon="-6.127418652176857">
        <ele>418.0</ele>
        <time>2015-05-03T10:13:40.000Z</time>
      </trkpt>
      <trkpt lat="39.852553149685264" lon="-6.127312621101737">
        <ele>417.20001220703125</ele>
        <time>2015-05-03T10:13:44.000Z</time>
      </trkpt>
      <trkpt lat="39.852456003427505" lon="-6.127285799011588">
        <ele>416.3999938964844</ele>
        <time>2015-05-03T10:13:46.000Z</time>
      </trkpt>
      <trkpt lat="39.85223379917443" lon="-6.127374731004238">
        <ele>416.0</ele>
        <time>2015-05-03T10:13:50.000Z</time>
      </trkpt>
      <trkpt lat="39.85217738896608" lon="-6.127415634691715">
        <ele>415.6000061035156</ele>
        <time>2015-05-03T10:13:51.000Z</time>
      </trkpt>
      <trkpt lat="39.85212089493871" lon="-6.127457628026605">
        <ele>415.0</ele>
        <time>2015-05-03T10:13:52.000Z</time>
      </trkpt>
      <trkpt lat="39.85193909145892" lon="-6.127568436786532">
        <ele>413.79998779296875</ele>
        <time>2015-05-03T10:13:55.000Z</time>
      </trkpt>
      <trkpt lat="39.85181227326393" lon="-6.127628535032272">
        <ele>413.6000061035156</ele>
        <time>2015-05-03T10:13:57.000Z</time>
      </trkpt>
      <trkpt lat="39.851676654070616" lon="-6.127639012411237">
        <ele>412.6000061035156</ele>
        <time>2015-05-03T10:13:59.000Z</time>
      </trkpt>
      <trkpt lat="39.85160549171269" lon="-6.127610597759485">
        <ele>412.20001220703125</ele>
        <time>2015-05-03T10:14:00.000Z</time>
      </trkpt>
      <trkpt lat="39.85153910703957" lon="-6.127558294683695">
        <ele>411.3999938964844</ele>
        <time>2015-05-03T10:14:01.000Z</time>
      </trkpt>
      <trkpt lat="39.8514718003571" lon="-6.127485036849976">
        <ele>410.3999938964844</ele>
        <time>2015-05-03T10:14:02.000Z</time>
      </trkpt>
      <trkpt lat="39.85139745287597" lon="-6.127409767359495">
        <ele>409.0</ele>
        <time>2015-05-03T10:14:03.000Z</time>
      </trkpt>
      <trkpt lat="39.851312544196844" lon="-6.127349669113755">
        <ele>408.0</ele>
        <time>2015-05-03T10:14:04.000Z</time>
      </trkpt>
      <trkpt lat="39.851131830364466" lon="-6.12728982232511">
        <ele>406.79998779296875</ele>
        <time>2015-05-03T10:14:06.000Z</time>
      </trkpt>
      <trkpt lat="39.85105379484594" lon="-6.12727515399456">
        <ele>406.79998779296875</ele>
        <time>2015-05-03T10:14:07.000Z</time>
      </trkpt>
      <trkpt lat="39.85093301162124" lon="-6.127255205065012">
        <ele>407.79998779296875</ele>
        <time>2015-05-03T10:14:09.000Z</time>
      </trkpt>
      <trkpt lat="39.85089001245797" lon="-6.127250678837299">
        <ele>408.6000061035156</ele>
        <time>2015-05-03T10:14:10.000Z</time>
      </trkpt>
      <trkpt lat="39.850831842049956" lon="-6.1272417940199375">
        <ele>410.3999938964844</ele>
        <time>2015-05-03T10:14:12.000Z</time>
      </trkpt>
      <trkpt lat="39.85081105493009" lon="-6.127237351611257">
        <ele>411.0</ele>
        <time>2015-05-03T10:14:13.000Z</time>
      </trkpt>
      <trkpt lat="39.85079202800989" lon="-6.127234417945147">
        <ele>411.79998779296875</ele>
        <time>2015-05-03T10:14:14.000Z</time>
      </trkpt>
      <trkpt lat="39.85075640492141" lon="-6.12722922116518">
        <ele>412.6000061035156</ele>
        <time>2015-05-03T10:14:16.000Z</time>
      </trkpt>
      <trkpt lat="39.85073762945831" lon="-6.127225952222943">
        <ele>412.79998779296875</ele>
        <time>2015-05-03T10:14:17.000Z</time>
      </trkpt>
      <trkpt lat="39.8507016710937" lon="-6.127222599461675">
        <ele>414.0</ele>
        <time>2015-05-03T10:14:19.000Z</time>
      </trkpt>
      <trkpt lat="39.85066638328135" lon="-6.127225700765848">
        <ele>415.0</ele>
        <time>2015-05-03T10:14:21.000Z</time>
      </trkpt>
      <trkpt lat="39.85064928419888" lon="-6.127223940566182">
        <ele>415.3999938964844</ele>
        <time>2015-05-03T10:14:22.000Z</time>
      </trkpt>
      <trkpt lat="39.85059765167534" lon="-6.127216899767518">
        <ele>416.0</ele>
        <time>2015-05-03T10:14:25.000Z</time>
      </trkpt>
      <trkpt lat="39.85056772828102" lon="-6.1272108647972345">
        <ele>416.6000061035156</ele>
        <time>2015-05-03T10:14:27.000Z</time>
      </trkpt>
      <trkpt lat="39.85053889453411" lon="-6.127204494550824">
        <ele>417.3999938964844</ele>
        <time>2015-05-03T10:14:29.000Z</time>
      </trkpt>
      <trkpt lat="39.850524896755815" lon="-6.127200806513429">
        <ele>417.79998779296875</ele>
        <time>2015-05-03T10:14:30.000Z</time>
      </trkpt>
      <trkpt lat="39.85049690119922" lon="-6.127191334962845">
        <ele>418.79998779296875</ele>
        <time>2015-05-03T10:14:32.000Z</time>
      </trkpt>
      <trkpt lat="39.85048298723996" lon="-6.127186389639974">
        <ele>419.0</ele>
        <time>2015-05-03T10:14:33.000Z</time>
      </trkpt>
      <trkpt lat="39.85045876353979" lon="-6.1271787621080875">
        <ele>419.6000061035156</ele>
        <time>2015-05-03T10:14:35.000Z</time>
      </trkpt>
      <trkpt lat="39.85044845379889" lon="-6.127174906432629">
        <ele>420.0</ele>
        <time>2015-05-03T10:14:36.000Z</time>
      </trkpt>
      <trkpt lat="39.85043571330607" lon="-6.127182198688388">
        <ele>420.3999938964844</ele>
        <time>2015-05-03T10:14:37.000Z</time>
      </trkpt>
      <trkpt lat="39.8503908701241" lon="-6.127180270850658">
        <ele>421.3999938964844</ele>
        <time>2015-05-03T10:14:40.000Z</time>
      </trkpt>
      <trkpt lat="39.85033152624965" lon="-6.127163507044315">
        <ele>422.3999938964844</ele>
        <time>2015-05-03T10:14:44.000Z</time>
      </trkpt>
      <trkpt lat="39.85030244104564" lon="-6.127154286950827">
        <ele>423.0</ele>
        <time>2015-05-03T10:14:46.000Z</time>
      </trkpt>
      <trkpt lat="39.85027779825032" lon="-6.1271413788199425">
        <ele>423.20001220703125</ele>
        <time>2015-05-03T10:14:48.000Z</time>
      </trkpt>
      <trkpt lat="39.85024904832244" lon="-6.127139115706086">
        <ele>423.79998779296875</ele>
        <time>2015-05-03T10:14:50.000Z</time>
      </trkpt>
      <trkpt lat="39.850235637277365" lon="-6.127134505659342">
        <ele>424.0</ele>
        <time>2015-05-03T10:14:51.000Z</time>
      </trkpt>
      <trkpt lat="39.8501752037555" lon="-6.127118831500411">
        <ele>424.6000061035156</ele>
        <time>2015-05-03T10:14:55.000Z</time>
      </trkpt>
      <trkpt lat="39.85015927813947" lon="-6.127111203968525">
        <ele>424.79998779296875</ele>
        <time>2015-05-03T10:14:56.000Z</time>
      </trkpt>
      <trkpt lat="39.850124744698405" lon="-6.127098631113768">
        <ele>425.3999938964844</ele>
        <time>2015-05-03T10:14:58.000Z</time>
      </trkpt>
      <trkpt lat="39.850090462714434" lon="-6.127089662477374">
        <ele>426.0</ele>
        <time>2015-05-03T10:15:00.000Z</time>
      </trkpt>
      <trkpt lat="39.850019216537476" lon="-6.127063846215606">
        <ele>427.0</ele>
        <time>2015-05-03T10:15:04.000Z</time>
      </trkpt>
      <trkpt lat="39.849970852956176" lon="-6.127048172056675">
        <ele>427.79998779296875</ele>
        <time>2015-05-03T10:15:07.000Z</time>
      </trkpt>
      <trkpt lat="39.84995509497821" lon="-6.127040795981884">
        <ele>428.0</ele>
        <time>2015-05-03T10:15:08.000Z</time>
      </trkpt>
      <trkpt lat="39.84990254044533" lon="-6.127016991376877">
        <ele>429.20001220703125</ele>
        <time>2015-05-03T10:15:11.000Z</time>
      </trkpt>
      <trkpt lat="39.849833976477385" lon="-6.126993354409933">
        <ele>429.79998779296875</ele>
        <time>2015-05-03T10:15:15.000Z</time>
      </trkpt>
      <trkpt lat="39.84980405308306" lon="-6.126982709392905">
        <ele>430.6000061035156</ele>
        <time>2015-05-03T10:15:17.000Z</time>
      </trkpt>
      <trkpt lat="39.84976097010076" lon="-6.126955468207598">
        <ele>431.6000061035156</ele>
        <time>2015-05-03T10:15:20.000Z</time>
      </trkpt>
      <trkpt lat="39.84974588267505" lon="-6.12694825977087">
        <ele>431.79998779296875</ele>
        <time>2015-05-03T10:15:21.000Z</time>
      </trkpt>
      <trkpt lat="39.849670780822635" lon="-6.126904841512442">
        <ele>432.79998779296875</ele>
        <time>2015-05-03T10:15:26.000Z</time>
      </trkpt>
      <trkpt lat="39.849644880741835" lon="-6.126886401325464">
        <ele>433.3999938964844</ele>
        <time>2015-05-03T10:15:28.000Z</time>
      </trkpt>
      <trkpt lat="39.8496173042804" lon="-6.1268645245581865">
        <ele>433.79998779296875</ele>
        <time>2015-05-03T10:15:30.000Z</time>
      </trkpt>
      <trkpt lat="39.849560391157866" lon="-6.126820184290409">
        <ele>435.0</ele>
        <time>2015-05-03T10:15:34.000Z</time>
      </trkpt>
      <trkpt lat="39.84953365288675" lon="-6.1267956253141165">
        <ele>435.6000061035156</ele>
        <time>2015-05-03T10:15:36.000Z</time>
      </trkpt>
      <trkpt lat="39.84949207864702" lon="-6.126759080216289">
        <ele>436.20001220703125</ele>
        <time>2015-05-03T10:15:39.000Z</time>
      </trkpt>
      <trkpt lat="39.849440194666386" lon="-6.126712812110782">
        <ele>437.0</ele>
        <time>2015-05-03T10:15:43.000Z</time>
      </trkpt>
      <trkpt lat="39.84941270202398" lon="-6.126692276448011">
        <ele>437.3999938964844</ele>
        <time>2015-05-03T10:15:45.000Z</time>
      </trkpt>
      <trkpt lat="39.849361991509795" lon="-6.126642152667046">
        <ele>438.79998779296875</ele>
        <time>2015-05-03T10:15:49.000Z</time>
      </trkpt>
      <trkpt lat="39.84934740699828" lon="-6.126631423830986">
        <ele>438.79998779296875</ele>
        <time>2015-05-03T10:15:50.000Z</time>
      </trkpt>
      <trkpt lat="39.84929686412215" lon="-6.12657593563199">
        <ele>440.0</ele>
        <time>2015-05-03T10:15:54.000Z</time>
      </trkpt>
      <trkpt lat="39.8492599837482" lon="-6.1265358701348305">
        <ele>440.6000061035156</ele>
        <time>2015-05-03T10:15:57.000Z</time>
      </trkpt>
      <trkpt lat="39.8492478299886" lon="-6.126525811851025">
        <ele>441.0</ele>
        <time>2015-05-03T10:15:58.000Z</time>
      </trkpt>
      <trkpt lat="39.849202148616314" lon="-6.126480884850025">
        <ele>442.3999938964844</ele>
        <time>2015-05-03T10:16:02.000Z</time>
      </trkpt>
      <trkpt lat="39.84917180612683" lon="-6.126441238448024">
        <ele>442.79998779296875</ele>
        <time>2015-05-03T10:16:05.000Z</time>
      </trkpt>
      <trkpt lat="39.84914833679795" lon="-6.126420786604285">
        <ele>443.6000061035156</ele>
        <time>2015-05-03T10:16:07.000Z</time>
      </trkpt>
      <trkpt lat="39.84910475090146" lon="-6.126375021412969">
        <ele>444.3999938964844</ele>
        <time>2015-05-03T10:16:11.000Z</time>
      </trkpt>
      <trkpt lat="39.84909159131348" lon="-6.126367729157209">
        <ele>444.79998779296875</ele>
        <time>2015-05-03T10:16:12.000Z</time>
      </trkpt>
      <trkpt lat="39.84907139092684" lon="-6.126344846561551">
        <ele>445.3999938964844</ele>
        <time>2015-05-03T10:16:14.000Z</time>
      </trkpt>
      <trkpt lat="39.849063428118825" lon="-6.126329926773906">
        <ele>445.79998779296875</ele>
        <time>2015-05-03T10:16:15.000Z</time>
      </trkpt>
      <trkpt lat="39.8490406293422" lon="-6.126303020864725">
        <ele>446.20001220703125</ele>
        <time>2015-05-03T10:16:17.000Z</time>
      </trkpt>
      <trkpt lat="39.84903182834387" lon="-6.126288687810302">
        <ele>446.6000061035156</ele>
        <time>2015-05-03T10:16:18.000Z</time>
      </trkpt>
      <trkpt lat="39.849010622128844" lon="-6.126259183511138">
        <ele>446.79998779296875</ele>
        <time>2015-05-03T10:16:20.000Z</time>
      </trkpt>
      <trkpt lat="39.84899444505572" lon="-6.126232026144862">
        <ele>447.3999938964844</ele>
        <time>2015-05-03T10:16:22.000Z</time>
      </trkpt>
      <trkpt lat="39.848984805867076" lon="-6.126218615099788">
        <ele>448.0</ele>
        <time>2015-05-03T10:16:23.000Z</time>
      </trkpt>
      <trkpt lat="39.84896301291883" lon="-6.126196654513478">
        <ele>448.3999938964844</ele>
        <time>2015-05-03T10:16:25.000Z</time>
      </trkpt>
      <trkpt lat="39.848929066210985" lon="-6.126158349215984">
        <ele>448.79998779296875</ele>
        <time>2015-05-03T10:16:28.000Z</time>
      </trkpt>
      <trkpt lat="39.84891129657626" lon="-6.1261276714503765">
        <ele>449.20001220703125</ele>
        <time>2015-05-03T10:16:30.000Z</time>
      </trkpt>
      <trkpt lat="39.8488746676594" lon="-6.126070590689778">
        <ele>450.20001220703125</ele>
        <time>2015-05-03T10:16:34.000Z</time>
      </trkpt>
      <trkpt lat="39.84885497018695" lon="-6.126037985086441">
        <ele>450.6000061035156</ele>
        <time>2015-05-03T10:16:36.000Z</time>
      </trkpt>
      <trkpt lat="39.84883652999997" lon="-6.1260048765689135">
        <ele>451.20001220703125</ele>
        <time>2015-05-03T10:16:38.000Z</time>
      </trkpt>
      <trkpt lat="39.84879143536091" lon="-6.1259241588413715">
        <ele>452.0</ele>
        <time>2015-05-03T10:16:43.000Z</time>
      </trkpt>
      <trkpt lat="39.84877039678395" lon="-6.125885350629687">
        <ele>452.3999938964844</ele>
        <time>2015-05-03T10:16:45.000Z</time>
      </trkpt>
      <trkpt lat="39.84871532768011" lon="-6.125790383666754">
        <ele>453.3999938964844</ele>
        <time>2015-05-03T10:16:50.000Z</time>
      </trkpt>
      <trkpt lat="39.84867727383971" lon="-6.1257400922477245">
        <ele>454.6000061035156</ele>
        <time>2015-05-03T10:16:53.000Z</time>
      </trkpt>
      <trkpt lat="39.84862522222102" lon="-6.125678569078445">
        <ele>455.20001220703125</ele>
        <time>2015-05-03T10:16:57.000Z</time>
      </trkpt>
      <trkpt lat="39.84858641400933" lon="-6.125637833029032">
        <ele>455.79998779296875</ele>
        <time>2015-05-03T10:17:00.000Z</time>
      </trkpt>
      <trkpt lat="39.84854919835925" lon="-6.12559231929481">
        <ele>456.79998779296875</ele>
        <time>2015-05-03T10:17:03.000Z</time>
      </trkpt>
      <trkpt lat="39.84853578731418" lon="-6.125575387850404">
        <ele>457.0</ele>
        <time>2015-05-03T10:17:04.000Z</time>
      </trkpt>
      <trkpt lat="39.848460014909506" lon="-6.1254986096173525">
        <ele>458.0</ele>
        <time>2015-05-03T10:17:09.000Z</time>
      </trkpt>
      <trkpt lat="39.84838793054223" lon="-6.125416215509176">
        <ele>459.20001220703125</ele>
        <time>2015-05-03T10:17:14.000Z</time>
      </trkpt>
      <trkpt lat="39.84835892915726" lon="-6.125386711210012">
        <ele>459.6000061035156</ele>
        <time>2015-05-03T10:17:16.000Z</time>
      </trkpt>
      <trkpt lat="39.84829665161669" lon="-6.125327032059431">
        <ele>460.20001220703125</ele>
        <time>2015-05-03T10:17:20.000Z</time>
      </trkpt>
      <trkpt lat="39.848236637189984" lon="-6.125257210806012">
        <ele>461.0</ele>
        <time>2015-05-03T10:17:24.000Z</time>
      </trkpt>
      <trkpt lat="39.848204953595996" lon="-6.125218318775296">
        <ele>461.6000061035156</ele>
        <time>2015-05-03T10:17:26.000Z</time>
      </trkpt>
      <trkpt lat="39.8481079749763" lon="-6.125107845291495">
        <ele>462.79998779296875</ele>
        <time>2015-05-03T10:17:32.000Z</time>
      </trkpt>
      <trkpt lat="39.84800688922405" lon="-6.12498982809484">
        <ele>464.20001220703125</ele>
        <time>2015-05-03T10:17:38.000Z</time>
      </trkpt>
      <trkpt lat="39.847989873960614" lon="-6.124968621879816">
        <ele>464.3999938964844</ele>
        <time>2015-05-03T10:17:39.000Z</time>
      </trkpt>
      <trkpt lat="39.847905384376645" lon="-6.124875834211707">
        <ele>465.3999938964844</ele>
        <time>2015-05-03T10:17:44.000Z</time>
      </trkpt>
      <trkpt lat="39.84781318344176" lon="-6.124793691560626">
        <ele>466.3999938964844</ele>
        <time>2015-05-03T10:17:49.000Z</time>
      </trkpt>
      <trkpt lat="39.847740177065134" lon="-6.124728145077825">
        <ele>467.6000061035156</ele>
        <time>2015-05-03T10:17:53.000Z</time>
      </trkpt>
      <trkpt lat="39.847703548148274" lon="-6.124699059873819">
        <ele>468.20001220703125</ele>
        <time>2015-05-03T10:17:55.000Z</time>
      </trkpt>
      <trkpt lat="39.84764311462641" lon="-6.124661676585674">
        <ele>468.6000061035156</ele>
        <time>2015-05-03T10:17:58.000Z</time>
      </trkpt>
      <trkpt lat="39.84758511185646" lon="-6.124617336317897">
        <ele>469.6000061035156</ele>
        <time>2015-05-03T10:18:01.000Z</time>
      </trkpt>
      <trkpt lat="39.847537418827415" lon="-6.124566625803709">
        <ele>470.6000061035156</ele>
        <time>2015-05-03T10:18:04.000Z</time>
      </trkpt>
      <trkpt lat="39.84752191230655" lon="-6.124548437073827">
        <ele>471.6000061035156</ele>
        <time>2015-05-03T10:18:05.000Z</time>
      </trkpt>
      <trkpt lat="39.84747187234461" lon="-6.12449923530221">
        <ele>472.3999938964844</ele>
        <time>2015-05-03T10:18:08.000Z</time>
      </trkpt>
      <trkpt lat="39.84743759036064" lon="-6.124466881155968">
        <ele>473.0</ele>
        <time>2015-05-03T10:18:10.000Z</time>
      </trkpt>
      <trkpt lat="39.84736232087016" lon="-6.12440837547183">
        <ele>474.20001220703125</ele>
        <time>2015-05-03T10:18:14.000Z</time>
      </trkpt>
      <trkpt lat="39.84730700030923" lon="-6.12436730414629">
        <ele>475.20001220703125</ele>
        <time>2015-05-03T10:18:17.000Z</time>
      </trkpt>
      <trkpt lat="39.84724103473127" lon="-6.124324137344956">
        <ele>476.6000061035156</ele>
        <time>2015-05-03T10:18:21.000Z</time>
      </trkpt>
      <trkpt lat="39.847167525440454" lon="-6.124287089332938">
        <ele>477.6000061035156</ele>
        <time>2015-05-03T10:18:25.000Z</time>
      </trkpt>
      <trkpt lat="39.847150929272175" lon="-6.1242749355733395">
        <ele>478.0</ele>
        <time>2015-05-03T10:18:26.000Z</time>
      </trkpt>
      <trkpt lat="39.84711354598403" lon="-6.124250460416079">
        <ele>479.20001220703125</ele>
        <time>2015-05-03T10:18:28.000Z</time>
      </trkpt>
      <trkpt lat="39.84705059789121" lon="-6.124224979430437">
        <ele>480.20001220703125</ele>
        <time>2015-05-03T10:18:31.000Z</time>
      </trkpt>
      <trkpt lat="39.84702997840941" lon="-6.124216429889202">
        <ele>480.6000061035156</ele>
        <time>2015-05-03T10:18:32.000Z</time>
      </trkpt>
      <trkpt lat="39.846986727789044" lon="-6.124201426282525">
        <ele>481.20001220703125</ele>
        <time>2015-05-03T10:18:34.000Z</time>
      </trkpt>
      <trkpt lat="39.84692101366818" lon="-6.124194385483861">
        <ele>482.3999938964844</ele>
        <time>2015-05-03T10:18:37.000Z</time>
      </trkpt>
      <trkpt lat="39.84690005891025" lon="-6.124198576435447">
        <ele>482.6000061035156</ele>
        <time>2015-05-03T10:18:38.000Z</time>
      </trkpt>
      <trkpt lat="39.84683895483613" lon="-6.124226739630103">
        <ele>483.3999938964844</ele>
        <time>2015-05-03T10:18:41.000Z</time>
      </trkpt>
      <trkpt lat="39.84676946885884" lon="-6.124269487336278">
        <ele>484.20001220703125</ele>
        <time>2015-05-03T10:18:45.000Z</time>
      </trkpt>
      <trkpt lat="39.84669025987387" lon="-6.124345511198044">
        <ele>484.79998779296875</ele>
        <time>2015-05-03T10:18:49.000Z</time>
      </trkpt>
      <trkpt lat="39.84667877666652" lon="-6.12437317147851">
        <ele>485.20001220703125</ele>
        <time>2015-05-03T10:18:50.000Z</time>
      </trkpt>
      <trkpt lat="39.84666544944048" lon="-6.124436538666487">
        <ele>485.79998779296875</ele>
        <time>2015-05-03T10:18:52.000Z</time>
      </trkpt>
      <trkpt lat="39.84665145166218" lon="-6.124468641355634">
        <ele>486.0</ele>
        <time>2015-05-03T10:18:53.000Z</time>
      </trkpt>
      <trkpt lat="39.84660778194666" lon="-6.124522788450122">
        <ele>486.79998779296875</ele>
        <time>2015-05-03T10:18:55.000Z</time>
      </trkpt>
      <trkpt lat="39.846581127494574" lon="-6.124549442902207">
        <ele>486.79998779296875</ele>
        <time>2015-05-03T10:18:56.000Z</time>
      </trkpt>
      <trkpt lat="39.84651541337371" lon="-6.1246168334037066">
        <ele>486.0</ele>
        <time>2015-05-03T10:18:58.000Z</time>
      </trkpt>
      <trkpt lat="39.84644953161478" lon="-6.12472353503108">
        <ele>485.3999938964844</ele>
        <time>2015-05-03T10:19:00.000Z</time>
      </trkpt>
      <trkpt lat="39.84639136120677" lon="-6.12485253252089">
        <ele>485.20001220703125</ele>
        <time>2015-05-03T10:19:02.000Z</time>
      </trkpt>
      <trkpt lat="39.84631944447756" lon="-6.1250801011919975">
        <ele>485.0</ele>
        <time>2015-05-03T10:19:05.000Z</time>
      </trkpt>
      <trkpt lat="39.84624149277806" lon="-6.125421999022365">
        <ele>484.3999938964844</ele>
        <time>2015-05-03T10:19:09.000Z</time>
      </trkpt>
      <trkpt lat="39.846206456422806" lon="-6.1256001982837915">
        <ele>484.3999938964844</ele>
        <time>2015-05-03T10:19:11.000Z</time>
      </trkpt>
      <trkpt lat="39.84609078615904" lon="-6.1262646317481995">
        <ele>483.6000061035156</ele>
        <time>2015-05-03T10:19:18.000Z</time>
      </trkpt>
      <trkpt lat="39.846074944362044" lon="-6.126363957300782">
        <ele>483.3999938964844</ele>
        <time>2015-05-03T10:19:19.000Z</time>
      </trkpt>
      <trkpt lat="39.845956759527326" lon="-6.1270530335605145">
        <ele>482.79998779296875</ele>
        <time>2015-05-03T10:19:26.000Z</time>
      </trkpt>
      <trkpt lat="39.845922477543354" lon="-6.127242548391223">
        <ele>482.79998779296875</ele>
        <time>2015-05-03T10:19:28.000Z</time>
      </trkpt>
      <trkpt lat="39.845904959365726" lon="-6.127338521182537">
        <ele>482.3999938964844</ele>
        <time>2015-05-03T10:19:29.000Z</time>
      </trkpt>
      <trkpt lat="39.84578920528293" lon="-6.127913435921073">
        <ele>481.3999938964844</ele>
        <time>2015-05-03T10:19:35.000Z</time>
      </trkpt>
      <trkpt lat="39.84571695327759" lon="-6.12831836566329">
        <ele>480.3999938964844</ele>
        <time>2015-05-03T10:19:39.000Z</time>
      </trkpt>
      <trkpt lat="39.84566523693502" lon="-6.128632603213191">
        <ele>479.20001220703125</ele>
        <time>2015-05-03T10:19:42.000Z</time>
      </trkpt>
      <trkpt lat="39.845648892223835" lon="-6.128737377002835">
        <ele>479.0</ele>
        <time>2015-05-03T10:19:43.000Z</time>
      </trkpt>
      <trkpt lat="39.84561234712601" lon="-6.128952959552407">
        <ele>478.20001220703125</ele>
        <time>2015-05-03T10:19:45.000Z</time>
      </trkpt>
      <trkpt lat="39.84557387419045" lon="-6.1291770078241825">
        <ele>477.20001220703125</ele>
        <time>2015-05-03T10:19:47.000Z</time>
      </trkpt>
      <trkpt lat="39.84555426053703" lon="-6.12929075025022">
        <ele>476.79998779296875</ele>
        <time>2015-05-03T10:19:48.000Z</time>
      </trkpt>
      <trkpt lat="39.845511596649885" lon="-6.129523431882262">
        <ele>475.6000061035156</ele>
        <time>2015-05-03T10:19:50.000Z</time>
      </trkpt>
      <trkpt lat="39.84544286504388" lon="-6.129884691908956">
        <ele>474.3999938964844</ele>
        <time>2015-05-03T10:19:53.000Z</time>
      </trkpt>
      <trkpt lat="39.845395758748055" lon="-6.130133466795087">
        <ele>473.20001220703125</ele>
        <time>2015-05-03T10:19:55.000Z</time>
      </trkpt>
      <trkpt lat="39.84534462913871" lon="-6.13039062358439">
        <ele>471.79998779296875</ele>
        <time>2015-05-03T10:19:57.000Z</time>
      </trkpt>
      <trkpt lat="39.845319064334035" lon="-6.130521045997739">
        <ele>471.20001220703125</ele>
        <time>2015-05-03T10:19:58.000Z</time>
      </trkpt>
      <trkpt lat="39.84529199078679" lon="-6.130653396248817">
        <ele>470.20001220703125</ele>
        <time>2015-05-03T10:19:59.000Z</time>
      </trkpt>
      <trkpt lat="39.84526567161083" lon="-6.1307888478040695">
        <ele>468.79998779296875</ele>
        <time>2015-05-03T10:20:00.000Z</time>
      </trkpt>
      <trkpt lat="39.84520448371768" lon="-6.13106494769454">
        <ele>467.20001220703125</ele>
        <time>2015-05-03T10:20:02.000Z</time>
      </trkpt>
      <trkpt lat="39.845140278339386" lon="-6.131346747279167">
        <ele>465.3999938964844</ele>
        <time>2015-05-03T10:20:04.000Z</time>
      </trkpt>
      <trkpt lat="39.845109516754746" lon="-6.131490413099527">
        <ele>464.79998779296875</ele>
        <time>2015-05-03T10:20:05.000Z</time>
      </trkpt>
      <trkpt lat="39.84507825225592" lon="-6.131636425852776">
        <ele>464.20001220703125</ele>
        <time>2015-05-03T10:20:06.000Z</time>
      </trkpt>
      <trkpt lat="39.84504925087094" lon="-6.1317860428243876">
        <ele>463.6000061035156</ele>
        <time>2015-05-03T10:20:07.000Z</time>
      </trkpt>
      <trkpt lat="39.84502670355141" lon="-6.131934318691492">
        <ele>463.20001220703125</ele>
        <time>2015-05-03T10:20:08.000Z</time>
      </trkpt>
      <trkpt lat="39.84500767663121" lon="-6.132082007825375">
        <ele>462.6000061035156</ele>
        <time>2015-05-03T10:20:09.000Z</time>
      </trkpt>
      <trkpt lat="39.84499108046293" lon="-6.132230032235384">
        <ele>460.6000061035156</ele>
        <time>2015-05-03T10:20:10.000Z</time>
      </trkpt>
      <trkpt lat="39.84495763666928" lon="-6.132673267275095">
        <ele>459.3999938964844</ele>
        <time>2015-05-03T10:20:13.000Z</time>
      </trkpt>
      <trkpt lat="39.844928132370114" lon="-6.133107282221317">
        <ele>457.79998779296875</ele>
        <time>2015-05-03T10:20:16.000Z</time>
      </trkpt>
      <trkpt lat="39.84491723589599" lon="-6.133243823423982">
        <ele>457.3999938964844</ele>
        <time>2015-05-03T10:20:17.000Z</time>
      </trkpt>
      <trkpt lat="39.84491036273539" lon="-6.1333743296563625">
        <ele>456.79998779296875</ele>
        <time>2015-05-03T10:20:18.000Z</time>
      </trkpt>
      <trkpt lat="39.844872895628214" lon="-6.133756963536143">
        <ele>455.6000061035156</ele>
        <time>2015-05-03T10:20:21.000Z</time>
      </trkpt>
      <trkpt lat="39.84485956840217" lon="-6.133885458111763">
        <ele>455.3999938964844</ele>
        <time>2015-05-03T10:20:22.000Z</time>
      </trkpt>
      <trkpt lat="39.844790333881974" lon="-6.134262140840292">
        <ele>454.79998779296875</ele>
        <time>2015-05-03T10:20:25.000Z</time>
      </trkpt>
      <trkpt lat="39.844763008877635" lon="-6.134387366473675">
        <ele>454.20001220703125</ele>
        <time>2015-05-03T10:20:26.000Z</time>
      </trkpt>
      <trkpt lat="39.84473719261587" lon="-6.134513011202216">
        <ele>454.20001220703125</ele>
        <time>2015-05-03T10:20:27.000Z</time>
      </trkpt>
      <trkpt lat="39.844643315300345" lon="-6.135031348094344">
        <ele>452.79998779296875</ele>
        <time>2015-05-03T10:20:31.000Z</time>
      </trkpt>
      <trkpt lat="39.84457324258983" lon="-6.135437283664942">
        <ele>451.3999938964844</ele>
        <time>2015-05-03T10:20:34.000Z</time>
      </trkpt>
      <trkpt lat="39.84455564059317" lon="-6.135569466277957">
        <ele>450.20001220703125</ele>
        <time>2015-05-03T10:20:35.000Z</time>
      </trkpt>
      <trkpt lat="39.84452387318015" lon="-6.135946149006486">
        <ele>450.0</ele>
        <time>2015-05-03T10:20:38.000Z</time>
      </trkpt>
      <trkpt lat="39.8444920219481" lon="-6.1366077326238155">
        <ele>450.0</ele>
        <time>2015-05-03T10:20:44.000Z</time>
      </trkpt>
      <trkpt lat="39.844483472406864" lon="-6.136916941031814">
        <ele>450.3999938964844</ele>
        <time>2015-05-03T10:20:47.000Z</time>
      </trkpt>
      <trkpt lat="39.84449151903391" lon="-6.137317344546318">
        <ele>450.79998779296875</ele>
        <time>2015-05-03T10:20:51.000Z</time>
      </trkpt>
      <trkpt lat="39.84450367279351" lon="-6.137718670070171">
        <ele>450.6000061035156</ele>
        <time>2015-05-03T10:20:55.000Z</time>
      </trkpt>
      <trkpt lat="39.84449780546129" lon="-6.138227200135589">
        <ele>450.3999938964844</ele>
        <time>2015-05-03T10:21:00.000Z</time>
      </trkpt>
      <trkpt lat="39.8444645293057" lon="-6.138613102957606">
        <ele>450.6000061035156</ele>
        <time>2015-05-03T10:21:04.000Z</time>
      </trkpt>
      <trkpt lat="39.844444412738085" lon="-6.13879214040935">
        <ele>451.3999938964844</ele>
        <time>2015-05-03T10:21:06.000Z</time>
      </trkpt>
      <trkpt lat="39.84443435445428" lon="-6.138884928077459">
        <ele>451.6000061035156</ele>
        <time>2015-05-03T10:21:07.000Z</time>
      </trkpt>
      <trkpt lat="39.84440300613642" lon="-6.139413071796298">
        <ele>452.6000061035156</ele>
        <time>2015-05-03T10:21:13.000Z</time>
      </trkpt>
      <trkpt lat="39.84440300613642" lon="-6.139496807008982">
        <ele>452.6000061035156</ele>
        <time>2015-05-03T10:21:14.000Z</time>
      </trkpt>
      <trkpt lat="39.84442706219852" lon="-6.1399483401328325">
        <ele>452.20001220703125</ele>
        <time>2015-05-03T10:21:19.000Z</time>
      </trkpt>
      <trkpt lat="39.84443242661655" lon="-6.140139447525144">
        <ele>452.0</ele>
        <time>2015-05-03T10:21:21.000Z</time>
      </trkpt>
      <trkpt lat="39.84441842883825" lon="-6.140235839411616">
        <ele>451.79998779296875</ele>
        <time>2015-05-03T10:21:22.000Z</time>
      </trkpt>
      <trkpt lat="39.844345757737756" lon="-6.140404483303428">
        <ele>451.20001220703125</ele>
        <time>2015-05-03T10:21:24.000Z</time>
      </trkpt>
      <trkpt lat="39.844148280099034" lon="-6.140496516600251">
        <ele>450.20001220703125</ele>
        <time>2015-05-03T10:21:27.000Z</time>
      </trkpt>
      <trkpt lat="39.843948455527425" lon="-6.140433568507433">
        <ele>451.20001220703125</ele>
        <time>2015-05-03T10:21:30.000Z</time>
      </trkpt>
      <trkpt lat="39.84382314607501" lon="-6.140266768634319">
        <ele>452.6000061035156</ele>
        <time>2015-05-03T10:21:33.000Z</time>
      </trkpt>
      <trkpt lat="39.84379397705197" lon="-6.140203066170216">
        <ele>453.20001220703125</ele>
        <time>2015-05-03T10:21:34.000Z</time>
      </trkpt>
      <trkpt lat="39.84374142251909" lon="-6.140078008174896">
        <ele>454.0</ele>
        <time>2015-05-03T10:21:36.000Z</time>
      </trkpt>
      <trkpt lat="39.84366766177118" lon="-6.1399024073034525">
        <ele>454.6000061035156</ele>
        <time>2015-05-03T10:21:39.000Z</time>
      </trkpt>
      <trkpt lat="39.84364511445165" lon="-6.139843566343188">
        <ele>455.0</ele>
        <time>2015-05-03T10:21:40.000Z</time>
      </trkpt>
      <trkpt lat="39.84354796819389" lon="-6.139484569430351">
        <ele>456.20001220703125</ele>
        <time>2015-05-03T10:21:46.000Z</time>
      </trkpt>
      <trkpt lat="39.84353740699589" lon="-6.13942489027977">
        <ele>456.3999938964844</ele>
        <time>2015-05-03T10:21:47.000Z</time>
      </trkpt>
      <trkpt lat="39.84351578168571" lon="-6.139250127598643">
        <ele>457.0</ele>
        <time>2015-05-03T10:21:50.000Z</time>
      </trkpt>
      <trkpt lat="39.84350907616317" lon="-6.139195142313838">
        <ele>457.6000061035156</ele>
        <time>2015-05-03T10:21:51.000Z</time>
      </trkpt>
      <trkpt lat="39.84350563958287" lon="-6.1390881054103374">
        <ele>458.6000061035156</ele>
        <time>2015-05-03T10:21:53.000Z</time>
      </trkpt>
      <trkpt lat="39.843505974859" lon="-6.139035802334547">
        <ele>458.79998779296875</ele>
        <time>2015-05-03T10:21:54.000Z</time>
      </trkpt>
      <trkpt lat="39.843512596562505" lon="-6.138785183429718">
        <ele>460.0</ele>
        <time>2015-05-03T10:21:59.000Z</time>
      </trkpt>
      <trkpt lat="39.84351301565766" lon="-6.1387320421636105">
        <ele>460.0</ele>
        <time>2015-05-03T10:22:00.000Z</time>
      </trkpt>
      <trkpt lat="39.843511255458" lon="-6.138525176793337">
        <ele>461.0</ele>
        <time>2015-05-03T10:22:04.000Z</time>
      </trkpt>
      <trkpt lat="39.843500945717096" lon="-6.13831621594727">
        <ele>461.79998779296875</ele>
        <time>2015-05-03T10:22:08.000Z</time>
      </trkpt>
      <trkpt lat="39.843497006222606" lon="-6.138206077739596">
        <ele>462.20001220703125</ele>
        <time>2015-05-03T10:22:10.000Z</time>
      </trkpt>
      <trkpt lat="39.84348409809172" lon="-6.138099627569318">
        <ele>462.6000061035156</ele>
        <time>2015-05-03T10:22:12.000Z</time>
      </trkpt>
      <trkpt lat="39.84344998374581" lon="-6.137947496026754">
        <ele>462.79998779296875</ele>
        <time>2015-05-03T10:22:15.000Z</time>
      </trkpt>
      <trkpt lat="39.84340975061059" lon="-6.137716993689537">
        <ele>463.3999938964844</ele>
        <time>2015-05-03T10:22:19.000Z</time>
      </trkpt>
      <trkpt lat="39.84338033013046" lon="-6.137536112219095">
        <ele>463.79998779296875</ele>
        <time>2015-05-03T10:22:22.000Z</time>
      </trkpt>
      <trkpt lat="39.843350909650326" lon="-6.137315081432462">
        <ele>464.6000061035156</ele>
        <time>2015-05-03T10:22:26.000Z</time>
      </trkpt>
      <trkpt lat="39.84333934262395" lon="-6.137209804728627">
        <ele>465.20001220703125</ele>
        <time>2015-05-03T10:22:28.000Z</time>
      </trkpt>
      <trkpt lat="39.843315202742815" lon="-6.137009058147669">
        <ele>465.79998779296875</ele>
        <time>2015-05-03T10:22:32.000Z</time>
      </trkpt>
      <trkpt lat="39.843285949900746" lon="-6.13680487498641">
        <ele>466.3999938964844</ele>
        <time>2015-05-03T10:22:36.000Z</time>
      </trkpt>
      <trkpt lat="39.84327773563564" lon="-6.136750811710954">
        <ele>466.79998779296875</ele>
        <time>2015-05-03T10:22:37.000Z</time>
      </trkpt>
      <trkpt lat="39.84326474368572" lon="-6.136698676273227">
        <ele>467.0</ele>
        <time>2015-05-03T10:22:38.000Z</time>
      </trkpt>
      <trkpt lat="39.843207746744156" lon="-6.136494996026158">
        <ele>467.6000061035156</ele>
        <time>2015-05-03T10:22:42.000Z</time>
      </trkpt>
      <trkpt lat="39.84319089911878" lon="-6.136447386816144">
        <ele>467.79998779296875</ele>
        <time>2015-05-03T10:22:43.000Z</time>
      </trkpt>
      <trkpt lat="39.84312476590276" lon="-6.136262398213148">
        <ele>468.79998779296875</ele>
        <time>2015-05-03T10:22:47.000Z</time>
      </trkpt>
      <trkpt lat="39.84305653721094" lon="-6.13608562387526">
        <ele>470.0</ele>
        <time>2015-05-03T10:22:51.000Z</time>
      </trkpt>
      <trkpt lat="39.84297472983599" lon="-6.135887643322349">
        <ele>471.0</ele>
        <time>2015-05-03T10:22:56.000Z</time>
      </trkpt>
      <trkpt lat="39.84291245229542" lon="-6.135742384940386">
        <ele>471.79998779296875</ele>
        <time>2015-05-03T10:23:00.000Z</time>
      </trkpt>
      <trkpt lat="39.84289728105068" lon="-6.135707600042224">
        <ele>472.6000061035156</ele>
        <time>2015-05-03T10:23:01.000Z</time>
      </trkpt>
      <trkpt lat="39.84284330159426" lon="-6.135569969192147">
        <ele>473.79998779296875</ele>
        <time>2015-05-03T10:23:05.000Z</time>
      </trkpt>
      <trkpt lat="39.842803655192256" lon="-6.135465279221535">
        <ele>474.6000061035156</ele>
        <time>2015-05-03T10:23:08.000Z</time>
      </trkpt>
      <trkpt lat="39.842788986861706" lon="-6.135436277836561">
        <ele>474.79998779296875</ele>
        <time>2015-05-03T10:23:09.000Z</time>
      </trkpt>
      <trkpt lat="39.84273349866271" lon="-6.13530870527029">
        <ele>476.20001220703125</ele>
        <time>2015-05-03T10:23:13.000Z</time>
      </trkpt>
      <trkpt lat="39.84266174957156" lon="-6.135144419968128">
        <ele>477.20001220703125</ele>
        <time>2015-05-03T10:23:18.000Z</time>
      </trkpt>
      <trkpt lat="39.842629143968225" lon="-6.135045848786831">
        <ele>478.3999938964844</ele>
        <time>2015-05-03T10:23:21.000Z</time>
      </trkpt>
      <trkpt lat="39.84257818199694" lon="-6.134928837418556">
        <ele>479.3999938964844</ele>
        <time>2015-05-03T10:23:25.000Z</time>
      </trkpt>
      <trkpt lat="39.84252973459661" lon="-6.134816352277994">
        <ele>480.6000061035156</ele>
        <time>2015-05-03T10:23:29.000Z</time>
      </trkpt>
      <trkpt lat="39.84251908957958" lon="-6.134787769988179">
        <ele>481.0</ele>
        <time>2015-05-03T10:23:30.000Z</time>
      </trkpt>
      <trkpt lat="39.84246569685638" lon="-6.134678302332759">
        <ele>482.0</ele>
        <time>2015-05-03T10:23:34.000Z</time>
      </trkpt>
      <trkpt lat="39.84242043457925" lon="-6.134566739201546">
        <ele>482.6000061035156</ele>
        <time>2015-05-03T10:23:38.000Z</time>
      </trkpt>
      <trkpt lat="39.842392187565565" lon="-6.1345114186406136">
        <ele>483.0</ele>
        <time>2015-05-03T10:23:40.000Z</time>
      </trkpt>
      <trkpt lat="39.84231574460864" lon="-6.134356269612908">
        <ele>484.20001220703125</ele>
        <time>2015-05-03T10:23:45.000Z</time>
      </trkpt>
      <trkpt lat="39.84227987006307" lon="-6.134296925738454">
        <ele>484.6000061035156</ele>
        <time>2015-05-03T10:23:47.000Z</time>
      </trkpt>
      <trkpt lat="39.84222714789212" lon="-6.134208496659994">
        <ele>485.3999938964844</ele>
        <time>2015-05-03T10:23:50.000Z</time>
      </trkpt>
      <trkpt lat="39.84215699136257" lon="-6.134089641273022">
        <ele>486.6000061035156</ele>
        <time>2015-05-03T10:23:54.000Z</time>
      </trkpt>
      <trkpt lat="39.84211491420865" lon="-6.13403188996017">
        <ele>487.0</ele>
        <time>2015-05-03T10:23:56.000Z</time>
      </trkpt>
      <trkpt lat="39.84203319065273" lon="-6.133896354585886">
        <ele>487.6000061035156</ele>
        <time>2015-05-03T10:24:00.000Z</time>
      </trkpt>
      <trkpt lat="39.84199555590749" lon="-6.133831394836307">
        <ele>488.20001220703125</ele>
        <time>2015-05-03T10:24:02.000Z</time>
      </trkpt>
      <trkpt lat="39.84189447015524" lon="-6.133684292435646">
        <ele>488.79998779296875</ele>
        <time>2015-05-03T10:24:07.000Z</time>
      </trkpt>
      <trkpt lat="39.84187577851117" lon="-6.133655207231641">
        <ele>489.0</ele>
        <time>2015-05-03T10:24:08.000Z</time>
      </trkpt>
      <trkpt lat="39.84175038523972" lon="-6.133422274142504">
        <ele>490.20001220703125</ele>
        <time>2015-05-03T10:24:15.000Z</time>
      </trkpt>
      <trkpt lat="39.84167058952153" lon="-6.133185653015971">
        <ele>491.0</ele>
        <time>2015-05-03T10:24:21.000Z</time>
      </trkpt>
      <trkpt lat="39.84165944159031" lon="-6.133145922794938">
        <ele>491.6000061035156</ele>
        <time>2015-05-03T10:24:22.000Z</time>
      </trkpt>
      <trkpt lat="39.84160034917295" lon="-6.132957162335515">
        <ele>492.3999938964844</ele>
        <time>2015-05-03T10:24:27.000Z</time>
      </trkpt>
      <trkpt lat="39.84157755039632" lon="-6.13288901746273">
        <ele>492.79998779296875</ele>
        <time>2015-05-03T10:24:29.000Z</time>
      </trkpt>
      <trkpt lat="39.841531701385975" lon="-6.132720876485109">
        <ele>493.79998779296875</ele>
        <time>2015-05-03T10:24:34.000Z</time>
      </trkpt>
      <trkpt lat="39.84151594340801" lon="-6.13265348598361">
        <ele>494.0</ele>
        <time>2015-05-03T10:24:36.000Z</time>
      </trkpt>
      <trkpt lat="39.84148811548948" lon="-6.13255231641233">
        <ele>495.0</ele>
        <time>2015-05-03T10:24:39.000Z</time>
      </trkpt>
      <trkpt lat="39.841457940638065" lon="-6.13244385458529">
        <ele>495.79998779296875</ele>
        <time>2015-05-03T10:24:42.000Z</time>
      </trkpt>
      <trkpt lat="39.841436482965946" lon="-6.132368920370936">
        <ele>496.20001220703125</ele>
        <time>2015-05-03T10:24:44.000Z</time>
      </trkpt>
      <trkpt lat="39.84140865504742" lon="-6.132227685302496">
        <ele>497.20001220703125</ele>
        <time>2015-05-03T10:24:48.000Z</time>
      </trkpt>
      <trkpt lat="39.841399351134896" lon="-6.132194576784968">
        <ele>497.3999938964844</ele>
        <time>2015-05-03T10:24:49.000Z</time>
      </trkpt>
      <trkpt lat="39.841368002817035" lon="-6.132060885429382">
        <ele>498.3999938964844</ele>
        <time>2015-05-03T10:24:53.000Z</time>
      </trkpt>
      <trkpt lat="39.8413578607142" lon="-6.131991483271122">
        <ele>499.20001220703125</ele>
        <time>2015-05-03T10:24:55.000Z</time>
      </trkpt>
      <trkpt lat="39.84134520404041" lon="-6.131924595683813">
        <ele>499.6000061035156</ele>
        <time>2015-05-03T10:24:57.000Z</time>
      </trkpt>
      <trkpt lat="39.841310335323215" lon="-6.131808254867792">
        <ele>500.3999938964844</ele>
        <time>2015-05-03T10:25:01.000Z</time>
      </trkpt>
      <trkpt lat="39.841304467990994" lon="-6.131778582930565">
        <ele>500.79998779296875</ele>
        <time>2015-05-03T10:25:02.000Z</time>
      </trkpt>
      <trkpt lat="39.841267839074135" lon="-6.1315996292978525">
        <ele>501.79998779296875</ele>
        <time>2015-05-03T10:25:08.000Z</time>
      </trkpt>
      <trkpt lat="39.841262977570295" lon="-6.131570627912879">
        <ele>502.0</ele>
        <time>2015-05-03T10:25:09.000Z</time>
      </trkpt>
      <trkpt lat="39.84124721959233" lon="-6.131452526897192">
        <ele>503.20001220703125</ele>
        <time>2015-05-03T10:25:13.000Z</time>
      </trkpt>
      <trkpt lat="39.84122903086245" lon="-6.1313634272664785">
        <ele>504.0</ele>
        <time>2015-05-03T10:25:16.000Z</time>
      </trkpt>
      <trkpt lat="39.84121570363641" lon="-6.131298299878836">
        <ele>504.3999938964844</ele>
        <time>2015-05-03T10:25:18.000Z</time>
      </trkpt>
      <trkpt lat="39.841181337833405" lon="-6.131128650158644">
        <ele>505.20001220703125</ele>
        <time>2015-05-03T10:25:23.000Z</time>
      </trkpt>
      <trkpt lat="39.8411747161299" lon="-6.13109428435564">
        <ele>505.6000061035156</ele>
        <time>2015-05-03T10:25:24.000Z</time>
      </trkpt>
      <trkpt lat="39.84110523015261" lon="-6.130903093144298">
        <ele>506.20001220703125</ele>
        <time>2015-05-03T10:25:30.000Z</time>
      </trkpt>
      <trkpt lat="39.8410864546895" lon="-6.130836959928274">
        <ele>506.79998779296875</ele>
        <time>2015-05-03T10:25:32.000Z</time>
      </trkpt>
      <trkpt lat="39.84105560928583" lon="-6.130742831155658">
        <ele>507.20001220703125</ele>
        <time>2015-05-03T10:25:35.000Z</time>
      </trkpt>
      <trkpt lat="39.8410090059042" lon="-6.13065842539072">
        <ele>507.79998779296875</ele>
        <time>2015-05-03T10:25:38.000Z</time>
      </trkpt>
      <trkpt lat="39.84097681939602" lon="-6.130594639107585">
        <ele>508.0</ele>
        <time>2015-05-03T10:25:40.000Z</time>
      </trkpt>
      <trkpt lat="39.84090800397098" lon="-6.130468072369695">
        <ele>508.79998779296875</ele>
        <time>2015-05-03T10:25:44.000Z</time>
      </trkpt>
      <trkpt lat="39.84084011055529" lon="-6.130342930555344">
        <ele>509.20001220703125</ele>
        <time>2015-05-03T10:25:48.000Z</time>
      </trkpt>
      <trkpt lat="39.840763080865145" lon="-6.130190044641495">
        <ele>509.79998779296875</ele>
        <time>2015-05-03T10:25:53.000Z</time>
      </trkpt>
      <trkpt lat="39.8407341632992" lon="-6.130125420168042">
        <ele>510.20001220703125</ele>
        <time>2015-05-03T10:25:55.000Z</time>
      </trkpt>
      <trkpt lat="39.84068303368986" lon="-6.129988627508283">
        <ele>511.0</ele>
        <time>2015-05-03T10:25:59.000Z</time>
      </trkpt>
      <trkpt lat="39.84065713360906" lon="-6.129915118217468">
        <ele>511.20001220703125</ele>
        <time>2015-05-03T10:26:01.000Z</time>
      </trkpt>
      <trkpt lat="39.84060851857066" lon="-6.129733985289931">
        <ele>512.4000244140625</ele>
        <time>2015-05-03T10:26:06.000Z</time>
      </trkpt>
      <trkpt lat="39.84058194793761" lon="-6.129635497927666">
        <ele>512.7999877929688</ele>
        <time>2015-05-03T10:26:09.000Z</time>
      </trkpt>
      <trkpt lat="39.840531488880515" lon="-6.129505913704634">
        <ele>513.7999877929688</ele>
        <time>2015-05-03T10:26:13.000Z</time>
      </trkpt>
      <trkpt lat="39.840515395626426" lon="-6.129438690841198">
        <ele>514.0</ele>
        <time>2015-05-03T10:26:15.000Z</time>
      </trkpt>
      <trkpt lat="39.8404873162508" lon="-6.129293432459235">
        <ele>514.7999877929688</ele>
        <time>2015-05-03T10:26:19.000Z</time>
      </trkpt>
      <trkpt lat="39.840466026216745" lon="-6.1291855573654175">
        <ele>515.2000122070312</ele>
        <time>2015-05-03T10:26:22.000Z</time>
      </trkpt>
      <trkpt lat="39.84044482000172" lon="-6.129076089709997">
        <ele>515.7999877929688</ele>
        <time>2015-05-03T10:26:25.000Z</time>
      </trkpt>
      <trkpt lat="39.84040752053261" lon="-6.1288919392973185">
        <ele>517.0</ele>
        <time>2015-05-03T10:26:30.000Z</time>
      </trkpt>
      <trkpt lat="39.840372232720256" lon="-6.128715416416526">
        <ele>517.5999755859375</ele>
        <time>2015-05-03T10:26:35.000Z</time>
      </trkpt>
      <trkpt lat="39.84034800902009" lon="-6.128614665940404">
        <ele>518.2000122070312</ele>
        <time>2015-05-03T10:26:38.000Z</time>
      </trkpt>
      <trkpt lat="39.840327305719256" lon="-6.128470664843917">
        <ele>519.0</ele>
        <time>2015-05-03T10:26:42.000Z</time>
      </trkpt>
      <trkpt lat="39.84032412059605" lon="-6.128434538841248">
        <ele>519.2000122070312</ele>
        <time>2015-05-03T10:26:43.000Z</time>
      </trkpt>
      <trkpt lat="39.8402906768024" lon="-6.128216274082661">
        <ele>520.2000122070312</ele>
        <time>2015-05-03T10:26:49.000Z</time>
      </trkpt>
      <trkpt lat="39.84028439037502" lon="-6.128182578831911">
        <ele>520.4000244140625</ele>
        <time>2015-05-03T10:26:50.000Z</time>
      </trkpt>
      <trkpt lat="39.840258406475186" lon="-6.127982838079333">
        <ele>521.5999755859375</ele>
        <time>2015-05-03T10:26:56.000Z</time>
      </trkpt>
      <trkpt lat="39.84024357050657" lon="-6.127846548333764">
        <ele>522.0</ele>
        <time>2015-05-03T10:27:00.000Z</time>
      </trkpt>
      <trkpt lat="39.84022747725248" lon="-6.127716293558478">
        <ele>522.7999877929688</ele>
        <time>2015-05-03T10:27:04.000Z</time>
      </trkpt>
      <trkpt lat="39.84021280892193" lon="-6.127609172835946">
        <ele>523.2000122070312</ele>
        <time>2015-05-03T10:27:07.000Z</time>
      </trkpt>
      <trkpt lat="39.840201660990715" lon="-6.127457628026605">
        <ele>524.0</ele>
        <time>2015-05-03T10:27:11.000Z</time>
      </trkpt>
      <trkpt lat="39.840197134763" lon="-6.127380095422268">
        <ele>524.2000122070312</ele>
        <time>2015-05-03T10:27:13.000Z</time>
      </trkpt>
      <trkpt lat="39.840172408148646" lon="-6.12704892642796">
        <ele>525.2000122070312</ele>
        <time>2015-05-03T10:27:21.000Z</time>
      </trkpt>
      <trkpt lat="39.840137120336294" lon="-6.126763690263033">
        <ele>526.4000244140625</ele>
        <time>2015-05-03T10:27:28.000Z</time>
      </trkpt>
      <trkpt lat="39.84011239372194" lon="-6.1265199445188046">
        <ele>527.4000244140625</ele>
        <time>2015-05-03T10:27:34.000Z</time>
      </trkpt>
      <trkpt lat="39.84010208398104" lon="-6.126432605087757">
        <ele>527.5999755859375</ele>
        <time>2015-05-03T10:27:36.000Z</time>
      </trkpt>
      <trkpt lat="39.84006905928254" lon="-6.126255998387933">
        <ele>528.4000244140625</ele>
        <time>2015-05-03T10:27:40.000Z</time>
      </trkpt>
      <trkpt lat="39.840041901916265" lon="-6.126127755269408">
        <ele>528.7999877929688</ele>
        <time>2015-05-03T10:27:43.000Z</time>
      </trkpt>
      <trkpt lat="39.84002362936735" lon="-6.126042092218995">
        <ele>529.5999755859375</ele>
        <time>2015-05-03T10:27:45.000Z</time>
      </trkpt>
      <trkpt lat="39.83996378257871" lon="-6.12579851411283">
        <ele>530.7999877929688</ele>
        <time>2015-05-03T10:27:51.000Z</time>
      </trkpt>
      <trkpt lat="39.83995405957103" lon="-6.125761214643717">
        <ele>530.7999877929688</ele>
        <time>2015-05-03T10:27:52.000Z</time>
      </trkpt>
      <trkpt lat="39.839902175590396" lon="-6.125568766146898">
        <ele>531.7999877929688</ele>
        <time>2015-05-03T10:27:57.000Z</time>
      </trkpt>
      <trkpt lat="39.83984266407788" lon="-6.125382101163268">
        <ele>532.4000244140625</ele>
        <time>2015-05-03T10:28:02.000Z</time>
      </trkpt>
      <trkpt lat="39.83981693163514" lon="-6.125311106443405">
        <ele>533.0</ele>
        <time>2015-05-03T10:28:04.000Z</time>
      </trkpt>
      <trkpt lat="39.83973872847855" lon="-6.125105917453766">
        <ele>534.2000122070312</ele>
        <time>2015-05-03T10:28:10.000Z</time>
      </trkpt>
      <trkpt lat="39.839724311605096" lon="-6.125071216374636">
        <ele>534.2000122070312</ele>
        <time>2015-05-03T10:28:11.000Z</time>
      </trkpt>
      <trkpt lat="39.839619202539325" lon="-6.12481783144176">
        <ele>535.2000122070312</ele>
        <time>2015-05-03T10:28:18.000Z</time>
      </trkpt>
      <trkpt lat="39.839601684361696" lon="-6.124779442325234">
        <ele>535.4000244140625</ele>
        <time>2015-05-03T10:28:19.000Z</time>
      </trkpt>
      <trkpt lat="39.839530354365706" lon="-6.12461163662374">
        <ele>536.4000244140625</ele>
        <time>2015-05-03T10:28:23.000Z</time>
      </trkpt>
      <trkpt lat="39.839498084038496" lon="-6.124530918896198">
        <ele>537.0</ele>
        <time>2015-05-03T10:28:25.000Z</time>
      </trkpt>
      <trkpt lat="39.839428095147014" lon="-6.124370908364654">
        <ele>537.7999877929688</ele>
        <time>2015-05-03T10:28:29.000Z</time>
      </trkpt>
      <trkpt lat="39.83935316093266" lon="-6.1242057010531425">
        <ele>538.2000122070312</ele>
        <time>2015-05-03T10:28:33.000Z</time>
      </trkpt>
      <trkpt lat="39.83929339796305" lon="-6.124089863151312">
        <ele>538.7999877929688</ele>
        <time>2015-05-03T10:28:36.000Z</time>
      </trkpt>
      <trkpt lat="39.839153587818146" lon="-6.123831868171692">
        <ele>540.2000122070312</ele>
        <time>2015-05-03T10:28:43.000Z</time>
      </trkpt>
      <trkpt lat="39.839052418246865" lon="-6.123650316148996">
        <ele>541.4000244140625</ele>
        <time>2015-05-03T10:28:48.000Z</time>
      </trkpt>
      <trkpt lat="39.83895007520914" lon="-6.123473038896918">
        <ele>541.7999877929688</ele>
        <time>2015-05-03T10:28:53.000Z</time>
      </trkpt>
      <trkpt lat="39.83886357396841" lon="-6.1233254335820675">
        <ele>542.4000244140625</ele>
        <time>2015-05-03T10:28:57.000Z</time>
      </trkpt>
      <trkpt lat="39.83877967111766" lon="-6.123176235705614">
        <ele>543.7999877929688</ele>
        <time>2015-05-03T10:29:01.000Z</time>
      </trkpt>
      <trkpt lat="39.83875913545489" lon="-6.123142037540674">
        <ele>543.7999877929688</ele>
        <time>2015-05-03T10:29:02.000Z</time>
      </trkpt>
      <trkpt lat="39.83865696005523" lon="-6.122955791652203">
        <ele>544.7999877929688</ele>
        <time>2015-05-03T10:29:07.000Z</time>
      </trkpt>
      <trkpt lat="39.838594598695636" lon="-6.122845066711307">
        <ele>545.2000122070312</ele>
        <time>2015-05-03T10:29:10.000Z</time>
      </trkpt>
      <trkpt lat="39.83853190205991" lon="-6.122733419761062">
        <ele>545.7999877929688</ele>
        <time>2015-05-03T10:29:13.000Z</time>
      </trkpt>
      <trkpt lat="39.83843274414539" lon="-6.122531248256564">
        <ele>547.0</ele>
        <time>2015-05-03T10:29:18.000Z</time>
      </trkpt>
      <trkpt lat="39.838302405551076" lon="-6.122368974611163">
        <ele>548.4000244140625</ele>
        <time>2015-05-03T10:29:23.000Z</time>
      </trkpt>
      <trkpt lat="39.83826904557645" lon="-6.122341984882951">
        <ele>548.5999755859375</ele>
        <time>2015-05-03T10:29:24.000Z</time>
      </trkpt>
      <trkpt lat="39.838167037814856" lon="-6.1222720798105">
        <ele>549.5999755859375</ele>
        <time>2015-05-03T10:29:27.000Z</time>
      </trkpt>
      <trkpt lat="39.838053211569786" lon="-6.122255064547062">
        <ele>550.2000122070312</ele>
        <time>2015-05-03T10:29:30.000Z</time>
      </trkpt>
      <trkpt lat="39.837973499670625" lon="-6.122264536097646">
        <ele>550.4000244140625</ele>
        <time>2015-05-03T10:29:32.000Z</time>
      </trkpt>
      <trkpt lat="39.837889010086656" lon="-6.122288592159748">
        <ele>550.4000244140625</ele>
        <time>2015-05-03T10:29:34.000Z</time>
      </trkpt>
      <trkpt lat="39.83780141919851" lon="-6.122325640171766">
        <ele>550.0</ele>
        <time>2015-05-03T10:29:36.000Z</time>
      </trkpt>
      <trkpt lat="39.837754564359784" lon="-6.122336788102984">
        <ele>550.2000122070312</ele>
        <time>2015-05-03T10:29:37.000Z</time>
      </trkpt>
      <trkpt lat="39.83758826740086" lon="-6.122324047610164">
        <ele>549.4000244140625</ele>
        <time>2015-05-03T10:29:41.000Z</time>
      </trkpt>
      <trkpt lat="39.837550381198525" lon="-6.122203096747398">
        <ele>548.2000122070312</ele>
        <time>2015-05-03T10:29:43.000Z</time>
      </trkpt>
      <trkpt lat="39.837542502209544" lon="-6.122132269665599">
        <ele>547.5999755859375</ele>
        <time>2015-05-03T10:29:44.000Z</time>
      </trkpt>
      <trkpt lat="39.83753043226898" lon="-6.122059766203165">
        <ele>546.7999877929688</ele>
        <time>2015-05-03T10:29:45.000Z</time>
      </trkpt>
      <trkpt lat="39.83750964514911" lon="-6.12199597992003">
        <ele>546.4000244140625</ele>
        <time>2015-05-03T10:29:46.000Z</time>
      </trkpt>
      <trkpt lat="39.83749430626631" lon="-6.121939737349749">
        <ele>545.7999877929688</ele>
        <time>2015-05-03T10:29:47.000Z</time>
      </trkpt>
      <trkpt lat="39.83747863210738" lon="-6.121888607740402">
        <ele>545.4000244140625</ele>
        <time>2015-05-03T10:29:48.000Z</time>
      </trkpt>
      <trkpt lat="39.837455498054624" lon="-6.121799508109689">
        <ele>544.4000244140625</ele>
        <time>2015-05-03T10:29:50.000Z</time>
      </trkpt>
      <trkpt lat="39.837427418679" lon="-6.121790120378137">
        <ele>543.5999755859375</ele>
        <time>2015-05-03T10:29:51.000Z</time>
      </trkpt>
      <trkpt lat="39.837406212463975" lon="-6.121811158955097">
        <ele>543.0</ele>
        <time>2015-05-03T10:29:52.000Z</time>
      </trkpt>
      <trkpt lat="39.837392549961805" lon="-6.121889362111688">
        <ele>542.4000244140625</ele>
        <time>2015-05-03T10:29:54.000Z</time>
      </trkpt>
      <trkpt lat="39.83738265931606" lon="-6.121937558054924">
        <ele>541.7999877929688</ele>
        <time>2015-05-03T10:29:55.000Z</time>
      </trkpt>
      <trkpt lat="39.83737125992775" lon="-6.121992627158761">
        <ele>541.2000122070312</ele>
        <time>2015-05-03T10:29:56.000Z</time>
      </trkpt>
      <trkpt lat="39.837360782548785" lon="-6.122046019881964">
        <ele>540.5999755859375</ele>
        <time>2015-05-03T10:29:57.000Z</time>
      </trkpt>
      <trkpt lat="39.83734980225563" lon="-6.122102597728372">
        <ele>540.2000122070312</ele>
        <time>2015-05-03T10:29:58.000Z</time>
      </trkpt>
      <trkpt lat="39.837326500564814" lon="-6.122232181951404">
        <ele>539.2000122070312</ele>
        <time>2015-05-03T10:30:00.000Z</time>
      </trkpt>
      <trkpt lat="39.83731275424361" lon="-6.122372495010495">
        <ele>538.2000122070312</ele>
        <time>2015-05-03T10:30:02.000Z</time>
      </trkpt>
      <trkpt lat="39.83731199987233" lon="-6.122443489730358">
        <ele>538.0</ele>
        <time>2015-05-03T10:30:03.000Z</time>
      </trkpt>
      <trkpt lat="39.83730085194111" lon="-6.122587323188782">
        <ele>537.5999755859375</ele>
        <time>2015-05-03T10:30:05.000Z</time>
      </trkpt>
      <trkpt lat="39.83728618361056" lon="-6.1227393709123135">
        <ele>537.0</ele>
        <time>2015-05-03T10:30:07.000Z</time>
      </trkpt>
      <trkpt lat="39.83727855607867" lon="-6.122805252671242">
        <ele>537.0</ele>
        <time>2015-05-03T10:30:08.000Z</time>
      </trkpt>
      <trkpt lat="39.83724880032241" lon="-6.122922180220485">
        <ele>536.4000244140625</ele>
        <time>2015-05-03T10:30:10.000Z</time>
      </trkpt>
      <trkpt lat="39.837230779230595" lon="-6.122975070029497">
        <ele>535.7999877929688</ele>
        <time>2015-05-03T10:30:11.000Z</time>
      </trkpt>
      <trkpt lat="39.83721787109971" lon="-6.123032821342349">
        <ele>535.2000122070312</ele>
        <time>2015-05-03T10:30:12.000Z</time>
      </trkpt>
      <trkpt lat="39.837203957140446" lon="-6.123165339231491">
        <ele>534.5999755859375</ele>
        <time>2015-05-03T10:30:14.000Z</time>
      </trkpt>
      <trkpt lat="39.837190210819244" lon="-6.1233071610331535">
        <ele>534.0</ele>
        <time>2015-05-03T10:30:16.000Z</time>
      </trkpt>
      <trkpt lat="39.837176548317075" lon="-6.123377233743668">
        <ele>533.7999877929688</ele>
        <time>2015-05-03T10:30:17.000Z</time>
      </trkpt>
      <trkpt lat="39.8371681664139" lon="-6.123584182932973">
        <ele>533.5999755859375</ele>
        <time>2015-05-03T10:30:20.000Z</time>
      </trkpt>
      <trkpt lat="39.83716699294746" lon="-6.123712258413434">
        <ele>534.4000244140625</ele>
        <time>2015-05-03T10:30:22.000Z</time>
      </trkpt>
      <trkpt lat="39.837132543325424" lon="-6.123842680826783">
        <ele>533.4000244140625</ele>
        <time>2015-05-03T10:30:24.000Z</time>
      </trkpt>
      <trkpt lat="39.837118964642286" lon="-6.123915854841471">
        <ele>532.5999755859375</ele>
        <time>2015-05-03T10:30:25.000Z</time>
      </trkpt>
      <trkpt lat="39.83710538595915" lon="-6.123994225636125">
        <ele>532.2000122070312</ele>
        <time>2015-05-03T10:30:26.000Z</time>
      </trkpt>
      <trkpt lat="39.83706439845264" lon="-6.124160019680858">
        <ele>531.5999755859375</ele>
        <time>2015-05-03T10:30:28.000Z</time>
      </trkpt>
      <trkpt lat="39.83704277314246" lon="-6.124238725751638">
        <ele>530.7999877929688</ele>
        <time>2015-05-03T10:30:29.000Z</time>
      </trkpt>
      <trkpt lat="39.83702441677451" lon="-6.124316845089197">
        <ele>529.7999877929688</ele>
        <time>2015-05-03T10:30:30.000Z</time>
      </trkpt>
      <trkpt lat="39.83701209537685" lon="-6.124389516189694">
        <ele>528.5999755859375</ele>
        <time>2015-05-03T10:30:31.000Z</time>
      </trkpt>
      <trkpt lat="39.837004132568836" lon="-6.124528404325247">
        <ele>527.2000122070312</ele>
        <time>2015-05-03T10:30:33.000Z</time>
      </trkpt>
      <trkpt lat="39.8369990196079" lon="-6.124594286084175">
        <ele>526.4000244140625</ele>
        <time>2015-05-03T10:30:34.000Z</time>
      </trkpt>
      <trkpt lat="39.83699047006667" lon="-6.124662598595023">
        <ele>525.7999877929688</ele>
        <time>2015-05-03T10:30:35.000Z</time>
      </trkpt>
      <trkpt lat="39.83695744536817" lon="-6.124801738187671">
        <ele>524.0</ele>
        <time>2015-05-03T10:30:37.000Z</time>
      </trkpt>
      <trkpt lat="39.836930790916085" lon="-6.124866781756282">
        <ele>523.2000122070312</ele>
        <time>2015-05-03T10:30:38.000Z</time>
      </trkpt>
      <trkpt lat="39.836905812844634" lon="-6.124934004619718">
        <ele>521.7999877929688</ele>
        <time>2015-05-03T10:30:39.000Z</time>
      </trkpt>
      <trkpt lat="39.83687002211809" lon="-6.125058643519878">
        <ele>520.0</ele>
        <time>2015-05-03T10:30:41.000Z</time>
      </trkpt>
      <trkpt lat="39.836834985762835" lon="-6.125184539705515">
        <ele>517.4000244140625</ele>
        <time>2015-05-03T10:30:43.000Z</time>
      </trkpt>
      <trkpt lat="39.836819563061" lon="-6.125305909663439">
        <ele>515.7999877929688</ele>
        <time>2015-05-03T10:30:45.000Z</time>
      </trkpt>
      <trkpt lat="39.83680782839656" lon="-6.125437757000327">
        <ele>514.5999755859375</ele>
        <time>2015-05-03T10:30:47.000Z</time>
      </trkpt>
      <trkpt lat="39.83678117394447" lon="-6.125580416992307">
        <ele>513.4000244140625</ele>
        <time>2015-05-03T10:30:49.000Z</time>
      </trkpt>
      <trkpt lat="39.83676281757653" lon="-6.125652082264423">
        <ele>512.5999755859375</ele>
        <time>2015-05-03T10:30:50.000Z</time>
      </trkpt>
      <trkpt lat="39.836745550855994" lon="-6.125724418088794">
        <ele>512.0</ele>
        <time>2015-05-03T10:30:51.000Z</time>
      </trkpt>
      <trkpt lat="39.836724093183875" lon="-6.12580044195056">
        <ele>511.79998779296875</ele>
        <time>2015-05-03T10:30:52.000Z</time>
      </trkpt>
      <trkpt lat="39.83669735491276" lon="-6.125872945412993">
        <ele>511.3999938964844</ele>
        <time>2015-05-03T10:30:53.000Z</time>
      </trkpt>
      <trkpt lat="39.836679585278034" lon="-6.126034548506141">
        <ele>510.6000061035156</ele>
        <time>2015-05-03T10:30:55.000Z</time>
      </trkpt>
      <trkpt lat="39.83665754087269" lon="-6.126196151599288">
        <ele>509.6000061035156</ele>
        <time>2015-05-03T10:30:57.000Z</time>
      </trkpt>
      <trkpt lat="39.83664463274181" lon="-6.1262796353548765">
        <ele>509.0</ele>
        <time>2015-05-03T10:30:58.000Z</time>
      </trkpt>
      <trkpt lat="39.8366139549762" lon="-6.126443836838007">
        <ele>507.79998779296875</ele>
        <time>2015-05-03T10:31:00.000Z</time>
      </trkpt>
      <trkpt lat="39.836555533111095" lon="-6.1267028376460075">
        <ele>506.20001220703125</ele>
        <time>2015-05-03T10:31:03.000Z</time>
      </trkpt>
      <trkpt lat="39.8365346621722" lon="-6.126787159591913">
        <ele>505.3999938964844</ele>
        <time>2015-05-03T10:31:04.000Z</time>
      </trkpt>
      <trkpt lat="39.8365016374737" lon="-6.126867458224297">
        <ele>504.6000061035156</ele>
        <time>2015-05-03T10:31:05.000Z</time>
      </trkpt>
      <trkpt lat="39.836450926959515" lon="-6.127033922821283">
        <ele>503.6000061035156</ele>
        <time>2015-05-03T10:31:07.000Z</time>
      </trkpt>
      <trkpt lat="39.83642770908773" lon="-6.127125285565853">
        <ele>502.0</ele>
        <time>2015-05-03T10:31:08.000Z</time>
      </trkpt>
      <trkpt lat="39.836397198960185" lon="-6.127213295549154">
        <ele>501.20001220703125</ele>
        <time>2015-05-03T10:31:09.000Z</time>
      </trkpt>
      <trkpt lat="39.83637062832713" lon="-6.127295605838299">
        <ele>500.79998779296875</ele>
        <time>2015-05-03T10:31:10.000Z</time>
      </trkpt>
      <trkpt lat="39.83635436743498" lon="-6.127386298030615">
        <ele>500.3999938964844</ele>
        <time>2015-05-03T10:31:11.000Z</time>
      </trkpt>
      <trkpt lat="39.836341962218285" lon="-6.12748327665031">
        <ele>499.79998779296875</ele>
        <time>2015-05-03T10:31:12.000Z</time>
      </trkpt>
      <trkpt lat="39.836331736296415" lon="-6.127580925822258">
        <ele>499.0</ele>
        <time>2015-05-03T10:31:13.000Z</time>
      </trkpt>
      <trkpt lat="39.836319079622626" lon="-6.127729453146458">
        <ele>497.6000061035156</ele>
        <time>2015-05-03T10:31:15.000Z</time>
      </trkpt>
      <trkpt lat="39.83630700968206" lon="-6.127781253308058">
        <ele>496.79998779296875</ele>
        <time>2015-05-03T10:31:16.000Z</time>
      </trkpt>
      <trkpt lat="39.836312625557184" lon="-6.127832969650626">
        <ele>496.3999938964844</ele>
        <time>2015-05-03T10:31:17.000Z</time>
      </trkpt>
      <trkpt lat="39.836292173713446" lon="-6.127928271889687">
        <ele>495.3999938964844</ele>
        <time>2015-05-03T10:31:19.000Z</time>
      </trkpt>
      <trkpt lat="39.83627951703966" lon="-6.12798904068768">
        <ele>494.79998779296875</ele>
        <time>2015-05-03T10:31:20.000Z</time>
      </trkpt>
      <trkpt lat="39.836270213127136" lon="-6.128059783950448">
        <ele>494.20001220703125</ele>
        <time>2015-05-03T10:31:21.000Z</time>
      </trkpt>
      <trkpt lat="39.836253114044666" lon="-6.128207137808204">
        <ele>492.6000061035156</ele>
        <time>2015-05-03T10:31:23.000Z</time>
      </trkpt>
      <trkpt lat="39.83624598942697" lon="-6.128315515816212">
        <ele>491.0</ele>
        <time>2015-05-03T10:31:25.000Z</time>
      </trkpt>
      <trkpt lat="39.83624464832246" lon="-6.128417439758778">
        <ele>490.0</ele>
        <time>2015-05-03T10:31:27.000Z</time>
      </trkpt>
      <trkpt lat="39.836246240884066" lon="-6.128473095595837">
        <ele>489.3999938964844</ele>
        <time>2015-05-03T10:31:28.000Z</time>
      </trkpt>
      <trkpt lat="39.83623752370477" lon="-6.1285308469086885">
        <ele>489.20001220703125</ele>
        <time>2015-05-03T10:31:29.000Z</time>
      </trkpt>
      <trkpt lat="39.83625001274049" lon="-6.1286557372659445">
        <ele>488.6000061035156</ele>
        <time>2015-05-03T10:31:31.000Z</time>
      </trkpt>
      <trkpt lat="39.836261328309774" lon="-6.128723127767444">
        <ele>488.20001220703125</ele>
        <time>2015-05-03T10:31:32.000Z</time>
      </trkpt>
      <trkpt lat="39.836262837052345" lon="-6.12878305837512">
        <ele>487.20001220703125</ele>
        <time>2015-05-03T10:31:33.000Z</time>
      </trkpt>
      <trkpt lat="39.836254455149174" lon="-6.128836534917355">
        <ele>487.0</ele>
        <time>2015-05-03T10:31:34.000Z</time>
      </trkpt>
      <trkpt lat="39.8362426366657" lon="-6.128886071965098">
        <ele>486.79998779296875</ele>
        <time>2015-05-03T10:31:35.000Z</time>
      </trkpt>
      <trkpt lat="39.8362029902637" lon="-6.129046669229865">
        <ele>486.20001220703125</ele>
        <time>2015-05-03T10:31:38.000Z</time>
      </trkpt>
      <trkpt lat="39.836169043555856" lon="-6.129203997552395">
        <ele>485.79998779296875</ele>
        <time>2015-05-03T10:31:41.000Z</time>
      </trkpt>
      <trkpt lat="39.83613451011479" lon="-6.129355207085609">
        <ele>484.79998779296875</ele>
        <time>2015-05-03T10:31:44.000Z</time>
      </trkpt>
      <trkpt lat="39.836076172068715" lon="-6.12953650765121">
        <ele>485.0</ele>
        <time>2015-05-03T10:31:48.000Z</time>
      </trkpt>
      <trkpt lat="39.83604088425636" lon="-6.129800453782082">
        <ele>485.20001220703125</ele>
        <time>2015-05-03T10:31:54.000Z</time>
      </trkpt>
      <trkpt lat="39.83604499138892" lon="-6.1299097537994385">
        <ele>485.79998779296875</ele>
        <time>2015-05-03T10:31:57.000Z</time>
      </trkpt>
      <trkpt lat="39.83604817651212" lon="-6.129988795146346">
        <ele>486.79998779296875</ele>
        <time>2015-05-03T10:32:00.000Z</time>
      </trkpt>
      <trkpt lat="39.83604432083666" lon="-6.130011007189751">
        <ele>487.20001220703125</ele>
        <time>2015-05-03T10:32:04.000Z</time>
      </trkpt>
      <trkpt lat="39.8360441531986" lon="-6.1300266813486814">
        <ele>487.20001220703125</ele>
        <time>2015-05-03T10:32:05.000Z</time>
      </trkpt>
      <trkpt lat="39.83604658395052" lon="-6.130168754607439">
        <ele>488.0</ele>
        <time>2015-05-03T10:32:14.000Z</time>
      </trkpt>
      <trkpt lat="39.83604800887406" lon="-6.130182668566704">
        <ele>488.0</ele>
        <time>2015-05-03T10:32:15.000Z</time>
      </trkpt>
      <trkpt lat="39.8360700532794" lon="-6.130303116515279">
        <ele>487.6000061035156</ele>
        <time>2015-05-03T10:32:20.000Z</time>
      </trkpt>
      <trkpt lat="39.83608170412481" lon="-6.13052356056869">
        <ele>488.20001220703125</ele>
        <time>2015-05-03T10:32:25.000Z</time>
      </trkpt>
      <trkpt lat="39.8360526189208" lon="-6.1306212935596704">
        <ele>487.6000061035156</ele>
        <time>2015-05-03T10:32:27.000Z</time>
      </trkpt>
      <trkpt lat="39.83599587343633" lon="-6.13070628605783">
        <ele>487.20001220703125</ele>
        <time>2015-05-03T10:32:29.000Z</time>
      </trkpt>
      <trkpt lat="39.835966201499104" lon="-6.130733946338296">
        <ele>486.79998779296875</ele>
        <time>2015-05-03T10:32:30.000Z</time>
      </trkpt>
      <trkpt lat="39.835908114910126" lon="-6.130802929401398">
        <ele>485.6000061035156</ele>
        <time>2015-05-03T10:32:32.000Z</time>
      </trkpt>
      <trkpt lat="39.83587207272649" lon="-6.13084064796567">
        <ele>485.0</ele>
        <time>2015-05-03T10:32:33.000Z</time>
      </trkpt>
      <trkpt lat="39.83583603054285" lon="-6.130881886929274">
        <ele>484.6000061035156</ele>
        <time>2015-05-03T10:32:34.000Z</time>
      </trkpt>
      <trkpt lat="39.835763443261385" lon="-6.131036449223757">
        <ele>483.0</ele>
        <time>2015-05-03T10:32:37.000Z</time>
      </trkpt>
      <trkpt lat="39.83574265614152" lon="-6.131096882745624">
        <ele>482.3999938964844</ele>
        <time>2015-05-03T10:32:38.000Z</time>
      </trkpt>
      <trkpt lat="39.83572220429778" lon="-6.131161004304886">
        <ele>481.3999938964844</ele>
        <time>2015-05-03T10:32:39.000Z</time>
      </trkpt>
      <trkpt lat="39.83564978465438" lon="-6.1313599068671465">
        <ele>480.3999938964844</ele>
        <time>2015-05-03T10:32:42.000Z</time>
      </trkpt>
      <trkpt lat="39.83562874607742" lon="-6.131430985406041">
        <ele>479.3999938964844</ele>
        <time>2015-05-03T10:32:43.000Z</time>
      </trkpt>
      <trkpt lat="39.83561013825238" lon="-6.1315003875643015">
        <ele>478.79998779296875</ele>
        <time>2015-05-03T10:32:44.000Z</time>
      </trkpt>
      <trkpt lat="39.83558306470513" lon="-6.1316196620464325">
        <ele>478.20001220703125</ele>
        <time>2015-05-03T10:32:46.000Z</time>
      </trkpt>
      <trkpt lat="39.83558029867709" lon="-6.131731057539582">
        <ele>477.79998779296875</ele>
        <time>2015-05-03T10:32:48.000Z</time>
      </trkpt>
      <trkpt lat="39.83558909967542" lon="-6.131772380322218">
        <ele>477.79998779296875</ele>
        <time>2015-05-03T10:32:49.000Z</time>
      </trkpt>
      <trkpt lat="39.83559521846473" lon="-6.131803980097175">
        <ele>477.3999938964844</ele>
        <time>2015-05-03T10:32:50.000Z</time>
      </trkpt>
      <trkpt lat="39.835597733035684" lon="-6.131864665076137">
        <ele>476.79998779296875</ele>
        <time>2015-05-03T10:32:52.000Z</time>
      </trkpt>
      <trkpt lat="39.83558231033385" lon="-6.131890648975968">
        <ele>476.3999938964844</ele>
        <time>2015-05-03T10:32:53.000Z</time>
      </trkpt>
      <trkpt lat="39.8355417419225" lon="-6.131948567926884">
        <ele>475.0</ele>
        <time>2015-05-03T10:32:55.000Z</time>
      </trkpt>
      <trkpt lat="39.83549639582634" lon="-6.132021993398666">
        <ele>473.6000061035156</ele>
        <time>2015-05-03T10:32:57.000Z</time>
      </trkpt>
      <trkpt lat="39.83546622097492" lon="-6.132058370858431">
        <ele>472.79998779296875</ele>
        <time>2015-05-03T10:32:58.000Z</time>
      </trkpt>
      <trkpt lat="39.83543881215155" lon="-6.13209349103272">
        <ele>471.79998779296875</ele>
        <time>2015-05-03T10:32:59.000Z</time>
      </trkpt>
      <trkpt lat="39.835377959534526" lon="-6.132161300629377">
        <ele>470.6000061035156</ele>
        <time>2015-05-03T10:33:01.000Z</time>
      </trkpt>
      <trkpt lat="39.835330517962575" lon="-6.132225673645735">
        <ele>469.3999938964844</ele>
        <time>2015-05-03T10:33:03.000Z</time>
      </trkpt>
      <trkpt lat="39.835304198786616" lon="-6.132258698344231">
        <ele>468.6000061035156</ele>
        <time>2015-05-03T10:33:04.000Z</time>
      </trkpt>
      <trkpt lat="39.835283160209656" lon="-6.132295411080122">
        <ele>468.0</ele>
        <time>2015-05-03T10:33:05.000Z</time>
      </trkpt>
      <trkpt lat="39.83521702699363" lon="-6.1323915515094995">
        <ele>466.79998779296875</ele>
        <time>2015-05-03T10:33:08.000Z</time>
      </trkpt>
      <trkpt lat="39.835162879899144" lon="-6.132457600906491">
        <ele>465.0</ele>
        <time>2015-05-03T10:33:10.000Z</time>
      </trkpt>
      <trkpt lat="39.83510563150048" lon="-6.132534965872765">
        <ele>463.79998779296875</ele>
        <time>2015-05-03T10:33:12.000Z</time>
      </trkpt>
      <trkpt lat="39.83504788018763" lon="-6.132604535669088">
        <ele>462.20001220703125</ele>
        <time>2015-05-03T10:33:14.000Z</time>
      </trkpt>
      <trkpt lat="39.834983088076115" lon="-6.132678212597966">
        <ele>460.6000061035156</ele>
        <time>2015-05-03T10:33:16.000Z</time>
      </trkpt>
      <trkpt lat="39.83492139726877" lon="-6.132762031629682">
        <ele>459.20001220703125</ele>
        <time>2015-05-03T10:33:18.000Z</time>
      </trkpt>
      <trkpt lat="39.834859957918525" lon="-6.132837720215321">
        <ele>458.20001220703125</ele>
        <time>2015-05-03T10:33:20.000Z</time>
      </trkpt>
      <trkpt lat="39.83482852578163" lon="-6.132866973057389">
        <ele>457.79998779296875</ele>
        <time>2015-05-03T10:33:21.000Z</time>
      </trkpt>
      <trkpt lat="39.834790555760264" lon="-6.132899662479758">
        <ele>457.0</ele>
        <time>2015-05-03T10:33:22.000Z</time>
      </trkpt>
      <trkpt lat="39.83475459739566" lon="-6.132943583652377">
        <ele>456.20001220703125</ele>
        <time>2015-05-03T10:33:23.000Z</time>
      </trkpt>
      <trkpt lat="39.83471008948982" lon="-6.132985828444362">
        <ele>455.20001220703125</ele>
        <time>2015-05-03T10:33:24.000Z</time>
      </trkpt>
      <trkpt lat="39.83466465957463" lon="-6.1330244690179825">
        <ele>454.3999938964844</ele>
        <time>2015-05-03T10:33:25.000Z</time>
      </trkpt>
      <trkpt lat="39.83462115749717" lon="-6.133066713809967">
        <ele>453.79998779296875</ele>
        <time>2015-05-03T10:33:26.000Z</time>
      </trkpt>
      <trkpt lat="39.834535997360945" lon="-6.133151454851031">
        <ele>452.3999938964844</ele>
        <time>2015-05-03T10:33:28.000Z</time>
      </trkpt>
      <trkpt lat="39.83446014113724" lon="-6.133246840909123">
        <ele>450.3999938964844</ele>
        <time>2015-05-03T10:33:30.000Z</time>
      </trkpt>
      <trkpt lat="39.83441362157464" lon="-6.133302077651024">
        <ele>449.79998779296875</ele>
        <time>2015-05-03T10:33:31.000Z</time>
      </trkpt>
      <trkpt lat="39.83436333015561" lon="-6.133351866155863">
        <ele>449.0</ele>
        <time>2015-05-03T10:33:32.000Z</time>
      </trkpt>
      <trkpt lat="39.834269704297185" lon="-6.1334408819675446">
        <ele>446.6000061035156</ele>
        <time>2015-05-03T10:33:34.000Z</time>
      </trkpt>
      <trkpt lat="39.834234081208706" lon="-6.1334762535989285">
        <ele>445.6000061035156</ele>
        <time>2015-05-03T10:33:35.000Z</time>
      </trkpt>
      <trkpt lat="39.834193931892514" lon="-6.133506428450346">
        <ele>444.79998779296875</ele>
        <time>2015-05-03T10:33:36.000Z</time>
      </trkpt>
      <trkpt lat="39.83411748893559" lon="-6.133560072630644">
        <ele>443.0</ele>
        <time>2015-05-03T10:33:38.000Z</time>
      </trkpt>
      <trkpt lat="39.83407583087683" lon="-6.13358429633081">
        <ele>440.3999938964844</ele>
        <time>2015-05-03T10:33:39.000Z</time>
      </trkpt>
      <trkpt lat="39.83403107151389" lon="-6.133599802851677">
        <ele>439.20001220703125</ele>
        <time>2015-05-03T10:33:40.000Z</time>
      </trkpt>
      <trkpt lat="39.83398497104645" lon="-6.133608603850007">
        <ele>437.79998779296875</ele>
        <time>2015-05-03T10:33:41.000Z</time>
      </trkpt>
      <trkpt lat="39.83394348062575" lon="-6.133615141734481">
        <ele>436.79998779296875</ele>
        <time>2015-05-03T10:33:42.000Z</time>
      </trkpt>
      <trkpt lat="39.83391087502241" lon="-6.133633917197585">
        <ele>436.0</ele>
        <time>2015-05-03T10:33:43.000Z</time>
      </trkpt>
      <trkpt lat="39.83388648368418" lon="-6.13366836681962">
        <ele>435.20001220703125</ele>
        <time>2015-05-03T10:33:44.000Z</time>
      </trkpt>
      <trkpt lat="39.83386016450822" lon="-6.133716981858015">
        <ele>434.3999938964844</ele>
        <time>2015-05-03T10:33:45.000Z</time>
      </trkpt>
      <trkpt lat="39.83383401297033" lon="-6.133766770362854">
        <ele>433.79998779296875</ele>
        <time>2015-05-03T10:33:46.000Z</time>
      </trkpt>
      <trkpt lat="39.83380920253694" lon="-6.133812787011266">
        <ele>433.0</ele>
        <time>2015-05-03T10:33:47.000Z</time>
      </trkpt>
      <trkpt lat="39.833768885582685" lon="-6.133896270766854">
        <ele>431.3999938964844</ele>
        <time>2015-05-03T10:33:49.000Z</time>
      </trkpt>
      <trkpt lat="39.83374558389187" lon="-6.133922589942813">
        <ele>430.3999938964844</ele>
        <time>2015-05-03T10:33:50.000Z</time>
      </trkpt>
      <trkpt lat="39.83370861969888" lon="-6.133929966017604">
        <ele>429.79998779296875</ele>
        <time>2015-05-03T10:33:51.000Z</time>
      </trkpt>
      <trkpt lat="39.83363368548453" lon="-6.134003642946482">
        <ele>428.20001220703125</ele>
        <time>2015-05-03T10:33:53.000Z</time>
      </trkpt>
      <trkpt lat="39.83361331745982" lon="-6.134048737585545">
        <ele>427.0</ele>
        <time>2015-05-03T10:33:54.000Z</time>
      </trkpt>
      <trkpt lat="39.83356973156333" lon="-6.134128198027611">
        <ele>425.3999938964844</ele>
        <time>2015-05-03T10:33:56.000Z</time>
      </trkpt>
      <trkpt lat="39.83354249037802" lon="-6.13416725769639">
        <ele>424.6000061035156</ele>
        <time>2015-05-03T10:33:57.000Z</time>
      </trkpt>
      <trkpt lat="39.83350561000407" lon="-6.134206485003233">
        <ele>423.3999938964844</ele>
        <time>2015-05-03T10:33:58.000Z</time>
      </trkpt>
      <trkpt lat="39.83344324864447" lon="-6.134320395067334">
        <ele>421.20001220703125</ele>
        <time>2015-05-03T10:34:00.000Z</time>
      </trkpt>
      <trkpt lat="39.83331944793463" lon="-6.134508149698377">
        <ele>417.79998779296875</ele>
        <time>2015-05-03T10:34:03.000Z</time>
      </trkpt>
      <trkpt lat="39.83330260030925" lon="-6.1345296911895275">
        <ele>417.79998779296875</ele>
        <time>2015-05-03T10:34:04.000Z</time>
      </trkpt>
      <trkpt lat="39.83323948457837" lon="-6.13459917716682">
        <ele>416.20001220703125</ele>
        <time>2015-05-03T10:34:05.000Z</time>
      </trkpt>
      <trkpt lat="39.83317335136235" lon="-6.134659694507718">
        <ele>414.6000061035156</ele>
        <time>2015-05-03T10:34:06.000Z</time>
      </trkpt>
      <trkpt lat="39.83303362503648" lon="-6.134761199355125">
        <ele>413.20001220703125</ele>
        <time>2015-05-03T10:34:08.000Z</time>
      </trkpt>
      <trkpt lat="39.832898676395416" lon="-6.134875193238258">
        <ele>412.20001220703125</ele>
        <time>2015-05-03T10:34:10.000Z</time>
      </trkpt>
      <trkpt lat="39.83275123871863" lon="-6.134949792176485">
        <ele>411.3999938964844</ele>
        <time>2015-05-03T10:34:12.000Z</time>
      </trkpt>
      <trkpt lat="39.83254102058709" lon="-6.135045513510704">
        <ele>411.0</ele>
        <time>2015-05-03T10:34:15.000Z</time>
      </trkpt>
      <trkpt lat="39.83248142525554" lon="-6.135092452168465">
        <ele>410.79998779296875</ele>
        <time>2015-05-03T10:34:16.000Z</time>
      </trkpt>
      <trkpt lat="39.832289814949036" lon="-6.135206613689661">
        <ele>410.0</ele>
        <time>2015-05-03T10:34:19.000Z</time>
      </trkpt>
      <trkpt lat="39.83215142972767" lon="-6.1352709867060184">
        <ele>408.3999938964844</ele>
        <time>2015-05-03T10:34:21.000Z</time>
      </trkpt>
      <trkpt lat="39.83191246166825" lon="-6.135354805737734">
        <ele>407.0</ele>
        <time>2015-05-03T10:34:24.000Z</time>
      </trkpt>
      <trkpt lat="39.83183300122619" lon="-6.13540249876678">
        <ele>406.20001220703125</ele>
        <time>2015-05-03T10:34:25.000Z</time>
      </trkpt>
      <trkpt lat="39.831756139174104" lon="-6.135463016107678">
        <ele>405.20001220703125</ele>
        <time>2015-05-03T10:34:26.000Z</time>
      </trkpt>
      <trkpt lat="39.83167919330299" lon="-6.135530155152082">
        <ele>404.0</ele>
        <time>2015-05-03T10:34:27.000Z</time>
      </trkpt>
      <trkpt lat="39.831598810851574" lon="-6.135595198720694">
        <ele>402.3999938964844</ele>
        <time>2015-05-03T10:34:28.000Z</time>
      </trkpt>
      <trkpt lat="39.83151784166694" lon="-6.135664097964764">
        <ele>401.20001220703125</ele>
        <time>2015-05-03T10:34:29.000Z</time>
      </trkpt>
      <trkpt lat="39.83136747032404" lon="-6.135819498449564">
        <ele>399.0</ele>
        <time>2015-05-03T10:34:31.000Z</time>
      </trkpt>
      <trkpt lat="39.831226486712694" lon="-6.13598738797009">
        <ele>397.79998779296875</ele>
        <time>2015-05-03T10:34:33.000Z</time>
      </trkpt>
      <trkpt lat="39.83115255832672" lon="-6.1360623221844435">
        <ele>397.20001220703125</ele>
        <time>2015-05-03T10:34:34.000Z</time>
      </trkpt>
      <trkpt lat="39.83108013868332" lon="-6.136138094589114">
        <ele>396.3999938964844</ele>
        <time>2015-05-03T10:34:35.000Z</time>
      </trkpt>
      <trkpt lat="39.83087159693241" lon="-6.136360131204128">
        <ele>395.3999938964844</ele>
        <time>2015-05-03T10:34:38.000Z</time>
      </trkpt>
      <trkpt lat="39.83077025972307" lon="-6.136469347402453">
        <ele>394.6000061035156</ele>
        <time>2015-05-03T10:34:40.000Z</time>
      </trkpt>
      <trkpt lat="39.830649895593524" lon="-6.136435400694609">
        <ele>394.0</ele>
        <time>2015-05-03T10:34:42.000Z</time>
      </trkpt>
      <trkpt lat="39.83052743598819" lon="-6.136241108179092">
        <ele>393.6000061035156</ele>
        <time>2015-05-03T10:34:45.000Z</time>
      </trkpt>
      <trkpt lat="39.830445209518075" lon="-6.136112529784441">
        <ele>392.79998779296875</ele>
        <time>2015-05-03T10:34:47.000Z</time>
      </trkpt>
      <trkpt lat="39.830311350524426" lon="-6.13592678681016">
        <ele>392.20001220703125</ele>
        <time>2015-05-03T10:34:50.000Z</time>
      </trkpt>
      <trkpt lat="39.83024085871875" lon="-6.1357837077230215">
        <ele>391.3999938964844</ele>
        <time>2015-05-03T10:34:52.000Z</time>
      </trkpt>
      <trkpt lat="39.83019676990807" lon="-6.135618751868606">
        <ele>391.20001220703125</ele>
        <time>2015-05-03T10:34:54.000Z</time>
      </trkpt>
      <trkpt lat="39.83014991506934" lon="-6.135355141013861">
        <ele>390.20001220703125</ele>
        <time>2015-05-03T10:34:57.000Z</time>
      </trkpt>
      <trkpt lat="39.830098282545805" lon="-6.135009471327066">
        <ele>389.0</ele>
        <time>2015-05-03T10:35:01.000Z</time>
      </trkpt>
      <trkpt lat="39.830061569809914" lon="-6.134950462728739">
        <ele>389.20001220703125</ele>
        <time>2015-05-03T10:35:02.000Z</time>
      </trkpt>
      <trkpt lat="39.83001538552344" lon="-6.134908553212881">
        <ele>389.20001220703125</ele>
        <time>2015-05-03T10:35:03.000Z</time>
      </trkpt>
      <trkpt lat="39.82984095811844" lon="-6.134899165481329">
        <ele>388.3999938964844</ele>
        <time>2015-05-03T10:35:06.000Z</time>
      </trkpt>
      <trkpt lat="39.82972017489374" lon="-6.134913666173816">
        <ele>388.20001220703125</ele>
        <time>2015-05-03T10:35:08.000Z</time>
      </trkpt>
      <trkpt lat="39.829609701409936" lon="-6.134910061955452">
        <ele>388.3999938964844</ele>
        <time>2015-05-03T10:35:10.000Z</time>
      </trkpt>
      <trkpt lat="39.829508448019624" lon="-6.134889777749777">
        <ele>389.0</ele>
        <time>2015-05-03T10:35:12.000Z</time>
      </trkpt>
      <trkpt lat="39.82930074445903" lon="-6.134841665625572">
        <ele>390.6000061035156</ele>
        <time>2015-05-03T10:35:17.000Z</time>
      </trkpt>
      <trkpt lat="39.82926051132381" lon="-6.134833116084337">
        <ele>390.79998779296875</ele>
        <time>2015-05-03T10:35:18.000Z</time>
      </trkpt>
      <trkpt lat="39.8291383869946" lon="-6.134805539622903">
        <ele>391.79998779296875</ele>
        <time>2015-05-03T10:35:21.000Z</time>
      </trkpt>
      <trkpt lat="39.82906051911414" lon="-6.134792044758797">
        <ele>392.6000061035156</ele>
        <time>2015-05-03T10:35:23.000Z</time>
      </trkpt>
      <trkpt lat="39.82902271673083" lon="-6.134796654805541">
        <ele>393.20001220703125</ele>
        <time>2015-05-03T10:35:24.000Z</time>
      </trkpt>
      <trkpt lat="39.828984746709466" lon="-6.134808054193854">
        <ele>393.3999938964844</ele>
        <time>2015-05-03T10:35:25.000Z</time>
      </trkpt>
      <trkpt lat="39.82890905812383" lon="-6.134834541007876">
        <ele>394.3999938964844</ele>
        <time>2015-05-03T10:35:27.000Z</time>
      </trkpt>
      <trkpt lat="39.82883018441498" lon="-6.134859351441264">
        <ele>394.6000061035156</ele>
        <time>2015-05-03T10:35:29.000Z</time>
      </trkpt>
      <trkpt lat="39.82875374145806" lon="-6.134885000064969">
        <ele>395.20001220703125</ele>
        <time>2015-05-03T10:35:31.000Z</time>
      </trkpt>
      <trkpt lat="39.828716022893786" lon="-6.134895980358124">
        <ele>395.6000061035156</ele>
        <time>2015-05-03T10:35:32.000Z</time>
      </trkpt>
      <trkpt lat="39.828676376491785" lon="-6.134903943166137">
        <ele>395.79998779296875</ele>
        <time>2015-05-03T10:35:33.000Z</time>
      </trkpt>
      <trkpt lat="39.828555257990956" lon="-6.134908637031913">
        <ele>396.3999938964844</ele>
        <time>2015-05-03T10:35:36.000Z</time>
      </trkpt>
      <trkpt lat="39.82847034931183" lon="-6.134907128289342">
        <ele>396.79998779296875</ele>
        <time>2015-05-03T10:35:38.000Z</time>
      </trkpt>
      <trkpt lat="39.828384602442384" lon="-6.134906206279993">
        <ele>397.20001220703125</ele>
        <time>2015-05-03T10:35:40.000Z</time>
      </trkpt>
      <trkpt lat="39.828084195032716" lon="-6.134881982579827">
        <ele>396.20001220703125</ele>
        <time>2015-05-03T10:35:46.000Z</time>
      </trkpt>
      <trkpt lat="39.82802191749215" lon="-6.134865554049611">
        <ele>395.20001220703125</ele>
        <time>2015-05-03T10:35:47.000Z</time>
      </trkpt>
      <trkpt lat="39.827957125380635" lon="-6.134839318692684">
        <ele>395.0</ele>
        <time>2015-05-03T10:35:48.000Z</time>
      </trkpt>
      <trkpt lat="39.827827205881476" lon="-6.13476631231606">
        <ele>394.20001220703125</ele>
        <time>2015-05-03T10:35:50.000Z</time>
      </trkpt>
      <trkpt lat="39.82775587588549" lon="-6.13474041223526">
        <ele>393.6000061035156</ele>
        <time>2015-05-03T10:35:51.000Z</time>
      </trkpt>
      <trkpt lat="39.82762067578733" lon="-6.134793134406209">
        <ele>393.0</ele>
        <time>2015-05-03T10:35:53.000Z</time>
      </trkpt>
      <trkpt lat="39.827510956674814" lon="-6.134888352826238">
        <ele>393.20001220703125</ele>
        <time>2015-05-03T10:35:55.000Z</time>
      </trkpt>
      <trkpt lat="39.82735279016197" lon="-6.1350330244749784">
        <ele>393.79998779296875</ele>
        <time>2015-05-03T10:35:58.000Z</time>
      </trkpt>
      <trkpt lat="39.827211471274495" lon="-6.135185407474637">
        <ele>393.3999938964844</ele>
        <time>2015-05-03T10:36:01.000Z</time>
      </trkpt>
      <trkpt lat="39.82709831558168" lon="-6.135369809344411">
        <ele>393.79998779296875</ele>
        <time>2015-05-03T10:36:04.000Z</time>
      </trkpt>
      <trkpt lat="39.82699295505881" lon="-6.135552786290646">
        <ele>393.6000061035156</ele>
        <time>2015-05-03T10:36:07.000Z</time>
      </trkpt>
      <trkpt lat="39.82677452266216" lon="-6.135951932519674">
        <ele>393.20001220703125</ele>
        <time>2015-05-03T10:36:13.000Z</time>
      </trkpt>
      <trkpt lat="39.82668743468821" lon="-6.136064501479268">
        <ele>393.20001220703125</ele>
        <time>2015-05-03T10:36:15.000Z</time>
      </trkpt>
      <trkpt lat="39.82653748244047" lon="-6.136199701577425">
        <ele>393.0</ele>
        <time>2015-05-03T10:36:18.000Z</time>
      </trkpt>
      <trkpt lat="39.82639758847654" lon="-6.136347306892276">
        <ele>393.0</ele>
        <time>2015-05-03T10:36:21.000Z</time>
      </trkpt>
      <trkpt lat="39.82632785104215" lon="-6.136484853923321">
        <ele>392.3999938964844</ele>
        <time>2015-05-03T10:36:23.000Z</time>
      </trkpt>
      <trkpt lat="39.82629977166653" lon="-6.1365600395947695">
        <ele>392.0</ele>
        <time>2015-05-03T10:36:24.000Z</time>
      </trkpt>
      <trkpt lat="39.826278230175376" lon="-6.136637907475233">
        <ele>391.79998779296875</ele>
        <time>2015-05-03T10:36:25.000Z</time>
      </trkpt>
      <trkpt lat="39.82625157572329" lon="-6.136795235797763">
        <ele>391.79998779296875</ele>
        <time>2015-05-03T10:36:27.000Z</time>
      </trkpt>
      <trkpt lat="39.826253252103925" lon="-6.136871762573719">
        <ele>391.79998779296875</ele>
        <time>2015-05-03T10:36:28.000Z</time>
      </trkpt>
      <trkpt lat="39.82629742473364" lon="-6.137078292667866">
        <ele>392.20001220703125</ele>
        <time>2015-05-03T10:36:31.000Z</time>
      </trkpt>
      <trkpt lat="39.826311841607094" lon="-6.137141073122621">
        <ele>392.6000061035156</ele>
        <time>2015-05-03T10:36:32.000Z</time>
      </trkpt>
      <trkpt lat="39.82633757404983" lon="-6.1372659634798765">
        <ele>393.20001220703125</ele>
        <time>2015-05-03T10:36:34.000Z</time>
      </trkpt>
      <trkpt lat="39.82634402811527" lon="-6.1373295821249485">
        <ele>393.6000061035156</ele>
        <time>2015-05-03T10:36:35.000Z</time>
      </trkpt>
      <trkpt lat="39.82634285464883" lon="-6.137520940974355">
        <ele>394.0</ele>
        <time>2015-05-03T10:36:38.000Z</time>
      </trkpt>
      <trkpt lat="39.82633396983147" lon="-6.137582631781697">
        <ele>394.20001220703125</ele>
        <time>2015-05-03T10:36:39.000Z</time>
      </trkpt>
      <trkpt lat="39.826296754181385" lon="-6.137892426922917">
        <ele>394.20001220703125</ele>
        <time>2015-05-03T10:36:44.000Z</time>
      </trkpt>
      <trkpt lat="39.82629273086786" lon="-6.138050509616733">
        <ele>394.6000061035156</ele>
        <time>2015-05-03T10:36:48.000Z</time>
      </trkpt>
      <trkpt lat="39.82626926153898" lon="-6.1380852945148945">
        <ele>395.20001220703125</ele>
        <time>2015-05-03T10:36:57.000Z</time>
      </trkpt>
      <trkpt lat="39.826259622350335" lon="-6.138095855712891">
        <ele>395.20001220703125</ele>
        <time>2015-05-03T10:36:58.000Z</time>
      </trkpt>
      <trkpt lat="39.82765629887581" lon="-6.143003543838859">
        <ele>409.79998779296875</ele>
        <time>2015-12-07T14:12:29.000Z</time>
      </trkpt>
      <trkpt lat="39.82765579596162" lon="-6.143002202734351">
        <ele>409.79998779296875</ele>
        <time>2015-12-07T14:12:30.000Z</time>
      </trkpt>
      <trkpt lat="39.827583292499185" lon="-6.142936069518328">
        <ele>409.6000061035156</ele>
        <time>2015-12-07T14:12:43.000Z</time>
      </trkpt>
      <trkpt lat="39.82756954617798" lon="-6.142863649874926">
        <ele>409.6000061035156</ele>
        <time>2015-12-07T14:12:45.000Z</time>
      </trkpt>
      <trkpt lat="39.82755965553224" lon="-6.142782848328352">
        <ele>409.6000061035156</ele>
        <time>2015-12-07T14:12:47.000Z</time>
      </trkpt>
      <trkpt lat="39.82754901051521" lon="-6.142622251063585">
        <ele>409.6000061035156</ele>
        <time>2015-12-07T14:12:50.000Z</time>
      </trkpt>
      <trkpt lat="39.82755043543875" lon="-6.142383366823196">
        <ele>409.79998779296875</ele>
        <time>2015-12-07T14:12:54.000Z</time>
      </trkpt>
      <trkpt lat="39.827535934746265" lon="-6.14212897606194">
        <ele>409.6000061035156</ele>
        <time>2015-12-07T14:12:58.000Z</time>
      </trkpt>
      <trkpt lat="39.82750693336129" lon="-6.141931246966124">
        <ele>409.20001220703125</ele>
        <time>2015-12-07T14:13:01.000Z</time>
      </trkpt>
      <trkpt lat="39.82739637605846" lon="-6.141580631956458">
        <ele>408.79998779296875</ele>
        <time>2015-12-07T14:13:06.000Z</time>
      </trkpt>
      <trkpt lat="39.82725807465613" lon="-6.14108769223094">
        <ele>408.0</ele>
        <time>2015-12-07T14:13:13.000Z</time>
      </trkpt>
      <trkpt lat="39.82719655148685" lon="-6.140905637294054">
        <ele>407.20001220703125</ele>
        <time>2015-12-07T14:13:16.000Z</time>
      </trkpt>
      <trkpt lat="39.82712723314762" lon="-6.140794577077031">
        <ele>406.79998779296875</ele>
        <time>2015-12-07T14:13:18.000Z</time>
      </trkpt>
      <trkpt lat="39.827103512361646" lon="-6.140728862956166">
        <ele>406.3999938964844</ele>
        <time>2015-12-07T14:13:19.000Z</time>
      </trkpt>
      <trkpt lat="39.82705338858068" lon="-6.140529625117779">
        <ele>405.79998779296875</ele>
        <time>2015-12-07T14:13:22.000Z</time>
      </trkpt>
      <trkpt lat="39.82698113657534" lon="-6.140186218544841">
        <ele>405.0</ele>
        <time>2015-12-07T14:13:28.000Z</time>
      </trkpt>
      <trkpt lat="39.826915841549635" lon="-6.1398417223244905">
        <ele>404.20001220703125</ele>
        <time>2015-12-07T14:13:34.000Z</time>
      </trkpt>
      <trkpt lat="39.82688935473561" lon="-6.139729488641024">
        <ele>403.79998779296875</ele>
        <time>2015-12-07T14:13:36.000Z</time>
      </trkpt>
      <trkpt lat="39.82680452987552" lon="-6.13927342928946">
        <ele>402.20001220703125</ele>
        <time>2015-12-07T14:13:44.000Z</time>
      </trkpt>
      <trkpt lat="39.82672054320574" lon="-6.1389202158898115">
        <ele>400.6000061035156</ele>
        <time>2015-12-07T14:13:49.000Z</time>
      </trkpt>
      <trkpt lat="39.82667033560574" lon="-6.138714272528887">
        <ele>400.6000061035156</ele>
        <time>2015-12-07T14:13:52.000Z</time>
      </trkpt>
      <trkpt lat="39.82658416964114" lon="-6.138544538989663">
        <ele>400.3999938964844</ele>
        <time>2015-12-07T14:13:55.000Z</time>
      </trkpt>
      <trkpt lat="39.82642633840442" lon="-6.1383971851319075">
        <ele>399.3999938964844</ele>
        <time>2015-12-07T14:13:59.000Z</time>
      </trkpt>
      <trkpt lat="39.8263805732131" lon="-6.138368351384997">
        <ele>399.20001220703125</ele>
        <time>2015-12-07T14:14:00.000Z</time>
      </trkpt>
      <trkpt lat="39.82630773447454" lon="-6.138306660577655">
        <ele>398.79998779296875</ele>
        <time>2015-12-07T14:14:02.000Z</time>
      </trkpt>
      <trkpt lat="39.82628812082112" lon="-6.138194007799029">
        <ele>398.3999938964844</ele>
        <time>2015-12-07T14:14:04.000Z</time>
      </trkpt>
      <trkpt lat="39.82629650272429" lon="-6.138081438839436">
        <ele>398.20001220703125</ele>
        <time>2015-12-07T14:14:06.000Z</time>
      </trkpt>
      <trkpt lat="39.82629549689591" lon="-6.137898964807391">
        <ele>398.20001220703125</ele>
        <time>2015-12-07T14:14:09.000Z</time>
      </trkpt>
      <trkpt lat="39.82628476805985" lon="-6.137839788571">
        <ele>398.20001220703125</ele>
        <time>2015-12-07T14:14:10.000Z</time>
      </trkpt>
      <trkpt lat="39.826254677027464" lon="-6.137720933184028">
        <ele>398.20001220703125</ele>
        <time>2015-12-07T14:14:12.000Z</time>
      </trkpt>
      <trkpt lat="39.82622508890927" lon="-6.137677431106567">
        <ele>398.0</ele>
        <time>2015-12-07T14:14:13.000Z</time>
      </trkpt>
      <trkpt lat="39.82608041726053" lon="-6.137610962614417">
        <ele>397.3999938964844</ele>
        <time>2015-12-07T14:14:16.000Z</time>
      </trkpt>
      <trkpt lat="39.82580842450261" lon="-6.137491771951318">
        <ele>396.79998779296875</ele>
        <time>2015-12-07T14:14:21.000Z</time>
      </trkpt>
      <trkpt lat="39.82575763016939" lon="-6.137446174398065">
        <ele>396.6000061035156</ele>
        <time>2015-12-07T14:14:22.000Z</time>
      </trkpt>
      <trkpt lat="39.8256035707891" lon="-6.137247858569026">
        <ele>396.3999938964844</ele>
        <time>2015-12-07T14:14:26.000Z</time>
      </trkpt>
      <trkpt lat="39.82541975565255" lon="-6.137000592425466">
        <ele>397.20001220703125</ele>
        <time>2015-12-07T14:14:32.000Z</time>
      </trkpt>
      <trkpt lat="39.82522479258478" lon="-6.136724827811122">
        <ele>398.6000061035156</ele>
        <time>2015-12-07T14:14:39.000Z</time>
      </trkpt>
      <trkpt lat="39.82501046732068" lon="-6.136407656595111">
        <ele>399.0</ele>
        <time>2015-12-07T14:14:45.000Z</time>
      </trkpt>
      <trkpt lat="39.82497073709965" lon="-6.13636264577508">
        <ele>399.0</ele>
        <time>2015-12-07T14:14:46.000Z</time>
      </trkpt>
      <trkpt lat="39.824787341058254" lon="-6.136192576959729">
        <ele>398.6000061035156</ele>
        <time>2015-12-07T14:14:50.000Z</time>
      </trkpt>
      <trkpt lat="39.82449824921787" lon="-6.135960482060909">
        <ele>399.6000061035156</ele>
        <time>2015-12-07T14:14:56.000Z</time>
      </trkpt>
      <trkpt lat="39.824200021103024" lon="-6.135745486244559">
        <ele>400.0</ele>
        <time>2015-12-07T14:15:02.000Z</time>
      </trkpt>
      <trkpt lat="39.824153585359454" lon="-6.135708270594478">
        <ele>400.0</ele>
        <time>2015-12-07T14:15:03.000Z</time>
      </trkpt>
      <trkpt lat="39.82377824373543" lon="-6.135391183197498">
        <ele>400.6000061035156</ele>
        <time>2015-12-07T14:15:11.000Z</time>
      </trkpt>
      <trkpt lat="39.823384964838624" lon="-6.1350577510893345">
        <ele>399.0</ele>
        <time>2015-12-07T14:15:19.000Z</time>
      </trkpt>
      <trkpt lat="39.822967713698745" lon="-6.134677715599537">
        <ele>398.79998779296875</ele>
        <time>2015-12-07T14:15:28.000Z</time>
      </trkpt>
      <trkpt lat="39.82264827936888" lon="-6.134273875504732">
        <ele>400.79998779296875</ele>
        <time>2015-12-07T14:15:36.000Z</time>
      </trkpt>
      <trkpt lat="39.82246035709977" lon="-6.133820749819279">
        <ele>401.79998779296875</ele>
        <time>2015-12-07T14:15:43.000Z</time>
      </trkpt>
      <trkpt lat="39.82225785031915" lon="-6.133274249732494">
        <ele>401.20001220703125</ele>
        <time>2015-12-07T14:15:51.000Z</time>
      </trkpt>
      <trkpt lat="39.82203749008477" lon="-6.132619790732861">
        <ele>401.0</ele>
        <time>2015-12-07T14:16:00.000Z</time>
      </trkpt>
      <trkpt lat="39.82201946899295" lon="-6.132548209279776">
        <ele>401.20001220703125</ele>
        <time>2015-12-07T14:16:01.000Z</time>
      </trkpt>
      <trkpt lat="39.82200630940497" lon="-6.132465647533536">
        <ele>401.20001220703125</ele>
        <time>2015-12-07T14:16:02.000Z</time>
      </trkpt>
      <trkpt lat="39.822007147595286" lon="-6.13223816268146">
        <ele>401.6000061035156</ele>
        <time>2015-12-07T14:16:05.000Z</time>
      </trkpt>
      <trkpt lat="39.82201033271849" lon="-6.132160630077124">
        <ele>401.6000061035156</ele>
        <time>2015-12-07T14:16:06.000Z</time>
      </trkpt>
      <trkpt lat="39.822007063776255" lon="-6.1315469071269035">
        <ele>401.6000061035156</ele>
        <time>2015-12-07T14:16:14.000Z</time>
      </trkpt>
      <trkpt lat="39.82197026722133" lon="-6.131020272150636">
        <ele>401.6000061035156</ele>
        <time>2015-12-07T14:16:21.000Z</time>
      </trkpt>
      <trkpt lat="39.821915281936526" lon="-6.130263553932309">
        <ele>402.0</ele>
        <time>2015-12-07T14:16:31.000Z</time>
      </trkpt>
      <trkpt lat="39.82190681621432" lon="-6.130183003842831">
        <ele>402.20001220703125</ele>
        <time>2015-12-07T14:16:32.000Z</time>
      </trkpt>
      <trkpt lat="39.821790559217334" lon="-6.129457717761397">
        <ele>403.0</ele>
        <time>2015-12-07T14:16:42.000Z</time>
      </trkpt>
      <trkpt lat="39.82164932414889" lon="-6.128742238506675">
        <ele>404.3999938964844</ele>
        <time>2015-12-07T14:16:52.000Z</time>
      </trkpt>
      <trkpt lat="39.82163155451417" lon="-6.128677697852254">
        <ele>404.6000061035156</ele>
        <time>2015-12-07T14:16:53.000Z</time>
      </trkpt>
      <trkpt lat="39.82152552343905" lon="-6.128112589940429">
        <ele>406.20001220703125</ele>
        <time>2015-12-07T14:17:01.000Z</time>
      </trkpt>
      <trkpt lat="39.82143457978964" lon="-6.127572627738118">
        <ele>405.6000061035156</ele>
        <time>2015-12-07T14:17:08.000Z</time>
      </trkpt>
      <trkpt lat="39.82131731696427" lon="-6.126829655840993">
        <ele>404.20001220703125</ele>
        <time>2015-12-07T14:17:17.000Z</time>
      </trkpt>
      <trkpt lat="39.82121757231653" lon="-6.126121385022998">
        <ele>403.0</ele>
        <time>2015-12-07T14:17:26.000Z</time>
      </trkpt>
      <trkpt lat="39.82119217514992" lon="-6.125508835539222">
        <ele>402.3999938964844</ele>
        <time>2015-12-07T14:17:33.000Z</time>
      </trkpt>
      <trkpt lat="39.82117557898164" lon="-6.1248065158724785">
        <ele>398.20001220703125</ele>
        <time>2015-12-07T14:17:40.000Z</time>
      </trkpt>
      <trkpt lat="39.82117658481002" lon="-6.124723115935922">
        <ele>398.0</ele>
        <time>2015-12-07T14:17:41.000Z</time>
      </trkpt>
      <trkpt lat="39.821203742176294" lon="-6.124018197879195">
        <ele>397.20001220703125</ele>
        <time>2015-12-07T14:17:49.000Z</time>
      </trkpt>
      <trkpt lat="39.82125780545175" lon="-6.12351662479341">
        <ele>396.6000061035156</ele>
        <time>2015-12-07T14:17:56.000Z</time>
      </trkpt>
      <trkpt lat="39.82129745185375" lon="-6.122786812484264">
        <ele>396.6000061035156</ele>
        <time>2015-12-07T14:18:06.000Z</time>
      </trkpt>
      <trkpt lat="39.821380181238055" lon="-6.12222908064723">
        <ele>397.20001220703125</ele>
        <time>2015-12-07T14:18:14.000Z</time>
      </trkpt>
      <trkpt lat="39.82153097167611" lon="-6.121696326881647">
        <ele>396.0</ele>
        <time>2015-12-07T14:18:22.000Z</time>
      </trkpt>
      <trkpt lat="39.821694334968925" lon="-6.12114186398685">
        <ele>394.79998779296875</ele>
        <time>2015-12-07T14:18:30.000Z</time>
      </trkpt>
      <trkpt lat="39.821727611124516" lon="-6.120699802413583">
        <ele>393.79998779296875</ele>
        <time>2015-12-07T14:18:35.000Z</time>
      </trkpt>
      <trkpt lat="39.82174437493086" lon="-6.120606008917093">
        <ele>393.6000061035156</ele>
        <time>2015-12-07T14:18:36.000Z</time>
      </trkpt>
      <trkpt lat="39.82182492502034" lon="-6.120424373075366">
        <ele>393.20001220703125</ele>
        <time>2015-12-07T14:18:38.000Z</time>
      </trkpt>
      <trkpt lat="39.82205953449011" lon="-6.120141232386231">
        <ele>392.79998779296875</ele>
        <time>2015-12-07T14:18:42.000Z</time>
      </trkpt>
      <trkpt lat="39.82236840762198" lon="-6.119731860235333">
        <ele>389.6000061035156</ele>
        <time>2015-12-07T14:18:47.000Z</time>
      </trkpt>
      <trkpt lat="39.822531435638666" lon="-6.119265826418996">
        <ele>386.20001220703125</ele>
        <time>2015-12-07T14:18:51.000Z</time>
      </trkpt>
      <trkpt lat="39.82268935069442" lon="-6.118778837844729">
        <ele>382.20001220703125</ele>
        <time>2015-12-07T14:18:55.000Z</time>
      </trkpt>
      <trkpt lat="39.82274668291211" lon="-6.11867967993021">
        <ele>381.3999938964844</ele>
        <time>2015-12-07T14:18:56.000Z</time>
      </trkpt>
      <trkpt lat="39.82296000234783" lon="-6.118410285562277">
        <ele>378.6000061035156</ele>
        <time>2015-12-07T14:18:59.000Z</time>
      </trkpt>
      <trkpt lat="39.82303502038121" lon="-6.118323868140578">
        <ele>378.0</ele>
        <time>2015-12-07T14:19:00.000Z</time>
      </trkpt>
      <trkpt lat="39.8231980483979" lon="-6.1181367840617895">
        <ele>376.3999938964844</ele>
        <time>2015-12-07T14:19:03.000Z</time>
      </trkpt>
      <trkpt lat="39.82321967370808" lon="-6.118079451844096">
        <ele>376.20001220703125</ele>
        <time>2015-12-07T14:19:04.000Z</time>
      </trkpt>
      <trkpt lat="39.823205675929785" lon="-6.117948358878493">
        <ele>376.0</ele>
        <time>2015-12-07T14:19:06.000Z</time>
      </trkpt>
      <trkpt lat="39.82311640866101" lon="-6.117546195164323">
        <ele>375.0</ele>
        <time>2015-12-07T14:19:11.000Z</time>
      </trkpt>
      <trkpt lat="39.82294005341828" lon="-6.11703154630959">
        <ele>373.3999938964844</ele>
        <time>2015-12-07T14:19:17.000Z</time>
      </trkpt>
      <trkpt lat="39.82280619442463" lon="-6.116588981822133">
        <ele>372.20001220703125</ele>
        <time>2015-12-07T14:19:22.000Z</time>
      </trkpt>
      <trkpt lat="39.8228111397475" lon="-6.116497786715627">
        <ele>371.79998779296875</ele>
        <time>2015-12-07T14:19:23.000Z</time>
      </trkpt>
      <trkpt lat="39.82286092825234" lon="-6.1159968841820955">
        <ele>370.79998779296875</ele>
        <time>2015-12-07T14:19:28.000Z</time>
      </trkpt>
      <trkpt lat="39.822809966281056" lon="-6.115499921143055">
        <ele>370.79998779296875</ele>
        <time>2015-12-07T14:19:33.000Z</time>
      </trkpt>
      <trkpt lat="39.82276721857488" lon="-6.114760218188167">
        <ele>372.79998779296875</ele>
        <time>2015-12-07T14:19:41.000Z</time>
      </trkpt>
      <trkpt lat="39.822818180546165" lon="-6.114221094176173">
        <ele>372.0</ele>
        <time>2015-12-07T14:19:47.000Z</time>
      </trkpt>
      <trkpt lat="39.82289806008339" lon="-6.113696219399571">
        <ele>371.20001220703125</ele>
        <time>2015-12-07T14:19:53.000Z</time>
      </trkpt>
      <trkpt lat="39.8230651114136" lon="-6.113131530582905">
        <ele>369.79998779296875</ele>
        <time>2015-12-07T14:20:00.000Z</time>
      </trkpt>
      <trkpt lat="39.82327147386968" lon="-6.1125747207552195">
        <ele>367.6000061035156</ele>
        <time>2015-12-07T14:20:07.000Z</time>
      </trkpt>
      <trkpt lat="39.823358645662665" lon="-6.112063257023692">
        <ele>366.79998779296875</ele>
        <time>2015-12-07T14:20:13.000Z</time>
      </trkpt>
      <trkpt lat="39.8234329931438" lon="-6.111388932913542">
        <ele>366.6000061035156</ele>
        <time>2015-12-07T14:20:21.000Z</time>
      </trkpt>
      <trkpt lat="39.82344917021692" lon="-6.111304527148604">
        <ele>366.20001220703125</ele>
        <time>2015-12-07T14:20:22.000Z</time>
      </trkpt>
      <trkpt lat="39.82352695427835" lon="-6.1110788863152266">
        <ele>365.0</ele>
        <time>2015-12-07T14:20:25.000Z</time>
      </trkpt>
      <trkpt lat="39.82356366701424" lon="-6.111014261841774">
        <ele>364.3999938964844</ele>
        <time>2015-12-07T14:20:26.000Z</time>
      </trkpt>
      <trkpt lat="39.8236901499331" lon="-6.1108332965523005">
        <ele>362.79998779296875</ele>
        <time>2015-12-07T14:20:29.000Z</time>
      </trkpt>
      <trkpt lat="39.82382903806865" lon="-6.110659623518586">
        <ele>361.79998779296875</ele>
        <time>2015-12-07T14:20:32.000Z</time>
      </trkpt>
      <trkpt lat="39.82392241246998" lon="-6.110548647120595">
        <ele>361.20001220703125</ele>
        <time>2015-12-07T14:20:34.000Z</time>
      </trkpt>
      <trkpt lat="39.82404068112373" lon="-6.110352259129286">
        <ele>360.79998779296875</ele>
        <time>2015-12-07T14:20:37.000Z</time>
      </trkpt>
      <trkpt lat="39.824148220941424" lon="-6.110148411244154">
        <ele>360.3999938964844</ele>
        <time>2015-12-07T14:20:40.000Z</time>
      </trkpt>
      <trkpt lat="39.82424167916179" lon="-6.109941462054849">
        <ele>359.79998779296875</ele>
        <time>2015-12-07T14:20:43.000Z</time>
      </trkpt>
      <trkpt lat="39.824497662484646" lon="-6.109429998323321">
        <ele>358.20001220703125</ele>
        <time>2015-12-07T14:20:51.000Z</time>
      </trkpt>
      <trkpt lat="39.82450327835977" lon="-6.1092031840234995">
        <ele>357.79998779296875</ele>
        <time>2015-12-07T14:20:54.000Z</time>
      </trkpt>
      <trkpt lat="39.82449355535209" lon="-6.109133446589112">
        <ele>357.6000061035156</ele>
        <time>2015-12-07T14:20:55.000Z</time>
      </trkpt>
      <trkpt lat="39.82449011877179" lon="-6.109068067744374">
        <ele>357.3999938964844</ele>
        <time>2015-12-07T14:20:56.000Z</time>
      </trkpt>
      <trkpt lat="39.82450663112104" lon="-6.108862962573767">
        <ele>356.79998779296875</ele>
        <time>2015-12-07T14:20:59.000Z</time>
      </trkpt>
      <trkpt lat="39.82456689700484" lon="-6.108661210164428">
        <ele>356.3999938964844</ele>
        <time>2015-12-07T14:21:02.000Z</time>
      </trkpt>
      <trkpt lat="39.82461266219616" lon="-6.108535062521696">
        <ele>356.6000061035156</ele>
        <time>2015-12-07T14:21:04.000Z</time>
      </trkpt>
      <trkpt lat="39.824768817052245" lon="-6.108221411705017">
        <ele>357.3999938964844</ele>
        <time>2015-12-07T14:21:10.000Z</time>
      </trkpt>
      <trkpt lat="39.824976520612836" lon="-6.107899881899357">
        <ele>358.0</ele>
        <time>2015-12-07T14:21:16.000Z</time>
      </trkpt>
      <trkpt lat="39.82521087862551" lon="-6.107496544718742">
        <ele>358.3999938964844</ele>
        <time>2015-12-07T14:21:23.000Z</time>
      </trkpt>
      <trkpt lat="39.82550349086523" lon="-6.107090525329113">
        <ele>358.79998779296875</ele>
        <time>2015-12-07T14:21:31.000Z</time>
      </trkpt>
      <trkpt lat="39.82583918608725" lon="-6.106689283624291">
        <ele>358.79998779296875</ele>
        <time>2015-12-07T14:21:39.000Z</time>
      </trkpt>
      <trkpt lat="39.82619382441044" lon="-6.106267170980573">
        <ele>359.20001220703125</ele>
        <time>2015-12-07T14:21:47.000Z</time>
      </trkpt>
      <trkpt lat="39.82648819684982" lon="-6.1058207508176565">
        <ele>357.79998779296875</ele>
        <time>2015-12-07T14:21:54.000Z</time>
      </trkpt>
      <trkpt lat="39.826812241226435" lon="-6.105240304023027">
        <ele>356.20001220703125</ele>
        <time>2015-12-07T14:22:03.000Z</time>
      </trkpt>
      <trkpt lat="39.82700468972325" lon="-6.104820035398006">
        <ele>355.20001220703125</ele>
        <time>2015-12-07T14:22:10.000Z</time>
      </trkpt>
      <trkpt lat="39.82725723646581" lon="-6.104232631623745">
        <ele>354.6000061035156</ele>
        <time>2015-12-07T14:22:20.000Z</time>
      </trkpt>
      <trkpt lat="39.82736796140671" lon="-6.103976983577013">
        <ele>354.6000061035156</ele>
        <time>2015-12-07T14:22:25.000Z</time>
      </trkpt>
      <trkpt lat="39.82743225060403" lon="-6.103901881724596">
        <ele>355.0</ele>
        <time>2015-12-07T14:22:27.000Z</time>
      </trkpt>
      <trkpt lat="39.82755412347615" lon="-6.103805908933282">
        <ele>356.20001220703125</ele>
        <time>2015-12-07T14:22:30.000Z</time>
      </trkpt>
      <trkpt lat="39.82764950953424" lon="-6.1037421226501465">
        <ele>357.20001220703125</ele>
        <time>2015-12-07T14:22:32.000Z</time>
      </trkpt>
      <trkpt lat="39.82779057696462" lon="-6.1036228481680155">
        <ele>358.3999938964844</ele>
        <time>2015-12-07T14:22:35.000Z</time>
      </trkpt>
      <trkpt lat="39.82786291278899" lon="-6.103509943932295">
        <ele>358.6000061035156</ele>
        <time>2015-12-07T14:22:37.000Z</time>
      </trkpt>
      <trkpt lat="39.827956622466445" lon="-6.103188246488571">
        <ele>356.3999938964844</ele>
        <time>2015-12-07T14:22:42.000Z</time>
      </trkpt>
      <trkpt lat="39.827967435121536" lon="-6.103120855987072">
        <ele>355.79998779296875</ele>
        <time>2015-12-07T14:22:43.000Z</time>
      </trkpt>
      <trkpt lat="39.828056367114186" lon="-6.10263898037374">
        <ele>351.3999938964844</ele>
        <time>2015-12-07T14:22:49.000Z</time>
      </trkpt>
      <trkpt lat="39.828074388206005" lon="-6.102354414761066">
        <ele>348.20001220703125</ele>
        <time>2015-12-07T14:22:52.000Z</time>
      </trkpt>
      <trkpt lat="39.828052343800664" lon="-6.102176383137703">
        <ele>346.0</ele>
        <time>2015-12-07T14:22:54.000Z</time>
      </trkpt>
      <trkpt lat="39.82791957445443" lon="-6.101885614916682">
        <ele>342.6000061035156</ele>
        <time>2015-12-07T14:22:58.000Z</time>
      </trkpt>
      <trkpt lat="39.82789442874491" lon="-6.101819816976786">
        <ele>341.79998779296875</ele>
        <time>2015-12-07T14:22:59.000Z</time>
      </trkpt>
      <trkpt lat="39.82788512483239" lon="-6.1016784980893135">
        <ele>340.79998779296875</ele>
        <time>2015-12-07T14:23:01.000Z</time>
      </trkpt>
      <trkpt lat="39.82795746065676" lon="-6.1015023943036795">
        <ele>340.0</ele>
        <time>2015-12-07T14:23:04.000Z</time>
      </trkpt>
      <trkpt lat="39.82808796688914" lon="-6.10147163271904">
        <ele>341.0</ele>
        <time>2015-12-07T14:23:07.000Z</time>
      </trkpt>
      <trkpt lat="39.82826960273087" lon="-6.101602474227548">
        <ele>343.3999938964844</ele>
        <time>2015-12-07T14:23:11.000Z</time>
      </trkpt>
      <trkpt lat="39.82838686555624" lon="-6.101802382618189">
        <ele>346.0</ele>
        <time>2015-12-07T14:23:14.000Z</time>
      </trkpt>
      <trkpt lat="39.82842148281634" lon="-6.101883687078953">
        <ele>347.20001220703125</ele>
        <time>2015-12-07T14:23:15.000Z</time>
      </trkpt>
      <trkpt lat="39.82855726964772" lon="-6.102119721472263">
        <ele>351.3999938964844</ele>
        <time>2015-12-07T14:23:18.000Z</time>
      </trkpt>
      <trkpt lat="39.82861736789346" lon="-6.102165235206485">
        <ele>352.6000061035156</ele>
        <time>2015-12-07T14:23:19.000Z</time>
      </trkpt>
      <trkpt lat="39.82882792130113" lon="-6.102210497483611">
        <ele>352.6000061035156</ele>
        <time>2015-12-07T14:23:22.000Z</time>
      </trkpt>
      <trkpt lat="39.82901022769511" lon="-6.102123660966754">
        <ele>348.6000061035156</ele>
        <time>2015-12-07T14:23:25.000Z</time>
      </trkpt>
      <trkpt lat="39.82919882051647" lon="-6.102104214951396">
        <ele>345.79998779296875</ele>
        <time>2015-12-07T14:23:29.000Z</time>
      </trkpt>
      <trkpt lat="39.829351119697094" lon="-6.102219466120005">
        <ele>345.79998779296875</ele>
        <time>2015-12-07T14:23:32.000Z</time>
      </trkpt>
      <trkpt lat="39.82941339723766" lon="-6.102426582947373">
        <ele>347.0</ele>
        <time>2015-12-07T14:23:35.000Z</time>
      </trkpt>
      <trkpt lat="39.82945396564901" lon="-6.10254904255271">
        <ele>347.6000061035156</ele>
        <time>2015-12-07T14:23:37.000Z</time>
      </trkpt>
      <trkpt lat="39.829541221261024" lon="-6.10270687378943">
        <ele>347.79998779296875</ele>
        <time>2015-12-07T14:23:40.000Z</time>
      </trkpt>
      <trkpt lat="39.82966183684766" lon="-6.103058662265539">
        <ele>348.0</ele>
        <time>2015-12-07T14:23:45.000Z</time>
      </trkpt>
      <trkpt lat="39.82971950434148" lon="-6.103216661140323">
        <ele>348.0</ele>
        <time>2015-12-07T14:23:47.000Z</time>
      </trkpt>
      <trkpt lat="39.82981698587537" lon="-6.103308945894241">
        <ele>346.20001220703125</ele>
        <time>2015-12-07T14:23:49.000Z</time>
      </trkpt>
      <trkpt lat="39.82996040023863" lon="-6.10324583016336">
        <ele>343.3999938964844</ele>
        <time>2015-12-07T14:23:52.000Z</time>
      </trkpt>
      <trkpt lat="39.83015435747802" lon="-6.103120520710945">
        <ele>339.6000061035156</ele>
        <time>2015-12-07T14:23:56.000Z</time>
      </trkpt>
      <trkpt lat="39.83032274991274" lon="-6.103215320035815">
        <ele>336.6000061035156</ele>
        <time>2015-12-07T14:23:59.000Z</time>
      </trkpt>
      <trkpt lat="39.830481922253966" lon="-6.103383041918278">
        <ele>333.79998779296875</ele>
        <time>2015-12-07T14:24:02.000Z</time>
      </trkpt>
      <trkpt lat="39.83057940378785" lon="-6.103493934497237">
        <ele>331.6000061035156</ele>
        <time>2015-12-07T14:24:04.000Z</time>
      </trkpt>
      <trkpt lat="39.830619134008884" lon="-6.1035557091236115">
        <ele>330.79998779296875</ele>
        <time>2015-12-07T14:24:05.000Z</time>
      </trkpt>
      <trkpt lat="39.83066280372441" lon="-6.103724185377359">
        <ele>330.20001220703125</ele>
        <time>2015-12-07T14:24:07.000Z</time>
      </trkpt>
      <trkpt lat="39.830654338002205" lon="-6.104041524231434">
        <ele>329.3999938964844</ele>
        <time>2015-12-07T14:24:10.000Z</time>
      </trkpt>
      <trkpt lat="39.830645537003875" lon="-6.104139760136604">
        <ele>328.3999938964844</ele>
        <time>2015-12-07T14:24:11.000Z</time>
      </trkpt>
      <trkpt lat="39.83056624419987" lon="-6.1047128308564425">
        <ele>322.79998779296875</ele>
        <time>2015-12-07T14:24:16.000Z</time>
      </trkpt>
      <trkpt lat="39.83042693696916" lon="-6.104960348457098">
        <ele>324.79998779296875</ele>
        <time>2015-12-07T14:24:19.000Z</time>
      </trkpt>
      <trkpt lat="39.83018008992076" lon="-6.105214236304164">
        <ele>327.79998779296875</ele>
        <time>2015-12-07T14:24:23.000Z</time>
      </trkpt>
      <trkpt lat="39.830115884542465" lon="-6.105356812477112">
        <ele>328.0</ele>
        <time>2015-12-07T14:24:26.000Z</time>
      </trkpt>
      <trkpt lat="39.83019819483161" lon="-6.10539922490716">
        <ele>326.3999938964844</ele>
        <time>2015-12-07T14:24:29.000Z</time>
      </trkpt>
      <trkpt lat="39.83040497638285" lon="-6.105318758636713">
        <ele>323.20001220703125</ele>
        <time>2015-12-07T14:24:32.000Z</time>
      </trkpt>
      <trkpt lat="39.830475552007556" lon="-6.105285147204995">
        <ele>321.6000061035156</ele>
        <time>2015-12-07T14:24:33.000Z</time>
      </trkpt>
      <trkpt lat="39.83090998604894" lon="-6.1050621047616005">
        <ele>311.3999938964844</ele>
        <time>2015-12-07T14:24:39.000Z</time>
      </trkpt>
      <trkpt lat="39.83123302459717" lon="-6.104817688465118">
        <ele>304.79998779296875</ele>
        <time>2015-12-07T14:24:44.000Z</time>
      </trkpt>
      <trkpt lat="39.831324303522706" lon="-6.104587269946933">
        <ele>304.3999938964844</ele>
        <time>2015-12-07T14:24:47.000Z</time>
      </trkpt>
      <trkpt lat="39.83136411756277" lon="-6.104388786479831">
        <ele>305.6000061035156</ele>
        <time>2015-12-07T14:24:49.000Z</time>
      </trkpt>
      <trkpt lat="39.83141792938113" lon="-6.1041847709566355">
        <ele>306.3999938964844</ele>
        <time>2015-12-07T14:24:51.000Z</time>
      </trkpt>
      <trkpt lat="39.831592943519354" lon="-6.103723682463169">
        <ele>303.6000061035156</ele>
        <time>2015-12-07T14:24:55.000Z</time>
      </trkpt>
      <trkpt lat="39.83168623410165" lon="-6.103379689157009">
        <ele>299.79998779296875</ele>
        <time>2015-12-07T14:24:59.000Z</time>
      </trkpt>
      <trkpt lat="39.8315906804055" lon="-6.103180535137653">
        <ele>302.0</ele>
        <time>2015-12-07T14:25:02.000Z</time>
      </trkpt>
      <trkpt lat="39.8314749263227" lon="-6.102995630353689">
        <ele>304.6000061035156</ele>
        <time>2015-12-07T14:25:05.000Z</time>
      </trkpt>
      <trkpt lat="39.83143134042621" lon="-6.102936370298266">
        <ele>305.3999938964844</ele>
        <time>2015-12-07T14:25:06.000Z</time>
      </trkpt>
      <trkpt lat="39.83136814087629" lon="-6.102827740833163">
        <ele>303.3999938964844</ele>
        <time>2015-12-07T14:25:08.000Z</time>
      </trkpt>
      <trkpt lat="39.83136889524758" lon="-6.102768396958709">
        <ele>301.3999938964844</ele>
        <time>2015-12-07T14:25:09.000Z</time>
      </trkpt>
      <trkpt lat="39.831430250778794" lon="-6.102565890178084">
        <ele>295.0</ele>
        <time>2015-12-07T14:25:13.000Z</time>
      </trkpt>
      <trkpt lat="39.83153074979782" lon="-6.102427337318659">
        <ele>290.6000061035156</ele>
        <time>2015-12-07T14:25:17.000Z</time>
      </trkpt>
      <trkpt lat="39.83159185387194" lon="-6.102367239072919">
        <ele>288.6000061035156</ele>
        <time>2015-12-07T14:25:19.000Z</time>
      </trkpt>
      <trkpt lat="39.8317685443908" lon="-6.102284509688616">
        <ele>286.0</ele>
        <time>2015-12-07T14:25:24.000Z</time>
      </trkpt>
      <trkpt lat="39.83204422518611" lon="-6.102212592959404">
        <ele>285.20001220703125</ele>
        <time>2015-12-07T14:25:33.000Z</time>
      </trkpt>
      <trkpt lat="39.83228478580713" lon="-6.102177305147052">
        <ele>288.6000061035156</ele>
        <time>2015-12-07T14:25:40.000Z</time>
      </trkpt>
      <trkpt lat="39.83247505500913" lon="-6.102114105597138">
        <ele>291.6000061035156</ele>
        <time>2015-12-07T14:25:46.000Z</time>
      </trkpt>
      <trkpt lat="39.83270748518407" lon="-6.102051995694637">
        <ele>295.3999938964844</ele>
        <time>2015-12-07T14:25:53.000Z</time>
      </trkpt>
      <trkpt lat="39.83282944187522" lon="-6.101971194148064">
        <ele>297.20001220703125</ele>
        <time>2015-12-07T14:25:57.000Z</time>
      </trkpt>
      <trkpt lat="39.83283438719809" lon="-6.101931296288967">
        <ele>297.0</ele>
        <time>2015-12-07T14:25:58.000Z</time>
      </trkpt>
      <trkpt lat="39.83278015628457" lon="-6.101774554699659">
        <ele>295.0</ele>
        <time>2015-12-07T14:26:02.000Z</time>
      </trkpt>
      <trkpt lat="39.83270891010761" lon="-6.101691573858261">
        <ele>293.3999938964844</ele>
        <time>2015-12-07T14:26:05.000Z</time>
      </trkpt>
      <trkpt lat="39.83264478854835" lon="-6.101597277447581">
        <ele>292.3999938964844</ele>
        <time>2015-12-07T14:26:08.000Z</time>
      </trkpt>
      <trkpt lat="39.83244949020445" lon="-6.101465430110693">
        <ele>291.6000061035156</ele>
        <time>2015-12-07T14:26:15.000Z</time>
      </trkpt>
      <trkpt lat="39.83229450881481" lon="-6.101407678797841">
        <ele>291.3999938964844</ele>
        <time>2015-12-07T14:26:21.000Z</time>
      </trkpt>
      <trkpt lat="39.83208915218711" lon="-6.101314136758447">
        <ele>292.0</ele>
        <time>2015-12-07T14:26:30.000Z</time>
      </trkpt>
      <trkpt lat="39.83192847110331" lon="-6.101217325776815">
        <ele>293.3999938964844</ele>
        <time>2015-12-07T14:26:37.000Z</time>
      </trkpt>
      <trkpt lat="39.8317164927721" lon="-6.101077599450946">
        <ele>295.3999938964844</ele>
        <time>2015-12-07T14:26:46.000Z</time>
      </trkpt>
      <trkpt lat="39.83152639120817" lon="-6.100937621667981">
        <ele>295.3999938964844</ele>
        <time>2015-12-07T14:26:55.000Z</time>
      </trkpt>
      <trkpt lat="39.83137400820851" lon="-6.100827902555466">
        <ele>294.0</ele>
        <time>2015-12-07T14:27:02.000Z</time>
      </trkpt>
      <trkpt lat="39.83122237958014" lon="-6.100685745477676">
        <ele>293.0</ele>
        <time>2015-12-07T14:27:10.000Z</time>
      </trkpt>
      <trkpt lat="39.831209890544415" lon="-6.100521292537451">
        <ele>294.0</ele>
        <time>2015-12-07T14:27:16.000Z</time>
      </trkpt>
      <trkpt lat="39.83130410313606" lon="-6.100426577031612">
        <ele>296.79998779296875</ele>
        <time>2015-12-07T14:27:21.000Z</time>
      </trkpt>
      <trkpt lat="39.831456653773785" lon="-6.100412160158157">
        <ele>301.0</ele>
        <time>2015-12-07T14:27:27.000Z</time>
      </trkpt>
      <trkpt lat="39.83165379613638" lon="-6.100426744669676">
        <ele>304.20001220703125</ele>
        <time>2015-12-07T14:27:35.000Z</time>
      </trkpt>
      <trkpt lat="39.83188681304455" lon="-6.100449794903398">
        <ele>308.20001220703125</ele>
        <time>2015-12-07T14:27:45.000Z</time>
      </trkpt>
      <trkpt lat="39.83212988823652" lon="-6.100463205948472">
        <ele>312.3999938964844</ele>
        <time>2015-12-07T14:27:55.000Z</time>
      </trkpt>
      <trkpt lat="39.832335747778416" lon="-6.100474521517754">
        <ele>314.3999938964844</ele>
        <time>2015-12-07T14:28:03.000Z</time>
      </trkpt>
      <trkpt lat="39.83260413631797" lon="-6.100493045523763">
        <ele>315.79998779296875</ele>
        <time>2015-12-07T14:28:13.000Z</time>
      </trkpt>
      <trkpt lat="39.83292952179909" lon="-6.100521711632609">
        <ele>317.6000061035156</ele>
        <time>2015-12-07T14:28:25.000Z</time>
      </trkpt>
      <trkpt lat="39.833147786557674" lon="-6.10056865029037">
        <ele>318.0</ele>
        <time>2015-12-07T14:28:33.000Z</time>
      </trkpt>
      <trkpt lat="39.833402428776026" lon="-6.1006406508386135">
        <ele>317.79998779296875</ele>
        <time>2015-12-07T14:28:42.000Z</time>
      </trkpt>
      <trkpt lat="39.83368297107518" lon="-6.100686332210898">
        <ele>318.79998779296875</ele>
        <time>2015-12-07T14:28:51.000Z</time>
      </trkpt>
      <trkpt lat="39.83397767879069" lon="-6.100684488192201">
        <ele>319.20001220703125</ele>
        <time>2015-12-07T14:28:59.000Z</time>
      </trkpt>
      <trkpt lat="39.8342758230865" lon="-6.1006612703204155">
        <ele>319.6000061035156</ele>
        <time>2015-12-07T14:29:07.000Z</time>
      </trkpt>
      <trkpt lat="39.83456810005009" lon="-6.100641572847962">
        <ele>320.79998779296875</ele>
        <time>2015-12-07T14:29:15.000Z</time>
      </trkpt>
      <trkpt lat="39.83483640477061" lon="-6.1005661357194185">
        <ele>324.3999938964844</ele>
        <time>2015-12-07T14:29:23.000Z</time>
      </trkpt>
      <trkpt lat="39.83506548218429" lon="-6.100551886484027">
        <ele>326.79998779296875</ele>
        <time>2015-12-07T14:29:28.000Z</time>
      </trkpt>
      <trkpt lat="39.835204873234034" lon="-6.100569991394877">
        <ele>327.3999938964844</ele>
        <time>2015-12-07T14:29:31.000Z</time>
      </trkpt>
      <trkpt lat="39.83528500422835" lon="-6.100577283650637">
        <ele>327.79998779296875</ele>
        <time>2015-12-07T14:29:33.000Z</time>
      </trkpt>
      <trkpt lat="39.83534920960665" lon="-6.100671915337443">
        <ele>327.79998779296875</ele>
        <time>2015-12-07T14:29:36.000Z</time>
      </trkpt>
      <trkpt lat="39.835278214886785" lon="-6.100800661370158">
        <ele>327.20001220703125</ele>
        <time>2015-12-07T14:29:39.000Z</time>
      </trkpt>
      <trkpt lat="39.835214763879776" lon="-6.100926222279668">
        <ele>327.0</ele>
        <time>2015-12-07T14:29:42.000Z</time>
      </trkpt>
      <trkpt lat="39.83518458902836" lon="-6.100997049361467">
        <ele>327.0</ele>
        <time>2015-12-07T14:29:44.000Z</time>
      </trkpt>
      <trkpt lat="39.83508702367544" lon="-6.101226881146431">
        <ele>326.79998779296875</ele>
        <time>2015-12-07T14:29:51.000Z</time>
      </trkpt>
      <trkpt lat="39.83500680886209" lon="-6.101447995752096">
        <ele>327.20001220703125</ele>
        <time>2015-12-07T14:29:57.000Z</time>
      </trkpt>
      <trkpt lat="39.83492952771485" lon="-6.101623177528381">
        <ele>330.20001220703125</ele>
        <time>2015-12-07T14:30:03.000Z</time>
      </trkpt>
      <trkpt lat="39.83475694432855" lon="-6.101829372346401">
        <ele>331.79998779296875</ele>
        <time>2015-12-07T14:30:11.000Z</time>
      </trkpt>
      <trkpt lat="39.83467161655426" lon="-6.101941941305995">
        <ele>332.79998779296875</ele>
        <time>2015-12-07T14:30:15.000Z</time>
      </trkpt>
      <trkpt lat="39.83464512974024" lon="-6.101959543302655">
        <ele>332.6000061035156</ele>
        <time>2015-12-07T14:30:16.000Z</time>
      </trkpt>
      <trkpt lat="39.834509594365954" lon="-6.102068843320012">
        <ele>332.3999938964844</ele>
        <time>2015-12-07T14:30:22.000Z</time>
      </trkpt>
      <trkpt lat="39.83428395353258" lon="-6.102203708142042">
        <ele>331.0</ele>
        <time>2015-12-07T14:30:31.000Z</time>
      </trkpt>
      <trkpt lat="39.834180269390345" lon="-6.102345446124673">
        <ele>332.0</ele>
        <time>2015-12-07T14:30:37.000Z</time>
      </trkpt>
      <trkpt lat="39.8340480029583" lon="-6.102502439171076">
        <ele>332.0</ele>
        <time>2015-12-07T14:30:44.000Z</time>
      </trkpt>
      <trkpt lat="39.833841137588024" lon="-6.102744759991765">
        <ele>331.79998779296875</ele>
        <time>2015-12-07T14:30:53.000Z</time>
      </trkpt>
      <trkpt lat="39.833672074601054" lon="-6.102939723059535">
        <ele>331.20001220703125</ele>
        <time>2015-12-07T14:31:01.000Z</time>
      </trkpt>
      <trkpt lat="39.83352178707719" lon="-6.1031893361359835">
        <ele>330.0</ele>
        <time>2015-12-07T14:31:09.000Z</time>
      </trkpt>
      <trkpt lat="39.833421874791384" lon="-6.103531150147319">
        <ele>329.20001220703125</ele>
        <time>2015-12-07T14:31:17.000Z</time>
      </trkpt>
      <trkpt lat="39.83337786979973" lon="-6.103805238381028">
        <ele>329.3999938964844</ele>
        <time>2015-12-07T14:31:22.000Z</time>
      </trkpt>
      <trkpt lat="39.83330503106117" lon="-6.1042312905192375">
        <ele>329.0</ele>
        <time>2015-12-07T14:31:30.000Z</time>
      </trkpt>
      <trkpt lat="39.83328893780708" lon="-6.104281330481172">
        <ele>328.79998779296875</ele>
        <time>2015-12-07T14:31:31.000Z</time>
      </trkpt>
      <trkpt lat="39.83320377767086" lon="-6.104535721242428">
        <ele>327.79998779296875</ele>
        <time>2015-12-07T14:31:36.000Z</time>
      </trkpt>
      <trkpt lat="39.83318651095033" lon="-6.104586850851774">
        <ele>327.79998779296875</ele>
        <time>2015-12-07T14:31:37.000Z</time>
      </trkpt>
      <trkpt lat="39.833106799051166" lon="-6.104868650436401">
        <ele>327.79998779296875</ele>
        <time>2015-12-07T14:31:42.000Z</time>
      </trkpt>
      <trkpt lat="39.83306832611561" lon="-6.104982057586312">
        <ele>327.3999938964844</ele>
        <time>2015-12-07T14:31:44.000Z</time>
      </trkpt>
      <trkpt lat="39.83296480961144" lon="-6.105142822489142">
        <ele>324.79998779296875</ele>
        <time>2015-12-07T14:31:47.000Z</time>
      </trkpt>
      <trkpt lat="39.83289205469191" lon="-6.105278190225363">
        <ele>323.0</ele>
        <time>2015-12-07T14:31:49.000Z</time>
      </trkpt>
      <trkpt lat="39.83280546963215" lon="-6.105486899614334">
        <ele>322.6000061035156</ele>
        <time>2015-12-07T14:31:52.000Z</time>
      </trkpt>
      <trkpt lat="39.832666497677565" lon="-6.105753947049379">
        <ele>319.3999938964844</ele>
        <time>2015-12-07T14:31:56.000Z</time>
      </trkpt>
      <trkpt lat="39.83266641385853" lon="-6.105977911502123">
        <ele>319.6000061035156</ele>
        <time>2015-12-07T14:31:59.000Z</time>
      </trkpt>
      <trkpt lat="39.832668006420135" lon="-6.106048906221986">
        <ele>320.0</ele>
        <time>2015-12-07T14:32:00.000Z</time>
      </trkpt>
      <trkpt lat="39.83266239054501" lon="-6.1062484793365">
        <ele>320.20001220703125</ele>
        <time>2015-12-07T14:32:03.000Z</time>
      </trkpt>
      <trkpt lat="39.832654427737" lon="-6.1063797399401665">
        <ele>320.20001220703125</ele>
        <time>2015-12-07T14:32:05.000Z</time>
      </trkpt>
      <trkpt lat="39.832673873752356" lon="-6.106646368280053">
        <ele>322.3999938964844</ele>
        <time>2015-12-07T14:32:09.000Z</time>
      </trkpt>
      <trkpt lat="39.83268837444484" lon="-6.106839906424284">
        <ele>323.0</ele>
        <time>2015-12-07T14:32:12.000Z</time>
      </trkpt>
      <trkpt lat="39.832689967006445" lon="-6.106965886428952">
        <ele>323.20001220703125</ele>
        <time>2015-12-07T14:32:14.000Z</time>
      </trkpt>
      <trkpt lat="39.832714358344674" lon="-6.107124723494053">
        <ele>324.0</ele>
        <time>2015-12-07T14:32:17.000Z</time>
      </trkpt>
      <trkpt lat="39.832751993089914" lon="-6.107295798137784">
        <ele>325.6000061035156</ele>
        <time>2015-12-07T14:32:21.000Z</time>
      </trkpt>
      <trkpt lat="39.8328079842031" lon="-6.107629397884011">
        <ele>327.0</ele>
        <time>2015-12-07T14:32:28.000Z</time>
      </trkpt>
      <trkpt lat="39.83282743021846" lon="-6.107929218560457">
        <ele>326.6000061035156</ele>
        <time>2015-12-07T14:32:35.000Z</time>
      </trkpt>
      <trkpt lat="39.83283329755068" lon="-6.108149662613869">
        <ele>326.0</ele>
        <time>2015-12-07T14:32:40.000Z</time>
      </trkpt>
      <trkpt lat="39.832882499322295" lon="-6.108540175482631">
        <ele>325.3999938964844</ele>
        <time>2015-12-07T14:32:47.000Z</time>
      </trkpt>
      <trkpt lat="39.83293631114066" lon="-6.108854580670595">
        <ele>326.20001220703125</ele>
        <time>2015-12-07T14:32:53.000Z</time>
      </trkpt>
      <trkpt lat="39.83294787816703" lon="-6.108898585662246">
        <ele>326.3999938964844</ele>
        <time>2015-12-07T14:32:54.000Z</time>
      </trkpt>
      <trkpt lat="39.83296472579241" lon="-6.108983745798469">
        <ele>327.0</ele>
        <time>2015-12-07T14:32:56.000Z</time>
      </trkpt>
      <trkpt lat="39.83298593200743" lon="-6.109181642532349">
        <ele>328.20001220703125</ele>
        <time>2015-12-07T14:33:01.000Z</time>
      </trkpt>
      <trkpt lat="39.833009568974376" lon="-6.109467213973403">
        <ele>329.79998779296875</ele>
        <time>2015-12-07T14:33:07.000Z</time>
      </trkpt>
      <trkpt lat="39.83307964168489" lon="-6.109741637483239">
        <ele>332.6000061035156</ele>
        <time>2015-12-07T14:33:13.000Z</time>
      </trkpt>
      <trkpt lat="39.83311861753464" lon="-6.110186297446489">
        <ele>334.0</ele>
        <time>2015-12-07T14:33:21.000Z</time>
      </trkpt>
      <trkpt lat="39.83305768109858" lon="-6.110447142273188">
        <ele>332.0</ele>
        <time>2015-12-07T14:33:26.000Z</time>
      </trkpt>
      <trkpt lat="39.83305332250893" lon="-6.110493326559663">
        <ele>332.0</ele>
        <time>2015-12-07T14:33:27.000Z</time>
      </trkpt>
      <trkpt lat="39.833076456561685" lon="-6.110663898289204">
        <ele>333.6000061035156</ele>
        <time>2015-12-07T14:33:31.000Z</time>
      </trkpt>
      <trkpt lat="39.83311736024916" lon="-6.110769929364324">
        <ele>335.79998779296875</ele>
        <time>2015-12-07T14:33:34.000Z</time>
      </trkpt>
      <trkpt lat="39.83315725810826" lon="-6.110856346786022">
        <ele>337.79998779296875</ele>
        <time>2015-12-07T14:33:37.000Z</time>
      </trkpt>
      <trkpt lat="39.83321752399206" lon="-6.111007472500205">
        <ele>341.0</ele>
        <time>2015-12-07T14:33:43.000Z</time>
      </trkpt>
      <trkpt lat="39.833255745470524" lon="-6.111160274595022">
        <ele>343.3999938964844</ele>
        <time>2015-12-07T14:33:49.000Z</time>
      </trkpt>
      <trkpt lat="39.83318952843547" lon="-6.11135758459568">
        <ele>341.79998779296875</ele>
        <time>2015-12-07T14:33:55.000Z</time>
      </trkpt>
      <trkpt lat="39.83314208686352" lon="-6.111600324511528">
        <ele>342.6000061035156</ele>
        <time>2015-12-07T14:34:00.000Z</time>
      </trkpt>
      <trkpt lat="39.83309833332896" lon="-6.111850943416357">
        <ele>344.20001220703125</ele>
        <time>2015-12-07T14:34:05.000Z</time>
      </trkpt>
      <trkpt lat="39.833058351650834" lon="-6.112065268680453">
        <ele>345.6000061035156</ele>
        <time>2015-12-07T14:34:09.000Z</time>
      </trkpt>
      <trkpt lat="39.83303915709257" lon="-6.112118074670434">
        <ele>345.6000061035156</ele>
        <time>2015-12-07T14:34:10.000Z</time>
      </trkpt>
      <trkpt lat="39.83297310769558" lon="-6.112367017194629">
        <ele>344.79998779296875</ele>
        <time>2015-12-07T14:34:15.000Z</time>
      </trkpt>
      <trkpt lat="39.832957265898585" lon="-6.112404819577932">
        <ele>344.3999938964844</ele>
        <time>2015-12-07T14:34:16.000Z</time>
      </trkpt>
      <trkpt lat="39.83284712769091" lon="-6.112542785704136">
        <ele>341.3999938964844</ele>
        <time>2015-12-07T14:34:21.000Z</time>
      </trkpt>
      <trkpt lat="39.832717292010784" lon="-6.112786782905459">
        <ele>338.0</ele>
        <time>2015-12-07T14:34:27.000Z</time>
      </trkpt>
      <trkpt lat="39.832728439942" lon="-6.113022398203611">
        <ele>339.0</ele>
        <time>2015-12-07T14:34:32.000Z</time>
      </trkpt>
      <trkpt lat="39.8328095767647" lon="-6.113259941339493">
        <ele>341.3999938964844</ele>
        <time>2015-12-07T14:34:38.000Z</time>
      </trkpt>
      <trkpt lat="39.832955757156014" lon="-6.113480972126126">
        <ele>344.3999938964844</ele>
        <time>2015-12-07T14:34:45.000Z</time>
      </trkpt>
      <trkpt lat="39.83305466361344" lon="-6.113690435886383">
        <ele>346.3999938964844</ele>
        <time>2015-12-07T14:34:51.000Z</time>
      </trkpt>
      <trkpt lat="39.83313680626452" lon="-6.113904174417257">
        <ele>347.6000061035156</ele>
        <time>2015-12-07T14:34:57.000Z</time>
      </trkpt>
      <trkpt lat="39.833145858719945" lon="-6.114088576287031">
        <ele>348.3999938964844</ele>
        <time>2015-12-07T14:35:02.000Z</time>
      </trkpt>
      <trkpt lat="39.83316966332495" lon="-6.114282198250294">
        <ele>349.6000061035156</ele>
        <time>2015-12-07T14:35:08.000Z</time>
      </trkpt>
      <trkpt lat="39.833248537033796" lon="-6.114386888220906">
        <ele>352.20001220703125</ele>
        <time>2015-12-07T14:35:13.000Z</time>
      </trkpt>
      <trkpt lat="39.83335725031793" lon="-6.114542372524738">
        <ele>356.20001220703125</ele>
        <time>2015-12-07T14:35:20.000Z</time>
      </trkpt>
      <trkpt lat="39.83343101106584" lon="-6.114816879853606">
        <ele>359.6000061035156</ele>
        <time>2015-12-07T14:35:28.000Z</time>
      </trkpt>
      <trkpt lat="39.83337225392461" lon="-6.115016201511025">
        <ele>357.6000061035156</ele>
        <time>2015-12-07T14:35:32.000Z</time>
      </trkpt>
      <trkpt lat="39.833258176222444" lon="-6.115124747157097">
        <ele>354.20001220703125</ele>
        <time>2015-12-07T14:35:36.000Z</time>
      </trkpt>
      <trkpt lat="39.83312607742846" lon="-6.115201525390148">
        <ele>350.3999938964844</ele>
        <time>2015-12-07T14:35:41.000Z</time>
      </trkpt>
      <trkpt lat="39.833104284480214" lon="-6.115371594205499">
        <ele>349.3999938964844</ele>
        <time>2015-12-07T14:35:44.000Z</time>
      </trkpt>
      <trkpt lat="39.8331050388515" lon="-6.115418616682291">
        <ele>349.6000061035156</ele>
        <time>2015-12-07T14:35:45.000Z</time>
      </trkpt>
      <trkpt lat="39.83312331140041" lon="-6.115599079057574">
        <ele>350.6000061035156</ele>
        <time>2015-12-07T14:35:49.000Z</time>
      </trkpt>
      <trkpt lat="39.83323076739907" lon="-6.115805190056562">
        <ele>354.79998779296875</ele>
        <time>2015-12-07T14:35:54.000Z</time>
      </trkpt>
      <trkpt lat="39.83331810683012" lon="-6.115998309105635">
        <ele>358.3999938964844</ele>
        <time>2015-12-07T14:35:59.000Z</time>
      </trkpt>
      <trkpt lat="39.833290530368686" lon="-6.116172904148698">
        <ele>357.79998779296875</ele>
        <time>2015-12-07T14:36:03.000Z</time>
      </trkpt>
      <trkpt lat="39.83322967775166" lon="-6.11649988219142">
        <ele>357.3999938964844</ele>
        <time>2015-12-07T14:36:10.000Z</time>
      </trkpt>
      <trkpt lat="39.833207381889224" lon="-6.116777490824461">
        <ele>360.0</ele>
        <time>2015-12-07T14:36:16.000Z</time>
      </trkpt>
      <trkpt lat="39.8332329466939" lon="-6.116998437792063">
        <ele>363.6000061035156</ele>
        <time>2015-12-07T14:36:21.000Z</time>
      </trkpt>
      <trkpt lat="39.833198580890894" lon="-6.1172594502568245">
        <ele>366.0</ele>
        <time>2015-12-07T14:36:27.000Z</time>
      </trkpt>
      <trkpt lat="39.833097998052835" lon="-6.117346370592713">
        <ele>362.79998779296875</ele>
        <time>2015-12-07T14:36:30.000Z</time>
      </trkpt>
      <trkpt lat="39.833052065223455" lon="-6.117356512695551">
        <ele>361.3999938964844</ele>
        <time>2015-12-07T14:36:31.000Z</time>
      </trkpt>
      <trkpt lat="39.83291544020176" lon="-6.1175106558948755">
        <ele>357.20001220703125</ele>
        <time>2015-12-07T14:36:35.000Z</time>
      </trkpt>
      <trkpt lat="39.83288560062647" lon="-6.1176820658147335">
        <ele>356.3999938964844</ele>
        <time>2015-12-07T14:36:39.000Z</time>
      </trkpt>
      <trkpt lat="39.83287185430527" lon="-6.117765968665481">
        <ele>356.3999938964844</ele>
        <time>2015-12-07T14:36:41.000Z</time>
      </trkpt>
      <trkpt lat="39.83286171220243" lon="-6.118006948381662">
        <ele>356.6000061035156</ele>
        <time>2015-12-07T14:36:46.000Z</time>
      </trkpt>
      <trkpt lat="39.832847379148006" lon="-6.118371477350593">
        <ele>358.3999938964844</ele>
        <time>2015-12-07T14:36:53.000Z</time>
      </trkpt>
      <trkpt lat="39.83283338136971" lon="-6.118645649403334">
        <ele>360.0</ele>
        <time>2015-12-07T14:36:58.000Z</time>
      </trkpt>
      <trkpt lat="39.83285685069859" lon="-6.118752099573612">
        <ele>360.79998779296875</ele>
        <time>2015-12-07T14:37:00.000Z</time>
      </trkpt>
      <trkpt lat="39.83294385485351" lon="-6.119108498096466">
        <ele>366.20001220703125</ele>
        <time>2015-12-07T14:37:06.000Z</time>
      </trkpt>
      <trkpt lat="39.83304150402546" lon="-6.119457604363561">
        <ele>374.3999938964844</ele>
        <time>2015-12-07T14:37:12.000Z</time>
      </trkpt>
      <trkpt lat="39.833045192062855" lon="-6.119515774771571">
        <ele>375.3999938964844</ele>
        <time>2015-12-07T14:37:13.000Z</time>
      </trkpt>
      <trkpt lat="39.8330186214298" lon="-6.119673606008291">
        <ele>376.6000061035156</ele>
        <time>2015-12-07T14:37:16.000Z</time>
      </trkpt>
      <trkpt lat="39.83300839550793" lon="-6.119727669283748">
        <ele>376.6000061035156</ele>
        <time>2015-12-07T14:37:17.000Z</time>
      </trkpt>
      <trkpt lat="39.832994816824794" lon="-6.119867227971554">
        <ele>377.3999938964844</ele>
        <time>2015-12-07T14:37:20.000Z</time>
      </trkpt>
      <trkpt lat="39.83299154788256" lon="-6.119955237954855">
        <ele>378.20001220703125</ele>
        <time>2015-12-07T14:37:22.000Z</time>
      </trkpt>
      <trkpt lat="39.832942094653845" lon="-6.120184063911438">
        <ele>379.6000061035156</ele>
        <time>2015-12-07T14:37:27.000Z</time>
      </trkpt>
      <trkpt lat="39.83282801695168" lon="-6.120262099429965">
        <ele>379.0</ele>
        <time>2015-12-07T14:37:31.000Z</time>
      </trkpt>
      <trkpt lat="39.83272299170494" lon="-6.1202967166900635">
        <ele>377.79998779296875</ele>
        <time>2015-12-07T14:37:35.000Z</time>
      </trkpt>
      <trkpt lat="39.83273891732097" lon="-6.120421774685383">
        <ele>379.20001220703125</ele>
        <time>2015-12-07T14:37:39.000Z</time>
      </trkpt>
      <trkpt lat="39.83279482461512" lon="-6.120640374720097">
        <ele>381.79998779296875</ele>
        <time>2015-12-07T14:37:47.000Z</time>
      </trkpt>
      <trkpt lat="39.83281334862113" lon="-6.1208833660930395">
        <ele>382.3999938964844</ele>
        <time>2015-12-07T14:37:55.000Z</time>
      </trkpt>
      <trkpt lat="39.83280689455569" lon="-6.121043628081679">
        <ele>382.6000061035156</ele>
        <time>2015-12-07T14:38:01.000Z</time>
      </trkpt>
      <trkpt lat="39.83283581212163" lon="-6.121186623349786">
        <ele>383.0</ele>
        <time>2015-12-07T14:38:06.000Z</time>
      </trkpt>
      <trkpt lat="39.832907477393746" lon="-6.121396170929074">
        <ele>384.20001220703125</ele>
        <time>2015-12-07T14:38:14.000Z</time>
      </trkpt>
      <trkpt lat="39.83299766667187" lon="-6.121569005772471">
        <ele>385.79998779296875</ele>
        <time>2015-12-07T14:38:20.000Z</time>
      </trkpt>
      <trkpt lat="39.833052568137646" lon="-6.1218122486025095">
        <ele>386.20001220703125</ele>
        <time>2015-12-07T14:38:25.000Z</time>
      </trkpt>
      <trkpt lat="39.832999762147665" lon="-6.122052641585469">
        <ele>384.6000061035156</ele>
        <time>2015-12-07T14:38:29.000Z</time>
      </trkpt>
      <trkpt lat="39.83288702555001" lon="-6.122371992096305">
        <ele>381.6000061035156</ele>
        <time>2015-12-07T14:38:35.000Z</time>
      </trkpt>
      <trkpt lat="39.83278904110193" lon="-6.122797792777419">
        <ele>379.0</ele>
        <time>2015-12-07T14:38:43.000Z</time>
      </trkpt>
      <trkpt lat="39.83277185820043" lon="-6.122895274311304">
        <ele>378.3999938964844</ele>
        <time>2015-12-07T14:38:45.000Z</time>
      </trkpt>
      <trkpt lat="39.83276288956404" lon="-6.123052854090929">
        <ele>377.6000061035156</ele>
        <time>2015-12-07T14:38:48.000Z</time>
      </trkpt>
      <trkpt lat="39.832789124920964" lon="-6.1234367452561855">
        <ele>378.79998779296875</ele>
        <time>2015-12-07T14:38:55.000Z</time>
      </trkpt>
      <trkpt lat="39.83277814462781" lon="-6.1236602906137705">
        <ele>379.6000061035156</ele>
        <time>2015-12-07T14:38:59.000Z</time>
      </trkpt>
      <trkpt lat="39.83275576494634" lon="-6.123764980584383">
        <ele>379.6000061035156</ele>
        <time>2015-12-07T14:39:01.000Z</time>
      </trkpt>
      <trkpt lat="39.83273858204484" lon="-6.123816110193729">
        <ele>379.6000061035156</ele>
        <time>2015-12-07T14:39:02.000Z</time>
      </trkpt>
      <trkpt lat="39.83269130811095" lon="-6.123955836519599">
        <ele>379.3999938964844</ele>
        <time>2015-12-07T14:39:05.000Z</time>
      </trkpt>
      <trkpt lat="39.83266968280077" lon="-6.124003026634455">
        <ele>379.0</ele>
        <time>2015-12-07T14:39:06.000Z</time>
      </trkpt>
      <trkpt lat="39.832594664767385" lon="-6.1241712514311075">
        <ele>377.79998779296875</ele>
        <time>2015-12-07T14:39:09.000Z</time>
      </trkpt>
      <trkpt lat="39.832526268437505" lon="-6.124286921694875">
        <ele>376.79998779296875</ele>
        <time>2015-12-07T14:39:11.000Z</time>
      </trkpt>
      <trkpt lat="39.832436414435506" lon="-6.124530835077167">
        <ele>375.3999938964844</ele>
        <time>2015-12-07T14:39:14.000Z</time>
      </trkpt>
      <trkpt lat="39.83236139640212" lon="-6.124882875010371">
        <ele>374.79998779296875</ele>
        <time>2015-12-07T14:39:19.000Z</time>
      </trkpt>
      <trkpt lat="39.83234471641481" lon="-6.124946158379316">
        <ele>374.79998779296875</ele>
        <time>2015-12-07T14:39:20.000Z</time>
      </trkpt>
      <trkpt lat="39.83233549632132" lon="-6.125005250796676">
        <ele>374.79998779296875</ele>
        <time>2015-12-07T14:39:21.000Z</time>
      </trkpt>
      <trkpt lat="39.83233356848359" lon="-6.125209769234061">
        <ele>375.6000061035156</ele>
        <time>2015-12-07T14:39:24.000Z</time>
      </trkpt>
      <trkpt lat="39.83230867423117" lon="-6.12534798681736">
        <ele>375.79998779296875</ele>
        <time>2015-12-07T14:39:26.000Z</time>
      </trkpt>
      <trkpt lat="39.83220976777375" lon="-6.125477654859424">
        <ele>374.79998779296875</ele>
        <time>2015-12-07T14:39:28.000Z</time>
      </trkpt>
      <trkpt lat="39.832082111388445" lon="-6.125811422243714">
        <ele>373.3999938964844</ele>
        <time>2015-12-07T14:39:32.000Z</time>
      </trkpt>
      <trkpt lat="39.83204808086157" lon="-6.125891637057066">
        <ele>373.0</ele>
        <time>2015-12-07T14:39:33.000Z</time>
      </trkpt>
      <trkpt lat="39.831934086978436" lon="-6.125967493280768">
        <ele>372.79998779296875</ele>
        <time>2015-12-07T14:39:35.000Z</time>
      </trkpt>
      <trkpt lat="39.831805592402816" lon="-6.125970762223005">
        <ele>372.79998779296875</ele>
        <time>2015-12-07T14:39:37.000Z</time>
      </trkpt>
      <trkpt lat="39.83175513334572" lon="-6.125998171046376">
        <ele>372.6000061035156</ele>
        <time>2015-12-07T14:39:38.000Z</time>
      </trkpt>
      <trkpt lat="39.83166058547795" lon="-6.126131024211645">
        <ele>372.6000061035156</ele>
        <time>2015-12-07T14:39:41.000Z</time>
      </trkpt>
      <trkpt lat="39.83163493685424" lon="-6.126182405278087">
        <ele>372.3999938964844</ele>
        <time>2015-12-07T14:39:42.000Z</time>
      </trkpt>
      <trkpt lat="39.831616999581456" lon="-6.126231607049704">
        <ele>372.3999938964844</ele>
        <time>2015-12-07T14:39:43.000Z</time>
      </trkpt>
      <trkpt lat="39.83160836622119" lon="-6.1263724230229855">
        <ele>372.3999938964844</ele>
        <time>2015-12-07T14:39:45.000Z</time>
      </trkpt>
      <trkpt lat="39.831648683175445" lon="-6.126507455483079">
        <ele>372.79998779296875</ele>
        <time>2015-12-07T14:39:47.000Z</time>
      </trkpt>
      <trkpt lat="39.83167139813304" lon="-6.126582641154528">
        <ele>373.20001220703125</ele>
        <time>2015-12-07T14:39:48.000Z</time>
      </trkpt>
      <trkpt lat="39.831730825826526" lon="-6.126890424638987">
        <ele>374.79998779296875</ele>
        <time>2015-12-07T14:39:53.000Z</time>
      </trkpt>
      <trkpt lat="39.83175789937377" lon="-6.127011543139815">
        <ele>375.3999938964844</ele>
        <time>2015-12-07T14:39:55.000Z</time>
      </trkpt>
      <trkpt lat="39.831805508583784" lon="-6.1272316519171">
        <ele>376.6000061035156</ele>
        <time>2015-12-07T14:39:59.000Z</time>
      </trkpt>
      <trkpt lat="39.83180911280215" lon="-6.127287056297064">
        <ele>376.79998779296875</ele>
        <time>2015-12-07T14:40:00.000Z</time>
      </trkpt>
      <trkpt lat="39.83174817636609" lon="-6.127424938604236">
        <ele>378.0</ele>
        <time>2015-12-07T14:40:03.000Z</time>
      </trkpt>
      <trkpt lat="39.83172127045691" lon="-6.127468356862664">
        <ele>378.20001220703125</ele>
        <time>2015-12-07T14:40:04.000Z</time>
      </trkpt>
      <trkpt lat="39.83160107396543" lon="-6.12762157805264">
        <ele>379.3999938964844</ele>
        <time>2015-12-07T14:40:08.000Z</time>
      </trkpt>
      <trkpt lat="39.831525133922696" lon="-6.127655105665326">
        <ele>379.6000061035156</ele>
        <time>2015-12-07T14:40:10.000Z</time>
      </trkpt>
      <trkpt lat="39.831452211365104" lon="-6.127688465639949">
        <ele>379.79998779296875</ele>
        <time>2015-12-07T14:40:12.000Z</time>
      </trkpt>
      <trkpt lat="39.83137643896043" lon="-6.1277492344379425">
        <ele>380.20001220703125</ele>
        <time>2015-12-07T14:40:14.000Z</time>
      </trkpt>
      <trkpt lat="39.831345761194825" lon="-6.1277951672673225">
        <ele>380.6000061035156</ele>
        <time>2015-12-07T14:40:15.000Z</time>
      </trkpt>
      <trkpt lat="39.83127937652171" lon="-6.127969343215227">
        <ele>382.0</ele>
        <time>2015-12-07T14:40:18.000Z</time>
      </trkpt>
      <trkpt lat="39.831251883879304" lon="-6.128020556643605">
        <ele>382.3999938964844</ele>
        <time>2015-12-07T14:40:19.000Z</time>
      </trkpt>
      <trkpt lat="39.8311311006546" lon="-6.128083169460297">
        <ele>383.20001220703125</ele>
        <time>2015-12-07T14:40:22.000Z</time>
      </trkpt>
      <trkpt lat="39.83097804710269" lon="-6.128155337646604">
        <ele>384.20001220703125</ele>
        <time>2015-12-07T14:40:26.000Z</time>
      </trkpt>
      <trkpt lat="39.83094326220453" lon="-6.1281683295965195">
        <ele>384.3999938964844</ele>
        <time>2015-12-07T14:40:27.000Z</time>
      </trkpt>
      <trkpt lat="39.830847876146436" lon="-6.128225075080991">
        <ele>385.0</ele>
        <time>2015-12-07T14:40:31.000Z</time>
      </trkpt>
      <trkpt lat="39.83078861609101" lon="-6.128339823335409">
        <ele>385.6000061035156</ele>
        <time>2015-12-07T14:40:36.000Z</time>
      </trkpt>
      <trkpt lat="39.830716866999865" lon="-6.128461193293333">
        <ele>386.6000061035156</ele>
        <time>2015-12-07T14:40:41.000Z</time>
      </trkpt>
      <trkpt lat="39.83060999773443" lon="-6.128620197996497">
        <ele>387.6000061035156</ele>
        <time>2015-12-07T14:40:48.000Z</time>
      </trkpt>
      <trkpt lat="39.83054176904261" lon="-6.128784483298659">
        <ele>388.79998779296875</ele>
        <time>2015-12-07T14:40:54.000Z</time>
      </trkpt>
      <trkpt lat="39.83045476488769" lon="-6.1289855651557446">
        <ele>389.6000061035156</ele>
        <time>2015-12-07T14:41:01.000Z</time>
      </trkpt>
      <trkpt lat="39.8303646594286" lon="-6.1292273830622435">
        <ele>389.79998779296875</ele>
        <time>2015-12-07T14:41:09.000Z</time>
      </trkpt>
      <trkpt lat="39.83028193004429" lon="-6.129431733861566">
        <ele>389.3999938964844</ele>
        <time>2015-12-07T14:41:16.000Z</time>
      </trkpt>
      <trkpt lat="39.83018361032009" lon="-6.129646310582757">
        <ele>389.0</ele>
        <time>2015-12-07T14:41:23.000Z</time>
      </trkpt>
      <trkpt lat="39.83008679933846" lon="-6.129959290847182">
        <ele>388.6000061035156</ele>
        <time>2015-12-07T14:41:30.000Z</time>
      </trkpt>
      <trkpt lat="39.82998370192945" lon="-6.130351312458515">
        <ele>388.20001220703125</ele>
        <time>2015-12-07T14:41:37.000Z</time>
      </trkpt>
      <trkpt lat="39.829891584813595" lon="-6.1308409832417965">
        <ele>388.3999938964844</ele>
        <time>2015-12-07T14:41:45.000Z</time>
      </trkpt>
      <trkpt lat="39.82978781685233" lon="-6.13129947334528">
        <ele>388.20001220703125</ele>
        <time>2015-12-07T14:41:52.000Z</time>
      </trkpt>
      <trkpt lat="39.82970072887838" lon="-6.13176760263741">
        <ele>388.20001220703125</ele>
        <time>2015-12-07T14:41:59.000Z</time>
      </trkpt>
      <trkpt lat="39.82966409996152" lon="-6.1322723608464">
        <ele>388.6000061035156</ele>
        <time>2015-12-07T14:42:07.000Z</time>
      </trkpt>
      <trkpt lat="39.82969310134649" lon="-6.132717188447714">
        <ele>389.79998779296875</ele>
        <time>2015-12-07T14:42:14.000Z</time>
      </trkpt>
      <trkpt lat="39.829692179337144" lon="-6.132783489301801">
        <ele>390.0</ele>
        <time>2015-12-07T14:42:15.000Z</time>
      </trkpt>
      <trkpt lat="39.829643396660686" lon="-6.132970238104463">
        <ele>390.20001220703125</ele>
        <time>2015-12-07T14:42:18.000Z</time>
      </trkpt>
      <trkpt lat="39.82962453737855" lon="-6.133099487051368">
        <ele>390.3999938964844</ele>
        <time>2015-12-07T14:42:20.000Z</time>
      </trkpt>
      <trkpt lat="39.829622860997915" lon="-6.133294701576233">
        <ele>391.0</ele>
        <time>2015-12-07T14:42:23.000Z</time>
      </trkpt>
      <trkpt lat="39.82957751490176" lon="-6.133799459785223">
        <ele>392.6000061035156</ele>
        <time>2015-12-07T14:42:30.000Z</time>
      </trkpt>
      <trkpt lat="39.829638451337814" lon="-6.134113362058997">
        <ele>394.0</ele>
        <time>2015-12-07T14:42:35.000Z</time>
      </trkpt>
      <trkpt lat="39.82965571805835" lon="-6.134169856086373">
        <ele>394.3999938964844</ele>
        <time>2015-12-07T14:42:36.000Z</time>
      </trkpt>
      <trkpt lat="39.829701064154506" lon="-6.134419133886695">
        <ele>395.6000061035156</ele>
        <time>2015-12-07T14:42:40.000Z</time>
      </trkpt>
      <trkpt lat="39.82971925288439" lon="-6.13453472033143">
        <ele>396.20001220703125</ele>
        <time>2015-12-07T14:42:42.000Z</time>
      </trkpt>
      <trkpt lat="39.82975261285901" lon="-6.134697832167149">
        <ele>396.6000061035156</ele>
        <time>2015-12-07T14:42:45.000Z</time>
      </trkpt>
      <trkpt lat="39.82982796616852" lon="-6.134873516857624">
        <ele>397.0</ele>
        <time>2015-12-07T14:42:49.000Z</time>
      </trkpt>
      <trkpt lat="39.82993584126234" lon="-6.134902853518724">
        <ele>397.0</ele>
        <time>2015-12-07T14:42:52.000Z</time>
      </trkpt>
      <trkpt lat="39.83001840300858" lon="-6.134896567091346">
        <ele>396.79998779296875</ele>
        <time>2015-12-07T14:42:54.000Z</time>
      </trkpt>
      <trkpt lat="39.830111525952816" lon="-6.134994635358453">
        <ele>397.20001220703125</ele>
        <time>2015-12-07T14:42:57.000Z</time>
      </trkpt>
      <trkpt lat="39.83014597557485" lon="-6.135190352797508">
        <ele>397.79998779296875</ele>
        <time>2015-12-07T14:43:01.000Z</time>
      </trkpt>
      <trkpt lat="39.8302486538887" lon="-6.135727213695645">
        <ele>399.79998779296875</ele>
        <time>2015-12-07T14:43:12.000Z</time>
      </trkpt>
      <trkpt lat="39.830388464033604" lon="-6.135998032987118">
        <ele>400.3999938964844</ele>
        <time>2015-12-07T14:43:19.000Z</time>
      </trkpt>
      <trkpt lat="39.830607399344444" lon="-6.136285113170743">
        <ele>402.0</ele>
        <time>2015-12-07T14:43:27.000Z</time>
      </trkpt>
      <trkpt lat="39.8308271728456" lon="-6.136535564437509">
        <ele>401.79998779296875</ele>
        <time>2015-12-07T14:43:35.000Z</time>
      </trkpt>
      <trkpt lat="39.83088140375912" lon="-6.136668082326651">
        <ele>402.20001220703125</ele>
        <time>2015-12-07T14:43:39.000Z</time>
      </trkpt>
      <trkpt lat="39.830954410135746" lon="-6.136824823915958">
        <ele>402.79998779296875</ele>
        <time>2015-12-07T14:43:44.000Z</time>
      </trkpt>
      <trkpt lat="39.83102724887431" lon="-6.137017020955682">
        <ele>403.79998779296875</ele>
        <time>2015-12-07T14:43:50.000Z</time>
      </trkpt>
      <trkpt lat="39.83110478147864" lon="-6.137181976810098">
        <ele>404.6000061035156</ele>
        <time>2015-12-07T14:43:56.000Z</time>
      </trkpt>
      <trkpt lat="39.831212321296334" lon="-6.13744106143713">
        <ele>406.0</ele>
        <time>2015-12-07T14:44:05.000Z</time>
      </trkpt>
      <trkpt lat="39.831327237188816" lon="-6.137717496603727">
        <ele>408.20001220703125</ele>
        <time>2015-12-07T14:44:14.000Z</time>
      </trkpt>
      <trkpt lat="39.83132053166628" lon="-6.137957973405719">
        <ele>409.6000061035156</ele>
        <time>2015-12-07T14:44:21.000Z</time>
      </trkpt>
      <trkpt lat="39.831244591623545" lon="-6.138176489621401">
        <ele>410.20001220703125</ele>
        <time>2015-12-07T14:44:27.000Z</time>
      </trkpt>
      <trkpt lat="39.83119564130902" lon="-6.138416212052107">
        <ele>410.79998779296875</ele>
        <time>2015-12-07T14:44:33.000Z</time>
      </trkpt>
      <trkpt lat="39.831160102039576" lon="-6.1387384962290525">
        <ele>411.6000061035156</ele>
        <time>2015-12-07T14:44:41.000Z</time>
      </trkpt>
      <trkpt lat="39.83113529160619" lon="-6.139032868668437">
        <ele>412.3999938964844</ele>
        <time>2015-12-07T14:44:48.000Z</time>
      </trkpt>
      <trkpt lat="39.831155743449926" lon="-6.139256414026022">
        <ele>413.20001220703125</ele>
        <time>2015-12-07T14:44:54.000Z</time>
      </trkpt>
      <trkpt lat="39.831194719299674" lon="-6.139424555003643">
        <ele>413.79998779296875</ele>
        <time>2015-12-07T14:44:59.000Z</time>
      </trkpt>
      <trkpt lat="39.83118851669133" lon="-6.139461770653725">
        <ele>413.79998779296875</ele>
        <time>2015-12-07T14:45:00.000Z</time>
      </trkpt>
      <trkpt lat="39.83116261661053" lon="-6.139554055407643">
        <ele>414.20001220703125</ele>
        <time>2015-12-07T14:45:03.000Z</time>
      </trkpt>
      <trkpt lat="39.83111693523824" lon="-6.139677939936519">
        <ele>414.6000061035156</ele>
        <time>2015-12-07T14:45:07.000Z</time>
      </trkpt>
      <trkpt lat="39.83110402710736" lon="-6.139707695692778">
        <ele>414.79998779296875</ele>
        <time>2015-12-07T14:45:08.000Z</time>
      </trkpt>
      <trkpt lat="39.83100134879351" lon="-6.139795538038015">
        <ele>415.0</ele>
        <time>2015-12-07T14:45:13.000Z</time>
      </trkpt>
      <trkpt lat="39.83082641847432" lon="-6.139835184440017">
        <ele>415.0</ele>
        <time>2015-12-07T14:45:19.000Z</time>
      </trkpt>
      <trkpt lat="39.83077570796013" lon="-6.139871813356876">
        <ele>415.0</ele>
        <time>2015-12-07T14:45:21.000Z</time>
      </trkpt>
      <trkpt lat="39.83076045289636" lon="-6.139960326254368">
        <ele>415.0</ele>
        <time>2015-12-07T14:45:23.000Z</time>
      </trkpt>
      <trkpt lat="39.83078006654978" lon="-6.1402458138763905">
        <ele>415.0</ele>
        <time>2015-12-07T14:45:29.000Z</time>
      </trkpt>
      <trkpt lat="39.83085357584059" lon="-6.1404207441955805">
        <ele>415.6000061035156</ele>
        <time>2015-12-07T14:45:33.000Z</time>
      </trkpt>
      <trkpt lat="39.830884924158454" lon="-6.1404952593147755">
        <ele>416.0</ele>
        <time>2015-12-07T14:45:35.000Z</time>
      </trkpt>
      <trkpt lat="39.830999756231904" lon="-6.14081016741693">
        <ele>416.79998779296875</ele>
        <time>2015-12-07T14:45:43.000Z</time>
      </trkpt>
      <trkpt lat="39.8311244789511" lon="-6.141172936186194">
        <ele>417.3999938964844</ele>
        <time>2015-12-07T14:45:52.000Z</time>
      </trkpt>
      <trkpt lat="39.831176195293665" lon="-6.141359433531761">
        <ele>417.79998779296875</ele>
        <time>2015-12-07T14:45:57.000Z</time>
      </trkpt>
      <trkpt lat="39.831255907192826" lon="-6.1415537260472775">
        <ele>418.3999938964844</ele>
        <time>2015-12-07T14:46:02.000Z</time>
      </trkpt>
      <trkpt lat="39.83135623857379" lon="-6.141812140122056">
        <ele>419.3999938964844</ele>
        <time>2015-12-07T14:46:09.000Z</time>
      </trkpt>
      <trkpt lat="39.83145137317479" lon="-6.142043983563781">
        <ele>420.20001220703125</ele>
        <time>2015-12-07T14:46:16.000Z</time>
      </trkpt>
      <trkpt lat="39.83159503899515" lon="-6.142225116491318">
        <ele>420.79998779296875</ele>
        <time>2015-12-07T14:46:22.000Z</time>
      </trkpt>
      <trkpt lat="39.83160803094506" lon="-6.14229267463088">
        <ele>421.0</ele>
        <time>2015-12-07T14:46:24.000Z</time>
      </trkpt>
      <trkpt lat="39.831609120592475" lon="-6.142363836988807">
        <ele>421.3999938964844</ele>
        <time>2015-12-07T14:46:26.000Z</time>
      </trkpt>
      <trkpt lat="39.83164650388062" lon="-6.142541281878948">
        <ele>422.3999938964844</ele>
        <time>2015-12-07T14:46:31.000Z</time>
      </trkpt>
      <trkpt lat="39.83165337704122" lon="-6.142575312405825">
        <ele>422.3999938964844</ele>
        <time>2015-12-07T14:46:32.000Z</time>
      </trkpt>
      <trkpt lat="39.83170081861317" lon="-6.1427464708685875">
        <ele>423.79998779296875</ele>
        <time>2015-12-07T14:46:37.000Z</time>
      </trkpt>
      <trkpt lat="39.83172185719013" lon="-6.142771951854229">
        <ele>424.0</ele>
        <time>2015-12-07T14:46:38.000Z</time>
      </trkpt>
      <trkpt lat="39.83191573061049" lon="-6.142984516918659">
        <ele>426.3999938964844</ele>
        <time>2015-12-07T14:46:46.000Z</time>
      </trkpt>
      <trkpt lat="39.83211513608694" lon="-6.143186436966062">
        <ele>428.20001220703125</ele>
        <time>2015-12-07T14:46:55.000Z</time>
      </trkpt>
      <trkpt lat="39.83223122544587" lon="-6.143308645114303">
        <ele>428.6000061035156</ele>
        <time>2015-12-07T14:47:01.000Z</time>
      </trkpt>
      <trkpt lat="39.83241495676339" lon="-6.143525065854192">
        <ele>429.20001220703125</ele>
        <time>2015-12-07T14:47:11.000Z</time>
      </trkpt>
      <trkpt lat="39.832574632018805" lon="-6.143713826313615">
        <ele>431.20001220703125</ele>
        <time>2015-12-07T14:47:20.000Z</time>
      </trkpt>
      <trkpt lat="39.83271058648825" lon="-6.143901078030467">
        <ele>433.3999938964844</ele>
        <time>2015-12-07T14:47:28.000Z</time>
      </trkpt>
      <trkpt lat="39.83284545131028" lon="-6.144097801297903">
        <ele>435.0</ele>
        <time>2015-12-07T14:47:36.000Z</time>
      </trkpt>
      <trkpt lat="39.83296782709658" lon="-6.1442693788558245">
        <ele>436.6000061035156</ele>
        <time>2015-12-07T14:47:43.000Z</time>
      </trkpt>
      <trkpt lat="39.833129178732634" lon="-6.144471298903227">
        <ele>438.3999938964844</ele>
        <time>2015-12-07T14:47:52.000Z</time>
      </trkpt>
      <trkpt lat="39.83329715207219" lon="-6.144634410738945">
        <ele>440.0</ele>
        <time>2015-12-07T14:48:00.000Z</time>
      </trkpt>
      <trkpt lat="39.833505023270845" lon="-6.14479785785079">
        <ele>441.6000061035156</ele>
        <time>2015-12-07T14:48:09.000Z</time>
      </trkpt>
      <trkpt lat="39.833653047680855" lon="-6.144854184240103">
        <ele>442.3999938964844</ele>
        <time>2015-12-07T14:48:15.000Z</time>
      </trkpt>
      <trkpt lat="39.83385714702308" lon="-6.1449328903108835">
        <ele>444.79998779296875</ele>
        <time>2015-12-07T14:48:24.000Z</time>
      </trkpt>
      <trkpt lat="39.83410608954728" lon="-6.145038167014718">
        <ele>448.3999938964844</ele>
        <time>2015-12-07T14:48:35.000Z</time>
      </trkpt>
      <trkpt lat="39.83425201848149" lon="-6.1450315453112125">
        <ele>450.6000061035156</ele>
        <time>2015-12-07T14:48:42.000Z</time>
      </trkpt>
      <trkpt lat="39.834348326548934" lon="-6.144905649125576">
        <ele>452.3999938964844</ele>
        <time>2015-12-07T14:48:48.000Z</time>
      </trkpt>
      <trkpt lat="39.834458297118545" lon="-6.144726611673832">
        <ele>454.20001220703125</ele>
        <time>2015-12-07T14:48:55.000Z</time>
      </trkpt>
      <trkpt lat="39.834574135020375" lon="-6.14455939270556">
        <ele>455.20001220703125</ele>
        <time>2015-12-07T14:49:02.000Z</time>
      </trkpt>
      <trkpt lat="39.83471260406077" lon="-6.144314305856824">
        <ele>457.20001220703125</ele>
        <time>2015-12-07T14:49:11.000Z</time>
      </trkpt>
      <trkpt lat="39.83478041365743" lon="-6.144078020006418">
        <ele>457.3999938964844</ele>
        <time>2015-12-07T14:49:18.000Z</time>
      </trkpt>
      <trkpt lat="39.83476700261235" lon="-6.1438273172825575">
        <ele>456.6000061035156</ele>
        <time>2015-12-07T14:49:25.000Z</time>
      </trkpt>
      <trkpt lat="39.83468293212354" lon="-6.143575273454189">
        <ele>455.6000061035156</ele>
        <time>2015-12-07T14:49:33.000Z</time>
      </trkpt>
      <trkpt lat="39.834595089778304" lon="-6.143374610692263">
        <ele>454.6000061035156</ele>
        <time>2015-12-07T14:49:40.000Z</time>
      </trkpt>
      <trkpt lat="39.83452895656228" lon="-6.143161961808801">
        <ele>454.3999938964844</ele>
        <time>2015-12-07T14:49:47.000Z</time>
      </trkpt>
      <trkpt lat="39.83448939397931" lon="-6.1428972613066435">
        <ele>455.3999938964844</ele>
        <time>2015-12-07T14:49:55.000Z</time>
      </trkpt>
      <trkpt lat="39.83447648584843" lon="-6.142594171687961">
        <ele>457.6000061035156</ele>
        <time>2015-12-07T14:50:04.000Z</time>
      </trkpt>
      <trkpt lat="39.83447187580168" lon="-6.1423158925026655">
        <ele>459.79998779296875</ele>
        <time>2015-12-07T14:50:12.000Z</time>
      </trkpt>
      <trkpt lat="39.834463158622384" lon="-6.142023280262947">
        <ele>460.20001220703125</ele>
        <time>2015-12-07T14:50:20.000Z</time>
      </trkpt>
      <trkpt lat="39.83443792909384" lon="-6.14164131693542">
        <ele>460.6000061035156</ele>
        <time>2015-12-07T14:50:30.000Z</time>
      </trkpt>
      <trkpt lat="39.834451507776976" lon="-6.1413422506302595">
        <ele>461.3999938964844</ele>
        <time>2015-12-07T14:50:38.000Z</time>
      </trkpt>
      <trkpt lat="39.834480341523886" lon="-6.141103534027934">
        <ele>462.3999938964844</ele>
        <time>2015-12-07T14:50:45.000Z</time>
      </trkpt>
      <trkpt lat="39.83452065847814" lon="-6.140861380845308">
        <ele>463.79998779296875</ele>
        <time>2015-12-07T14:50:52.000Z</time>
      </trkpt>
      <trkpt lat="39.83459743671119" lon="-6.140520069748163">
        <ele>465.79998779296875</ele>
        <time>2015-12-07T14:51:02.000Z</time>
      </trkpt>
      <trkpt lat="39.83467949554324" lon="-6.140294261276722">
        <ele>467.20001220703125</ele>
        <time>2015-12-07T14:51:09.000Z</time>
      </trkpt>
      <trkpt lat="39.83481167815626" lon="-6.139944652095437">
        <ele>469.3999938964844</ele>
        <time>2015-12-07T14:51:19.000Z</time>
      </trkpt>
      <trkpt lat="39.83493464067578" lon="-6.139618428424001">
        <ele>471.6000061035156</ele>
        <time>2015-12-07T14:51:29.000Z</time>
      </trkpt>
      <trkpt lat="39.83505768701434" lon="-6.139298407360911">
        <ele>473.79998779296875</ele>
        <time>2015-12-07T14:51:39.000Z</time>
      </trkpt>
      <trkpt lat="39.83517050743103" lon="-6.1390194576233625">
        <ele>476.20001220703125</ele>
        <time>2015-12-07T14:51:48.000Z</time>
      </trkpt>
      <trkpt lat="39.8352790530771" lon="-6.138746291399002">
        <ele>477.6000061035156</ele>
        <time>2015-12-07T14:51:57.000Z</time>
      </trkpt>
      <trkpt lat="39.835383240133524" lon="-6.138437418267131">
        <ele>478.20001220703125</ele>
        <time>2015-12-07T14:52:07.000Z</time>
      </trkpt>
      <trkpt lat="39.83545683324337" lon="-6.1381380166858435">
        <ele>478.3999938964844</ele>
        <time>2015-12-07T14:52:16.000Z</time>
      </trkpt>
      <trkpt lat="39.835534784942865" lon="-6.137792346999049">
        <ele>479.79998779296875</ele>
        <time>2015-12-07T14:52:26.000Z</time>
      </trkpt>
      <trkpt lat="39.835579711943865" lon="-6.137578608468175">
        <ele>480.6000061035156</ele>
        <time>2015-12-07T14:52:32.000Z</time>
      </trkpt>
      <trkpt lat="39.83564098365605" lon="-6.137259174138308">
        <ele>481.79998779296875</ele>
        <time>2015-12-07T14:52:41.000Z</time>
      </trkpt>
      <trkpt lat="39.83570493757725" lon="-6.136892717331648">
        <ele>483.3999938964844</ele>
        <time>2015-12-07T14:52:51.000Z</time>
      </trkpt>
      <trkpt lat="39.835757575929165" lon="-6.136620137840509">
        <ele>484.79998779296875</ele>
        <time>2015-12-07T14:52:58.000Z</time>
      </trkpt>
      <trkpt lat="39.83584617264569" lon="-6.136155696585774">
        <ele>486.20001220703125</ele>
        <time>2015-12-07T14:53:10.000Z</time>
      </trkpt>
      <trkpt lat="39.835896380245686" lon="-6.135900551453233">
        <ele>487.0</ele>
        <time>2015-12-07T14:53:17.000Z</time>
      </trkpt>
      <trkpt lat="39.8359646089375" lon="-6.135557731613517">
        <ele>488.0</ele>
        <time>2015-12-07T14:53:26.000Z</time>
      </trkpt>
      <trkpt lat="39.836037531495094" lon="-6.13526470027864">
        <ele>488.3999938964844</ele>
        <time>2015-12-07T14:53:34.000Z</time>
      </trkpt>
      <trkpt lat="39.83612495474517" lon="-6.1349814757704735">
        <ele>489.3999938964844</ele>
        <time>2015-12-07T14:53:42.000Z</time>
      </trkpt>
      <trkpt lat="39.83628278598189" lon="-6.134636476635933">
        <ele>492.79998779296875</ele>
        <time>2015-12-07T14:53:52.000Z</time>
      </trkpt>
      <trkpt lat="39.83633827418089" lon="-6.134419720619917">
        <ele>494.0</ele>
        <time>2015-12-07T14:53:58.000Z</time>
      </trkpt>
      <trkpt lat="39.83635981567204" lon="-6.1341615580022335">
        <ele>493.6000061035156</ele>
        <time>2015-12-07T14:54:05.000Z</time>
      </trkpt>
      <trkpt lat="39.8363237734884" lon="-6.133895935490727">
        <ele>491.3999938964844</ele>
        <time>2015-12-07T14:54:12.000Z</time>
      </trkpt>
      <trkpt lat="39.83624808490276" lon="-6.133638778701425">
        <ele>490.3999938964844</ele>
        <time>2015-12-07T14:54:19.000Z</time>
      </trkpt>
      <trkpt lat="39.8362080194056" lon="-6.133323032408953">
        <ele>491.79998779296875</ele>
        <time>2015-12-07T14:54:27.000Z</time>
      </trkpt>
      <trkpt lat="39.83624204993248" lon="-6.132958084344864">
        <ele>494.79998779296875</ele>
        <time>2015-12-07T14:54:36.000Z</time>
      </trkpt>
      <trkpt lat="39.83628714457154" lon="-6.13265298306942">
        <ele>496.3999938964844</ele>
        <time>2015-12-07T14:54:44.000Z</time>
      </trkpt>
      <trkpt lat="39.83634129166603" lon="-6.132305301725864">
        <ele>498.3999938964844</ele>
        <time>2015-12-07T14:54:53.000Z</time>
      </trkpt>
      <trkpt lat="39.83641899190843" lon="-6.131804650649428">
        <ele>500.3999938964844</ele>
        <time>2015-12-07T14:55:06.000Z</time>
      </trkpt>
      <trkpt lat="39.83647674322128" lon="-6.131389830261469">
        <ele>501.6000061035156</ele>
        <time>2015-12-07T14:55:17.000Z</time>
      </trkpt>
      <trkpt lat="39.83653072267771" lon="-6.1310553923249245">
        <ele>502.3999938964844</ele>
        <time>2015-12-07T14:55:26.000Z</time>
      </trkpt>
      <trkpt lat="39.836593670770526" lon="-6.130709387362003">
        <ele>503.6000061035156</ele>
        <time>2015-12-07T14:55:35.000Z</time>
      </trkpt>
      <trkpt lat="39.836656702682376" lon="-6.1303140968084335">
        <ele>504.6000061035156</ele>
        <time>2015-12-07T14:55:45.000Z</time>
      </trkpt>
      <trkpt lat="39.83672669157386" lon="-6.129930792376399">
        <ele>505.3999938964844</ele>
        <time>2015-12-07T14:55:55.000Z</time>
      </trkpt>
      <trkpt lat="39.83682098798454" lon="-6.129516307264566">
        <ele>506.6000061035156</ele>
        <time>2015-12-07T14:56:06.000Z</time>
      </trkpt>
      <trkpt lat="39.83690061606467" lon="-6.129182372242212">
        <ele>508.0</ele>
        <time>2015-12-07T14:56:15.000Z</time>
      </trkpt>
      <trkpt lat="39.83696029521525" lon="-6.128854556009173">
        <ele>509.20001220703125</ele>
        <time>2015-12-07T14:56:24.000Z</time>
      </trkpt>
      <trkpt lat="39.83698921278119" lon="-6.128523973748088">
        <ele>511.20001220703125</ele>
        <time>2015-12-07T14:56:33.000Z</time>
      </trkpt>
      <trkpt lat="39.83696708455682" lon="-6.1281695030629635">
        <ele>511.0</ele>
        <time>2015-12-07T14:56:42.000Z</time>
      </trkpt>
      <trkpt lat="39.83693431131542" lon="-6.127929612994194">
        <ele>510.6000061035156</ele>
        <time>2015-12-07T14:56:48.000Z</time>
      </trkpt>
      <trkpt lat="39.83691142871976" lon="-6.127647310495377">
        <ele>511.6000061035156</ele>
        <time>2015-12-07T14:56:55.000Z</time>
      </trkpt>
      <trkpt lat="39.836909836158156" lon="-6.127366852015257">
        <ele>513.5999755859375</ele>
        <time>2015-12-07T14:57:02.000Z</time>
      </trkpt>
      <trkpt lat="39.83694118447602" lon="-6.127057308331132">
        <ele>515.4000244140625</ele>
        <time>2015-12-07T14:57:10.000Z</time>
      </trkpt>
      <trkpt lat="39.83700027689338" lon="-6.1266981437802315">
        <ele>517.2000122070312</ele>
        <time>2015-12-07T14:57:20.000Z</time>
      </trkpt>
      <trkpt lat="39.83704470098019" lon="-6.126495972275734">
        <ele>518.5999755859375</ele>
        <time>2015-12-07T14:57:26.000Z</time>
      </trkpt>
      <trkpt lat="39.83709373511374" lon="-6.126212244853377">
        <ele>519.7999877929688</ele>
        <time>2015-12-07T14:57:34.000Z</time>
      </trkpt>
      <trkpt lat="39.837138913571835" lon="-6.125985933467746">
        <ele>521.2000122070312</ele>
        <time>2015-12-07T14:57:41.000Z</time>
      </trkpt>
      <trkpt lat="39.837177051231265" lon="-6.125784432515502">
        <ele>522.2000122070312</ele>
        <time>2015-12-07T14:57:47.000Z</time>
      </trkpt>
      <trkpt lat="39.83719834126532" lon="-6.125529622659087">
        <ele>522.2000122070312</ele>
        <time>2015-12-07T14:57:54.000Z</time>
      </trkpt>
      <trkpt lat="39.837209321558475" lon="-6.125314123928547">
        <ele>522.5999755859375</ele>
        <time>2015-12-07T14:58:00.000Z</time>
      </trkpt>
      <trkpt lat="39.837212171405554" lon="-6.125059649348259">
        <ele>522.4000244140625</ele>
        <time>2015-12-07T14:58:07.000Z</time>
      </trkpt>
      <trkpt lat="39.83721778728068" lon="-6.124767875298858">
        <ele>522.4000244140625</ele>
        <time>2015-12-07T14:58:15.000Z</time>
      </trkpt>
      <trkpt lat="39.83722013421357" lon="-6.124509377405047">
        <ele>522.4000244140625</ele>
        <time>2015-12-07T14:58:22.000Z</time>
      </trkpt>
      <trkpt lat="39.837263971567154" lon="-6.124138478189707">
        <ele>525.7999877929688</ele>
        <time>2015-12-07T14:58:32.000Z</time>
      </trkpt>
      <trkpt lat="39.837317783385515" lon="-6.123828180134296">
        <ele>528.2000122070312</ele>
        <time>2015-12-07T14:58:41.000Z</time>
      </trkpt>
      <trkpt lat="39.837344102561474" lon="-6.1236161179840565">
        <ele>528.4000244140625</ele>
        <time>2015-12-07T14:58:47.000Z</time>
      </trkpt>
      <trkpt lat="39.83739137649536" lon="-6.123300204053521">
        <ele>530.5999755859375</ele>
        <time>2015-12-07T14:58:56.000Z</time>
      </trkpt>
      <trkpt lat="39.83742884360254" lon="-6.123056123033166">
        <ele>532.2000122070312</ele>
        <time>2015-12-07T14:59:03.000Z</time>
      </trkpt>
      <trkpt lat="39.83748625963926" lon="-6.122754542157054">
        <ele>534.0</ele>
        <time>2015-12-07T14:59:12.000Z</time>
      </trkpt>
      <trkpt lat="39.83758768066764" lon="-6.1224952060729265">
        <ele>537.5999755859375</ele>
        <time>2015-12-07T14:59:21.000Z</time>
      </trkpt>
      <trkpt lat="39.83773075975478" lon="-6.122340727597475">
        <ele>543.0</ele>
        <time>2015-12-07T14:59:28.000Z</time>
      </trkpt>
      <trkpt lat="39.83786855824292" lon="-6.122258082032204">
        <ele>548.2000122070312</ele>
        <time>2015-12-07T14:59:34.000Z</time>
      </trkpt>
      <trkpt lat="39.83809788711369" lon="-6.122220028191805">
        <ele>550.4000244140625</ele>
        <time>2015-12-07T14:59:42.000Z</time>
      </trkpt>
      <trkpt lat="39.83828094787896" lon="-6.122310217469931">
        <ele>551.7999877929688</ele>
        <time>2015-12-07T14:59:47.000Z</time>
      </trkpt>
      <trkpt lat="39.8384324926883" lon="-6.122489422559738">
        <ele>553.2000122070312</ele>
        <time>2015-12-07T14:59:51.000Z</time>
      </trkpt>
      <trkpt lat="39.83867992646992" lon="-6.122924527153373">
        <ele>557.5999755859375</ele>
        <time>2015-12-07T14:59:57.000Z</time>
      </trkpt>
      <trkpt lat="39.83896373771131" lon="-6.123430794104934">
        <ele>556.7999877929688</ele>
        <time>2015-12-07T15:00:03.000Z</time>
      </trkpt>
      <trkpt lat="39.839278645813465" lon="-6.123964972794056">
        <ele>555.7999877929688</ele>
        <time>2015-12-07T15:00:09.000Z</time>
      </trkpt>
      <trkpt lat="39.83960721641779" lon="-6.124641224741936">
        <ele>553.2000122070312</ele>
        <time>2015-12-07T15:00:16.000Z</time>
      </trkpt>
      <trkpt lat="39.839695394039154" lon="-6.124857142567635">
        <ele>552.5999755859375</ele>
        <time>2015-12-07T15:00:18.000Z</time>
      </trkpt>
      <trkpt lat="39.839913826435804" lon="-6.12538754940033">
        <ele>550.2000122070312</ele>
        <time>2015-12-07T15:00:23.000Z</time>
      </trkpt>
      <trkpt lat="39.83995364047587" lon="-6.125512020662427">
        <ele>549.5999755859375</ele>
        <time>2015-12-07T15:00:24.000Z</time>
      </trkpt>
      <trkpt lat="39.84011163935065" lon="-6.126163545995951">
        <ele>547.0</ele>
        <time>2015-12-07T15:00:29.000Z</time>
      </trkpt>
      <trkpt lat="39.84021205455065" lon="-6.126853544265032">
        <ele>543.0</ele>
        <time>2015-12-07T15:00:34.000Z</time>
      </trkpt>
      <trkpt lat="39.84022286720574" lon="-6.1269832123070955">
        <ele>542.0</ele>
        <time>2015-12-07T15:00:35.000Z</time>
      </trkpt>
      <trkpt lat="39.84028774313629" lon="-6.127782594412565">
        <ele>538.4000244140625</ele>
        <time>2015-12-07T15:00:41.000Z</time>
      </trkpt>
      <trkpt lat="39.84039109200239" lon="-6.128606703132391">
        <ele>536.7999877929688</ele>
        <time>2015-12-07T15:00:47.000Z</time>
      </trkpt>
      <trkpt lat="39.84041154384613" lon="-6.128755901008844">
        <ele>536.5999755859375</ele>
        <time>2015-12-07T15:00:48.000Z</time>
      </trkpt>
      <trkpt lat="39.8405721411109" lon="-6.129605323076248">
        <ele>533.5999755859375</ele>
        <time>2015-12-07T15:00:54.000Z</time>
      </trkpt>
      <trkpt lat="39.84061027877033" lon="-6.129740858450532">
        <ele>533.2000122070312</ele>
        <time>2015-12-07T15:00:55.000Z</time>
      </trkpt>
      <trkpt lat="39.840869111940265" lon="-6.1303915455937386">
        <ele>528.7999877929688</ele>
        <time>2015-12-07T15:01:00.000Z</time>
      </trkpt>
      <trkpt lat="39.84116172417998" lon="-6.130994874984026">
        <ele>521.4000244140625</ele>
        <time>2015-12-07T15:01:05.000Z</time>
      </trkpt>
      <trkpt lat="39.841204807162285" lon="-6.131117669865489">
        <ele>520.0</ele>
        <time>2015-12-07T15:01:06.000Z</time>
      </trkpt>
      <trkpt lat="39.84124646522105" lon="-6.1312624253332615">
        <ele>519.0</ele>
        <time>2015-12-07T15:01:07.000Z</time>
      </trkpt>
      <trkpt lat="39.84138200059533" lon="-6.1319483164697886">
        <ele>516.4000244140625</ele>
        <time>2015-12-07T15:01:12.000Z</time>
      </trkpt>
      <trkpt lat="39.841553242877126" lon="-6.132677625864744">
        <ele>509.6000061035156</ele>
        <time>2015-12-07T15:01:17.000Z</time>
      </trkpt>
      <trkpt lat="39.84176564030349" lon="-6.133397631347179">
        <ele>506.20001220703125</ele>
        <time>2015-12-07T15:01:22.000Z</time>
      </trkpt>
      <trkpt lat="39.84189111739397" lon="-6.133662834763527">
        <ele>503.6000061035156</ele>
        <time>2015-12-07T15:01:24.000Z</time>
      </trkpt>
      <trkpt lat="39.84219454228878" lon="-6.134123168885708">
        <ele>497.0</ele>
        <time>2015-12-07T15:01:28.000Z</time>
      </trkpt>
      <trkpt lat="39.842537781223655" lon="-6.134779471904039">
        <ele>489.0</ele>
        <time>2015-12-07T15:01:33.000Z</time>
      </trkpt>
      <trkpt lat="39.8428410384804" lon="-6.135524120181799">
        <ele>479.3999938964844</ele>
        <time>2015-12-07T15:01:38.000Z</time>
      </trkpt>
      <trkpt lat="39.84290172345936" lon="-6.135681113228202">
        <ele>478.0</ele>
        <time>2015-12-07T15:01:39.000Z</time>
      </trkpt>
      <trkpt lat="39.84315326437354" lon="-6.1363123543560505">
        <ele>475.0</ele>
        <time>2015-12-07T15:01:43.000Z</time>
      </trkpt>
      <trkpt lat="39.84330606646836" lon="-6.136781238019466">
        <ele>472.6000061035156</ele>
        <time>2015-12-07T15:01:46.000Z</time>
      </trkpt>
      <trkpt lat="39.84340539202094" lon="-6.137428572401404">
        <ele>471.20001220703125</ele>
        <time>2015-12-07T15:01:50.000Z</time>
      </trkpt>
      <trkpt lat="39.8435265943408" lon="-6.138171963393688">
        <ele>470.20001220703125</ele>
        <time>2015-12-07T15:01:55.000Z</time>
      </trkpt>
      <trkpt lat="39.84354319050908" lon="-6.1383067443966866">
        <ele>470.0</ele>
        <time>2015-12-07T15:01:56.000Z</time>
      </trkpt>
      <trkpt lat="39.84355475753546" lon="-6.13900076597929">
        <ele>469.6000061035156</ele>
        <time>2015-12-07T15:02:01.000Z</time>
      </trkpt>
      <trkpt lat="39.84361896291375" lon="-6.139703253284097">
        <ele>469.79998779296875</ele>
        <time>2015-12-07T15:02:06.000Z</time>
      </trkpt>
      <trkpt lat="39.84380554407835" lon="-6.140218153595924">
        <ele>468.3999938964844</ele>
        <time>2015-12-07T15:02:10.000Z</time>
      </trkpt>
      <trkpt lat="39.8439187835902" lon="-6.140442034229636">
        <ele>467.3999938964844</ele>
        <time>2015-12-07T15:02:12.000Z</time>
      </trkpt>
      <trkpt lat="39.844074519351125" lon="-6.140554016456008">
        <ele>465.3999938964844</ele>
        <time>2015-12-07T15:02:14.000Z</time>
      </trkpt>
      <trkpt lat="39.844332514330745" lon="-6.140511184930801">
        <ele>461.20001220703125</ele>
        <time>2015-12-07T15:02:17.000Z</time>
      </trkpt>
      <trkpt lat="39.84443829394877" lon="-6.140353353694081">
        <ele>459.0</ele>
        <time>2015-12-07T15:02:19.000Z</time>
      </trkpt>
      <trkpt lat="39.84443913213909" lon="-6.140112625434995">
        <ele>458.0</ele>
        <time>2015-12-07T15:02:22.000Z</time>
      </trkpt>
      <trkpt lat="39.84441046603024" lon="-6.139814481139183">
        <ele>457.3999938964844</ele>
        <time>2015-12-07T15:02:26.000Z</time>
      </trkpt>
      <trkpt lat="39.844409208744764" lon="-6.139742899686098">
        <ele>457.20001220703125</ele>
        <time>2015-12-07T15:02:27.000Z</time>
      </trkpt>
      <trkpt lat="39.844432678073645" lon="-6.1390165239572525">
        <ele>455.20001220703125</ele>
        <time>2015-12-07T15:02:37.000Z</time>
      </trkpt>
      <trkpt lat="39.8444954585284" lon="-6.138299033045769">
        <ele>453.20001220703125</ele>
        <time>2015-12-07T15:02:46.000Z</time>
      </trkpt>
      <trkpt lat="39.844517251476645" lon="-6.13775035366416">
        <ele>452.6000061035156</ele>
        <time>2015-12-07T15:02:53.000Z</time>
      </trkpt>
      <trkpt lat="39.84448422677815" lon="-6.137298988178372">
        <ele>453.20001220703125</ele>
        <time>2015-12-07T15:02:59.000Z</time>
      </trkpt>
      <trkpt lat="39.84447726979852" lon="-6.137006627395749">
        <ele>453.20001220703125</ele>
        <time>2015-12-07T15:03:03.000Z</time>
      </trkpt>
      <trkpt lat="39.84448129311204" lon="-6.136931777000427">
        <ele>453.20001220703125</ele>
        <time>2015-12-07T15:03:04.000Z</time>
      </trkpt>
      <trkpt lat="39.84449654817581" lon="-6.136245550587773">
        <ele>452.3999938964844</ele>
        <time>2015-12-07T15:03:13.000Z</time>
      </trkpt>
      <trkpt lat="39.84454834833741" lon="-6.135494699701667">
        <ele>448.6000061035156</ele>
        <time>2015-12-07T15:03:23.000Z</time>
      </trkpt>
      <trkpt lat="39.844560669735074" lon="-6.13541473634541">
        <ele>448.20001220703125</ele>
        <time>2015-12-07T15:03:24.000Z</time>
      </trkpt>
      <trkpt lat="39.84464365057647" lon="-6.134883239865303">
        <ele>447.20001220703125</ele>
        <time>2015-12-07T15:03:32.000Z</time>
      </trkpt>
      <trkpt lat="39.84471766278148" lon="-6.1344534158706665">
        <ele>448.79998779296875</ele>
        <time>2015-12-07T15:03:40.000Z</time>
      </trkpt>
      <trkpt lat="39.844828555360436" lon="-6.133924098685384">
        <ele>452.79998779296875</ele>
        <time>2015-12-07T15:03:50.000Z</time>
      </trkpt>
      <trkpt lat="39.844896951690316" lon="-6.133435098454356">
        <ele>453.0</ele>
        <time>2015-12-07T15:03:59.000Z</time>
      </trkpt>
      <trkpt lat="39.844936514273286" lon="-6.132950792089105">
        <ele>453.79998779296875</ele>
        <time>2015-12-07T15:04:08.000Z</time>
      </trkpt>
      <trkpt lat="39.84496224671602" lon="-6.132539575919509">
        <ele>452.79998779296875</ele>
        <time>2015-12-07T15:04:16.000Z</time>
      </trkpt>
      <trkpt lat="39.8449894040823" lon="-6.132165994495153">
        <ele>450.79998779296875</ele>
        <time>2015-12-07T15:04:24.000Z</time>
      </trkpt>
      <trkpt lat="39.84503743238747" lon="-6.131796771660447">
        <ele>452.0</ele>
        <time>2015-12-07T15:04:33.000Z</time>
      </trkpt>
      <trkpt lat="39.84511303715408" lon="-6.131407851353288">
        <ele>453.3999938964844</ele>
        <time>2015-12-07T15:04:43.000Z</time>
      </trkpt>
      <trkpt lat="39.845176823437214" lon="-6.131134936586022">
        <ele>455.20001220703125</ele>
        <time>2015-12-07T15:04:51.000Z</time>
      </trkpt>
      <trkpt lat="39.84523683786392" lon="-6.130894795060158">
        <ele>457.0</ele>
        <time>2015-12-07T15:04:58.000Z</time>
      </trkpt>
      <trkpt lat="39.845278579741716" lon="-6.1306456848979">
        <ele>458.20001220703125</ele>
        <time>2015-12-07T15:05:05.000Z</time>
      </trkpt>
      <trkpt lat="39.84533683396876" lon="-6.130370004102588">
        <ele>460.6000061035156</ele>
        <time>2015-12-07T15:05:13.000Z</time>
      </trkpt>
      <trkpt lat="39.845387460663915" lon="-6.130136149004102">
        <ele>462.6000061035156</ele>
        <time>2015-12-07T15:05:20.000Z</time>
      </trkpt>
      <trkpt lat="39.84544890001416" lon="-6.129813361912966">
        <ele>465.6000061035156</ele>
        <time>2015-12-07T15:05:29.000Z</time>
      </trkpt>
      <trkpt lat="39.84551486559212" lon="-6.129475822672248">
        <ele>467.6000061035156</ele>
        <time>2015-12-07T15:05:38.000Z</time>
      </trkpt>
      <trkpt lat="39.84555627219379" lon="-6.129217743873596">
        <ele>468.79998779296875</ele>
        <time>2015-12-07T15:05:45.000Z</time>
      </trkpt>
      <trkpt lat="39.845612682402134" lon="-6.128878276795149">
        <ele>470.3999938964844</ele>
        <time>2015-12-07T15:05:54.000Z</time>
      </trkpt>
      <trkpt lat="39.84566314145923" lon="-6.128572169691324">
        <ele>471.79998779296875</ele>
        <time>2015-12-07T15:06:02.000Z</time>
      </trkpt>
      <trkpt lat="39.84572298824787" lon="-6.128220967948437">
        <ele>473.6000061035156</ele>
        <time>2015-12-07T15:06:11.000Z</time>
      </trkpt>
      <trkpt lat="39.84578509815037" lon="-6.127853756770492">
        <ele>474.79998779296875</ele>
        <time>2015-12-07T15:06:20.000Z</time>
      </trkpt>
      <trkpt lat="39.84583681449294" lon="-6.127520157024264">
        <ele>476.0</ele>
        <time>2015-12-07T15:06:28.000Z</time>
      </trkpt>
      <trkpt lat="39.84589263796806" lon="-6.127185635268688">
        <ele>477.20001220703125</ele>
        <time>2015-12-07T15:06:36.000Z</time>
      </trkpt>
      <trkpt lat="39.845962543040514" lon="-6.126764276996255">
        <ele>477.0</ele>
        <time>2015-12-07T15:06:45.000Z</time>
      </trkpt>
      <trkpt lat="39.84603060409427" lon="-6.126346103847027">
        <ele>477.20001220703125</ele>
        <time>2015-12-07T15:06:54.000Z</time>
      </trkpt>
      <trkpt lat="39.846081817522645" lon="-6.126022394746542">
        <ele>477.20001220703125</ele>
        <time>2015-12-07T15:07:01.000Z</time>
      </trkpt>
      <trkpt lat="39.84615474008024" lon="-6.125588631257415">
        <ele>477.20001220703125</ele>
        <time>2015-12-07T15:07:10.000Z</time>
      </trkpt>
      <trkpt lat="39.84626127406955" lon="-6.125127542763948">
        <ele>476.79998779296875</ele>
        <time>2015-12-07T15:07:19.000Z</time>
      </trkpt>
      <trkpt lat="39.846425391733646" lon="-6.124671315774322">
        <ele>477.3999938964844</ele>
        <time>2015-12-07T15:07:29.000Z</time>
      </trkpt>
      <trkpt lat="39.846578696742654" lon="-6.124526476487517">
        <ele>479.6000061035156</ele>
        <time>2015-12-07T15:07:34.000Z</time>
      </trkpt>
      <trkpt lat="39.84663946554065" lon="-6.12449093721807">
        <ele>480.6000061035156</ele>
        <time>2015-12-07T15:07:36.000Z</time>
      </trkpt>
      <trkpt lat="39.846659330651164" lon="-6.124448189511895">
        <ele>480.79998779296875</ele>
        <time>2015-12-07T15:07:37.000Z</time>
      </trkpt>
      <trkpt lat="39.84667534008622" lon="-6.12428667023778">
        <ele>480.3999938964844</ele>
        <time>2015-12-07T15:07:40.000Z</time>
      </trkpt>
      <trkpt lat="39.84668062068522" lon="-6.124241324141622">
        <ele>480.3999938964844</ele>
        <time>2015-12-07T15:07:41.000Z</time>
      </trkpt>
      <trkpt lat="39.846700485795736" lon="-6.124174436554313">
        <ele>480.6000061035156</ele>
        <time>2015-12-07T15:07:44.000Z</time>
      </trkpt>
      <trkpt lat="39.84669621102512" lon="-6.124184997752309">
        <ele>480.6000061035156</ele>
        <time>2015-12-07T15:07:45.000Z</time>
      </trkpt>
      <trkpt lat="39.846727307885885" lon="-6.1240307707339525">
        <ele>480.6000061035156</ele>
        <time>2015-12-07T15:09:57.000Z</time>
      </trkpt>
      <trkpt lat="39.8467352706939" lon="-6.123966732993722">
        <ele>480.6000061035156</ele>
        <time>2015-12-07T15:09:59.000Z</time>
      </trkpt>
      <trkpt lat="39.84678765758872" lon="-6.1237990111112595">
        <ele>481.6000061035156</ele>
        <time>2015-12-07T15:10:04.000Z</time>
      </trkpt>
      <trkpt lat="39.8468700516969" lon="-6.123569263145328">
        <ele>483.20001220703125</ele>
        <time>2015-12-07T15:10:10.000Z</time>
      </trkpt>
      <trkpt lat="39.84692788682878" lon="-6.1233042273670435">
        <ele>484.6000061035156</ele>
        <time>2015-12-07T15:10:16.000Z</time>
      </trkpt>
      <trkpt lat="39.84697616659105" lon="-6.123123597353697">
        <ele>485.6000061035156</ele>
        <time>2015-12-07T15:10:20.000Z</time>
      </trkpt>
      <trkpt lat="39.84711212106049" lon="-6.122744735330343">
        <ele>487.0</ele>
        <time>2015-12-07T15:10:28.000Z</time>
      </trkpt>
      <trkpt lat="39.84717280603945" lon="-6.122560417279601">
        <ele>486.3999938964844</ele>
        <time>2015-12-07T15:10:31.000Z</time>
      </trkpt>
      <trkpt lat="39.847198873758316" lon="-6.122415494173765">
        <ele>486.20001220703125</ele>
        <time>2015-12-07T15:10:33.000Z</time>
      </trkpt>
      <trkpt lat="39.847234915941954" lon="-6.122269984334707">
        <ele>486.0</ele>
        <time>2015-12-07T15:10:35.000Z</time>
      </trkpt>
      <trkpt lat="39.84727808274329" lon="-6.122025987133384">
        <ele>486.3999938964844</ele>
        <time>2015-12-07T15:10:38.000Z</time>
      </trkpt>
      <trkpt lat="39.84732275828719" lon="-6.121608903631568">
        <ele>487.79998779296875</ele>
        <time>2015-12-07T15:10:43.000Z</time>
      </trkpt>
      <trkpt lat="39.84736315906048" lon="-6.121326349675655">
        <ele>487.79998779296875</ele>
        <time>2015-12-07T15:10:47.000Z</time>
      </trkpt>
      <trkpt lat="39.847393333911896" lon="-6.1211728770285845">
        <ele>487.0</ele>
        <time>2015-12-07T15:10:49.000Z</time>
      </trkpt>
      <trkpt lat="39.847425101324916" lon="-6.120937429368496">
        <ele>486.79998779296875</ele>
        <time>2015-12-07T15:10:52.000Z</time>
      </trkpt>
      <trkpt lat="39.847438260912895" lon="-6.120772389695048">
        <ele>486.79998779296875</ele>
        <time>2015-12-07T15:10:54.000Z</time>
      </trkpt>
      <trkpt lat="39.84745376743376" lon="-6.12064984627068">
        <ele>486.79998779296875</ele>
        <time>2015-12-07T15:10:56.000Z</time>
      </trkpt>
      <trkpt lat="39.847479751333594" lon="-6.120507521554828">
        <ele>486.6000061035156</ele>
        <time>2015-12-07T15:10:58.000Z</time>
      </trkpt>
      <trkpt lat="39.84752534888685" lon="-6.120352121070027">
        <ele>486.0</ele>
        <time>2015-12-07T15:11:00.000Z</time>
      </trkpt>
      <trkpt lat="39.84761444851756" lon="-6.120076356455684">
        <ele>485.0</ele>
        <time>2015-12-07T15:11:03.000Z</time>
      </trkpt>
      <trkpt lat="39.84778979793191" lon="-6.119577717036009">
        <ele>482.79998779296875</ele>
        <time>2015-12-07T15:11:08.000Z</time>
      </trkpt>
      <trkpt lat="39.847853584215045" lon="-6.119093745946884">
        <ele>484.0</ele>
        <time>2015-12-07T15:11:12.000Z</time>
      </trkpt>
      <trkpt lat="39.84787076711655" lon="-6.118974387645721">
        <ele>484.20001220703125</ele>
        <time>2015-12-07T15:11:13.000Z</time>
      </trkpt>
      <trkpt lat="39.847919130697846" lon="-6.118766684085131">
        <ele>483.20001220703125</ele>
        <time>2015-12-07T15:11:15.000Z</time>
      </trkpt>
      <trkpt lat="39.847957184538245" lon="-6.118667526170611">
        <ele>482.20001220703125</ele>
        <time>2015-12-07T15:11:16.000Z</time>
      </trkpt>
      <trkpt lat="39.848088109865785" lon="-6.118324119597673">
        <ele>478.3999938964844</ele>
        <time>2015-12-07T15:11:19.000Z</time>
      </trkpt>
      <trkpt lat="39.84811962582171" lon="-6.118193361908197">
        <ele>477.3999938964844</ele>
        <time>2015-12-07T15:11:20.000Z</time>
      </trkpt>
      <trkpt lat="39.84831752255559" lon="-6.117579806596041">
        <ele>472.3999938964844</ele>
        <time>2015-12-07T15:11:25.000Z</time>
      </trkpt>
      <trkpt lat="39.8483497928828" lon="-6.117448043078184">
        <ele>471.6000061035156</ele>
        <time>2015-12-07T15:11:26.000Z</time>
      </trkpt>
      <trkpt lat="39.84850217588246" lon="-6.116936495527625">
        <ele>467.3999938964844</ele>
        <time>2015-12-07T15:11:30.000Z</time>
      </trkpt>
      <trkpt lat="39.84871834516525" lon="-6.1162681225687265">
        <ele>462.0</ele>
        <time>2015-12-07T15:11:35.000Z</time>
      </trkpt>
      <trkpt lat="39.848763355985284" lon="-6.1161373648792505">
        <ele>461.20001220703125</ele>
        <time>2015-12-07T15:11:36.000Z</time>
      </trkpt>
      <trkpt lat="39.849065355956554" lon="-6.115480894222856">
        <ele>454.6000061035156</ele>
        <time>2015-12-07T15:11:41.000Z</time>
      </trkpt>
      <trkpt lat="39.849256966263056" lon="-6.114924419671297">
        <ele>451.3999938964844</ele>
        <time>2015-12-07T15:11:45.000Z</time>
      </trkpt>
      <trkpt lat="39.849285716190934" lon="-6.114787710830569">
        <ele>451.3999938964844</ele>
        <time>2015-12-07T15:11:46.000Z</time>
      </trkpt>
      <trkpt lat="39.84943809919059" lon="-6.114235511049628">
        <ele>447.3999938964844</ele>
        <time>2015-12-07T15:11:50.000Z</time>
      </trkpt>
      <trkpt lat="39.84966332092881" lon="-6.1136305052787066">
        <ele>442.20001220703125</ele>
        <time>2015-12-07T15:11:55.000Z</time>
      </trkpt>
      <trkpt lat="39.849878987297416" lon="-6.113258181139827">
        <ele>437.20001220703125</ele>
        <time>2015-12-07T15:11:59.000Z</time>
      </trkpt>
      <trkpt lat="39.85003447160125" lon="-6.113005969673395">
        <ele>433.20001220703125</ele>
        <time>2015-12-07T15:12:02.000Z</time>
      </trkpt>
      <trkpt lat="39.850071435794234" lon="-6.112904129549861">
        <ele>432.20001220703125</ele>
        <time>2015-12-07T15:12:03.000Z</time>
      </trkpt>
      <trkpt lat="39.85025382600725" lon="-6.11240909434855">
        <ele>427.20001220703125</ele>
        <time>2015-12-07T15:12:08.000Z</time>
      </trkpt>
      <trkpt lat="39.85034728422761" lon="-6.112093515694141">
        <ele>424.0</ele>
        <time>2015-12-07T15:12:12.000Z</time>
      </trkpt>
      <trkpt lat="39.850366059690714" lon="-6.112059988081455">
        <ele>423.3999938964844</ele>
        <time>2015-12-07T15:12:13.000Z</time>
      </trkpt>
      <trkpt lat="39.85043001361191" lon="-6.112050516530871">
        <ele>421.3999938964844</ele>
        <time>2015-12-07T15:12:15.000Z</time>
      </trkpt>
      <trkpt lat="39.850495560094714" lon="-6.112151350826025">
        <ele>419.79998779296875</ele>
        <time>2015-12-07T15:12:18.000Z</time>
      </trkpt>
      <trkpt lat="39.850593376904726" lon="-6.112406998872757">
        <ele>417.79998779296875</ele>
        <time>2015-12-07T15:12:22.000Z</time>
      </trkpt>
      <trkpt lat="39.8507000785321" lon="-6.112633142620325">
        <ele>414.79998779296875</ele>
        <time>2015-12-07T15:12:25.000Z</time>
      </trkpt>
      <trkpt lat="39.850754560902715" lon="-6.112797511741519">
        <ele>413.6000061035156</ele>
        <time>2015-12-07T15:12:27.000Z</time>
      </trkpt>
      <trkpt lat="39.850884480401874" lon="-6.113124657422304">
        <ele>411.79998779296875</ele>
        <time>2015-12-07T15:12:32.000Z</time>
      </trkpt>
      <trkpt lat="39.85092781484127" lon="-6.113155502825975">
        <ele>410.79998779296875</ele>
        <time>2015-12-07T15:12:33.000Z</time>
      </trkpt>
      <trkpt lat="39.85111540183425" lon="-6.113177882507443">
        <ele>406.79998779296875</ele>
        <time>2015-12-07T15:12:36.000Z</time>
      </trkpt>
      <trkpt lat="39.85148546285927" lon="-6.113191545009613">
        <ele>400.6000061035156</ele>
        <time>2015-12-07T15:12:40.000Z</time>
      </trkpt>
      <trkpt lat="39.85170213505626" lon="-6.1131504736840725">
        <ele>397.3999938964844</ele>
        <time>2015-12-07T15:12:43.000Z</time>
      </trkpt>
      <trkpt lat="39.851768519729376" lon="-6.1130954045802355">
        <ele>396.3999938964844</ele>
        <time>2015-12-07T15:12:44.000Z</time>
      </trkpt>
      <trkpt lat="39.85193724744022" lon="-6.11284252256155">
        <ele>392.6000061035156</ele>
        <time>2015-12-07T15:12:47.000Z</time>
      </trkpt>
      <trkpt lat="39.85196356661618" lon="-6.112797847017646">
        <ele>392.0</ele>
        <time>2015-12-07T15:12:48.000Z</time>
      </trkpt>
      <trkpt lat="39.852143274620175" lon="-6.1125593818724155">
        <ele>388.20001220703125</ele>
        <time>2015-12-07T15:12:50.000Z</time>
      </trkpt>
      <trkpt lat="39.85221837647259" lon="-6.112483525648713">
        <ele>387.0</ele>
        <time>2015-12-07T15:12:51.000Z</time>
      </trkpt>
      <trkpt lat="39.85247679054737" lon="-6.112235505133867">
        <ele>382.6000061035156</ele>
        <time>2015-12-07T15:12:54.000Z</time>
      </trkpt>
      <trkpt lat="39.85253973864019" lon="-6.112133916467428">
        <ele>381.79998779296875</ele>
        <time>2015-12-07T15:12:55.000Z</time>
      </trkpt>
      <trkpt lat="39.852830339223146" lon="-6.111696548759937">
        <ele>378.6000061035156</ele>
        <time>2015-12-07T15:13:00.000Z</time>
      </trkpt>
      <trkpt lat="39.85286629758775" lon="-6.111628236249089">
        <ele>378.20001220703125</ele>
        <time>2015-12-07T15:13:01.000Z</time>
      </trkpt>
      <trkpt lat="39.85291365534067" lon="-6.111567635089159">
        <ele>377.79998779296875</ele>
        <time>2015-12-07T15:13:02.000Z</time>
      </trkpt>
      <trkpt lat="39.853099482133985" lon="-6.111450791358948">
        <ele>377.79998779296875</ele>
        <time>2015-12-07T15:13:05.000Z</time>
      </trkpt>
      <trkpt lat="39.85317005775869" lon="-6.111422795802355">
        <ele>377.79998779296875</ele>
        <time>2015-12-07T15:13:06.000Z</time>
      </trkpt>
      <trkpt lat="39.85325127840042" lon="-6.111401338130236">
        <ele>377.79998779296875</ele>
        <time>2015-12-07T15:13:07.000Z</time>
      </trkpt>
      <trkpt lat="39.85338211990893" lon="-6.111390944570303">
        <ele>377.6000061035156</ele>
        <time>2015-12-07T15:13:09.000Z</time>
      </trkpt>
      <trkpt lat="39.853540705516934" lon="-6.111403182148933">
        <ele>377.3999938964844</ele>
        <time>2015-12-07T15:13:12.000Z</time>
      </trkpt>
      <trkpt lat="39.85358538106084" lon="-6.111413910984993">
        <ele>377.20001220703125</ele>
        <time>2015-12-07T15:13:13.000Z</time>
      </trkpt>
      <trkpt lat="39.85362586565316" lon="-6.111413240432739">
        <ele>377.20001220703125</ele>
        <time>2015-12-07T15:13:14.000Z</time>
      </trkpt>
      <trkpt lat="39.85372309572995" lon="-6.111350208520889">
        <ele>377.3999938964844</ele>
        <time>2015-12-07T15:13:17.000Z</time>
      </trkpt>
      <trkpt lat="39.853847064077854" lon="-6.111220037564635">
        <ele>378.0</ele>
        <time>2015-12-07T15:13:21.000Z</time>
      </trkpt>
      <trkpt lat="39.85388251952827" lon="-6.111183492466807">
        <ele>378.20001220703125</ele>
        <time>2015-12-07T15:13:22.000Z</time>
      </trkpt>
      <trkpt lat="39.85405602492392" lon="-6.110977465286851">
        <ele>379.20001220703125</ele>
        <time>2015-12-07T15:13:29.000Z</time>
      </trkpt>
      <trkpt lat="39.85427781008184" lon="-6.110730450600386">
        <ele>380.3999938964844</ele>
        <time>2015-12-07T15:13:35.000Z</time>
      </trkpt>
      <trkpt lat="39.8544558417052" lon="-6.1104056518524885">
        <ele>380.0</ele>
        <time>2015-12-07T15:13:40.000Z</time>
      </trkpt>
      <trkpt lat="39.85466497018933" lon="-6.110023856163025">
        <ele>377.3999938964844</ele>
        <time>2015-12-07T15:13:44.000Z</time>
      </trkpt>
      <trkpt lat="39.85485389828682" lon="-6.109792431816459">
        <ele>375.0</ele>
        <time>2015-12-07T15:13:47.000Z</time>
      </trkpt>
      <trkpt lat="39.854924976825714" lon="-6.109744906425476">
        <ele>374.3999938964844</ele>
        <time>2015-12-07T15:13:48.000Z</time>
      </trkpt>
      <trkpt lat="39.85508842393756" lon="-6.109676342457533">
        <ele>373.0</ele>
        <time>2015-12-07T15:13:51.000Z</time>
      </trkpt>
      <trkpt lat="39.85524927265942" lon="-6.109601408243179">
        <ele>371.6000061035156</ele>
        <time>2015-12-07T15:13:55.000Z</time>
      </trkpt>
      <trkpt lat="39.85535471700132" lon="-6.109492024406791">
        <ele>370.6000061035156</ele>
        <time>2015-12-07T15:13:58.000Z</time>
      </trkpt>
      <trkpt lat="39.85546376556158" lon="-6.1093648709356785">
        <ele>370.20001220703125</ele>
        <time>2015-12-07T15:14:01.000Z</time>
      </trkpt>
      <trkpt lat="39.85553811304271" lon="-6.109257331117988">
        <ele>370.20001220703125</ele>
        <time>2015-12-07T15:14:03.000Z</time>
      </trkpt>
      <trkpt lat="39.85561531037092" lon="-6.109079970046878">
        <ele>370.20001220703125</ele>
        <time>2015-12-07T15:14:06.000Z</time>
      </trkpt>
      <trkpt lat="39.85574866645038" lon="-6.108737904578447">
        <ele>369.79998779296875</ele>
        <time>2015-12-07T15:14:12.000Z</time>
      </trkpt>
      <trkpt lat="39.85596299171448" lon="-6.108298022300005">
        <ele>369.3999938964844</ele>
        <time>2015-12-07T15:14:20.000Z</time>
      </trkpt>
      <trkpt lat="39.85610766336322" lon="-6.10811160877347">
        <ele>369.3999938964844</ele>
        <time>2015-12-07T15:14:24.000Z</time>
      </trkpt>
      <trkpt lat="39.85621268860996" lon="-6.108069783076644">
        <ele>369.6000061035156</ele>
        <time>2015-12-07T15:14:26.000Z</time>
      </trkpt>
      <trkpt lat="39.85648434609175" lon="-6.107945563271642">
        <ele>365.20001220703125</ele>
        <time>2015-12-07T15:14:31.000Z</time>
      </trkpt>
      <trkpt lat="39.85653044655919" lon="-6.107921842485666">
        <ele>364.3999938964844</ele>
        <time>2015-12-07T15:14:32.000Z</time>
      </trkpt>
      <trkpt lat="39.85656908713281" lon="-6.107891416177154">
        <ele>363.6000061035156</ele>
        <time>2015-12-07T15:14:33.000Z</time>
      </trkpt>
      <trkpt lat="39.85673856921494" lon="-6.107749845832586">
        <ele>360.3999938964844</ele>
        <time>2015-12-07T15:14:37.000Z</time>
      </trkpt>
      <trkpt lat="39.85677913762629" lon="-6.107698883861303">
        <ele>359.3999938964844</ele>
        <time>2015-12-07T15:14:38.000Z</time>
      </trkpt>
      <trkpt lat="39.856918193399906" lon="-6.1074915155768394">
        <ele>356.20001220703125</ele>
        <time>2015-12-07T15:14:42.000Z</time>
      </trkpt>
      <trkpt lat="39.85698030330241" lon="-6.10734642483294">
        <ele>354.6000061035156</ele>
        <time>2015-12-07T15:14:45.000Z</time>
      </trkpt>
      <trkpt lat="39.85698466189206" lon="-6.107294373214245">
        <ele>354.20001220703125</ele>
        <time>2015-12-07T15:14:46.000Z</time>
      </trkpt>
      <trkpt lat="39.8569823987782" lon="-6.107133021578193">
        <ele>351.6000061035156</ele>
        <time>2015-12-07T15:14:49.000Z</time>
      </trkpt>
      <trkpt lat="39.85697560943663" lon="-6.107083233073354">
        <ele>350.6000061035156</ele>
        <time>2015-12-07T15:14:50.000Z</time>
      </trkpt>
      <trkpt lat="39.856970412656665" lon="-6.107044760137796">
        <ele>350.0</ele>
        <time>2015-12-07T15:14:51.000Z</time>
      </trkpt>
      <trkpt lat="39.856960605829954" lon="-6.107009556144476">
        <ele>349.6000061035156</ele>
        <time>2015-12-07T15:14:52.000Z</time>
      </trkpt>
      <trkpt lat="39.856956247240305" lon="-6.106910398229957">
        <ele>347.79998779296875</ele>
        <time>2015-12-07T15:14:55.000Z</time>
      </trkpt>
      <trkpt lat="39.85699472017586" lon="-6.106782658025622">
        <ele>345.0</ele>
        <time>2015-12-07T15:14:59.000Z</time>
      </trkpt>
      <trkpt lat="39.85705188475549" lon="-6.1065783072263">
        <ele>340.6000061035156</ele>
        <time>2015-12-07T15:15:03.000Z</time>
      </trkpt>
      <trkpt lat="39.85705289058387" lon="-6.106452746316791">
        <ele>338.3999938964844</ele>
        <time>2015-12-07T15:15:06.000Z</time>
      </trkpt>
      <trkpt lat="39.85703227110207" lon="-6.10642584040761">
        <ele>338.20001220703125</ele>
        <time>2015-12-07T15:15:07.000Z</time>
      </trkpt>
      <trkpt lat="39.85691115260124" lon="-6.10631394200027">
        <ele>339.0</ele>
        <time>2015-12-07T15:15:10.000Z</time>
      </trkpt>
      <trkpt lat="39.856722140684724" lon="-6.106198523193598">
        <ele>340.3999938964844</ele>
        <time>2015-12-07T15:15:14.000Z</time>
      </trkpt>
      <trkpt lat="39.85664083622396" lon="-6.106162229552865">
        <ele>341.20001220703125</ele>
        <time>2015-12-07T15:15:16.000Z</time>
      </trkpt>
      <trkpt lat="39.85660387203097" lon="-6.106135658919811">
        <ele>341.6000061035156</ele>
        <time>2015-12-07T15:15:17.000Z</time>
      </trkpt>
      <trkpt lat="39.856530195102096" lon="-6.106046894565225">
        <ele>341.3999938964844</ele>
        <time>2015-12-07T15:15:20.000Z</time>
      </trkpt>
      <trkpt lat="39.8565143533051" lon="-6.106025772169232">
        <ele>341.3999938964844</ele>
        <time>2015-12-07T15:15:21.000Z</time>
      </trkpt>
      <trkpt lat="39.85649675130844" lon="-6.105990232899785">
        <ele>341.0</ele>
        <time>2015-12-07T15:15:22.000Z</time>
      </trkpt>
      <trkpt lat="39.856467582285404" lon="-6.105862660333514">
        <ele>339.79998779296875</ele>
        <time>2015-12-07T15:15:26.000Z</time>
      </trkpt>
      <trkpt lat="39.85649515874684" lon="-6.105813207104802">
        <ele>339.0</ele>
        <time>2015-12-07T15:15:28.000Z</time>
      </trkpt>
      <trkpt lat="39.856548216193914" lon="-6.105821169912815">
        <ele>338.6000061035156</ele>
        <time>2015-12-07T15:15:30.000Z</time>
      </trkpt>
      <trkpt lat="39.856601441279054" lon="-6.105822678655386">
        <ele>338.0</ele>
        <time>2015-12-07T15:15:32.000Z</time>
      </trkpt>
      <trkpt lat="39.856723146513104" lon="-6.105810105800629">
        <ele>336.79998779296875</ele>
        <time>2015-12-07T15:15:36.000Z</time>
      </trkpt>
      <trkpt lat="39.85685482621193" lon="-6.105743637308478">
        <ele>334.6000061035156</ele>
        <time>2015-12-07T15:15:41.000Z</time>
      </trkpt>
      <trkpt lat="39.856957169249654" lon="-6.105700470507145">
        <ele>333.20001220703125</ele>
        <time>2015-12-07T15:15:47.000Z</time>
      </trkpt>
      <trkpt lat="39.85707527026534" lon="-6.105602066963911">
        <ele>331.20001220703125</ele>
        <time>2015-12-07T15:15:56.000Z</time>
      </trkpt>
      <trkpt lat="39.85717384144664" lon="-6.105510788038373">
        <ele>333.3999938964844</ele>
        <time>2015-12-07T15:16:04.000Z</time>
      </trkpt>
      <trkpt lat="39.857258163392544" lon="-6.105425963178277">
        <ele>335.3999938964844</ele>
        <time>2015-12-07T15:16:11.000Z</time>
      </trkpt>
      <trkpt lat="39.857350112870336" lon="-6.105305934324861">
        <ele>337.6000061035156</ele>
        <time>2015-12-07T15:16:19.000Z</time>
      </trkpt>
      <trkpt lat="39.8574398830533" lon="-6.105168303474784">
        <ele>340.20001220703125</ele>
        <time>2015-12-07T15:16:29.000Z</time>
      </trkpt>
      <trkpt lat="39.85749922692776" lon="-6.105048442259431">
        <ele>342.0</ele>
        <time>2015-12-07T15:16:37.000Z</time>
      </trkpt>
      <trkpt lat="39.85753174871206" lon="-6.104890024289489">
        <ele>343.79998779296875</ele>
        <time>2015-12-07T15:16:45.000Z</time>
      </trkpt>
      <trkpt lat="39.857536274939775" lon="-6.104730600491166">
        <ele>345.0</ele>
        <time>2015-12-07T15:16:53.000Z</time>
      </trkpt>
      <trkpt lat="39.857521522790194" lon="-6.1045420076698065">
        <ele>346.0</ele>
        <time>2015-12-07T15:17:01.000Z</time>
      </trkpt>
      <trkpt lat="39.857534766197205" lon="-6.1043711844831705">
        <ele>347.20001220703125</ele>
        <time>2015-12-07T15:17:08.000Z</time>
      </trkpt>
      <trkpt lat="39.85754834488034" lon="-6.104196924716234">
        <ele>349.3999938964844</ele>
        <time>2015-12-07T15:17:16.000Z</time>
      </trkpt>
      <trkpt lat="39.85753946006298" lon="-6.10402962192893">
        <ele>352.20001220703125</ele>
        <time>2015-12-07T15:17:24.000Z</time>
      </trkpt>
      <trkpt lat="39.85752965323627" lon="-6.103830132633448">
        <ele>354.0</ele>
        <time>2015-12-07T15:17:32.000Z</time>
      </trkpt>
      <trkpt lat="39.85754968598485" lon="-6.103667188435793">
        <ele>354.79998779296875</ele>
        <time>2015-12-07T15:17:39.000Z</time>
      </trkpt>
      <trkpt lat="39.85757508315146" lon="-6.1035191640257835">
        <ele>355.3999938964844</ele>
        <time>2015-12-07T15:17:46.000Z</time>
      </trkpt>
      <trkpt lat="39.85756837762892" lon="-6.103432914242148">
        <ele>355.6000061035156</ele>
        <time>2015-12-07T15:17:49.000Z</time>
      </trkpt>
      <trkpt lat="39.857557816430926" lon="-6.103388825431466">
        <ele>356.20001220703125</ele>
        <time>2015-12-07T15:17:51.000Z</time>
      </trkpt>
      <trkpt lat="39.85754784196615" lon="-6.103313807398081">
        <ele>357.0</ele>
        <time>2015-12-07T15:17:54.000Z</time>
      </trkpt>
      <trkpt lat="39.8575350176543" lon="-6.103202411904931">
        <ele>358.3999938964844</ele>
        <time>2015-12-07T15:17:59.000Z</time>
      </trkpt>
      <trkpt lat="39.85755010508001" lon="-6.103040808811784">
        <ele>360.0</ele>
        <time>2015-12-07T15:18:06.000Z</time>
      </trkpt>
      <trkpt lat="39.85758061520755" lon="-6.102801002562046">
        <ele>361.20001220703125</ele>
        <time>2015-12-07T15:18:15.000Z</time>
      </trkpt>
      <trkpt lat="39.85755002126098" lon="-6.102653481066227">
        <ele>362.3999938964844</ele>
        <time>2015-12-07T15:18:20.000Z</time>
      </trkpt>
      <trkpt lat="39.85758287832141" lon="-6.102546360343695">
        <ele>362.79998779296875</ele>
        <time>2015-12-07T15:18:25.000Z</time>
      </trkpt>
      <trkpt lat="39.85762101598084" lon="-6.1024094838649035">
        <ele>363.20001220703125</ele>
        <time>2015-12-07T15:18:32.000Z</time>
      </trkpt>
      <trkpt lat="39.85766141675413" lon="-6.102219885215163">
        <ele>364.0</ele>
        <time>2015-12-07T15:18:41.000Z</time>
      </trkpt>
      <trkpt lat="39.85763710923493" lon="-6.102039003744721">
        <ele>365.79998779296875</ele>
        <time>2015-12-07T15:18:49.000Z</time>
      </trkpt>
      <trkpt lat="39.857606180012226" lon="-6.10182979144156">
        <ele>367.79998779296875</ele>
        <time>2015-12-07T15:18:58.000Z</time>
      </trkpt>
      <trkpt lat="39.857613472267985" lon="-6.101621417328715">
        <ele>369.6000061035156</ele>
        <time>2015-12-07T15:19:07.000Z</time>
      </trkpt>
      <trkpt lat="39.85762939788401" lon="-6.1013889871537685">
        <ele>371.20001220703125</ele>
        <time>2015-12-07T15:19:17.000Z</time>
      </trkpt>
      <trkpt lat="39.85764121636748" lon="-6.10121363773942">
        <ele>372.0</ele>
        <time>2015-12-07T15:19:25.000Z</time>
      </trkpt>
      <trkpt lat="39.85767834819853" lon="-6.101089334115386">
        <ele>372.6000061035156</ele>
        <time>2015-12-07T15:19:32.000Z</time>
      </trkpt>
      <trkpt lat="39.85776778310537" lon="-6.101001491770148">
        <ele>373.0</ele>
        <time>2015-12-07T15:19:39.000Z</time>
      </trkpt>
      <trkpt lat="39.857797622680664" lon="-6.100925719365478">
        <ele>373.3999938964844</ele>
        <time>2015-12-07T15:19:44.000Z</time>
      </trkpt>
      <trkpt lat="39.85780189745128" lon="-6.10090484842658">
        <ele>373.6000061035156</ele>
        <time>2015-12-07T15:19:45.000Z</time>
      </trkpt>
      <trkpt lat="39.85777557827532" lon="-6.100700497627258">
        <ele>374.3999938964844</ele>
        <time>2015-12-07T15:19:49.000Z</time>
      </trkpt>
      <trkpt lat="39.857746828347445" lon="-6.1003512237221">
        <ele>372.3999938964844</ele>
        <time>2015-12-07T15:19:53.000Z</time>
      </trkpt>
      <trkpt lat="39.85778043977916" lon="-6.100155338644981">
        <ele>370.6000061035156</ele>
        <time>2015-12-07T15:19:55.000Z</time>
      </trkpt>
      <trkpt lat="39.857807429507375" lon="-6.100071519613266">
        <ele>369.79998779296875</ele>
        <time>2015-12-07T15:19:56.000Z</time>
      </trkpt>
      <trkpt lat="39.857765352353454" lon="-6.099845375865698">
        <ele>367.79998779296875</ele>
        <time>2015-12-07T15:19:59.000Z</time>
      </trkpt>
      <trkpt lat="39.85774431377649" lon="-6.09977756626904">
        <ele>367.6000061035156</ele>
        <time>2015-12-07T15:20:00.000Z</time>
      </trkpt>
      <trkpt lat="39.857681365683675" lon="-6.099509093910456">
        <ele>368.3999938964844</ele>
        <time>2015-12-07T15:20:05.000Z</time>
      </trkpt>
      <trkpt lat="39.85760643146932" lon="-6.0991614125669">
        <ele>368.6000061035156</ele>
        <time>2015-12-07T15:20:12.000Z</time>
      </trkpt>
      <trkpt lat="39.85755898989737" lon="-6.098803924396634">
        <ele>365.79998779296875</ele>
        <time>2015-12-07T15:20:18.000Z</time>
      </trkpt>
      <trkpt lat="39.857557732611895" lon="-6.098459344357252">
        <ele>367.0</ele>
        <time>2015-12-07T15:20:24.000Z</time>
      </trkpt>
      <trkpt lat="39.857507944107056" lon="-6.098025077953935">
        <ele>365.3999938964844</ele>
        <time>2015-12-07T15:20:32.000Z</time>
      </trkpt>
      <trkpt lat="39.857438039034605" lon="-6.09752987511456">
        <ele>366.3999938964844</ele>
        <time>2015-12-07T15:20:41.000Z</time>
      </trkpt>
      <trkpt lat="39.85739931464195" lon="-6.0971510130912066">
        <ele>364.79998779296875</ele>
        <time>2015-12-07T15:20:48.000Z</time>
      </trkpt>
      <trkpt lat="39.85740702599287" lon="-6.096813390031457">
        <ele>365.20001220703125</ele>
        <time>2015-12-07T15:20:54.000Z</time>
      </trkpt>
      <trkpt lat="39.857425801455975" lon="-6.096402173861861">
        <ele>365.3999938964844</ele>
        <time>2015-12-07T15:21:01.000Z</time>
      </trkpt>
      <trkpt lat="39.857407193630934" lon="-6.0960751958191395">
        <ele>366.3999938964844</ele>
        <time>2015-12-07T15:21:07.000Z</time>
      </trkpt>
      <trkpt lat="39.857408283278346" lon="-6.095771435648203">
        <ele>366.3999938964844</ele>
        <time>2015-12-07T15:21:13.000Z</time>
      </trkpt>
      <trkpt lat="39.85743451863527" lon="-6.095417635515332">
        <ele>366.79998779296875</ele>
        <time>2015-12-07T15:21:20.000Z</time>
      </trkpt>
      <trkpt lat="39.85748682171106" lon="-6.095098201185465">
        <ele>367.6000061035156</ele>
        <time>2015-12-07T15:21:25.000Z</time>
      </trkpt>
      <trkpt lat="39.85754440538585" lon="-6.0949288867414">
        <ele>369.20001220703125</ele>
        <time>2015-12-07T15:21:27.000Z</time>
      </trkpt>
      <trkpt lat="39.857528898864985" lon="-6.094777677208185">
        <ele>368.0</ele>
        <time>2015-12-07T15:21:29.000Z</time>
      </trkpt>
      <trkpt lat="39.85743334516883" lon="-6.094580953940749">
        <ele>365.6000061035156</ele>
        <time>2015-12-07T15:21:32.000Z</time>
      </trkpt>
      <trkpt lat="39.85739822499454" lon="-6.094466121867299">
        <ele>365.20001220703125</ele>
        <time>2015-12-07T15:21:34.000Z</time>
      </trkpt>
      <trkpt lat="39.85737861134112" lon="-6.094375178217888">
        <ele>365.20001220703125</ele>
        <time>2015-12-07T15:21:36.000Z</time>
      </trkpt>
      <trkpt lat="39.85734776593745" lon="-6.094187255948782">
        <ele>365.6000061035156</ele>
        <time>2015-12-07T15:21:40.000Z</time>
      </trkpt>
      <trkpt lat="39.85734189860523" lon="-6.094098407775164">
        <ele>366.20001220703125</ele>
        <time>2015-12-07T15:21:42.000Z</time>
      </trkpt>
      <trkpt lat="39.857325721532106" lon="-6.093824068084359">
        <ele>367.3999938964844</ele>
        <time>2015-12-07T15:21:49.000Z</time>
      </trkpt>
      <trkpt lat="39.85733167268336" lon="-6.093590548262">
        <ele>369.20001220703125</ele>
        <time>2015-12-07T15:21:55.000Z</time>
      </trkpt>
      <trkpt lat="39.85732111148536" lon="-6.0933321341872215">
        <ele>372.0</ele>
        <time>2015-12-07T15:22:01.000Z</time>
      </trkpt>
      <trkpt lat="39.85730937682092" lon="-6.093034744262695">
        <ele>374.3999938964844</ele>
        <time>2015-12-07T15:22:08.000Z</time>
      </trkpt>
      <trkpt lat="39.85730594024062" lon="-6.092751687392592">
        <ele>374.20001220703125</ele>
        <time>2015-12-07T15:22:14.000Z</time>
      </trkpt>
      <trkpt lat="39.85734642483294" lon="-6.092517748475075">
        <ele>375.0</ele>
        <time>2015-12-07T15:22:19.000Z</time>
      </trkpt>
      <trkpt lat="39.85746134072542" lon="-6.092174677178264">
        <ele>376.79998779296875</ele>
        <time>2015-12-07T15:22:27.000Z</time>
      </trkpt>
      <trkpt lat="39.85762897878885" lon="-6.091926237568259">
        <ele>378.6000061035156</ele>
        <time>2015-12-07T15:22:33.000Z</time>
      </trkpt>
      <trkpt lat="39.857834335416555" lon="-6.091653071343899">
        <ele>381.20001220703125</ele>
        <time>2015-12-07T15:22:39.000Z</time>
      </trkpt>
      <trkpt lat="39.857988227158785" lon="-6.091321734711528">
        <ele>380.20001220703125</ele>
        <time>2015-12-07T15:22:46.000Z</time>
      </trkpt>
      <trkpt lat="39.85815913416445" lon="-6.091043958440423">
        <ele>379.6000061035156</ele>
        <time>2015-12-07T15:22:53.000Z</time>
      </trkpt>
      <trkpt lat="39.858191069215536" lon="-6.091018645092845">
        <ele>380.0</ele>
        <time>2015-12-07T15:22:54.000Z</time>
      </trkpt>
      <trkpt lat="39.858364909887314" lon="-6.090976148843765">
        <ele>382.6000061035156</ele>
        <time>2015-12-07T15:22:59.000Z</time>
      </trkpt>
      <trkpt lat="39.85848493874073" lon="-6.091003222391009">
        <ele>386.3999938964844</ele>
        <time>2015-12-07T15:23:02.000Z</time>
      </trkpt>
      <trkpt lat="39.85856196843088" lon="-6.091025099158287">
        <ele>388.79998779296875</ele>
        <time>2015-12-07T15:23:04.000Z</time>
      </trkpt>
      <trkpt lat="39.858780736103654" lon="-6.091021746397018">
        <ele>394.6000061035156</ele>
        <time>2015-12-07T15:23:10.000Z</time>
      </trkpt>
      <trkpt lat="39.85880143940449" lon="-6.090989643707871">
        <ele>394.3999938964844</ele>
        <time>2015-12-07T15:23:11.000Z</time>
      </trkpt>
      <trkpt lat="39.85884251073003" lon="-6.090877326205373">
        <ele>393.0</ele>
        <time>2015-12-07T15:23:14.000Z</time>
      </trkpt>
      <trkpt lat="39.85885491594672" lon="-6.09077213332057">
        <ele>391.20001220703125</ele>
        <time>2015-12-07T15:23:17.000Z</time>
      </trkpt>
      <trkpt lat="39.858873607590795" lon="-6.090603489428759">
        <ele>388.0</ele>
        <time>2015-12-07T15:23:20.000Z</time>
      </trkpt>
      <trkpt lat="39.85894778743386" lon="-6.090128989890218">
        <ele>385.0</ele>
        <time>2015-12-07T15:23:29.000Z</time>
      </trkpt>
      <trkpt lat="39.85896237194538" lon="-6.090075261890888">
        <ele>384.79998779296875</ele>
        <time>2015-12-07T15:23:30.000Z</time>
      </trkpt>
      <trkpt lat="39.85899900086224" lon="-6.089920615777373">
        <ele>383.79998779296875</ele>
        <time>2015-12-07T15:23:33.000Z</time>
      </trkpt>
      <trkpt lat="39.85900537110865" lon="-6.089862864464521">
        <ele>383.3999938964844</ele>
        <time>2015-12-07T15:23:34.000Z</time>
      </trkpt>
      <trkpt lat="39.85901408828795" lon="-6.089686593040824">
        <ele>382.3999938964844</ele>
        <time>2015-12-07T15:23:37.000Z</time>
      </trkpt>
      <trkpt lat="39.85901936888695" lon="-6.089623058214784">
        <ele>382.3999938964844</ele>
        <time>2015-12-07T15:23:38.000Z</time>
      </trkpt>
      <trkpt lat="39.85902037471533" lon="-6.0893521551042795">
        <ele>381.79998779296875</ele>
        <time>2015-12-07T15:23:42.000Z</time>
      </trkpt>
      <trkpt lat="39.85901936888695" lon="-6.089277220889926">
        <ele>381.3999938964844</ele>
        <time>2015-12-07T15:23:43.000Z</time>
      </trkpt>
      <trkpt lat="39.85902632586658" lon="-6.08923489227891">
        <ele>381.3999938964844</ele>
        <time>2015-12-07T15:23:44.000Z</time>
      </trkpt>
      <trkpt lat="39.8590200394392" lon="-6.089097848162055">
        <ele>380.20001220703125</ele>
        <time>2015-12-07T15:23:46.000Z</time>
      </trkpt>
      <trkpt lat="39.85897100530565" lon="-6.088824598118663">
        <ele>378.20001220703125</ele>
        <time>2015-12-07T15:23:50.000Z</time>
      </trkpt>
      <trkpt lat="39.85885441303253" lon="-6.088515222072601">
        <ele>376.0</ele>
        <time>2015-12-07T15:23:54.000Z</time>
      </trkpt>
      <trkpt lat="39.85881954431534" lon="-6.088439952582121">
        <ele>375.20001220703125</ele>
        <time>2015-12-07T15:23:55.000Z</time>
      </trkpt>
      <trkpt lat="39.85860672779381" lon="-6.087983977049589">
        <ele>371.79998779296875</ele>
        <time>2015-12-07T15:24:01.000Z</time>
      </trkpt>
      <trkpt lat="39.85854738391936" lon="-6.087805945426226">
        <ele>371.79998779296875</ele>
        <time>2015-12-07T15:24:03.000Z</time>
      </trkpt>
      <trkpt lat="39.858374800533056" lon="-6.0872540809214115">
        <ele>371.3999938964844</ele>
        <time>2015-12-07T15:24:09.000Z</time>
      </trkpt>
      <trkpt lat="39.85819358378649" lon="-6.086695259436965">
        <ele>369.3999938964844</ele>
        <time>2015-12-07T15:24:15.000Z</time>
      </trkpt>
      <trkpt lat="39.85813080333173" lon="-6.086335843428969">
        <ele>368.3999938964844</ele>
        <time>2015-12-07T15:24:19.000Z</time>
      </trkpt>
      <trkpt lat="39.85804715193808" lon="-6.085895039141178">
        <ele>368.20001220703125</ele>
        <time>2015-12-07T15:24:24.000Z</time>
      </trkpt>
      <trkpt lat="39.85792578198016" lon="-6.085822368040681">
        <ele>364.79998779296875</ele>
        <time>2015-12-07T15:24:26.000Z</time>
      </trkpt>
      <trkpt lat="39.857696034014225" lon="-6.085760090500116">
        <ele>360.0</ele>
        <time>2015-12-07T15:24:29.000Z</time>
      </trkpt>
      <trkpt lat="39.85762788914144" lon="-6.085727820172906">
        <ele>358.79998779296875</ele>
        <time>2015-12-07T15:24:30.000Z</time>
      </trkpt>
      <trkpt lat="39.857568545266986" lon="-6.085674175992608">
        <ele>358.0</ele>
        <time>2015-12-07T15:24:31.000Z</time>
      </trkpt>
      <trkpt lat="39.857451785355806" lon="-6.085545681416988">
        <ele>356.6000061035156</ele>
        <time>2015-12-07T15:24:33.000Z</time>
      </trkpt>
      <trkpt lat="39.85720460303128" lon="-6.085158102214336">
        <ele>354.20001220703125</ele>
        <time>2015-12-07T15:24:38.000Z</time>
      </trkpt>
      <trkpt lat="39.856955325230956" lon="-6.084586707875133">
        <ele>350.20001220703125</ele>
        <time>2015-12-07T15:24:43.000Z</time>
      </trkpt>
      <trkpt lat="39.856833871454" lon="-6.084252269938588">
        <ele>348.6000061035156</ele>
        <time>2015-12-07T15:24:46.000Z</time>
      </trkpt>
      <trkpt lat="39.85683823004365" lon="-6.084132911637425">
        <ele>349.3999938964844</ele>
        <time>2015-12-07T15:24:47.000Z</time>
      </trkpt>
      <trkpt lat="39.85688307322562" lon="-6.083868043497205">
        <ele>351.79998779296875</ele>
        <time>2015-12-07T15:24:50.000Z</time>
      </trkpt>
      <trkpt lat="39.856954235583544" lon="-6.083504520356655">
        <ele>352.20001220703125</ele>
        <time>2015-12-07T15:24:55.000Z</time>
      </trkpt>
      <trkpt lat="39.8570357915014" lon="-6.083171591162682">
        <ele>352.79998779296875</ele>
        <time>2015-12-07T15:24:59.000Z</time>
      </trkpt>
      <trkpt lat="39.85707619227469" lon="-6.083034044131637">
        <ele>352.3999938964844</ele>
        <time>2015-12-07T15:25:01.000Z</time>
      </trkpt>
      <trkpt lat="39.857129249721766" lon="-6.082935640588403">
        <ele>351.6000061035156</ele>
        <time>2015-12-07T15:25:03.000Z</time>
      </trkpt>
      <trkpt lat="39.857188845053315" lon="-6.082881409674883">
        <ele>351.6000061035156</ele>
        <time>2015-12-07T15:25:05.000Z</time>
      </trkpt>
      <trkpt lat="39.857242153957486" lon="-6.082890210673213">
        <ele>352.0</ele>
        <time>2015-12-07T15:25:06.000Z</time>
      </trkpt>
      <trkpt lat="39.85728959552944" lon="-6.082909069955349">
        <ele>352.79998779296875</ele>
        <time>2015-12-07T15:25:07.000Z</time>
      </trkpt>
      <trkpt lat="39.85749042592943" lon="-6.0830052103847265">
        <ele>357.20001220703125</ele>
        <time>2015-12-07T15:25:11.000Z</time>
      </trkpt>
      <trkpt lat="39.85761648975313" lon="-6.082958607003093">
        <ele>358.0</ele>
        <time>2015-12-07T15:25:14.000Z</time>
      </trkpt>
      <trkpt lat="39.85765756107867" lon="-6.082931784912944">
        <ele>358.20001220703125</ele>
        <time>2015-12-07T15:25:15.000Z</time>
      </trkpt>
      <trkpt lat="39.85768907703459" lon="-6.082882164046168">
        <ele>357.79998779296875</ele>
        <time>2015-12-07T15:25:16.000Z</time>
      </trkpt>
      <trkpt lat="39.857740541920066" lon="-6.0827884543687105">
        <ele>356.79998779296875</ele>
        <time>2015-12-07T15:25:18.000Z</time>
      </trkpt>
      <trkpt lat="39.857763508334756" lon="-6.082748137414455">
        <ele>356.3999938964844</ele>
        <time>2015-12-07T15:25:19.000Z</time>
      </trkpt>
      <trkpt lat="39.85780625604093" lon="-6.082660965621471">
        <ele>355.6000061035156</ele>
        <time>2015-12-07T15:25:21.000Z</time>
      </trkpt>
      <trkpt lat="39.85784791409969" lon="-6.082573877647519">
        <ele>354.6000061035156</ele>
        <time>2015-12-07T15:25:23.000Z</time>
      </trkpt>
      <trkpt lat="39.857888985425234" lon="-6.082494668662548">
        <ele>353.79998779296875</ele>
        <time>2015-12-07T15:25:25.000Z</time>
      </trkpt>
      <trkpt lat="39.85791211947799" lon="-6.082459548488259">
        <ele>353.79998779296875</ele>
        <time>2015-12-07T15:25:26.000Z</time>
      </trkpt>
      <trkpt lat="39.857981353998184" lon="-6.082365084439516">
        <ele>354.20001220703125</ele>
        <time>2015-12-07T15:25:29.000Z</time>
      </trkpt>
      <trkpt lat="39.858003901317716" lon="-6.0823360830545425">
        <ele>354.20001220703125</ele>
        <time>2015-12-07T15:25:30.000Z</time>
      </trkpt>
      <trkpt lat="39.85814723186195" lon="-6.082202726975083">
        <ele>355.79998779296875</ele>
        <time>2015-12-07T15:25:35.000Z</time>
      </trkpt>
      <trkpt lat="39.85836331732571" lon="-6.081980857998133">
        <ele>356.79998779296875</ele>
        <time>2015-12-07T15:25:43.000Z</time>
      </trkpt>
      <trkpt lat="39.85849667340517" lon="-6.081820679828525">
        <ele>357.0</ele>
        <time>2015-12-07T15:25:49.000Z</time>
      </trkpt>
      <trkpt lat="39.85871376469731" lon="-6.081559080630541">
        <ele>357.3999938964844</ele>
        <time>2015-12-07T15:25:58.000Z</time>
      </trkpt>
      <trkpt lat="39.85892113298178" lon="-6.081319358199835">
        <ele>356.20001220703125</ele>
        <time>2015-12-07T15:26:06.000Z</time>
      </trkpt>
      <trkpt lat="39.85910268500447" lon="-6.081232437863946">
        <ele>358.0</ele>
        <time>2015-12-07T15:26:12.000Z</time>
      </trkpt>
      <trkpt lat="39.85928733833134" lon="-6.0813388880342245">
        <ele>364.79998779296875</ele>
        <time>2015-12-07T15:26:18.000Z</time>
      </trkpt>
      <trkpt lat="39.85949453897774" lon="-6.081590596586466">
        <ele>375.79998779296875</ele>
        <time>2015-12-07T15:26:26.000Z</time>
      </trkpt>
      <trkpt lat="39.859804501757026" lon="-6.082022683694959">
        <ele>386.0</ele>
        <time>2015-12-07T15:26:39.000Z</time>
      </trkpt>
      <trkpt lat="39.86001220531762" lon="-6.082315212115645">
        <ele>389.6000061035156</ele>
        <time>2015-12-07T15:26:48.000Z</time>
      </trkpt>
      <trkpt lat="39.860294507816434" lon="-6.082661049440503">
        <ele>392.6000061035156</ele>
        <time>2015-12-07T15:26:59.000Z</time>
      </trkpt>
      <trkpt lat="39.8606345616281" lon="-6.083053322508931">
        <ele>395.6000061035156</ele>
        <time>2015-12-07T15:27:12.000Z</time>
      </trkpt>
      <trkpt lat="39.86089238896966" lon="-6.08337577432394">
        <ele>394.20001220703125</ele>
        <time>2015-12-07T15:27:23.000Z</time>
      </trkpt>
      <trkpt lat="39.861043933779" lon="-6.083588423207402">
        <ele>394.20001220703125</ele>
        <time>2015-12-07T15:27:30.000Z</time>
      </trkpt>
      <trkpt lat="39.86114979721606" lon="-6.0837974678725">
        <ele>395.3999938964844</ele>
        <time>2015-12-07T15:27:36.000Z</time>
      </trkpt>
      <trkpt lat="39.86134274862707" lon="-6.08423475176096">
        <ele>398.6000061035156</ele>
        <time>2015-12-07T15:27:47.000Z</time>
      </trkpt>
      <trkpt lat="39.861484821885824" lon="-6.084451088681817">
        <ele>398.79998779296875</ele>
        <time>2015-12-07T15:27:53.000Z</time>
      </trkpt>
      <trkpt lat="39.861721862107515" lon="-6.084580505266786">
        <ele>396.3999938964844</ele>
        <time>2015-12-07T15:28:00.000Z</time>
      </trkpt>
      <trkpt lat="39.86193333752453" lon="-6.084739426150918">
        <ele>395.20001220703125</ele>
        <time>2015-12-07T15:28:07.000Z</time>
      </trkpt>
      <trkpt lat="39.86208370886743" lon="-6.084974454715848">
        <ele>396.20001220703125</ele>
        <time>2015-12-07T15:28:14.000Z</time>
      </trkpt>
      <trkpt lat="39.86222259700298" lon="-6.085320375859737">
        <ele>400.0</ele>
        <time>2015-12-07T15:28:23.000Z</time>
      </trkpt>
      <trkpt lat="39.86230683512986" lon="-6.085615837946534">
        <ele>402.20001220703125</ele>
        <time>2015-12-07T15:28:30.000Z</time>
      </trkpt>
      <trkpt lat="39.86238897778094" lon="-6.086016409099102">
        <ele>403.79998779296875</ele>
        <time>2015-12-07T15:28:39.000Z</time>
      </trkpt>
      <trkpt lat="39.862388810142875" lon="-6.086335005238652">
        <ele>405.20001220703125</ele>
        <time>2015-12-07T15:28:46.000Z</time>
      </trkpt>
      <trkpt lat="39.86236567609012" lon="-6.086595514789224">
        <ele>406.6000061035156</ele>
        <time>2015-12-07T15:28:52.000Z</time>
      </trkpt>
      <trkpt lat="39.86241336911917" lon="-6.086865998804569">
        <ele>406.20001220703125</ele>
        <time>2015-12-07T15:28:58.000Z</time>
      </trkpt>
      <trkpt lat="39.86250355839729" lon="-6.087122317403555">
        <ele>405.6000061035156</ele>
        <time>2015-12-07T15:29:04.000Z</time>
      </trkpt>
      <trkpt lat="39.862525183707476" lon="-6.087331864982843">
        <ele>406.0</ele>
        <time>2015-12-07T15:29:09.000Z</time>
      </trkpt>
      <trkpt lat="39.862489560619" lon="-6.08767569065094">
        <ele>407.20001220703125</ele>
        <time>2015-12-07T15:29:16.000Z</time>
      </trkpt>
      <trkpt lat="39.862469024956226" lon="-6.087915915995836">
        <ele>409.0</ele>
        <time>2015-12-07T15:29:21.000Z</time>
      </trkpt>
      <trkpt lat="39.86243407242" lon="-6.08816678635776">
        <ele>411.6000061035156</ele>
        <time>2015-12-07T15:29:26.000Z</time>
      </trkpt>
      <trkpt lat="39.862436754629016" lon="-6.088472725823522">
        <ele>414.79998779296875</ele>
        <time>2015-12-07T15:29:32.000Z</time>
      </trkpt>
      <trkpt lat="39.862557454034686" lon="-6.088710688054562">
        <ele>415.79998779296875</ele>
        <time>2015-12-07T15:29:38.000Z</time>
      </trkpt>
      <trkpt lat="39.86279265023768" lon="-6.088820239529014">
        <ele>413.20001220703125</ele>
        <time>2015-12-07T15:29:45.000Z</time>
      </trkpt>
      <trkpt lat="39.86303254030645" lon="-6.088817892596126">
        <ele>411.79998779296875</ele>
        <time>2015-12-07T15:29:52.000Z</time>
      </trkpt>
      <trkpt lat="39.86320638097823" lon="-6.0886806808412075">
        <ele>410.20001220703125</ele>
        <time>2015-12-07T15:29:58.000Z</time>
      </trkpt>
      <trkpt lat="39.8633976560086" lon="-6.088430481031537">
        <ele>407.0</ele>
        <time>2015-12-07T15:30:06.000Z</time>
      </trkpt>
      <trkpt lat="39.863611813634634" lon="-6.088188327848911">
        <ele>404.0</ele>
        <time>2015-12-07T15:30:14.000Z</time>
      </trkpt>
      <trkpt lat="39.86386117525399" lon="-6.088106520473957">
        <ele>404.20001220703125</ele>
        <time>2015-12-07T15:30:21.000Z</time>
      </trkpt>
      <trkpt lat="39.86407005228102" lon="-6.088185478001833">
        <ele>407.0</ele>
        <time>2015-12-07T15:30:27.000Z</time>
      </trkpt>
      <trkpt lat="39.86429510638118" lon="-6.088388403877616">
        <ele>411.79998779296875</ele>
        <time>2015-12-07T15:30:35.000Z</time>
      </trkpt>
      <trkpt lat="39.864479675889015" lon="-6.088663581758738">
        <ele>416.20001220703125</ele>
        <time>2015-12-07T15:30:43.000Z</time>
      </trkpt>
      <trkpt lat="39.86465158872306" lon="-6.0890161246061325">
        <ele>418.6000061035156</ele>
        <time>2015-12-07T15:30:52.000Z</time>
      </trkpt>
      <trkpt lat="39.86470858566463" lon="-6.089285435155034">
        <ele>418.6000061035156</ele>
        <time>2015-12-07T15:30:58.000Z</time>
      </trkpt>
      <trkpt lat="39.864730881527066" lon="-6.089632194489241">
        <ele>419.20001220703125</ele>
        <time>2015-12-07T15:31:05.000Z</time>
      </trkpt>
      <trkpt lat="39.86470271833241" lon="-6.09000108204782">
        <ele>417.20001220703125</ele>
        <time>2015-12-07T15:31:11.000Z</time>
      </trkpt>
      <trkpt lat="39.86460263840854" lon="-6.090401317924261">
        <ele>415.20001220703125</ele>
        <time>2015-12-07T15:31:17.000Z</time>
      </trkpt>
      <trkpt lat="39.864571457728744" lon="-6.090469378978014">
        <ele>415.20001220703125</ele>
        <time>2015-12-07T15:31:18.000Z</time>
      </trkpt>
      <trkpt lat="39.86442485824227" lon="-6.090702312067151">
        <ele>413.3999938964844</ele>
        <time>2015-12-07T15:31:22.000Z</time>
      </trkpt>
      <trkpt lat="39.86418488435447" lon="-6.091000456362963">
        <ele>409.79998779296875</ele>
        <time>2015-12-07T15:31:28.000Z</time>
      </trkpt>
      <trkpt lat="39.863995453342795" lon="-6.091113360598683">
        <ele>409.6000061035156</ele>
        <time>2015-12-07T15:31:32.000Z</time>
      </trkpt>
      <trkpt lat="39.86394742503762" lon="-6.091127526015043">
        <ele>409.79998779296875</ele>
        <time>2015-12-07T15:31:33.000Z</time>
      </trkpt>
      <trkpt lat="39.86379638314247" lon="-6.091152671724558">
        <ele>411.0</ele>
        <time>2015-12-07T15:31:36.000Z</time>
      </trkpt>
      <trkpt lat="39.86355104483664" lon="-6.091163903474808">
        <ele>414.79998779296875</ele>
        <time>2015-12-07T15:31:41.000Z</time>
      </trkpt>
      <trkpt lat="39.86332381144166" lon="-6.091231293976307">
        <ele>417.79998779296875</ele>
        <time>2015-12-07T15:31:46.000Z</time>
      </trkpt>
      <trkpt lat="39.86323940567672" lon="-6.091280076652765">
        <ele>418.3999938964844</ele>
        <time>2015-12-07T15:31:48.000Z</time>
      </trkpt>
      <trkpt lat="39.86285224556923" lon="-6.091524912044406">
        <ele>421.79998779296875</ele>
        <time>2015-12-07T15:31:58.000Z</time>
      </trkpt>
      <trkpt lat="39.86248285509646" lon="-6.091816769912839">
        <ele>425.3999938964844</ele>
        <time>2015-12-07T15:32:08.000Z</time>
      </trkpt>
      <trkpt lat="39.862182112410665" lon="-6.092026485130191">
        <ele>429.0</ele>
        <time>2015-12-07T15:32:16.000Z</time>
      </trkpt>
      <trkpt lat="39.8621113691479" lon="-6.092081302776933">
        <ele>429.79998779296875</ele>
        <time>2015-12-07T15:32:18.000Z</time>
      </trkpt>
      <trkpt lat="39.862013133242726" lon="-6.092168726027012">
        <ele>430.6000061035156</ele>
        <time>2015-12-07T15:32:21.000Z</time>
      </trkpt>
      <trkpt lat="39.86185446381569" lon="-6.092327227815986">
        <ele>432.6000061035156</ele>
        <time>2015-12-07T15:32:26.000Z</time>
      </trkpt>
      <trkpt lat="39.86152857542038" lon="-6.092713717371225">
        <ele>439.0</ele>
        <time>2015-12-07T15:32:37.000Z</time>
      </trkpt>
      <trkpt lat="39.86133947968483" lon="-6.093010017648339">
        <ele>442.79998779296875</ele>
        <time>2015-12-07T15:32:45.000Z</time>
      </trkpt>
      <trkpt lat="39.86134149134159" lon="-6.093058381229639">
        <ele>443.20001220703125</ele>
        <time>2015-12-07T15:32:46.000Z</time>
      </trkpt>
      <trkpt lat="39.86136496067047" lon="-6.093145469203591">
        <ele>443.6000061035156</ele>
        <time>2015-12-07T15:32:48.000Z</time>
      </trkpt>
      <trkpt lat="39.86141567118466" lon="-6.093213027343154">
        <ele>443.79998779296875</ele>
        <time>2015-12-07T15:32:50.000Z</time>
      </trkpt>
      <trkpt lat="39.86152505502105" lon="-6.093272874131799">
        <ele>443.0</ele>
        <time>2015-12-07T15:32:53.000Z</time>
      </trkpt>
      <trkpt lat="39.86164290457964" lon="-6.093232221901417">
        <ele>440.79998779296875</ele>
        <time>2015-12-07T15:32:56.000Z</time>
      </trkpt>
      <trkpt lat="39.86182797700167" lon="-6.0930579621344805">
        <ele>436.20001220703125</ele>
        <time>2015-12-07T15:33:01.000Z</time>
      </trkpt>
      <trkpt lat="39.86186787486076" lon="-6.093026865273714">
        <ele>435.3999938964844</ele>
        <time>2015-12-07T15:33:02.000Z</time>
      </trkpt>
      <trkpt lat="39.861909030005336" lon="-6.092999121174216">
        <ele>434.6000061035156</ele>
        <time>2015-12-07T15:33:03.000Z</time>
      </trkpt>
      <trkpt lat="39.862041966989636" lon="-6.0929422080516815">
        <ele>432.3999938964844</ele>
        <time>2015-12-07T15:33:06.000Z</time>
      </trkpt>
      <trkpt lat="39.862086391076446" lon="-6.092929467558861">
        <ele>431.6000061035156</ele>
        <time>2015-12-07T15:33:07.000Z</time>
      </trkpt>
      <trkpt lat="39.86241705715656" lon="-6.09287372790277">
        <ele>428.6000061035156</ele>
        <time>2015-12-07T15:33:14.000Z</time>
      </trkpt>
      <trkpt lat="39.86251378431916" lon="-6.092869704589248">
        <ele>428.79998779296875</ele>
        <time>2015-12-07T15:33:16.000Z</time>
      </trkpt>
      <trkpt lat="39.86267622560263" lon="-6.0928825289011">
        <ele>429.79998779296875</ele>
        <time>2015-12-07T15:33:19.000Z</time>
      </trkpt>
      <trkpt lat="39.86312021501362" lon="-6.092940699309111">
        <ele>429.20001220703125</ele>
        <time>2015-12-07T15:33:27.000Z</time>
      </trkpt>
      <trkpt lat="39.86322557553649" lon="-6.092974813655019">
        <ele>428.6000061035156</ele>
        <time>2015-12-07T15:33:29.000Z</time>
      </trkpt>
      <trkpt lat="39.8633664753288" lon="-6.093069529160857">
        <ele>429.0</ele>
        <time>2015-12-07T15:33:32.000Z</time>
      </trkpt>
      <trkpt lat="39.86347820609808" lon="-6.093198945745826">
        <ele>430.3999938964844</ele>
        <time>2015-12-07T15:33:35.000Z</time>
      </trkpt>
      <trkpt lat="39.86350460909307" lon="-6.093256780877709">
        <ele>431.20001220703125</ele>
        <time>2015-12-07T15:33:36.000Z</time>
      </trkpt>
      <trkpt lat="39.86353017389774" lon="-6.09331008978188">
        <ele>431.79998779296875</ele>
        <time>2015-12-07T15:33:37.000Z</time>
      </trkpt>
      <trkpt lat="39.863611897453666" lon="-6.093601947650313">
        <ele>434.0</ele>
        <time>2015-12-07T15:33:42.000Z</time>
      </trkpt>
      <trkpt lat="39.86361927352846" lon="-6.093662045896053">
        <ele>434.6000061035156</ele>
        <time>2015-12-07T15:33:43.000Z</time>
      </trkpt>
      <trkpt lat="39.86364190466702" lon="-6.093891626223922">
        <ele>437.20001220703125</ele>
        <time>2015-12-07T15:33:47.000Z</time>
      </trkpt>
      <trkpt lat="39.86367073841393" lon="-6.0940327774733305">
        <ele>438.20001220703125</ele>
        <time>2015-12-07T15:33:50.000Z</time>
      </trkpt>
      <trkpt lat="39.863671492785215" lon="-6.0940946359187365">
        <ele>438.79998779296875</ele>
        <time>2015-12-07T15:33:51.000Z</time>
      </trkpt>
      <trkpt lat="39.86369571648538" lon="-6.094309045001864">
        <ele>439.6000061035156</ele>
        <time>2015-12-07T15:33:55.000Z</time>
      </trkpt>
      <trkpt lat="39.86372396349907" lon="-6.094677345827222">
        <ele>441.3999938964844</ele>
        <time>2015-12-07T15:34:02.000Z</time>
      </trkpt>
      <trkpt lat="39.86372354440391" lon="-6.094972053542733">
        <ele>441.79998779296875</ele>
        <time>2015-12-07T15:34:08.000Z</time>
      </trkpt>
      <trkpt lat="39.86370191909373" lon="-6.095269778743386">
        <ele>442.20001220703125</ele>
        <time>2015-12-07T15:34:14.000Z</time>
      </trkpt>
      <trkpt lat="39.86366344615817" lon="-6.095562307164073">
        <ele>443.20001220703125</ele>
        <time>2015-12-07T15:34:20.000Z</time>
      </trkpt>
      <trkpt lat="39.86360385082662" lon="-6.095952149480581">
        <ele>445.79998779296875</ele>
        <time>2015-12-07T15:34:28.000Z</time>
      </trkpt>
      <trkpt lat="39.86354408785701" lon="-6.096351044252515">
        <ele>448.20001220703125</ele>
        <time>2015-12-07T15:34:36.000Z</time>
      </trkpt>
      <trkpt lat="39.863520031794906" lon="-6.096662767231464">
        <ele>449.20001220703125</ele>
        <time>2015-12-07T15:34:42.000Z</time>
      </trkpt>
      <trkpt lat="39.863546434789896" lon="-6.097029726952314">
        <ele>447.79998779296875</ele>
        <time>2015-12-07T15:34:49.000Z</time>
      </trkpt>
      <trkpt lat="39.86355548724532" lon="-6.0971340816468">
        <ele>447.3999938964844</ele>
        <time>2015-12-07T15:34:51.000Z</time>
      </trkpt>
      <trkpt lat="39.86353780142963" lon="-6.097338683903217">
        <ele>447.3999938964844</ele>
        <time>2015-12-07T15:34:55.000Z</time>
      </trkpt>
      <trkpt lat="39.863458005711436" lon="-6.097630122676492">
        <ele>448.79998779296875</ele>
        <time>2015-12-07T15:35:01.000Z</time>
      </trkpt>
      <trkpt lat="39.86330629326403" lon="-6.098106214776635">
        <ele>452.20001220703125</ele>
        <time>2015-12-07T15:35:11.000Z</time>
      </trkpt>
      <trkpt lat="39.86324175260961" lon="-6.098399916663766">
        <ele>454.3999938964844</ele>
        <time>2015-12-07T15:35:17.000Z</time>
      </trkpt>
      <trkpt lat="39.86320361495018" lon="-6.0988459177315235">
        <ele>455.6000061035156</ele>
        <time>2015-12-07T15:35:26.000Z</time>
      </trkpt>
      <trkpt lat="39.86318207345903" lon="-6.099087484180927">
        <ele>456.6000061035156</ele>
        <time>2015-12-07T15:35:31.000Z</time>
      </trkpt>
      <trkpt lat="39.863178469240665" lon="-6.099353777244687">
        <ele>457.0</ele>
        <time>2015-12-07T15:35:37.000Z</time>
      </trkpt>
      <trkpt lat="39.863199926912785" lon="-6.099569192156196">
        <ele>456.79998779296875</ele>
        <time>2015-12-07T15:35:42.000Z</time>
      </trkpt>
      <trkpt lat="39.863218953832984" lon="-6.099807824939489">
        <ele>457.20001220703125</ele>
        <time>2015-12-07T15:35:47.000Z</time>
      </trkpt>
      <trkpt lat="39.86321870237589" lon="-6.1000919714570045">
        <ele>458.79998779296875</ele>
        <time>2015-12-07T15:35:53.000Z</time>
      </trkpt>
      <trkpt lat="39.86318299546838" lon="-6.100335046648979">
        <ele>461.3999938964844</ele>
        <time>2015-12-07T15:35:58.000Z</time>
      </trkpt>
      <trkpt lat="39.86314116977155" lon="-6.1006424110382795">
        <ele>463.79998779296875</ele>
        <time>2015-12-07T15:36:04.000Z</time>
      </trkpt>
      <trkpt lat="39.86318634822965" lon="-6.100939633324742">
        <ele>462.6000061035156</ele>
        <time>2015-12-07T15:36:10.000Z</time>
      </trkpt>
      <trkpt lat="39.86324158497155" lon="-6.101162089034915">
        <ele>461.0</ele>
        <time>2015-12-07T15:36:14.000Z</time>
      </trkpt>
      <trkpt lat="39.86326111480594" lon="-6.101272646337748">
        <ele>460.79998779296875</ele>
        <time>2015-12-07T15:36:16.000Z</time>
      </trkpt>
      <trkpt lat="39.86324870958924" lon="-6.10149996355176">
        <ele>461.0</ele>
        <time>2015-12-07T15:36:20.000Z</time>
      </trkpt>
      <trkpt lat="39.86323278397322" lon="-6.1015603970736265">
        <ele>461.20001220703125</ele>
        <time>2015-12-07T15:36:21.000Z</time>
      </trkpt>
      <trkpt lat="39.86312733963132" lon="-6.101954346522689">
        <ele>461.6000061035156</ele>
        <time>2015-12-07T15:36:28.000Z</time>
      </trkpt>
      <trkpt lat="39.86302122473717" lon="-6.102370759472251">
        <ele>462.6000061035156</ele>
        <time>2015-12-07T15:36:35.000Z</time>
      </trkpt>
      <trkpt lat="39.86302298493683" lon="-6.1024324502795935">
        <ele>462.20001220703125</ele>
        <time>2015-12-07T15:36:36.000Z</time>
      </trkpt>
      <trkpt lat="39.863038240000606" lon="-6.102600255981088">
        <ele>460.79998779296875</ele>
        <time>2015-12-07T15:36:39.000Z</time>
      </trkpt>
      <trkpt lat="39.86304134130478" lon="-6.1026595160365105">
        <ele>460.6000061035156</ele>
        <time>2015-12-07T15:36:40.000Z</time>
      </trkpt>
      <trkpt lat="39.86304318532348" lon="-6.102781053632498">
        <ele>459.79998779296875</ele>
        <time>2015-12-07T15:36:42.000Z</time>
      </trkpt>
      <trkpt lat="39.86302047036588" lon="-6.102953385561705">
        <ele>459.79998779296875</ele>
        <time>2015-12-07T15:36:45.000Z</time>
      </trkpt>
      <trkpt lat="39.86300177872181" lon="-6.103006023913622">
        <ele>460.20001220703125</ele>
        <time>2015-12-07T15:36:46.000Z</time>
      </trkpt>
      <trkpt lat="39.862949727103114" lon="-6.103147007524967">
        <ele>461.20001220703125</ele>
        <time>2015-12-07T15:36:49.000Z</time>
      </trkpt>
      <trkpt lat="39.86283120699227" lon="-6.10339879989624">
        <ele>464.20001220703125</ele>
        <time>2015-12-07T15:36:55.000Z</time>
      </trkpt>
      <trkpt lat="39.86271603964269" lon="-6.103691915050149">
        <ele>467.0</ele>
        <time>2015-12-07T15:37:01.000Z</time>
      </trkpt>
      <trkpt lat="39.86270564608276" lon="-6.1037444695830345">
        <ele>467.0</ele>
        <time>2015-12-07T15:37:02.000Z</time>
      </trkpt>
      <trkpt lat="39.862690810114145" lon="-6.103959968313575">
        <ele>467.0</ele>
        <time>2015-12-07T15:37:06.000Z</time>
      </trkpt>
      <trkpt lat="39.86272676847875" lon="-6.104148980230093">
        <ele>466.20001220703125</ele>
        <time>2015-12-07T15:37:10.000Z</time>
      </trkpt>
      <trkpt lat="39.8627657443285" lon="-6.104330867528915">
        <ele>465.79998779296875</ele>
        <time>2015-12-07T15:37:13.000Z</time>
      </trkpt>
      <trkpt lat="39.86278334632516" lon="-6.104385266080499">
        <ele>465.6000061035156</ele>
        <time>2015-12-07T15:37:14.000Z</time>
      </trkpt>
      <trkpt lat="39.86282039433718" lon="-6.104491129517555">
        <ele>465.0</ele>
        <time>2015-12-07T15:37:16.000Z</time>
      </trkpt>
      <trkpt lat="39.862926844507456" lon="-6.104953810572624">
        <ele>462.20001220703125</ele>
        <time>2015-12-07T15:37:24.000Z</time>
      </trkpt>
      <trkpt lat="39.862928772345185" lon="-6.1050111427903175">
        <ele>461.79998779296875</ele>
        <time>2015-12-07T15:37:25.000Z</time>
      </trkpt>
      <trkpt lat="39.86290312372148" lon="-6.105254972353578">
        <ele>461.3999938964844</ele>
        <time>2015-12-07T15:37:29.000Z</time>
      </trkpt>
      <trkpt lat="39.86280287615955" lon="-6.1056561302393675">
        <ele>462.20001220703125</ele>
        <time>2015-12-07T15:37:35.000Z</time>
      </trkpt>
      <trkpt lat="39.862794913351536" lon="-6.1057250294834375">
        <ele>462.20001220703125</ele>
        <time>2015-12-07T15:37:36.000Z</time>
      </trkpt>
      <trkpt lat="39.86278829164803" lon="-6.105923596769571">
        <ele>462.3999938964844</ele>
        <time>2015-12-07T15:37:39.000Z</time>
      </trkpt>
      <trkpt lat="39.86278376542032" lon="-6.106128785759211">
        <ele>462.6000061035156</ele>
        <time>2015-12-07T15:37:42.000Z</time>
      </trkpt>
      <trkpt lat="39.86276037991047" lon="-6.106325006112456">
        <ele>463.0</ele>
        <time>2015-12-07T15:37:45.000Z</time>
      </trkpt>
      <trkpt lat="39.862754764035344" lon="-6.106395497918129">
        <ele>463.20001220703125</ele>
        <time>2015-12-07T15:37:46.000Z</time>
      </trkpt>
      <trkpt lat="39.86277219839394" lon="-6.106659444049001">
        <ele>461.0</ele>
        <time>2015-12-07T15:37:50.000Z</time>
      </trkpt>
      <trkpt lat="39.86278887838125" lon="-6.106787100434303">
        <ele>459.79998779296875</ele>
        <time>2015-12-07T15:37:52.000Z</time>
      </trkpt>
      <trkpt lat="39.862800277769566" lon="-6.10704593360424">
        <ele>458.20001220703125</ele>
        <time>2015-12-07T15:37:56.000Z</time>
      </trkpt>
      <trkpt lat="39.86279474571347" lon="-6.107170907780528">
        <ele>457.3999938964844</ele>
        <time>2015-12-07T15:37:58.000Z</time>
      </trkpt>
      <trkpt lat="39.86275945790112" lon="-6.107424963265657">
        <ele>456.0</ele>
        <time>2015-12-07T15:38:02.000Z</time>
      </trkpt>
      <trkpt lat="39.86270464025438" lon="-6.107749678194523">
        <ele>455.6000061035156</ele>
        <time>2015-12-07T15:38:07.000Z</time>
      </trkpt>
      <trkpt lat="39.862653594464064" lon="-6.107936929911375">
        <ele>455.6000061035156</ele>
        <time>2015-12-07T15:38:10.000Z</time>
      </trkpt>
      <trkpt lat="39.86262886784971" lon="-6.107999961823225">
        <ele>455.79998779296875</ele>
        <time>2015-12-07T15:38:11.000Z</time>
      </trkpt>
      <trkpt lat="39.86250347457826" lon="-6.10828117467463">
        <ele>454.79998779296875</ele>
        <time>2015-12-07T15:38:16.000Z</time>
      </trkpt>
      <trkpt lat="39.86225629225373" lon="-6.1087617091834545">
        <ele>452.0</ele>
        <time>2015-12-07T15:38:25.000Z</time>
      </trkpt>
      <trkpt lat="39.861989160999656" lon="-6.109203603118658">
        <ele>449.0</ele>
        <time>2015-12-07T15:38:33.000Z</time>
      </trkpt>
      <trkpt lat="39.86169998534024" lon="-6.109688580036163">
        <ele>440.20001220703125</ele>
        <time>2015-12-07T15:38:42.000Z</time>
      </trkpt>
      <trkpt lat="39.86153000034392" lon="-6.109962752088904">
        <ele>436.6000061035156</ele>
        <time>2015-12-07T15:38:47.000Z</time>
      </trkpt>
      <trkpt lat="39.861500076949596" lon="-6.110028633847833">
        <ele>436.20001220703125</ele>
        <time>2015-12-07T15:38:48.000Z</time>
      </trkpt>
      <trkpt lat="39.86128667369485" lon="-6.110539427027106">
        <ele>433.0</ele>
        <time>2015-12-07T15:38:55.000Z</time>
      </trkpt>
      <trkpt lat="39.86107561737299" lon="-6.111221043393016">
        <ele>430.6000061035156</ele>
        <time>2015-12-07T15:39:03.000Z</time>
      </trkpt>
      <trkpt lat="39.860911751165986" lon="-6.111992597579956">
        <ele>429.79998779296875</ele>
        <time>2015-12-07T15:39:11.000Z</time>
      </trkpt>
      <trkpt lat="39.86076791770756" lon="-6.112721571698785">
        <ele>426.6000061035156</ele>
        <time>2015-12-07T15:39:18.000Z</time>
      </trkpt>
      <trkpt lat="39.860753919929266" lon="-6.112821567803621">
        <ele>426.0</ele>
        <time>2015-12-07T15:39:19.000Z</time>
      </trkpt>
      <trkpt lat="39.860620899125934" lon="-6.1135845724493265">
        <ele>422.6000061035156</ele>
        <time>2015-12-07T15:39:26.000Z</time>
      </trkpt>
      <trkpt lat="39.860467091202736" lon="-6.114241294562817">
        <ele>421.0</ele>
        <time>2015-12-07T15:39:32.000Z</time>
      </trkpt>
      <trkpt lat="39.860273050144315" lon="-6.114859459921718">
        <ele>420.0</ele>
        <time>2015-12-07T15:39:38.000Z</time>
      </trkpt>
      <trkpt lat="39.86005864106119" lon="-6.115469075739384">
        <ele>417.20001220703125</ele>
        <time>2015-12-07T15:39:44.000Z</time>
      </trkpt>
      <trkpt lat="39.8599957767874" lon="-6.115693375468254">
        <ele>416.20001220703125</ele>
        <time>2015-12-07T15:39:46.000Z</time>
      </trkpt>
      <trkpt lat="39.859877340495586" lon="-6.116150692105293">
        <ele>413.20001220703125</ele>
        <time>2015-12-07T15:39:50.000Z</time>
      </trkpt>
      <trkpt lat="39.85974758863449" lon="-6.116891568526626">
        <ele>410.3999938964844</ele>
        <time>2015-12-07T15:39:56.000Z</time>
      </trkpt>
      <trkpt lat="39.859673492610455" lon="-6.117657842114568">
        <ele>406.79998779296875</ele>
        <time>2015-12-07T15:40:02.000Z</time>
      </trkpt>
      <trkpt lat="39.85967332497239" lon="-6.11842218786478">
        <ele>402.3999938964844</ele>
        <time>2015-12-07T15:40:08.000Z</time>
      </trkpt>
      <trkpt lat="39.8596884123981" lon="-6.1185181606560946">
        <ele>401.79998779296875</ele>
        <time>2015-12-07T15:40:09.000Z</time>
      </trkpt>
      <trkpt lat="39.85972328111529" lon="-6.1186733935028315">
        <ele>401.3999938964844</ele>
        <time>2015-12-07T15:40:11.000Z</time>
      </trkpt>
      <trkpt lat="39.85966796055436" lon="-6.118803396821022">
        <ele>398.6000061035156</ele>
        <time>2015-12-07T15:40:14.000Z</time>
      </trkpt>
      <trkpt lat="39.85955555923283" lon="-6.118720164522529">
        <ele>396.0</ele>
        <time>2015-12-07T15:40:17.000Z</time>
      </trkpt>
      <trkpt lat="39.85949143767357" lon="-6.118574235588312">
        <ele>396.3999938964844</ele>
        <time>2015-12-07T15:40:19.000Z</time>
      </trkpt>
      <trkpt lat="39.85941658727825" lon="-6.118402071297169">
        <ele>396.79998779296875</ele>
        <time>2015-12-07T15:40:21.000Z</time>
      </trkpt>
      <trkpt lat="39.85919832251966" lon="-6.1178896855562925">
        <ele>395.6000061035156</ele>
        <time>2015-12-07T15:40:26.000Z</time>
      </trkpt>
      <trkpt lat="39.85898642800748" lon="-6.117433961480856">
        <ele>393.0</ele>
        <time>2015-12-07T15:40:30.000Z</time>
      </trkpt>
      <trkpt lat="39.85891249962151" lon="-6.117320638149977">
        <ele>392.20001220703125</ele>
        <time>2015-12-07T15:40:31.000Z</time>
      </trkpt>
      <trkpt lat="39.85864260233939" lon="-6.117098266258836">
        <ele>388.3999938964844</ele>
        <time>2015-12-07T15:40:34.000Z</time>
      </trkpt>
      <trkpt lat="39.85844428651035" lon="-6.11697974614799">
        <ele>386.3999938964844</ele>
        <time>2015-12-07T15:40:36.000Z</time>
      </trkpt>
      <trkpt lat="39.858285281807184" lon="-6.11691864207387">
        <ele>384.6000061035156</ele>
        <time>2015-12-07T15:40:38.000Z</time>
      </trkpt>
      <trkpt lat="39.858170952647924" lon="-6.116944961249828">
        <ele>383.20001220703125</ele>
        <time>2015-12-07T15:40:40.000Z</time>
      </trkpt>
      <trkpt lat="39.858130887150764" lon="-6.117013609036803">
        <ele>382.6000061035156</ele>
        <time>2015-12-07T15:40:41.000Z</time>
      </trkpt>
      <trkpt lat="39.85808570869267" lon="-6.117267329245806">
        <ele>381.3999938964844</ele>
        <time>2015-12-07T15:40:44.000Z</time>
      </trkpt>
      <trkpt lat="39.858090402558446" lon="-6.117360703647137">
        <ele>381.20001220703125</ele>
        <time>2015-12-07T15:40:45.000Z</time>
      </trkpt>
      <trkpt lat="39.858119236305356" lon="-6.117450222373009">
        <ele>381.20001220703125</ele>
        <time>2015-12-07T15:40:46.000Z</time>
      </trkpt>
      <trkpt lat="39.85820146277547" lon="-6.117628002539277">
        <ele>381.79998779296875</ele>
        <time>2015-12-07T15:40:48.000Z</time>
      </trkpt>
      <trkpt lat="39.85832450911403" lon="-6.117775859311223">
        <ele>382.79998779296875</ele>
        <time>2015-12-07T15:40:50.000Z</time>
      </trkpt>
      <trkpt lat="39.85838410444558" lon="-6.117847189307213">
        <ele>383.20001220703125</ele>
        <time>2015-12-07T15:40:51.000Z</time>
      </trkpt>
      <trkpt lat="39.85843129456043" lon="-6.1179326847195625">
        <ele>383.3999938964844</ele>
        <time>2015-12-07T15:40:52.000Z</time>
      </trkpt>
      <trkpt lat="39.85846549272537" lon="-6.118140807375312">
        <ele>383.0</ele>
        <time>2015-12-07T15:40:54.000Z</time>
      </trkpt>
      <trkpt lat="39.85841503366828" lon="-6.11846518702805">
        <ele>380.79998779296875</ele>
        <time>2015-12-07T15:40:57.000Z</time>
      </trkpt>
      <trkpt lat="39.858393156901" lon="-6.118582785129547">
        <ele>379.79998779296875</ele>
        <time>2015-12-07T15:40:58.000Z</time>
      </trkpt>
      <trkpt lat="39.858285868540406" lon="-6.1193329654634">
        <ele>375.3999938964844</ele>
        <time>2015-12-07T15:41:04.000Z</time>
      </trkpt>
      <trkpt lat="39.85831243917346" lon="-6.119548548012972">
        <ele>373.6000061035156</ele>
        <time>2015-12-07T15:41:06.000Z</time>
      </trkpt>
      <trkpt lat="39.858362479135394" lon="-6.119637060910463">
        <ele>372.79998779296875</ele>
        <time>2015-12-07T15:41:07.000Z</time>
      </trkpt>
      <trkpt lat="39.85857688821852" lon="-6.119816266000271">
        <ele>372.20001220703125</ele>
        <time>2015-12-07T15:41:10.000Z</time>
      </trkpt>
      <trkpt lat="39.85883563756943" lon="-6.120018772780895">
        <ele>375.6000061035156</ele>
        <time>2015-12-07T15:41:14.000Z</time>
      </trkpt>
      <trkpt lat="39.858861872926354" lon="-6.120226476341486">
        <ele>377.79998779296875</ele>
        <time>2015-12-07T15:41:17.000Z</time>
      </trkpt>
      <trkpt lat="39.8587454482913" lon="-6.12038204446435">
        <ele>378.0</ele>
        <time>2015-12-07T15:41:20.000Z</time>
      </trkpt>
      <trkpt lat="39.85869884490967" lon="-6.120376260951161">
        <ele>377.79998779296875</ele>
        <time>2015-12-07T15:41:21.000Z</time>
      </trkpt>
      <trkpt lat="39.858605805784464" lon="-6.120397299528122">
        <ele>377.79998779296875</ele>
        <time>2015-12-07T15:41:23.000Z</time>
      </trkpt>
      <trkpt lat="39.85851670615375" lon="-6.12041674554348">
        <ele>378.0</ele>
        <time>2015-12-07T15:41:25.000Z</time>
      </trkpt>
      <trkpt lat="39.858336662873626" lon="-6.120490590110421">
        <ele>378.3999938964844</ele>
        <time>2015-12-07T15:41:29.000Z</time>
      </trkpt>
      <trkpt lat="39.85804011113942" lon="-6.120644733309746">
        <ele>379.79998779296875</ele>
        <time>2015-12-07T15:41:36.000Z</time>
      </trkpt>
      <trkpt lat="39.85775697045028" lon="-6.120832739397883">
        <ele>381.6000061035156</ele>
        <time>2015-12-07T15:41:45.000Z</time>
      </trkpt>
      <trkpt lat="39.85761213116348" lon="-6.120980009436607">
        <ele>383.0</ele>
        <time>2015-12-07T15:41:51.000Z</time>
      </trkpt>
      <trkpt lat="39.857452707365155" lon="-6.121177487075329">
        <ele>385.20001220703125</ele>
        <time>2015-12-07T15:41:58.000Z</time>
      </trkpt>
      <trkpt lat="39.857312394306064" lon="-6.1213001143187284">
        <ele>386.20001220703125</ele>
        <time>2015-12-07T15:42:04.000Z</time>
      </trkpt>
      <trkpt lat="39.857140900567174" lon="-6.1214345600456">
        <ele>387.3999938964844</ele>
        <time>2015-12-07T15:42:12.000Z</time>
      </trkpt>
      <trkpt lat="39.856959180906415" lon="-6.121605886146426">
        <ele>388.3999938964844</ele>
        <time>2015-12-07T15:42:21.000Z</time>
      </trkpt>
      <trkpt lat="39.85683185979724" lon="-6.121767656877637">
        <ele>389.79998779296875</ele>
        <time>2015-12-07T15:42:28.000Z</time>
      </trkpt>
      <trkpt lat="39.85666581429541" lon="-6.12209714949131">
        <ele>392.6000061035156</ele>
        <time>2015-12-07T15:42:39.000Z</time>
      </trkpt>
      <trkpt lat="39.856571182608604" lon="-6.122433599084616">
        <ele>394.3999938964844</ele>
        <time>2015-12-07T15:42:49.000Z</time>
      </trkpt>
      <trkpt lat="39.8565455339849" lon="-6.1227623373270035">
        <ele>395.20001220703125</ele>
        <time>2015-12-07T15:42:57.000Z</time>
      </trkpt>
      <trkpt lat="39.85656179487705" lon="-6.123134158551693">
        <ele>397.3999938964844</ele>
        <time>2015-12-07T15:43:06.000Z</time>
      </trkpt>
      <trkpt lat="39.85654762946069" lon="-6.123396093025804">
        <ele>398.20001220703125</ele>
        <time>2015-12-07T15:43:12.000Z</time>
      </trkpt>
      <trkpt lat="39.856474455446005" lon="-6.123686609789729">
        <ele>399.0</ele>
        <time>2015-12-07T15:43:19.000Z</time>
      </trkpt>
      <trkpt lat="39.85638334415853" lon="-6.124151721596718">
        <ele>400.3999938964844</ele>
        <time>2015-12-07T15:43:29.000Z</time>
      </trkpt>
      <trkpt lat="39.856385523453355" lon="-6.12452513538301">
        <ele>402.20001220703125</ele>
        <time>2015-12-07T15:43:36.000Z</time>
      </trkpt>
      <trkpt lat="39.85637504607439" lon="-6.124985804781318">
        <ele>403.6000061035156</ele>
        <time>2015-12-07T15:43:44.000Z</time>
      </trkpt>
      <trkpt lat="39.856352247297764" lon="-6.12508412450552">
        <ele>404.20001220703125</ele>
        <time>2015-12-07T15:43:46.000Z</time>
      </trkpt>
      <trkpt lat="39.85634763725102" lon="-6.125131566077471">
        <ele>404.6000061035156</ele>
        <time>2015-12-07T15:43:47.000Z</time>
      </trkpt>
      <trkpt lat="39.85637747682631" lon="-6.125196777284145">
        <ele>404.79998779296875</ele>
        <time>2015-12-07T15:43:49.000Z</time>
      </trkpt>
      <trkpt lat="39.856435395777225" lon="-6.125204656273127">
        <ele>404.6000061035156</ele>
        <time>2015-12-07T15:43:51.000Z</time>
      </trkpt>
      <trkpt lat="39.856513012200594" lon="-6.125181019306183">
        <ele>404.0</ele>
        <time>2015-12-07T15:43:53.000Z</time>
      </trkpt>
      <trkpt lat="39.85668869689107" lon="-6.125070545822382">
        <ele>402.6000061035156</ele>
        <time>2015-12-07T15:43:58.000Z</time>
      </trkpt>
      <trkpt lat="39.856807719916105" lon="-6.1248919274657965">
        <ele>401.0</ele>
        <time>2015-12-07T15:44:03.000Z</time>
      </trkpt>
      <trkpt lat="39.85684376209974" lon="-6.124869296327233">
        <ele>400.6000061035156</ele>
        <time>2015-12-07T15:44:04.000Z</time>
      </trkpt>
      <trkpt lat="39.85706646926701" lon="-6.124710459262133">
        <ele>399.0</ele>
        <time>2015-12-07T15:44:08.000Z</time>
      </trkpt>
      <trkpt lat="39.85724290832877" lon="-6.124548688530922">
        <ele>397.6000061035156</ele>
        <time>2015-12-07T15:44:11.000Z</time>
      </trkpt>
      <trkpt lat="39.857401829212904" lon="-6.124350372701883">
        <ele>396.3999938964844</ele>
        <time>2015-12-07T15:44:14.000Z</time>
      </trkpt>
      <trkpt lat="39.85748288221657" lon="-6.124209053814411">
        <ele>395.79998779296875</ele>
        <time>2015-12-07T15:44:16.000Z</time>
      </trkpt>
      <trkpt lat="39.857565946877" lon="-6.124039655551314">
        <ele>395.20001220703125</ele>
        <time>2015-12-07T15:44:18.000Z</time>
      </trkpt>
      <trkpt lat="39.85773987136781" lon="-6.123743439093232">
        <ele>394.6000061035156</ele>
        <time>2015-12-07T15:44:22.000Z</time>
      </trkpt>
      <trkpt lat="39.85789359547198" lon="-6.123666409403086">
        <ele>393.20001220703125</ele>
        <time>2015-12-07T15:44:25.000Z</time>
      </trkpt>
      <trkpt lat="39.858086882159114" lon="-6.123594073578715">
        <ele>390.3999938964844</ele>
        <time>2015-12-07T15:44:28.000Z</time>
      </trkpt>
      <trkpt lat="39.85816282220185" lon="-6.123551661148667">
        <ele>389.3999938964844</ele>
        <time>2015-12-07T15:44:29.000Z</time>
      </trkpt>
      <trkpt lat="39.858596585690975" lon="-6.123319985345006">
        <ele>383.20001220703125</ele>
        <time>2015-12-07T15:44:34.000Z</time>
      </trkpt>
      <trkpt lat="39.85872005112469" lon="-6.1232624016702175">
        <ele>381.6000061035156</ele>
        <time>2015-12-07T15:44:36.000Z</time>
      </trkpt>
      <trkpt lat="39.85876237973571" lon="-6.123258797451854">
        <ele>381.6000061035156</ele>
        <time>2015-12-07T15:44:37.000Z</time>
      </trkpt>
      <trkpt lat="39.858881905674934" lon="-6.123304478824139">
        <ele>381.79998779296875</ele>
        <time>2015-12-07T15:44:41.000Z</time>
      </trkpt>
      <trkpt lat="39.858962036669254" lon="-6.123276734724641">
        <ele>382.20001220703125</ele>
        <time>2015-12-07T15:44:45.000Z</time>
      </trkpt>
      <trkpt lat="39.859026577323675" lon="-6.123177912086248">
        <ele>382.79998779296875</ele>
        <time>2015-12-07T15:44:49.000Z</time>
      </trkpt>
      <trkpt lat="39.859202513471246" lon="-6.122982865199447">
        <ele>383.20001220703125</ele>
        <time>2015-12-07T15:44:57.000Z</time>
      </trkpt>
      <trkpt lat="39.8593810480088" lon="-6.1229051649570465">
        <ele>383.3999938964844</ele>
        <time>2015-12-07T15:45:04.000Z</time>
      </trkpt>
      <trkpt lat="39.85956251621246" lon="-6.122834924608469">
        <ele>383.79998779296875</ele>
        <time>2015-12-07T15:45:12.000Z</time>
      </trkpt>
      <trkpt lat="39.8597264662385" lon="-6.122757392004132">
        <ele>384.79998779296875</ele>
        <time>2015-12-07T15:45:19.000Z</time>
      </trkpt>
      <trkpt lat="39.8598921764642" lon="-6.1227102018892765">
        <ele>386.0</ele>
        <time>2015-12-07T15:45:27.000Z</time>
      </trkpt>
      <trkpt lat="39.860008265823126" lon="-6.122705843299627">
        <ele>387.6000061035156</ele>
        <time>2015-12-07T15:45:33.000Z</time>
      </trkpt>
      <trkpt lat="39.86017799936235" lon="-6.122731743380427">
        <ele>392.0</ele>
        <time>2015-12-07T15:45:39.000Z</time>
      </trkpt>
      <trkpt lat="39.86035133711994" lon="-6.12271280027926">
        <ele>395.6000061035156</ele>
        <time>2015-12-07T15:45:44.000Z</time>
      </trkpt>
      <trkpt lat="39.86049986444414" lon="-6.122668795287609">
        <ele>396.6000061035156</ele>
        <time>2015-12-07T15:45:50.000Z</time>
      </trkpt>
      <trkpt lat="39.86051863990724" lon="-6.122646247968078">
        <ele>396.20001220703125</ele>
        <time>2015-12-07T15:45:51.000Z</time>
      </trkpt>
      <trkpt lat="39.86060027964413" lon="-6.122594028711319">
        <ele>396.0</ele>
        <time>2015-12-07T15:45:55.000Z</time>
      </trkpt>
      <trkpt lat="39.86075073480606" lon="-6.1225152388215065">
        <ele>395.79998779296875</ele>
        <time>2015-12-07T15:46:02.000Z</time>
      </trkpt>
      <trkpt lat="39.860832961276174" lon="-6.122416164726019">
        <ele>394.3999938964844</ele>
        <time>2015-12-07T15:46:08.000Z</time>
      </trkpt>
      <trkpt lat="39.860927844420075" lon="-6.122253639623523">
        <ele>392.6000061035156</ele>
        <time>2015-12-07T15:46:16.000Z</time>
      </trkpt>
      <trkpt lat="39.86100973561406" lon="-6.12208005040884">
        <ele>395.3999938964844</ele>
        <time>2015-12-07T15:46:24.000Z</time>
      </trkpt>
      <trkpt lat="39.86107176169753" lon="-6.121922805905342">
        <ele>397.79998779296875</ele>
        <time>2015-12-07T15:46:31.000Z</time>
      </trkpt>
      <trkpt lat="39.86114845611155" lon="-6.121778134256601">
        <ele>400.20001220703125</ele>
        <time>2015-12-07T15:46:38.000Z</time>
      </trkpt>
      <trkpt lat="39.86124903894961" lon="-6.121633462607861">
        <ele>402.6000061035156</ele>
        <time>2015-12-07T15:46:46.000Z</time>
      </trkpt>
      <trkpt lat="39.861350543797016" lon="-6.121500860899687">
        <ele>403.6000061035156</ele>
        <time>2015-12-07T15:46:53.000Z</time>
      </trkpt>
      <trkpt lat="39.86144953407347" lon="-6.121350824832916">
        <ele>404.79998779296875</ele>
        <time>2015-12-07T15:47:02.000Z</time>
      </trkpt>
      <trkpt lat="39.8614776134491" lon="-6.121282931417227">
        <ele>405.20001220703125</ele>
        <time>2015-12-07T15:47:06.000Z</time>
      </trkpt>
      <trkpt lat="39.861484905704856" lon="-6.1212188098579645">
        <ele>405.79998779296875</ele>
        <time>2015-12-07T15:47:09.000Z</time>
      </trkpt>
      <trkpt lat="39.86149043776095" lon="-6.121199782937765">
        <ele>406.0</ele>
        <time>2015-12-07T15:47:10.000Z</time>
      </trkpt>
      <trkpt lat="39.86151575110853" lon="-6.1210806760936975">
        <ele>407.6000061035156</ele>
        <time>2015-12-07T15:47:16.000Z</time>
      </trkpt>
      <trkpt lat="39.86154089681804" lon="-6.120996521785855">
        <ele>408.79998779296875</ele>
        <time>2015-12-07T15:47:21.000Z</time>
      </trkpt>
      <trkpt lat="39.86154609359801" lon="-6.120957126840949">
        <ele>409.3999938964844</ele>
        <time>2015-12-07T15:47:23.000Z</time>
      </trkpt>
      <trkpt lat="39.86157400533557" lon="-6.120867859572172">
        <ele>410.6000061035156</ele>
        <time>2015-12-07T15:47:26.000Z</time>
      </trkpt>
      <trkpt lat="39.86159747466445" lon="-6.120802816003561">
        <ele>411.6000061035156</ele>
        <time>2015-12-07T15:47:28.000Z</time>
      </trkpt>
      <trkpt lat="39.861687161028385" lon="-6.120623862370849">
        <ele>413.6000061035156</ele>
        <time>2015-12-07T15:47:34.000Z</time>
      </trkpt>
      <trkpt lat="39.86178548075259" lon="-6.120412051677704">
        <ele>415.20001220703125</ele>
        <time>2015-12-07T15:47:42.000Z</time>
      </trkpt>
      <trkpt lat="39.86187516711652" lon="-6.120212813839316">
        <ele>416.6000061035156</ele>
        <time>2015-12-07T15:47:50.000Z</time>
      </trkpt>
      <trkpt lat="39.861995447427034" lon="-6.11997309140861">
        <ele>418.20001220703125</ele>
        <time>2015-12-07T15:47:59.000Z</time>
      </trkpt>
      <trkpt lat="39.862117655575275" lon="-6.119729094207287">
        <ele>419.79998779296875</ele>
        <time>2015-12-07T15:48:07.000Z</time>
      </trkpt>
      <trkpt lat="39.862198792397976" lon="-6.119543435052037">
        <ele>421.3999938964844</ele>
        <time>2015-12-07T15:48:13.000Z</time>
      </trkpt>
      <trkpt lat="39.86226928420365" lon="-6.119363307952881">
        <ele>423.3999938964844</ele>
        <time>2015-12-07T15:48:19.000Z</time>
      </trkpt>
      <trkpt lat="39.862340446561575" lon="-6.119158454239368">
        <ele>425.6000061035156</ele>
        <time>2015-12-07T15:48:26.000Z</time>
      </trkpt>
      <trkpt lat="39.86238813959062" lon="-6.1190577037632465">
        <ele>426.6000061035156</ele>
        <time>2015-12-07T15:48:30.000Z</time>
      </trkpt>
      <trkpt lat="39.86245209351182" lon="-6.118883695453405">
        <ele>428.20001220703125</ele>
        <time>2015-12-07T15:48:36.000Z</time>
      </trkpt>
      <trkpt lat="39.862540857866406" lon="-6.118757044896483">
        <ele>428.0</ele>
        <time>2015-12-07T15:48:41.000Z</time>
      </trkpt>
      <trkpt lat="39.862641943618655" lon="-6.11863911151886">
        <ele>427.3999938964844</ele>
        <time>2015-12-07T15:48:46.000Z</time>
      </trkpt>
      <trkpt lat="39.86269533634186" lon="-6.118454458191991">
        <ele>428.6000061035156</ele>
        <time>2015-12-07T15:48:52.000Z</time>
      </trkpt>
      <trkpt lat="39.86269298940897" lon="-6.118216244503856">
        <ele>432.0</ele>
        <time>2015-12-07T15:48:59.000Z</time>
      </trkpt>
      <trkpt lat="39.86269449815154" lon="-6.11805422231555">
        <ele>434.3999938964844</ele>
        <time>2015-12-07T15:49:04.000Z</time>
      </trkpt>
      <trkpt lat="39.86272291280329" lon="-6.1178081296384335">
        <ele>436.6000061035156</ele>
        <time>2015-12-07T15:49:11.000Z</time>
      </trkpt>
      <trkpt lat="39.86275903880596" lon="-6.117582656443119">
        <ele>438.3999938964844</ele>
        <time>2015-12-07T15:49:18.000Z</time>
      </trkpt>
      <trkpt lat="39.8627847712487" lon="-6.1173283495008945">
        <ele>441.0</ele>
        <time>2015-12-07T15:49:26.000Z</time>
      </trkpt>
      <trkpt lat="39.86280103214085" lon="-6.117132464423776">
        <ele>442.3999938964844</ele>
        <time>2015-12-07T15:49:33.000Z</time>
      </trkpt>
      <trkpt lat="39.86278250813484" lon="-6.1169325560331345">
        <ele>444.3999938964844</ele>
        <time>2015-12-07T15:49:40.000Z</time>
      </trkpt>
      <trkpt lat="39.862771946936846" lon="-6.116825686767697">
        <ele>445.6000061035156</ele>
        <time>2015-12-07T15:49:45.000Z</time>
      </trkpt>
      <trkpt lat="39.86275224946439" lon="-6.116702640429139">
        <ele>447.20001220703125</ele>
        <time>2015-12-07T15:49:50.000Z</time>
      </trkpt>
      <trkpt lat="39.86274713650346" lon="-6.116642793640494">
        <ele>447.79998779296875</ele>
        <time>2015-12-07T15:49:54.000Z</time>
      </trkpt>
      <trkpt lat="39.86269977875054" lon="-6.116542126983404">
        <ele>449.6000061035156</ele>
        <time>2015-12-07T15:49:59.000Z</time>
      </trkpt>
      <trkpt lat="39.86264077015221" lon="-6.116453362628818">
        <ele>451.6000061035156</ele>
        <time>2015-12-07T15:50:05.000Z</time>
      </trkpt>
      <trkpt lat="39.86261093057692" lon="-6.116392593830824">
        <ele>452.6000061035156</ele>
        <time>2015-12-07T15:50:10.000Z</time>
      </trkpt>
      <trkpt lat="39.862604727968574" lon="-6.116377003490925">
        <ele>452.79998779296875</ele>
        <time>2015-12-07T15:50:11.000Z</time>
      </trkpt>
      <trkpt lat="39.862570110708475" lon="-6.116314139217138">
        <ele>453.79998779296875</ele>
        <time>2015-12-07T15:50:15.000Z</time>
      </trkpt>
      <trkpt lat="39.8625551071018" lon="-6.1162760853767395">
        <ele>454.20001220703125</ele>
        <time>2015-12-07T15:50:17.000Z</time>
      </trkpt>
      <trkpt lat="39.862541779875755" lon="-6.116172568872571">
        <ele>455.0</ele>
        <time>2015-12-07T15:50:23.000Z</time>
      </trkpt>
      <trkpt lat="39.8625445459038" lon="-6.116154044866562">
        <ele>455.0</ele>
        <time>2015-12-07T15:50:24.000Z</time>
      </trkpt>
      <trkpt lat="39.86256390810013" lon="-6.116083050146699">
        <ele>454.79998779296875</ele>
        <time>2015-12-07T15:50:28.000Z</time>
      </trkpt>
      <trkpt lat="39.86259425058961" lon="-6.116005517542362">
        <ele>454.3999938964844</ele>
        <time>2015-12-07T15:50:33.000Z</time>
      </trkpt>
      <trkpt lat="39.86260757781565" lon="-6.115980036556721">
        <ele>454.20001220703125</ele>
        <time>2015-12-07T15:50:35.000Z</time>
      </trkpt>
      <trkpt lat="39.862653426826" lon="-6.115884901955724">
        <ele>453.3999938964844</ele>
        <time>2015-12-07T15:50:40.000Z</time>
      </trkpt>
      <trkpt lat="39.86267890781164" lon="-6.115835700184107">
        <ele>453.0</ele>
        <time>2015-12-07T15:50:42.000Z</time>
      </trkpt>
      <trkpt lat="39.86274520866573" lon="-6.115793455392122">
        <ele>451.6000061035156</ele>
        <time>2015-12-07T15:50:45.000Z</time>
      </trkpt>
      <trkpt lat="39.86278175376356" lon="-6.1157910246402025">
        <ele>450.79998779296875</ele>
        <time>2015-12-07T15:50:46.000Z</time>
      </trkpt>
      <trkpt lat="39.862857358530164" lon="-6.115808794274926">
        <ele>449.0</ele>
        <time>2015-12-07T15:50:48.000Z</time>
      </trkpt>
      <trkpt lat="39.86312055028975" lon="-6.115938210859895">
        <ele>447.20001220703125</ele>
        <time>2015-12-07T15:50:54.000Z</time>
      </trkpt>
      <trkpt lat="39.86315391026437" lon="-6.115959081798792">
        <ele>447.0</ele>
        <time>2015-12-07T15:50:55.000Z</time>
      </trkpt>
      <trkpt lat="39.863247871398926" lon="-6.116027142852545">
        <ele>446.6000061035156</ele>
        <time>2015-12-07T15:50:58.000Z</time>
      </trkpt>
      <trkpt lat="39.86327544786036" lon="-6.116052372381091">
        <ele>446.3999938964844</ele>
        <time>2015-12-07T15:50:59.000Z</time>
      </trkpt>
      <trkpt lat="39.86329548060894" lon="-6.116074584424496">
        <ele>446.20001220703125</ele>
        <time>2015-12-07T15:51:00.000Z</time>
      </trkpt>
      <trkpt lat="39.86333956941962" lon="-6.116136023774743">
        <ele>445.6000061035156</ele>
        <time>2015-12-07T15:51:04.000Z</time>
      </trkpt>
      <trkpt lat="39.86333856359124" lon="-6.1161314975470304">
        <ele>445.6000061035156</ele>
        <time>2015-12-07T15:51:06.000Z</time>
      </trkpt>
      <trkpt lat="39.86334635876119" lon="-6.116188075393438">
        <ele>445.3999938964844</ele>
        <time>2015-12-07T15:51:26.000Z</time>
      </trkpt>
      <trkpt lat="39.86334820277989" lon="-6.116267032921314">
        <ele>444.79998779296875</ele>
        <time>2015-12-07T15:51:28.000Z</time>
      </trkpt>
      <trkpt lat="39.86330570653081" lon="-6.116576660424471">
        <ele>442.79998779296875</ele>
        <time>2015-12-07T15:51:33.000Z</time>
      </trkpt>
      <trkpt lat="39.86323865130544" lon="-6.117080328986049">
        <ele>439.6000061035156</ele>
        <time>2015-12-07T15:51:38.000Z</time>
      </trkpt>
      <trkpt lat="39.8631748650223" lon="-6.117661613970995">
        <ele>434.20001220703125</ele>
        <time>2015-12-07T15:51:43.000Z</time>
      </trkpt>
      <trkpt lat="39.86311166547239" lon="-6.118297716602683">
        <ele>428.20001220703125</ele>
        <time>2015-12-07T15:51:48.000Z</time>
      </trkpt>
      <trkpt lat="39.86312088556588" lon="-6.118724858388305">
        <ele>423.3999938964844</ele>
        <time>2015-12-07T15:51:51.000Z</time>
      </trkpt>
      <trkpt lat="39.863098757341504" lon="-6.118880761787295">
        <ele>423.0</ele>
        <time>2015-12-07T15:51:52.000Z</time>
      </trkpt>
      <trkpt lat="39.8629747889936" lon="-6.119253924116492">
        <ele>419.0</ele>
        <time>2015-12-07T15:51:55.000Z</time>
      </trkpt>
      <trkpt lat="39.8629417642951" lon="-6.119391806423664">
        <ele>417.79998779296875</ele>
        <time>2015-12-07T15:51:56.000Z</time>
      </trkpt>
      <trkpt lat="39.86291645094752" lon="-6.119636222720146">
        <ele>416.0</ele>
        <time>2015-12-07T15:51:58.000Z</time>
      </trkpt>
      <trkpt lat="39.86289658583701" lon="-6.119867563247681">
        <ele>415.3999938964844</ele>
        <time>2015-12-07T15:52:00.000Z</time>
      </trkpt>
      <trkpt lat="39.86284629441798" lon="-6.120109464973211">
        <ele>415.3999938964844</ele>
        <time>2015-12-07T15:52:02.000Z</time>
      </trkpt>
      <trkpt lat="39.8627519980073" lon="-6.1205226089805365">
        <ele>415.3999938964844</ele>
        <time>2015-12-07T15:52:06.000Z</time>
      </trkpt>
      <trkpt lat="39.86274219118059" lon="-6.120621683076024">
        <ele>415.3999938964844</ele>
        <time>2015-12-07T15:52:07.000Z</time>
      </trkpt>
      <trkpt lat="39.86269977875054" lon="-6.12111353315413">
        <ele>414.0</ele>
        <time>2015-12-07T15:52:12.000Z</time>
      </trkpt>
      <trkpt lat="39.8626449611038" lon="-6.121672857552767">
        <ele>413.6000061035156</ele>
        <time>2015-12-07T15:52:18.000Z</time>
      </trkpt>
      <trkpt lat="39.86268041655421" lon="-6.12207468599081">
        <ele>413.79998779296875</ele>
        <time>2015-12-07T15:52:23.000Z</time>
      </trkpt>
      <trkpt lat="39.86280086450279" lon="-6.122428821399808">
        <ele>417.79998779296875</ele>
        <time>2015-12-07T15:52:28.000Z</time>
      </trkpt>
      <trkpt lat="39.86280061304569" lon="-6.122757056728005">
        <ele>419.3999938964844</ele>
        <time>2015-12-07T15:52:32.000Z</time>
      </trkpt>
      <trkpt lat="39.86275878734887" lon="-6.1229080986231565">
        <ele>419.79998779296875</ele>
        <time>2015-12-07T15:52:34.000Z</time>
      </trkpt>
      <trkpt lat="39.86274051479995" lon="-6.123072383925319">
        <ele>420.3999938964844</ele>
        <time>2015-12-07T15:52:36.000Z</time>
      </trkpt>
      <trkpt lat="39.86273607239127" lon="-6.12315846607089">
        <ele>421.20001220703125</ele>
        <time>2015-12-07T15:52:37.000Z</time>
      </trkpt>
      <trkpt lat="39.862716626375914" lon="-6.123333480209112">
        <ele>423.3999938964844</ele>
        <time>2015-12-07T15:52:39.000Z</time>
      </trkpt>
      <trkpt lat="39.86265325918794" lon="-6.123580159619451">
        <ele>425.3999938964844</ele>
        <time>2015-12-07T15:52:42.000Z</time>
      </trkpt>
      <trkpt lat="39.86249668523669" lon="-6.123821474611759">
        <ele>427.0</ele>
        <time>2015-12-07T15:52:46.000Z</time>
      </trkpt>
      <trkpt lat="39.86235084012151" lon="-6.12388257868588">
        <ele>426.79998779296875</ele>
        <time>2015-12-07T15:52:49.000Z</time>
      </trkpt>
      <trkpt lat="39.86230649985373" lon="-6.123895570635796">
        <ele>426.79998779296875</ele>
        <time>2015-12-07T15:52:50.000Z</time>
      </trkpt>
      <trkpt lat="39.86226341687143" lon="-6.123914597555995">
        <ele>426.79998779296875</ele>
        <time>2015-12-07T15:52:51.000Z</time>
      </trkpt>
      <trkpt lat="39.862147998064756" lon="-6.124014006927609">
        <ele>425.6000061035156</ele>
        <time>2015-12-07T15:52:54.000Z</time>
      </trkpt>
      <trkpt lat="39.86208069138229" lon="-6.124251885339618">
        <ele>422.6000061035156</ele>
        <time>2015-12-07T15:52:58.000Z</time>
      </trkpt>
      <trkpt lat="39.862134670838714" lon="-6.124612307175994">
        <ele>419.0</ele>
        <time>2015-12-07T15:53:02.000Z</time>
      </trkpt>
      <trkpt lat="39.86216383986175" lon="-6.124696712940931">
        <ele>418.6000061035156</ele>
        <time>2015-12-07T15:53:03.000Z</time>
      </trkpt>
      <trkpt lat="39.86235377378762" lon="-6.125133074820042">
        <ele>418.3999938964844</ele>
        <time>2015-12-07T15:53:08.000Z</time>
      </trkpt>
      <trkpt lat="39.862506575882435" lon="-6.12545938231051">
        <ele>419.79998779296875</ele>
        <time>2015-12-07T15:53:13.000Z</time>
      </trkpt>
      <trkpt lat="39.86254689283669" lon="-6.125618806108832">
        <ele>420.20001220703125</ele>
        <time>2015-12-07T15:53:17.000Z</time>
      </trkpt>
      <trkpt lat="39.8625566996634" lon="-6.1256535071879625">
        <ele>420.6000061035156</ele>
        <time>2015-12-07T15:53:18.000Z</time>
      </trkpt>
      <trkpt lat="39.862576397135854" lon="-6.125817876309156">
        <ele>421.0</ele>
        <time>2015-12-07T15:53:23.000Z</time>
      </trkpt>
      <trkpt lat="39.86260112375021" lon="-6.1261185351759195">
        <ele>421.79998779296875</ele>
        <time>2015-12-07T15:53:30.000Z</time>
      </trkpt>
      <trkpt lat="39.86259676516056" lon="-6.1264522187411785">
        <ele>422.0</ele>
        <time>2015-12-07T15:53:37.000Z</time>
      </trkpt>
      <trkpt lat="39.86257279291749" lon="-6.1267894227057695">
        <ele>419.79998779296875</ele>
        <time>2015-12-07T15:53:43.000Z</time>
      </trkpt>
      <trkpt lat="39.86258796416223" lon="-6.1272267904132605">
        <ele>418.79998779296875</ele>
        <time>2015-12-07T15:53:49.000Z</time>
      </trkpt>
      <trkpt lat="39.86262107267976" lon="-6.127588888630271">
        <ele>419.0</ele>
        <time>2015-12-07T15:53:54.000Z</time>
      </trkpt>
      <trkpt lat="39.86268075183034" lon="-6.127856690436602">
        <ele>419.6000061035156</ele>
        <time>2015-12-07T15:53:59.000Z</time>
      </trkpt>
      <trkpt lat="39.862713692709804" lon="-6.127945454791188">
        <ele>420.0</ele>
        <time>2015-12-07T15:54:01.000Z</time>
      </trkpt>
      <trkpt lat="39.862769935280085" lon="-6.128063639625907">
        <ele>421.0</ele>
        <time>2015-12-07T15:54:04.000Z</time>
      </trkpt>
      <trkpt lat="39.862792985513806" lon="-6.128099178895354">
        <ele>421.3999938964844</ele>
        <time>2015-12-07T15:54:05.000Z</time>
      </trkpt>
      <trkpt lat="39.86298090778291" lon="-6.128351306542754">
        <ele>426.0</ele>
        <time>2015-12-07T15:54:12.000Z</time>
      </trkpt>
      <trkpt lat="39.86304813064635" lon="-6.128586167469621">
        <ele>427.20001220703125</ele>
        <time>2015-12-07T15:54:17.000Z</time>
      </trkpt>
      <trkpt lat="39.863074868917465" lon="-6.128896716982126">
        <ele>427.3999938964844</ele>
        <time>2015-12-07T15:54:24.000Z</time>
      </trkpt>
      <trkpt lat="39.86313622444868" lon="-6.12920475192368">
        <ele>429.20001220703125</ele>
        <time>2015-12-07T15:54:32.000Z</time>
      </trkpt>
      <trkpt lat="39.86319808289409" lon="-6.129411030560732">
        <ele>431.20001220703125</ele>
        <time>2015-12-07T15:54:39.000Z</time>
      </trkpt>
      <trkpt lat="39.863231275230646" lon="-6.129575232043862">
        <ele>432.0</ele>
        <time>2015-12-07T15:54:45.000Z</time>
      </trkpt>
      <trkpt lat="39.863253738731146" lon="-6.1297297943383455">
        <ele>432.3999938964844</ele>
        <time>2015-12-07T15:54:51.000Z</time>
      </trkpt>
      <trkpt lat="39.86332087777555" lon="-6.12988444045186">
        <ele>434.0</ele>
        <time>2015-12-07T15:54:57.000Z</time>
      </trkpt>
      <trkpt lat="39.863390028476715" lon="-6.130082169547677">
        <ele>435.6000061035156</ele>
        <time>2015-12-07T15:55:04.000Z</time>
      </trkpt>
      <trkpt lat="39.863476445898414" lon="-6.130305463448167">
        <ele>437.3999938964844</ele>
        <time>2015-12-07T15:55:12.000Z</time>
      </trkpt>
      <trkpt lat="39.863562444224954" lon="-6.130560524761677">
        <ele>439.3999938964844</ele>
        <time>2015-12-07T15:55:21.000Z</time>
      </trkpt>
      <trkpt lat="39.86358365043998" lon="-6.130836205556989">
        <ele>439.20001220703125</ele>
        <time>2015-12-07T15:55:28.000Z</time>
      </trkpt>
      <trkpt lat="39.86357677727938" lon="-6.1311322543770075">
        <ele>438.0</ele>
        <time>2015-12-07T15:55:34.000Z</time>
      </trkpt>
      <trkpt lat="39.86357543617487" lon="-6.131454203277826">
        <ele>436.79998779296875</ele>
        <time>2015-12-07T15:55:38.000Z</time>
      </trkpt>
      <trkpt lat="39.863570490852" lon="-6.131550846621394">
        <ele>436.20001220703125</ele>
        <time>2015-12-07T15:55:39.000Z</time>
      </trkpt>
      <trkpt lat="39.863518523052335" lon="-6.131884530186653">
        <ele>434.0</ele>
        <time>2015-12-07T15:55:42.000Z</time>
      </trkpt>
      <trkpt lat="39.863440906628966" lon="-6.132498839870095">
        <ele>431.0</ele>
        <time>2015-12-07T15:55:47.000Z</time>
      </trkpt>
      <trkpt lat="39.86337452195585" lon="-6.133194956928492">
        <ele>428.79998779296875</ele>
        <time>2015-12-07T15:55:53.000Z</time>
      </trkpt>
      <trkpt lat="39.86327167600393" lon="-6.1339111905545">
        <ele>425.20001220703125</ele>
        <time>2015-12-07T15:55:59.000Z</time>
      </trkpt>
      <trkpt lat="39.86320705153048" lon="-6.134412009268999">
        <ele>422.0</ele>
        <time>2015-12-07T15:56:03.000Z</time>
      </trkpt>
      <trkpt lat="39.86320663243532" lon="-6.134665813297033">
        <ele>421.6000061035156</ele>
        <time>2015-12-07T15:56:05.000Z</time>
      </trkpt>
      <trkpt lat="39.86327217891812" lon="-6.135231424123049">
        <ele>423.79998779296875</ele>
        <time>2015-12-07T15:56:10.000Z</time>
      </trkpt>
      <trkpt lat="39.863371923565865" lon="-6.135744396597147">
        <ele>426.79998779296875</ele>
        <time>2015-12-07T15:56:16.000Z</time>
      </trkpt>
      <trkpt lat="39.86342439427972" lon="-6.136148488149047">
        <ele>428.0</ele>
        <time>2015-12-07T15:56:22.000Z</time>
      </trkpt>
      <trkpt lat="39.86349740065634" lon="-6.1366030387580395">
        <ele>429.20001220703125</ele>
        <time>2015-12-07T15:56:30.000Z</time>
      </trkpt>
      <trkpt lat="39.86355582252145" lon="-6.136848293244839">
        <ele>431.79998779296875</ele>
        <time>2015-12-07T15:56:35.000Z</time>
      </trkpt>
      <trkpt lat="39.86357199959457" lon="-6.136993719264865">
        <ele>433.0</ele>
        <time>2015-12-07T15:56:38.000Z</time>
      </trkpt>
      <trkpt lat="39.86353545449674" lon="-6.137268980965018">
        <ele>433.20001220703125</ele>
        <time>2015-12-07T15:56:44.000Z</time>
      </trkpt>
      <trkpt lat="39.863427579402924" lon="-6.137690842151642">
        <ele>433.3999938964844</ele>
        <time>2015-12-07T15:56:52.000Z</time>
      </trkpt>
      <trkpt lat="39.863320207223296" lon="-6.138132316991687">
        <ele>434.20001220703125</ele>
        <time>2015-12-07T15:56:59.000Z</time>
      </trkpt>
      <trkpt lat="39.863207722082734" lon="-6.138546383008361">
        <ele>436.0</ele>
        <time>2015-12-07T15:57:05.000Z</time>
      </trkpt>
      <trkpt lat="39.86309305764735" lon="-6.139056673273444">
        <ele>437.0</ele>
        <time>2015-12-07T15:57:12.000Z</time>
      </trkpt>
      <trkpt lat="39.86303438432515" lon="-6.1392350401729345">
        <ele>436.0</ele>
        <time>2015-12-07T15:57:15.000Z</time>
      </trkpt>
      <trkpt lat="39.862985014915466" lon="-6.1393496207892895">
        <ele>435.0</ele>
        <time>2015-12-07T15:57:17.000Z</time>
      </trkpt>
      <trkpt lat="39.86290597356856" lon="-6.139538716524839">
        <ele>433.3999938964844</ele>
        <time>2015-12-07T15:57:21.000Z</time>
      </trkpt>
      <trkpt lat="39.862874541431665" lon="-6.139646507799625">
        <ele>433.20001220703125</ele>
        <time>2015-12-07T15:57:23.000Z</time>
      </trkpt>
      <trkpt lat="39.862777646631" lon="-6.140039451420307">
        <ele>435.0</ele>
        <time>2015-12-07T15:57:29.000Z</time>
      </trkpt>
      <trkpt lat="39.86268578097224" lon="-6.14040213637054">
        <ele>437.6000061035156</ele>
        <time>2015-12-07T15:57:34.000Z</time>
      </trkpt>
      <trkpt lat="39.86263381317258" lon="-6.140741435810924">
        <ele>438.0</ele>
        <time>2015-12-07T15:57:38.000Z</time>
      </trkpt>
      <trkpt lat="39.86256164498627" lon="-6.141052320599556">
        <ele>436.0</ele>
        <time>2015-12-07T15:57:42.000Z</time>
      </trkpt>
      <trkpt lat="39.86254446208477" lon="-6.141121303662658">
        <ele>435.79998779296875</ele>
        <time>2015-12-07T15:57:43.000Z</time>
      </trkpt>
      <trkpt lat="39.86250280402601" lon="-6.141406036913395">
        <ele>436.0</ele>
        <time>2015-12-07T15:57:47.000Z</time>
      </trkpt>
      <trkpt lat="39.86243516206741" lon="-6.141846086829901">
        <ele>434.79998779296875</ele>
        <time>2015-12-07T15:57:54.000Z</time>
      </trkpt>
      <trkpt lat="39.86241630278528" lon="-6.142186978831887">
        <ele>435.3999938964844</ele>
        <time>2015-12-07T15:58:00.000Z</time>
      </trkpt>
      <trkpt lat="39.86242577433586" lon="-6.14225210621953">
        <ele>435.79998779296875</ele>
        <time>2015-12-07T15:58:01.000Z</time>
      </trkpt>
      <trkpt lat="39.86246416345239" lon="-6.14244757220149">
        <ele>438.0</ele>
        <time>2015-12-07T15:58:04.000Z</time>
      </trkpt>
      <trkpt lat="39.86246692948043" lon="-6.1425841972231865">
        <ele>438.6000061035156</ele>
        <time>2015-12-07T15:58:06.000Z</time>
      </trkpt>
      <trkpt lat="39.86239057034254" lon="-6.1428233329206705">
        <ele>437.79998779296875</ele>
        <time>2015-12-07T15:58:10.000Z</time>
      </trkpt>
      <trkpt lat="39.86228596419096" lon="-6.1429772246629">
        <ele>435.3999938964844</ele>
        <time>2015-12-07T15:58:13.000Z</time>
      </trkpt>
      <trkpt lat="39.86225327476859" lon="-6.1430274322628975">
        <ele>434.79998779296875</ele>
        <time>2015-12-07T15:58:14.000Z</time>
      </trkpt>
      <trkpt lat="39.8622250277549" lon="-6.143075209110975">
        <ele>434.20001220703125</ele>
        <time>2015-12-07T15:58:15.000Z</time>
      </trkpt>
      <trkpt lat="39.862029226496816" lon="-6.14347661845386">
        <ele>430.3999938964844</ele>
        <time>2015-12-07T15:58:21.000Z</time>
      </trkpt>
      <trkpt lat="39.86199762672186" lon="-6.143576866015792">
        <ele>430.3999938964844</ele>
        <time>2015-12-07T15:58:22.000Z</time>
      </trkpt>
      <trkpt lat="39.861953454092145" lon="-6.143799657002091">
        <ele>430.6000061035156</ele>
        <time>2015-12-07T15:58:24.000Z</time>
      </trkpt>
      <trkpt lat="39.86184951849282" lon="-6.14433903247118">
        <ele>430.79998779296875</ele>
        <time>2015-12-07T15:58:29.000Z</time>
      </trkpt>
      <trkpt lat="39.86182210966945" lon="-6.1447809264063835">
        <ele>433.20001220703125</ele>
        <time>2015-12-07T15:58:34.000Z</time>
      </trkpt>
      <trkpt lat="39.8617984727025" lon="-6.145185856148601">
        <ele>433.6000061035156</ele>
        <time>2015-12-07T15:58:40.000Z</time>
      </trkpt>
      <trkpt lat="39.86178330145776" lon="-6.145636131986976">
        <ele>434.79998779296875</ele>
        <time>2015-12-07T15:58:48.000Z</time>
      </trkpt>
      <trkpt lat="39.86176402308047" lon="-6.145923798903823">
        <ele>435.0</ele>
        <time>2015-12-07T15:58:55.000Z</time>
      </trkpt>
      <trkpt lat="39.86166159622371" lon="-6.146071068942547">
        <ele>432.3999938964844</ele>
        <time>2015-12-07T15:59:00.000Z</time>
      </trkpt>
      <trkpt lat="39.86154508776963" lon="-6.146327052265406">
        <ele>430.20001220703125</ele>
        <time>2015-12-07T15:59:04.000Z</time>
      </trkpt>
      <trkpt lat="39.861386166885495" lon="-6.146739944815636">
        <ele>428.3999938964844</ele>
        <time>2015-12-07T15:59:08.000Z</time>
      </trkpt>
      <trkpt lat="39.86115138977766" lon="-6.147227017208934">
        <ele>427.20001220703125</ele>
        <time>2015-12-07T15:59:12.000Z</time>
      </trkpt>
      <trkpt lat="39.86095014028251" lon="-6.147802351042628">
        <ele>433.3999938964844</ele>
        <time>2015-12-07T15:59:16.000Z</time>
      </trkpt>
      <trkpt lat="39.86074101179838" lon="-6.1484958697110415">
        <ele>437.6000061035156</ele>
        <time>2015-12-07T15:59:21.000Z</time>
      </trkpt>
      <trkpt lat="39.86069608479738" lon="-6.1486223526299">
        <ele>438.0</ele>
        <time>2015-12-07T15:59:22.000Z</time>
      </trkpt>
      <trkpt lat="39.86051964573562" lon="-6.149019571021199">
        <ele>440.20001220703125</ele>
        <time>2015-12-07T15:59:26.000Z</time>
      </trkpt>
      <trkpt lat="39.860378662124276" lon="-6.149335149675608">
        <ele>440.3999938964844</ele>
        <time>2015-12-07T15:59:30.000Z</time>
      </trkpt>
      <trkpt lat="39.86034907400608" lon="-6.149420142173767">
        <ele>441.0</ele>
        <time>2015-12-07T15:59:31.000Z</time>
      </trkpt>
      <trkpt lat="39.86032610759139" lon="-6.149500189349055">
        <ele>441.3999938964844</ele>
        <time>2015-12-07T15:59:32.000Z</time>
      </trkpt>
      <trkpt lat="39.86029492691159" lon="-6.149734379723668">
        <ele>442.79998779296875</ele>
        <time>2015-12-07T15:59:35.000Z</time>
      </trkpt>
      <trkpt lat="39.860291574150324" lon="-6.14981459453702">
        <ele>443.3999938964844</ele>
        <time>2015-12-07T15:59:36.000Z</time>
      </trkpt>
      <trkpt lat="39.86028444953263" lon="-6.149940825998783">
        <ele>444.0</ele>
        <time>2015-12-07T15:59:38.000Z</time>
      </trkpt>
      <trkpt lat="39.86028704792261" lon="-6.150032440200448">
        <ele>444.20001220703125</ele>
        <time>2015-12-07T15:59:40.000Z</time>
      </trkpt>
      <trkpt lat="39.86028646118939" lon="-6.150116510689259">
        <ele>444.3999938964844</ele>
        <time>2015-12-07T15:59:42.000Z</time>
      </trkpt>
      <trkpt lat="39.86029643565416" lon="-6.150242071598768">
        <ele>444.6000061035156</ele>
        <time>2015-12-07T15:59:45.000Z</time>
      </trkpt>
      <trkpt lat="39.860340021550655" lon="-6.150475088506937">
        <ele>445.0</ele>
        <time>2015-12-07T15:59:50.000Z</time>
      </trkpt>
      <trkpt lat="39.86042224802077" lon="-6.150713888928294">
        <ele>446.0</ele>
        <time>2015-12-07T15:59:55.000Z</time>
      </trkpt>
      <trkpt lat="39.86045602709055" lon="-6.150975488126278">
        <ele>448.6000061035156</ele>
        <time>2015-12-07T16:00:00.000Z</time>
      </trkpt>
      <trkpt lat="39.86047522164881" lon="-6.1515063140541315">
        <ele>452.3999938964844</ele>
        <time>2015-12-07T16:00:10.000Z</time>
      </trkpt>
      <trkpt lat="39.8604619782418" lon="-6.151852821931243">
        <ele>454.6000061035156</ele>
        <time>2015-12-07T16:00:17.000Z</time>
      </trkpt>
      <trkpt lat="39.86044471152127" lon="-6.152077037841082">
        <ele>455.79998779296875</ele>
        <time>2015-12-07T16:00:23.000Z</time>
      </trkpt>
      <trkpt lat="39.86043683253229" lon="-6.152241826057434">
        <ele>456.79998779296875</ele>
        <time>2015-12-07T16:00:28.000Z</time>
      </trkpt>
      <trkpt lat="39.86041101627052" lon="-6.152458833530545">
        <ele>457.20001220703125</ele>
        <time>2015-12-07T16:00:34.000Z</time>
      </trkpt>
      <trkpt lat="39.86037405207753" lon="-6.1526955384761095">
        <ele>457.20001220703125</ele>
        <time>2015-12-07T16:00:41.000Z</time>
      </trkpt>
      <trkpt lat="39.86034664325416" lon="-6.15286217071116">
        <ele>457.20001220703125</ele>
        <time>2015-12-07T16:00:46.000Z</time>
      </trkpt>
      <trkpt lat="39.86032350920141" lon="-6.152925454080105">
        <ele>457.0</ele>
        <time>2015-12-07T16:00:48.000Z</time>
      </trkpt>
      <trkpt lat="39.86031495966017" lon="-6.152988150715828">
        <ele>457.0</ele>
        <time>2015-12-07T16:00:50.000Z</time>
      </trkpt>
      <trkpt lat="39.860292077064514" lon="-6.153147658333182">
        <ele>457.0</ele>
        <time>2015-12-07T16:00:55.000Z</time>
      </trkpt>
      <trkpt lat="39.86026986502111" lon="-6.153243463486433">
        <ele>456.79998779296875</ele>
        <time>2015-12-07T16:00:58.000Z</time>
      </trkpt>
      <trkpt lat="39.86025519669056" lon="-6.153311105445027">
        <ele>456.79998779296875</ele>
        <time>2015-12-07T16:01:00.000Z</time>
      </trkpt>
      <trkpt lat="39.8602151311934" lon="-6.153534734621644">
        <ele>456.79998779296875</ele>
        <time>2015-12-07T16:01:07.000Z</time>
      </trkpt>
      <trkpt lat="39.86018571071327" lon="-6.153702288866043">
        <ele>457.0</ele>
        <time>2015-12-07T16:01:13.000Z</time>
      </trkpt>
      <trkpt lat="39.86015637405217" lon="-6.153876045718789">
        <ele>457.0</ele>
        <time>2015-12-07T16:01:18.000Z</time>
      </trkpt>
      <trkpt lat="39.86012636683881" lon="-6.154070505872369">
        <ele>457.20001220703125</ele>
        <time>2015-12-07T16:01:23.000Z</time>
      </trkpt>
      <trkpt lat="39.860077081248164" lon="-6.1544478591531515">
        <ele>457.20001220703125</ele>
        <time>2015-12-07T16:01:30.000Z</time>
      </trkpt>
      <trkpt lat="39.86006995663047" lon="-6.154744410887361">
        <ele>457.3999938964844</ele>
        <time>2015-12-07T16:01:34.000Z</time>
      </trkpt>
      <trkpt lat="39.85998211428523" lon="-6.154959239065647">
        <ele>457.3999938964844</ele>
        <time>2015-12-07T16:01:37.000Z</time>
      </trkpt>
      <trkpt lat="39.85983895137906" lon="-6.155207008123398">
        <ele>457.0</ele>
        <time>2015-12-07T16:01:41.000Z</time>
      </trkpt>
      <trkpt lat="39.859808860346675" lon="-6.155270878225565">
        <ele>457.0</ele>
        <time>2015-12-07T16:01:42.000Z</time>
      </trkpt>
      <trkpt lat="39.85969050787389" lon="-6.155558796599507">
        <ele>456.79998779296875</ele>
        <time>2015-12-07T16:01:46.000Z</time>
      </trkpt>
      <trkpt lat="39.85965278930962" lon="-6.155631048604846">
        <ele>456.6000061035156</ele>
        <time>2015-12-07T16:01:47.000Z</time>
      </trkpt>
      <trkpt lat="39.859579196199775" lon="-6.15575292147696">
        <ele>455.79998779296875</ele>
        <time>2015-12-07T16:01:49.000Z</time>
      </trkpt>
      <trkpt lat="39.859521025791764" lon="-6.155834728851914">
        <ele>454.79998779296875</ele>
        <time>2015-12-07T16:01:51.000Z</time>
      </trkpt>
      <trkpt lat="39.8594553116709" lon="-6.155931120738387">
        <ele>453.20001220703125</ele>
        <time>2015-12-07T16:01:54.000Z</time>
      </trkpt>
      <trkpt lat="39.85941298305988" lon="-6.155997505411506">
        <ele>452.20001220703125</ele>
        <time>2015-12-07T16:01:56.000Z</time>
      </trkpt>
      <trkpt lat="39.85939244739711" lon="-6.15602457895875">
        <ele>451.79998779296875</ele>
        <time>2015-12-07T16:01:57.000Z</time>
      </trkpt>
      <trkpt lat="39.85937627032399" lon="-6.156058358028531">
        <ele>451.3999938964844</ele>
        <time>2015-12-07T16:01:58.000Z</time>
      </trkpt>
      <trkpt lat="39.85931457951665" lon="-6.156213926151395">
        <ele>449.79998779296875</ele>
        <time>2015-12-07T16:02:03.000Z</time>
      </trkpt>
      <trkpt lat="39.85931558534503" lon="-6.156397992745042">
        <ele>449.3999938964844</ele>
        <time>2015-12-07T16:02:07.000Z</time>
      </trkpt>
      <trkpt lat="39.85937182791531" lon="-6.156725054606795">
        <ele>449.0</ele>
        <time>2015-12-07T16:02:12.000Z</time>
      </trkpt>
      <trkpt lat="39.85939856618643" lon="-6.156889004632831">
        <ele>448.3999938964844</ele>
        <time>2015-12-07T16:02:14.000Z</time>
      </trkpt>
      <trkpt lat="39.85937434248626" lon="-6.1570672038942575">
        <ele>447.0</ele>
        <time>2015-12-07T16:02:16.000Z</time>
      </trkpt>
      <trkpt lat="39.85923511907458" lon="-6.15728865377605">
        <ele>443.20001220703125</ele>
        <time>2015-12-07T16:02:19.000Z</time>
      </trkpt>
      <trkpt lat="39.85909706912935" lon="-6.157407257705927">
        <ele>440.6000061035156</ele>
        <time>2015-12-07T16:02:21.000Z</time>
      </trkpt>
      <trkpt lat="39.85895063728094" lon="-6.157509936019778">
        <ele>437.79998779296875</ele>
        <time>2015-12-07T16:02:23.000Z</time>
      </trkpt>
      <trkpt lat="39.858650313690305" lon="-6.157616805285215">
        <ele>433.6000061035156</ele>
        <time>2015-12-07T16:02:27.000Z</time>
      </trkpt>
      <trkpt lat="39.8585607111454" lon="-6.157732978463173">
        <ele>433.6000061035156</ele>
        <time>2015-12-07T16:02:29.000Z</time>
      </trkpt>
      <trkpt lat="39.85851125791669" lon="-6.15802550688386">
        <ele>433.3999938964844</ele>
        <time>2015-12-07T16:02:32.000Z</time>
      </trkpt>
      <trkpt lat="39.858433809131384" lon="-6.158571504056454">
        <ele>434.0</ele>
        <time>2015-12-07T16:02:37.000Z</time>
      </trkpt>
      <trkpt lat="39.85840514302254" lon="-6.158644510433078">
        <ele>434.0</ele>
        <time>2015-12-07T16:02:38.000Z</time>
      </trkpt>
      <trkpt lat="39.858261812478304" lon="-6.15875163115561">
        <ele>434.3999938964844</ele>
        <time>2015-12-07T16:02:41.000Z</time>
      </trkpt>
      <trkpt lat="39.858211604878306" lon="-6.158771412447095">
        <ele>434.3999938964844</ele>
        <time>2015-12-07T16:02:42.000Z</time>
      </trkpt>
      <trkpt lat="39.8580323997885" lon="-6.158866211771965">
        <ele>434.79998779296875</ele>
        <time>2015-12-07T16:02:46.000Z</time>
      </trkpt>
      <trkpt lat="39.85779393464327" lon="-6.158986743539572">
        <ele>437.0</ele>
        <time>2015-12-07T16:02:52.000Z</time>
      </trkpt>
      <trkpt lat="39.857753198593855" lon="-6.158996215090156">
        <ele>437.6000061035156</ele>
        <time>2015-12-07T16:02:53.000Z</time>
      </trkpt>
      <trkpt lat="39.85763459466398" lon="-6.159016247838736">
        <ele>439.79998779296875</ele>
        <time>2015-12-07T16:02:56.000Z</time>
      </trkpt>
      <trkpt lat="39.857549015432596" lon="-6.159049104899168">
        <ele>441.3999938964844</ele>
        <time>2015-12-07T16:02:59.000Z</time>
      </trkpt>
      <trkpt lat="39.857447342947125" lon="-6.1591744143515825">
        <ele>443.79998779296875</ele>
        <time>2015-12-07T16:03:05.000Z</time>
      </trkpt>
      <trkpt lat="39.85737869516015" lon="-6.159376250579953">
        <ele>446.20001220703125</ele>
        <time>2015-12-07T16:03:13.000Z</time>
      </trkpt>
      <trkpt lat="39.85731700435281" lon="-6.1595425475388765">
        <ele>448.20001220703125</ele>
        <time>2015-12-07T16:03:20.000Z</time>
      </trkpt>
      <trkpt lat="39.85723243094981" lon="-6.159701803699136">
        <ele>450.6000061035156</ele>
        <time>2015-12-07T16:03:27.000Z</time>
      </trkpt>
      <trkpt lat="39.85711776651442" lon="-6.159914117306471">
        <ele>454.20001220703125</ele>
        <time>2015-12-07T16:03:36.000Z</time>
      </trkpt>
      <trkpt lat="39.857052052393556" lon="-6.160040516406298">
        <ele>456.3999938964844</ele>
        <time>2015-12-07T16:03:42.000Z</time>
      </trkpt>
      <trkpt lat="39.85698985867202" lon="-6.160134980455041">
        <ele>458.79998779296875</ele>
        <time>2015-12-07T16:03:47.000Z</time>
      </trkpt>
      <trkpt lat="39.85692783258855" lon="-6.160228606313467">
        <ele>461.20001220703125</ele>
        <time>2015-12-07T16:03:52.000Z</time>
      </trkpt>
      <trkpt lat="39.85684175044298" lon="-6.160380402579904">
        <ele>464.79998779296875</ele>
        <time>2015-12-07T16:03:59.000Z</time>
      </trkpt>
      <trkpt lat="39.85677662305534" lon="-6.16051996126771">
        <ele>467.79998779296875</ele>
        <time>2015-12-07T16:04:05.000Z</time>
      </trkpt>
      <trkpt lat="39.85672624781728" lon="-6.160678714513779">
        <ele>469.79998779296875</ele>
        <time>2015-12-07T16:04:12.000Z</time>
      </trkpt>
      <trkpt lat="39.856695821508765" lon="-6.160834701731801">
        <ele>470.6000061035156</ele>
        <time>2015-12-07T16:04:19.000Z</time>
      </trkpt>
      <trkpt lat="39.856683164834976" lon="-6.161002591252327">
        <ele>471.0</ele>
        <time>2015-12-07T16:04:26.000Z</time>
      </trkpt>
      <trkpt lat="39.85666925087571" lon="-6.161110047250986">
        <ele>471.6000061035156</ele>
        <time>2015-12-07T16:04:31.000Z</time>
      </trkpt>
      <trkpt lat="39.856663048267365" lon="-6.16113368421793">
        <ele>472.0</ele>
        <time>2015-12-07T16:04:32.000Z</time>
      </trkpt>
      <trkpt lat="39.856648882851005" lon="-6.16126854903996">
        <ele>472.79998779296875</ele>
        <time>2015-12-07T16:04:38.000Z</time>
      </trkpt>
      <trkpt lat="39.856645027175546" lon="-6.161387907341123">
        <ele>473.20001220703125</ele>
        <time>2015-12-07T16:04:44.000Z</time>
      </trkpt>
      <trkpt lat="39.85662633553147" lon="-6.161507600918412">
        <ele>473.6000061035156</ele>
        <time>2015-12-07T16:04:50.000Z</time>
      </trkpt>
      <trkpt lat="39.856567243114114" lon="-6.161645399406552">
        <ele>474.20001220703125</ele>
        <time>2015-12-07T16:04:56.000Z</time>
      </trkpt>
      <trkpt lat="39.85650940798223" lon="-6.16174397058785">
        <ele>475.0</ele>
        <time>2015-12-07T16:05:02.000Z</time>
      </trkpt>
      <trkpt lat="39.8563970066607" lon="-6.1618423741310835">
        <ele>477.20001220703125</ele>
        <time>2015-12-07T16:05:09.000Z</time>
      </trkpt>
      <trkpt lat="39.856321988627315" lon="-6.161825945600867">
        <ele>479.0</ele>
        <time>2015-12-07T16:05:13.000Z</time>
      </trkpt>
      <trkpt lat="39.85630664974451" lon="-6.1618120316416025">
        <ele>479.3999938964844</ele>
        <time>2015-12-07T16:05:14.000Z</time>
      </trkpt>
      <trkpt lat="39.85623565502465" lon="-6.161741372197866">
        <ele>481.3999938964844</ele>
        <time>2015-12-07T16:05:20.000Z</time>
      </trkpt>
      <trkpt lat="39.85622291453183" lon="-6.16171320900321">
        <ele>481.79998779296875</ele>
        <time>2015-12-07T16:05:22.000Z</time>
      </trkpt>
      <trkpt lat="39.85618787817657" lon="-6.16166434250772">
        <ele>482.6000061035156</ele>
        <time>2015-12-07T16:05:25.000Z</time>
      </trkpt>
      <trkpt lat="39.856128450483084" lon="-6.1615705490112305">
        <ele>484.20001220703125</ele>
        <time>2015-12-07T16:05:31.000Z</time>
      </trkpt>
      <trkpt lat="39.856097269803286" lon="-6.161534758284688">
        <ele>485.0</ele>
        <time>2015-12-07T16:05:34.000Z</time>
      </trkpt>
      <trkpt lat="39.85607757233083" lon="-6.161506511271">
        <ele>485.3999938964844</ele>
        <time>2015-12-07T16:05:36.000Z</time>
      </trkpt>
      <trkpt lat="39.856009259819984" lon="-6.1614003125578165">
        <ele>487.20001220703125</ele>
        <time>2015-12-07T16:05:42.000Z</time>
      </trkpt>
      <trkpt lat="39.85596785321832" lon="-6.161346081644297">
        <ele>488.0</ele>
        <time>2015-12-07T16:05:46.000Z</time>
      </trkpt>
      <trkpt lat="39.8559308052063" lon="-6.161280618980527">
        <ele>488.6000061035156</ele>
        <time>2015-12-07T16:05:50.000Z</time>
      </trkpt>
      <trkpt lat="39.85591957345605" lon="-6.161260670050979">
        <ele>488.79998779296875</ele>
        <time>2015-12-07T16:05:52.000Z</time>
      </trkpt>
      <trkpt lat="39.85587364062667" lon="-6.161178024485707">
        <ele>489.79998779296875</ele>
        <time>2015-12-07T16:05:57.000Z</time>
      </trkpt>
      <trkpt lat="39.85582251101732" lon="-6.161090852692723">
        <ele>490.79998779296875</ele>
        <time>2015-12-07T16:06:02.000Z</time>
      </trkpt>
      <trkpt lat="39.8557598143816" lon="-6.16098758764565">
        <ele>491.79998779296875</ele>
        <time>2015-12-07T16:06:07.000Z</time>
      </trkpt>
      <trkpt lat="39.855663338676095" lon="-6.160857919603586">
        <ele>493.3999938964844</ele>
        <time>2015-12-07T16:06:14.000Z</time>
      </trkpt>
      <trkpt lat="39.85557968728244" lon="-6.160758091136813">
        <ele>494.79998779296875</ele>
        <time>2015-12-07T16:06:20.000Z</time>
      </trkpt>
      <trkpt lat="39.85548555850983" lon="-6.160650718957186">
        <ele>496.3999938964844</ele>
        <time>2015-12-07T16:06:27.000Z</time>
      </trkpt>
      <trkpt lat="39.85540668480098" lon="-6.160581652075052">
        <ele>497.3999938964844</ele>
        <time>2015-12-07T16:06:33.000Z</time>
      </trkpt>
      <trkpt lat="39.85529570840299" lon="-6.160525241866708">
        <ele>497.3999938964844</ele>
        <time>2015-12-07T16:06:39.000Z</time>
      </trkpt>
      <trkpt lat="39.85519604757428" lon="-6.1604793928563595">
        <ele>497.20001220703125</ele>
        <time>2015-12-07T16:06:44.000Z</time>
      </trkpt>
      <trkpt lat="39.85503821633756" lon="-6.160406470298767">
        <ele>497.0</ele>
        <time>2015-12-07T16:06:52.000Z</time>
      </trkpt>
      <trkpt lat="39.85500401817262" lon="-6.160387862473726">
        <ele>497.0</ele>
        <time>2015-12-07T16:06:54.000Z</time>
      </trkpt>
      <trkpt lat="39.85495464876294" lon="-6.160352909937501">
        <ele>496.79998779296875</ele>
        <time>2015-12-07T16:06:57.000Z</time>
      </trkpt>
      <trkpt lat="39.85490092076361" lon="-6.1603177059441805">
        <ele>496.6000061035156</ele>
        <time>2015-12-07T16:07:00.000Z</time>
      </trkpt>
      <trkpt lat="39.85485984943807" lon="-6.160286525264382">
        <ele>496.3999938964844</ele>
        <time>2015-12-07T16:07:02.000Z</time>
      </trkpt>
      <trkpt lat="39.85481282696128" lon="-6.160260960459709">
        <ele>496.79998779296875</ele>
        <time>2015-12-07T16:07:05.000Z</time>
      </trkpt>
      <trkpt lat="39.85477435402572" lon="-6.160251069813967">
        <ele>497.0</ele>
        <time>2015-12-07T16:07:07.000Z</time>
      </trkpt>
      <trkpt lat="39.85471467487514" lon="-6.160218296572566">
        <ele>497.6000061035156</ele>
        <time>2015-12-07T16:07:10.000Z</time>
      </trkpt>
      <trkpt lat="39.85467393882573" lon="-6.1601990181952715">
        <ele>497.79998779296875</ele>
        <time>2015-12-07T16:07:12.000Z</time>
      </trkpt>
      <trkpt lat="39.85457285307348" lon="-6.1601566057652235">
        <ele>498.6000061035156</ele>
        <time>2015-12-07T16:07:17.000Z</time>
      </trkpt>
      <trkpt lat="39.854451064020395" lon="-6.160124251618981">
        <ele>498.6000061035156</ele>
        <time>2015-12-07T16:07:23.000Z</time>
      </trkpt>
      <trkpt lat="39.854335309937596" lon="-6.160083515569568">
        <ele>498.3999938964844</ele>
        <time>2015-12-07T16:07:28.000Z</time>
      </trkpt>
      <trkpt lat="39.854293232783675" lon="-6.160075133666396">
        <ele>498.3999938964844</ele>
        <time>2015-12-07T16:07:30.000Z</time>
      </trkpt>
      <trkpt lat="39.85425082035363" lon="-6.160060716792941">
        <ele>498.6000061035156</ele>
        <time>2015-12-07T16:07:32.000Z</time>
      </trkpt>
      <trkpt lat="39.854138335213065" lon="-6.160046132281423">
        <ele>499.3999938964844</ele>
        <time>2015-12-07T16:07:37.000Z</time>
      </trkpt>
      <trkpt lat="39.85402140766382" lon="-6.16002107039094">
        <ele>500.20001220703125</ele>
        <time>2015-12-07T16:07:42.000Z</time>
      </trkpt>
      <trkpt lat="39.85389852896333" lon="-6.159978490322828">
        <ele>501.0</ele>
        <time>2015-12-07T16:07:47.000Z</time>
      </trkpt>
      <trkpt lat="39.85374270938337" lon="-6.159917553886771">
        <ele>502.0</ele>
        <time>2015-12-07T16:07:53.000Z</time>
      </trkpt>
      <trkpt lat="39.853717144578695" lon="-6.159896180033684">
        <ele>502.20001220703125</ele>
        <time>2015-12-07T16:07:54.000Z</time>
      </trkpt>
      <trkpt lat="39.85356643795967" lon="-6.159800123423338">
        <ele>501.79998779296875</ele>
        <time>2015-12-07T16:08:00.000Z</time>
      </trkpt>
      <trkpt lat="39.85334163531661" lon="-6.159724183380604">
        <ele>501.3999938964844</ele>
        <time>2015-12-07T16:08:08.000Z</time>
      </trkpt>
      <trkpt lat="39.853211380541325" lon="-6.159712364897132">
        <ele>501.20001220703125</ele>
        <time>2015-12-07T16:08:13.000Z</time>
      </trkpt>
      <trkpt lat="39.85302848741412" lon="-6.15970934741199">
        <ele>501.0</ele>
        <time>2015-12-07T16:08:20.000Z</time>
      </trkpt>
      <trkpt lat="39.85285045579076" lon="-6.1597563698887825">
        <ele>500.79998779296875</ele>
        <time>2015-12-07T16:08:27.000Z</time>
      </trkpt>
      <trkpt lat="39.85277937725186" lon="-6.159860892221332">
        <ele>501.0</ele>
        <time>2015-12-07T16:08:32.000Z</time>
      </trkpt>
      <trkpt lat="39.85270779579878" lon="-6.160008832812309">
        <ele>501.3999938964844</ele>
        <time>2015-12-07T16:08:38.000Z</time>
      </trkpt>
      <trkpt lat="39.852618696168065" lon="-6.160201700404286">
        <ele>501.6000061035156</ele>
        <time>2015-12-07T16:08:45.000Z</time>
      </trkpt>
      <trkpt lat="39.85255348496139" lon="-6.160327177494764">
        <ele>502.0</ele>
        <time>2015-12-07T16:08:50.000Z</time>
      </trkpt>
      <trkpt lat="39.852473102509975" lon="-6.160504454746842">
        <ele>502.20001220703125</ele>
        <time>2015-12-07T16:08:56.000Z</time>
      </trkpt>
      <trkpt lat="39.85239548608661" lon="-6.160731855779886">
        <ele>502.6000061035156</ele>
        <time>2015-12-07T16:09:03.000Z</time>
      </trkpt>
      <trkpt lat="39.852327425032854" lon="-6.160899410024285">
        <ele>502.6000061035156</ele>
        <time>2015-12-07T16:09:08.000Z</time>
      </trkpt>
      <trkpt lat="39.85223782248795" lon="-6.161069059744477">
        <ele>502.79998779296875</ele>
        <time>2015-12-07T16:09:14.000Z</time>
      </trkpt>
      <trkpt lat="39.852153584361076" lon="-6.16127198562026">
        <ele>503.0</ele>
        <time>2015-12-07T16:09:20.000Z</time>
      </trkpt>
      <trkpt lat="39.85208988189697" lon="-6.161505086347461">
        <ele>503.20001220703125</ele>
        <time>2015-12-07T16:09:26.000Z</time>
      </trkpt>
      <trkpt lat="39.85205199569464" lon="-6.161725195124745">
        <ele>504.0</ele>
        <time>2015-12-07T16:09:31.000Z</time>
      </trkpt>
      <trkpt lat="39.85202022828162" lon="-6.162098692730069">
        <ele>505.3999938964844</ele>
        <time>2015-12-07T16:09:38.000Z</time>
      </trkpt>
      <trkpt lat="39.85200631432235" lon="-6.162218051031232">
        <ele>505.79998779296875</ele>
        <time>2015-12-07T16:09:40.000Z</time>
      </trkpt>
      <trkpt lat="39.85196775756776" lon="-6.16232056170702">
        <ele>505.79998779296875</ele>
        <time>2015-12-07T16:09:42.000Z</time>
      </trkpt>
      <trkpt lat="39.85182828269899" lon="-6.162593308836222">
        <ele>505.0</ele>
        <time>2015-12-07T16:09:48.000Z</time>
      </trkpt>
      <trkpt lat="39.85176231712103" lon="-6.162700764834881">
        <ele>504.79998779296875</ele>
        <time>2015-12-07T16:09:51.000Z</time>
      </trkpt>
      <trkpt lat="39.85167749226093" lon="-6.162841832265258">
        <ele>504.3999938964844</ele>
        <time>2015-12-07T16:09:55.000Z</time>
      </trkpt>
      <trkpt lat="39.851525193080306" lon="-6.163078956305981">
        <ele>503.79998779296875</ele>
        <time>2015-12-07T16:10:00.000Z</time>
      </trkpt>
      <trkpt lat="39.85131866298616" lon="-6.163330497220159">
        <ele>502.6000061035156</ele>
        <time>2015-12-07T16:10:05.000Z</time>
      </trkpt>
      <trkpt lat="39.85126443207264" lon="-6.163378860801458">
        <ele>502.3999938964844</ele>
        <time>2015-12-07T16:10:06.000Z</time>
      </trkpt>
      <trkpt lat="39.851161083206534" lon="-6.163463015109301">
        <ele>502.79998779296875</ele>
        <time>2015-12-07T16:10:08.000Z</time>
      </trkpt>
      <trkpt lat="39.851104924455285" lon="-6.1634886637330055">
        <ele>503.20001220703125</ele>
        <time>2015-12-07T16:10:09.000Z</time>
      </trkpt>
      <trkpt lat="39.85096151009202" lon="-6.163444826379418">
        <ele>504.79998779296875</ele>
        <time>2015-12-07T16:10:12.000Z</time>
      </trkpt>
      <trkpt lat="39.850857239216566" lon="-6.163301328197122">
        <ele>505.0</ele>
        <time>2015-12-07T16:10:16.000Z</time>
      </trkpt>
      <trkpt lat="39.850836619734764" lon="-6.163269393146038">
        <ele>505.0</ele>
        <time>2015-12-07T16:10:17.000Z</time>
      </trkpt>
      <trkpt lat="39.850791692733765" lon="-6.163215413689613">
        <ele>505.0</ele>
        <time>2015-12-07T16:10:19.000Z</time>
      </trkpt>
      <trkpt lat="39.85073394142091" lon="-6.163136875256896">
        <ele>504.79998779296875</ele>
        <time>2015-12-07T16:10:22.000Z</time>
      </trkpt>
      <trkpt lat="39.850694043561816" lon="-6.163082979619503">
        <ele>505.0</ele>
        <time>2015-12-07T16:10:24.000Z</time>
      </trkpt>
      <trkpt lat="39.85060301609337" lon="-6.162976948544383">
        <ele>505.79998779296875</ele>
        <time>2015-12-07T16:10:28.000Z</time>
      </trkpt>
      <trkpt lat="39.85045339912176" lon="-6.162838228046894">
        <ele>507.20001220703125</ele>
        <time>2015-12-07T16:10:34.000Z</time>
      </trkpt>
      <trkpt lat="39.85034032724798" lon="-6.162736052647233">
        <ele>509.20001220703125</ele>
        <time>2015-12-07T16:10:39.000Z</time>
      </trkpt>
      <trkpt lat="39.85022608190775" lon="-6.162630692124367">
        <ele>512.0</ele>
        <time>2015-12-07T16:10:44.000Z</time>
      </trkpt>
      <trkpt lat="39.85011510550976" lon="-6.16251602768898">
        <ele>514.5999755859375</ele>
        <time>2015-12-07T16:10:49.000Z</time>
      </trkpt>
      <trkpt lat="39.84996967948973" lon="-6.162346294149756">
        <ele>516.2000122070312</ele>
        <time>2015-12-07T16:10:56.000Z</time>
      </trkpt>
      <trkpt lat="39.849845794960856" lon="-6.162200449034572">
        <ele>517.4000244140625</ele>
        <time>2015-12-07T16:11:02.000Z</time>
      </trkpt>
      <trkpt lat="39.84974026679993" lon="-6.162088550627232">
        <ele>518.4000244140625</ele>
        <time>2015-12-07T16:11:07.000Z</time>
      </trkpt>
      <trkpt lat="39.84960716217756" lon="-6.161957792937756">
        <ele>519.5999755859375</ele>
        <time>2015-12-07T16:11:14.000Z</time>
      </trkpt>
      <trkpt lat="39.849428962916136" lon="-6.16179040633142">
        <ele>522.5999755859375</ele>
        <time>2015-12-07T16:11:22.000Z</time>
      </trkpt>
      <trkpt lat="39.84926241450012" lon="-6.161634251475334">
        <ele>526.0</ele>
        <time>2015-12-07T16:11:30.000Z</time>
      </trkpt>
      <trkpt lat="39.84917649999261" lon="-6.161557640880346">
        <ele>527.7999877929688</ele>
        <time>2015-12-07T16:11:34.000Z</time>
      </trkpt>
      <trkpt lat="39.84903920441866" lon="-6.161436438560486">
        <ele>530.7999877929688</ele>
        <time>2015-12-07T16:11:41.000Z</time>
      </trkpt>
      <trkpt lat="39.848884139209986" lon="-6.161289252340794">
        <ele>533.7999877929688</ele>
        <time>2015-12-07T16:11:49.000Z</time>
      </trkpt>
      <trkpt lat="39.84875095076859" lon="-6.161116501316428">
        <ele>534.7999877929688</ele>
        <time>2015-12-07T16:11:57.000Z</time>
      </trkpt>
      <trkpt lat="39.8486381303519" lon="-6.160975098609924">
        <ele>535.2000122070312</ele>
        <time>2015-12-07T16:12:04.000Z</time>
      </trkpt>
      <trkpt lat="39.848532266914845" lon="-6.1608595959842205">
        <ele>535.5999755859375</ele>
        <time>2015-12-07T16:12:10.000Z</time>
      </trkpt>
      <trkpt lat="39.84839321114123" lon="-6.160729927942157">
        <ele>536.4000244140625</ele>
        <time>2015-12-07T16:12:17.000Z</time>
      </trkpt>
      <trkpt lat="39.848244935274124" lon="-6.160622052848339">
        <ele>537.4000244140625</ele>
        <time>2015-12-07T16:12:24.000Z</time>
      </trkpt>
      <trkpt lat="39.84805181622505" lon="-6.160493558272719">
        <ele>539.0</ele>
        <time>2015-12-07T16:12:33.000Z</time>
      </trkpt>
      <trkpt lat="39.847861882299185" lon="-6.160365901887417">
        <ele>540.7999877929688</ele>
        <time>2015-12-07T16:12:42.000Z</time>
      </trkpt>
      <trkpt lat="39.847734393551946" lon="-6.160281663760543">
        <ele>539.0</ele>
        <time>2015-12-07T16:12:48.000Z</time>
      </trkpt>
      <trkpt lat="39.847582848742604" lon="-6.160189462825656">
        <ele>536.7999877929688</ele>
        <time>2015-12-07T16:12:55.000Z</time>
      </trkpt>
      <trkpt lat="39.84740280546248" lon="-6.160081420093775">
        <ele>535.4000244140625</ele>
        <time>2015-12-07T16:13:03.000Z</time>
      </trkpt>
      <trkpt lat="39.84728110022843" lon="-6.159997684881091">
        <ele>534.7999877929688</ele>
        <time>2015-12-07T16:13:09.000Z</time>
      </trkpt>
      <trkpt lat="39.84712243080139" lon="-6.159896347671747">
        <ele>534.0</ele>
        <time>2015-12-07T16:13:17.000Z</time>
      </trkpt>
      <trkpt lat="39.847073312848806" lon="-6.159874638542533">
        <ele>533.7999877929688</ele>
        <time>2015-12-07T16:13:20.000Z</time>
      </trkpt>
      <trkpt lat="39.8470423836261" lon="-6.159896934404969">
        <ele>533.4000244140625</ele>
        <time>2015-12-07T16:13:22.000Z</time>
      </trkpt>
      <trkpt lat="39.84703115187585" lon="-6.160010593011975">
        <ele>532.7999877929688</ele>
        <time>2015-12-07T16:13:27.000Z</time>
      </trkpt>
      <trkpt lat="39.84707389958203" lon="-6.160121401771903">
        <ele>533.2000122070312</ele>
        <time>2015-12-07T16:13:32.000Z</time>
      </trkpt>
      <trkpt lat="39.84709401614964" lon="-6.160172531381249">
        <ele>533.2000122070312</ele>
        <time>2015-12-07T16:13:34.000Z</time>
      </trkpt>
      <trkpt lat="39.84714631922543" lon="-6.160305803641677">
        <ele>533.2000122070312</ele>
        <time>2015-12-07T16:13:39.000Z</time>
      </trkpt>
      <trkpt lat="39.84721580520272" lon="-6.160511411726475">
        <ele>533.5999755859375</ele>
        <time>2015-12-07T16:13:47.000Z</time>
      </trkpt>
      <trkpt lat="39.84729836694896" lon="-6.1607471108436584">
        <ele>536.0</ele>
        <time>2015-12-07T16:13:56.000Z</time>
      </trkpt>
      <trkpt lat="39.84737497754395" lon="-6.160939894616604">
        <ele>538.5999755859375</ele>
        <time>2015-12-07T16:14:04.000Z</time>
      </trkpt>
      <trkpt lat="39.847440691664815" lon="-6.1611152440309525">
        <ele>540.7999877929688</ele>
        <time>2015-12-07T16:14:11.000Z</time>
      </trkpt>
      <trkpt lat="39.847494000568986" lon="-6.1612689681351185">
        <ele>542.7999877929688</ele>
        <time>2015-12-07T16:14:18.000Z</time>
      </trkpt>
      <trkpt lat="39.8475450463593" lon="-6.16141707636416">
        <ele>544.5999755859375</ele>
        <time>2015-12-07T16:14:25.000Z</time>
      </trkpt>
      <trkpt lat="39.84758209437132" lon="-6.1615952756255865">
        <ele>547.4000244140625</ele>
        <time>2015-12-07T16:14:33.000Z</time>
      </trkpt>
      <trkpt lat="39.84757329337299" lon="-6.161774229258299">
        <ele>549.7999877929688</ele>
        <time>2015-12-07T16:14:41.000Z</time>
      </trkpt>
      <trkpt lat="39.84749961644411" lon="-6.161919990554452">
        <ele>550.2000122070312</ele>
        <time>2015-12-07T16:14:48.000Z</time>
      </trkpt>
      <trkpt lat="39.84739894978702" lon="-6.16208796389401">
        <ele>550.5999755859375</ele>
        <time>2015-12-07T16:14:55.000Z</time>
      </trkpt>
      <trkpt lat="39.84731789678335" lon="-6.162210423499346">
        <ele>550.7999877929688</ele>
        <time>2015-12-07T16:15:01.000Z</time>
      </trkpt>
      <trkpt lat="39.8472220916301" lon="-6.162356017157435">
        <ele>551.7999877929688</ele>
        <time>2015-12-07T16:15:08.000Z</time>
      </trkpt>
      <trkpt lat="39.84711094759405" lon="-6.162522733211517">
        <ele>553.5999755859375</ele>
        <time>2015-12-07T16:15:16.000Z</time>
      </trkpt>
      <trkpt lat="39.84702796675265" lon="-6.16265575401485">
        <ele>554.4000244140625</ele>
        <time>2015-12-07T16:15:22.000Z</time>
      </trkpt>
      <trkpt lat="39.84695378690958" lon="-6.1627724301069975">
        <ele>554.2000122070312</ele>
        <time>2015-12-07T16:15:27.000Z</time>
      </trkpt>
      <trkpt lat="39.84682956710458" lon="-6.1629921197891235">
        <ele>554.0</ele>
        <time>2015-12-07T16:15:36.000Z</time>
      </trkpt>
      <trkpt lat="39.84675094485283" lon="-6.163121955469251">
        <ele>553.7999877929688</ele>
        <time>2015-12-07T16:15:42.000Z</time>
      </trkpt>
      <trkpt lat="39.846662767231464" lon="-6.163263441994786">
        <ele>552.4000244140625</ele>
        <time>2015-12-07T16:15:49.000Z</time>
      </trkpt>
      <trkpt lat="39.84658339060843" lon="-6.163449939340353">
        <ele>551.5999755859375</ele>
        <time>2015-12-07T16:15:57.000Z</time>
      </trkpt>
      <trkpt lat="39.84652605839074" lon="-6.163613721728325">
        <ele>551.0</ele>
        <time>2015-12-07T16:16:05.000Z</time>
      </trkpt>
      <trkpt lat="39.84648574143648" lon="-6.163819581270218">
        <ele>549.7999877929688</ele>
        <time>2015-12-07T16:16:12.000Z</time>
      </trkpt>
      <trkpt lat="39.846427235752344" lon="-6.164095429703593">
        <ele>548.0</ele>
        <time>2015-12-07T16:16:18.000Z</time>
      </trkpt>
      <trkpt lat="39.84638591296971" lon="-6.164417881518602">
        <ele>545.7999877929688</ele>
        <time>2015-12-07T16:16:25.000Z</time>
      </trkpt>
      <trkpt lat="39.84640661627054" lon="-6.1646646447479725">
        <ele>545.2000122070312</ele>
        <time>2015-12-07T16:16:30.000Z</time>
      </trkpt>
      <trkpt lat="39.84641617164016" lon="-6.1648021917790174">
        <ele>545.2000122070312</ele>
        <time>2015-12-07T16:16:35.000Z</time>
      </trkpt>
      <trkpt lat="39.84646378085017" lon="-6.164964633062482">
        <ele>544.2000122070312</ele>
        <time>2015-12-07T16:16:42.000Z</time>
      </trkpt>
      <trkpt lat="39.84653485938907" lon="-6.165077034384012">
        <ele>544.4000244140625</ele>
        <time>2015-12-07T16:16:48.000Z</time>
      </trkpt>
      <trkpt lat="39.84654567204416" lon="-6.165119279175997">
        <ele>544.0</ele>
        <time>2015-12-07T16:16:50.000Z</time>
      </trkpt>
      <trkpt lat="39.84658573754132" lon="-6.1651973985135555">
        <ele>544.0</ele>
        <time>2015-12-07T16:16:53.000Z</time>
      </trkpt>
      <trkpt lat="39.84670962207019" lon="-6.165421446785331">
        <ele>546.0</ele>
        <time>2015-12-07T16:17:01.000Z</time>
      </trkpt>
      <trkpt lat="39.84678505919874" lon="-6.165616828948259">
        <ele>547.0</ele>
        <time>2015-12-07T16:17:07.000Z</time>
      </trkpt>
      <trkpt lat="39.84684381633997" lon="-6.165829813107848">
        <ele>546.5999755859375</ele>
        <time>2015-12-07T16:17:14.000Z</time>
      </trkpt>
      <trkpt lat="39.846900226548314" lon="-6.166086047887802">
        <ele>546.2000122070312</ele>
        <time>2015-12-07T16:17:21.000Z</time>
      </trkpt>
      <trkpt lat="39.84695705585182" lon="-6.166430879384279">
        <ele>545.4000244140625</ele>
        <time>2015-12-07T16:17:28.000Z</time>
      </trkpt>
      <trkpt lat="39.84696250408888" lon="-6.166847627609968">
        <ele>543.4000244140625</ele>
        <time>2015-12-07T16:17:34.000Z</time>
      </trkpt>
      <trkpt lat="39.84697625041008" lon="-6.166985090821981">
        <ele>543.2000122070312</ele>
        <time>2015-12-07T16:17:36.000Z</time>
      </trkpt>
      <trkpt lat="39.847033163532615" lon="-6.167256077751517">
        <ele>543.4000244140625</ele>
        <time>2015-12-07T16:17:40.000Z</time>
      </trkpt>
      <trkpt lat="39.847118156030774" lon="-6.167848678305745">
        <ele>541.4000244140625</ele>
        <time>2015-12-07T16:17:48.000Z</time>
      </trkpt>
      <trkpt lat="39.84711647965014" lon="-6.16792319342494">
        <ele>541.2000122070312</ele>
        <time>2015-12-07T16:17:49.000Z</time>
      </trkpt>
      <trkpt lat="39.847121592611074" lon="-6.168305324390531">
        <ele>538.2000122070312</ele>
        <time>2015-12-07T16:17:54.000Z</time>
      </trkpt>
      <trkpt lat="39.847149504348636" lon="-6.168708074837923">
        <ele>534.0</ele>
        <time>2015-12-07T16:17:59.000Z</time>
      </trkpt>
      <trkpt lat="39.847167609259486" lon="-6.1687833443284035">
        <ele>533.2000122070312</ele>
        <time>2015-12-07T16:18:00.000Z</time>
      </trkpt>
      <trkpt lat="39.8472411185503" lon="-6.169233620166779">
        <ele>531.4000244140625</ele>
        <time>2015-12-07T16:18:05.000Z</time>
      </trkpt>
      <trkpt lat="39.84732024371624" lon="-6.169665707275271">
        <ele>530.7999877929688</ele>
        <time>2015-12-07T16:18:10.000Z</time>
      </trkpt>
      <trkpt lat="39.84741009771824" lon="-6.17000182159245">
        <ele>532.5999755859375</ele>
        <time>2015-12-07T16:18:15.000Z</time>
      </trkpt>
      <trkpt lat="39.84747941605747" lon="-6.1703074257820845">
        <ele>534.5999755859375</ele>
        <time>2015-12-07T16:18:21.000Z</time>
      </trkpt>
      <trkpt lat="39.84750087372959" lon="-6.170399794355035">
        <ele>535.5999755859375</ele>
        <time>2015-12-07T16:18:23.000Z</time>
      </trkpt>
      <trkpt lat="39.84750950708985" lon="-6.1705259419977665">
        <ele>536.4000244140625</ele>
        <time>2015-12-07T16:18:26.000Z</time>
      </trkpt>
      <trkpt lat="39.84751629643142" lon="-6.170608084648848">
        <ele>536.7999877929688</ele>
        <time>2015-12-07T16:18:28.000Z</time>
      </trkpt>
      <trkpt lat="39.84753037802875" lon="-6.170771028846502">
        <ele>537.5999755859375</ele>
        <time>2015-12-07T16:18:32.000Z</time>
      </trkpt>
      <trkpt lat="39.8475365806371" lon="-6.171023407950997">
        <ele>538.2000122070312</ele>
        <time>2015-12-07T16:18:38.000Z</time>
      </trkpt>
      <trkpt lat="39.84754269942641" lon="-6.17146085947752">
        <ele>538.7999877929688</ele>
        <time>2015-12-07T16:18:47.000Z</time>
      </trkpt>
      <trkpt lat="39.847532976418734" lon="-6.171843996271491">
        <ele>538.7999877929688</ele>
        <time>2015-12-07T16:18:55.000Z</time>
      </trkpt>
      <trkpt lat="39.8475331440568" lon="-6.17234623990953">
        <ele>540.0</ele>
        <time>2015-12-07T16:19:05.000Z</time>
      </trkpt>
      <trkpt lat="39.84751679934561" lon="-6.172785200178623">
        <ele>540.7999877929688</ele>
        <time>2015-12-07T16:19:14.000Z</time>
      </trkpt>
      <trkpt lat="39.84751420095563" lon="-6.173145705834031">
        <ele>542.0</ele>
        <time>2015-12-07T16:19:22.000Z</time>
      </trkpt>
      <trkpt lat="39.847498862072825" lon="-6.173414429649711">
        <ele>542.5999755859375</ele>
        <time>2015-12-07T16:19:28.000Z</time>
      </trkpt>
      <trkpt lat="39.84749215655029" lon="-6.17374031804502">
        <ele>544.0</ele>
        <time>2015-12-07T16:19:35.000Z</time>
      </trkpt>
      <trkpt lat="39.847474470734596" lon="-6.174005940556526">
        <ele>544.7999877929688</ele>
        <time>2015-12-07T16:19:41.000Z</time>
      </trkpt>
      <trkpt lat="39.84747514128685" lon="-6.17424407042563">
        <ele>546.4000244140625</ele>
        <time>2015-12-07T16:19:47.000Z</time>
      </trkpt>
      <trkpt lat="39.84746298752725" lon="-6.174479769542813">
        <ele>547.0</ele>
        <time>2015-12-07T16:19:53.000Z</time>
      </trkpt>
      <trkpt lat="39.84746005386114" lon="-6.174743212759495">
        <ele>547.2000122070312</ele>
        <time>2015-12-07T16:20:00.000Z</time>
      </trkpt>
      <trkpt lat="39.84745259396732" lon="-6.175122493878007">
        <ele>548.2000122070312</ele>
        <time>2015-12-07T16:20:08.000Z</time>
      </trkpt>
      <trkpt lat="39.847433315590024" lon="-6.175457686185837">
        <ele>548.0</ele>
        <time>2015-12-07T16:20:14.000Z</time>
      </trkpt>
      <trkpt lat="39.84739224426448" lon="-6.175867058336735">
        <ele>547.2000122070312</ele>
        <time>2015-12-07T16:20:21.000Z</time>
      </trkpt>
      <trkpt lat="39.847381599247456" lon="-6.175944171845913">
        <ele>547.0</ele>
        <time>2015-12-07T16:20:22.000Z</time>
      </trkpt>
      <trkpt lat="39.84734178520739" lon="-6.176262348890305">
        <ele>546.2000122070312</ele>
        <time>2015-12-07T16:20:26.000Z</time>
      </trkpt>
      <trkpt lat="39.84732175245881" lon="-6.176426215097308">
        <ele>545.5999755859375</ele>
        <time>2015-12-07T16:20:28.000Z</time>
      </trkpt>
      <trkpt lat="39.84731865115464" lon="-6.176691418513656">
        <ele>544.7999877929688</ele>
        <time>2015-12-07T16:20:31.000Z</time>
      </trkpt>
      <trkpt lat="39.84732359647751" lon="-6.176867270842195">
        <ele>544.4000244140625</ele>
        <time>2015-12-07T16:20:33.000Z</time>
      </trkpt>
      <trkpt lat="39.847352681681514" lon="-6.177053013816476">
        <ele>544.5999755859375</ele>
        <time>2015-12-07T16:20:35.000Z</time>
      </trkpt>
      <trkpt lat="39.84747799113393" lon="-6.177668580785394">
        <ele>547.0</ele>
        <time>2015-12-07T16:20:42.000Z</time>
      </trkpt>
      <trkpt lat="39.847537418827415" lon="-6.177907297387719">
        <ele>548.7999877929688</ele>
        <time>2015-12-07T16:20:46.000Z</time>
      </trkpt>
      <trkpt lat="39.847578490152955" lon="-6.178088095039129">
        <ele>550.2000122070312</ele>
        <time>2015-12-07T16:20:51.000Z</time>
      </trkpt>
      <trkpt lat="39.84758653678" lon="-6.178117515519261">
        <ele>550.5999755859375</ele>
        <time>2015-12-07T16:20:52.000Z</time>
      </trkpt>
      <trkpt lat="39.84759676270187" lon="-6.178261265158653">
        <ele>551.2000122070312</ele>
        <time>2015-12-07T16:20:57.000Z</time>
      </trkpt>
      <trkpt lat="39.84759139828384" lon="-6.17845656350255">
        <ele>552.0</ele>
        <time>2015-12-07T16:21:03.000Z</time>
      </trkpt>
      <trkpt lat="39.84755761921406" lon="-6.178760826587677">
        <ele>553.0</ele>
        <time>2015-12-07T16:21:12.000Z</time>
      </trkpt>
      <trkpt lat="39.84754404053092" lon="-6.178960483521223">
        <ele>554.0</ele>
        <time>2015-12-07T16:21:18.000Z</time>
      </trkpt>
      <trkpt lat="39.847516883164644" lon="-6.179120661690831">
        <ele>554.0</ele>
        <time>2015-12-07T16:21:23.000Z</time>
      </trkpt>
      <trkpt lat="39.84749710187316" lon="-6.179273631423712">
        <ele>554.2000122070312</ele>
        <time>2015-12-07T16:21:28.000Z</time>
      </trkpt>
      <trkpt lat="39.847457036376" lon="-6.179470773786306">
        <ele>553.7999877929688</ele>
        <time>2015-12-07T16:21:35.000Z</time>
      </trkpt>
      <trkpt lat="39.84741940163076" lon="-6.179654756560922">
        <ele>553.0</ele>
        <time>2015-12-07T16:21:41.000Z</time>
      </trkpt>
      <trkpt lat="39.84739685431123" lon="-6.1799451895058155">
        <ele>552.7999877929688</ele>
        <time>2015-12-07T16:21:49.000Z</time>
      </trkpt>
      <trkpt lat="39.84737288206816" lon="-6.1802461836487055">
        <ele>552.7999877929688</ele>
        <time>2015-12-07T16:21:56.000Z</time>
      </trkpt>
      <trkpt lat="39.84735586680472" lon="-6.180548099800944">
        <ele>551.5999755859375</ele>
        <time>2015-12-07T16:22:02.000Z</time>
      </trkpt>
      <trkpt lat="39.847316052764654" lon="-6.180928889662027">
        <ele>551.5999755859375</ele>
        <time>2015-12-07T16:22:08.000Z</time>
      </trkpt>
      <trkpt lat="39.84728520736098" lon="-6.181401964277029">
        <ele>551.5999755859375</ele>
        <time>2015-12-07T16:22:15.000Z</time>
      </trkpt>
      <trkpt lat="39.847278418019414" lon="-6.1818338837474585">
        <ele>552.0</ele>
        <time>2015-12-07T16:22:22.000Z</time>
      </trkpt>
      <trkpt lat="39.84725436195731" lon="-6.182115348055959">
        <ele>552.2000122070312</ele>
        <time>2015-12-07T16:22:27.000Z</time>
      </trkpt>
      <trkpt lat="39.84725075773895" lon="-6.182226072996855">
        <ele>552.4000244140625</ele>
        <time>2015-12-07T16:22:29.000Z</time>
      </trkpt>
      <trkpt lat="39.8472445551306" lon="-6.1824320163577795">
        <ele>553.2000122070312</ele>
        <time>2015-12-07T16:22:33.000Z</time>
      </trkpt>
      <trkpt lat="39.84723114408553" lon="-6.18260158225894">
        <ele>553.5999755859375</ele>
        <time>2015-12-07T16:22:36.000Z</time>
      </trkpt>
      <trkpt lat="39.84719895757735" lon="-6.182873658835888">
        <ele>554.4000244140625</ele>
        <time>2015-12-07T16:22:41.000Z</time>
      </trkpt>
      <trkpt lat="39.84720038250089" lon="-6.1829744931310415">
        <ele>554.5999755859375</ele>
        <time>2015-12-07T16:22:43.000Z</time>
      </trkpt>
      <trkpt lat="39.8471840377897" lon="-6.183229722082615">
        <ele>555.2000122070312</ele>
        <time>2015-12-07T16:22:48.000Z</time>
      </trkpt>
      <trkpt lat="39.84718051739037" lon="-6.183324521407485">
        <ele>555.4000244140625</ele>
        <time>2015-12-07T16:22:50.000Z</time>
      </trkpt>
      <trkpt lat="39.8471702914685" lon="-6.183723667636514">
        <ele>556.7999877929688</ele>
        <time>2015-12-07T16:22:58.000Z</time>
      </trkpt>
      <trkpt lat="39.84715503640473" lon="-6.184167824685574">
        <ele>558.5999755859375</ele>
        <time>2015-12-07T16:23:07.000Z</time>
      </trkpt>
      <trkpt lat="39.84711991623044" lon="-6.184502597898245">
        <ele>560.0</ele>
        <time>2015-12-07T16:23:14.000Z</time>
      </trkpt>
      <trkpt lat="39.84708320349455" lon="-6.184881376102567">
        <ele>561.4000244140625</ele>
        <time>2015-12-07T16:23:22.000Z</time>
      </trkpt>
      <trkpt lat="39.84704900532961" lon="-6.185158314183354">
        <ele>561.7999877929688</ele>
        <time>2015-12-07T16:23:28.000Z</time>
      </trkpt>
      <trkpt lat="39.84703131951392" lon="-6.185429468750954">
        <ele>562.0</ele>
        <time>2015-12-07T16:23:34.000Z</time>
      </trkpt>
      <trkpt lat="39.847006844356656" lon="-6.1856515891849995">
        <ele>562.2000122070312</ele>
        <time>2015-12-07T16:23:39.000Z</time>
      </trkpt>
      <trkpt lat="39.846966192126274" lon="-6.185912266373634">
        <ele>562.2000122070312</ele>
        <time>2015-12-07T16:23:44.000Z</time>
      </trkpt>
      <trkpt lat="39.84692051075399" lon="-6.186337061226368">
        <ele>562.5999755859375</ele>
        <time>2015-12-07T16:23:51.000Z</time>
      </trkpt>
      <trkpt lat="39.84689662232995" lon="-6.186466980725527">
        <ele>562.5999755859375</ele>
        <time>2015-12-07T16:23:53.000Z</time>
      </trkpt>
      <trkpt lat="39.84686569310725" lon="-6.186583321541548">
        <ele>562.4000244140625</ele>
        <time>2015-12-07T16:23:55.000Z</time>
      </trkpt>
      <trkpt lat="39.84685747884214" lon="-6.18664744310081">
        <ele>562.4000244140625</ele>
        <time>2015-12-07T16:23:56.000Z</time>
      </trkpt>
      <trkpt lat="39.84684934839606" lon="-6.186924800276756">
        <ele>562.2000122070312</ele>
        <time>2015-12-07T16:24:01.000Z</time>
      </trkpt>
      <trkpt lat="39.846811881288886" lon="-6.187291508540511">
        <ele>561.7999877929688</ele>
        <time>2015-12-07T16:24:08.000Z</time>
      </trkpt>
      <trkpt lat="39.846796123310924" lon="-6.187383038923144">
        <ele>561.7999877929688</ele>
        <time>2015-12-07T16:24:10.000Z</time>
      </trkpt>
      <trkpt lat="39.84679101034999" lon="-6.187543133273721">
        <ele>562.2000122070312</ele>
        <time>2015-12-07T16:24:13.000Z</time>
      </trkpt>
      <trkpt lat="39.84675278887153" lon="-6.187971029430628">
        <ele>562.2000122070312</ele>
        <time>2015-12-07T16:24:20.000Z</time>
      </trkpt>
      <trkpt lat="39.846732672303915" lon="-6.188157694414258">
        <ele>562.2000122070312</ele>
        <time>2015-12-07T16:24:23.000Z</time>
      </trkpt>
      <trkpt lat="39.84672102145851" lon="-6.1883890349417925">
        <ele>562.2000122070312</ele>
        <time>2015-12-07T16:24:27.000Z</time>
      </trkpt>
      <trkpt lat="39.84670350328088" lon="-6.188782146200538">
        <ele>563.4000244140625</ele>
        <time>2015-12-07T16:24:34.000Z</time>
      </trkpt>
      <trkpt lat="39.84670266509056" lon="-6.188936205580831">
        <ele>563.7999877929688</ele>
        <time>2015-12-07T16:24:37.000Z</time>
      </trkpt>
      <trkpt lat="39.846707694232464" lon="-6.189035531133413">
        <ele>564.2000122070312</ele>
        <time>2015-12-07T16:24:39.000Z</time>
      </trkpt>
      <trkpt lat="39.846706269308925" lon="-6.189085319638252">
        <ele>564.4000244140625</ele>
        <time>2015-12-07T16:24:40.000Z</time>
      </trkpt>
      <trkpt lat="39.846698893234134" lon="-6.189441466704011">
        <ele>565.2000122070312</ele>
        <time>2015-12-07T16:24:47.000Z</time>
      </trkpt>
      <trkpt lat="39.8466625995934" lon="-6.189908087253571">
        <ele>566.0</ele>
        <time>2015-12-07T16:24:56.000Z</time>
      </trkpt>
      <trkpt lat="39.846644159406424" lon="-6.190330618992448">
        <ele>567.7999877929688</ele>
        <time>2015-12-07T16:25:04.000Z</time>
      </trkpt>
      <trkpt lat="39.846586575731635" lon="-6.190791372209787">
        <ele>568.5999755859375</ele>
        <time>2015-12-07T16:25:13.000Z</time>
      </trkpt>
      <trkpt lat="39.84655162319541" lon="-6.191158834844828">
        <ele>569.7999877929688</ele>
        <time>2015-12-07T16:25:20.000Z</time>
      </trkpt>
      <trkpt lat="39.84653796069324" lon="-6.191264195367694">
        <ele>570.0</ele>
        <time>2015-12-07T16:25:22.000Z</time>
      </trkpt>
      <trkpt lat="39.846492195501924" lon="-6.19162461720407">
        <ele>570.2000122070312</ele>
        <time>2015-12-07T16:25:30.000Z</time>
      </trkpt>
      <trkpt lat="39.846438970416784" lon="-6.19192024692893">
        <ele>569.7999877929688</ele>
        <time>2015-12-07T16:25:38.000Z</time>
      </trkpt>
      <trkpt lat="39.84634484164417" lon="-6.191968442872167">
        <ele>569.0</ele>
        <time>2015-12-07T16:25:43.000Z</time>
      </trkpt>
      <trkpt lat="39.846209893003106" lon="-6.191934579983354">
        <ele>567.7999877929688</ele>
        <time>2015-12-07T16:25:49.000Z</time>
      </trkpt>
      <trkpt lat="39.84603462740779" lon="-6.191873392090201">
        <ele>566.2000122070312</ele>
        <time>2015-12-07T16:25:56.000Z</time>
      </trkpt>
      <trkpt lat="39.84585198573768" lon="-6.191824190318584">
        <ele>564.4000244140625</ele>
        <time>2015-12-07T16:26:02.000Z</time>
      </trkpt>
      <trkpt lat="39.845676720142365" lon="-6.191785465925932">
        <ele>562.2000122070312</ele>
        <time>2015-12-07T16:26:07.000Z</time>
      </trkpt>
      <trkpt lat="39.84548896551132" lon="-6.191740371286869">
        <ele>559.7999877929688</ele>
        <time>2015-12-07T16:26:11.000Z</time>
      </trkpt>
      <trkpt lat="39.8453501611948" lon="-6.1917131301015615">
        <ele>558.7999877929688</ele>
        <time>2015-12-07T16:26:14.000Z</time>
      </trkpt>
      <trkpt lat="39.84524295665324" lon="-6.191693348810077">
        <ele>559.4000244140625</ele>
        <time>2015-12-07T16:26:16.000Z</time>
      </trkpt>
      <trkpt lat="39.84495428390801" lon="-6.191631909459829">
        <ele>562.0</ele>
        <time>2015-12-07T16:26:20.000Z</time>
      </trkpt>
      <trkpt lat="39.844620265066624" lon="-6.191537864506245">
        <ele>565.2000122070312</ele>
        <time>2015-12-07T16:26:25.000Z</time>
      </trkpt>
      <trkpt lat="39.84455983154476" lon="-6.191513976082206">
        <ele>565.7999877929688</ele>
        <time>2015-12-07T16:26:28.000Z</time>
      </trkpt>
      <trkpt lat="39.84454088844359" lon="-6.191504001617432">
        <ele>566.2000122070312</ele>
        <time>2015-12-07T16:26:29.000Z</time>
      </trkpt>
      <trkpt lat="39.84445036388934" lon="-6.191467624157667">
        <ele>566.7999877929688</ele>
        <time>2015-12-07T16:26:34.000Z</time>
      </trkpt>
      <trkpt lat="39.84434751793742" lon="-6.191448429599404">
        <ele>567.2000122070312</ele>
        <time>2015-12-07T16:26:40.000Z</time>
      </trkpt>
      <trkpt lat="39.84423545189202" lon="-6.191419428214431">
        <ele>568.0</ele>
        <time>2015-12-07T16:26:46.000Z</time>
      </trkpt>
      <trkpt lat="39.844100419431925" lon="-6.19139738380909">
        <ele>568.7999877929688</ele>
        <time>2015-12-07T16:26:53.000Z</time>
      </trkpt>
      <trkpt lat="39.843987599015236" lon="-6.191374668851495">
        <ele>569.5999755859375</ele>
        <time>2015-12-07T16:26:59.000Z</time>
      </trkpt>
      <trkpt lat="39.84391115605831" lon="-6.1913759261369705">
        <ele>570.0</ele>
        <time>2015-12-07T16:27:03.000Z</time>
      </trkpt>
      <trkpt lat="39.84379339031875" lon="-6.191362012177706">
        <ele>570.5999755859375</ele>
        <time>2015-12-07T16:27:09.000Z</time>
      </trkpt>
      <trkpt lat="39.84373019076884" lon="-6.191347595304251">
        <ele>571.0</ele>
        <time>2015-12-07T16:27:14.000Z</time>
      </trkpt>
      <trkpt lat="39.8437218926847" lon="-6.191338878124952">
        <ele>571.0</ele>
        <time>2015-12-07T16:27:15.000Z</time>
      </trkpt>
      <trkpt lat="39.84372583217919" lon="-6.191281294450164">
        <ele>571.0</ele>
        <time>2015-12-07T16:27:19.000Z</time>
      </trkpt>
      <trkpt lat="39.84373513609171" lon="-6.191174509003758">
        <ele>571.0</ele>
        <time>2015-12-07T16:27:22.000Z</time>
      </trkpt>
      <trkpt lat="39.84374502673745" lon="-6.190984575077891">
        <ele>570.7999877929688</ele>
        <time>2015-12-07T16:27:26.000Z</time>
      </trkpt>
      <trkpt lat="39.843813171610236" lon="-6.190827582031488">
        <ele>570.5999755859375</ele>
        <time>2015-12-07T16:27:30.000Z</time>
      </trkpt>
      <trkpt lat="39.84381400980055" lon="-6.1906838323920965">
        <ele>570.5999755859375</ele>
        <time>2015-12-07T16:27:32.000Z</time>
      </trkpt>
      <trkpt lat="39.843821972608566" lon="-6.190631026402116">
        <ele>570.5999755859375</ele>
        <time>2015-12-07T16:27:33.000Z</time>
      </trkpt>
      <trkpt lat="39.843825325369835" lon="-6.190501861274242">
        <ele>569.7999877929688</ele>
        <time>2015-12-07T16:27:36.000Z</time>
      </trkpt>
      <trkpt lat="39.843811159953475" lon="-6.190448803827167">
        <ele>569.7999877929688</ele>
        <time>2015-12-07T16:27:37.000Z</time>
      </trkpt>
      <trkpt lat="39.84379825182259" lon="-6.190287787467241">
        <ele>569.7999877929688</ele>
        <time>2015-12-07T16:27:41.000Z</time>
      </trkpt>
      <trkpt lat="39.84378634952009" lon="-6.19014210999012">
        <ele>569.7999877929688</ele>
        <time>2015-12-07T16:27:45.000Z</time>
      </trkpt>
      <trkpt lat="39.8437668196857" lon="-6.189958043396473">
        <ele>569.7999877929688</ele>
        <time>2015-12-07T16:27:50.000Z</time>
      </trkpt>
      <trkpt lat="39.84367956407368" lon="-6.189777664840221">
        <ele>570.5999755859375</ele>
        <time>2015-12-07T16:27:56.000Z</time>
      </trkpt>
      <trkpt lat="39.84360094182193" lon="-6.189712285995483">
        <ele>571.7999877929688</ele>
        <time>2015-12-07T16:28:01.000Z</time>
      </trkpt>
      <trkpt lat="39.84350446611643" lon="-6.189674232155085">
        <ele>573.2000122070312</ele>
        <time>2015-12-07T16:28:05.000Z</time>
      </trkpt>
      <trkpt lat="39.843448139727116" lon="-6.189668029546738">
        <ele>574.0</ele>
        <time>2015-12-07T16:28:08.000Z</time>
      </trkpt>
      <trkpt lat="39.843428106978536" lon="-6.189659144729376">
        <ele>574.4000244140625</ele>
        <time>2015-12-07T16:28:09.000Z</time>
      </trkpt>
      <trkpt lat="39.843289805576205" lon="-6.18961145170033">
        <ele>576.4000244140625</ele>
        <time>2015-12-07T16:28:16.000Z</time>
      </trkpt>
      <trkpt lat="39.84317656606436" lon="-6.18957381695509">
        <ele>578.0</ele>
        <time>2015-12-07T16:28:21.000Z</time>
      </trkpt>
      <trkpt lat="39.843009766191244" lon="-6.189520675688982">
        <ele>580.5999755859375</ele>
        <time>2015-12-07T16:28:28.000Z</time>
      </trkpt>
      <trkpt lat="39.842946818098426" lon="-6.189508270472288">
        <ele>581.7999877929688</ele>
        <time>2015-12-07T16:28:31.000Z</time>
      </trkpt>
      <trkpt lat="39.84293189831078" lon="-6.189498966559768">
        <ele>582.0</ele>
        <time>2015-12-07T16:28:32.000Z</time>
      </trkpt>
      <trkpt lat="39.84288831241429" lon="-6.189403831958771">
        <ele>582.5999755859375</ele>
        <time>2015-12-07T16:28:37.000Z</time>
      </trkpt>
      <trkpt lat="39.842880852520466" lon="-6.189377848058939">
        <ele>582.5999755859375</ele>
        <time>2015-12-07T16:28:38.000Z</time>
      </trkpt>
      <trkpt lat="39.84285453334451" lon="-6.189273409545422">
        <ele>583.0</ele>
        <time>2015-12-07T16:28:42.000Z</time>
      </trkpt>
      <trkpt lat="39.842858808115125" lon="-6.189128989353776">
        <ele>582.7999877929688</ele>
        <time>2015-12-07T16:28:47.000Z</time>
      </trkpt>
      <trkpt lat="39.84285897575319" lon="-6.189103089272976">
        <ele>582.7999877929688</ele>
        <time>2015-12-07T16:28:48.000Z</time>
      </trkpt>
      <trkpt lat="39.842857299372554" lon="-6.188998902216554">
        <ele>582.5999755859375</ele>
        <time>2015-12-07T16:28:52.000Z</time>
      </trkpt>
      <trkpt lat="39.84286232851446" lon="-6.18894886225462">
        <ele>582.5999755859375</ele>
        <time>2015-12-07T16:28:54.000Z</time>
      </trkpt>
      <trkpt lat="39.842857299372554" lon="-6.188927488401532">
        <ele>582.5999755859375</ele>
        <time>2015-12-07T16:28:55.000Z</time>
      </trkpt>
      <trkpt lat="39.84282486140728" lon="-6.188843585550785">
        <ele>582.7999877929688</ele>
        <time>2015-12-07T16:28:59.000Z</time>
      </trkpt>
      <trkpt lat="39.842799631878734" lon="-6.188806872814894">
        <ele>583.0</ele>
        <time>2015-12-07T16:29:01.000Z</time>
      </trkpt>
      <trkpt lat="39.8427583090961" lon="-6.188739398494363">
        <ele>583.4000244140625</ele>
        <time>2015-12-07T16:29:05.000Z</time>
      </trkpt>
      <trkpt lat="39.84268605709076" lon="-6.188659351319075">
        <ele>584.4000244140625</ele>
        <time>2015-12-07T16:29:10.000Z</time>
      </trkpt>
      <trkpt lat="39.842588910833" lon="-6.188569664955139">
        <ele>585.7999877929688</ele>
        <time>2015-12-07T16:29:16.000Z</time>
      </trkpt>
      <trkpt lat="39.84250576235354" lon="-6.188517026603222">
        <ele>587.2000122070312</ele>
        <time>2015-12-07T16:29:21.000Z</time>
      </trkpt>
      <trkpt lat="39.84247600659728" lon="-6.188500011339784">
        <ele>587.7999877929688</ele>
        <time>2015-12-07T16:29:23.000Z</time>
      </trkpt>
      <trkpt lat="39.84243107959628" lon="-6.18847100995481">
        <ele>588.7999877929688</ele>
        <time>2015-12-07T16:29:26.000Z</time>
      </trkpt>
      <trkpt lat="39.84234122559428" lon="-6.188420299440622">
        <ele>591.0</ele>
        <time>2015-12-07T16:29:31.000Z</time>
      </trkpt>
      <trkpt lat="39.84221960417926" lon="-6.188345197588205">
        <ele>593.5999755859375</ele>
        <time>2015-12-07T16:29:38.000Z</time>
      </trkpt>
      <trkpt lat="39.84211198054254" lon="-6.188267162069678">
        <ele>596.0</ele>
        <time>2015-12-07T16:29:44.000Z</time>
      </trkpt>
      <trkpt lat="39.84197627753019" lon="-6.188182421028614">
        <ele>599.0</ele>
        <time>2015-12-07T16:29:52.000Z</time>
      </trkpt>
      <trkpt lat="39.841876616701484" lon="-6.188045963644981">
        <ele>600.7999877929688</ele>
        <time>2015-12-07T16:29:59.000Z</time>
      </trkpt>
      <trkpt lat="39.84185893088579" lon="-6.18797262199223">
        <ele>600.7999877929688</ele>
        <time>2015-12-07T16:30:03.000Z</time>
      </trkpt>
      <trkpt lat="39.84185733832419" lon="-6.187945296987891">
        <ele>600.7999877929688</ele>
        <time>2015-12-07T16:30:04.000Z</time>
      </trkpt>
      <trkpt lat="39.84183378517628" lon="-6.1878076661378145">
        <ele>600.5999755859375</ele>
        <time>2015-12-07T16:30:10.000Z</time>
      </trkpt>
      <trkpt lat="39.84186572022736" lon="-6.187598034739494">
        <ele>598.7999877929688</ele>
        <time>2015-12-07T16:30:18.000Z</time>
      </trkpt>
      <trkpt lat="39.84187996946275" lon="-6.1873941868543625">
        <ele>597.7999877929688</ele>
        <time>2015-12-07T16:30:25.000Z</time>
      </trkpt>
      <trkpt lat="39.84192037023604" lon="-6.187218837440014">
        <ele>597.2000122070312</ele>
        <time>2015-12-07T16:30:32.000Z</time>
      </trkpt>
      <trkpt lat="39.84191508963704" lon="-6.18719226680696">
        <ele>597.4000244140625</ele>
        <time>2015-12-07T16:30:33.000Z</time>
      </trkpt>
      <trkpt lat="39.841935290023685" lon="-6.187141723930836">
        <ele>597.2000122070312</ele>
        <time>2015-12-07T16:30:35.000Z</time>
      </trkpt>
      <trkpt lat="39.84194040298462" lon="-6.187087409198284">
        <ele>597.4000244140625</ele>
        <time>2015-12-07T16:30:37.000Z</time>
      </trkpt>
      <trkpt lat="39.8419569991529" lon="-6.187056312337518">
        <ele>597.2000122070312</ele>
        <time>2015-12-07T16:30:38.000Z</time>
      </trkpt>
      <trkpt lat="39.84196353703737" lon="-6.186989592388272">
        <ele>597.4000244140625</ele>
        <time>2015-12-07T16:30:40.000Z</time>
      </trkpt>
      <trkpt lat="39.84203855507076" lon="-6.186790019273758">
        <ele>596.4000244140625</ele>
        <time>2015-12-07T16:30:45.000Z</time>
      </trkpt>
      <trkpt lat="39.84206118620932" lon="-6.1867433320730925">
        <ele>596.2000122070312</ele>
        <time>2015-12-07T16:30:46.000Z</time>
      </trkpt>
      <trkpt lat="39.842207534238696" lon="-6.186456587165594">
        <ele>595.0</ele>
        <time>2015-12-07T16:30:52.000Z</time>
      </trkpt>
      <trkpt lat="39.84225363470614" lon="-6.186314010992646">
        <ele>595.0</ele>
        <time>2015-12-07T16:30:55.000Z</time>
      </trkpt>
      <trkpt lat="39.84227794222534" lon="-6.186278555542231">
        <ele>594.7999877929688</ele>
        <time>2015-12-07T16:30:56.000Z</time>
      </trkpt>
      <trkpt lat="39.84237466938794" lon="-6.186135476455092">
        <ele>593.7999877929688</ele>
        <time>2015-12-07T16:31:00.000Z</time>
      </trkpt>
      <trkpt lat="39.84240719117224" lon="-6.18607621639967">
        <ele>593.5999755859375</ele>
        <time>2015-12-07T16:31:02.000Z</time>
      </trkpt>
      <trkpt lat="39.84254633076489" lon="-6.185957528650761">
        <ele>591.5999755859375</ele>
        <time>2015-12-07T16:31:06.000Z</time>
      </trkpt>
      <trkpt lat="39.84262662939727" lon="-6.185909667983651">
        <ele>590.2000122070312</ele>
        <time>2015-12-07T16:31:08.000Z</time>
      </trkpt>
      <trkpt lat="39.84272168017924" lon="-6.185780335217714">
        <ele>589.2000122070312</ele>
        <time>2015-12-07T16:31:11.000Z</time>
      </trkpt>
      <trkpt lat="39.842788483947515" lon="-6.185666341334581">
        <ele>588.7999877929688</ele>
        <time>2015-12-07T16:31:14.000Z</time>
      </trkpt>
      <trkpt lat="39.84280591830611" lon="-6.185639603063464">
        <ele>588.5999755859375</ele>
        <time>2015-12-07T16:31:15.000Z</time>
      </trkpt>
      <trkpt lat="39.84291396103799" lon="-6.185474814847112">
        <ele>586.7999877929688</ele>
        <time>2015-12-07T16:31:19.000Z</time>
      </trkpt>
      <trkpt lat="39.84299836680293" lon="-6.185305500403047">
        <ele>585.5999755859375</ele>
        <time>2015-12-07T16:31:22.000Z</time>
      </trkpt>
      <trkpt lat="39.84303642064333" lon="-6.1849953699857">
        <ele>585.2000122070312</ele>
        <time>2015-12-07T16:31:26.000Z</time>
      </trkpt>
      <trkpt lat="39.84302611090243" lon="-6.184916328638792">
        <ele>585.5999755859375</ele>
        <time>2015-12-07T16:31:27.000Z</time>
      </trkpt>
      <trkpt lat="39.843030804768205" lon="-6.184772243723273">
        <ele>585.5999755859375</ele>
        <time>2015-12-07T16:31:29.000Z</time>
      </trkpt>
      <trkpt lat="39.843045473098755" lon="-6.184671996161342">
        <ele>585.0</ele>
        <time>2015-12-07T16:31:30.000Z</time>
      </trkpt>
      <trkpt lat="39.84316701069474" lon="-6.184405451640487">
        <ele>582.2000122070312</ele>
        <time>2015-12-07T16:31:34.000Z</time>
      </trkpt>
      <trkpt lat="39.84320447780192" lon="-6.184349376708269">
        <ele>581.4000244140625</ele>
        <time>2015-12-07T16:31:35.000Z</time>
      </trkpt>
      <trkpt lat="39.843413857743144" lon="-6.184112336486578">
        <ele>577.2000122070312</ele>
        <time>2015-12-07T16:31:40.000Z</time>
      </trkpt>
      <trkpt lat="39.84359105117619" lon="-6.183888204395771">
        <ele>573.7999877929688</ele>
        <time>2015-12-07T16:31:44.000Z</time>
      </trkpt>
      <trkpt lat="39.843621058389544" lon="-6.18363163433969">
        <ele>574.4000244140625</ele>
        <time>2015-12-07T16:31:47.000Z</time>
      </trkpt>
      <trkpt lat="39.84368811361492" lon="-6.183335836976767">
        <ele>574.5999755859375</ele>
        <time>2015-12-07T16:31:50.000Z</time>
      </trkpt>
      <trkpt lat="39.843725329265" lon="-6.1832822766155005">
        <ele>574.2000122070312</ele>
        <time>2015-12-07T16:31:51.000Z</time>
      </trkpt>
      <trkpt lat="39.843892715871334" lon="-6.1829842161387205">
        <ele>573.2000122070312</ele>
        <time>2015-12-07T16:31:56.000Z</time>
      </trkpt>
      <trkpt lat="39.84399916604161" lon="-6.182757569476962">
        <ele>572.5999755859375</ele>
        <time>2015-12-07T16:32:00.000Z</time>
      </trkpt>
      <trkpt lat="39.8440792132169" lon="-6.182621531188488">
        <ele>572.0</ele>
        <time>2015-12-07T16:32:02.000Z</time>
      </trkpt>
      <trkpt lat="39.84411869198084" lon="-6.18254735134542">
        <ele>571.7999877929688</ele>
        <time>2015-12-07T16:32:03.000Z</time>
      </trkpt>
      <trkpt lat="39.84417602419853" lon="-6.182390358299017">
        <ele>571.5999755859375</ele>
        <time>2015-12-07T16:32:05.000Z</time>
      </trkpt>
      <trkpt lat="39.84421391040087" lon="-6.182310059666634">
        <ele>571.4000244140625</ele>
        <time>2015-12-07T16:32:07.000Z</time>
      </trkpt>
      <trkpt lat="39.8442158382386" lon="-6.182248033583164">
        <ele>571.4000244140625</ele>
        <time>2015-12-07T16:32:10.000Z</time>
      </trkpt>
      <trkpt lat="39.8442124016583" lon="-6.182219451293349">
        <ele>571.4000244140625</ele>
        <time>2015-12-07T16:32:11.000Z</time>
      </trkpt>
      <trkpt lat="39.84422229230404" lon="-6.182056842371821">
        <ele>570.5999755859375</ele>
        <time>2015-12-07T16:32:15.000Z</time>
      </trkpt>
      <trkpt lat="39.84427937306464" lon="-6.181826423853636">
        <ele>569.0</ele>
        <time>2015-12-07T16:32:19.000Z</time>
      </trkpt>
      <trkpt lat="39.844377022236586" lon="-6.181605476886034">
        <ele>567.0</ele>
        <time>2015-12-07T16:32:22.000Z</time>
      </trkpt>
      <trkpt lat="39.8444262240082" lon="-6.18138637393713">
        <ele>565.5999755859375</ele>
        <time>2015-12-07T16:32:24.000Z</time>
      </trkpt>
      <trkpt lat="39.84442697837949" lon="-6.181272631511092">
        <ele>565.5999755859375</ele>
        <time>2015-12-07T16:32:25.000Z</time>
      </trkpt>
      <trkpt lat="39.84444282017648" lon="-6.181055456399918">
        <ele>565.0</ele>
        <time>2015-12-07T16:32:27.000Z</time>
      </trkpt>
      <trkpt lat="39.8444555606693" lon="-6.180816069245338">
        <ele>564.5999755859375</ele>
        <time>2015-12-07T16:32:30.000Z</time>
      </trkpt>
      <trkpt lat="39.84451984986663" lon="-6.180632002651691">
        <ele>563.5999755859375</ele>
        <time>2015-12-07T16:32:33.000Z</time>
      </trkpt>
      <trkpt lat="39.84457382932305" lon="-6.180456653237343">
        <ele>563.2000122070312</ele>
        <time>2015-12-07T16:32:36.000Z</time>
      </trkpt>
      <trkpt lat="39.84458480961621" lon="-6.180412815883756">
        <ele>563.2000122070312</ele>
        <time>2015-12-07T16:32:37.000Z</time>
      </trkpt>
      <trkpt lat="39.84459335915744" lon="-6.1803442519158125">
        <ele>563.2000122070312</ele>
        <time>2015-12-07T16:32:38.000Z</time>
      </trkpt>
      <trkpt lat="39.84460350126028" lon="-6.18014425970614">
        <ele>563.5999755859375</ele>
        <time>2015-12-07T16:32:41.000Z</time>
      </trkpt>
      <trkpt lat="39.84460341744125" lon="-6.180088855326176">
        <ele>563.7999877929688</ele>
        <time>2015-12-07T16:32:42.000Z</time>
      </trkpt>
      <trkpt lat="39.844590090215206" lon="-6.180021045729518">
        <ele>564.4000244140625</ele>
        <time>2015-12-07T16:32:43.000Z</time>
      </trkpt>
      <trkpt lat="39.84458087012172" lon="-6.179873775690794">
        <ele>565.2000122070312</ele>
        <time>2015-12-07T16:32:45.000Z</time>
      </trkpt>
      <trkpt lat="39.844583217054605" lon="-6.179605219513178">
        <ele>564.5999755859375</ele>
        <time>2015-12-07T16:32:49.000Z</time>
      </trkpt>
      <trkpt lat="39.84459285624325" lon="-6.179544869810343">
        <ele>564.2000122070312</ele>
        <time>2015-12-07T16:32:50.000Z</time>
      </trkpt>
      <trkpt lat="39.844589503481984" lon="-6.179469935595989">
        <ele>563.7999877929688</ele>
        <time>2015-12-07T16:32:51.000Z</time>
      </trkpt>
      <trkpt lat="39.84458212740719" lon="-6.179318223148584">
        <ele>563.4000244140625</ele>
        <time>2015-12-07T16:32:53.000Z</time>
      </trkpt>
      <trkpt lat="39.844566537067294" lon="-6.179154105484486">
        <ele>562.7999877929688</ele>
        <time>2015-12-07T16:32:56.000Z</time>
      </trkpt>
      <trkpt lat="39.84452513046563" lon="-6.178938522934914">
        <ele>562.4000244140625</ele>
        <time>2015-12-07T16:33:00.000Z</time>
      </trkpt>
      <trkpt lat="39.84450266696513" lon="-6.178887728601694">
        <ele>562.2000122070312</ele>
        <time>2015-12-07T16:33:01.000Z</time>
      </trkpt>
      <trkpt lat="39.84443829394877" lon="-6.178733250126243">
        <ele>562.0</ele>
        <time>2015-12-07T16:33:04.000Z</time>
      </trkpt>
      <trkpt lat="39.84439437277615" lon="-6.178561169654131">
        <ele>561.2000122070312</ele>
        <time>2015-12-07T16:33:06.000Z</time>
      </trkpt>
      <trkpt lat="39.84441859647632" lon="-6.178333517163992">
        <ele>558.7999877929688</ele>
        <time>2015-12-07T16:33:09.000Z</time>
      </trkpt>
      <trkpt lat="39.844425385817885" lon="-6.178201753646135">
        <ele>557.7999877929688</ele>
        <time>2015-12-07T16:33:11.000Z</time>
      </trkpt>
      <trkpt lat="39.84443628229201" lon="-6.178131094202399">
        <ele>557.2000122070312</ele>
        <time>2015-12-07T16:33:12.000Z</time>
      </trkpt>
      <trkpt lat="39.84446025453508" lon="-6.1779979057610035">
        <ele>556.2000122070312</ele>
        <time>2015-12-07T16:33:14.000Z</time>
      </trkpt>
      <trkpt lat="39.844485986977816" lon="-6.177884414792061">
        <ele>555.4000244140625</ele>
        <time>2015-12-07T16:33:16.000Z</time>
      </trkpt>
      <trkpt lat="39.84447584487498" lon="-6.1778167728334665">
        <ele>555.4000244140625</ele>
        <time>2015-12-07T16:33:17.000Z</time>
      </trkpt>
      <trkpt lat="39.84440459869802" lon="-6.17765424773097">
        <ele>556.0</ele>
        <time>2015-12-07T16:33:20.000Z</time>
      </trkpt>
      <trkpt lat="39.84444499947131" lon="-6.177515108138323">
        <ele>554.7999877929688</ele>
        <time>2015-12-07T16:33:22.000Z</time>
      </trkpt>
      <trkpt lat="39.844559747725725" lon="-6.177314864471555">
        <ele>552.0</ele>
        <time>2015-12-07T16:33:25.000Z</time>
      </trkpt>
      <trkpt lat="39.84460509382188" lon="-6.177167259156704">
        <ele>551.7999877929688</ele>
        <time>2015-12-07T16:33:28.000Z</time>
      </trkpt>
      <trkpt lat="39.84463920816779" lon="-6.177052678540349">
        <ele>551.7999877929688</ele>
        <time>2015-12-07T16:33:32.000Z</time>
      </trkpt>
      <trkpt lat="39.84466519206762" lon="-6.176990736275911">
        <ele>551.7999877929688</ele>
        <time>2015-12-07T16:33:35.000Z</time>
      </trkpt>
      <trkpt lat="39.84467390924692" lon="-6.176929799839854">
        <ele>552.0</ele>
        <time>2015-12-07T16:33:38.000Z</time>
      </trkpt>
      <trkpt lat="39.84467198140919" lon="-6.176895182579756">
        <ele>552.2000122070312</ele>
        <time>2015-12-07T16:33:40.000Z</time>
      </trkpt>
      <trkpt lat="39.84466904774308" lon="-6.176867773756385">
        <ele>552.4000244140625</ele>
        <time>2015-12-07T16:33:42.000Z</time>
      </trkpt>
      <trkpt lat="39.844621270895004" lon="-6.176745230332017">
        <ele>554.0</ele>
        <time>2015-12-07T16:33:47.000Z</time>
      </trkpt>
      <trkpt lat="39.844611547887325" lon="-6.176717318594456">
        <ele>554.4000244140625</ele>
        <time>2015-12-07T16:33:48.000Z</time>
      </trkpt>
      <trkpt lat="39.84456980600953" lon="-6.176620004698634">
        <ele>555.7999877929688</ele>
        <time>2015-12-07T16:33:52.000Z</time>
      </trkpt>
      <trkpt lat="39.844502499327064" lon="-6.176417078822851">
        <ele>557.7999877929688</ele>
        <time>2015-12-07T16:33:58.000Z</time>
      </trkpt>
      <trkpt lat="39.84445455484092" lon="-6.176220187917352">
        <ele>559.2000122070312</ele>
        <time>2015-12-07T16:34:03.000Z</time>
      </trkpt>
      <trkpt lat="39.84442421235144" lon="-6.17603151127696">
        <ele>560.4000244140625</ele>
        <time>2015-12-07T16:34:09.000Z</time>
      </trkpt>
      <trkpt lat="39.84440359286964" lon="-6.175876362249255">
        <ele>561.2000122070312</ele>
        <time>2015-12-07T16:34:14.000Z</time>
      </trkpt>
      <trkpt lat="39.844407197088" lon="-6.175732612609863">
        <ele>561.7999877929688</ele>
        <time>2015-12-07T16:34:18.000Z</time>
      </trkpt>
      <trkpt lat="39.844384314492345" lon="-6.175657259300351">
        <ele>563.0</ele>
        <time>2015-12-07T16:34:20.000Z</time>
      </trkpt>
      <trkpt lat="39.84437434002757" lon="-6.175570758059621">
        <ele>563.5999755859375</ele>
        <time>2015-12-07T16:34:22.000Z</time>
      </trkpt>
      <trkpt lat="39.844357492402196" lon="-6.175350062549114">
        <ele>563.7999877929688</ele>
        <time>2015-12-07T16:34:28.000Z</time>
      </trkpt>
      <trkpt lat="39.84430879354477" lon="-6.175111932680011">
        <ele>564.7999877929688</ele>
        <time>2015-12-07T16:34:33.000Z</time>
      </trkpt>
      <trkpt lat="39.844262190163136" lon="-6.174853937700391">
        <ele>566.4000244140625</ele>
        <time>2015-12-07T16:34:38.000Z</time>
      </trkpt>
      <trkpt lat="39.84422874636948" lon="-6.174670290201902">
        <ele>567.4000244140625</ele>
        <time>2015-12-07T16:34:41.000Z</time>
      </trkpt>
      <trkpt lat="39.844224471598864" lon="-6.174594685435295">
        <ele>567.5999755859375</ele>
        <time>2015-12-07T16:34:42.000Z</time>
      </trkpt>
      <trkpt lat="39.84422564506531" lon="-6.1743563041090965">
        <ele>567.5999755859375</ele>
        <time>2015-12-07T16:34:45.000Z</time>
      </trkpt>
      <trkpt lat="39.844228494912386" lon="-6.174281956627965">
        <ele>567.4000244140625</ele>
        <time>2015-12-07T16:34:46.000Z</time>
      </trkpt>
      <trkpt lat="39.84424911439419" lon="-6.174209453165531">
        <ele>567.0</ele>
        <time>2015-12-07T16:34:47.000Z</time>
      </trkpt>
      <trkpt lat="39.84428155235946" lon="-6.17408137768507">
        <ele>566.2000122070312</ele>
        <time>2015-12-07T16:34:49.000Z</time>
      </trkpt>
      <trkpt lat="39.844312481582165" lon="-6.173960845917463">
        <ele>565.5999755859375</ele>
        <time>2015-12-07T16:34:51.000Z</time>
      </trkpt>
      <trkpt lat="39.84435271471739" lon="-6.173772169277072">
        <ele>564.4000244140625</ele>
        <time>2015-12-07T16:34:54.000Z</time>
      </trkpt>
      <trkpt lat="39.844361850991845" lon="-6.173635879531503">
        <ele>564.0</ele>
        <time>2015-12-07T16:34:56.000Z</time>
      </trkpt>
      <trkpt lat="39.84436126425862" lon="-6.173506379127502">
        <ele>564.0</ele>
        <time>2015-12-07T16:34:58.000Z</time>
      </trkpt>
      <trkpt lat="39.84436486847699" lon="-6.173219718039036">
        <ele>563.5999755859375</ele>
        <time>2015-12-07T16:35:01.000Z</time>
      </trkpt>
      <trkpt lat="39.84436989761889" lon="-6.172898355871439">
        <ele>561.7999877929688</ele>
        <time>2015-12-07T16:35:05.000Z</time>
      </trkpt>
      <trkpt lat="39.84437593258917" lon="-6.172815794125199">
        <ele>561.0</ele>
        <time>2015-12-07T16:35:06.000Z</time>
      </trkpt>
      <trkpt lat="39.84438146464527" lon="-6.172522678971291">
        <ele>558.7999877929688</ele>
        <time>2015-12-07T16:35:10.000Z</time>
      </trkpt>
      <trkpt lat="39.84435833059251" lon="-6.172367446124554">
        <ele>558.4000244140625</ele>
        <time>2015-12-07T16:35:12.000Z</time>
      </trkpt>
      <trkpt lat="39.844320360571146" lon="-6.172235095873475">
        <ele>558.5999755859375</ele>
        <time>2015-12-07T16:35:14.000Z</time>
      </trkpt>
      <trkpt lat="39.844233859330416" lon="-6.172091597691178">
        <ele>560.0</ele>
        <time>2015-12-07T16:35:16.000Z</time>
      </trkpt>
      <trkpt lat="39.844160014763474" lon="-6.171946842223406">
        <ele>561.4000244140625</ele>
        <time>2015-12-07T16:35:18.000Z</time>
      </trkpt>
      <trkpt lat="39.84411584213376" lon="-6.1718258913606405">
        <ele>562.2000122070312</ele>
        <time>2015-12-07T16:35:20.000Z</time>
      </trkpt>
      <trkpt lat="39.84415699727833" lon="-6.171608800068498">
        <ele>561.0</ele>
        <time>2015-12-07T16:35:23.000Z</time>
      </trkpt>
      <trkpt lat="39.8443038482219" lon="-6.171396570280194">
        <ele>557.2000122070312</ele>
        <time>2015-12-07T16:35:26.000Z</time>
      </trkpt>
      <trkpt lat="39.84435279853642" lon="-6.171224992722273">
        <ele>556.7999877929688</ele>
        <time>2015-12-07T16:35:29.000Z</time>
      </trkpt>
      <trkpt lat="39.844335028901696" lon="-6.171012343838811">
        <ele>558.2000122070312</ele>
        <time>2015-12-07T16:35:33.000Z</time>
      </trkpt>
      <trkpt lat="39.844329664483666" lon="-6.170970601961017">
        <ele>558.5999755859375</ele>
        <time>2015-12-07T16:35:34.000Z</time>
      </trkpt>
      <trkpt lat="39.8443297483027" lon="-6.170930787920952">
        <ele>558.7999877929688</ele>
        <time>2015-12-07T16:35:35.000Z</time>
      </trkpt>
      <trkpt lat="39.844307536259294" lon="-6.170781590044498">
        <ele>559.7999877929688</ele>
        <time>2015-12-07T16:35:39.000Z</time>
      </trkpt>
      <trkpt lat="39.84427057206631" lon="-6.170570952817798">
        <ele>561.4000244140625</ele>
        <time>2015-12-07T16:35:45.000Z</time>
      </trkpt>
      <trkpt lat="39.844223549589515" lon="-6.17034774273634">
        <ele>563.0</ele>
        <time>2015-12-07T16:35:51.000Z</time>
      </trkpt>
      <trkpt lat="39.84415791928768" lon="-6.170116318389773">
        <ele>564.7999877929688</ele>
        <time>2015-12-07T16:35:58.000Z</time>
      </trkpt>
      <trkpt lat="39.84411290846765" lon="-6.16988405585289">
        <ele>565.0</ele>
        <time>2015-12-07T16:36:04.000Z</time>
      </trkpt>
      <trkpt lat="39.84403998591006" lon="-6.169634526595473">
        <ele>564.5999755859375</ele>
        <time>2015-12-07T16:36:09.000Z</time>
      </trkpt>
      <trkpt lat="39.84392917715013" lon="-6.169357672333717">
        <ele>563.5999755859375</ele>
        <time>2015-12-07T16:36:14.000Z</time>
      </trkpt>
      <trkpt lat="39.84372482635081" lon="-6.169088948518038">
        <ele>563.7999877929688</ele>
        <time>2015-12-07T16:36:19.000Z</time>
      </trkpt>
      <trkpt lat="39.843632290139794" lon="-6.169003704562783">
        <ele>565.2000122070312</ele>
        <time>2015-12-07T16:36:21.000Z</time>
      </trkpt>
      <trkpt lat="39.84349817968905" lon="-6.168884597718716">
        <ele>567.7999877929688</ele>
        <time>2015-12-07T16:36:24.000Z</time>
      </trkpt>
      <trkpt lat="39.84341318719089" lon="-6.168803125619888">
        <ele>569.2000122070312</ele>
        <time>2015-12-07T16:36:26.000Z</time>
      </trkpt>
      <trkpt lat="39.84337060712278" lon="-6.168683264404535">
        <ele>569.0</ele>
        <time>2015-12-07T16:36:28.000Z</time>
      </trkpt>
      <trkpt lat="39.84333205036819" lon="-6.168457204475999">
        <ele>567.2000122070312</ele>
        <time>2015-12-07T16:36:32.000Z</time>
      </trkpt>
      <trkpt lat="39.84328125603497" lon="-6.16831362247467">
        <ele>566.0</ele>
        <time>2015-12-07T16:36:35.000Z</time>
      </trkpt>
      <trkpt lat="39.84325334429741" lon="-6.168268192559481">
        <ele>566.0</ele>
        <time>2015-12-07T16:36:36.000Z</time>
      </trkpt>
      <trkpt lat="39.84322325326502" lon="-6.168235335499048">
        <ele>566.2000122070312</ele>
        <time>2015-12-07T16:36:37.000Z</time>
      </trkpt>
      <trkpt lat="39.84307908453047" lon="-6.168107008561492">
        <ele>567.4000244140625</ele>
        <time>2015-12-07T16:36:42.000Z</time>
      </trkpt>
      <trkpt lat="39.84291278757155" lon="-6.167915398254991">
        <ele>569.0</ele>
        <time>2015-12-07T16:36:48.000Z</time>
      </trkpt>
      <trkpt lat="39.84284749254584" lon="-6.1677145678550005">
        <ele>568.0</ele>
        <time>2015-12-07T16:36:53.000Z</time>
      </trkpt>
      <trkpt lat="39.8427511844784" lon="-6.167590515688062">
        <ele>569.0</ele>
        <time>2015-12-07T16:36:58.000Z</time>
      </trkpt>
      <trkpt lat="39.8426718916744" lon="-6.167498482391238">
        <ele>570.0</ele>
        <time>2015-12-07T16:37:02.000Z</time>
      </trkpt>
      <trkpt lat="39.84261414036155" lon="-6.167412651702762">
        <ele>569.7999877929688</ele>
        <time>2015-12-07T16:37:06.000Z</time>
      </trkpt>
      <trkpt lat="39.842551946640015" lon="-6.167308632284403">
        <ele>569.2000122070312</ele>
        <time>2015-12-07T16:37:10.000Z</time>
      </trkpt>
      <trkpt lat="39.8424351029098" lon="-6.167091624811292">
        <ele>570.7999877929688</ele>
        <time>2015-12-07T16:37:18.000Z</time>
      </trkpt>
      <trkpt lat="39.84242060221732" lon="-6.167075363919139">
        <ele>571.0</ele>
        <time>2015-12-07T16:37:19.000Z</time>
      </trkpt>
      <trkpt lat="39.84237374737859" lon="-6.167004033923149">
        <ele>571.7999877929688</ele>
        <time>2015-12-07T16:37:22.000Z</time>
      </trkpt>
      <trkpt lat="39.842320773750544" lon="-6.166937565430999">
        <ele>572.2000122070312</ele>
        <time>2015-12-07T16:37:25.000Z</time>
      </trkpt>
      <trkpt lat="39.842305183410645" lon="-6.166923483833671">
        <ele>572.4000244140625</ele>
        <time>2015-12-07T16:37:27.000Z</time>
      </trkpt>
      <trkpt lat="39.84223955310881" lon="-6.166853746399283">
        <ele>572.5999755859375</ele>
        <time>2015-12-07T16:37:30.000Z</time>
      </trkpt>
      <trkpt lat="39.84209890477359" lon="-6.166594577953219">
        <ele>572.0</ele>
        <time>2015-12-07T16:37:38.000Z</time>
      </trkpt>
      <trkpt lat="39.84201558865607" lon="-6.166453259065747">
        <ele>572.2000122070312</ele>
        <time>2015-12-07T16:37:44.000Z</time>
      </trkpt>
      <trkpt lat="39.84195347875357" lon="-6.166356615722179">
        <ele>573.4000244140625</ele>
        <time>2015-12-07T16:37:48.000Z</time>
      </trkpt>
      <trkpt lat="39.84186320565641" lon="-6.166212446987629">
        <ele>575.0</ele>
        <time>2015-12-07T16:37:54.000Z</time>
      </trkpt>
      <trkpt lat="39.84182087704539" lon="-6.166147906333208">
        <ele>575.5999755859375</ele>
        <time>2015-12-07T16:37:57.000Z</time>
      </trkpt>
      <trkpt lat="39.84174803830683" lon="-6.166033577173948">
        <ele>577.0</ele>
        <time>2015-12-07T16:38:02.000Z</time>
      </trkpt>
      <trkpt lat="39.84165550209582" lon="-6.165898879989982">
        <ele>578.2000122070312</ele>
        <time>2015-12-07T16:38:07.000Z</time>
      </trkpt>
      <trkpt lat="39.84154125675559" lon="-6.165732080116868">
        <ele>579.4000244140625</ele>
        <time>2015-12-07T16:38:13.000Z</time>
      </trkpt>
      <trkpt lat="39.841465316712856" lon="-6.1656515300273895">
        <ele>580.4000244140625</ele>
        <time>2015-12-07T16:38:18.000Z</time>
      </trkpt>
      <trkpt lat="39.84140865504742" lon="-6.165552539750934">
        <ele>581.0</ele>
        <time>2015-12-07T16:38:22.000Z</time>
      </trkpt>
      <trkpt lat="39.841350400820374" lon="-6.165436869487166">
        <ele>581.7999877929688</ele>
        <time>2015-12-07T16:38:26.000Z</time>
      </trkpt>
      <trkpt lat="39.84134486876428" lon="-6.165414489805698">
        <ele>581.5999755859375</ele>
        <time>2015-12-07T16:38:27.000Z</time>
      </trkpt>
      <trkpt lat="39.841296169906855" lon="-6.16529923863709">
        <ele>582.0</ele>
        <time>2015-12-07T16:38:32.000Z</time>
      </trkpt>
      <trkpt lat="39.841280998662114" lon="-6.165186166763306">
        <ele>581.5999755859375</ele>
        <time>2015-12-07T16:38:37.000Z</time>
      </trkpt>
      <trkpt lat="39.84128569252789" lon="-6.165166301652789">
        <ele>581.4000244140625</ele>
        <time>2015-12-07T16:38:38.000Z</time>
      </trkpt>
      <trkpt lat="39.84127094037831" lon="-6.165060354396701">
        <ele>581.0</ele>
        <time>2015-12-07T16:38:41.000Z</time>
      </trkpt>
      <trkpt lat="39.841275634244084" lon="-6.1649105697870255">
        <ele>579.7999877929688</ele>
        <time>2015-12-07T16:38:45.000Z</time>
      </trkpt>
      <trkpt lat="39.84131854958832" lon="-6.164739076048136">
        <ele>577.7999877929688</ele>
        <time>2015-12-07T16:38:50.000Z</time>
      </trkpt>
      <trkpt lat="39.8413213994354" lon="-6.164644779637456">
        <ele>577.7999877929688</ele>
        <time>2015-12-07T16:38:52.000Z</time>
      </trkpt>
      <trkpt lat="39.84132676385343" lon="-6.164597840979695">
        <ele>577.5999755859375</ele>
        <time>2015-12-07T16:38:53.000Z</time>
      </trkpt>
      <trkpt lat="39.841337241232395" lon="-6.1645768862217665">
        <ele>577.4000244140625</ele>
        <time>2015-12-07T16:38:54.000Z</time>
      </trkpt>
      <trkpt lat="39.841347550973296" lon="-6.164466999471188">
        <ele>577.0</ele>
        <time>2015-12-07T16:38:56.000Z</time>
      </trkpt>
      <trkpt lat="39.841333301737905" lon="-6.1642099265009165">
        <ele>577.0</ele>
        <time>2015-12-07T16:39:01.000Z</time>
      </trkpt>
      <trkpt lat="39.841352412477136" lon="-6.163982944563031">
        <ele>576.4000244140625</ele>
        <time>2015-12-07T16:39:05.000Z</time>
      </trkpt>
      <trkpt lat="39.84134579077363" lon="-6.163849923759699">
        <ele>576.4000244140625</ele>
        <time>2015-12-07T16:39:07.000Z</time>
      </trkpt>
      <trkpt lat="39.84136280603707" lon="-6.163702569901943">
        <ele>576.2000122070312</ele>
        <time>2015-12-07T16:39:09.000Z</time>
      </trkpt>
      <trkpt lat="39.84137571416795" lon="-6.16331297904253">
        <ele>576.2000122070312</ele>
        <time>2015-12-07T16:39:14.000Z</time>
      </trkpt>
      <trkpt lat="39.8414043802768" lon="-6.16288835182786">
        <ele>575.4000244140625</ele>
        <time>2015-12-07T16:39:19.000Z</time>
      </trkpt>
      <trkpt lat="39.8414197191596" lon="-6.162339672446251">
        <ele>573.5999755859375</ele>
        <time>2015-12-07T16:39:25.000Z</time>
      </trkpt>
      <trkpt lat="39.84142055734992" lon="-6.162138506770134">
        <ele>572.5999755859375</ele>
        <time>2015-12-07T16:39:27.000Z</time>
      </trkpt>
      <trkpt lat="39.841413935646415" lon="-6.161942286416888">
        <ele>571.4000244140625</ele>
        <time>2015-12-07T16:39:29.000Z</time>
      </trkpt>
      <trkpt lat="39.841398848220706" lon="-6.161753609776497">
        <ele>570.0</ele>
        <time>2015-12-07T16:39:32.000Z</time>
      </trkpt>
      <trkpt lat="39.84140354208648" lon="-6.161673730239272">
        <ele>569.2000122070312</ele>
        <time>2015-12-07T16:39:33.000Z</time>
      </trkpt>
      <trkpt lat="39.84140932559967" lon="-6.161435600370169">
        <ele>567.2000122070312</ele>
        <time>2015-12-07T16:39:36.000Z</time>
      </trkpt>
      <trkpt lat="39.84140085987747" lon="-6.161349602043629">
        <ele>566.2000122070312</ele>
        <time>2015-12-07T16:39:37.000Z</time>
      </trkpt>
      <trkpt lat="39.841362135484815" lon="-6.161163942888379">
        <ele>565.5999755859375</ele>
        <time>2015-12-07T16:39:39.000Z</time>
      </trkpt>
      <trkpt lat="39.84136666171253" lon="-6.160960849374533">
        <ele>564.2000122070312</ele>
        <time>2015-12-07T16:39:41.000Z</time>
      </trkpt>
      <trkpt lat="39.84135836362839" lon="-6.160760773345828">
        <ele>563.2000122070312</ele>
        <time>2015-12-07T16:39:43.000Z</time>
      </trkpt>
      <trkpt lat="39.84134872443974" lon="-6.1603165324777365">
        <ele>561.2000122070312</ele>
        <time>2015-12-07T16:39:48.000Z</time>
      </trkpt>
      <trkpt lat="39.841336319223046" lon="-6.16013590246439">
        <ele>561.2000122070312</ele>
        <time>2015-12-07T16:39:50.000Z</time>
      </trkpt>
      <trkpt lat="39.84130723401904" lon="-6.160076893866062">
        <ele>562.0</ele>
        <time>2015-12-07T16:39:51.000Z</time>
      </trkpt>
      <trkpt lat="39.841262893751264" lon="-6.16000397130847">
        <ele>563.2000122070312</ele>
        <time>2015-12-07T16:39:53.000Z</time>
      </trkpt>
      <trkpt lat="39.841243363916874" lon="-6.159973796457052">
        <ele>563.7999877929688</ele>
        <time>2015-12-07T16:39:54.000Z</time>
      </trkpt>
      <trkpt lat="39.841235652565956" lon="-6.159951668232679">
        <ele>564.0</ele>
        <time>2015-12-07T16:39:55.000Z</time>
      </trkpt>
      <trkpt lat="39.84122249297798" lon="-6.159880589693785">
        <ele>564.2000122070312</ele>
        <time>2015-12-07T16:39:58.000Z</time>
      </trkpt>
      <trkpt lat="39.841207321733236" lon="-6.159838596358895">
        <ele>564.7999877929688</ele>
        <time>2015-12-07T16:39:59.000Z</time>
      </trkpt>
      <trkpt lat="39.84116063453257" lon="-6.159694930538535">
        <ele>565.7999877929688</ele>
        <time>2015-12-07T16:40:03.000Z</time>
      </trkpt>
      <trkpt lat="39.84115711413324" lon="-6.159606333822012">
        <ele>565.5999755859375</ele>
        <time>2015-12-07T16:40:05.000Z</time>
      </trkpt>
      <trkpt lat="39.84113029204309" lon="-6.159532992169261">
        <ele>566.2000122070312</ele>
        <time>2015-12-07T16:40:07.000Z</time>
      </trkpt>
      <trkpt lat="39.84108779579401" lon="-6.159370886161923">
        <ele>567.0</ele>
        <time>2015-12-07T16:40:12.000Z</time>
      </trkpt>
      <trkpt lat="39.84109416604042" lon="-6.159255215898156">
        <ele>566.4000244140625</ele>
        <time>2015-12-07T16:40:17.000Z</time>
      </trkpt>
      <trkpt lat="39.84108109027147" lon="-6.159090427681804">
        <ele>566.2000122070312</ele>
        <time>2015-12-07T16:40:22.000Z</time>
      </trkpt>
      <trkpt lat="39.84103012830019" lon="-6.158881550654769">
        <ele>567.4000244140625</ele>
        <time>2015-12-07T16:40:27.000Z</time>
      </trkpt>
      <trkpt lat="39.840943375602365" lon="-6.1586077976971865">
        <ele>568.7999877929688</ele>
        <time>2015-12-07T16:40:33.000Z</time>
      </trkpt>
      <trkpt lat="39.84090113081038" lon="-6.158447368070483">
        <ele>569.2000122070312</ele>
        <time>2015-12-07T16:40:37.000Z</time>
      </trkpt>
      <trkpt lat="39.84082653187215" lon="-6.1582031194120646">
        <ele>569.5999755859375</ele>
        <time>2015-12-07T16:40:42.000Z</time>
      </trkpt>
      <trkpt lat="39.840747993439436" lon="-6.157909333705902">
        <ele>569.4000244140625</ele>
        <time>2015-12-07T16:40:49.000Z</time>
      </trkpt>
      <trkpt lat="39.84067926183343" lon="-6.1576806753873825">
        <ele>570.0</ele>
        <time>2015-12-07T16:40:54.000Z</time>
      </trkpt>
      <trkpt lat="39.840615475550294" lon="-6.157449837774038">
        <ele>571.0</ele>
        <time>2015-12-07T16:40:59.000Z</time>
      </trkpt>
      <trkpt lat="39.84053744003177" lon="-6.157138952985406">
        <ele>572.4000244140625</ele>
        <time>2015-12-07T16:41:06.000Z</time>
      </trkpt>
      <trkpt lat="39.84049167484045" lon="-6.156939715147018">
        <ele>572.5999755859375</ele>
        <time>2015-12-07T16:41:11.000Z</time>
      </trkpt>
      <trkpt lat="39.84044129960239" lon="-6.156720779836178">
        <ele>573.0</ele>
        <time>2015-12-07T16:41:16.000Z</time>
      </trkpt>
      <trkpt lat="39.84038069844246" lon="-6.156470077112317">
        <ele>573.4000244140625</ele>
        <time>2015-12-07T16:41:22.000Z</time>
      </trkpt>
      <trkpt lat="39.84027123078704" lon="-6.1561595275998116">
        <ele>577.2000122070312</ele>
        <time>2015-12-07T16:41:30.000Z</time>
      </trkpt>
      <trkpt lat="39.84020979143679" lon="-6.1560137663036585">
        <ele>579.2000122070312</ele>
        <time>2015-12-07T16:41:35.000Z</time>
      </trkpt>
      <trkpt lat="39.84013779088855" lon="-6.155796507373452">
        <ele>581.5999755859375</ele>
        <time>2015-12-07T16:41:42.000Z</time>
      </trkpt>
      <trkpt lat="39.840105939656496" lon="-6.155650997534394">
        <ele>582.4000244140625</ele>
        <time>2015-12-07T16:41:47.000Z</time>
      </trkpt>
      <trkpt lat="39.840050200000405" lon="-6.155510349199176">
        <ele>584.0</ele>
        <time>2015-12-07T16:41:52.000Z</time>
      </trkpt>
      <trkpt lat="39.840015918016434" lon="-6.155359223484993">
        <ele>585.2000122070312</ele>
        <time>2015-12-07T16:41:57.000Z</time>
      </trkpt>
      <trkpt lat="39.83998599462211" lon="-6.15525059401989">
        <ele>586.0</ele>
        <time>2015-12-07T16:42:01.000Z</time>
      </trkpt>
      <trkpt lat="39.839939810335636" lon="-6.155064012855291">
        <ele>587.0</ele>
        <time>2015-12-07T16:42:07.000Z</time>
      </trkpt>
      <trkpt lat="39.83991164714098" lon="-6.154922442510724">
        <ele>587.4000244140625</ele>
        <time>2015-12-07T16:42:12.000Z</time>
      </trkpt>
      <trkpt lat="39.83990225940943" lon="-6.154832253232598">
        <ele>587.2000122070312</ele>
        <time>2015-12-07T16:42:16.000Z</time>
      </trkpt>
      <trkpt lat="39.83989354223013" lon="-6.1548027489334345">
        <ele>587.4000244140625</ele>
        <time>2015-12-07T16:42:17.000Z</time>
      </trkpt>
      <trkpt lat="39.83987837098539" lon="-6.154738375917077">
        <ele>587.5999755859375</ele>
        <time>2015-12-07T16:42:20.000Z</time>
      </trkpt>
      <trkpt lat="39.83987116254866" lon="-6.154686575755477">
        <ele>587.7999877929688</ele>
        <time>2015-12-07T16:42:22.000Z</time>
      </trkpt>
      <trkpt lat="39.839830845594406" lon="-6.154518350958824">
        <ele>588.7999877929688</ele>
        <time>2015-12-07T16:42:28.000Z</time>
      </trkpt>
      <trkpt lat="39.83979782089591" lon="-6.154386168345809">
        <ele>590.2000122070312</ele>
        <time>2015-12-07T16:42:33.000Z</time>
      </trkpt>
      <trkpt lat="39.83977594412863" lon="-6.154251471161842">
        <ele>591.2000122070312</ele>
        <time>2015-12-07T16:42:38.000Z</time>
      </trkpt>
      <trkpt lat="39.839747278019786" lon="-6.154088191688061">
        <ele>592.4000244140625</ele>
        <time>2015-12-07T16:42:44.000Z</time>
      </trkpt>
      <trkpt lat="39.83972992748022" lon="-6.153969168663025">
        <ele>593.4000244140625</ele>
        <time>2015-12-07T16:42:49.000Z</time>
      </trkpt>
      <trkpt lat="39.839719450101256" lon="-6.153945028781891">
        <ele>593.7999877929688</ele>
        <time>2015-12-07T16:42:50.000Z</time>
      </trkpt>
      <trkpt lat="39.83970394358039" lon="-6.153861293569207">
        <ele>594.5999755859375</ele>
        <time>2015-12-07T16:42:53.000Z</time>
      </trkpt>
      <trkpt lat="39.839690532535315" lon="-6.153778983280063">
        <ele>595.2000122070312</ele>
        <time>2015-12-07T16:42:56.000Z</time>
      </trkpt>
      <trkpt lat="39.83966832049191" lon="-6.153630372136831">
        <ele>596.0</ele>
        <time>2015-12-07T16:43:02.000Z</time>
      </trkpt>
      <trkpt lat="39.8396479524672" lon="-6.1534668412059546">
        <ele>596.7999877929688</ele>
        <time>2015-12-07T16:43:09.000Z</time>
      </trkpt>
      <trkpt lat="39.83962808735669" lon="-6.153346560895443">
        <ele>597.5999755859375</ele>
        <time>2015-12-07T16:43:14.000Z</time>
      </trkpt>
      <trkpt lat="39.839597158133984" lon="-6.15314606577158">
        <ele>598.7999877929688</ele>
        <time>2015-12-07T16:43:22.000Z</time>
      </trkpt>
      <trkpt lat="39.83957268297672" lon="-6.152997286990285">
        <ele>599.5999755859375</ele>
        <time>2015-12-07T16:43:28.000Z</time>
      </trkpt>
      <trkpt lat="39.8395533207804" lon="-6.152846580371261">
        <ele>600.4000244140625</ele>
        <time>2015-12-07T16:43:34.000Z</time>
      </trkpt>
      <trkpt lat="39.83952675014734" lon="-6.1527247074991465">
        <ele>601.0</ele>
        <time>2015-12-07T16:43:39.000Z</time>
      </trkpt>
      <trkpt lat="39.839475620537996" lon="-6.15251624956727">
        <ele>602.0</ele>
        <time>2015-12-07T16:43:47.000Z</time>
      </trkpt>
      <trkpt lat="39.83941703103483" lon="-6.152341486886144">
        <ele>603.4000244140625</ele>
        <time>2015-12-07T16:43:53.000Z</time>
      </trkpt>
      <trkpt lat="39.83937126584351" lon="-6.152175609022379">
        <ele>604.5999755859375</ele>
        <time>2015-12-07T16:43:59.000Z</time>
      </trkpt>
      <trkpt lat="39.839313263073564" lon="-6.151982741430402">
        <ele>606.0</ele>
        <time>2015-12-07T16:44:06.000Z</time>
      </trkpt>
      <trkpt lat="39.8392528295517" lon="-6.151785850524902">
        <ele>607.4000244140625</ele>
        <time>2015-12-07T16:44:14.000Z</time>
      </trkpt>
      <trkpt lat="39.83919289894402" lon="-6.151593737304211">
        <ele>608.0</ele>
        <time>2015-12-07T16:44:21.000Z</time>
      </trkpt>
      <trkpt lat="39.83911335468292" lon="-6.151341861113906">
        <ele>609.0</ele>
        <time>2015-12-07T16:44:30.000Z</time>
      </trkpt>
      <trkpt lat="39.83907546848059" lon="-6.151133738458157">
        <ele>609.5999755859375</ele>
        <time>2015-12-07T16:44:37.000Z</time>
      </trkpt>
      <trkpt lat="39.8390400968492" lon="-6.1509019788354635">
        <ele>610.0</ele>
        <time>2015-12-07T16:44:43.000Z</time>
      </trkpt>
      <trkpt lat="39.8390022944659" lon="-6.150667872279882">
        <ele>610.5999755859375</ele>
        <time>2015-12-07T16:44:49.000Z</time>
      </trkpt>
      <trkpt lat="39.83895745128393" lon="-6.15044885315001">
        <ele>611.0</ele>
        <time>2015-12-07T16:44:55.000Z</time>
      </trkpt>
      <trkpt lat="39.83891788870096" lon="-6.150234527885914">
        <ele>611.0</ele>
        <time>2015-12-07T16:45:01.000Z</time>
      </trkpt>
      <trkpt lat="39.838846726343036" lon="-6.1499368865042925">
        <ele>611.4000244140625</ele>
        <time>2015-12-07T16:45:09.000Z</time>
      </trkpt>
      <trkpt lat="39.83878528699279" lon="-6.14972080104053">
        <ele>611.5999755859375</ele>
        <time>2015-12-07T16:45:15.000Z</time>
      </trkpt>
      <trkpt lat="39.838740611448884" lon="-6.149538494646549">
        <ele>611.0</ele>
        <time>2015-12-07T16:45:20.000Z</time>
      </trkpt>
      <trkpt lat="39.838633155450225" lon="-6.149219311773777">
        <ele>607.0</ele>
        <time>2015-12-07T16:45:29.000Z</time>
      </trkpt>
      <trkpt lat="39.83854020014405" lon="-6.148958969861269">
        <ele>602.7999877929688</ele>
        <time>2015-12-07T16:45:35.000Z</time>
      </trkpt>
      <trkpt lat="39.838471887633204" lon="-6.148781105875969">
        <ele>599.7999877929688</ele>
        <time>2015-12-07T16:45:40.000Z</time>
      </trkpt>
      <trkpt lat="39.83842025510967" lon="-6.148567786440253">
        <ele>597.0</ele>
        <time>2015-12-07T16:45:47.000Z</time>
      </trkpt>
      <trkpt lat="39.83839997090399" lon="-6.1483830492943525">
        <ele>595.4000244140625</ele>
        <time>2015-12-07T16:45:54.000Z</time>
      </trkpt>
      <trkpt lat="39.83837096951902" lon="-6.148190014064312">
        <ele>593.7999877929688</ele>
        <time>2015-12-07T16:46:00.000Z</time>
      </trkpt>
      <trkpt lat="39.83834255486727" lon="-6.147978538647294">
        <ele>591.7999877929688</ele>
        <time>2015-12-07T16:46:06.000Z</time>
      </trkpt>
      <trkpt lat="39.83831103891134" lon="-6.147723980247974">
        <ele>589.4000244140625</ele>
        <time>2015-12-07T16:46:13.000Z</time>
      </trkpt>
      <trkpt lat="39.83827491290867" lon="-6.147488281130791">
        <ele>587.7999877929688</ele>
        <time>2015-12-07T16:46:20.000Z</time>
      </trkpt>
      <trkpt lat="39.83823727816343" lon="-6.147255850955844">
        <ele>586.2000122070312</ele>
        <time>2015-12-07T16:46:26.000Z</time>
      </trkpt>
      <trkpt lat="39.83819905668497" lon="-6.146939182654023">
        <ele>586.0</ele>
        <time>2015-12-07T16:46:33.000Z</time>
      </trkpt>
      <trkpt lat="39.83815857209265" lon="-6.146644977852702">
        <ele>584.7999877929688</ele>
        <time>2015-12-07T16:46:40.000Z</time>
      </trkpt>
      <trkpt lat="39.83817860484123" lon="-6.146389413625002">
        <ele>584.7999877929688</ele>
        <time>2015-12-07T16:46:47.000Z</time>
      </trkpt>
      <trkpt lat="39.83826443552971" lon="-6.146160084754229">
        <ele>586.5999755859375</ele>
        <time>2015-12-07T16:46:54.000Z</time>
      </trkpt>
      <trkpt lat="39.83838136307895" lon="-6.1458473559468985">
        <ele>588.7999877929688</ele>
        <time>2015-12-07T16:47:01.000Z</time>
      </trkpt>
      <trkpt lat="39.83849577605724" lon="-6.145393894985318">
        <ele>590.7999877929688</ele>
        <time>2015-12-07T16:47:09.000Z</time>
      </trkpt>
      <trkpt lat="39.83858931809664" lon="-6.144978990778327">
        <ele>593.0</ele>
        <time>2015-12-07T16:47:15.000Z</time>
      </trkpt>
      <trkpt lat="39.83860457316041" lon="-6.144907912239432">
        <ele>593.2000122070312</ele>
        <time>2015-12-07T16:47:16.000Z</time>
      </trkpt>
      <trkpt lat="39.838670287281275" lon="-6.144511615857482">
        <ele>593.5999755859375</ele>
        <time>2015-12-07T16:47:22.000Z</time>
      </trkpt>
      <trkpt lat="39.8387086763978" lon="-6.143962601199746">
        <ele>592.5999755859375</ele>
        <time>2015-12-07T16:47:31.000Z</time>
      </trkpt>
      <trkpt lat="39.83874781988561" lon="-6.1434624530375">
        <ele>592.4000244140625</ele>
        <time>2015-12-07T16:47:39.000Z</time>
      </trkpt>
      <trkpt lat="39.83874371275306" lon="-6.1430939845740795">
        <ele>592.0</ele>
        <time>2015-12-07T16:47:45.000Z</time>
      </trkpt>
      <trkpt lat="39.83865444548428" lon="-6.142650665715337">
        <ele>592.7999877929688</ele>
        <time>2015-12-07T16:47:53.000Z</time>
      </trkpt>
      <trkpt lat="39.838600885123014" lon="-6.142247663810849">
        <ele>593.5999755859375</ele>
        <time>2015-12-07T16:48:01.000Z</time>
      </trkpt>
      <trkpt lat="39.83853290788829" lon="-6.1419448256492615">
        <ele>592.5999755859375</ele>
        <time>2015-12-07T16:48:07.000Z</time>
      </trkpt>
      <trkpt lat="39.838405922055244" lon="-6.1413870099931955">
        <ele>590.5999755859375</ele>
        <time>2015-12-07T16:48:18.000Z</time>
      </trkpt>
      <trkpt lat="39.83831187710166" lon="-6.140977554023266">
        <ele>588.7999877929688</ele>
        <time>2015-12-07T16:48:27.000Z</time>
      </trkpt>
      <trkpt lat="39.83827734366059" lon="-6.140669686719775">
        <ele>589.0</ele>
        <time>2015-12-07T16:48:33.000Z</time>
      </trkpt>
      <trkpt lat="39.83824389986694" lon="-6.140440860763192">
        <ele>588.0</ele>
        <time>2015-12-07T16:48:37.000Z</time>
      </trkpt>
      <trkpt lat="39.838230572640896" lon="-6.140308510512114">
        <ele>587.2000122070312</ele>
        <time>2015-12-07T16:48:39.000Z</time>
      </trkpt>
      <trkpt lat="39.83820031397045" lon="-6.139909531921148">
        <ele>585.0</ele>
        <time>2015-12-07T16:48:44.000Z</time>
      </trkpt>
      <trkpt lat="39.838226633146405" lon="-6.1393846571445465">
        <ele>582.5999755859375</ele>
        <time>2015-12-07T16:48:49.000Z</time>
      </trkpt>
      <trkpt lat="39.83824498951435" lon="-6.138595584779978">
        <ele>581.7999877929688</ele>
        <time>2015-12-07T16:48:56.000Z</time>
      </trkpt>
      <trkpt lat="39.83825420960784" lon="-6.138378577306867">
        <ele>582.0</ele>
        <time>2015-12-07T16:48:58.000Z</time>
      </trkpt>
      <trkpt lat="39.838299388065934" lon="-6.137670977041125">
        <ele>580.2000122070312</ele>
        <time>2015-12-07T16:49:04.000Z</time>
      </trkpt>
      <trkpt lat="39.83832838945091" lon="-6.137309046462178">
        <ele>578.2000122070312</ele>
        <time>2015-12-07T16:49:07.000Z</time>
      </trkpt>
      <trkpt lat="39.838396618142724" lon="-6.136608151718974">
        <ele>576.4000244140625</ele>
        <time>2015-12-07T16:49:13.000Z</time>
      </trkpt>
      <trkpt lat="39.838424529880285" lon="-6.136499270796776">
        <ele>576.2000122070312</ele>
        <time>2015-12-07T16:49:14.000Z</time>
      </trkpt>
      <trkpt lat="39.838603315874934" lon="-6.1361002922058105">
        <ele>579.7999877929688</ele>
        <time>2015-12-07T16:49:18.000Z</time>
      </trkpt>
      <trkpt lat="39.838935658335686" lon="-6.135504757985473">
        <ele>579.2000122070312</ele>
        <time>2015-12-07T16:49:24.000Z</time>
      </trkpt>
      <trkpt lat="39.839041605591774" lon="-6.1353222001343966">
        <ele>578.7999877929688</ele>
        <time>2015-12-07T16:49:26.000Z</time>
      </trkpt>
      <trkpt lat="39.83930236659944" lon="-6.134896231815219">
        <ele>576.5999755859375</ele>
        <time>2015-12-07T16:49:31.000Z</time>
      </trkpt>
      <trkpt lat="39.8395115789026" lon="-6.134418630972505">
        <ele>575.7999877929688</ele>
        <time>2015-12-07T16:49:36.000Z</time>
      </trkpt>
      <trkpt lat="39.839744344353676" lon="-6.133711198344827">
        <ele>571.5999755859375</ele>
        <time>2015-12-07T16:49:42.000Z</time>
      </trkpt>
      <trkpt lat="39.83983880840242" lon="-6.133034527301788">
        <ele>570.5999755859375</ele>
        <time>2015-12-07T16:49:47.000Z</time>
      </trkpt>
      <trkpt lat="39.83984190970659" lon="-6.132436981424689">
        <ele>569.7999877929688</ele>
        <time>2015-12-07T16:49:52.000Z</time>
      </trkpt>
      <trkpt lat="39.83982858248055" lon="-6.131946891546249">
        <ele>568.7999877929688</ele>
        <time>2015-12-07T16:49:57.000Z</time>
      </trkpt>
      <trkpt lat="39.83977451920509" lon="-6.131278267130256">
        <ele>569.5999755859375</ele>
        <time>2015-12-07T16:50:04.000Z</time>
      </trkpt>
      <trkpt lat="39.83966203406453" lon="-6.130781974643469">
        <ele>571.2000122070312</ele>
        <time>2015-12-07T16:50:10.000Z</time>
      </trkpt>
      <trkpt lat="39.83955558389425" lon="-6.130198342725635">
        <ele>573.0</ele>
        <time>2015-12-07T16:50:17.000Z</time>
      </trkpt>
      <trkpt lat="39.83945022337139" lon="-6.129533322528005">
        <ele>571.4000244140625</ele>
        <time>2015-12-07T16:50:25.000Z</time>
      </trkpt>
      <trkpt lat="39.83937654644251" lon="-6.128979781642556">
        <ele>568.5999755859375</ele>
        <time>2015-12-07T16:50:32.000Z</time>
      </trkpt>
      <trkpt lat="39.83937034383416" lon="-6.12833546474576">
        <ele>565.5999755859375</ele>
        <time>2015-12-07T16:50:40.000Z</time>
      </trkpt>
      <trkpt lat="39.83938450925052" lon="-6.127950148656964">
        <ele>565.4000244140625</ele>
        <time>2015-12-07T16:50:45.000Z</time>
      </trkpt>
      <trkpt lat="39.83938593417406" lon="-6.127547565847635">
        <ele>566.7999877929688</ele>
        <time>2015-12-07T16:50:50.000Z</time>
      </trkpt>
      <trkpt lat="39.839351400732994" lon="-6.1270989663898945">
        <ele>569.2000122070312</ele>
        <time>2015-12-07T16:50:56.000Z</time>
      </trkpt>
      <trkpt lat="39.83933991752565" lon="-6.126961670815945">
        <ele>569.5999755859375</ele>
        <time>2015-12-07T16:50:58.000Z</time>
      </trkpt>
      <trkpt lat="39.839291889220476" lon="-6.1262875981628895">
        <ele>571.0</ele>
        <time>2015-12-07T16:51:07.000Z</time>
      </trkpt>
      <trkpt lat="39.83923329971731" lon="-6.125936144962907">
        <ele>570.4000244140625</ele>
        <time>2015-12-07T16:51:12.000Z</time>
      </trkpt>
      <trkpt lat="39.8391524143517" lon="-6.125544207170606">
        <ele>570.2000122070312</ele>
        <time>2015-12-07T16:51:18.000Z</time>
      </trkpt>
      <trkpt lat="39.83907136134803" lon="-6.125203315168619">
        <ele>569.0</ele>
        <time>2015-12-07T16:51:23.000Z</time>
      </trkpt>
      <trkpt lat="39.838952170684934" lon="-6.124690929427743">
        <ele>568.4000244140625</ele>
        <time>2015-12-07T16:51:30.000Z</time>
      </trkpt>
      <trkpt lat="39.83881110325456" lon="-6.124105369672179">
        <ele>568.0</ele>
        <time>2015-12-07T16:51:37.000Z</time>
      </trkpt>
      <trkpt lat="39.838663497939706" lon="-6.1236367374658585">
        <ele>564.4000244140625</ele>
        <time>2015-12-07T16:51:42.000Z</time>
      </trkpt>
      <trkpt lat="39.8384858854115" lon="-6.122953863814473">
        <ele>555.7999877929688</ele>
        <time>2015-12-07T16:51:49.000Z</time>
      </trkpt>
      <trkpt lat="39.83830198645592" lon="-6.122413147240877">
        <ele>552.2000122070312</ele>
        <time>2015-12-07T16:51:55.000Z</time>
      </trkpt>
      <trkpt lat="39.838255885988474" lon="-6.122325221076608">
        <ele>551.7999877929688</ele>
        <time>2015-12-07T16:51:56.000Z</time>
      </trkpt>
      <trkpt lat="39.83813837170601" lon="-6.122244503349066">
        <ele>550.7999877929688</ele>
        <time>2015-12-07T16:51:58.000Z</time>
      </trkpt>
      <trkpt lat="39.837938379496336" lon="-6.122260428965092">
        <ele>549.4000244140625</ele>
        <time>2015-12-07T16:52:01.000Z</time>
      </trkpt>
      <trkpt lat="39.83771542087197" lon="-6.122399400919676">
        <ele>542.4000244140625</ele>
        <time>2015-12-07T16:52:05.000Z</time>
      </trkpt>
      <trkpt lat="39.83766454271972" lon="-6.122460924088955">
        <ele>540.5999755859375</ele>
        <time>2015-12-07T16:52:06.000Z</time>
      </trkpt>
      <trkpt lat="39.83756756410003" lon="-6.1225950345396996">
        <ele>537.0</ele>
        <time>2015-12-07T16:52:08.000Z</time>
      </trkpt>
      <trkpt lat="39.83751526102424" lon="-6.122765522450209">
        <ele>535.2000122070312</ele>
        <time>2015-12-07T16:52:10.000Z</time>
      </trkpt>
      <trkpt lat="39.837469244375825" lon="-6.122997114434838">
        <ele>533.7999877929688</ele>
        <time>2015-12-07T16:52:12.000Z</time>
      </trkpt>
      <trkpt lat="39.83743001706898" lon="-6.123244632035494">
        <ele>532.2000122070312</ele>
        <time>2015-12-07T16:52:14.000Z</time>
      </trkpt>
      <trkpt lat="39.83730738982558" lon="-6.124032028019428">
        <ele>528.2000122070312</ele>
        <time>2015-12-07T16:52:20.000Z</time>
      </trkpt>
      <trkpt lat="39.837237652391195" lon="-6.1248736549168825">
        <ele>523.4000244140625</ele>
        <time>2015-12-07T16:52:26.000Z</time>
      </trkpt>
      <trkpt lat="39.83720722608268" lon="-6.125710504129529">
        <ele>523.4000244140625</ele>
        <time>2015-12-07T16:52:32.000Z</time>
      </trkpt>
      <trkpt lat="39.837086610496044" lon="-6.126250131055713">
        <ele>519.5999755859375</ele>
        <time>2015-12-07T16:52:36.000Z</time>
      </trkpt>
      <trkpt lat="39.83695995993912" lon="-6.12693409435451">
        <ele>516.0</ele>
        <time>2015-12-07T16:52:41.000Z</time>
      </trkpt>
      <trkpt lat="39.83694126829505" lon="-6.127078095450997">
        <ele>515.4000244140625</ele>
        <time>2015-12-07T16:52:42.000Z</time>
      </trkpt>
      <trkpt lat="39.83689935877919" lon="-6.127628618851304">
        <ele>511.20001220703125</ele>
        <time>2015-12-07T16:52:46.000Z</time>
      </trkpt>
      <trkpt lat="39.836912183091044" lon="-6.127773877233267">
        <ele>510.79998779296875</ele>
        <time>2015-12-07T16:52:47.000Z</time>
      </trkpt>
      <trkpt lat="39.836987955495715" lon="-6.128424648195505">
        <ele>511.3999938964844</ele>
        <time>2015-12-07T16:52:52.000Z</time>
      </trkpt>
      <trkpt lat="39.836971359327435" lon="-6.128918845206499">
        <ele>509.3999938964844</ele>
        <time>2015-12-07T16:52:56.000Z</time>
      </trkpt>
      <trkpt lat="39.83684320002794" lon="-6.129502980038524">
        <ele>507.3999938964844</ele>
        <time>2015-12-07T16:53:01.000Z</time>
      </trkpt>
      <trkpt lat="39.83669257722795" lon="-6.130235642194748">
        <ele>505.79998779296875</ele>
        <time>2015-12-07T16:53:07.000Z</time>
      </trkpt>
      <trkpt lat="39.836668353527784" lon="-6.130362041294575">
        <ele>505.20001220703125</ele>
        <time>2015-12-07T16:53:08.000Z</time>
      </trkpt>
      <trkpt lat="39.836535500362515" lon="-6.131126135587692">
        <ele>502.79998779296875</ele>
        <time>2015-12-07T16:53:14.000Z</time>
      </trkpt>
      <trkpt lat="39.83649283647537" lon="-6.131371892988682">
        <ele>502.20001220703125</ele>
        <time>2015-12-07T16:53:16.000Z</time>
      </trkpt>
      <trkpt lat="39.83637875877321" lon="-6.132136154919863">
        <ele>499.6000061035156</ele>
        <time>2015-12-07T16:53:22.000Z</time>
      </trkpt>
      <trkpt lat="39.83633819036186" lon="-6.132403956726193">
        <ele>498.20001220703125</ele>
        <time>2015-12-07T16:53:24.000Z</time>
      </trkpt>
      <trkpt lat="39.8362238612026" lon="-6.133151957765222">
        <ele>493.6000061035156</ele>
        <time>2015-12-07T16:53:30.000Z</time>
      </trkpt>
      <trkpt lat="39.83620584011078" lon="-6.13340106792748">
        <ele>491.0</ele>
        <time>2015-12-07T16:53:32.000Z</time>
      </trkpt>
      <trkpt lat="39.83625671826303" lon="-6.133729889988899">
        <ele>490.0</ele>
        <time>2015-12-07T16:53:35.000Z</time>
      </trkpt>
      <trkpt lat="39.83632109127939" lon="-6.133937258273363">
        <ele>491.0</ele>
        <time>2015-12-07T16:53:37.000Z</time>
      </trkpt>
      <trkpt lat="39.83635537326336" lon="-6.1341471411287785">
        <ele>493.3999938964844</ele>
        <time>2015-12-07T16:53:39.000Z</time>
      </trkpt>
      <trkpt lat="39.83631472103298" lon="-6.134594986215234">
        <ele>494.0</ele>
        <time>2015-12-07T16:53:43.000Z</time>
      </trkpt>
      <trkpt lat="39.83619402162731" lon="-6.134894974529743">
        <ele>490.79998779296875</ele>
        <time>2015-12-07T16:53:46.000Z</time>
      </trkpt>
      <trkpt lat="39.8360906727612" lon="-6.135094715282321">
        <ele>489.0</ele>
        <time>2015-12-07T16:53:48.000Z</time>
      </trkpt>
      <trkpt lat="39.83597047626972" lon="-6.1354076117277145">
        <ele>487.20001220703125</ele>
        <time>2015-12-07T16:53:51.000Z</time>
      </trkpt>
      <trkpt lat="39.83588296920061" lon="-6.135786725208163">
        <ele>486.20001220703125</ele>
        <time>2015-12-07T16:53:55.000Z</time>
      </trkpt>
      <trkpt lat="39.835796719416976" lon="-6.136258207261562">
        <ele>485.0</ele>
        <time>2015-12-07T16:54:01.000Z</time>
      </trkpt>
      <trkpt lat="39.83574156649411" lon="-6.136589040979743">
        <ele>484.20001220703125</ele>
        <time>2015-12-07T16:54:06.000Z</time>
      </trkpt>
      <trkpt lat="39.8357058595866" lon="-6.136645870283246">
        <ele>483.20001220703125</ele>
        <time>2015-12-07T16:54:08.000Z</time>
      </trkpt>
      <trkpt lat="39.83568750321865" lon="-6.136629190295935">
        <ele>482.6000061035156</ele>
        <time>2015-12-07T16:54:09.000Z</time>
      </trkpt>
      <trkpt lat="39.83569756150246" lon="-6.136610582470894">
        <ele>482.79998779296875</ele>
        <time>2015-12-07T16:54:12.000Z</time>
      </trkpt>
      <trkpt lat="39.835702423006296" lon="-6.136483512818813">
        <ele>482.79998779296875</ele>
        <time>2015-12-07T16:54:51.000Z</time>
      </trkpt>
      <trkpt lat="39.835658920928836" lon="-6.136446548625827">
        <ele>481.3999938964844</ele>
        <time>2015-12-07T16:54:53.000Z</time>
      </trkpt>
      <trkpt lat="39.83560435473919" lon="-6.136417966336012">
        <ele>479.6000061035156</ele>
        <time>2015-12-07T16:54:55.000Z</time>
      </trkpt>
      <trkpt lat="39.835461527109146" lon="-6.136349234730005">
        <ele>475.0</ele>
        <time>2015-12-07T16:55:00.000Z</time>
      </trkpt>
      <trkpt lat="39.835341246798635" lon="-6.136372033506632">
        <ele>471.3999938964844</ele>
        <time>2015-12-07T16:55:04.000Z</time>
      </trkpt>
      <trkpt lat="39.8352927993983" lon="-6.136381672695279">
        <ele>470.0</ele>
        <time>2015-12-07T16:55:06.000Z</time>
      </trkpt>
      <trkpt lat="39.83526421710849" lon="-6.1363220773637295">
        <ele>469.0</ele>
        <time>2015-12-07T16:55:08.000Z</time>
      </trkpt>
      <trkpt lat="39.83518450520933" lon="-6.136157959699631">
        <ele>466.20001220703125</ele>
        <time>2015-12-07T16:55:13.000Z</time>
      </trkpt>
      <trkpt lat="39.83507704921067" lon="-6.136123342439532">
        <ele>462.79998779296875</ele>
        <time>2015-12-07T16:55:17.000Z</time>
      </trkpt>
      <trkpt lat="39.83505131676793" lon="-6.1361117754131556">
        <ele>462.0</ele>
        <time>2015-12-07T16:55:18.000Z</time>
      </trkpt>
      <trkpt lat="39.834929779171944" lon="-6.136045139282942">
        <ele>458.20001220703125</ele>
        <time>2015-12-07T16:55:24.000Z</time>
      </trkpt>
      <trkpt lat="39.83489700593054" lon="-6.1359798442572355">
        <ele>457.20001220703125</ele>
        <time>2015-12-07T16:55:28.000Z</time>
      </trkpt>
      <trkpt lat="39.83489935286343" lon="-6.135967271402478">
        <ele>457.20001220703125</ele>
        <time>2015-12-07T16:55:30.000Z</time>
      </trkpt>
      <trkpt lat="39.8348992690444" lon="-6.1359695345163345">
        <ele>457.20001220703125</ele>
        <time>2015-12-07T16:55:31.000Z</time>
      </trkpt>
      <trkpt lat="39.834672873839736" lon="-6.1358702927827835">
        <ele>450.20001220703125</ele>
        <time>2015-12-07T16:56:33.000Z</time>
      </trkpt>
      <trkpt lat="39.8346368316561" lon="-6.135881273075938">
        <ele>449.0</ele>
        <time>2015-12-07T16:56:35.000Z</time>
      </trkpt>
      <trkpt lat="39.834483694285154" lon="-6.135956542566419">
        <ele>445.20001220703125</ele>
        <time>2015-12-07T16:56:41.000Z</time>
      </trkpt>
      <trkpt lat="39.83432812616229" lon="-6.1360325664281845">
        <ele>442.20001220703125</ele>
        <time>2015-12-07T16:56:45.000Z</time>
      </trkpt>
      <trkpt lat="39.83410097658634" lon="-6.136116636916995">
        <ele>437.3999938964844</ele>
        <time>2015-12-07T16:56:51.000Z</time>
      </trkpt>
      <trkpt lat="39.833896458148956" lon="-6.136176651343703">
        <ele>433.3999938964844</ele>
        <time>2015-12-07T16:56:55.000Z</time>
      </trkpt>
      <trkpt lat="39.833856392651796" lon="-6.1361960135400295">
        <ele>432.6000061035156</ele>
        <time>2015-12-07T16:56:56.000Z</time>
      </trkpt>
      <trkpt lat="39.83376419171691" lon="-6.136286873370409">
        <ele>430.79998779296875</ele>
        <time>2015-12-07T16:56:59.000Z</time>
      </trkpt>
      <trkpt lat="39.83371775597334" lon="-6.136367255821824">
        <ele>430.0</ele>
        <time>2015-12-07T16:57:01.000Z</time>
      </trkpt>
      <trkpt lat="39.833682887256145" lon="-6.136419139802456">
        <ele>429.3999938964844</ele>
        <time>2015-12-07T16:57:03.000Z</time>
      </trkpt>
      <trkpt lat="39.83366159722209" lon="-6.136426851153374">
        <ele>429.20001220703125</ele>
        <time>2015-12-07T16:57:04.000Z</time>
      </trkpt>
      <trkpt lat="39.83353570103645" lon="-6.136384103447199">
        <ele>427.3999938964844</ele>
        <time>2015-12-07T16:57:08.000Z</time>
      </trkpt>
      <trkpt lat="39.833369152620435" lon="-6.136336326599121">
        <ele>425.0</ele>
        <time>2015-12-07T16:57:12.000Z</time>
      </trkpt>
      <trkpt lat="39.83332950621843" lon="-6.136320065706968">
        <ele>424.3999938964844</ele>
        <time>2015-12-07T16:57:13.000Z</time>
      </trkpt>
      <trkpt lat="39.83314803801477" lon="-6.13621411845088">
        <ele>421.79998779296875</ele>
        <time>2015-12-07T16:57:18.000Z</time>
      </trkpt>
      <trkpt lat="39.833085341379046" lon="-6.136173969134688">
        <ele>421.0</ele>
        <time>2015-12-07T16:57:20.000Z</time>
      </trkpt>
      <trkpt lat="39.83302650041878" lon="-6.1360514257103205">
        <ele>420.20001220703125</ele>
        <time>2015-12-07T16:57:23.000Z</time>
      </trkpt>
      <trkpt lat="39.832975873723626" lon="-6.135945059359074">
        <ele>419.79998779296875</ele>
        <time>2015-12-07T16:57:25.000Z</time>
      </trkpt>
      <trkpt lat="39.83291996642947" lon="-6.135803069919348">
        <ele>419.20001220703125</ele>
        <time>2015-12-07T16:57:27.000Z</time>
      </trkpt>
      <trkpt lat="39.83276557177305" lon="-6.135468380525708">
        <ele>416.79998779296875</ele>
        <time>2015-12-07T16:57:32.000Z</time>
      </trkpt>
      <trkpt lat="39.832637161016464" lon="-6.135303257033229">
        <ele>414.6000061035156</ele>
        <time>2015-12-07T16:57:36.000Z</time>
      </trkpt>
      <trkpt lat="39.8324953392148" lon="-6.135194208472967">
        <ele>412.3999938964844</ele>
        <time>2015-12-07T16:57:42.000Z</time>
      </trkpt>
      <trkpt lat="39.83232267200947" lon="-6.135156825184822">
        <ele>410.6000061035156</ele>
        <time>2015-12-07T16:57:50.000Z</time>
      </trkpt>
      <trkpt lat="39.83222980052233" lon="-6.135200997814536">
        <ele>409.6000061035156</ele>
        <time>2015-12-07T16:57:55.000Z</time>
      </trkpt>
      <trkpt lat="39.83212284743786" lon="-6.135252211242914">
        <ele>408.6000061035156</ele>
        <time>2015-12-07T16:58:01.000Z</time>
      </trkpt>
      <trkpt lat="39.83199435286224" lon="-6.135297305881977">
        <ele>407.6000061035156</ele>
        <time>2015-12-07T16:58:07.000Z</time>
      </trkpt>
      <trkpt lat="39.83185915276408" lon="-6.135351536795497">
        <ele>406.6000061035156</ele>
        <time>2015-12-07T16:58:14.000Z</time>
      </trkpt>
      <trkpt lat="39.8318425565958" lon="-6.135362600907683">
        <ele>406.3999938964844</ele>
        <time>2015-12-07T16:58:17.000Z</time>
      </trkpt>
      <trkpt lat="39.83181020244956" lon="-6.135406270623207">
        <ele>406.20001220703125</ele>
        <time>2015-12-07T16:58:26.000Z</time>
      </trkpt>
      <trkpt lat="39.83166075311601" lon="-6.135532837361097">
        <ele>405.20001220703125</ele>
        <time>2015-12-07T16:58:30.000Z</time>
      </trkpt>
      <trkpt lat="39.83144307509065" lon="-6.135734086856246">
        <ele>403.3999938964844</ele>
        <time>2015-12-07T16:58:35.000Z</time>
      </trkpt>
      <trkpt lat="39.83131022192538" lon="-6.135885966941714">
        <ele>402.20001220703125</ele>
        <time>2015-12-07T16:58:39.000Z</time>
      </trkpt>
      <trkpt lat="39.831148283556104" lon="-6.136055449023843">
        <ele>401.6000061035156</ele>
        <time>2015-12-07T16:58:45.000Z</time>
      </trkpt>
      <trkpt lat="39.8310362175107" lon="-6.13616768270731">
        <ele>401.6000061035156</ele>
        <time>2015-12-07T16:58:51.000Z</time>
      </trkpt>
      <trkpt lat="39.830905962735415" lon="-6.136310091242194">
        <ele>401.6000061035156</ele>
        <time>2015-12-07T16:58:58.000Z</time>
      </trkpt>
      <trkpt lat="39.8307600338012" lon="-6.136525338515639">
        <ele>401.79998779296875</ele>
        <time>2015-12-07T16:59:04.000Z</time>
      </trkpt>
      <trkpt lat="39.83070915564895" lon="-6.1367682460695505">
        <ele>402.79998779296875</ele>
        <time>2015-12-07T16:59:08.000Z</time>
      </trkpt>
      <trkpt lat="39.83068937435746" lon="-6.137177282944322">
        <ele>404.6000061035156</ele>
        <time>2015-12-07T16:59:14.000Z</time>
      </trkpt>
      <trkpt lat="39.830696331337094" lon="-6.137241488322616">
        <ele>404.79998779296875</ele>
        <time>2015-12-07T16:59:15.000Z</time>
      </trkpt>
      <trkpt lat="39.830668000504375" lon="-6.1374470964074135">
        <ele>406.3999938964844</ele>
        <time>2015-12-07T16:59:18.000Z</time>
      </trkpt>
      <trkpt lat="39.830648470669985" lon="-6.137579698115587">
        <ele>407.6000061035156</ele>
        <time>2015-12-07T16:59:20.000Z</time>
      </trkpt>
      <trkpt lat="39.830618211999536" lon="-6.137704169377685">
        <ele>408.6000061035156</ele>
        <time>2015-12-07T16:59:22.000Z</time>
      </trkpt>
      <trkpt lat="39.83058124780655" lon="-6.137815397232771">
        <ele>409.6000061035156</ele>
        <time>2015-12-07T16:59:24.000Z</time>
      </trkpt>
      <trkpt lat="39.83054478652775" lon="-6.137896617874503">
        <ele>410.20001220703125</ele>
        <time>2015-12-07T16:59:26.000Z</time>
      </trkpt>
      <trkpt lat="39.830518467351794" lon="-6.137973228469491">
        <ele>410.79998779296875</ele>
        <time>2015-12-07T16:59:29.000Z</time>
      </trkpt>
      <trkpt lat="39.83045828528702" lon="-6.138017401099205">
        <ele>411.20001220703125</ele>
        <time>2015-12-07T16:59:33.000Z</time>
      </trkpt>
      <trkpt lat="39.830341106280684" lon="-6.138034081086516">
        <ele>411.3999938964844</ele>
        <time>2015-12-07T16:59:38.000Z</time>
      </trkpt>
      <trkpt lat="39.830230632796884" lon="-6.1380625795573">
        <ele>411.3999938964844</ele>
        <time>2015-12-07T16:59:42.000Z</time>
      </trkpt>
      <trkpt lat="39.830172043293715" lon="-6.138067357242107">
        <ele>411.3999938964844</ele>
        <time>2015-12-07T16:59:44.000Z</time>
      </trkpt>
      <trkpt lat="39.83008193783462" lon="-6.138137262314558">
        <ele>411.6000061035156</ele>
        <time>2015-12-07T16:59:48.000Z</time>
      </trkpt>
      <trkpt lat="39.83008788898587" lon="-6.138290483504534">
        <ele>411.6000061035156</ele>
        <time>2015-12-07T16:59:52.000Z</time>
      </trkpt>
      <trkpt lat="39.83006819151342" lon="-6.138460552319884">
        <ele>411.6000061035156</ele>
        <time>2015-12-07T16:59:57.000Z</time>
      </trkpt>
      <trkpt lat="39.830076824873686" lon="-6.138490894809365">
        <ele>411.79998779296875</ele>
        <time>2015-12-07T16:59:58.000Z</time>
      </trkpt>
      <trkpt lat="39.83008763752878" lon="-6.13857957534492">
        <ele>412.0</ele>
        <time>2015-12-07T17:00:01.000Z</time>
      </trkpt>
      <trkpt lat="39.830076321959496" lon="-6.138608492910862">
        <ele>412.0</ele>
        <time>2015-12-07T17:00:02.000Z</time>
      </trkpt>
      <trkpt lat="39.830045057460666" lon="-6.1387032084167">
        <ele>412.20001220703125</ele>
        <time>2015-12-07T17:00:05.000Z</time>
      </trkpt>
      <trkpt lat="39.83008244074881" lon="-6.138895070180297">
        <ele>412.79998779296875</ele>
        <time>2015-12-07T17:00:10.000Z</time>
      </trkpt>
      <trkpt lat="39.83002326451242" lon="-6.139008896425366">
        <ele>412.79998779296875</ele>
        <time>2015-12-07T17:00:13.000Z</time>
      </trkpt>
      <trkpt lat="39.830005913972855" lon="-6.139038819819689">
        <ele>412.79998779296875</ele>
        <time>2015-12-07T17:00:14.000Z</time>
      </trkpt>
      <trkpt lat="39.829954197630286" lon="-6.139133702963591">
        <ele>413.0</ele>
        <time>2015-12-07T17:00:17.000Z</time>
      </trkpt>
      <trkpt lat="39.82993776910007" lon="-6.139134457334876">
        <ele>412.79998779296875</ele>
        <time>2015-12-07T17:00:18.000Z</time>
      </trkpt>
      <trkpt lat="39.829893093556166" lon="-6.139189023524523">
        <ele>412.79998779296875</ele>
        <time>2015-12-07T17:00:21.000Z</time>
      </trkpt>
      <trkpt lat="39.82988093979657" lon="-6.139286505058408">
        <ele>413.0</ele>
        <time>2015-12-07T17:00:23.000Z</time>
      </trkpt>
      <trkpt lat="39.829827630892396" lon="-6.13955195993185">
        <ele>413.3999938964844</ele>
        <time>2015-12-07T17:00:28.000Z</time>
      </trkpt>
      <trkpt lat="39.82973341830075" lon="-6.139763854444027">
        <ele>413.3999938964844</ele>
        <time>2015-12-07T17:00:32.000Z</time>
      </trkpt>
      <trkpt lat="39.82969293370843" lon="-6.139805344864726">
        <ele>413.3999938964844</ele>
        <time>2015-12-07T17:00:33.000Z</time>
      </trkpt>
      <trkpt lat="39.82958262786269" lon="-6.139924619346857">
        <ele>413.20001220703125</ele>
        <time>2015-12-07T17:00:36.000Z</time>
      </trkpt>
      <trkpt lat="39.829476764425635" lon="-6.14001807756722">
        <ele>413.0</ele>
        <time>2015-12-07T17:00:39.000Z</time>
      </trkpt>
      <trkpt lat="39.82944608666003" lon="-6.140040792524815">
        <ele>412.79998779296875</ele>
        <time>2015-12-07T17:00:40.000Z</time>
      </trkpt>
      <trkpt lat="39.8294164147228" lon="-6.140074739232659">
        <ele>412.6000061035156</ele>
        <time>2015-12-07T17:00:41.000Z</time>
      </trkpt>
      <trkpt lat="39.82937282882631" lon="-6.140198204666376">
        <ele>412.6000061035156</ele>
        <time>2015-12-07T17:00:44.000Z</time>
      </trkpt>
      <trkpt lat="39.82931340113282" lon="-6.1404197383672">
        <ele>412.6000061035156</ele>
        <time>2015-12-07T17:00:48.000Z</time>
      </trkpt>
      <trkpt lat="39.82923645526171" lon="-6.14069826900959">
        <ele>412.6000061035156</ele>
        <time>2015-12-07T17:00:53.000Z</time>
      </trkpt>
      <trkpt lat="39.82921072281897" lon="-6.1408048029989">
        <ele>412.6000061035156</ele>
        <time>2015-12-07T17:00:55.000Z</time>
      </trkpt>
      <trkpt lat="39.82915045693517" lon="-6.141013344749808">
        <ele>412.6000061035156</ele>
        <time>2015-12-07T17:00:59.000Z</time>
      </trkpt>
      <trkpt lat="39.82902145944536" lon="-6.141195734962821">
        <ele>412.0</ele>
        <time>2015-12-07T17:01:03.000Z</time>
      </trkpt>
      <trkpt lat="39.82896345667541" lon="-6.141291875392199">
        <ele>411.79998779296875</ele>
        <time>2015-12-07T17:01:05.000Z</time>
      </trkpt>
      <trkpt lat="39.8288915399462" lon="-6.141442246735096">
        <ele>411.3999938964844</ele>
        <time>2015-12-07T17:01:08.000Z</time>
      </trkpt>
      <trkpt lat="39.82871878892183" lon="-6.141737289726734">
        <ele>410.20001220703125</ele>
        <time>2015-12-07T17:01:14.000Z</time>
      </trkpt>
      <trkpt lat="39.82864645309746" lon="-6.141827814280987">
        <ele>410.20001220703125</ele>
        <time>2015-12-07T17:01:16.000Z</time>
      </trkpt>
      <trkpt lat="39.82834864407778" lon="-6.1421845480799675">
        <ele>409.6000061035156</ele>
        <time>2015-12-07T17:01:23.000Z</time>
      </trkpt>
      <trkpt lat="39.82811906374991" lon="-6.142491158097982">
        <ele>409.79998779296875</ele>
        <time>2015-12-07T17:01:29.000Z</time>
      </trkpt>
      <trkpt lat="39.82790909707546" lon="-6.14277932792902">
        <ele>410.0</ele>
        <time>2015-12-07T17:01:35.000Z</time>
      </trkpt>
      <trkpt lat="39.82774917036295" lon="-6.142959203571081">
        <ele>409.79998779296875</ele>
        <time>2015-12-07T17:01:40.000Z</time>
      </trkpt>
      <trkpt lat="39.82771941460669" lon="-6.142974374815822">
        <ele>409.79998779296875</ele>
        <time>2015-12-07T17:01:41.000Z</time>
      </trkpt>
      <trkpt lat="39.82770323753357" lon="-6.142976051196456">
        <ele>409.79998779296875</ele>
        <time>2015-12-07T17:01:44.000Z</time>
      </trkpt>
    </trkseg>
  </trk>
</gpx>
